<?xml version="1.0" encoding="UTF-8" standalone="no" ?>
<gpx xmlns="http://www.topografix.com/GPX/1/1" xmlns:xsi="http://www.w3.org/2001/XMLSchema-instance" xsi:schemaLocation="http://www.topografix.com/GPX/1/1 http://www.topografix.com/GPX/1/1/gpx.xsd" version="1.1" creator="VisuGPX - https://www.visugpx.com">
  <metadata>
    <name>rando paris sud</name>
    <desc><![CDATA[Rando paris sud du 3 mars 2013]]></desc>
  </metadata>
  <trk>
    <name><![CDATA[64 Avenue des Gobelins]]></name>
    <desc><![CDATA[]]></desc>
    <trkseg>
      <trkpt lat="48.83328" lon="2.33338">
        <ele>46.3</ele>
        <time>2013-03-03T12:40:38.987Z</time>
      </trkpt>
      <trkpt lat="48.83321" lon="2.33336">
        <ele>44.6</ele>
        <time>2013-03-03T12:40:39.998Z</time>
      </trkpt>
      <trkpt lat="48.83326" lon="2.33323">
        <ele>50.7</ele>
        <time>2013-03-03T12:40:40.988Z</time>
      </trkpt>
      <trkpt lat="48.83326" lon="2.33339">
        <ele>51.7</ele>
        <time>2013-03-03T12:40:42.000Z</time>
      </trkpt>
      <trkpt lat="48.83329" lon="2.33336">
        <ele>53.4</ele>
        <time>2013-03-03T12:40:43.000Z</time>
      </trkpt>
      <trkpt lat="48.83328" lon="2.33333">
        <ele>54.6</ele>
        <time>2013-03-03T12:40:44.000Z</time>
      </trkpt>
      <trkpt lat="48.83329" lon="2.33327">
        <ele>56.7</ele>
        <time>2013-03-03T12:40:45.000Z</time>
      </trkpt>
      <trkpt lat="48.83329" lon="2.33325">
        <ele>56.5</ele>
        <time>2013-03-03T12:40:46.000Z</time>
      </trkpt>
      <trkpt lat="48.83331" lon="2.33318">
        <ele>59.4</ele>
        <time>2013-03-03T12:40:47.000Z</time>
      </trkpt>
      <trkpt lat="48.83332" lon="2.33314">
        <ele>60.9</ele>
        <time>2013-03-03T12:40:48.000Z</time>
      </trkpt>
      <trkpt lat="48.83331" lon="2.33309">
        <ele>61.3</ele>
        <time>2013-03-03T12:40:49.000Z</time>
      </trkpt>
      <trkpt lat="48.83333" lon="2.33307">
        <ele>64.4</ele>
        <time>2013-03-03T12:40:50.000Z</time>
      </trkpt>
      <trkpt lat="48.83333" lon="2.33303">
        <ele>65.8</ele>
        <time>2013-03-03T12:40:51.000Z</time>
      </trkpt>
      <trkpt lat="48.83334" lon="2.33299">
        <ele>69.5</ele>
        <time>2013-03-03T12:40:52.000Z</time>
      </trkpt>
      <trkpt lat="48.83333" lon="2.33295">
        <ele>72.4</ele>
        <time>2013-03-03T12:40:53.000Z</time>
      </trkpt>
      <trkpt lat="48.83333" lon="2.33289">
        <ele>77.6</ele>
        <time>2013-03-03T12:40:55.000Z</time>
      </trkpt>
      <trkpt lat="48.83331" lon="2.33287">
        <ele>80.8</ele>
        <time>2013-03-03T12:40:56.000Z</time>
      </trkpt>
      <trkpt lat="48.83329" lon="2.33285">
        <ele>83.4</ele>
        <time>2013-03-03T12:40:57.000Z</time>
      </trkpt>
      <trkpt lat="48.83327" lon="2.33283">
        <ele>84.5</ele>
        <time>2013-03-03T12:40:58.000Z</time>
      </trkpt>
      <trkpt lat="48.83325" lon="2.33281">
        <ele>85.9</ele>
        <time>2013-03-03T12:40:59.000Z</time>
      </trkpt>
      <trkpt lat="48.83323" lon="2.3328">
        <ele>87.1</ele>
        <time>2013-03-03T12:41:00.000Z</time>
      </trkpt>
      <trkpt lat="48.83321" lon="2.33278">
        <ele>86.3</ele>
        <time>2013-03-03T12:41:01.000Z</time>
      </trkpt>
      <trkpt lat="48.83319" lon="2.33276">
        <ele>88.1</ele>
        <time>2013-03-03T12:41:02.000Z</time>
      </trkpt>
      <trkpt lat="48.83317" lon="2.33274">
        <ele>88.3</ele>
        <time>2013-03-03T12:41:03.000Z</time>
      </trkpt>
      <trkpt lat="48.83315" lon="2.33272">
        <ele>89.2</ele>
        <time>2013-03-03T12:41:04.000Z</time>
      </trkpt>
      <trkpt lat="48.83312" lon="2.33272">
        <ele>90.1</ele>
        <time>2013-03-03T12:41:05.000Z</time>
      </trkpt>
      <trkpt lat="48.8331" lon="2.33272">
        <ele>91.6</ele>
        <time>2013-03-03T12:41:06.000Z</time>
      </trkpt>
      <trkpt lat="48.83307" lon="2.33273">
        <ele>92.3</ele>
        <time>2013-03-03T12:41:07.000Z</time>
      </trkpt>
      <trkpt lat="48.83305" lon="2.33275">
        <ele>93.4</ele>
        <time>2013-03-03T12:41:08.000Z</time>
      </trkpt>
      <trkpt lat="48.83301" lon="2.33277">
        <ele>94.2</ele>
        <time>2013-03-03T12:41:09.000Z</time>
      </trkpt>
      <trkpt lat="48.83298" lon="2.33279">
        <ele>95.4</ele>
        <time>2013-03-03T12:41:10.000Z</time>
      </trkpt>
      <trkpt lat="48.83294" lon="2.33282">
        <ele>96.4</ele>
        <time>2013-03-03T12:41:11.000Z</time>
      </trkpt>
      <trkpt lat="48.83291" lon="2.33283">
        <ele>93.9</ele>
        <time>2013-03-03T12:41:12.000Z</time>
      </trkpt>
      <trkpt lat="48.83288" lon="2.33283">
        <ele>95.5</ele>
        <time>2013-03-03T12:41:13.000Z</time>
      </trkpt>
      <trkpt lat="48.83285" lon="2.33285">
        <ele>96.3</ele>
        <time>2013-03-03T12:41:14.000Z</time>
      </trkpt>
      <trkpt lat="48.83281" lon="2.33287">
        <ele>96.5</ele>
        <time>2013-03-03T12:41:15.000Z</time>
      </trkpt>
      <trkpt lat="48.83278" lon="2.33289">
        <ele>96.5</ele>
        <time>2013-03-03T12:41:16.000Z</time>
      </trkpt>
      <trkpt lat="48.83274" lon="2.33291">
        <ele>96.3</ele>
        <time>2013-03-03T12:41:17.000Z</time>
      </trkpt>
      <trkpt lat="48.83271" lon="2.33293">
        <ele>96.3</ele>
        <time>2013-03-03T12:41:18.000Z</time>
      </trkpt>
      <trkpt lat="48.83267" lon="2.33297">
        <ele>96.9</ele>
        <time>2013-03-03T12:41:19.000Z</time>
      </trkpt>
      <trkpt lat="48.83264" lon="2.33299">
        <ele>96.5</ele>
        <time>2013-03-03T12:41:20.000Z</time>
      </trkpt>
      <trkpt lat="48.8326" lon="2.33301">
        <ele>95.9</ele>
        <time>2013-03-03T12:41:21.000Z</time>
      </trkpt>
      <trkpt lat="48.83256" lon="2.33302">
        <ele>94.7</ele>
        <time>2013-03-03T12:41:22.000Z</time>
      </trkpt>
      <trkpt lat="48.83254" lon="2.33304">
        <ele>95.8</ele>
        <time>2013-03-03T12:41:23.000Z</time>
      </trkpt>
      <trkpt lat="48.83251" lon="2.33305">
        <ele>96.4</ele>
        <time>2013-03-03T12:41:24.000Z</time>
      </trkpt>
      <trkpt lat="48.83248" lon="2.33306">
        <ele>96</ele>
        <time>2013-03-03T12:41:25.000Z</time>
      </trkpt>
      <trkpt lat="48.83245" lon="2.33309">
        <ele>96.6</ele>
        <time>2013-03-03T12:41:26.000Z</time>
      </trkpt>
      <trkpt lat="48.83242" lon="2.33311">
        <ele>97.2</ele>
        <time>2013-03-03T12:41:27.000Z</time>
      </trkpt>
      <trkpt lat="48.83238" lon="2.33314">
        <ele>97.5</ele>
        <time>2013-03-03T12:41:28.000Z</time>
      </trkpt>
      <trkpt lat="48.83234" lon="2.33316">
        <ele>97.6</ele>
        <time>2013-03-03T12:41:29.000Z</time>
      </trkpt>
      <trkpt lat="48.8323" lon="2.33318">
        <ele>97</ele>
        <time>2013-03-03T12:41:30.000Z</time>
      </trkpt>
      <trkpt lat="48.83221" lon="2.33321">
        <ele>96.4</ele>
        <time>2013-03-03T12:41:33.000Z</time>
      </trkpt>
      <trkpt lat="48.83217" lon="2.33322">
        <ele>95.8</ele>
        <time>2013-03-03T12:41:34.000Z</time>
      </trkpt>
      <trkpt lat="48.83214" lon="2.33324">
        <ele>94.5</ele>
        <time>2013-03-03T12:41:35.000Z</time>
      </trkpt>
      <trkpt lat="48.8321" lon="2.33326">
        <ele>93.5</ele>
        <time>2013-03-03T12:41:36.000Z</time>
      </trkpt>
      <trkpt lat="48.83206" lon="2.33328">
        <ele>93.2</ele>
        <time>2013-03-03T12:41:37.000Z</time>
      </trkpt>
      <trkpt lat="48.83201" lon="2.33329">
        <ele>92.4</ele>
        <time>2013-03-03T12:41:38.000Z</time>
      </trkpt>
      <trkpt lat="48.83197" lon="2.3333">
        <ele>93.4</ele>
        <time>2013-03-03T12:41:39.000Z</time>
      </trkpt>
      <trkpt lat="48.83193" lon="2.33332">
        <ele>93.5</ele>
        <time>2013-03-03T12:41:40.000Z</time>
      </trkpt>
      <trkpt lat="48.83189" lon="2.33334">
        <ele>95.7</ele>
        <time>2013-03-03T12:41:41.000Z</time>
      </trkpt>
      <trkpt lat="48.83184" lon="2.33336">
        <ele>95.1</ele>
        <time>2013-03-03T12:41:42.000Z</time>
      </trkpt>
      <trkpt lat="48.8318" lon="2.33337">
        <ele>95</ele>
        <time>2013-03-03T12:41:43.000Z</time>
      </trkpt>
      <trkpt lat="48.83176" lon="2.33338">
        <ele>95.6</ele>
        <time>2013-03-03T12:41:44.000Z</time>
      </trkpt>
      <trkpt lat="48.83172" lon="2.3334">
        <ele>97.3</ele>
        <time>2013-03-03T12:41:45.000Z</time>
      </trkpt>
      <trkpt lat="48.83167" lon="2.33341">
        <ele>98.9</ele>
        <time>2013-03-03T12:41:46.000Z</time>
      </trkpt>
      <trkpt lat="48.83163" lon="2.33341">
        <ele>98.8</ele>
        <time>2013-03-03T12:41:47.000Z</time>
      </trkpt>
      <trkpt lat="48.83159" lon="2.33341">
        <ele>98.5</ele>
        <time>2013-03-03T12:41:48.000Z</time>
      </trkpt>
      <trkpt lat="48.83156" lon="2.33341">
        <ele>97.3</ele>
        <time>2013-03-03T12:41:49.000Z</time>
      </trkpt>
      <trkpt lat="48.83152" lon="2.33342">
        <ele>97.8</ele>
        <time>2013-03-03T12:41:50.000Z</time>
      </trkpt>
      <trkpt lat="48.83148" lon="2.33342">
        <ele>97.3</ele>
        <time>2013-03-03T12:41:51.000Z</time>
      </trkpt>
      <trkpt lat="48.83144" lon="2.33344">
        <ele>96.7</ele>
        <time>2013-03-03T12:41:52.000Z</time>
      </trkpt>
      <trkpt lat="48.8314" lon="2.33345">
        <ele>96.8</ele>
        <time>2013-03-03T12:41:53.000Z</time>
      </trkpt>
      <trkpt lat="48.83137" lon="2.33347">
        <ele>96.5</ele>
        <time>2013-03-03T12:41:54.000Z</time>
      </trkpt>
      <trkpt lat="48.83133" lon="2.33349">
        <ele>94.3</ele>
        <time>2013-03-03T12:41:55.000Z</time>
      </trkpt>
      <trkpt lat="48.8313" lon="2.33351">
        <ele>93.3</ele>
        <time>2013-03-03T12:41:56.000Z</time>
      </trkpt>
      <trkpt lat="48.83127" lon="2.33353">
        <ele>92.8</ele>
        <time>2013-03-03T12:41:57.000Z</time>
      </trkpt>
      <trkpt lat="48.83123" lon="2.33356">
        <ele>92.4</ele>
        <time>2013-03-03T12:41:58.000Z</time>
      </trkpt>
      <trkpt lat="48.8312" lon="2.33358">
        <ele>92.3</ele>
        <time>2013-03-03T12:41:59.000Z</time>
      </trkpt>
      <trkpt lat="48.83117" lon="2.33361">
        <ele>92.3</ele>
        <time>2013-03-03T12:42:00.000Z</time>
      </trkpt>
      <trkpt lat="48.83114" lon="2.33364">
        <ele>91.6</ele>
        <time>2013-03-03T12:42:01.000Z</time>
      </trkpt>
      <trkpt lat="48.8311" lon="2.33367">
        <ele>91.1</ele>
        <time>2013-03-03T12:42:02.000Z</time>
      </trkpt>
      <trkpt lat="48.83107" lon="2.33369">
        <ele>90.8</ele>
        <time>2013-03-03T12:42:03.000Z</time>
      </trkpt>
      <trkpt lat="48.83103" lon="2.3337">
        <ele>90.2</ele>
        <time>2013-03-03T12:42:04.000Z</time>
      </trkpt>
      <trkpt lat="48.831" lon="2.33372">
        <ele>90.1</ele>
        <time>2013-03-03T12:42:05.000Z</time>
      </trkpt>
      <trkpt lat="48.83096" lon="2.33372">
        <ele>90.2</ele>
        <time>2013-03-03T12:42:06.000Z</time>
      </trkpt>
      <trkpt lat="48.83094" lon="2.3337">
        <ele>90.5</ele>
        <time>2013-03-03T12:42:07.000Z</time>
      </trkpt>
      <trkpt lat="48.83094" lon="2.33365">
        <ele>91.7</ele>
        <time>2013-03-03T12:42:10.000Z</time>
      </trkpt>
      <trkpt lat="48.83094" lon="2.33362">
        <ele>91.5</ele>
        <time>2013-03-03T12:42:11.000Z</time>
      </trkpt>
      <trkpt lat="48.83092" lon="2.33357">
        <ele>90.3</ele>
        <time>2013-03-03T12:42:13.000Z</time>
      </trkpt>
      <trkpt lat="48.83092" lon="2.33354">
        <ele>91</ele>
        <time>2013-03-03T12:42:14.000Z</time>
      </trkpt>
      <trkpt lat="48.83092" lon="2.3335">
        <ele>90.7</ele>
        <time>2013-03-03T12:42:15.000Z</time>
      </trkpt>
      <trkpt lat="48.83091" lon="2.33346">
        <ele>91.3</ele>
        <time>2013-03-03T12:42:16.000Z</time>
      </trkpt>
      <trkpt lat="48.83091" lon="2.33342">
        <ele>92.2</ele>
        <time>2013-03-03T12:42:17.000Z</time>
      </trkpt>
      <trkpt lat="48.83091" lon="2.33338">
        <ele>93.8</ele>
        <time>2013-03-03T12:42:18.000Z</time>
      </trkpt>
      <trkpt lat="48.83091" lon="2.33334">
        <ele>95.1</ele>
        <time>2013-03-03T12:42:19.000Z</time>
      </trkpt>
      <trkpt lat="48.83091" lon="2.33331">
        <ele>95.4</ele>
        <time>2013-03-03T12:42:20.000Z</time>
      </trkpt>
      <trkpt lat="48.8309" lon="2.33327">
        <ele>96.2</ele>
        <time>2013-03-03T12:42:21.000Z</time>
      </trkpt>
      <trkpt lat="48.8309" lon="2.33323">
        <ele>96.9</ele>
        <time>2013-03-03T12:42:22.000Z</time>
      </trkpt>
      <trkpt lat="48.83089" lon="2.33319">
        <ele>98</ele>
        <time>2013-03-03T12:42:23.000Z</time>
      </trkpt>
      <trkpt lat="48.83088" lon="2.33315">
        <ele>98.8</ele>
        <time>2013-03-03T12:42:24.000Z</time>
      </trkpt>
      <trkpt lat="48.83087" lon="2.33309">
        <ele>99.9</ele>
        <time>2013-03-03T12:42:26.000Z</time>
      </trkpt>
      <trkpt lat="48.83086" lon="2.33309">
        <ele>99.1</ele>
        <time>2013-03-03T12:42:27.000Z</time>
      </trkpt>
      <trkpt lat="48.83084" lon="2.33306">
        <ele>100.1</ele>
        <time>2013-03-03T12:42:33.000Z</time>
      </trkpt>
      <trkpt lat="48.83084" lon="2.33303">
        <ele>100.8</ele>
        <time>2013-03-03T12:42:34.000Z</time>
      </trkpt>
      <trkpt lat="48.83084" lon="2.33299">
        <ele>101.7</ele>
        <time>2013-03-03T12:42:35.000Z</time>
      </trkpt>
      <trkpt lat="48.83084" lon="2.33296">
        <ele>103.1</ele>
        <time>2013-03-03T12:42:36.000Z</time>
      </trkpt>
      <trkpt lat="48.83085" lon="2.3329">
        <ele>105</ele>
        <time>2013-03-03T12:42:38.000Z</time>
      </trkpt>
      <trkpt lat="48.83085" lon="2.33287">
        <ele>106.2</ele>
        <time>2013-03-03T12:42:39.000Z</time>
      </trkpt>
      <trkpt lat="48.83085" lon="2.33283">
        <ele>108.6</ele>
        <time>2013-03-03T12:42:40.000Z</time>
      </trkpt>
      <trkpt lat="48.83084" lon="2.3328">
        <ele>107.8</ele>
        <time>2013-03-03T12:42:41.000Z</time>
      </trkpt>
      <trkpt lat="48.83083" lon="2.33276">
        <ele>110</ele>
        <time>2013-03-03T12:42:42.000Z</time>
      </trkpt>
      <trkpt lat="48.83082" lon="2.33273">
        <ele>110.6</ele>
        <time>2013-03-03T12:42:43.000Z</time>
      </trkpt>
      <trkpt lat="48.8308" lon="2.33268">
        <ele>109.2</ele>
        <time>2013-03-03T12:42:45.000Z</time>
      </trkpt>
      <trkpt lat="48.83078" lon="2.33263">
        <ele>109.9</ele>
        <time>2013-03-03T12:42:46.000Z</time>
      </trkpt>
      <trkpt lat="48.83077" lon="2.3326">
        <ele>108.4</ele>
        <time>2013-03-03T12:42:47.000Z</time>
      </trkpt>
      <trkpt lat="48.83077" lon="2.33256">
        <ele>108.7</ele>
        <time>2013-03-03T12:42:48.000Z</time>
      </trkpt>
      <trkpt lat="48.83077" lon="2.33253">
        <ele>109</ele>
        <time>2013-03-03T12:42:49.000Z</time>
      </trkpt>
      <trkpt lat="48.83077" lon="2.33249">
        <ele>108.7</ele>
        <time>2013-03-03T12:42:50.000Z</time>
      </trkpt>
      <trkpt lat="48.83077" lon="2.33242">
        <ele>108.8</ele>
        <time>2013-03-03T12:42:51.000Z</time>
      </trkpt>
      <trkpt lat="48.83077" lon="2.33237">
        <ele>108</ele>
        <time>2013-03-03T12:42:52.000Z</time>
      </trkpt>
      <trkpt lat="48.83076" lon="2.33231">
        <ele>108.8</ele>
        <time>2013-03-03T12:42:53.000Z</time>
      </trkpt>
      <trkpt lat="48.83075" lon="2.33226">
        <ele>108.7</ele>
        <time>2013-03-03T12:42:54.000Z</time>
      </trkpt>
      <trkpt lat="48.83074" lon="2.33219">
        <ele>108.6</ele>
        <time>2013-03-03T12:42:55.000Z</time>
      </trkpt>
      <trkpt lat="48.83073" lon="2.33213">
        <ele>108.3</ele>
        <time>2013-03-03T12:42:56.000Z</time>
      </trkpt>
      <trkpt lat="48.83072" lon="2.33208">
        <ele>108.3</ele>
        <time>2013-03-03T12:42:57.000Z</time>
      </trkpt>
      <trkpt lat="48.83071" lon="2.33202">
        <ele>107.7</ele>
        <time>2013-03-03T12:42:58.000Z</time>
      </trkpt>
      <trkpt lat="48.8307" lon="2.33196">
        <ele>107.5</ele>
        <time>2013-03-03T12:42:59.000Z</time>
      </trkpt>
      <trkpt lat="48.8307" lon="2.33191">
        <ele>107.4</ele>
        <time>2013-03-03T12:43:00.000Z</time>
      </trkpt>
      <trkpt lat="48.83069" lon="2.33185">
        <ele>107.3</ele>
        <time>2013-03-03T12:43:01.000Z</time>
      </trkpt>
      <trkpt lat="48.83069" lon="2.3318">
        <ele>106.1</ele>
        <time>2013-03-03T12:43:02.000Z</time>
      </trkpt>
      <trkpt lat="48.8307" lon="2.33176">
        <ele>106.1</ele>
        <time>2013-03-03T12:43:03.000Z</time>
      </trkpt>
      <trkpt lat="48.8307" lon="2.33171">
        <ele>105.8</ele>
        <time>2013-03-03T12:43:04.000Z</time>
      </trkpt>
      <trkpt lat="48.83071" lon="2.33166">
        <ele>105.7</ele>
        <time>2013-03-03T12:43:05.000Z</time>
      </trkpt>
      <trkpt lat="48.8307" lon="2.33161">
        <ele>105.5</ele>
        <time>2013-03-03T12:43:06.000Z</time>
      </trkpt>
      <trkpt lat="48.83069" lon="2.33157">
        <ele>104.3</ele>
        <time>2013-03-03T12:43:07.000Z</time>
      </trkpt>
      <trkpt lat="48.83067" lon="2.33155">
        <ele>104.9</ele>
        <time>2013-03-03T12:43:08.000Z</time>
      </trkpt>
      <trkpt lat="48.83067" lon="2.33151">
        <ele>104.5</ele>
        <time>2013-03-03T12:43:09.000Z</time>
      </trkpt>
      <trkpt lat="48.83068" lon="2.33147">
        <ele>103.1</ele>
        <time>2013-03-03T12:43:10.000Z</time>
      </trkpt>
      <trkpt lat="48.8307" lon="2.33143">
        <ele>102.3</ele>
        <time>2013-03-03T12:43:11.000Z</time>
      </trkpt>
      <trkpt lat="48.83072" lon="2.33138">
        <ele>101.3</ele>
        <time>2013-03-03T12:43:12.000Z</time>
      </trkpt>
      <trkpt lat="48.83075" lon="2.33134">
        <ele>100.1</ele>
        <time>2013-03-03T12:43:13.000Z</time>
      </trkpt>
      <trkpt lat="48.83077" lon="2.33129">
        <ele>99.2</ele>
        <time>2013-03-03T12:43:14.000Z</time>
      </trkpt>
      <trkpt lat="48.83079" lon="2.33123">
        <ele>98.8</ele>
        <time>2013-03-03T12:43:15.000Z</time>
      </trkpt>
      <trkpt lat="48.83081" lon="2.33117">
        <ele>98.5</ele>
        <time>2013-03-03T12:43:16.000Z</time>
      </trkpt>
      <trkpt lat="48.83083" lon="2.33112">
        <ele>98.9</ele>
        <time>2013-03-03T12:43:17.000Z</time>
      </trkpt>
      <trkpt lat="48.83084" lon="2.33106">
        <ele>99.1</ele>
        <time>2013-03-03T12:43:18.000Z</time>
      </trkpt>
      <trkpt lat="48.83086" lon="2.33101">
        <ele>98.5</ele>
        <time>2013-03-03T12:43:19.000Z</time>
      </trkpt>
      <trkpt lat="48.83087" lon="2.33097">
        <ele>98.2</ele>
        <time>2013-03-03T12:43:20.000Z</time>
      </trkpt>
      <trkpt lat="48.83089" lon="2.33093">
        <ele>97.5</ele>
        <time>2013-03-03T12:43:21.000Z</time>
      </trkpt>
      <trkpt lat="48.83091" lon="2.33089">
        <ele>104.9</ele>
        <time>2013-03-03T12:43:22.000Z</time>
      </trkpt>
      <trkpt lat="48.83092" lon="2.33085">
        <ele>103</ele>
        <time>2013-03-03T12:43:23.000Z</time>
      </trkpt>
      <trkpt lat="48.83094" lon="2.33082">
        <ele>100.8</ele>
        <time>2013-03-03T12:43:24.000Z</time>
      </trkpt>
      <trkpt lat="48.83095" lon="2.33079">
        <ele>100.1</ele>
        <time>2013-03-03T12:43:25.000Z</time>
      </trkpt>
      <trkpt lat="48.83097" lon="2.33076">
        <ele>99</ele>
        <time>2013-03-03T12:43:26.000Z</time>
      </trkpt>
      <trkpt lat="48.83098" lon="2.33072">
        <ele>98.1</ele>
        <time>2013-03-03T12:43:27.000Z</time>
      </trkpt>
      <trkpt lat="48.83099" lon="2.33068">
        <ele>95.9</ele>
        <time>2013-03-03T12:43:28.000Z</time>
      </trkpt>
      <trkpt lat="48.831" lon="2.33064">
        <ele>95.9</ele>
        <time>2013-03-03T12:43:29.000Z</time>
      </trkpt>
      <trkpt lat="48.83101" lon="2.3306">
        <ele>94.8</ele>
        <time>2013-03-03T12:43:30.000Z</time>
      </trkpt>
      <trkpt lat="48.83105" lon="2.33049">
        <ele>93.7</ele>
        <time>2013-03-03T12:43:33.000Z</time>
      </trkpt>
      <trkpt lat="48.83106" lon="2.33046">
        <ele>94.1</ele>
        <time>2013-03-03T12:43:34.000Z</time>
      </trkpt>
      <trkpt lat="48.83107" lon="2.33043">
        <ele>94.4</ele>
        <time>2013-03-03T12:43:35.000Z</time>
      </trkpt>
      <trkpt lat="48.83109" lon="2.33039">
        <ele>93.7</ele>
        <time>2013-03-03T12:43:36.000Z</time>
      </trkpt>
      <trkpt lat="48.8311" lon="2.33036">
        <ele>93.1</ele>
        <time>2013-03-03T12:43:37.000Z</time>
      </trkpt>
      <trkpt lat="48.83111" lon="2.33033">
        <ele>92.1</ele>
        <time>2013-03-03T12:43:38.000Z</time>
      </trkpt>
      <trkpt lat="48.83112" lon="2.33029">
        <ele>91.7</ele>
        <time>2013-03-03T12:43:39.000Z</time>
      </trkpt>
      <trkpt lat="48.83112" lon="2.33025">
        <ele>91.5</ele>
        <time>2013-03-03T12:43:40.000Z</time>
      </trkpt>
      <trkpt lat="48.83113" lon="2.3302">
        <ele>91.6</ele>
        <time>2013-03-03T12:43:41.000Z</time>
      </trkpt>
      <trkpt lat="48.83113" lon="2.33016">
        <ele>91.9</ele>
        <time>2013-03-03T12:43:42.000Z</time>
      </trkpt>
      <trkpt lat="48.83114" lon="2.33011">
        <ele>91.7</ele>
        <time>2013-03-03T12:43:43.000Z</time>
      </trkpt>
      <trkpt lat="48.83115" lon="2.33008">
        <ele>93.3</ele>
        <time>2013-03-03T12:43:44.000Z</time>
      </trkpt>
      <trkpt lat="48.83117" lon="2.33005">
        <ele>96.4</ele>
        <time>2013-03-03T12:43:45.000Z</time>
      </trkpt>
      <trkpt lat="48.83119" lon="2.33004">
        <ele>95.5</ele>
        <time>2013-03-03T12:43:46.000Z</time>
      </trkpt>
      <trkpt lat="48.83121" lon="2.33002">
        <ele>98.1</ele>
        <time>2013-03-03T12:43:47.000Z</time>
      </trkpt>
      <trkpt lat="48.83124" lon="2.33001">
        <ele>100.6</ele>
        <time>2013-03-03T12:43:48.000Z</time>
      </trkpt>
      <trkpt lat="48.83126" lon="2.33">
        <ele>102.5</ele>
        <time>2013-03-03T12:43:49.000Z</time>
      </trkpt>
      <trkpt lat="48.83129" lon="2.32999">
        <ele>106.8</ele>
        <time>2013-03-03T12:43:51.000Z</time>
      </trkpt>
      <trkpt lat="48.83131" lon="2.32998">
        <ele>107.6</ele>
        <time>2013-03-03T12:43:52.000Z</time>
      </trkpt>
      <trkpt lat="48.83134" lon="2.32994">
        <ele>115.6</ele>
        <time>2013-03-03T12:45:50.000Z</time>
      </trkpt>
      <trkpt lat="48.83135" lon="2.32991">
        <ele>117.3</ele>
        <time>2013-03-03T12:45:51.000Z</time>
      </trkpt>
      <trkpt lat="48.83137" lon="2.32987">
        <ele>119.6</ele>
        <time>2013-03-03T12:45:52.000Z</time>
      </trkpt>
      <trkpt lat="48.83138" lon="2.32982">
        <ele>120.7</ele>
        <time>2013-03-03T12:45:53.000Z</time>
      </trkpt>
      <trkpt lat="48.83139" lon="2.32979">
        <ele>119.5</ele>
        <time>2013-03-03T12:45:54.000Z</time>
      </trkpt>
      <trkpt lat="48.83141" lon="2.32976">
        <ele>115.2</ele>
        <time>2013-03-03T12:45:55.000Z</time>
      </trkpt>
      <trkpt lat="48.83142" lon="2.32973">
        <ele>113.6</ele>
        <time>2013-03-03T12:45:56.000Z</time>
      </trkpt>
      <trkpt lat="48.83143" lon="2.32969">
        <ele>112.7</ele>
        <time>2013-03-03T12:45:57.000Z</time>
      </trkpt>
      <trkpt lat="48.83144" lon="2.32966">
        <ele>112.2</ele>
        <time>2013-03-03T12:45:58.000Z</time>
      </trkpt>
      <trkpt lat="48.83146" lon="2.32963">
        <ele>112.1</ele>
        <time>2013-03-03T12:45:59.000Z</time>
      </trkpt>
      <trkpt lat="48.83147" lon="2.32959">
        <ele>111.2</ele>
        <time>2013-03-03T12:46:00.000Z</time>
      </trkpt>
      <trkpt lat="48.83149" lon="2.32955">
        <ele>111.3</ele>
        <time>2013-03-03T12:46:01.000Z</time>
      </trkpt>
      <trkpt lat="48.8315" lon="2.3295">
        <ele>111.2</ele>
        <time>2013-03-03T12:46:02.000Z</time>
      </trkpt>
      <trkpt lat="48.83152" lon="2.32946">
        <ele>111</ele>
        <time>2013-03-03T12:46:03.000Z</time>
      </trkpt>
      <trkpt lat="48.83154" lon="2.32941">
        <ele>110.1</ele>
        <time>2013-03-03T12:46:04.000Z</time>
      </trkpt>
      <trkpt lat="48.83155" lon="2.32936">
        <ele>111.8</ele>
        <time>2013-03-03T12:46:05.000Z</time>
      </trkpt>
      <trkpt lat="48.83157" lon="2.32932">
        <ele>110.9</ele>
        <time>2013-03-03T12:46:06.000Z</time>
      </trkpt>
      <trkpt lat="48.8316" lon="2.32928">
        <ele>110.4</ele>
        <time>2013-03-03T12:46:07.000Z</time>
      </trkpt>
      <trkpt lat="48.83162" lon="2.32924">
        <ele>107.9</ele>
        <time>2013-03-03T12:46:08.000Z</time>
      </trkpt>
      <trkpt lat="48.83163" lon="2.32921">
        <ele>107.6</ele>
        <time>2013-03-03T12:46:09.000Z</time>
      </trkpt>
      <trkpt lat="48.83166" lon="2.32916">
        <ele>105</ele>
        <time>2013-03-03T12:46:11.000Z</time>
      </trkpt>
      <trkpt lat="48.83167" lon="2.32914">
        <ele>104.8</ele>
        <time>2013-03-03T12:46:12.000Z</time>
      </trkpt>
      <trkpt lat="48.8317" lon="2.32909">
        <ele>104.7</ele>
        <time>2013-03-03T12:46:14.000Z</time>
      </trkpt>
      <trkpt lat="48.83171" lon="2.32906">
        <ele>104.1</ele>
        <time>2013-03-03T12:46:15.000Z</time>
      </trkpt>
      <trkpt lat="48.83172" lon="2.32903">
        <ele>103.8</ele>
        <time>2013-03-03T12:46:16.000Z</time>
      </trkpt>
      <trkpt lat="48.83173" lon="2.32899">
        <ele>103.8</ele>
        <time>2013-03-03T12:46:17.000Z</time>
      </trkpt>
      <trkpt lat="48.83174" lon="2.32896">
        <ele>103.7</ele>
        <time>2013-03-03T12:46:18.000Z</time>
      </trkpt>
      <trkpt lat="48.83175" lon="2.32892">
        <ele>103.9</ele>
        <time>2013-03-03T12:46:19.000Z</time>
      </trkpt>
      <trkpt lat="48.83177" lon="2.32889">
        <ele>104.5</ele>
        <time>2013-03-03T12:46:20.000Z</time>
      </trkpt>
      <trkpt lat="48.83178" lon="2.32885">
        <ele>104.8</ele>
        <time>2013-03-03T12:46:21.000Z</time>
      </trkpt>
      <trkpt lat="48.8318" lon="2.32881">
        <ele>105</ele>
        <time>2013-03-03T12:46:22.000Z</time>
      </trkpt>
      <trkpt lat="48.83181" lon="2.32876">
        <ele>105.4</ele>
        <time>2013-03-03T12:46:23.000Z</time>
      </trkpt>
      <trkpt lat="48.83182" lon="2.32871">
        <ele>105.8</ele>
        <time>2013-03-03T12:46:24.000Z</time>
      </trkpt>
      <trkpt lat="48.83184" lon="2.32867">
        <ele>105.9</ele>
        <time>2013-03-03T12:46:25.000Z</time>
      </trkpt>
      <trkpt lat="48.83185" lon="2.32863">
        <ele>106</ele>
        <time>2013-03-03T12:46:26.000Z</time>
      </trkpt>
      <trkpt lat="48.83186" lon="2.3286">
        <ele>106.4</ele>
        <time>2013-03-03T12:46:27.000Z</time>
      </trkpt>
      <trkpt lat="48.83187" lon="2.32856">
        <ele>106.4</ele>
        <time>2013-03-03T12:46:28.000Z</time>
      </trkpt>
      <trkpt lat="48.83188" lon="2.32852">
        <ele>106.5</ele>
        <time>2013-03-03T12:46:29.000Z</time>
      </trkpt>
      <trkpt lat="48.83188" lon="2.32848">
        <ele>105.7</ele>
        <time>2013-03-03T12:46:30.000Z</time>
      </trkpt>
      <trkpt lat="48.8319" lon="2.32837">
        <ele>104.9</ele>
        <time>2013-03-03T12:46:33.000Z</time>
      </trkpt>
      <trkpt lat="48.83191" lon="2.32833">
        <ele>104</ele>
        <time>2013-03-03T12:46:34.000Z</time>
      </trkpt>
      <trkpt lat="48.83192" lon="2.32829">
        <ele>103.4</ele>
        <time>2013-03-03T12:46:35.000Z</time>
      </trkpt>
      <trkpt lat="48.83192" lon="2.32826">
        <ele>103.5</ele>
        <time>2013-03-03T12:46:36.000Z</time>
      </trkpt>
      <trkpt lat="48.83193" lon="2.32822">
        <ele>103.2</ele>
        <time>2013-03-03T12:46:37.000Z</time>
      </trkpt>
      <trkpt lat="48.83193" lon="2.32817">
        <ele>103.4</ele>
        <time>2013-03-03T12:46:38.000Z</time>
      </trkpt>
      <trkpt lat="48.83194" lon="2.32813">
        <ele>103.4</ele>
        <time>2013-03-03T12:46:39.000Z</time>
      </trkpt>
      <trkpt lat="48.83195" lon="2.32808">
        <ele>103.3</ele>
        <time>2013-03-03T12:46:40.000Z</time>
      </trkpt>
      <trkpt lat="48.83197" lon="2.32802">
        <ele>103</ele>
        <time>2013-03-03T12:46:41.000Z</time>
      </trkpt>
      <trkpt lat="48.83198" lon="2.32796">
        <ele>102.6</ele>
        <time>2013-03-03T12:46:42.000Z</time>
      </trkpt>
      <trkpt lat="48.83199" lon="2.3279">
        <ele>102.4</ele>
        <time>2013-03-03T12:46:43.000Z</time>
      </trkpt>
      <trkpt lat="48.832" lon="2.32784">
        <ele>102.9</ele>
        <time>2013-03-03T12:46:44.000Z</time>
      </trkpt>
      <trkpt lat="48.83201" lon="2.32778">
        <ele>104</ele>
        <time>2013-03-03T12:46:45.000Z</time>
      </trkpt>
      <trkpt lat="48.83202" lon="2.32772">
        <ele>103.7</ele>
        <time>2013-03-03T12:46:46.000Z</time>
      </trkpt>
      <trkpt lat="48.83203" lon="2.32766">
        <ele>103.8</ele>
        <time>2013-03-03T12:46:47.000Z</time>
      </trkpt>
      <trkpt lat="48.83204" lon="2.3276">
        <ele>104.1</ele>
        <time>2013-03-03T12:46:48.000Z</time>
      </trkpt>
      <trkpt lat="48.83205" lon="2.32754">
        <ele>105.2</ele>
        <time>2013-03-03T12:46:49.000Z</time>
      </trkpt>
      <trkpt lat="48.83206" lon="2.32748">
        <ele>105.2</ele>
        <time>2013-03-03T12:46:50.000Z</time>
      </trkpt>
      <trkpt lat="48.83207" lon="2.32743">
        <ele>107.4</ele>
        <time>2013-03-03T12:46:51.000Z</time>
      </trkpt>
      <trkpt lat="48.83208" lon="2.32737">
        <ele>109.4</ele>
        <time>2013-03-03T12:46:52.000Z</time>
      </trkpt>
      <trkpt lat="48.83209" lon="2.32732">
        <ele>111.2</ele>
        <time>2013-03-03T12:46:53.000Z</time>
      </trkpt>
      <trkpt lat="48.8321" lon="2.32728">
        <ele>112.3</ele>
        <time>2013-03-03T12:46:54.000Z</time>
      </trkpt>
      <trkpt lat="48.83211" lon="2.32724">
        <ele>112.4</ele>
        <time>2013-03-03T12:46:55.000Z</time>
      </trkpt>
      <trkpt lat="48.83212" lon="2.3272">
        <ele>113.7</ele>
        <time>2013-03-03T12:46:56.000Z</time>
      </trkpt>
      <trkpt lat="48.83214" lon="2.32716">
        <ele>114.9</ele>
        <time>2013-03-03T12:46:57.000Z</time>
      </trkpt>
      <trkpt lat="48.83215" lon="2.32712">
        <ele>113.9</ele>
        <time>2013-03-03T12:46:58.000Z</time>
      </trkpt>
      <trkpt lat="48.83217" lon="2.32708">
        <ele>115</ele>
        <time>2013-03-03T12:46:59.000Z</time>
      </trkpt>
      <trkpt lat="48.83218" lon="2.32703">
        <ele>116.2</ele>
        <time>2013-03-03T12:47:00.000Z</time>
      </trkpt>
      <trkpt lat="48.83218" lon="2.32698">
        <ele>115.4</ele>
        <time>2013-03-03T12:47:01.000Z</time>
      </trkpt>
      <trkpt lat="48.83218" lon="2.32693">
        <ele>116.8</ele>
        <time>2013-03-03T12:47:02.000Z</time>
      </trkpt>
      <trkpt lat="48.83218" lon="2.32688">
        <ele>118.7</ele>
        <time>2013-03-03T12:47:03.000Z</time>
      </trkpt>
      <trkpt lat="48.83218" lon="2.32682">
        <ele>119.8</ele>
        <time>2013-03-03T12:47:04.000Z</time>
      </trkpt>
      <trkpt lat="48.83219" lon="2.32675">
        <ele>119</ele>
        <time>2013-03-03T12:47:05.000Z</time>
      </trkpt>
      <trkpt lat="48.83221" lon="2.32669">
        <ele>117.5</ele>
        <time>2013-03-03T12:47:06.000Z</time>
      </trkpt>
      <trkpt lat="48.83222" lon="2.32664">
        <ele>117.1</ele>
        <time>2013-03-03T12:47:07.000Z</time>
      </trkpt>
      <trkpt lat="48.83224" lon="2.32659">
        <ele>117.7</ele>
        <time>2013-03-03T12:47:08.000Z</time>
      </trkpt>
      <trkpt lat="48.83226" lon="2.32654">
        <ele>118.3</ele>
        <time>2013-03-03T12:47:09.000Z</time>
      </trkpt>
      <trkpt lat="48.83228" lon="2.32649">
        <ele>119.6</ele>
        <time>2013-03-03T12:47:10.000Z</time>
      </trkpt>
      <trkpt lat="48.8323" lon="2.32644">
        <ele>119.6</ele>
        <time>2013-03-03T12:47:11.000Z</time>
      </trkpt>
      <trkpt lat="48.83232" lon="2.32641">
        <ele>120.2</ele>
        <time>2013-03-03T12:47:12.000Z</time>
      </trkpt>
      <trkpt lat="48.83235" lon="2.32635">
        <ele>123.1</ele>
        <time>2013-03-03T12:47:13.000Z</time>
      </trkpt>
      <trkpt lat="48.83237" lon="2.32631">
        <ele>124.1</ele>
        <time>2013-03-03T12:47:14.000Z</time>
      </trkpt>
      <trkpt lat="48.83238" lon="2.32626">
        <ele>124.1</ele>
        <time>2013-03-03T12:47:15.000Z</time>
      </trkpt>
      <trkpt lat="48.8324" lon="2.32621">
        <ele>124.1</ele>
        <time>2013-03-03T12:47:16.000Z</time>
      </trkpt>
      <trkpt lat="48.83242" lon="2.32616">
        <ele>123.9</ele>
        <time>2013-03-03T12:47:17.000Z</time>
      </trkpt>
      <trkpt lat="48.83243" lon="2.32612">
        <ele>124</ele>
        <time>2013-03-03T12:47:18.000Z</time>
      </trkpt>
      <trkpt lat="48.83245" lon="2.32609">
        <ele>124.5</ele>
        <time>2013-03-03T12:47:19.000Z</time>
      </trkpt>
      <trkpt lat="48.83247" lon="2.32605">
        <ele>124.3</ele>
        <time>2013-03-03T12:47:20.000Z</time>
      </trkpt>
      <trkpt lat="48.83248" lon="2.326">
        <ele>124.9</ele>
        <time>2013-03-03T12:47:21.000Z</time>
      </trkpt>
      <trkpt lat="48.83249" lon="2.32595">
        <ele>124.4</ele>
        <time>2013-03-03T12:47:22.000Z</time>
      </trkpt>
      <trkpt lat="48.8325" lon="2.32589">
        <ele>124.7</ele>
        <time>2013-03-03T12:47:23.000Z</time>
      </trkpt>
      <trkpt lat="48.83251" lon="2.32585">
        <ele>124.7</ele>
        <time>2013-03-03T12:47:24.000Z</time>
      </trkpt>
      <trkpt lat="48.83253" lon="2.32577">
        <ele>125.2</ele>
        <time>2013-03-03T12:47:25.000Z</time>
      </trkpt>
      <trkpt lat="48.83254" lon="2.32572">
        <ele>124.5</ele>
        <time>2013-03-03T12:47:26.000Z</time>
      </trkpt>
      <trkpt lat="48.83255" lon="2.32567">
        <ele>124.8</ele>
        <time>2013-03-03T12:47:27.000Z</time>
      </trkpt>
      <trkpt lat="48.83257" lon="2.32562">
        <ele>124.8</ele>
        <time>2013-03-03T12:47:28.000Z</time>
      </trkpt>
      <trkpt lat="48.83258" lon="2.32557">
        <ele>123.7</ele>
        <time>2013-03-03T12:47:29.000Z</time>
      </trkpt>
      <trkpt lat="48.8326" lon="2.32552">
        <ele>123.2</ele>
        <time>2013-03-03T12:47:30.000Z</time>
      </trkpt>
      <trkpt lat="48.83262" lon="2.32545">
        <ele>123</ele>
        <time>2013-03-03T12:47:31.496Z</time>
      </trkpt>
      <trkpt lat="48.83264" lon="2.3254">
        <ele>121.3</ele>
        <time>2013-03-03T12:47:33.000Z</time>
      </trkpt>
      <trkpt lat="48.83265" lon="2.32537">
        <ele>121.3</ele>
        <time>2013-03-03T12:47:34.000Z</time>
      </trkpt>
      <trkpt lat="48.83268" lon="2.32532">
        <ele>121.3</ele>
        <time>2013-03-03T12:47:36.000Z</time>
      </trkpt>
      <trkpt lat="48.83269" lon="2.32529">
        <ele>122.1</ele>
        <time>2013-03-03T12:47:37.000Z</time>
      </trkpt>
      <trkpt lat="48.83272" lon="2.32524">
        <ele>122.9</ele>
        <time>2013-03-03T12:47:39.000Z</time>
      </trkpt>
      <trkpt lat="48.83273" lon="2.32521">
        <ele>123.1</ele>
        <time>2013-03-03T12:47:40.000Z</time>
      </trkpt>
      <trkpt lat="48.83275" lon="2.32516">
        <ele>120</ele>
        <time>2013-03-03T12:47:43.000Z</time>
      </trkpt>
      <trkpt lat="48.83276" lon="2.32514">
        <ele>119.4</ele>
        <time>2013-03-03T12:47:44.000Z</time>
      </trkpt>
      <trkpt lat="48.83277" lon="2.32509">
        <ele>118.2</ele>
        <time>2013-03-03T12:47:46.000Z</time>
      </trkpt>
      <trkpt lat="48.83277" lon="2.32507">
        <ele>118.6</ele>
        <time>2013-03-03T12:47:47.000Z</time>
      </trkpt>
      <trkpt lat="48.83279" lon="2.32502">
        <ele>118.7</ele>
        <time>2013-03-03T12:47:49.000Z</time>
      </trkpt>
      <trkpt lat="48.8328" lon="2.325">
        <ele>119.1</ele>
        <time>2013-03-03T12:47:50.000Z</time>
      </trkpt>
      <trkpt lat="48.83281" lon="2.32494">
        <ele>119.3</ele>
        <time>2013-03-03T12:47:54.000Z</time>
      </trkpt>
      <trkpt lat="48.83281" lon="2.32493">
        <ele>118.9</ele>
        <time>2013-03-03T12:47:55.000Z</time>
      </trkpt>
      <trkpt lat="48.83281" lon="2.32486">
        <ele>119.4</ele>
        <time>2013-03-03T12:48:10.000Z</time>
      </trkpt>
      <trkpt lat="48.83282" lon="2.32482">
        <ele>118.8</ele>
        <time>2013-03-03T12:48:11.000Z</time>
      </trkpt>
      <trkpt lat="48.83281" lon="2.32478">
        <ele>118.4</ele>
        <time>2013-03-03T12:48:12.000Z</time>
      </trkpt>
      <trkpt lat="48.83282" lon="2.32474">
        <ele>118.3</ele>
        <time>2013-03-03T12:48:13.000Z</time>
      </trkpt>
      <trkpt lat="48.83282" lon="2.3247">
        <ele>117.9</ele>
        <time>2013-03-03T12:48:14.000Z</time>
      </trkpt>
      <trkpt lat="48.83282" lon="2.32467">
        <ele>117.9</ele>
        <time>2013-03-03T12:48:15.000Z</time>
      </trkpt>
      <trkpt lat="48.83283" lon="2.32461">
        <ele>119</ele>
        <time>2013-03-03T12:48:17.000Z</time>
      </trkpt>
      <trkpt lat="48.83283" lon="2.32458">
        <ele>118.5</ele>
        <time>2013-03-03T12:48:18.000Z</time>
      </trkpt>
      <trkpt lat="48.83285" lon="2.32453">
        <ele>117.6</ele>
        <time>2013-03-03T12:48:20.000Z</time>
      </trkpt>
      <trkpt lat="48.83286" lon="2.32451">
        <ele>117.4</ele>
        <time>2013-03-03T12:48:21.000Z</time>
      </trkpt>
      <trkpt lat="48.8329" lon="2.32449">
        <ele>116.7</ele>
        <time>2013-03-03T12:48:23.000Z</time>
      </trkpt>
      <trkpt lat="48.83292" lon="2.32449">
        <ele>118.5</ele>
        <time>2013-03-03T12:48:24.000Z</time>
      </trkpt>
      <trkpt lat="48.83294" lon="2.3245">
        <ele>118.9</ele>
        <time>2013-03-03T12:48:25.000Z</time>
      </trkpt>
      <trkpt lat="48.83297" lon="2.3245">
        <ele>118.1</ele>
        <time>2013-03-03T12:48:26.000Z</time>
      </trkpt>
      <trkpt lat="48.83301" lon="2.32449">
        <ele>117</ele>
        <time>2013-03-03T12:48:28.000Z</time>
      </trkpt>
      <trkpt lat="48.83302" lon="2.32447">
        <ele>116.9</ele>
        <time>2013-03-03T12:48:29.000Z</time>
      </trkpt>
      <trkpt lat="48.83304" lon="2.32446">
        <ele>116.5</ele>
        <time>2013-03-03T12:48:30.000Z</time>
      </trkpt>
      <trkpt lat="48.83308" lon="2.32441">
        <ele>116.5</ele>
        <time>2013-03-03T12:48:33.000Z</time>
      </trkpt>
      <trkpt lat="48.8331" lon="2.32437">
        <ele>116.3</ele>
        <time>2013-03-03T12:48:35.000Z</time>
      </trkpt>
      <trkpt lat="48.83311" lon="2.32434">
        <ele>114</ele>
        <time>2013-03-03T12:48:36.000Z</time>
      </trkpt>
      <trkpt lat="48.83315" lon="2.3243">
        <ele>113.6</ele>
        <time>2013-03-03T12:48:38.000Z</time>
      </trkpt>
      <trkpt lat="48.83316" lon="2.32428">
        <ele>112.8</ele>
        <time>2013-03-03T12:48:39.000Z</time>
      </trkpt>
      <trkpt lat="48.83317" lon="2.32425">
        <ele>111.7</ele>
        <time>2013-03-03T12:48:40.000Z</time>
      </trkpt>
      <trkpt lat="48.83319" lon="2.32422">
        <ele>110.8</ele>
        <time>2013-03-03T12:48:41.000Z</time>
      </trkpt>
      <trkpt lat="48.83321" lon="2.32419">
        <ele>110</ele>
        <time>2013-03-03T12:48:42.000Z</time>
      </trkpt>
      <trkpt lat="48.83322" lon="2.32417">
        <ele>109.8</ele>
        <time>2013-03-03T12:48:43.000Z</time>
      </trkpt>
      <trkpt lat="48.83324" lon="2.32412">
        <ele>109.5</ele>
        <time>2013-03-03T12:48:44.000Z</time>
      </trkpt>
      <trkpt lat="48.83327" lon="2.32408">
        <ele>109.3</ele>
        <time>2013-03-03T12:48:45.000Z</time>
      </trkpt>
      <trkpt lat="48.83329" lon="2.32404">
        <ele>108.8</ele>
        <time>2013-03-03T12:48:46.000Z</time>
      </trkpt>
      <trkpt lat="48.83332" lon="2.32399">
        <ele>108.2</ele>
        <time>2013-03-03T12:48:47.000Z</time>
      </trkpt>
      <trkpt lat="48.83335" lon="2.32395">
        <ele>108.4</ele>
        <time>2013-03-03T12:48:48.000Z</time>
      </trkpt>
      <trkpt lat="48.83337" lon="2.3239">
        <ele>108.1</ele>
        <time>2013-03-03T12:48:49.000Z</time>
      </trkpt>
      <trkpt lat="48.8334" lon="2.32386">
        <ele>108.7</ele>
        <time>2013-03-03T12:48:50.000Z</time>
      </trkpt>
      <trkpt lat="48.83342" lon="2.32382">
        <ele>109.1</ele>
        <time>2013-03-03T12:48:51.000Z</time>
      </trkpt>
      <trkpt lat="48.83344" lon="2.32378">
        <ele>110.8</ele>
        <time>2013-03-03T12:48:52.000Z</time>
      </trkpt>
      <trkpt lat="48.83345" lon="2.32374">
        <ele>111.7</ele>
        <time>2013-03-03T12:48:53.000Z</time>
      </trkpt>
      <trkpt lat="48.83348" lon="2.3237">
        <ele>112.4</ele>
        <time>2013-03-03T12:48:54.000Z</time>
      </trkpt>
      <trkpt lat="48.83351" lon="2.32367">
        <ele>114.1</ele>
        <time>2013-03-03T12:48:55.000Z</time>
      </trkpt>
      <trkpt lat="48.83354" lon="2.32364">
        <ele>114</ele>
        <time>2013-03-03T12:48:56.000Z</time>
      </trkpt>
      <trkpt lat="48.83357" lon="2.32361">
        <ele>114.3</ele>
        <time>2013-03-03T12:48:57.000Z</time>
      </trkpt>
      <trkpt lat="48.8336" lon="2.32359">
        <ele>113.4</ele>
        <time>2013-03-03T12:48:58.000Z</time>
      </trkpt>
      <trkpt lat="48.83363" lon="2.32356">
        <ele>113.8</ele>
        <time>2013-03-03T12:48:59.000Z</time>
      </trkpt>
      <trkpt lat="48.83366" lon="2.32354">
        <ele>114.4</ele>
        <time>2013-03-03T12:49:00.000Z</time>
      </trkpt>
      <trkpt lat="48.83368" lon="2.32351">
        <ele>114.8</ele>
        <time>2013-03-03T12:49:01.000Z</time>
      </trkpt>
      <trkpt lat="48.8337" lon="2.32348">
        <ele>114.4</ele>
        <time>2013-03-03T12:49:02.000Z</time>
      </trkpt>
      <trkpt lat="48.83373" lon="2.32345">
        <ele>114.2</ele>
        <time>2013-03-03T12:49:03.000Z</time>
      </trkpt>
      <trkpt lat="48.83375" lon="2.32341">
        <ele>113.5</ele>
        <time>2013-03-03T12:49:04.000Z</time>
      </trkpt>
      <trkpt lat="48.83376" lon="2.32338">
        <ele>112.9</ele>
        <time>2013-03-03T12:49:05.000Z</time>
      </trkpt>
      <trkpt lat="48.83379" lon="2.32335">
        <ele>111.2</ele>
        <time>2013-03-03T12:49:06.000Z</time>
      </trkpt>
      <trkpt lat="48.83381" lon="2.32332">
        <ele>110.7</ele>
        <time>2013-03-03T12:49:07.000Z</time>
      </trkpt>
      <trkpt lat="48.83383" lon="2.32329">
        <ele>108</ele>
        <time>2013-03-03T12:49:08.000Z</time>
      </trkpt>
      <trkpt lat="48.83385" lon="2.32326">
        <ele>114.8</ele>
        <time>2013-03-03T12:49:09.000Z</time>
      </trkpt>
      <trkpt lat="48.83387" lon="2.32323">
        <ele>114.9</ele>
        <time>2013-03-03T12:49:10.000Z</time>
      </trkpt>
      <trkpt lat="48.83388" lon="2.3232">
        <ele>112.5</ele>
        <time>2013-03-03T12:49:11.000Z</time>
      </trkpt>
      <trkpt lat="48.8339" lon="2.32316">
        <ele>111</ele>
        <time>2013-03-03T12:49:12.000Z</time>
      </trkpt>
      <trkpt lat="48.83392" lon="2.32313">
        <ele>109.5</ele>
        <time>2013-03-03T12:49:13.000Z</time>
      </trkpt>
      <trkpt lat="48.83394" lon="2.32309">
        <ele>108.4</ele>
        <time>2013-03-03T12:49:14.000Z</time>
      </trkpt>
      <trkpt lat="48.83396" lon="2.32305">
        <ele>107.4</ele>
        <time>2013-03-03T12:49:15.000Z</time>
      </trkpt>
      <trkpt lat="48.83398" lon="2.32301">
        <ele>107.1</ele>
        <time>2013-03-03T12:49:16.000Z</time>
      </trkpt>
      <trkpt lat="48.83399" lon="2.32297">
        <ele>105.8</ele>
        <time>2013-03-03T12:49:17.000Z</time>
      </trkpt>
      <trkpt lat="48.83401" lon="2.32293">
        <ele>105.9</ele>
        <time>2013-03-03T12:49:18.000Z</time>
      </trkpt>
      <trkpt lat="48.83403" lon="2.32289">
        <ele>105.4</ele>
        <time>2013-03-03T12:49:19.000Z</time>
      </trkpt>
      <trkpt lat="48.83405" lon="2.32284">
        <ele>106.2</ele>
        <time>2013-03-03T12:49:20.000Z</time>
      </trkpt>
      <trkpt lat="48.83406" lon="2.3228">
        <ele>106.2</ele>
        <time>2013-03-03T12:49:21.000Z</time>
      </trkpt>
      <trkpt lat="48.83408" lon="2.32275">
        <ele>105.7</ele>
        <time>2013-03-03T12:49:22.000Z</time>
      </trkpt>
      <trkpt lat="48.83409" lon="2.3227">
        <ele>105.9</ele>
        <time>2013-03-03T12:49:23.000Z</time>
      </trkpt>
      <trkpt lat="48.83411" lon="2.32265">
        <ele>105.5</ele>
        <time>2013-03-03T12:49:24.000Z</time>
      </trkpt>
      <trkpt lat="48.83413" lon="2.3226">
        <ele>105.2</ele>
        <time>2013-03-03T12:49:25.000Z</time>
      </trkpt>
      <trkpt lat="48.83415" lon="2.32256">
        <ele>105.3</ele>
        <time>2013-03-03T12:49:26.000Z</time>
      </trkpt>
      <trkpt lat="48.83416" lon="2.32252">
        <ele>105.3</ele>
        <time>2013-03-03T12:49:27.000Z</time>
      </trkpt>
      <trkpt lat="48.83418" lon="2.32248">
        <ele>105.7</ele>
        <time>2013-03-03T12:49:28.000Z</time>
      </trkpt>
      <trkpt lat="48.8342" lon="2.32244">
        <ele>105.6</ele>
        <time>2013-03-03T12:49:29.000Z</time>
      </trkpt>
      <trkpt lat="48.83421" lon="2.32239">
        <ele>105.5</ele>
        <time>2013-03-03T12:49:30.000Z</time>
      </trkpt>
      <trkpt lat="48.83425" lon="2.32228">
        <ele>104.7</ele>
        <time>2013-03-03T12:49:33.000Z</time>
      </trkpt>
      <trkpt lat="48.83425" lon="2.32224">
        <ele>104.6</ele>
        <time>2013-03-03T12:49:34.000Z</time>
      </trkpt>
      <trkpt lat="48.83425" lon="2.32221">
        <ele>104.6</ele>
        <time>2013-03-03T12:49:35.000Z</time>
      </trkpt>
      <trkpt lat="48.83426" lon="2.32218">
        <ele>104.6</ele>
        <time>2013-03-03T12:49:36.000Z</time>
      </trkpt>
      <trkpt lat="48.83428" lon="2.32215">
        <ele>104</ele>
        <time>2013-03-03T12:49:37.000Z</time>
      </trkpt>
      <trkpt lat="48.8343" lon="2.32212">
        <ele>105.7</ele>
        <time>2013-03-03T12:49:38.000Z</time>
      </trkpt>
      <trkpt lat="48.83431" lon="2.32208">
        <ele>107.4</ele>
        <time>2013-03-03T12:49:39.000Z</time>
      </trkpt>
      <trkpt lat="48.83432" lon="2.32204">
        <ele>108.6</ele>
        <time>2013-03-03T12:49:40.000Z</time>
      </trkpt>
      <trkpt lat="48.83433" lon="2.322">
        <ele>109.4</ele>
        <time>2013-03-03T12:49:41.000Z</time>
      </trkpt>
      <trkpt lat="48.83434" lon="2.32197">
        <ele>109.7</ele>
        <time>2013-03-03T12:49:42.000Z</time>
      </trkpt>
      <trkpt lat="48.83436" lon="2.32193">
        <ele>111.1</ele>
        <time>2013-03-03T12:49:43.000Z</time>
      </trkpt>
      <trkpt lat="48.83437" lon="2.32189">
        <ele>112.8</ele>
        <time>2013-03-03T12:49:44.000Z</time>
      </trkpt>
      <trkpt lat="48.83439" lon="2.32185">
        <ele>114.2</ele>
        <time>2013-03-03T12:49:45.000Z</time>
      </trkpt>
      <trkpt lat="48.8344" lon="2.3218">
        <ele>114.7</ele>
        <time>2013-03-03T12:49:46.000Z</time>
      </trkpt>
      <trkpt lat="48.83441" lon="2.32176">
        <ele>114.8</ele>
        <time>2013-03-03T12:49:47.000Z</time>
      </trkpt>
      <trkpt lat="48.83442" lon="2.32172">
        <ele>116.2</ele>
        <time>2013-03-03T12:49:48.000Z</time>
      </trkpt>
      <trkpt lat="48.83444" lon="2.32167">
        <ele>115.2</ele>
        <time>2013-03-03T12:49:49.000Z</time>
      </trkpt>
      <trkpt lat="48.83445" lon="2.32162">
        <ele>115.1</ele>
        <time>2013-03-03T12:49:50.000Z</time>
      </trkpt>
      <trkpt lat="48.83447" lon="2.32158">
        <ele>114.7</ele>
        <time>2013-03-03T12:49:51.000Z</time>
      </trkpt>
      <trkpt lat="48.8345" lon="2.32153">
        <ele>114.1</ele>
        <time>2013-03-03T12:49:52.000Z</time>
      </trkpt>
      <trkpt lat="48.83452" lon="2.32149">
        <ele>114.4</ele>
        <time>2013-03-03T12:49:53.000Z</time>
      </trkpt>
      <trkpt lat="48.83454" lon="2.32145">
        <ele>113.9</ele>
        <time>2013-03-03T12:49:54.000Z</time>
      </trkpt>
      <trkpt lat="48.83456" lon="2.32142">
        <ele>113.7</ele>
        <time>2013-03-03T12:49:55.000Z</time>
      </trkpt>
      <trkpt lat="48.83458" lon="2.32139">
        <ele>114</ele>
        <time>2013-03-03T12:49:56.000Z</time>
      </trkpt>
      <trkpt lat="48.8346" lon="2.32136">
        <ele>113.7</ele>
        <time>2013-03-03T12:49:57.000Z</time>
      </trkpt>
      <trkpt lat="48.83461" lon="2.32132">
        <ele>111.8</ele>
        <time>2013-03-03T12:49:58.000Z</time>
      </trkpt>
      <trkpt lat="48.83463" lon="2.32128">
        <ele>111.1</ele>
        <time>2013-03-03T12:49:59.000Z</time>
      </trkpt>
      <trkpt lat="48.83465" lon="2.32124">
        <ele>110</ele>
        <time>2013-03-03T12:50:00.000Z</time>
      </trkpt>
      <trkpt lat="48.83468" lon="2.32121">
        <ele>110.3</ele>
        <time>2013-03-03T12:50:01.000Z</time>
      </trkpt>
      <trkpt lat="48.83471" lon="2.32117">
        <ele>110.2</ele>
        <time>2013-03-03T12:50:02.000Z</time>
      </trkpt>
      <trkpt lat="48.83474" lon="2.32113">
        <ele>110.1</ele>
        <time>2013-03-03T12:50:03.000Z</time>
      </trkpt>
      <trkpt lat="48.83477" lon="2.3211">
        <ele>110.6</ele>
        <time>2013-03-03T12:50:04.000Z</time>
      </trkpt>
      <trkpt lat="48.83479" lon="2.32105">
        <ele>110.6</ele>
        <time>2013-03-03T12:50:05.000Z</time>
      </trkpt>
      <trkpt lat="48.83481" lon="2.32101">
        <ele>110.6</ele>
        <time>2013-03-03T12:50:06.000Z</time>
      </trkpt>
      <trkpt lat="48.83484" lon="2.32096">
        <ele>110</ele>
        <time>2013-03-03T12:50:07.000Z</time>
      </trkpt>
      <trkpt lat="48.83485" lon="2.32091">
        <ele>109.4</ele>
        <time>2013-03-03T12:50:08.000Z</time>
      </trkpt>
      <trkpt lat="48.83486" lon="2.32086">
        <ele>109.4</ele>
        <time>2013-03-03T12:50:09.000Z</time>
      </trkpt>
      <trkpt lat="48.83488" lon="2.32081">
        <ele>109.6</ele>
        <time>2013-03-03T12:50:10.000Z</time>
      </trkpt>
      <trkpt lat="48.83489" lon="2.32076">
        <ele>110</ele>
        <time>2013-03-03T12:50:11.000Z</time>
      </trkpt>
      <trkpt lat="48.83491" lon="2.32071">
        <ele>111.5</ele>
        <time>2013-03-03T12:50:12.000Z</time>
      </trkpt>
      <trkpt lat="48.83493" lon="2.32066">
        <ele>112.4</ele>
        <time>2013-03-03T12:50:13.000Z</time>
      </trkpt>
      <trkpt lat="48.83496" lon="2.32061">
        <ele>112.5</ele>
        <time>2013-03-03T12:50:14.000Z</time>
      </trkpt>
      <trkpt lat="48.83498" lon="2.32057">
        <ele>112.3</ele>
        <time>2013-03-03T12:50:15.000Z</time>
      </trkpt>
      <trkpt lat="48.835" lon="2.32053">
        <ele>112.9</ele>
        <time>2013-03-03T12:50:16.000Z</time>
      </trkpt>
      <trkpt lat="48.83502" lon="2.32049">
        <ele>113</ele>
        <time>2013-03-03T12:50:17.000Z</time>
      </trkpt>
      <trkpt lat="48.83504" lon="2.32046">
        <ele>113.4</ele>
        <time>2013-03-03T12:50:18.000Z</time>
      </trkpt>
      <trkpt lat="48.83506" lon="2.32043">
        <ele>112.9</ele>
        <time>2013-03-03T12:50:19.000Z</time>
      </trkpt>
      <trkpt lat="48.83509" lon="2.3204">
        <ele>113.2</ele>
        <time>2013-03-03T12:50:20.000Z</time>
      </trkpt>
      <trkpt lat="48.83511" lon="2.32037">
        <ele>113.1</ele>
        <time>2013-03-03T12:50:21.000Z</time>
      </trkpt>
      <trkpt lat="48.83512" lon="2.32035">
        <ele>112.9</ele>
        <time>2013-03-03T12:50:22.000Z</time>
      </trkpt>
      <trkpt lat="48.83514" lon="2.32032">
        <ele>112.7</ele>
        <time>2013-03-03T12:50:23.000Z</time>
      </trkpt>
      <trkpt lat="48.83515" lon="2.32027">
        <ele>109.5</ele>
        <time>2013-03-03T12:50:25.000Z</time>
      </trkpt>
      <trkpt lat="48.83517" lon="2.32025">
        <ele>110.3</ele>
        <time>2013-03-03T12:50:26.000Z</time>
      </trkpt>
      <trkpt lat="48.8352" lon="2.32021">
        <ele>110.6</ele>
        <time>2013-03-03T12:50:28.000Z</time>
      </trkpt>
      <trkpt lat="48.83522" lon="2.32019">
        <ele>110.4</ele>
        <time>2013-03-03T12:50:29.000Z</time>
      </trkpt>
      <trkpt lat="48.83524" lon="2.32017">
        <ele>110.4</ele>
        <time>2013-03-03T12:50:30.000Z</time>
      </trkpt>
      <trkpt lat="48.83526" lon="2.32014">
        <ele>110.3</ele>
        <time>2013-03-03T12:50:31.557Z</time>
      </trkpt>
      <trkpt lat="48.83528" lon="2.3201">
        <ele>111</ele>
        <time>2013-03-03T12:50:33.000Z</time>
      </trkpt>
      <trkpt lat="48.83529" lon="2.32007">
        <ele>110.6</ele>
        <time>2013-03-03T12:50:34.000Z</time>
      </trkpt>
      <trkpt lat="48.8353" lon="2.32005">
        <ele>111.6</ele>
        <time>2013-03-03T12:50:35.000Z</time>
      </trkpt>
      <trkpt lat="48.83532" lon="2.32002">
        <ele>110.9</ele>
        <time>2013-03-03T12:50:36.000Z</time>
      </trkpt>
      <trkpt lat="48.83535" lon="2.32">
        <ele>111.5</ele>
        <time>2013-03-03T12:50:37.000Z</time>
      </trkpt>
      <trkpt lat="48.83539" lon="2.31997">
        <ele>111.8</ele>
        <time>2013-03-03T12:50:38.000Z</time>
      </trkpt>
      <trkpt lat="48.83542" lon="2.31993">
        <ele>111.6</ele>
        <time>2013-03-03T12:50:39.000Z</time>
      </trkpt>
      <trkpt lat="48.83544" lon="2.31989">
        <ele>111.8</ele>
        <time>2013-03-03T12:50:40.000Z</time>
      </trkpt>
      <trkpt lat="48.83547" lon="2.31985">
        <ele>112.3</ele>
        <time>2013-03-03T12:50:41.000Z</time>
      </trkpt>
      <trkpt lat="48.8355" lon="2.3198">
        <ele>112.4</ele>
        <time>2013-03-03T12:50:42.000Z</time>
      </trkpt>
      <trkpt lat="48.83552" lon="2.31975">
        <ele>113</ele>
        <time>2013-03-03T12:50:43.000Z</time>
      </trkpt>
      <trkpt lat="48.83555" lon="2.31971">
        <ele>112.7</ele>
        <time>2013-03-03T12:50:44.000Z</time>
      </trkpt>
      <trkpt lat="48.83558" lon="2.31966">
        <ele>112.4</ele>
        <time>2013-03-03T12:50:45.000Z</time>
      </trkpt>
      <trkpt lat="48.8356" lon="2.31961">
        <ele>113.4</ele>
        <time>2013-03-03T12:50:46.000Z</time>
      </trkpt>
      <trkpt lat="48.83563" lon="2.31957">
        <ele>113.3</ele>
        <time>2013-03-03T12:50:47.000Z</time>
      </trkpt>
      <trkpt lat="48.83566" lon="2.31952">
        <ele>112.8</ele>
        <time>2013-03-03T12:50:48.000Z</time>
      </trkpt>
      <trkpt lat="48.83569" lon="2.31948">
        <ele>113.6</ele>
        <time>2013-03-03T12:50:49.000Z</time>
      </trkpt>
      <trkpt lat="48.83571" lon="2.31944">
        <ele>112.6</ele>
        <time>2013-03-03T12:50:50.000Z</time>
      </trkpt>
      <trkpt lat="48.83574" lon="2.3194">
        <ele>114.9</ele>
        <time>2013-03-03T12:50:51.000Z</time>
      </trkpt>
      <trkpt lat="48.83577" lon="2.31937">
        <ele>114.3</ele>
        <time>2013-03-03T12:50:52.000Z</time>
      </trkpt>
      <trkpt lat="48.8358" lon="2.31935">
        <ele>115</ele>
        <time>2013-03-03T12:50:53.000Z</time>
      </trkpt>
      <trkpt lat="48.83584" lon="2.31932">
        <ele>115</ele>
        <time>2013-03-03T12:50:54.000Z</time>
      </trkpt>
      <trkpt lat="48.83586" lon="2.3193">
        <ele>115.2</ele>
        <time>2013-03-03T12:50:55.000Z</time>
      </trkpt>
      <trkpt lat="48.83589" lon="2.31927">
        <ele>115.1</ele>
        <time>2013-03-03T12:50:56.000Z</time>
      </trkpt>
      <trkpt lat="48.83592" lon="2.31924">
        <ele>114.6</ele>
        <time>2013-03-03T12:50:57.000Z</time>
      </trkpt>
      <trkpt lat="48.83594" lon="2.3192">
        <ele>114.4</ele>
        <time>2013-03-03T12:50:58.000Z</time>
      </trkpt>
      <trkpt lat="48.83596" lon="2.31916">
        <ele>114.4</ele>
        <time>2013-03-03T12:50:59.000Z</time>
      </trkpt>
      <trkpt lat="48.83598" lon="2.31911">
        <ele>114.3</ele>
        <time>2013-03-03T12:51:00.000Z</time>
      </trkpt>
      <trkpt lat="48.836" lon="2.31907">
        <ele>114.3</ele>
        <time>2013-03-03T12:51:01.000Z</time>
      </trkpt>
      <trkpt lat="48.83601" lon="2.31903">
        <ele>115.3</ele>
        <time>2013-03-03T12:51:02.000Z</time>
      </trkpt>
      <trkpt lat="48.83603" lon="2.31899">
        <ele>114.7</ele>
        <time>2013-03-03T12:51:03.000Z</time>
      </trkpt>
      <trkpt lat="48.83605" lon="2.31896">
        <ele>112.7</ele>
        <time>2013-03-03T12:51:04.000Z</time>
      </trkpt>
      <trkpt lat="48.83607" lon="2.31893">
        <ele>114.6</ele>
        <time>2013-03-03T12:51:05.000Z</time>
      </trkpt>
      <trkpt lat="48.83608" lon="2.31891">
        <ele>115.2</ele>
        <time>2013-03-03T12:51:06.000Z</time>
      </trkpt>
      <trkpt lat="48.83611" lon="2.31888">
        <ele>115.4</ele>
        <time>2013-03-03T12:51:07.000Z</time>
      </trkpt>
      <trkpt lat="48.83614" lon="2.31885">
        <ele>115.8</ele>
        <time>2013-03-03T12:51:08.000Z</time>
      </trkpt>
      <trkpt lat="48.83616" lon="2.31882">
        <ele>116.2</ele>
        <time>2013-03-03T12:51:09.000Z</time>
      </trkpt>
      <trkpt lat="48.83619" lon="2.31879">
        <ele>116.2</ele>
        <time>2013-03-03T12:51:10.000Z</time>
      </trkpt>
      <trkpt lat="48.83622" lon="2.31876">
        <ele>116.7</ele>
        <time>2013-03-03T12:51:11.000Z</time>
      </trkpt>
      <trkpt lat="48.83626" lon="2.31874">
        <ele>116.4</ele>
        <time>2013-03-03T12:51:12.000Z</time>
      </trkpt>
      <trkpt lat="48.83628" lon="2.31872">
        <ele>118</ele>
        <time>2013-03-03T12:51:13.000Z</time>
      </trkpt>
      <trkpt lat="48.83631" lon="2.31869">
        <ele>118.8</ele>
        <time>2013-03-03T12:51:14.000Z</time>
      </trkpt>
      <trkpt lat="48.83633" lon="2.31866">
        <ele>119.5</ele>
        <time>2013-03-03T12:51:15.000Z</time>
      </trkpt>
      <trkpt lat="48.83636" lon="2.31864">
        <ele>120.7</ele>
        <time>2013-03-03T12:51:16.000Z</time>
      </trkpt>
      <trkpt lat="48.83639" lon="2.31863">
        <ele>120.7</ele>
        <time>2013-03-03T12:51:17.000Z</time>
      </trkpt>
      <trkpt lat="48.83643" lon="2.31861">
        <ele>120.9</ele>
        <time>2013-03-03T12:51:18.000Z</time>
      </trkpt>
      <trkpt lat="48.83646" lon="2.3186">
        <ele>123.4</ele>
        <time>2013-03-03T12:51:19.000Z</time>
      </trkpt>
      <trkpt lat="48.8365" lon="2.31859">
        <ele>122</ele>
        <time>2013-03-03T12:51:20.000Z</time>
      </trkpt>
      <trkpt lat="48.83653" lon="2.31858">
        <ele>122.3</ele>
        <time>2013-03-03T12:51:21.000Z</time>
      </trkpt>
      <trkpt lat="48.83657" lon="2.31857">
        <ele>122.9</ele>
        <time>2013-03-03T12:51:22.000Z</time>
      </trkpt>
      <trkpt lat="48.8366" lon="2.31856">
        <ele>120.9</ele>
        <time>2013-03-03T12:51:23.000Z</time>
      </trkpt>
      <trkpt lat="48.83663" lon="2.31855">
        <ele>119.8</ele>
        <time>2013-03-03T12:51:24.000Z</time>
      </trkpt>
      <trkpt lat="48.83667" lon="2.31854">
        <ele>118.9</ele>
        <time>2013-03-03T12:51:26.000Z</time>
      </trkpt>
      <trkpt lat="48.83668" lon="2.31852">
        <ele>116</ele>
        <time>2013-03-03T12:51:27.000Z</time>
      </trkpt>
      <trkpt lat="48.83672" lon="2.31848">
        <ele>117.3</ele>
        <time>2013-03-03T12:51:29.000Z</time>
      </trkpt>
      <trkpt lat="48.83673" lon="2.31846">
        <ele>117</ele>
        <time>2013-03-03T12:51:30.000Z</time>
      </trkpt>
      <trkpt lat="48.83678" lon="2.31839">
        <ele>116.6</ele>
        <time>2013-03-03T12:51:33.000Z</time>
      </trkpt>
      <trkpt lat="48.8368" lon="2.31837">
        <ele>116.2</ele>
        <time>2013-03-03T12:51:34.000Z</time>
      </trkpt>
      <trkpt lat="48.83683" lon="2.31835">
        <ele>116.2</ele>
        <time>2013-03-03T12:51:35.000Z</time>
      </trkpt>
      <trkpt lat="48.83686" lon="2.31833">
        <ele>115.9</ele>
        <time>2013-03-03T12:51:36.000Z</time>
      </trkpt>
      <trkpt lat="48.83688" lon="2.31829">
        <ele>115.7</ele>
        <time>2013-03-03T12:51:37.000Z</time>
      </trkpt>
      <trkpt lat="48.83689" lon="2.31825">
        <ele>118.6</ele>
        <time>2013-03-03T12:51:38.000Z</time>
      </trkpt>
      <trkpt lat="48.8369" lon="2.3182">
        <ele>119.8</ele>
        <time>2013-03-03T12:51:39.000Z</time>
      </trkpt>
      <trkpt lat="48.83691" lon="2.31816">
        <ele>118.7</ele>
        <time>2013-03-03T12:51:40.000Z</time>
      </trkpt>
      <trkpt lat="48.83691" lon="2.31812">
        <ele>119.1</ele>
        <time>2013-03-03T12:51:41.000Z</time>
      </trkpt>
      <trkpt lat="48.8369" lon="2.31807">
        <ele>117.4</ele>
        <time>2013-03-03T12:51:42.000Z</time>
      </trkpt>
      <trkpt lat="48.83688" lon="2.31803">
        <ele>117.3</ele>
        <time>2013-03-03T12:51:43.000Z</time>
      </trkpt>
      <trkpt lat="48.83686" lon="2.31799">
        <ele>117.9</ele>
        <time>2013-03-03T12:51:44.000Z</time>
      </trkpt>
      <trkpt lat="48.83684" lon="2.31795">
        <ele>118</ele>
        <time>2013-03-03T12:51:45.000Z</time>
      </trkpt>
      <trkpt lat="48.83681" lon="2.3179">
        <ele>115.9</ele>
        <time>2013-03-03T12:51:46.000Z</time>
      </trkpt>
      <trkpt lat="48.83677" lon="2.31785">
        <ele>116.6</ele>
        <time>2013-03-03T12:51:47.000Z</time>
      </trkpt>
      <trkpt lat="48.83672" lon="2.3178">
        <ele>115.1</ele>
        <time>2013-03-03T12:51:48.000Z</time>
      </trkpt>
      <trkpt lat="48.83668" lon="2.31776">
        <ele>114.3</ele>
        <time>2013-03-03T12:51:49.000Z</time>
      </trkpt>
      <trkpt lat="48.83663" lon="2.31771">
        <ele>113.8</ele>
        <time>2013-03-03T12:51:50.000Z</time>
      </trkpt>
      <trkpt lat="48.83659" lon="2.31766">
        <ele>113.6</ele>
        <time>2013-03-03T12:51:51.000Z</time>
      </trkpt>
      <trkpt lat="48.83655" lon="2.31761">
        <ele>112.7</ele>
        <time>2013-03-03T12:51:52.000Z</time>
      </trkpt>
      <trkpt lat="48.83652" lon="2.31754">
        <ele>113</ele>
        <time>2013-03-03T12:51:53.000Z</time>
      </trkpt>
      <trkpt lat="48.83651" lon="2.31747">
        <ele>113.2</ele>
        <time>2013-03-03T12:51:54.000Z</time>
      </trkpt>
      <trkpt lat="48.8365" lon="2.31739">
        <ele>113.3</ele>
        <time>2013-03-03T12:51:55.000Z</time>
      </trkpt>
      <trkpt lat="48.83649" lon="2.31732">
        <ele>115.6</ele>
        <time>2013-03-03T12:51:56.000Z</time>
      </trkpt>
      <trkpt lat="48.83647" lon="2.31726">
        <ele>115.7</ele>
        <time>2013-03-03T12:51:57.000Z</time>
      </trkpt>
      <trkpt lat="48.83645" lon="2.3172">
        <ele>117.9</ele>
        <time>2013-03-03T12:51:58.000Z</time>
      </trkpt>
      <trkpt lat="48.83642" lon="2.31714">
        <ele>120.8</ele>
        <time>2013-03-03T12:51:59.000Z</time>
      </trkpt>
      <trkpt lat="48.83639" lon="2.31709">
        <ele>122.5</ele>
        <time>2013-03-03T12:52:00.000Z</time>
      </trkpt>
      <trkpt lat="48.83636" lon="2.31703">
        <ele>123.5</ele>
        <time>2013-03-03T12:52:01.000Z</time>
      </trkpt>
      <trkpt lat="48.83634" lon="2.31697">
        <ele>124.4</ele>
        <time>2013-03-03T12:52:02.000Z</time>
      </trkpt>
      <trkpt lat="48.83633" lon="2.31691">
        <ele>125.1</ele>
        <time>2013-03-03T12:52:03.000Z</time>
      </trkpt>
      <trkpt lat="48.83631" lon="2.31685">
        <ele>125.1</ele>
        <time>2013-03-03T12:52:04.000Z</time>
      </trkpt>
      <trkpt lat="48.8363" lon="2.3168">
        <ele>125.7</ele>
        <time>2013-03-03T12:52:05.000Z</time>
      </trkpt>
      <trkpt lat="48.83629" lon="2.31677">
        <ele>126.6</ele>
        <time>2013-03-03T12:52:06.000Z</time>
      </trkpt>
      <trkpt lat="48.83627" lon="2.31682">
        <ele>119.8</ele>
        <time>2013-03-03T12:53:41.000Z</time>
      </trkpt>
      <trkpt lat="48.83627" lon="2.31683">
        <ele>118.6</ele>
        <time>2013-03-03T12:53:42.000Z</time>
      </trkpt>
      <trkpt lat="48.83626" lon="2.31685">
        <ele>121</ele>
        <time>2013-03-03T12:53:43.000Z</time>
      </trkpt>
      <trkpt lat="48.83623" lon="2.3169">
        <ele>121.1</ele>
        <time>2013-03-03T12:53:44.000Z</time>
      </trkpt>
      <trkpt lat="48.83621" lon="2.31695">
        <ele>122</ele>
        <time>2013-03-03T12:53:46.000Z</time>
      </trkpt>
      <trkpt lat="48.83621" lon="2.31696">
        <ele>122.5</ele>
        <time>2013-03-03T12:53:47.000Z</time>
      </trkpt>
      <trkpt lat="48.83618" lon="2.31701">
        <ele>124.8</ele>
        <time>2013-03-03T12:53:55.000Z</time>
      </trkpt>
      <trkpt lat="48.83617" lon="2.31701">
        <ele>125</ele>
        <time>2013-03-03T12:53:56.000Z</time>
      </trkpt>
      <trkpt lat="48.83613" lon="2.31704">
        <ele>125.6</ele>
        <time>2013-03-03T12:54:34.000Z</time>
      </trkpt>
      <trkpt lat="48.83613" lon="2.31704">
        <ele>125.6</ele>
        <time>2013-03-03T12:54:35.000Z</time>
      </trkpt>
      <trkpt lat="48.83609" lon="2.31702">
        <ele>124.4</ele>
        <time>2013-03-03T12:54:46.000Z</time>
      </trkpt>
      <trkpt lat="48.83609" lon="2.317">
        <ele>124.4</ele>
        <time>2013-03-03T12:54:47.000Z</time>
      </trkpt>
      <trkpt lat="48.83611" lon="2.31697">
        <ele>126.1</ele>
        <time>2013-03-03T12:54:50.000Z</time>
      </trkpt>
      <trkpt lat="48.83613" lon="2.31696">
        <ele>126.6</ele>
        <time>2013-03-03T12:54:51.000Z</time>
      </trkpt>
      <trkpt lat="48.83614" lon="2.31695">
        <ele>126.2</ele>
        <time>2013-03-03T12:54:52.000Z</time>
      </trkpt>
      <trkpt lat="48.83619" lon="2.31693">
        <ele>126</ele>
        <time>2013-03-03T12:54:53.000Z</time>
      </trkpt>
      <trkpt lat="48.83622" lon="2.31691">
        <ele>126.3</ele>
        <time>2013-03-03T12:54:55.000Z</time>
      </trkpt>
      <trkpt lat="48.83625" lon="2.31691">
        <ele>126.3</ele>
        <time>2013-03-03T12:54:56.000Z</time>
      </trkpt>
      <trkpt lat="48.83628" lon="2.31687">
        <ele>126.3</ele>
        <time>2013-03-03T12:54:58.000Z</time>
      </trkpt>
      <trkpt lat="48.83629" lon="2.31687">
        <ele>126.1</ele>
        <time>2013-03-03T12:54:59.000Z</time>
      </trkpt>
      <trkpt lat="48.83628" lon="2.3168">
        <ele>124.6</ele>
        <time>2013-03-03T12:55:06.000Z</time>
      </trkpt>
      <trkpt lat="48.83628" lon="2.31678">
        <ele>123.7</ele>
        <time>2013-03-03T12:55:07.000Z</time>
      </trkpt>
      <trkpt lat="48.83628" lon="2.31673">
        <ele>123.2</ele>
        <time>2013-03-03T12:55:11.000Z</time>
      </trkpt>
      <trkpt lat="48.83629" lon="2.3167">
        <ele>123.2</ele>
        <time>2013-03-03T12:55:12.000Z</time>
      </trkpt>
      <trkpt lat="48.83626" lon="2.31667">
        <ele>114</ele>
        <time>2013-03-03T12:55:54.000Z</time>
      </trkpt>
      <trkpt lat="48.83624" lon="2.31664">
        <ele>113.9</ele>
        <time>2013-03-03T12:55:55.000Z</time>
      </trkpt>
      <trkpt lat="48.83622" lon="2.31659">
        <ele>113</ele>
        <time>2013-03-03T12:55:57.000Z</time>
      </trkpt>
      <trkpt lat="48.8362" lon="2.31656">
        <ele>112.6</ele>
        <time>2013-03-03T12:55:58.000Z</time>
      </trkpt>
      <trkpt lat="48.83619" lon="2.31654">
        <ele>112.6</ele>
        <time>2013-03-03T12:55:59.000Z</time>
      </trkpt>
      <trkpt lat="48.83617" lon="2.31651">
        <ele>112.6</ele>
        <time>2013-03-03T12:56:00.000Z</time>
      </trkpt>
      <trkpt lat="48.83615" lon="2.31647">
        <ele>112.9</ele>
        <time>2013-03-03T12:56:01.000Z</time>
      </trkpt>
      <trkpt lat="48.83612" lon="2.31644">
        <ele>114</ele>
        <time>2013-03-03T12:56:02.000Z</time>
      </trkpt>
      <trkpt lat="48.8361" lon="2.3164">
        <ele>114.5</ele>
        <time>2013-03-03T12:56:03.000Z</time>
      </trkpt>
      <trkpt lat="48.83608" lon="2.31636">
        <ele>116</ele>
        <time>2013-03-03T12:56:04.000Z</time>
      </trkpt>
      <trkpt lat="48.83606" lon="2.31632">
        <ele>116.9</ele>
        <time>2013-03-03T12:56:05.000Z</time>
      </trkpt>
      <trkpt lat="48.83604" lon="2.31628">
        <ele>117.6</ele>
        <time>2013-03-03T12:56:06.000Z</time>
      </trkpt>
      <trkpt lat="48.83602" lon="2.31625">
        <ele>116.4</ele>
        <time>2013-03-03T12:56:07.000Z</time>
      </trkpt>
      <trkpt lat="48.836" lon="2.31621">
        <ele>116.6</ele>
        <time>2013-03-03T12:56:08.000Z</time>
      </trkpt>
      <trkpt lat="48.83598" lon="2.31617">
        <ele>116.1</ele>
        <time>2013-03-03T12:56:09.000Z</time>
      </trkpt>
      <trkpt lat="48.83596" lon="2.31613">
        <ele>116.5</ele>
        <time>2013-03-03T12:56:10.000Z</time>
      </trkpt>
      <trkpt lat="48.83593" lon="2.3161">
        <ele>116.6</ele>
        <time>2013-03-03T12:56:11.000Z</time>
      </trkpt>
      <trkpt lat="48.83591" lon="2.31606">
        <ele>115.8</ele>
        <time>2013-03-03T12:56:12.000Z</time>
      </trkpt>
      <trkpt lat="48.83589" lon="2.31603">
        <ele>116.4</ele>
        <time>2013-03-03T12:56:13.000Z</time>
      </trkpt>
      <trkpt lat="48.83587" lon="2.316">
        <ele>115.2</ele>
        <time>2013-03-03T12:56:14.000Z</time>
      </trkpt>
      <trkpt lat="48.83586" lon="2.31597">
        <ele>115.9</ele>
        <time>2013-03-03T12:56:15.000Z</time>
      </trkpt>
      <trkpt lat="48.83584" lon="2.31595">
        <ele>117.3</ele>
        <time>2013-03-03T12:56:16.000Z</time>
      </trkpt>
      <trkpt lat="48.83583" lon="2.31592">
        <ele>117.3</ele>
        <time>2013-03-03T12:56:17.000Z</time>
      </trkpt>
      <trkpt lat="48.83581" lon="2.31589">
        <ele>117.5</ele>
        <time>2013-03-03T12:56:18.000Z</time>
      </trkpt>
      <trkpt lat="48.83579" lon="2.31587">
        <ele>116.7</ele>
        <time>2013-03-03T12:56:19.000Z</time>
      </trkpt>
      <trkpt lat="48.83577" lon="2.31584">
        <ele>115.8</ele>
        <time>2013-03-03T12:56:20.000Z</time>
      </trkpt>
      <trkpt lat="48.83574" lon="2.31582">
        <ele>114.8</ele>
        <time>2013-03-03T12:56:21.000Z</time>
      </trkpt>
      <trkpt lat="48.83572" lon="2.31579">
        <ele>115.1</ele>
        <time>2013-03-03T12:56:22.000Z</time>
      </trkpt>
      <trkpt lat="48.83569" lon="2.31575">
        <ele>115.6</ele>
        <time>2013-03-03T12:56:24.000Z</time>
      </trkpt>
      <trkpt lat="48.83568" lon="2.31574">
        <ele>115.4</ele>
        <time>2013-03-03T12:56:25.000Z</time>
      </trkpt>
      <trkpt lat="48.83565" lon="2.31571">
        <ele>115.9</ele>
        <time>2013-03-03T12:56:29.000Z</time>
      </trkpt>
      <trkpt lat="48.83564" lon="2.31569">
        <ele>116</ele>
        <time>2013-03-03T12:56:30.000Z</time>
      </trkpt>
      <trkpt lat="48.83563" lon="2.31562">
        <ele>116.8</ele>
        <time>2013-03-03T12:56:34.000Z</time>
      </trkpt>
      <trkpt lat="48.83563" lon="2.3156">
        <ele>117.4</ele>
        <time>2013-03-03T12:56:35.000Z</time>
      </trkpt>
      <trkpt lat="48.83562" lon="2.31554">
        <ele>119</ele>
        <time>2013-03-03T12:56:42.000Z</time>
      </trkpt>
      <trkpt lat="48.83563" lon="2.31553">
        <ele>119.2</ele>
        <time>2013-03-03T12:56:43.000Z</time>
      </trkpt>
      <trkpt lat="48.83562" lon="2.31548">
        <ele>120.7</ele>
        <time>2013-03-03T12:56:58.000Z</time>
      </trkpt>
      <trkpt lat="48.83561" lon="2.31546">
        <ele>121</ele>
        <time>2013-03-03T12:56:59.000Z</time>
      </trkpt>
      <trkpt lat="48.8356" lon="2.31541">
        <ele>121.2</ele>
        <time>2013-03-03T12:57:00.000Z</time>
      </trkpt>
      <trkpt lat="48.83559" lon="2.31536">
        <ele>119.4</ele>
        <time>2013-03-03T12:57:01.000Z</time>
      </trkpt>
      <trkpt lat="48.83557" lon="2.31532">
        <ele>118.2</ele>
        <time>2013-03-03T12:57:02.000Z</time>
      </trkpt>
      <trkpt lat="48.83556" lon="2.31529">
        <ele>117.2</ele>
        <time>2013-03-03T12:57:03.000Z</time>
      </trkpt>
      <trkpt lat="48.83555" lon="2.31525">
        <ele>116.1</ele>
        <time>2013-03-03T12:57:04.000Z</time>
      </trkpt>
      <trkpt lat="48.83553" lon="2.31521">
        <ele>114.1</ele>
        <time>2013-03-03T12:57:05.000Z</time>
      </trkpt>
      <trkpt lat="48.8355" lon="2.31518">
        <ele>112.1</ele>
        <time>2013-03-03T12:57:06.000Z</time>
      </trkpt>
      <trkpt lat="48.83548" lon="2.31514">
        <ele>111.3</ele>
        <time>2013-03-03T12:57:07.000Z</time>
      </trkpt>
      <trkpt lat="48.83546" lon="2.31511">
        <ele>110</ele>
        <time>2013-03-03T12:57:08.000Z</time>
      </trkpt>
      <trkpt lat="48.83543" lon="2.31508">
        <ele>109.5</ele>
        <time>2013-03-03T12:57:09.000Z</time>
      </trkpt>
      <trkpt lat="48.83541" lon="2.31505">
        <ele>108.7</ele>
        <time>2013-03-03T12:57:10.000Z</time>
      </trkpt>
      <trkpt lat="48.83539" lon="2.31502">
        <ele>107.2</ele>
        <time>2013-03-03T12:57:11.000Z</time>
      </trkpt>
      <trkpt lat="48.83537" lon="2.31499">
        <ele>106.9</ele>
        <time>2013-03-03T12:57:12.000Z</time>
      </trkpt>
      <trkpt lat="48.83534" lon="2.31496">
        <ele>107.3</ele>
        <time>2013-03-03T12:57:13.000Z</time>
      </trkpt>
      <trkpt lat="48.83532" lon="2.31492">
        <ele>106.4</ele>
        <time>2013-03-03T12:57:14.000Z</time>
      </trkpt>
      <trkpt lat="48.8353" lon="2.31489">
        <ele>106.5</ele>
        <time>2013-03-03T12:57:15.000Z</time>
      </trkpt>
      <trkpt lat="48.83528" lon="2.31485">
        <ele>107.2</ele>
        <time>2013-03-03T12:57:16.000Z</time>
      </trkpt>
      <trkpt lat="48.83525" lon="2.31481">
        <ele>112.9</ele>
        <time>2013-03-03T12:57:17.000Z</time>
      </trkpt>
      <trkpt lat="48.83523" lon="2.31477">
        <ele>111.1</ele>
        <time>2013-03-03T12:57:18.000Z</time>
      </trkpt>
      <trkpt lat="48.83521" lon="2.31473">
        <ele>109.3</ele>
        <time>2013-03-03T12:57:19.000Z</time>
      </trkpt>
      <trkpt lat="48.83518" lon="2.31467">
        <ele>108.2</ele>
        <time>2013-03-03T12:57:20.000Z</time>
      </trkpt>
      <trkpt lat="48.83515" lon="2.31462">
        <ele>106.8</ele>
        <time>2013-03-03T12:57:21.000Z</time>
      </trkpt>
      <trkpt lat="48.83512" lon="2.31457">
        <ele>109.1</ele>
        <time>2013-03-03T12:57:22.000Z</time>
      </trkpt>
      <trkpt lat="48.83509" lon="2.31452">
        <ele>107.8</ele>
        <time>2013-03-03T12:57:23.000Z</time>
      </trkpt>
      <trkpt lat="48.83506" lon="2.31447">
        <ele>107.2</ele>
        <time>2013-03-03T12:57:24.000Z</time>
      </trkpt>
      <trkpt lat="48.83503" lon="2.31443">
        <ele>105.6</ele>
        <time>2013-03-03T12:57:25.000Z</time>
      </trkpt>
      <trkpt lat="48.83501" lon="2.31438">
        <ele>104.5</ele>
        <time>2013-03-03T12:57:26.000Z</time>
      </trkpt>
      <trkpt lat="48.83498" lon="2.31434">
        <ele>106.2</ele>
        <time>2013-03-03T12:57:27.000Z</time>
      </trkpt>
      <trkpt lat="48.83495" lon="2.3143">
        <ele>107.2</ele>
        <time>2013-03-03T12:57:28.000Z</time>
      </trkpt>
      <trkpt lat="48.83492" lon="2.31425">
        <ele>106.5</ele>
        <time>2013-03-03T12:57:29.000Z</time>
      </trkpt>
      <trkpt lat="48.83489" lon="2.3142">
        <ele>104.5</ele>
        <time>2013-03-03T12:57:30.000Z</time>
      </trkpt>
      <trkpt lat="48.83487" lon="2.31416">
        <ele>104.6</ele>
        <time>2013-03-03T12:57:31.000Z</time>
      </trkpt>
      <trkpt lat="48.83484" lon="2.31411">
        <ele>104.9</ele>
        <time>2013-03-03T12:57:32.000Z</time>
      </trkpt>
      <trkpt lat="48.83481" lon="2.31407">
        <ele>104.8</ele>
        <time>2013-03-03T12:57:33.000Z</time>
      </trkpt>
      <trkpt lat="48.83479" lon="2.31403">
        <ele>105.4</ele>
        <time>2013-03-03T12:57:34.000Z</time>
      </trkpt>
      <trkpt lat="48.83476" lon="2.31398">
        <ele>106.2</ele>
        <time>2013-03-03T12:57:35.000Z</time>
      </trkpt>
      <trkpt lat="48.83474" lon="2.31394">
        <ele>106</ele>
        <time>2013-03-03T12:57:36.000Z</time>
      </trkpt>
      <trkpt lat="48.83472" lon="2.31389">
        <ele>106.8</ele>
        <time>2013-03-03T12:57:37.000Z</time>
      </trkpt>
      <trkpt lat="48.83469" lon="2.31384">
        <ele>107.8</ele>
        <time>2013-03-03T12:57:38.000Z</time>
      </trkpt>
      <trkpt lat="48.83467" lon="2.3138">
        <ele>109</ele>
        <time>2013-03-03T12:57:39.000Z</time>
      </trkpt>
      <trkpt lat="48.83464" lon="2.31377">
        <ele>107.6</ele>
        <time>2013-03-03T12:57:41.000Z</time>
      </trkpt>
      <trkpt lat="48.83463" lon="2.31376">
        <ele>107.2</ele>
        <time>2013-03-03T12:57:42.000Z</time>
      </trkpt>
      <trkpt lat="48.83461" lon="2.31372">
        <ele>107.3</ele>
        <time>2013-03-03T12:57:45.000Z</time>
      </trkpt>
      <trkpt lat="48.8346" lon="2.3137">
        <ele>107.5</ele>
        <time>2013-03-03T12:57:46.000Z</time>
      </trkpt>
      <trkpt lat="48.83459" lon="2.31368">
        <ele>108.9</ele>
        <time>2013-03-03T12:57:47.000Z</time>
      </trkpt>
      <trkpt lat="48.83457" lon="2.31365">
        <ele>108.9</ele>
        <time>2013-03-03T12:57:48.000Z</time>
      </trkpt>
      <trkpt lat="48.83455" lon="2.3136">
        <ele>108.4</ele>
        <time>2013-03-03T12:57:49.000Z</time>
      </trkpt>
      <trkpt lat="48.83452" lon="2.31357">
        <ele>108</ele>
        <time>2013-03-03T12:57:50.000Z</time>
      </trkpt>
      <trkpt lat="48.83449" lon="2.31354">
        <ele>108</ele>
        <time>2013-03-03T12:57:51.000Z</time>
      </trkpt>
      <trkpt lat="48.83447" lon="2.31351">
        <ele>108.6</ele>
        <time>2013-03-03T12:57:52.000Z</time>
      </trkpt>
      <trkpt lat="48.83445" lon="2.31348">
        <ele>109.7</ele>
        <time>2013-03-03T12:57:53.000Z</time>
      </trkpt>
      <trkpt lat="48.83443" lon="2.31345">
        <ele>111.6</ele>
        <time>2013-03-03T12:57:54.000Z</time>
      </trkpt>
      <trkpt lat="48.83442" lon="2.31342">
        <ele>111.3</ele>
        <time>2013-03-03T12:57:55.000Z</time>
      </trkpt>
      <trkpt lat="48.8344" lon="2.31339">
        <ele>110.1</ele>
        <time>2013-03-03T12:57:56.000Z</time>
      </trkpt>
      <trkpt lat="48.83438" lon="2.31337">
        <ele>109.5</ele>
        <time>2013-03-03T12:57:57.000Z</time>
      </trkpt>
      <trkpt lat="48.83437" lon="2.31334">
        <ele>109.2</ele>
        <time>2013-03-03T12:57:58.000Z</time>
      </trkpt>
      <trkpt lat="48.83435" lon="2.31332">
        <ele>108.8</ele>
        <time>2013-03-03T12:57:59.000Z</time>
      </trkpt>
      <trkpt lat="48.83433" lon="2.31329">
        <ele>110.1</ele>
        <time>2013-03-03T12:58:00.000Z</time>
      </trkpt>
      <trkpt lat="48.8343" lon="2.31326">
        <ele>110.3</ele>
        <time>2013-03-03T12:58:01.000Z</time>
      </trkpt>
      <trkpt lat="48.83426" lon="2.31321">
        <ele>110.4</ele>
        <time>2013-03-03T12:58:02.000Z</time>
      </trkpt>
      <trkpt lat="48.83423" lon="2.31317">
        <ele>110.9</ele>
        <time>2013-03-03T12:58:03.000Z</time>
      </trkpt>
      <trkpt lat="48.83419" lon="2.31313">
        <ele>110.8</ele>
        <time>2013-03-03T12:58:04.000Z</time>
      </trkpt>
      <trkpt lat="48.83416" lon="2.3131">
        <ele>111.1</ele>
        <time>2013-03-03T12:58:05.000Z</time>
      </trkpt>
      <trkpt lat="48.83413" lon="2.31306">
        <ele>111.7</ele>
        <time>2013-03-03T12:58:06.000Z</time>
      </trkpt>
      <trkpt lat="48.8341" lon="2.31302">
        <ele>111.6</ele>
        <time>2013-03-03T12:58:07.000Z</time>
      </trkpt>
      <trkpt lat="48.83406" lon="2.31298">
        <ele>111</ele>
        <time>2013-03-03T12:58:08.000Z</time>
      </trkpt>
      <trkpt lat="48.83403" lon="2.31294">
        <ele>110.3</ele>
        <time>2013-03-03T12:58:09.000Z</time>
      </trkpt>
      <trkpt lat="48.834" lon="2.3129">
        <ele>108.5</ele>
        <time>2013-03-03T12:58:10.000Z</time>
      </trkpt>
      <trkpt lat="48.83396" lon="2.31286">
        <ele>108.4</ele>
        <time>2013-03-03T12:58:11.000Z</time>
      </trkpt>
      <trkpt lat="48.83393" lon="2.31282">
        <ele>107.7</ele>
        <time>2013-03-03T12:58:12.000Z</time>
      </trkpt>
      <trkpt lat="48.83389" lon="2.31279">
        <ele>107.8</ele>
        <time>2013-03-03T12:58:13.000Z</time>
      </trkpt>
      <trkpt lat="48.83386" lon="2.31276">
        <ele>108.6</ele>
        <time>2013-03-03T12:58:14.000Z</time>
      </trkpt>
      <trkpt lat="48.83383" lon="2.31273">
        <ele>109.2</ele>
        <time>2013-03-03T12:58:15.000Z</time>
      </trkpt>
      <trkpt lat="48.8338" lon="2.31269">
        <ele>109.7</ele>
        <time>2013-03-03T12:58:16.000Z</time>
      </trkpt>
      <trkpt lat="48.83377" lon="2.31265">
        <ele>109.8</ele>
        <time>2013-03-03T12:58:17.000Z</time>
      </trkpt>
      <trkpt lat="48.83375" lon="2.31262">
        <ele>110.4</ele>
        <time>2013-03-03T12:58:18.000Z</time>
      </trkpt>
      <trkpt lat="48.83373" lon="2.31258">
        <ele>111.3</ele>
        <time>2013-03-03T12:58:19.000Z</time>
      </trkpt>
      <trkpt lat="48.83371" lon="2.31253">
        <ele>111.2</ele>
        <time>2013-03-03T12:58:20.000Z</time>
      </trkpt>
      <trkpt lat="48.83368" lon="2.31248">
        <ele>111.4</ele>
        <time>2013-03-03T12:58:21.000Z</time>
      </trkpt>
      <trkpt lat="48.83365" lon="2.31242">
        <ele>111.4</ele>
        <time>2013-03-03T12:58:22.000Z</time>
      </trkpt>
      <trkpt lat="48.83361" lon="2.31236">
        <ele>111.4</ele>
        <time>2013-03-03T12:58:23.000Z</time>
      </trkpt>
      <trkpt lat="48.83358" lon="2.31231">
        <ele>111.8</ele>
        <time>2013-03-03T12:58:24.000Z</time>
      </trkpt>
      <trkpt lat="48.83354" lon="2.31225">
        <ele>111.3</ele>
        <time>2013-03-03T12:58:25.000Z</time>
      </trkpt>
      <trkpt lat="48.8335" lon="2.31219">
        <ele>110.4</ele>
        <time>2013-03-03T12:58:26.000Z</time>
      </trkpt>
      <trkpt lat="48.83338" lon="2.31206">
        <ele>110.3</ele>
        <time>2013-03-03T12:58:27.000Z</time>
      </trkpt>
      <trkpt lat="48.83334" lon="2.31201">
        <ele>109.6</ele>
        <time>2013-03-03T12:58:28.000Z</time>
      </trkpt>
      <trkpt lat="48.8333" lon="2.31196">
        <ele>109.4</ele>
        <time>2013-03-03T12:58:29.000Z</time>
      </trkpt>
      <trkpt lat="48.83327" lon="2.31191">
        <ele>109.5</ele>
        <time>2013-03-03T12:58:30.000Z</time>
      </trkpt>
      <trkpt lat="48.83322" lon="2.31186">
        <ele>110.5</ele>
        <time>2013-03-03T12:58:31.000Z</time>
      </trkpt>
      <trkpt lat="48.83319" lon="2.31181">
        <ele>109.3</ele>
        <time>2013-03-03T12:58:32.000Z</time>
      </trkpt>
      <trkpt lat="48.83316" lon="2.31176">
        <ele>108.5</ele>
        <time>2013-03-03T12:58:33.000Z</time>
      </trkpt>
      <trkpt lat="48.83312" lon="2.31172">
        <ele>109.3</ele>
        <time>2013-03-03T12:58:34.000Z</time>
      </trkpt>
      <trkpt lat="48.83308" lon="2.31168">
        <ele>110.5</ele>
        <time>2013-03-03T12:58:35.000Z</time>
      </trkpt>
      <trkpt lat="48.83305" lon="2.31164">
        <ele>109.8</ele>
        <time>2013-03-03T12:58:36.000Z</time>
      </trkpt>
      <trkpt lat="48.83302" lon="2.31162">
        <ele>108.8</ele>
        <time>2013-03-03T12:58:37.000Z</time>
      </trkpt>
      <trkpt lat="48.833" lon="2.31158">
        <ele>108.2</ele>
        <time>2013-03-03T12:58:38.000Z</time>
      </trkpt>
      <trkpt lat="48.83299" lon="2.31153">
        <ele>107.7</ele>
        <time>2013-03-03T12:58:39.000Z</time>
      </trkpt>
      <trkpt lat="48.83298" lon="2.3115">
        <ele>107.6</ele>
        <time>2013-03-03T12:58:40.000Z</time>
      </trkpt>
      <trkpt lat="48.83297" lon="2.31146">
        <ele>108.2</ele>
        <time>2013-03-03T12:58:41.000Z</time>
      </trkpt>
      <trkpt lat="48.83295" lon="2.31141">
        <ele>109.4</ele>
        <time>2013-03-03T12:58:43.000Z</time>
      </trkpt>
      <trkpt lat="48.83294" lon="2.31139">
        <ele>111.2</ele>
        <time>2013-03-03T12:58:44.000Z</time>
      </trkpt>
      <trkpt lat="48.83292" lon="2.31134">
        <ele>106.5</ele>
        <time>2013-03-03T12:59:43.000Z</time>
      </trkpt>
      <trkpt lat="48.8329" lon="2.31132">
        <ele>105.9</ele>
        <time>2013-03-03T12:59:44.000Z</time>
      </trkpt>
      <trkpt lat="48.83286" lon="2.31128">
        <ele>106.5</ele>
        <time>2013-03-03T12:59:46.000Z</time>
      </trkpt>
      <trkpt lat="48.83285" lon="2.31127">
        <ele>107.4</ele>
        <time>2013-03-03T12:59:47.000Z</time>
      </trkpt>
      <trkpt lat="48.83281" lon="2.31124">
        <ele>107.2</ele>
        <time>2013-03-03T12:59:49.000Z</time>
      </trkpt>
      <trkpt lat="48.83279" lon="2.31123">
        <ele>106.1</ele>
        <time>2013-03-03T12:59:50.000Z</time>
      </trkpt>
      <trkpt lat="48.83276" lon="2.31118">
        <ele>105.8</ele>
        <time>2013-03-03T12:59:52.000Z</time>
      </trkpt>
      <trkpt lat="48.83274" lon="2.31116">
        <ele>104.6</ele>
        <time>2013-03-03T12:59:53.000Z</time>
      </trkpt>
      <trkpt lat="48.83271" lon="2.31112">
        <ele>103.9</ele>
        <time>2013-03-03T12:59:54.000Z</time>
      </trkpt>
      <trkpt lat="48.83269" lon="2.31108">
        <ele>104.2</ele>
        <time>2013-03-03T12:59:55.000Z</time>
      </trkpt>
      <trkpt lat="48.83267" lon="2.31104">
        <ele>104.5</ele>
        <time>2013-03-03T12:59:56.000Z</time>
      </trkpt>
      <trkpt lat="48.83264" lon="2.31099">
        <ele>105.3</ele>
        <time>2013-03-03T12:59:57.000Z</time>
      </trkpt>
      <trkpt lat="48.83261" lon="2.31094">
        <ele>103.9</ele>
        <time>2013-03-03T12:59:58.000Z</time>
      </trkpt>
      <trkpt lat="48.83259" lon="2.3109">
        <ele>103.2</ele>
        <time>2013-03-03T12:59:59.000Z</time>
      </trkpt>
      <trkpt lat="48.83256" lon="2.31086">
        <ele>103.1</ele>
        <time>2013-03-03T13:00:00.000Z</time>
      </trkpt>
      <trkpt lat="48.83253" lon="2.31081">
        <ele>103.3</ele>
        <time>2013-03-03T13:00:01.000Z</time>
      </trkpt>
      <trkpt lat="48.83251" lon="2.31077">
        <ele>103.6</ele>
        <time>2013-03-03T13:00:02.000Z</time>
      </trkpt>
      <trkpt lat="48.83248" lon="2.31072">
        <ele>103.9</ele>
        <time>2013-03-03T13:00:03.000Z</time>
      </trkpt>
      <trkpt lat="48.83245" lon="2.31068">
        <ele>103.7</ele>
        <time>2013-03-03T13:00:04.000Z</time>
      </trkpt>
      <trkpt lat="48.83243" lon="2.31064">
        <ele>103.9</ele>
        <time>2013-03-03T13:00:05.000Z</time>
      </trkpt>
      <trkpt lat="48.8324" lon="2.3106">
        <ele>104.6</ele>
        <time>2013-03-03T13:00:06.000Z</time>
      </trkpt>
      <trkpt lat="48.83238" lon="2.31056">
        <ele>104.9</ele>
        <time>2013-03-03T13:00:07.000Z</time>
      </trkpt>
      <trkpt lat="48.83235" lon="2.31053">
        <ele>104.2</ele>
        <time>2013-03-03T13:00:08.000Z</time>
      </trkpt>
      <trkpt lat="48.83232" lon="2.31049">
        <ele>104.5</ele>
        <time>2013-03-03T13:00:09.000Z</time>
      </trkpt>
      <trkpt lat="48.8323" lon="2.31045">
        <ele>106.1</ele>
        <time>2013-03-03T13:00:10.000Z</time>
      </trkpt>
      <trkpt lat="48.83227" lon="2.31041">
        <ele>106.4</ele>
        <time>2013-03-03T13:00:11.000Z</time>
      </trkpt>
      <trkpt lat="48.83225" lon="2.31036">
        <ele>107.1</ele>
        <time>2013-03-03T13:00:12.000Z</time>
      </trkpt>
      <trkpt lat="48.83223" lon="2.31032">
        <ele>107.8</ele>
        <time>2013-03-03T13:00:13.000Z</time>
      </trkpt>
      <trkpt lat="48.83221" lon="2.31028">
        <ele>106.2</ele>
        <time>2013-03-03T13:00:14.000Z</time>
      </trkpt>
      <trkpt lat="48.83219" lon="2.31025">
        <ele>106.2</ele>
        <time>2013-03-03T13:00:15.000Z</time>
      </trkpt>
      <trkpt lat="48.83217" lon="2.31021">
        <ele>105.1</ele>
        <time>2013-03-03T13:00:16.000Z</time>
      </trkpt>
      <trkpt lat="48.83214" lon="2.31017">
        <ele>105.8</ele>
        <time>2013-03-03T13:00:17.000Z</time>
      </trkpt>
      <trkpt lat="48.83211" lon="2.31013">
        <ele>105.9</ele>
        <time>2013-03-03T13:00:18.000Z</time>
      </trkpt>
      <trkpt lat="48.83208" lon="2.31009">
        <ele>106.4</ele>
        <time>2013-03-03T13:00:19.000Z</time>
      </trkpt>
      <trkpt lat="48.83205" lon="2.31004">
        <ele>106.2</ele>
        <time>2013-03-03T13:00:20.000Z</time>
      </trkpt>
      <trkpt lat="48.83202" lon="2.30999">
        <ele>106.1</ele>
        <time>2013-03-03T13:00:21.000Z</time>
      </trkpt>
      <trkpt lat="48.83199" lon="2.30995">
        <ele>106</ele>
        <time>2013-03-03T13:00:22.000Z</time>
      </trkpt>
      <trkpt lat="48.83196" lon="2.3099">
        <ele>105.7</ele>
        <time>2013-03-03T13:00:23.000Z</time>
      </trkpt>
      <trkpt lat="48.83193" lon="2.30986">
        <ele>106.7</ele>
        <time>2013-03-03T13:00:24.000Z</time>
      </trkpt>
      <trkpt lat="48.83191" lon="2.30982">
        <ele>106.5</ele>
        <time>2013-03-03T13:00:25.000Z</time>
      </trkpt>
      <trkpt lat="48.83188" lon="2.30977">
        <ele>106.5</ele>
        <time>2013-03-03T13:00:26.000Z</time>
      </trkpt>
      <trkpt lat="48.83185" lon="2.30973">
        <ele>107.3</ele>
        <time>2013-03-03T13:00:27.000Z</time>
      </trkpt>
      <trkpt lat="48.83183" lon="2.30968">
        <ele>108</ele>
        <time>2013-03-03T13:00:28.000Z</time>
      </trkpt>
      <trkpt lat="48.8318" lon="2.30964">
        <ele>108</ele>
        <time>2013-03-03T13:00:29.000Z</time>
      </trkpt>
      <trkpt lat="48.83177" lon="2.3096">
        <ele>104.7</ele>
        <time>2013-03-03T13:00:30.000Z</time>
      </trkpt>
      <trkpt lat="48.83174" lon="2.30956">
        <ele>104.3</ele>
        <time>2013-03-03T13:00:31.000Z</time>
      </trkpt>
      <trkpt lat="48.83172" lon="2.30952">
        <ele>105.2</ele>
        <time>2013-03-03T13:00:32.000Z</time>
      </trkpt>
      <trkpt lat="48.83169" lon="2.30947">
        <ele>106</ele>
        <time>2013-03-03T13:00:33.000Z</time>
      </trkpt>
      <trkpt lat="48.83167" lon="2.30942">
        <ele>106.1</ele>
        <time>2013-03-03T13:00:34.000Z</time>
      </trkpt>
      <trkpt lat="48.83164" lon="2.30937">
        <ele>106.6</ele>
        <time>2013-03-03T13:00:35.000Z</time>
      </trkpt>
      <trkpt lat="48.83161" lon="2.30933">
        <ele>107.4</ele>
        <time>2013-03-03T13:00:36.000Z</time>
      </trkpt>
      <trkpt lat="48.83159" lon="2.30928">
        <ele>108.1</ele>
        <time>2013-03-03T13:00:37.000Z</time>
      </trkpt>
      <trkpt lat="48.83157" lon="2.30922">
        <ele>109.1</ele>
        <time>2013-03-03T13:00:38.000Z</time>
      </trkpt>
      <trkpt lat="48.83154" lon="2.30917">
        <ele>108.5</ele>
        <time>2013-03-03T13:00:39.000Z</time>
      </trkpt>
      <trkpt lat="48.83151" lon="2.30913">
        <ele>107.6</ele>
        <time>2013-03-03T13:00:40.000Z</time>
      </trkpt>
      <trkpt lat="48.83148" lon="2.30908">
        <ele>107.8</ele>
        <time>2013-03-03T13:00:41.000Z</time>
      </trkpt>
      <trkpt lat="48.83145" lon="2.30905">
        <ele>107.8</ele>
        <time>2013-03-03T13:00:42.000Z</time>
      </trkpt>
      <trkpt lat="48.83141" lon="2.30902">
        <ele>108</ele>
        <time>2013-03-03T13:00:43.000Z</time>
      </trkpt>
      <trkpt lat="48.83138" lon="2.30898">
        <ele>107.9</ele>
        <time>2013-03-03T13:00:44.000Z</time>
      </trkpt>
      <trkpt lat="48.83135" lon="2.30895">
        <ele>108.2</ele>
        <time>2013-03-03T13:00:45.000Z</time>
      </trkpt>
      <trkpt lat="48.83131" lon="2.30891">
        <ele>108.8</ele>
        <time>2013-03-03T13:00:46.000Z</time>
      </trkpt>
      <trkpt lat="48.83128" lon="2.30887">
        <ele>108.4</ele>
        <time>2013-03-03T13:00:47.000Z</time>
      </trkpt>
      <trkpt lat="48.83125" lon="2.30884">
        <ele>108.3</ele>
        <time>2013-03-03T13:00:48.000Z</time>
      </trkpt>
      <trkpt lat="48.83122" lon="2.3088">
        <ele>108.2</ele>
        <time>2013-03-03T13:00:49.000Z</time>
      </trkpt>
      <trkpt lat="48.83119" lon="2.30876">
        <ele>108.3</ele>
        <time>2013-03-03T13:00:50.000Z</time>
      </trkpt>
      <trkpt lat="48.83117" lon="2.30872">
        <ele>110.7</ele>
        <time>2013-03-03T13:00:51.000Z</time>
      </trkpt>
      <trkpt lat="48.83114" lon="2.30868">
        <ele>110.5</ele>
        <time>2013-03-03T13:00:52.000Z</time>
      </trkpt>
      <trkpt lat="48.83111" lon="2.30864">
        <ele>110.1</ele>
        <time>2013-03-03T13:00:53.000Z</time>
      </trkpt>
      <trkpt lat="48.83108" lon="2.30861">
        <ele>110</ele>
        <time>2013-03-03T13:00:54.000Z</time>
      </trkpt>
      <trkpt lat="48.83106" lon="2.30859">
        <ele>110.7</ele>
        <time>2013-03-03T13:00:55.000Z</time>
      </trkpt>
      <trkpt lat="48.83104" lon="2.30855">
        <ele>111</ele>
        <time>2013-03-03T13:00:56.000Z</time>
      </trkpt>
      <trkpt lat="48.83101" lon="2.30851">
        <ele>110.8</ele>
        <time>2013-03-03T13:00:57.000Z</time>
      </trkpt>
      <trkpt lat="48.83099" lon="2.30848">
        <ele>111.8</ele>
        <time>2013-03-03T13:00:58.000Z</time>
      </trkpt>
      <trkpt lat="48.83096" lon="2.30844">
        <ele>112.5</ele>
        <time>2013-03-03T13:00:59.000Z</time>
      </trkpt>
      <trkpt lat="48.83094" lon="2.30841">
        <ele>111.8</ele>
        <time>2013-03-03T13:01:00.000Z</time>
      </trkpt>
      <trkpt lat="48.83091" lon="2.30838">
        <ele>111.9</ele>
        <time>2013-03-03T13:01:01.000Z</time>
      </trkpt>
      <trkpt lat="48.83088" lon="2.30835">
        <ele>112.5</ele>
        <time>2013-03-03T13:01:02.000Z</time>
      </trkpt>
      <trkpt lat="48.83085" lon="2.30832">
        <ele>113.2</ele>
        <time>2013-03-03T13:01:03.000Z</time>
      </trkpt>
      <trkpt lat="48.83083" lon="2.30828">
        <ele>114.3</ele>
        <time>2013-03-03T13:01:04.000Z</time>
      </trkpt>
      <trkpt lat="48.83079" lon="2.30823">
        <ele>114.3</ele>
        <time>2013-03-03T13:01:05.000Z</time>
      </trkpt>
      <trkpt lat="48.83075" lon="2.30818">
        <ele>116.8</ele>
        <time>2013-03-03T13:01:06.000Z</time>
      </trkpt>
      <trkpt lat="48.83072" lon="2.30814">
        <ele>114.5</ele>
        <time>2013-03-03T13:01:07.000Z</time>
      </trkpt>
      <trkpt lat="48.83068" lon="2.3081">
        <ele>114.4</ele>
        <time>2013-03-03T13:01:08.000Z</time>
      </trkpt>
      <trkpt lat="48.83065" lon="2.30806">
        <ele>114.9</ele>
        <time>2013-03-03T13:01:09.000Z</time>
      </trkpt>
      <trkpt lat="48.83062" lon="2.30802">
        <ele>115.3</ele>
        <time>2013-03-03T13:01:10.000Z</time>
      </trkpt>
      <trkpt lat="48.83059" lon="2.30798">
        <ele>115.9</ele>
        <time>2013-03-03T13:01:11.000Z</time>
      </trkpt>
      <trkpt lat="48.83056" lon="2.30794">
        <ele>113.9</ele>
        <time>2013-03-03T13:01:12.000Z</time>
      </trkpt>
      <trkpt lat="48.83052" lon="2.3079">
        <ele>112.8</ele>
        <time>2013-03-03T13:01:13.000Z</time>
      </trkpt>
      <trkpt lat="48.83049" lon="2.30786">
        <ele>113.2</ele>
        <time>2013-03-03T13:01:14.000Z</time>
      </trkpt>
      <trkpt lat="48.83046" lon="2.30781">
        <ele>110.9</ele>
        <time>2013-03-03T13:01:15.000Z</time>
      </trkpt>
      <trkpt lat="48.83042" lon="2.30777">
        <ele>110.2</ele>
        <time>2013-03-03T13:01:16.000Z</time>
      </trkpt>
      <trkpt lat="48.83039" lon="2.30773">
        <ele>108.8</ele>
        <time>2013-03-03T13:01:17.000Z</time>
      </trkpt>
      <trkpt lat="48.83036" lon="2.30769">
        <ele>109.4</ele>
        <time>2013-03-03T13:01:18.000Z</time>
      </trkpt>
      <trkpt lat="48.83032" lon="2.30765">
        <ele>110.1</ele>
        <time>2013-03-03T13:01:19.000Z</time>
      </trkpt>
      <trkpt lat="48.83029" lon="2.30761">
        <ele>109.1</ele>
        <time>2013-03-03T13:01:20.000Z</time>
      </trkpt>
      <trkpt lat="48.83026" lon="2.30757">
        <ele>109.4</ele>
        <time>2013-03-03T13:01:21.000Z</time>
      </trkpt>
      <trkpt lat="48.83023" lon="2.30753">
        <ele>109.8</ele>
        <time>2013-03-03T13:01:22.000Z</time>
      </trkpt>
      <trkpt lat="48.8302" lon="2.30749">
        <ele>110.1</ele>
        <time>2013-03-03T13:01:23.000Z</time>
      </trkpt>
      <trkpt lat="48.83016" lon="2.30745">
        <ele>109.6</ele>
        <time>2013-03-03T13:01:24.000Z</time>
      </trkpt>
      <trkpt lat="48.83013" lon="2.30741">
        <ele>109.6</ele>
        <time>2013-03-03T13:01:25.000Z</time>
      </trkpt>
      <trkpt lat="48.83009" lon="2.30736">
        <ele>109.3</ele>
        <time>2013-03-03T13:01:26.000Z</time>
      </trkpt>
      <trkpt lat="48.83006" lon="2.30732">
        <ele>109.4</ele>
        <time>2013-03-03T13:01:27.000Z</time>
      </trkpt>
      <trkpt lat="48.83002" lon="2.30728">
        <ele>109.4</ele>
        <time>2013-03-03T13:01:28.000Z</time>
      </trkpt>
      <trkpt lat="48.82997" lon="2.3072">
        <ele>109.6</ele>
        <time>2013-03-03T13:01:29.000Z</time>
      </trkpt>
      <trkpt lat="48.82994" lon="2.30717">
        <ele>109.7</ele>
        <time>2013-03-03T13:01:30.000Z</time>
      </trkpt>
      <trkpt lat="48.8299" lon="2.30712">
        <ele>109.9</ele>
        <time>2013-03-03T13:01:31.000Z</time>
      </trkpt>
      <trkpt lat="48.82988" lon="2.30709">
        <ele>109.4</ele>
        <time>2013-03-03T13:01:32.000Z</time>
      </trkpt>
      <trkpt lat="48.82985" lon="2.30704">
        <ele>108.7</ele>
        <time>2013-03-03T13:01:33.000Z</time>
      </trkpt>
      <trkpt lat="48.82982" lon="2.307">
        <ele>109.2</ele>
        <time>2013-03-03T13:01:34.000Z</time>
      </trkpt>
      <trkpt lat="48.82979" lon="2.30695">
        <ele>110</ele>
        <time>2013-03-03T13:01:35.000Z</time>
      </trkpt>
      <trkpt lat="48.82975" lon="2.30691">
        <ele>110.1</ele>
        <time>2013-03-03T13:01:36.000Z</time>
      </trkpt>
      <trkpt lat="48.82972" lon="2.30687">
        <ele>109</ele>
        <time>2013-03-03T13:01:37.000Z</time>
      </trkpt>
      <trkpt lat="48.82969" lon="2.30682">
        <ele>109.2</ele>
        <time>2013-03-03T13:01:38.000Z</time>
      </trkpt>
      <trkpt lat="48.82965" lon="2.30678">
        <ele>108.8</ele>
        <time>2013-03-03T13:01:39.000Z</time>
      </trkpt>
      <trkpt lat="48.82962" lon="2.30674">
        <ele>109.1</ele>
        <time>2013-03-03T13:01:40.000Z</time>
      </trkpt>
      <trkpt lat="48.82959" lon="2.3067">
        <ele>109.3</ele>
        <time>2013-03-03T13:01:41.000Z</time>
      </trkpt>
      <trkpt lat="48.82956" lon="2.30666">
        <ele>110.5</ele>
        <time>2013-03-03T13:01:42.000Z</time>
      </trkpt>
      <trkpt lat="48.82953" lon="2.30663">
        <ele>110.5</ele>
        <time>2013-03-03T13:01:43.000Z</time>
      </trkpt>
      <trkpt lat="48.82949" lon="2.3066">
        <ele>109.9</ele>
        <time>2013-03-03T13:01:44.000Z</time>
      </trkpt>
      <trkpt lat="48.82946" lon="2.30657">
        <ele>110.6</ele>
        <time>2013-03-03T13:01:45.000Z</time>
      </trkpt>
      <trkpt lat="48.82943" lon="2.30655">
        <ele>109.8</ele>
        <time>2013-03-03T13:01:46.000Z</time>
      </trkpt>
      <trkpt lat="48.8294" lon="2.30652">
        <ele>107.3</ele>
        <time>2013-03-03T13:01:47.000Z</time>
      </trkpt>
      <trkpt lat="48.82937" lon="2.30648">
        <ele>105.7</ele>
        <time>2013-03-03T13:01:50.000Z</time>
      </trkpt>
      <trkpt lat="48.82937" lon="2.30647">
        <ele>106.1</ele>
        <time>2013-03-03T13:01:51.000Z</time>
      </trkpt>
      <trkpt lat="48.82934" lon="2.30642">
        <ele>108.8</ele>
        <time>2013-03-03T13:02:11.000Z</time>
      </trkpt>
      <trkpt lat="48.82933" lon="2.30642">
        <ele>109.6</ele>
        <time>2013-03-03T13:02:12.000Z</time>
      </trkpt>
      <trkpt lat="48.82933" lon="2.30649">
        <ele>111.9</ele>
        <time>2013-03-03T13:02:35.000Z</time>
      </trkpt>
      <trkpt lat="48.82933" lon="2.30649">
        <ele>112.1</ele>
        <time>2013-03-03T13:02:36.000Z</time>
      </trkpt>
      <trkpt lat="48.82929" lon="2.30648">
        <ele>108.8</ele>
        <time>2013-03-03T13:02:48.000Z</time>
      </trkpt>
      <trkpt lat="48.82928" lon="2.30646">
        <ele>109.5</ele>
        <time>2013-03-03T13:02:49.000Z</time>
      </trkpt>
      <trkpt lat="48.82926" lon="2.30641">
        <ele>109.3</ele>
        <time>2013-03-03T13:02:51.000Z</time>
      </trkpt>
      <trkpt lat="48.82923" lon="2.30637">
        <ele>111</ele>
        <time>2013-03-03T13:02:52.000Z</time>
      </trkpt>
      <trkpt lat="48.82921" lon="2.30633">
        <ele>111.6</ele>
        <time>2013-03-03T13:02:53.000Z</time>
      </trkpt>
      <trkpt lat="48.82919" lon="2.3063">
        <ele>111.5</ele>
        <time>2013-03-03T13:02:54.000Z</time>
      </trkpt>
      <trkpt lat="48.82917" lon="2.30626">
        <ele>113.3</ele>
        <time>2013-03-03T13:02:55.000Z</time>
      </trkpt>
      <trkpt lat="48.82915" lon="2.30623">
        <ele>112.4</ele>
        <time>2013-03-03T13:02:56.000Z</time>
      </trkpt>
      <trkpt lat="48.82912" lon="2.30621">
        <ele>114.1</ele>
        <time>2013-03-03T13:02:57.000Z</time>
      </trkpt>
      <trkpt lat="48.82908" lon="2.30619">
        <ele>112.5</ele>
        <time>2013-03-03T13:02:58.000Z</time>
      </trkpt>
      <trkpt lat="48.82905" lon="2.30618">
        <ele>111.8</ele>
        <time>2013-03-03T13:02:59.000Z</time>
      </trkpt>
      <trkpt lat="48.82901" lon="2.30615">
        <ele>112.1</ele>
        <time>2013-03-03T13:03:00.000Z</time>
      </trkpt>
      <trkpt lat="48.82896" lon="2.30611">
        <ele>112.6</ele>
        <time>2013-03-03T13:03:01.000Z</time>
      </trkpt>
      <trkpt lat="48.82892" lon="2.30608">
        <ele>111.6</ele>
        <time>2013-03-03T13:03:02.000Z</time>
      </trkpt>
      <trkpt lat="48.82888" lon="2.30604">
        <ele>111.8</ele>
        <time>2013-03-03T13:03:03.000Z</time>
      </trkpt>
      <trkpt lat="48.82884" lon="2.306">
        <ele>112.2</ele>
        <time>2013-03-03T13:03:04.000Z</time>
      </trkpt>
      <trkpt lat="48.82881" lon="2.30596">
        <ele>113.6</ele>
        <time>2013-03-03T13:03:05.000Z</time>
      </trkpt>
      <trkpt lat="48.82877" lon="2.30592">
        <ele>114.2</ele>
        <time>2013-03-03T13:03:06.000Z</time>
      </trkpt>
      <trkpt lat="48.82874" lon="2.30588">
        <ele>114.3</ele>
        <time>2013-03-03T13:03:07.000Z</time>
      </trkpt>
      <trkpt lat="48.82871" lon="2.30585">
        <ele>114.4</ele>
        <time>2013-03-03T13:03:08.000Z</time>
      </trkpt>
      <trkpt lat="48.82867" lon="2.30581">
        <ele>114.8</ele>
        <time>2013-03-03T13:03:09.000Z</time>
      </trkpt>
      <trkpt lat="48.82864" lon="2.30578">
        <ele>114.9</ele>
        <time>2013-03-03T13:03:10.000Z</time>
      </trkpt>
      <trkpt lat="48.82861" lon="2.30576">
        <ele>113.9</ele>
        <time>2013-03-03T13:03:11.000Z</time>
      </trkpt>
      <trkpt lat="48.82857" lon="2.30573">
        <ele>114.8</ele>
        <time>2013-03-03T13:03:12.000Z</time>
      </trkpt>
      <trkpt lat="48.82854" lon="2.30571">
        <ele>115.1</ele>
        <time>2013-03-03T13:03:13.000Z</time>
      </trkpt>
      <trkpt lat="48.8285" lon="2.3057">
        <ele>114.1</ele>
        <time>2013-03-03T13:03:14.000Z</time>
      </trkpt>
      <trkpt lat="48.82847" lon="2.30568">
        <ele>113.9</ele>
        <time>2013-03-03T13:03:15.000Z</time>
      </trkpt>
      <trkpt lat="48.82843" lon="2.30566">
        <ele>112.8</ele>
        <time>2013-03-03T13:03:16.000Z</time>
      </trkpt>
      <trkpt lat="48.82839" lon="2.30564">
        <ele>112.1</ele>
        <time>2013-03-03T13:03:17.000Z</time>
      </trkpt>
      <trkpt lat="48.82836" lon="2.30563">
        <ele>111.7</ele>
        <time>2013-03-03T13:03:18.000Z</time>
      </trkpt>
      <trkpt lat="48.82832" lon="2.3056">
        <ele>111.4</ele>
        <time>2013-03-03T13:03:19.000Z</time>
      </trkpt>
      <trkpt lat="48.82829" lon="2.30557">
        <ele>111.1</ele>
        <time>2013-03-03T13:03:20.000Z</time>
      </trkpt>
      <trkpt lat="48.82827" lon="2.30552">
        <ele>110.6</ele>
        <time>2013-03-03T13:03:21.000Z</time>
      </trkpt>
      <trkpt lat="48.82824" lon="2.30546">
        <ele>107.2</ele>
        <time>2013-03-03T13:03:22.000Z</time>
      </trkpt>
      <trkpt lat="48.82822" lon="2.30542">
        <ele>106.9</ele>
        <time>2013-03-03T13:03:23.000Z</time>
      </trkpt>
      <trkpt lat="48.82819" lon="2.30537">
        <ele>107.2</ele>
        <time>2013-03-03T13:03:24.000Z</time>
      </trkpt>
      <trkpt lat="48.82816" lon="2.30533">
        <ele>107</ele>
        <time>2013-03-03T13:03:25.000Z</time>
      </trkpt>
      <trkpt lat="48.82813" lon="2.30529">
        <ele>106.9</ele>
        <time>2013-03-03T13:03:26.000Z</time>
      </trkpt>
      <trkpt lat="48.8281" lon="2.30526">
        <ele>105.8</ele>
        <time>2013-03-03T13:03:27.000Z</time>
      </trkpt>
      <trkpt lat="48.82806" lon="2.30523">
        <ele>105.8</ele>
        <time>2013-03-03T13:03:28.000Z</time>
      </trkpt>
      <trkpt lat="48.82802" lon="2.30521">
        <ele>105.3</ele>
        <time>2013-03-03T13:03:29.000Z</time>
      </trkpt>
      <trkpt lat="48.82798" lon="2.30518">
        <ele>105</ele>
        <time>2013-03-03T13:03:30.000Z</time>
      </trkpt>
      <trkpt lat="48.82796" lon="2.30513">
        <ele>103.4</ele>
        <time>2013-03-03T13:03:31.000Z</time>
      </trkpt>
      <trkpt lat="48.82797" lon="2.30507">
        <ele>103.7</ele>
        <time>2013-03-03T13:03:32.000Z</time>
      </trkpt>
      <trkpt lat="48.82798" lon="2.30502">
        <ele>105.8</ele>
        <time>2013-03-03T13:03:33.000Z</time>
      </trkpt>
      <trkpt lat="48.828" lon="2.30498">
        <ele>106.3</ele>
        <time>2013-03-03T13:03:34.000Z</time>
      </trkpt>
      <trkpt lat="48.82802" lon="2.30494">
        <ele>105</ele>
        <time>2013-03-03T13:03:35.000Z</time>
      </trkpt>
      <trkpt lat="48.82804" lon="2.30489">
        <ele>104.9</ele>
        <time>2013-03-03T13:03:36.000Z</time>
      </trkpt>
      <trkpt lat="48.82804" lon="2.30484">
        <ele>105.1</ele>
        <time>2013-03-03T13:03:37.000Z</time>
      </trkpt>
      <trkpt lat="48.82805" lon="2.30479">
        <ele>104.8</ele>
        <time>2013-03-03T13:03:38.000Z</time>
      </trkpt>
      <trkpt lat="48.82806" lon="2.30473">
        <ele>105</ele>
        <time>2013-03-03T13:03:39.000Z</time>
      </trkpt>
      <trkpt lat="48.82807" lon="2.30467">
        <ele>104.8</ele>
        <time>2013-03-03T13:03:40.000Z</time>
      </trkpt>
      <trkpt lat="48.82808" lon="2.30461">
        <ele>104.8</ele>
        <time>2013-03-03T13:03:41.000Z</time>
      </trkpt>
      <trkpt lat="48.82808" lon="2.30457">
        <ele>104.9</ele>
        <time>2013-03-03T13:03:42.000Z</time>
      </trkpt>
      <trkpt lat="48.82809" lon="2.30453">
        <ele>104.9</ele>
        <time>2013-03-03T13:03:43.000Z</time>
      </trkpt>
      <trkpt lat="48.8281" lon="2.30449">
        <ele>104.8</ele>
        <time>2013-03-03T13:03:44.000Z</time>
      </trkpt>
      <trkpt lat="48.82807" lon="2.30424">
        <ele>104.7</ele>
        <time>2013-03-03T13:03:51.000Z</time>
      </trkpt>
      <trkpt lat="48.82809" lon="2.30415">
        <ele>104.5</ele>
        <time>2013-03-03T13:03:52.000Z</time>
      </trkpt>
      <trkpt lat="48.82824" lon="2.30371">
        <ele>105</ele>
        <time>2013-03-03T13:03:53.000Z</time>
      </trkpt>
      <trkpt lat="48.82825" lon="2.30359">
        <ele>105.4</ele>
        <time>2013-03-03T13:03:54.000Z</time>
      </trkpt>
      <trkpt lat="48.82826" lon="2.30353">
        <ele>104.9</ele>
        <time>2013-03-03T13:03:55.000Z</time>
      </trkpt>
      <trkpt lat="48.82826" lon="2.30345">
        <ele>104.2</ele>
        <time>2013-03-03T13:03:56.000Z</time>
      </trkpt>
      <trkpt lat="48.82827" lon="2.30337">
        <ele>104.8</ele>
        <time>2013-03-03T13:03:57.000Z</time>
      </trkpt>
      <trkpt lat="48.82827" lon="2.30332">
        <ele>106.4</ele>
        <time>2013-03-03T13:03:58.000Z</time>
      </trkpt>
      <trkpt lat="48.82828" lon="2.30326">
        <ele>106.9</ele>
        <time>2013-03-03T13:03:59.000Z</time>
      </trkpt>
      <trkpt lat="48.82829" lon="2.3032">
        <ele>107.9</ele>
        <time>2013-03-03T13:04:00.000Z</time>
      </trkpt>
      <trkpt lat="48.82831" lon="2.30316">
        <ele>108.9</ele>
        <time>2013-03-03T13:04:01.000Z</time>
      </trkpt>
      <trkpt lat="48.82832" lon="2.30312">
        <ele>109.3</ele>
        <time>2013-03-03T13:04:02.000Z</time>
      </trkpt>
      <trkpt lat="48.82832" lon="2.30307">
        <ele>109.6</ele>
        <time>2013-03-03T13:04:03.000Z</time>
      </trkpt>
      <trkpt lat="48.82832" lon="2.30302">
        <ele>110.4</ele>
        <time>2013-03-03T13:04:04.000Z</time>
      </trkpt>
      <trkpt lat="48.82833" lon="2.30297">
        <ele>111.6</ele>
        <time>2013-03-03T13:04:05.000Z</time>
      </trkpt>
      <trkpt lat="48.82833" lon="2.30293">
        <ele>112.1</ele>
        <time>2013-03-03T13:04:06.000Z</time>
      </trkpt>
      <trkpt lat="48.82834" lon="2.30288">
        <ele>111.9</ele>
        <time>2013-03-03T13:04:07.000Z</time>
      </trkpt>
      <trkpt lat="48.82834" lon="2.30284">
        <ele>112.1</ele>
        <time>2013-03-03T13:04:08.000Z</time>
      </trkpt>
      <trkpt lat="48.82833" lon="2.30279">
        <ele>112</ele>
        <time>2013-03-03T13:04:09.000Z</time>
      </trkpt>
      <trkpt lat="48.82832" lon="2.30273">
        <ele>114</ele>
        <time>2013-03-03T13:04:12.000Z</time>
      </trkpt>
      <trkpt lat="48.82832" lon="2.30271">
        <ele>114.1</ele>
        <time>2013-03-03T13:04:13.000Z</time>
      </trkpt>
      <trkpt lat="48.82833" lon="2.30268">
        <ele>114.3</ele>
        <time>2013-03-03T13:04:14.000Z</time>
      </trkpt>
      <trkpt lat="48.82834" lon="2.30264">
        <ele>114.1</ele>
        <time>2013-03-03T13:04:15.000Z</time>
      </trkpt>
      <trkpt lat="48.82835" lon="2.3026">
        <ele>114.6</ele>
        <time>2013-03-03T13:04:16.000Z</time>
      </trkpt>
      <trkpt lat="48.82836" lon="2.30256">
        <ele>115</ele>
        <time>2013-03-03T13:04:17.000Z</time>
      </trkpt>
      <trkpt lat="48.82836" lon="2.30251">
        <ele>115.6</ele>
        <time>2013-03-03T13:04:18.000Z</time>
      </trkpt>
      <trkpt lat="48.82837" lon="2.30245">
        <ele>117.3</ele>
        <time>2013-03-03T13:04:19.000Z</time>
      </trkpt>
      <trkpt lat="48.82838" lon="2.30239">
        <ele>118.4</ele>
        <time>2013-03-03T13:04:20.000Z</time>
      </trkpt>
      <trkpt lat="48.8284" lon="2.30234">
        <ele>120.1</ele>
        <time>2013-03-03T13:04:21.000Z</time>
      </trkpt>
      <trkpt lat="48.82841" lon="2.30228">
        <ele>123.3</ele>
        <time>2013-03-03T13:04:22.000Z</time>
      </trkpt>
      <trkpt lat="48.82842" lon="2.30223">
        <ele>123.3</ele>
        <time>2013-03-03T13:04:23.000Z</time>
      </trkpt>
      <trkpt lat="48.82844" lon="2.30217">
        <ele>123.3</ele>
        <time>2013-03-03T13:04:24.000Z</time>
      </trkpt>
      <trkpt lat="48.82845" lon="2.30212">
        <ele>123.5</ele>
        <time>2013-03-03T13:04:25.000Z</time>
      </trkpt>
      <trkpt lat="48.82847" lon="2.30206">
        <ele>123.3</ele>
        <time>2013-03-03T13:04:26.000Z</time>
      </trkpt>
      <trkpt lat="48.82848" lon="2.30201">
        <ele>123.5</ele>
        <time>2013-03-03T13:04:27.000Z</time>
      </trkpt>
      <trkpt lat="48.82849" lon="2.30196">
        <ele>124</ele>
        <time>2013-03-03T13:04:28.000Z</time>
      </trkpt>
      <trkpt lat="48.82851" lon="2.3019">
        <ele>124.9</ele>
        <time>2013-03-03T13:04:29.000Z</time>
      </trkpt>
      <trkpt lat="48.82852" lon="2.30185">
        <ele>124.8</ele>
        <time>2013-03-03T13:04:30.000Z</time>
      </trkpt>
      <trkpt lat="48.82854" lon="2.30177">
        <ele>124.9</ele>
        <time>2013-03-03T13:04:31.438Z</time>
      </trkpt>
      <trkpt lat="48.82855" lon="2.30175">
        <ele>124.8</ele>
        <time>2013-03-03T13:04:32.000Z</time>
      </trkpt>
      <trkpt lat="48.82856" lon="2.30169">
        <ele>125.3</ele>
        <time>2013-03-03T13:04:33.000Z</time>
      </trkpt>
      <trkpt lat="48.82858" lon="2.30164">
        <ele>124.4</ele>
        <time>2013-03-03T13:04:34.000Z</time>
      </trkpt>
      <trkpt lat="48.82859" lon="2.30159">
        <ele>124.8</ele>
        <time>2013-03-03T13:04:35.000Z</time>
      </trkpt>
      <trkpt lat="48.82861" lon="2.30153">
        <ele>125.2</ele>
        <time>2013-03-03T13:04:36.000Z</time>
      </trkpt>
      <trkpt lat="48.82862" lon="2.30148">
        <ele>122.3</ele>
        <time>2013-03-03T13:04:37.000Z</time>
      </trkpt>
      <trkpt lat="48.82863" lon="2.30143">
        <ele>122.8</ele>
        <time>2013-03-03T13:04:38.000Z</time>
      </trkpt>
      <trkpt lat="48.82864" lon="2.30137">
        <ele>122</ele>
        <time>2013-03-03T13:04:39.000Z</time>
      </trkpt>
      <trkpt lat="48.82865" lon="2.30132">
        <ele>121.4</ele>
        <time>2013-03-03T13:04:40.000Z</time>
      </trkpt>
      <trkpt lat="48.82867" lon="2.30126">
        <ele>122</ele>
        <time>2013-03-03T13:04:41.000Z</time>
      </trkpt>
      <trkpt lat="48.82868" lon="2.30121">
        <ele>120.2</ele>
        <time>2013-03-03T13:04:42.000Z</time>
      </trkpt>
      <trkpt lat="48.82871" lon="2.30117">
        <ele>120.4</ele>
        <time>2013-03-03T13:04:43.000Z</time>
      </trkpt>
      <trkpt lat="48.82873" lon="2.30113">
        <ele>120</ele>
        <time>2013-03-03T13:04:44.000Z</time>
      </trkpt>
      <trkpt lat="48.82875" lon="2.30108">
        <ele>119.4</ele>
        <time>2013-03-03T13:04:45.000Z</time>
      </trkpt>
      <trkpt lat="48.82875" lon="2.30103">
        <ele>120.1</ele>
        <time>2013-03-03T13:04:46.000Z</time>
      </trkpt>
      <trkpt lat="48.82876" lon="2.30098">
        <ele>118.7</ele>
        <time>2013-03-03T13:04:47.000Z</time>
      </trkpt>
      <trkpt lat="48.82877" lon="2.30094">
        <ele>117.4</ele>
        <time>2013-03-03T13:04:48.000Z</time>
      </trkpt>
      <trkpt lat="48.82879" lon="2.30089">
        <ele>117.4</ele>
        <time>2013-03-03T13:04:49.000Z</time>
      </trkpt>
      <trkpt lat="48.8288" lon="2.30084">
        <ele>117.3</ele>
        <time>2013-03-03T13:04:50.000Z</time>
      </trkpt>
      <trkpt lat="48.82881" lon="2.30079">
        <ele>117</ele>
        <time>2013-03-03T13:04:51.000Z</time>
      </trkpt>
      <trkpt lat="48.82883" lon="2.30074">
        <ele>118.8</ele>
        <time>2013-03-03T13:04:52.000Z</time>
      </trkpt>
      <trkpt lat="48.82885" lon="2.3007">
        <ele>118.9</ele>
        <time>2013-03-03T13:04:53.000Z</time>
      </trkpt>
      <trkpt lat="48.82886" lon="2.30065">
        <ele>120.6</ele>
        <time>2013-03-03T13:04:54.000Z</time>
      </trkpt>
      <trkpt lat="48.82887" lon="2.30061">
        <ele>118.6</ele>
        <time>2013-03-03T13:04:55.000Z</time>
      </trkpt>
      <trkpt lat="48.82888" lon="2.30056">
        <ele>117.6</ele>
        <time>2013-03-03T13:04:56.000Z</time>
      </trkpt>
      <trkpt lat="48.82889" lon="2.30051">
        <ele>116.7</ele>
        <time>2013-03-03T13:04:57.000Z</time>
      </trkpt>
      <trkpt lat="48.8289" lon="2.30046">
        <ele>115.2</ele>
        <time>2013-03-03T13:04:58.000Z</time>
      </trkpt>
      <trkpt lat="48.82891" lon="2.3004">
        <ele>115.4</ele>
        <time>2013-03-03T13:04:59.000Z</time>
      </trkpt>
      <trkpt lat="48.82891" lon="2.30034">
        <ele>117</ele>
        <time>2013-03-03T13:05:00.000Z</time>
      </trkpt>
      <trkpt lat="48.82892" lon="2.30028">
        <ele>118</ele>
        <time>2013-03-03T13:05:01.000Z</time>
      </trkpt>
      <trkpt lat="48.82893" lon="2.30021">
        <ele>118.8</ele>
        <time>2013-03-03T13:05:02.000Z</time>
      </trkpt>
      <trkpt lat="48.82894" lon="2.30015">
        <ele>118.9</ele>
        <time>2013-03-03T13:05:03.000Z</time>
      </trkpt>
      <trkpt lat="48.82895" lon="2.30009">
        <ele>118.7</ele>
        <time>2013-03-03T13:05:04.000Z</time>
      </trkpt>
      <trkpt lat="48.82897" lon="2.30004">
        <ele>117.5</ele>
        <time>2013-03-03T13:05:05.000Z</time>
      </trkpt>
      <trkpt lat="48.82899" lon="2.29999">
        <ele>118.5</ele>
        <time>2013-03-03T13:05:06.000Z</time>
      </trkpt>
      <trkpt lat="48.829" lon="2.29995">
        <ele>118.5</ele>
        <time>2013-03-03T13:05:07.000Z</time>
      </trkpt>
      <trkpt lat="48.82901" lon="2.2999">
        <ele>118.1</ele>
        <time>2013-03-03T13:05:08.000Z</time>
      </trkpt>
      <trkpt lat="48.82902" lon="2.29984">
        <ele>119.4</ele>
        <time>2013-03-03T13:05:09.000Z</time>
      </trkpt>
      <trkpt lat="48.82903" lon="2.29978">
        <ele>119.3</ele>
        <time>2013-03-03T13:05:10.000Z</time>
      </trkpt>
      <trkpt lat="48.82904" lon="2.29971">
        <ele>120.4</ele>
        <time>2013-03-03T13:05:11.000Z</time>
      </trkpt>
      <trkpt lat="48.82905" lon="2.29963">
        <ele>121.9</ele>
        <time>2013-03-03T13:05:12.000Z</time>
      </trkpt>
      <trkpt lat="48.82906" lon="2.29956">
        <ele>119.7</ele>
        <time>2013-03-03T13:05:13.000Z</time>
      </trkpt>
      <trkpt lat="48.82908" lon="2.29949">
        <ele>119.6</ele>
        <time>2013-03-03T13:05:14.000Z</time>
      </trkpt>
      <trkpt lat="48.82908" lon="2.29942">
        <ele>117.1</ele>
        <time>2013-03-03T13:05:15.000Z</time>
      </trkpt>
      <trkpt lat="48.82909" lon="2.29935">
        <ele>117</ele>
        <time>2013-03-03T13:05:16.000Z</time>
      </trkpt>
      <trkpt lat="48.8291" lon="2.29928">
        <ele>116.8</ele>
        <time>2013-03-03T13:05:17.000Z</time>
      </trkpt>
      <trkpt lat="48.82911" lon="2.29921">
        <ele>116.6</ele>
        <time>2013-03-03T13:05:18.000Z</time>
      </trkpt>
      <trkpt lat="48.82912" lon="2.29914">
        <ele>117.8</ele>
        <time>2013-03-03T13:05:19.000Z</time>
      </trkpt>
      <trkpt lat="48.82913" lon="2.29907">
        <ele>117.4</ele>
        <time>2013-03-03T13:05:20.000Z</time>
      </trkpt>
      <trkpt lat="48.82914" lon="2.299">
        <ele>117.3</ele>
        <time>2013-03-03T13:05:21.000Z</time>
      </trkpt>
      <trkpt lat="48.82916" lon="2.2989">
        <ele>116.9</ele>
        <time>2013-03-03T13:05:22.000Z</time>
      </trkpt>
      <trkpt lat="48.82917" lon="2.29882">
        <ele>116.8</ele>
        <time>2013-03-03T13:05:23.000Z</time>
      </trkpt>
      <trkpt lat="48.82918" lon="2.29875">
        <ele>116</ele>
        <time>2013-03-03T13:05:24.000Z</time>
      </trkpt>
      <trkpt lat="48.8292" lon="2.29868">
        <ele>115.3</ele>
        <time>2013-03-03T13:05:25.000Z</time>
      </trkpt>
      <trkpt lat="48.82921" lon="2.29861">
        <ele>115.8</ele>
        <time>2013-03-03T13:05:26.000Z</time>
      </trkpt>
      <trkpt lat="48.82924" lon="2.29854">
        <ele>116.6</ele>
        <time>2013-03-03T13:05:27.000Z</time>
      </trkpt>
      <trkpt lat="48.82925" lon="2.29847">
        <ele>115.9</ele>
        <time>2013-03-03T13:05:28.000Z</time>
      </trkpt>
      <trkpt lat="48.82925" lon="2.29839">
        <ele>116.3</ele>
        <time>2013-03-03T13:05:29.000Z</time>
      </trkpt>
      <trkpt lat="48.82927" lon="2.29832">
        <ele>116.8</ele>
        <time>2013-03-03T13:05:30.000Z</time>
      </trkpt>
      <trkpt lat="48.82928" lon="2.29825">
        <ele>116</ele>
        <time>2013-03-03T13:05:31.000Z</time>
      </trkpt>
      <trkpt lat="48.8293" lon="2.29817">
        <ele>116</ele>
        <time>2013-03-03T13:05:32.000Z</time>
      </trkpt>
      <trkpt lat="48.82932" lon="2.29813">
        <ele>115.7</ele>
        <time>2013-03-03T13:05:33.000Z</time>
      </trkpt>
      <trkpt lat="48.82934" lon="2.29805">
        <ele>116.2</ele>
        <time>2013-03-03T13:05:34.000Z</time>
      </trkpt>
      <trkpt lat="48.82935" lon="2.29795">
        <ele>117.7</ele>
        <time>2013-03-03T13:05:35.000Z</time>
      </trkpt>
      <trkpt lat="48.82937" lon="2.29787">
        <ele>117.7</ele>
        <time>2013-03-03T13:05:36.000Z</time>
      </trkpt>
      <trkpt lat="48.82938" lon="2.29779">
        <ele>120.5</ele>
        <time>2013-03-03T13:05:37.000Z</time>
      </trkpt>
      <trkpt lat="48.8294" lon="2.29772">
        <ele>120.6</ele>
        <time>2013-03-03T13:05:38.000Z</time>
      </trkpt>
      <trkpt lat="48.82941" lon="2.29764">
        <ele>120.7</ele>
        <time>2013-03-03T13:05:39.000Z</time>
      </trkpt>
      <trkpt lat="48.82943" lon="2.29756">
        <ele>121.5</ele>
        <time>2013-03-03T13:05:40.000Z</time>
      </trkpt>
      <trkpt lat="48.82946" lon="2.29751">
        <ele>121</ele>
        <time>2013-03-03T13:05:41.000Z</time>
      </trkpt>
      <trkpt lat="48.82948" lon="2.29744">
        <ele>120.8</ele>
        <time>2013-03-03T13:05:42.000Z</time>
      </trkpt>
      <trkpt lat="48.8295" lon="2.29736">
        <ele>120.5</ele>
        <time>2013-03-03T13:05:43.000Z</time>
      </trkpt>
      <trkpt lat="48.82951" lon="2.29728">
        <ele>120.5</ele>
        <time>2013-03-03T13:05:44.000Z</time>
      </trkpt>
      <trkpt lat="48.82953" lon="2.29723">
        <ele>119.8</ele>
        <time>2013-03-03T13:05:45.000Z</time>
      </trkpt>
      <trkpt lat="48.82954" lon="2.29714">
        <ele>120.5</ele>
        <time>2013-03-03T13:05:46.000Z</time>
      </trkpt>
      <trkpt lat="48.82956" lon="2.29706">
        <ele>119.7</ele>
        <time>2013-03-03T13:05:47.000Z</time>
      </trkpt>
      <trkpt lat="48.82958" lon="2.29699">
        <ele>120.1</ele>
        <time>2013-03-03T13:05:48.000Z</time>
      </trkpt>
      <trkpt lat="48.8296" lon="2.29691">
        <ele>119.8</ele>
        <time>2013-03-03T13:05:49.000Z</time>
      </trkpt>
      <trkpt lat="48.82961" lon="2.29684">
        <ele>119.6</ele>
        <time>2013-03-03T13:05:50.000Z</time>
      </trkpt>
      <trkpt lat="48.82962" lon="2.29678">
        <ele>120.6</ele>
        <time>2013-03-03T13:05:51.000Z</time>
      </trkpt>
      <trkpt lat="48.82965" lon="2.29672">
        <ele>121.6</ele>
        <time>2013-03-03T13:05:52.000Z</time>
      </trkpt>
      <trkpt lat="48.82966" lon="2.29668">
        <ele>121.5</ele>
        <time>2013-03-03T13:05:53.000Z</time>
      </trkpt>
      <trkpt lat="48.82967" lon="2.29661">
        <ele>121.5</ele>
        <time>2013-03-03T13:05:54.000Z</time>
      </trkpt>
      <trkpt lat="48.82969" lon="2.29653">
        <ele>121.5</ele>
        <time>2013-03-03T13:05:55.000Z</time>
      </trkpt>
      <trkpt lat="48.8297" lon="2.29646">
        <ele>121.7</ele>
        <time>2013-03-03T13:05:56.000Z</time>
      </trkpt>
      <trkpt lat="48.82973" lon="2.2964">
        <ele>121.4</ele>
        <time>2013-03-03T13:05:57.000Z</time>
      </trkpt>
      <trkpt lat="48.82974" lon="2.29634">
        <ele>121.4</ele>
        <time>2013-03-03T13:05:58.000Z</time>
      </trkpt>
      <trkpt lat="48.82976" lon="2.29627">
        <ele>122.2</ele>
        <time>2013-03-03T13:05:59.000Z</time>
      </trkpt>
      <trkpt lat="48.82977" lon="2.2962">
        <ele>122.4</ele>
        <time>2013-03-03T13:06:00.000Z</time>
      </trkpt>
      <trkpt lat="48.82979" lon="2.29614">
        <ele>122.2</ele>
        <time>2013-03-03T13:06:01.000Z</time>
      </trkpt>
      <trkpt lat="48.82981" lon="2.29608">
        <ele>122.2</ele>
        <time>2013-03-03T13:06:02.000Z</time>
      </trkpt>
      <trkpt lat="48.82982" lon="2.29601">
        <ele>121.8</ele>
        <time>2013-03-03T13:06:03.000Z</time>
      </trkpt>
      <trkpt lat="48.82983" lon="2.29595">
        <ele>121.5</ele>
        <time>2013-03-03T13:06:04.000Z</time>
      </trkpt>
      <trkpt lat="48.82984" lon="2.29589">
        <ele>121.5</ele>
        <time>2013-03-03T13:06:05.000Z</time>
      </trkpt>
      <trkpt lat="48.82985" lon="2.29585">
        <ele>121.9</ele>
        <time>2013-03-03T13:06:06.000Z</time>
      </trkpt>
      <trkpt lat="48.82986" lon="2.29582">
        <ele>121.1</ele>
        <time>2013-03-03T13:06:07.000Z</time>
      </trkpt>
      <trkpt lat="48.82989" lon="2.29576">
        <ele>117.5</ele>
        <time>2013-03-03T13:06:09.000Z</time>
      </trkpt>
      <trkpt lat="48.8299" lon="2.29575">
        <ele>117.1</ele>
        <time>2013-03-03T13:06:10.000Z</time>
      </trkpt>
      <trkpt lat="48.82991" lon="2.29581">
        <ele>113.7</ele>
        <time>2013-03-03T13:06:12.000Z</time>
      </trkpt>
      <trkpt lat="48.82991" lon="2.29583">
        <ele>111.8</ele>
        <time>2013-03-03T13:06:13.000Z</time>
      </trkpt>
      <trkpt lat="48.82994" lon="2.29579">
        <ele>111.8</ele>
        <time>2013-03-03T13:06:28.000Z</time>
      </trkpt>
      <trkpt lat="48.82995" lon="2.29574">
        <ele>111.4</ele>
        <time>2013-03-03T13:06:29.000Z</time>
      </trkpt>
      <trkpt lat="48.82996" lon="2.29569">
        <ele>111</ele>
        <time>2013-03-03T13:06:30.000Z</time>
      </trkpt>
      <trkpt lat="48.82997" lon="2.29564">
        <ele>111</ele>
        <time>2013-03-03T13:06:31.000Z</time>
      </trkpt>
      <trkpt lat="48.82999" lon="2.29559">
        <ele>111.5</ele>
        <time>2013-03-03T13:06:32.000Z</time>
      </trkpt>
      <trkpt lat="48.83" lon="2.29555">
        <ele>111.6</ele>
        <time>2013-03-03T13:06:33.000Z</time>
      </trkpt>
      <trkpt lat="48.83002" lon="2.2955">
        <ele>110.9</ele>
        <time>2013-03-03T13:06:34.000Z</time>
      </trkpt>
      <trkpt lat="48.83003" lon="2.29545">
        <ele>110.9</ele>
        <time>2013-03-03T13:06:35.000Z</time>
      </trkpt>
      <trkpt lat="48.83005" lon="2.2954">
        <ele>111.7</ele>
        <time>2013-03-03T13:06:36.000Z</time>
      </trkpt>
      <trkpt lat="48.83006" lon="2.29536">
        <ele>112.3</ele>
        <time>2013-03-03T13:06:37.000Z</time>
      </trkpt>
      <trkpt lat="48.83008" lon="2.29532">
        <ele>110.5</ele>
        <time>2013-03-03T13:06:38.000Z</time>
      </trkpt>
      <trkpt lat="48.83009" lon="2.29528">
        <ele>110.2</ele>
        <time>2013-03-03T13:06:39.000Z</time>
      </trkpt>
      <trkpt lat="48.8301" lon="2.29522">
        <ele>109.3</ele>
        <time>2013-03-03T13:06:41.000Z</time>
      </trkpt>
      <trkpt lat="48.83012" lon="2.29519">
        <ele>108.9</ele>
        <time>2013-03-03T13:06:42.000Z</time>
      </trkpt>
      <trkpt lat="48.83013" lon="2.29517">
        <ele>108.9</ele>
        <time>2013-03-03T13:06:43.000Z</time>
      </trkpt>
      <trkpt lat="48.83015" lon="2.29514">
        <ele>108.9</ele>
        <time>2013-03-03T13:06:44.000Z</time>
      </trkpt>
      <trkpt lat="48.83017" lon="2.2951">
        <ele>108.6</ele>
        <time>2013-03-03T13:06:45.000Z</time>
      </trkpt>
      <trkpt lat="48.83018" lon="2.29506">
        <ele>109</ele>
        <time>2013-03-03T13:06:46.000Z</time>
      </trkpt>
      <trkpt lat="48.8302" lon="2.29501">
        <ele>107</ele>
        <time>2013-03-03T13:06:47.000Z</time>
      </trkpt>
      <trkpt lat="48.83022" lon="2.29498">
        <ele>106.5</ele>
        <time>2013-03-03T13:06:48.000Z</time>
      </trkpt>
      <trkpt lat="48.83023" lon="2.29494">
        <ele>106.4</ele>
        <time>2013-03-03T13:06:49.000Z</time>
      </trkpt>
      <trkpt lat="48.83024" lon="2.2949">
        <ele>106.8</ele>
        <time>2013-03-03T13:06:50.000Z</time>
      </trkpt>
      <trkpt lat="48.83025" lon="2.29485">
        <ele>107.2</ele>
        <time>2013-03-03T13:06:51.000Z</time>
      </trkpt>
      <trkpt lat="48.83027" lon="2.2948">
        <ele>106.2</ele>
        <time>2013-03-03T13:06:52.000Z</time>
      </trkpt>
      <trkpt lat="48.83028" lon="2.29475">
        <ele>106.1</ele>
        <time>2013-03-03T13:06:53.000Z</time>
      </trkpt>
      <trkpt lat="48.8303" lon="2.29471">
        <ele>105.9</ele>
        <time>2013-03-03T13:06:54.000Z</time>
      </trkpt>
      <trkpt lat="48.83031" lon="2.29466">
        <ele>106.3</ele>
        <time>2013-03-03T13:06:55.000Z</time>
      </trkpt>
      <trkpt lat="48.83033" lon="2.29463">
        <ele>103.7</ele>
        <time>2013-03-03T13:06:56.000Z</time>
      </trkpt>
      <trkpt lat="48.83034" lon="2.2946">
        <ele>102.7</ele>
        <time>2013-03-03T13:06:57.000Z</time>
      </trkpt>
      <trkpt lat="48.83035" lon="2.29456">
        <ele>102.9</ele>
        <time>2013-03-03T13:06:58.000Z</time>
      </trkpt>
      <trkpt lat="48.83037" lon="2.29452">
        <ele>101.3</ele>
        <time>2013-03-03T13:07:00.000Z</time>
      </trkpt>
      <trkpt lat="48.83038" lon="2.29449">
        <ele>100.3</ele>
        <time>2013-03-03T13:07:01.000Z</time>
      </trkpt>
      <trkpt lat="48.8304" lon="2.29444">
        <ele>100.4</ele>
        <time>2013-03-03T13:07:03.000Z</time>
      </trkpt>
      <trkpt lat="48.83041" lon="2.2944">
        <ele>100.9</ele>
        <time>2013-03-03T13:07:04.000Z</time>
      </trkpt>
      <trkpt lat="48.83042" lon="2.29437">
        <ele>99.1</ele>
        <time>2013-03-03T13:07:05.000Z</time>
      </trkpt>
      <trkpt lat="48.83044" lon="2.29432">
        <ele>99.3</ele>
        <time>2013-03-03T13:07:06.000Z</time>
      </trkpt>
      <trkpt lat="48.83046" lon="2.29427">
        <ele>100.6</ele>
        <time>2013-03-03T13:07:07.000Z</time>
      </trkpt>
      <trkpt lat="48.83048" lon="2.29422">
        <ele>100.7</ele>
        <time>2013-03-03T13:07:08.000Z</time>
      </trkpt>
      <trkpt lat="48.83049" lon="2.29416">
        <ele>101.5</ele>
        <time>2013-03-03T13:07:09.000Z</time>
      </trkpt>
      <trkpt lat="48.83051" lon="2.29411">
        <ele>101.9</ele>
        <time>2013-03-03T13:07:10.000Z</time>
      </trkpt>
      <trkpt lat="48.83053" lon="2.29406">
        <ele>101.6</ele>
        <time>2013-03-03T13:07:11.000Z</time>
      </trkpt>
      <trkpt lat="48.83055" lon="2.29401">
        <ele>102</ele>
        <time>2013-03-03T13:07:12.000Z</time>
      </trkpt>
      <trkpt lat="48.83057" lon="2.29395">
        <ele>102.9</ele>
        <time>2013-03-03T13:07:13.000Z</time>
      </trkpt>
      <trkpt lat="48.83059" lon="2.29388">
        <ele>105.2</ele>
        <time>2013-03-03T13:07:14.000Z</time>
      </trkpt>
      <trkpt lat="48.83062" lon="2.29382">
        <ele>105.8</ele>
        <time>2013-03-03T13:07:15.000Z</time>
      </trkpt>
      <trkpt lat="48.83064" lon="2.29376">
        <ele>106.1</ele>
        <time>2013-03-03T13:07:16.000Z</time>
      </trkpt>
      <trkpt lat="48.83066" lon="2.2937">
        <ele>106.2</ele>
        <time>2013-03-03T13:07:17.000Z</time>
      </trkpt>
      <trkpt lat="48.83068" lon="2.29364">
        <ele>107.1</ele>
        <time>2013-03-03T13:07:18.000Z</time>
      </trkpt>
      <trkpt lat="48.83069" lon="2.29358">
        <ele>107.6</ele>
        <time>2013-03-03T13:07:19.000Z</time>
      </trkpt>
      <trkpt lat="48.8307" lon="2.29354">
        <ele>107.6</ele>
        <time>2013-03-03T13:07:20.000Z</time>
      </trkpt>
      <trkpt lat="48.83072" lon="2.29349">
        <ele>107.7</ele>
        <time>2013-03-03T13:07:21.000Z</time>
      </trkpt>
      <trkpt lat="48.83074" lon="2.29345">
        <ele>107.5</ele>
        <time>2013-03-03T13:07:22.000Z</time>
      </trkpt>
      <trkpt lat="48.83075" lon="2.2934">
        <ele>105.9</ele>
        <time>2013-03-03T13:07:23.000Z</time>
      </trkpt>
      <trkpt lat="48.83076" lon="2.29336">
        <ele>105</ele>
        <time>2013-03-03T13:07:24.000Z</time>
      </trkpt>
      <trkpt lat="48.83077" lon="2.29331">
        <ele>104.8</ele>
        <time>2013-03-03T13:07:25.000Z</time>
      </trkpt>
      <trkpt lat="48.83078" lon="2.29327">
        <ele>104.7</ele>
        <time>2013-03-03T13:07:26.000Z</time>
      </trkpt>
      <trkpt lat="48.8308" lon="2.29322">
        <ele>110.4</ele>
        <time>2013-03-03T13:07:27.000Z</time>
      </trkpt>
      <trkpt lat="48.83082" lon="2.29317">
        <ele>109.1</ele>
        <time>2013-03-03T13:07:28.000Z</time>
      </trkpt>
      <trkpt lat="48.83083" lon="2.29311">
        <ele>108.1</ele>
        <time>2013-03-03T13:07:29.000Z</time>
      </trkpt>
      <trkpt lat="48.83085" lon="2.29306">
        <ele>107.1</ele>
        <time>2013-03-03T13:07:30.000Z</time>
      </trkpt>
      <trkpt lat="48.83087" lon="2.29301">
        <ele>106.3</ele>
        <time>2013-03-03T13:07:31.000Z</time>
      </trkpt>
      <trkpt lat="48.83088" lon="2.29295">
        <ele>106.4</ele>
        <time>2013-03-03T13:07:32.000Z</time>
      </trkpt>
      <trkpt lat="48.8309" lon="2.2929">
        <ele>106.2</ele>
        <time>2013-03-03T13:07:33.000Z</time>
      </trkpt>
      <trkpt lat="48.83091" lon="2.29284">
        <ele>106</ele>
        <time>2013-03-03T13:07:34.000Z</time>
      </trkpt>
      <trkpt lat="48.83092" lon="2.29279">
        <ele>105.8</ele>
        <time>2013-03-03T13:07:35.000Z</time>
      </trkpt>
      <trkpt lat="48.83093" lon="2.29274">
        <ele>105.3</ele>
        <time>2013-03-03T13:07:36.000Z</time>
      </trkpt>
      <trkpt lat="48.83094" lon="2.29271">
        <ele>104.1</ele>
        <time>2013-03-03T13:07:37.000Z</time>
      </trkpt>
      <trkpt lat="48.83095" lon="2.29267">
        <ele>104.1</ele>
        <time>2013-03-03T13:07:38.000Z</time>
      </trkpt>
      <trkpt lat="48.83096" lon="2.29264">
        <ele>102.7</ele>
        <time>2013-03-03T13:07:39.000Z</time>
      </trkpt>
      <trkpt lat="48.83097" lon="2.2926">
        <ele>101.9</ele>
        <time>2013-03-03T13:07:40.000Z</time>
      </trkpt>
      <trkpt lat="48.83099" lon="2.29257">
        <ele>101.2</ele>
        <time>2013-03-03T13:07:41.000Z</time>
      </trkpt>
      <trkpt lat="48.83101" lon="2.29255">
        <ele>100.4</ele>
        <time>2013-03-03T13:07:42.000Z</time>
      </trkpt>
      <trkpt lat="48.83103" lon="2.29253">
        <ele>100.1</ele>
        <time>2013-03-03T13:07:43.000Z</time>
      </trkpt>
      <trkpt lat="48.83105" lon="2.29249">
        <ele>107.7</ele>
        <time>2013-03-03T13:07:44.000Z</time>
      </trkpt>
      <trkpt lat="48.83107" lon="2.29246">
        <ele>105.6</ele>
        <time>2013-03-03T13:07:45.000Z</time>
      </trkpt>
      <trkpt lat="48.83109" lon="2.29242">
        <ele>104.8</ele>
        <time>2013-03-03T13:07:46.000Z</time>
      </trkpt>
      <trkpt lat="48.83111" lon="2.2924">
        <ele>103.8</ele>
        <time>2013-03-03T13:07:47.000Z</time>
      </trkpt>
      <trkpt lat="48.83115" lon="2.29241">
        <ele>97.5</ele>
        <time>2013-03-03T13:07:49.000Z</time>
      </trkpt>
      <trkpt lat="48.83116" lon="2.29244">
        <ele>96.5</ele>
        <time>2013-03-03T13:07:50.000Z</time>
      </trkpt>
      <trkpt lat="48.83117" lon="2.2925">
        <ele>94.5</ele>
        <time>2013-03-03T13:07:52.000Z</time>
      </trkpt>
      <trkpt lat="48.83118" lon="2.29253">
        <ele>93.7</ele>
        <time>2013-03-03T13:07:53.000Z</time>
      </trkpt>
      <trkpt lat="48.83121" lon="2.29256">
        <ele>92.2</ele>
        <time>2013-03-03T13:07:55.000Z</time>
      </trkpt>
      <trkpt lat="48.83123" lon="2.29257">
        <ele>91.7</ele>
        <time>2013-03-03T13:07:56.000Z</time>
      </trkpt>
      <trkpt lat="48.83125" lon="2.29257">
        <ele>90.8</ele>
        <time>2013-03-03T13:07:57.000Z</time>
      </trkpt>
      <trkpt lat="48.83128" lon="2.29258">
        <ele>90.3</ele>
        <time>2013-03-03T13:07:58.000Z</time>
      </trkpt>
      <trkpt lat="48.83131" lon="2.29258">
        <ele>90.6</ele>
        <time>2013-03-03T13:07:59.000Z</time>
      </trkpt>
      <trkpt lat="48.83134" lon="2.29259">
        <ele>90.7</ele>
        <time>2013-03-03T13:08:00.000Z</time>
      </trkpt>
      <trkpt lat="48.83137" lon="2.2926">
        <ele>90.1</ele>
        <time>2013-03-03T13:08:01.000Z</time>
      </trkpt>
      <trkpt lat="48.8314" lon="2.29261">
        <ele>90.6</ele>
        <time>2013-03-03T13:08:02.000Z</time>
      </trkpt>
      <trkpt lat="48.83144" lon="2.29261">
        <ele>91.2</ele>
        <time>2013-03-03T13:08:03.000Z</time>
      </trkpt>
      <trkpt lat="48.83147" lon="2.2926">
        <ele>89.7</ele>
        <time>2013-03-03T13:08:04.000Z</time>
      </trkpt>
      <trkpt lat="48.8315" lon="2.2926">
        <ele>87.8</ele>
        <time>2013-03-03T13:08:05.000Z</time>
      </trkpt>
      <trkpt lat="48.83153" lon="2.2926">
        <ele>87.1</ele>
        <time>2013-03-03T13:08:06.000Z</time>
      </trkpt>
      <trkpt lat="48.83156" lon="2.29261">
        <ele>85.8</ele>
        <time>2013-03-03T13:08:07.000Z</time>
      </trkpt>
      <trkpt lat="48.83157" lon="2.29263">
        <ele>84.6</ele>
        <time>2013-03-03T13:08:08.000Z</time>
      </trkpt>
      <trkpt lat="48.83159" lon="2.29266">
        <ele>83.3</ele>
        <time>2013-03-03T13:08:09.000Z</time>
      </trkpt>
      <trkpt lat="48.8316" lon="2.29269">
        <ele>82.6</ele>
        <time>2013-03-03T13:08:10.000Z</time>
      </trkpt>
      <trkpt lat="48.83161" lon="2.29272">
        <ele>82.8</ele>
        <time>2013-03-03T13:08:11.000Z</time>
      </trkpt>
      <trkpt lat="48.83162" lon="2.29277">
        <ele>82</ele>
        <time>2013-03-03T13:08:12.000Z</time>
      </trkpt>
      <trkpt lat="48.83162" lon="2.29283">
        <ele>82.2</ele>
        <time>2013-03-03T13:08:13.000Z</time>
      </trkpt>
      <trkpt lat="48.83163" lon="2.29288">
        <ele>82</ele>
        <time>2013-03-03T13:08:14.000Z</time>
      </trkpt>
      <trkpt lat="48.83163" lon="2.29292">
        <ele>80.3</ele>
        <time>2013-03-03T13:08:15.000Z</time>
      </trkpt>
      <trkpt lat="48.83164" lon="2.29296">
        <ele>79.8</ele>
        <time>2013-03-03T13:08:16.000Z</time>
      </trkpt>
      <trkpt lat="48.83165" lon="2.29299">
        <ele>79.5</ele>
        <time>2013-03-03T13:08:17.000Z</time>
      </trkpt>
      <trkpt lat="48.83165" lon="2.29302">
        <ele>78.2</ele>
        <time>2013-03-03T13:08:18.000Z</time>
      </trkpt>
      <trkpt lat="48.83167" lon="2.29308">
        <ele>77.3</ele>
        <time>2013-03-03T13:08:20.000Z</time>
      </trkpt>
      <trkpt lat="48.83168" lon="2.29311">
        <ele>77</ele>
        <time>2013-03-03T13:08:21.000Z</time>
      </trkpt>
      <trkpt lat="48.8317" lon="2.29314">
        <ele>76.9</ele>
        <time>2013-03-03T13:08:22.000Z</time>
      </trkpt>
      <trkpt lat="48.83172" lon="2.29316">
        <ele>78.1</ele>
        <time>2013-03-03T13:08:23.000Z</time>
      </trkpt>
      <trkpt lat="48.83175" lon="2.29317">
        <ele>77.2</ele>
        <time>2013-03-03T13:08:24.000Z</time>
      </trkpt>
      <trkpt lat="48.83178" lon="2.29319">
        <ele>85.6</ele>
        <time>2013-03-03T13:08:25.000Z</time>
      </trkpt>
      <trkpt lat="48.83181" lon="2.2932">
        <ele>83.7</ele>
        <time>2013-03-03T13:08:26.000Z</time>
      </trkpt>
      <trkpt lat="48.83183" lon="2.29322">
        <ele>82.2</ele>
        <time>2013-03-03T13:08:27.000Z</time>
      </trkpt>
      <trkpt lat="48.83185" lon="2.29324">
        <ele>80.7</ele>
        <time>2013-03-03T13:08:28.000Z</time>
      </trkpt>
      <trkpt lat="48.83187" lon="2.29326">
        <ele>79.8</ele>
        <time>2013-03-03T13:08:29.000Z</time>
      </trkpt>
      <trkpt lat="48.83189" lon="2.29328">
        <ele>76.2</ele>
        <time>2013-03-03T13:08:30.000Z</time>
      </trkpt>
      <trkpt lat="48.83191" lon="2.29331">
        <ele>74.9</ele>
        <time>2013-03-03T13:08:31.000Z</time>
      </trkpt>
      <trkpt lat="48.83192" lon="2.29334">
        <ele>72.5</ele>
        <time>2013-03-03T13:08:32.000Z</time>
      </trkpt>
      <trkpt lat="48.83194" lon="2.29337">
        <ele>71.4</ele>
        <time>2013-03-03T13:08:33.000Z</time>
      </trkpt>
      <trkpt lat="48.83197" lon="2.29341">
        <ele>71.1</ele>
        <time>2013-03-03T13:08:34.000Z</time>
      </trkpt>
      <trkpt lat="48.832" lon="2.29344">
        <ele>70.1</ele>
        <time>2013-03-03T13:08:35.000Z</time>
      </trkpt>
      <trkpt lat="48.83204" lon="2.29346">
        <ele>69.3</ele>
        <time>2013-03-03T13:08:36.000Z</time>
      </trkpt>
      <trkpt lat="48.83207" lon="2.29349">
        <ele>69.1</ele>
        <time>2013-03-03T13:08:37.000Z</time>
      </trkpt>
      <trkpt lat="48.8321" lon="2.29351">
        <ele>68.5</ele>
        <time>2013-03-03T13:08:38.000Z</time>
      </trkpt>
      <trkpt lat="48.83213" lon="2.29353">
        <ele>68.3</ele>
        <time>2013-03-03T13:08:39.000Z</time>
      </trkpt>
      <trkpt lat="48.83217" lon="2.29354">
        <ele>68.7</ele>
        <time>2013-03-03T13:08:40.000Z</time>
      </trkpt>
      <trkpt lat="48.8322" lon="2.29357">
        <ele>67.8</ele>
        <time>2013-03-03T13:08:41.000Z</time>
      </trkpt>
      <trkpt lat="48.83223" lon="2.29361">
        <ele>67.4</ele>
        <time>2013-03-03T13:08:42.000Z</time>
      </trkpt>
      <trkpt lat="48.83226" lon="2.29364">
        <ele>67</ele>
        <time>2013-03-03T13:08:43.000Z</time>
      </trkpt>
      <trkpt lat="48.83229" lon="2.29367">
        <ele>66.8</ele>
        <time>2013-03-03T13:08:44.000Z</time>
      </trkpt>
      <trkpt lat="48.83232" lon="2.29371">
        <ele>66.1</ele>
        <time>2013-03-03T13:08:45.000Z</time>
      </trkpt>
      <trkpt lat="48.83235" lon="2.29374">
        <ele>65.7</ele>
        <time>2013-03-03T13:08:46.000Z</time>
      </trkpt>
      <trkpt lat="48.83237" lon="2.29379">
        <ele>64.6</ele>
        <time>2013-03-03T13:08:47.000Z</time>
      </trkpt>
      <trkpt lat="48.83238" lon="2.29383">
        <ele>65.4</ele>
        <time>2013-03-03T13:08:48.000Z</time>
      </trkpt>
      <trkpt lat="48.83239" lon="2.29388">
        <ele>65.2</ele>
        <time>2013-03-03T13:08:49.000Z</time>
      </trkpt>
      <trkpt lat="48.83241" lon="2.29392">
        <ele>64.7</ele>
        <time>2013-03-03T13:08:50.000Z</time>
      </trkpt>
      <trkpt lat="48.83243" lon="2.29395">
        <ele>65.4</ele>
        <time>2013-03-03T13:08:51.000Z</time>
      </trkpt>
      <trkpt lat="48.83246" lon="2.29399">
        <ele>64.6</ele>
        <time>2013-03-03T13:08:52.000Z</time>
      </trkpt>
      <trkpt lat="48.83248" lon="2.29402">
        <ele>65.5</ele>
        <time>2013-03-03T13:08:53.000Z</time>
      </trkpt>
      <trkpt lat="48.83251" lon="2.29405">
        <ele>67.2</ele>
        <time>2013-03-03T13:08:54.000Z</time>
      </trkpt>
      <trkpt lat="48.83253" lon="2.29408">
        <ele>66.9</ele>
        <time>2013-03-03T13:08:55.000Z</time>
      </trkpt>
      <trkpt lat="48.83256" lon="2.2941">
        <ele>66.8</ele>
        <time>2013-03-03T13:08:56.000Z</time>
      </trkpt>
      <trkpt lat="48.83258" lon="2.29412">
        <ele>67.9</ele>
        <time>2013-03-03T13:08:57.000Z</time>
      </trkpt>
      <trkpt lat="48.83261" lon="2.29415">
        <ele>69.7</ele>
        <time>2013-03-03T13:08:58.000Z</time>
      </trkpt>
      <trkpt lat="48.83264" lon="2.29418">
        <ele>70.2</ele>
        <time>2013-03-03T13:08:59.000Z</time>
      </trkpt>
      <trkpt lat="48.83266" lon="2.2942">
        <ele>72.1</ele>
        <time>2013-03-03T13:09:00.000Z</time>
      </trkpt>
      <trkpt lat="48.83268" lon="2.29422">
        <ele>73.4</ele>
        <time>2013-03-03T13:09:01.000Z</time>
      </trkpt>
      <trkpt lat="48.83271" lon="2.29427">
        <ele>73.5</ele>
        <time>2013-03-03T13:09:03.000Z</time>
      </trkpt>
      <trkpt lat="48.83272" lon="2.29429">
        <ele>74.6</ele>
        <time>2013-03-03T13:09:04.000Z</time>
      </trkpt>
      <trkpt lat="48.83271" lon="2.29436">
        <ele>77.6</ele>
        <time>2013-03-03T13:09:06.000Z</time>
      </trkpt>
      <trkpt lat="48.8327" lon="2.29439">
        <ele>79.5</ele>
        <time>2013-03-03T13:09:07.000Z</time>
      </trkpt>
      <trkpt lat="48.83269" lon="2.29442">
        <ele>81.8</ele>
        <time>2013-03-03T13:09:08.000Z</time>
      </trkpt>
      <trkpt lat="48.83267" lon="2.29446">
        <ele>83.1</ele>
        <time>2013-03-03T13:09:09.000Z</time>
      </trkpt>
      <trkpt lat="48.83265" lon="2.29451">
        <ele>84.8</ele>
        <time>2013-03-03T13:09:10.000Z</time>
      </trkpt>
      <trkpt lat="48.83267" lon="2.2946">
        <ele>85.6</ele>
        <time>2013-03-03T13:09:11.000Z</time>
      </trkpt>
      <trkpt lat="48.83265" lon="2.29464">
        <ele>85.8</ele>
        <time>2013-03-03T13:09:12.000Z</time>
      </trkpt>
      <trkpt lat="48.83263" lon="2.29469">
        <ele>86.2</ele>
        <time>2013-03-03T13:09:13.000Z</time>
      </trkpt>
      <trkpt lat="48.83262" lon="2.29474">
        <ele>88.8</ele>
        <time>2013-03-03T13:09:15.000Z</time>
      </trkpt>
      <trkpt lat="48.8326" lon="2.2948">
        <ele>89</ele>
        <time>2013-03-03T13:09:16.000Z</time>
      </trkpt>
      <trkpt lat="48.83257" lon="2.29484">
        <ele>91.8</ele>
        <time>2013-03-03T13:09:17.000Z</time>
      </trkpt>
      <trkpt lat="48.83258" lon="2.2949">
        <ele>96.7</ele>
        <time>2013-03-03T13:09:18.000Z</time>
      </trkpt>
      <trkpt lat="48.83256" lon="2.29494">
        <ele>97.9</ele>
        <time>2013-03-03T13:09:19.000Z</time>
      </trkpt>
      <trkpt lat="48.83255" lon="2.29498">
        <ele>99.2</ele>
        <time>2013-03-03T13:09:20.000Z</time>
      </trkpt>
      <trkpt lat="48.83253" lon="2.29502">
        <ele>99.3</ele>
        <time>2013-03-03T13:09:21.000Z</time>
      </trkpt>
      <trkpt lat="48.8325" lon="2.29506">
        <ele>96.6</ele>
        <time>2013-03-03T13:09:22.000Z</time>
      </trkpt>
      <trkpt lat="48.83248" lon="2.29511">
        <ele>98.2</ele>
        <time>2013-03-03T13:09:23.000Z</time>
      </trkpt>
      <trkpt lat="48.83245" lon="2.29515">
        <ele>98.3</ele>
        <time>2013-03-03T13:09:24.000Z</time>
      </trkpt>
      <trkpt lat="48.83242" lon="2.29519">
        <ele>98.9</ele>
        <time>2013-03-03T13:09:25.000Z</time>
      </trkpt>
      <trkpt lat="48.8324" lon="2.29522">
        <ele>98.8</ele>
        <time>2013-03-03T13:09:26.000Z</time>
      </trkpt>
      <trkpt lat="48.83238" lon="2.29525">
        <ele>99.1</ele>
        <time>2013-03-03T13:09:27.000Z</time>
      </trkpt>
      <trkpt lat="48.83236" lon="2.29528">
        <ele>97.9</ele>
        <time>2013-03-03T13:09:28.000Z</time>
      </trkpt>
      <trkpt lat="48.83235" lon="2.29531">
        <ele>98.6</ele>
        <time>2013-03-03T13:09:29.000Z</time>
      </trkpt>
      <trkpt lat="48.83234" lon="2.29534">
        <ele>99.8</ele>
        <time>2013-03-03T13:09:30.000Z</time>
      </trkpt>
      <trkpt lat="48.83232" lon="2.29537">
        <ele>99.8</ele>
        <time>2013-03-03T13:09:31.000Z</time>
      </trkpt>
      <trkpt lat="48.8323" lon="2.2954">
        <ele>99.8</ele>
        <time>2013-03-03T13:09:32.000Z</time>
      </trkpt>
      <trkpt lat="48.83229" lon="2.29542">
        <ele>99.8</ele>
        <time>2013-03-03T13:09:33.000Z</time>
      </trkpt>
      <trkpt lat="48.83228" lon="2.29545">
        <ele>100.5</ele>
        <time>2013-03-03T13:09:34.000Z</time>
      </trkpt>
      <trkpt lat="48.83226" lon="2.29549">
        <ele>100.5</ele>
        <time>2013-03-03T13:09:35.000Z</time>
      </trkpt>
      <trkpt lat="48.83224" lon="2.29552">
        <ele>101</ele>
        <time>2013-03-03T13:09:36.000Z</time>
      </trkpt>
      <trkpt lat="48.83222" lon="2.29556">
        <ele>102.3</ele>
        <time>2013-03-03T13:09:37.000Z</time>
      </trkpt>
      <trkpt lat="48.8322" lon="2.29559">
        <ele>101.4</ele>
        <time>2013-03-03T13:09:38.000Z</time>
      </trkpt>
      <trkpt lat="48.83218" lon="2.29562">
        <ele>100.6</ele>
        <time>2013-03-03T13:09:39.000Z</time>
      </trkpt>
      <trkpt lat="48.83215" lon="2.29564">
        <ele>101.7</ele>
        <time>2013-03-03T13:09:40.000Z</time>
      </trkpt>
      <trkpt lat="48.83213" lon="2.29566">
        <ele>101.7</ele>
        <time>2013-03-03T13:09:41.000Z</time>
      </trkpt>
      <trkpt lat="48.83211" lon="2.29568">
        <ele>101.9</ele>
        <time>2013-03-03T13:09:42.000Z</time>
      </trkpt>
      <trkpt lat="48.83208" lon="2.29572">
        <ele>101.6</ele>
        <time>2013-03-03T13:09:44.000Z</time>
      </trkpt>
      <trkpt lat="48.83207" lon="2.29575">
        <ele>102.4</ele>
        <time>2013-03-03T13:09:45.000Z</time>
      </trkpt>
      <trkpt lat="48.83206" lon="2.29579">
        <ele>102.3</ele>
        <time>2013-03-03T13:09:46.000Z</time>
      </trkpt>
      <trkpt lat="48.83205" lon="2.29583">
        <ele>102.5</ele>
        <time>2013-03-03T13:09:47.000Z</time>
      </trkpt>
      <trkpt lat="48.83203" lon="2.29587">
        <ele>102.4</ele>
        <time>2013-03-03T13:09:48.000Z</time>
      </trkpt>
      <trkpt lat="48.83202" lon="2.29589">
        <ele>102.7</ele>
        <time>2013-03-03T13:09:49.000Z</time>
      </trkpt>
      <trkpt lat="48.83199" lon="2.29593">
        <ele>105.7</ele>
        <time>2013-03-03T13:09:51.000Z</time>
      </trkpt>
      <trkpt lat="48.83198" lon="2.29595">
        <ele>101.3</ele>
        <time>2013-03-03T13:09:52.000Z</time>
      </trkpt>
      <trkpt lat="48.83197" lon="2.296">
        <ele>100.5</ele>
        <time>2013-03-03T13:09:54.000Z</time>
      </trkpt>
      <trkpt lat="48.83197" lon="2.29603">
        <ele>103</ele>
        <time>2013-03-03T13:09:55.000Z</time>
      </trkpt>
      <trkpt lat="48.83196" lon="2.29606">
        <ele>104</ele>
        <time>2013-03-03T13:09:56.000Z</time>
      </trkpt>
      <trkpt lat="48.83195" lon="2.2961">
        <ele>105.2</ele>
        <time>2013-03-03T13:09:57.000Z</time>
      </trkpt>
      <trkpt lat="48.83193" lon="2.29615">
        <ele>107.6</ele>
        <time>2013-03-03T13:09:59.000Z</time>
      </trkpt>
      <trkpt lat="48.83192" lon="2.29617">
        <ele>109.3</ele>
        <time>2013-03-03T13:10:00.000Z</time>
      </trkpt>
      <trkpt lat="48.83192" lon="2.29623">
        <ele>109.4</ele>
        <time>2013-03-03T13:10:04.000Z</time>
      </trkpt>
      <trkpt lat="48.83193" lon="2.29626">
        <ele>109.3</ele>
        <time>2013-03-03T13:10:05.000Z</time>
      </trkpt>
      <trkpt lat="48.83194" lon="2.29629">
        <ele>108.4</ele>
        <time>2013-03-03T13:10:06.000Z</time>
      </trkpt>
      <trkpt lat="48.83196" lon="2.29632">
        <ele>108.4</ele>
        <time>2013-03-03T13:10:07.000Z</time>
      </trkpt>
      <trkpt lat="48.83197" lon="2.29635">
        <ele>108.3</ele>
        <time>2013-03-03T13:10:08.000Z</time>
      </trkpt>
      <trkpt lat="48.83199" lon="2.29637">
        <ele>107.8</ele>
        <time>2013-03-03T13:10:09.000Z</time>
      </trkpt>
      <trkpt lat="48.832" lon="2.2964">
        <ele>108.3</ele>
        <time>2013-03-03T13:10:10.000Z</time>
      </trkpt>
      <trkpt lat="48.83202" lon="2.29644">
        <ele>108.1</ele>
        <time>2013-03-03T13:10:11.000Z</time>
      </trkpt>
      <trkpt lat="48.83204" lon="2.29647">
        <ele>106.6</ele>
        <time>2013-03-03T13:10:12.000Z</time>
      </trkpt>
      <trkpt lat="48.83206" lon="2.29651">
        <ele>104.5</ele>
        <time>2013-03-03T13:10:13.000Z</time>
      </trkpt>
      <trkpt lat="48.83209" lon="2.29655">
        <ele>103.6</ele>
        <time>2013-03-03T13:10:14.000Z</time>
      </trkpt>
      <trkpt lat="48.8321" lon="2.29659">
        <ele>104.3</ele>
        <time>2013-03-03T13:10:15.000Z</time>
      </trkpt>
      <trkpt lat="48.83212" lon="2.29664">
        <ele>103.5</ele>
        <time>2013-03-03T13:10:16.000Z</time>
      </trkpt>
      <trkpt lat="48.83214" lon="2.29668">
        <ele>103.8</ele>
        <time>2013-03-03T13:10:17.000Z</time>
      </trkpt>
      <trkpt lat="48.83216" lon="2.29673">
        <ele>104.2</ele>
        <time>2013-03-03T13:10:18.000Z</time>
      </trkpt>
      <trkpt lat="48.83218" lon="2.29677">
        <ele>104.1</ele>
        <time>2013-03-03T13:10:19.000Z</time>
      </trkpt>
      <trkpt lat="48.8322" lon="2.29681">
        <ele>102.6</ele>
        <time>2013-03-03T13:10:20.000Z</time>
      </trkpt>
      <trkpt lat="48.83221" lon="2.29686">
        <ele>102</ele>
        <time>2013-03-03T13:10:21.000Z</time>
      </trkpt>
      <trkpt lat="48.83223" lon="2.2969">
        <ele>101.8</ele>
        <time>2013-03-03T13:10:22.000Z</time>
      </trkpt>
      <trkpt lat="48.83224" lon="2.29693">
        <ele>102.3</ele>
        <time>2013-03-03T13:10:23.000Z</time>
      </trkpt>
      <trkpt lat="48.83228" lon="2.29697">
        <ele>102.4</ele>
        <time>2013-03-03T13:10:26.000Z</time>
      </trkpt>
      <trkpt lat="48.83229" lon="2.29697">
        <ele>102.1</ele>
        <time>2013-03-03T13:10:27.000Z</time>
      </trkpt>
      <trkpt lat="48.83231" lon="2.29703">
        <ele>101.3</ele>
        <time>2013-03-03T13:10:43.000Z</time>
      </trkpt>
      <trkpt lat="48.83231" lon="2.29703">
        <ele>101.6</ele>
        <time>2013-03-03T13:10:44.000Z</time>
      </trkpt>
      <trkpt lat="48.83229" lon="2.29697">
        <ele>100.9</ele>
        <time>2013-03-03T13:10:55.000Z</time>
      </trkpt>
      <trkpt lat="48.83229" lon="2.29695">
        <ele>100.9</ele>
        <time>2013-03-03T13:10:56.000Z</time>
      </trkpt>
      <trkpt lat="48.8323" lon="2.29689">
        <ele>103.9</ele>
        <time>2013-03-03T13:11:00.000Z</time>
      </trkpt>
      <trkpt lat="48.8323" lon="2.29688">
        <ele>103.9</ele>
        <time>2013-03-03T13:11:01.000Z</time>
      </trkpt>
      <trkpt lat="48.83228" lon="2.29686">
        <ele>103.9</ele>
        <time>2013-03-03T13:11:07.000Z</time>
      </trkpt>
      <trkpt lat="48.83226" lon="2.29687">
        <ele>103.8</ele>
        <time>2013-03-03T13:11:08.000Z</time>
      </trkpt>
      <trkpt lat="48.83223" lon="2.29693">
        <ele>101.9</ele>
        <time>2013-03-03T13:11:32.000Z</time>
      </trkpt>
      <trkpt lat="48.83223" lon="2.29693">
        <ele>101.8</ele>
        <time>2013-03-03T13:11:33.000Z</time>
      </trkpt>
      <trkpt lat="48.83224" lon="2.29694">
        <ele>101.4</ele>
        <time>2013-03-03T13:11:35.000Z</time>
      </trkpt>
      <trkpt lat="48.83225" lon="2.29699">
        <ele>99.3</ele>
        <time>2013-03-03T13:11:36.000Z</time>
      </trkpt>
      <trkpt lat="48.83227" lon="2.29704">
        <ele>97.1</ele>
        <time>2013-03-03T13:11:37.000Z</time>
      </trkpt>
      <trkpt lat="48.83228" lon="2.29709">
        <ele>97.8</ele>
        <time>2013-03-03T13:11:38.000Z</time>
      </trkpt>
      <trkpt lat="48.8323" lon="2.29713">
        <ele>99.5</ele>
        <time>2013-03-03T13:11:39.000Z</time>
      </trkpt>
      <trkpt lat="48.83233" lon="2.29716">
        <ele>101.7</ele>
        <time>2013-03-03T13:11:40.000Z</time>
      </trkpt>
      <trkpt lat="48.83236" lon="2.29718">
        <ele>102.8</ele>
        <time>2013-03-03T13:11:41.000Z</time>
      </trkpt>
      <trkpt lat="48.83239" lon="2.29721">
        <ele>104.1</ele>
        <time>2013-03-03T13:11:42.000Z</time>
      </trkpt>
      <trkpt lat="48.83241" lon="2.29722">
        <ele>104.4</ele>
        <time>2013-03-03T13:11:43.000Z</time>
      </trkpt>
      <trkpt lat="48.83244" lon="2.29723">
        <ele>106.4</ele>
        <time>2013-03-03T13:11:44.000Z</time>
      </trkpt>
      <trkpt lat="48.83248" lon="2.29723">
        <ele>108.6</ele>
        <time>2013-03-03T13:11:46.000Z</time>
      </trkpt>
      <trkpt lat="48.8325" lon="2.29723">
        <ele>108.7</ele>
        <time>2013-03-03T13:11:47.000Z</time>
      </trkpt>
      <trkpt lat="48.83252" lon="2.2973">
        <ele>110.4</ele>
        <time>2013-03-03T13:11:50.000Z</time>
      </trkpt>
      <trkpt lat="48.83252" lon="2.29733">
        <ele>106.3</ele>
        <time>2013-03-03T13:11:51.000Z</time>
      </trkpt>
      <trkpt lat="48.83253" lon="2.29736">
        <ele>105</ele>
        <time>2013-03-03T13:11:52.000Z</time>
      </trkpt>
      <trkpt lat="48.83254" lon="2.2974">
        <ele>104.1</ele>
        <time>2013-03-03T13:11:53.000Z</time>
      </trkpt>
      <trkpt lat="48.83256" lon="2.29744">
        <ele>101.3</ele>
        <time>2013-03-03T13:11:54.000Z</time>
      </trkpt>
      <trkpt lat="48.83258" lon="2.29748">
        <ele>100.1</ele>
        <time>2013-03-03T13:11:55.000Z</time>
      </trkpt>
      <trkpt lat="48.83261" lon="2.29751">
        <ele>98</ele>
        <time>2013-03-03T13:11:56.000Z</time>
      </trkpt>
      <trkpt lat="48.83263" lon="2.29755">
        <ele>97.2</ele>
        <time>2013-03-03T13:11:57.000Z</time>
      </trkpt>
      <trkpt lat="48.83266" lon="2.29758">
        <ele>96</ele>
        <time>2013-03-03T13:11:58.000Z</time>
      </trkpt>
      <trkpt lat="48.83268" lon="2.29762">
        <ele>93.7</ele>
        <time>2013-03-03T13:11:59.000Z</time>
      </trkpt>
      <trkpt lat="48.83271" lon="2.29766">
        <ele>93.3</ele>
        <time>2013-03-03T13:12:00.000Z</time>
      </trkpt>
      <trkpt lat="48.83273" lon="2.29769">
        <ele>92.4</ele>
        <time>2013-03-03T13:12:01.000Z</time>
      </trkpt>
      <trkpt lat="48.83276" lon="2.29773">
        <ele>92.4</ele>
        <time>2013-03-03T13:12:02.000Z</time>
      </trkpt>
      <trkpt lat="48.83279" lon="2.29776">
        <ele>91.6</ele>
        <time>2013-03-03T13:12:03.000Z</time>
      </trkpt>
      <trkpt lat="48.83281" lon="2.2978">
        <ele>90.2</ele>
        <time>2013-03-03T13:12:04.000Z</time>
      </trkpt>
      <trkpt lat="48.83284" lon="2.29784">
        <ele>88.1</ele>
        <time>2013-03-03T13:12:05.000Z</time>
      </trkpt>
      <trkpt lat="48.83287" lon="2.29788">
        <ele>87.2</ele>
        <time>2013-03-03T13:12:06.000Z</time>
      </trkpt>
      <trkpt lat="48.83289" lon="2.29791">
        <ele>86.9</ele>
        <time>2013-03-03T13:12:07.000Z</time>
      </trkpt>
      <trkpt lat="48.83291" lon="2.29797">
        <ele>88</ele>
        <time>2013-03-03T13:12:08.000Z</time>
      </trkpt>
      <trkpt lat="48.83292" lon="2.29802">
        <ele>87.3</ele>
        <time>2013-03-03T13:12:09.000Z</time>
      </trkpt>
      <trkpt lat="48.83293" lon="2.29808">
        <ele>87</ele>
        <time>2013-03-03T13:12:10.000Z</time>
      </trkpt>
      <trkpt lat="48.83294" lon="2.29813">
        <ele>86.9</ele>
        <time>2013-03-03T13:12:11.000Z</time>
      </trkpt>
      <trkpt lat="48.83296" lon="2.29817">
        <ele>86.2</ele>
        <time>2013-03-03T13:12:12.000Z</time>
      </trkpt>
      <trkpt lat="48.83298" lon="2.29821">
        <ele>86.7</ele>
        <time>2013-03-03T13:12:13.000Z</time>
      </trkpt>
      <trkpt lat="48.833" lon="2.29824">
        <ele>86.3</ele>
        <time>2013-03-03T13:12:14.000Z</time>
      </trkpt>
      <trkpt lat="48.83303" lon="2.29827">
        <ele>85.9</ele>
        <time>2013-03-03T13:12:15.000Z</time>
      </trkpt>
      <trkpt lat="48.83305" lon="2.29831">
        <ele>85.4</ele>
        <time>2013-03-03T13:12:16.000Z</time>
      </trkpt>
      <trkpt lat="48.83308" lon="2.29834">
        <ele>85.3</ele>
        <time>2013-03-03T13:12:17.000Z</time>
      </trkpt>
      <trkpt lat="48.8331" lon="2.29838">
        <ele>87.4</ele>
        <time>2013-03-03T13:12:18.000Z</time>
      </trkpt>
      <trkpt lat="48.83313" lon="2.29842">
        <ele>86.8</ele>
        <time>2013-03-03T13:12:19.000Z</time>
      </trkpt>
      <trkpt lat="48.83315" lon="2.29845">
        <ele>86.6</ele>
        <time>2013-03-03T13:12:20.000Z</time>
      </trkpt>
      <trkpt lat="48.83318" lon="2.29849">
        <ele>86.8</ele>
        <time>2013-03-03T13:12:21.000Z</time>
      </trkpt>
      <trkpt lat="48.8332" lon="2.2985">
        <ele>86.2</ele>
        <time>2013-03-03T13:12:22.000Z</time>
      </trkpt>
      <trkpt lat="48.83323" lon="2.29851">
        <ele>86.2</ele>
        <time>2013-03-03T13:12:23.000Z</time>
      </trkpt>
      <trkpt lat="48.83327" lon="2.29851">
        <ele>87.5</ele>
        <time>2013-03-03T13:12:25.000Z</time>
      </trkpt>
      <trkpt lat="48.83329" lon="2.29851">
        <ele>91.4</ele>
        <time>2013-03-03T13:12:26.000Z</time>
      </trkpt>
      <trkpt lat="48.83331" lon="2.29853">
        <ele>96.6</ele>
        <time>2013-03-03T13:12:28.000Z</time>
      </trkpt>
      <trkpt lat="48.83334" lon="2.29856">
        <ele>97.5</ele>
        <time>2013-03-03T13:12:29.000Z</time>
      </trkpt>
      <trkpt lat="48.83336" lon="2.29861">
        <ele>100</ele>
        <time>2013-03-03T13:12:31.000Z</time>
      </trkpt>
      <trkpt lat="48.83337" lon="2.29864">
        <ele>101.2</ele>
        <time>2013-03-03T13:12:32.000Z</time>
      </trkpt>
      <trkpt lat="48.83339" lon="2.29868">
        <ele>103.6</ele>
        <time>2013-03-03T13:12:39.000Z</time>
      </trkpt>
      <trkpt lat="48.8334" lon="2.29868">
        <ele>104</ele>
        <time>2013-03-03T13:12:40.000Z</time>
      </trkpt>
      <trkpt lat="48.83341" lon="2.29873">
        <ele>100.5</ele>
        <time>2013-03-03T13:13:00.000Z</time>
      </trkpt>
      <trkpt lat="48.83341" lon="2.29876">
        <ele>100.1</ele>
        <time>2013-03-03T13:13:01.000Z</time>
      </trkpt>
      <trkpt lat="48.83342" lon="2.29882">
        <ele>98.5</ele>
        <time>2013-03-03T13:13:03.000Z</time>
      </trkpt>
      <trkpt lat="48.83341" lon="2.29885">
        <ele>99.1</ele>
        <time>2013-03-03T13:13:04.000Z</time>
      </trkpt>
      <trkpt lat="48.83341" lon="2.29891">
        <ele>101</ele>
        <time>2013-03-03T13:13:07.000Z</time>
      </trkpt>
      <trkpt lat="48.83341" lon="2.29895">
        <ele>102.7</ele>
        <time>2013-03-03T13:13:08.000Z</time>
      </trkpt>
      <trkpt lat="48.8334" lon="2.29898">
        <ele>105.2</ele>
        <time>2013-03-03T13:13:09.000Z</time>
      </trkpt>
      <trkpt lat="48.83339" lon="2.29902">
        <ele>105.7</ele>
        <time>2013-03-03T13:13:10.000Z</time>
      </trkpt>
      <trkpt lat="48.83338" lon="2.29906">
        <ele>105.8</ele>
        <time>2013-03-03T13:13:11.000Z</time>
      </trkpt>
      <trkpt lat="48.83338" lon="2.29909">
        <ele>106.6</ele>
        <time>2013-03-03T13:13:12.000Z</time>
      </trkpt>
      <trkpt lat="48.83337" lon="2.29914">
        <ele>105</ele>
        <time>2013-03-03T13:13:14.000Z</time>
      </trkpt>
      <trkpt lat="48.83336" lon="2.29916">
        <ele>104.7</ele>
        <time>2013-03-03T13:13:15.000Z</time>
      </trkpt>
      <trkpt lat="48.83334" lon="2.2992">
        <ele>103.7</ele>
        <time>2013-03-03T13:13:17.000Z</time>
      </trkpt>
      <trkpt lat="48.83333" lon="2.29922">
        <ele>102.4</ele>
        <time>2013-03-03T13:13:18.000Z</time>
      </trkpt>
      <trkpt lat="48.8333" lon="2.29925">
        <ele>100.8</ele>
        <time>2013-03-03T13:13:23.000Z</time>
      </trkpt>
      <trkpt lat="48.8333" lon="2.29927">
        <ele>101.6</ele>
        <time>2013-03-03T13:13:24.000Z</time>
      </trkpt>
      <trkpt lat="48.83328" lon="2.29932">
        <ele>101.8</ele>
        <time>2013-03-03T13:13:26.000Z</time>
      </trkpt>
      <trkpt lat="48.83328" lon="2.29934">
        <ele>103.3</ele>
        <time>2013-03-03T13:13:27.000Z</time>
      </trkpt>
      <trkpt lat="48.83327" lon="2.29938">
        <ele>102.3</ele>
        <time>2013-03-03T13:13:29.000Z</time>
      </trkpt>
      <trkpt lat="48.83326" lon="2.29941">
        <ele>101.3</ele>
        <time>2013-03-03T13:13:30.000Z</time>
      </trkpt>
      <trkpt lat="48.83325" lon="2.29944">
        <ele>99.5</ele>
        <time>2013-03-03T13:13:31.000Z</time>
      </trkpt>
      <trkpt lat="48.83324" lon="2.29947">
        <ele>103.1</ele>
        <time>2013-03-03T13:13:32.000Z</time>
      </trkpt>
      <trkpt lat="48.83323" lon="2.29951">
        <ele>102.4</ele>
        <time>2013-03-03T13:13:33.000Z</time>
      </trkpt>
      <trkpt lat="48.83323" lon="2.29954">
        <ele>102.1</ele>
        <time>2013-03-03T13:13:34.000Z</time>
      </trkpt>
      <trkpt lat="48.83321" lon="2.29959">
        <ele>101.4</ele>
        <time>2013-03-03T13:13:36.000Z</time>
      </trkpt>
      <trkpt lat="48.8332" lon="2.29962">
        <ele>99</ele>
        <time>2013-03-03T13:13:37.000Z</time>
      </trkpt>
      <trkpt lat="48.8332" lon="2.29967">
        <ele>94.1</ele>
        <time>2013-03-03T13:13:38.000Z</time>
      </trkpt>
      <trkpt lat="48.8332" lon="2.29972">
        <ele>91.8</ele>
        <time>2013-03-03T13:13:39.000Z</time>
      </trkpt>
      <trkpt lat="48.83319" lon="2.29977">
        <ele>91.6</ele>
        <time>2013-03-03T13:13:40.000Z</time>
      </trkpt>
      <trkpt lat="48.83319" lon="2.29981">
        <ele>90.6</ele>
        <time>2013-03-03T13:13:41.000Z</time>
      </trkpt>
      <trkpt lat="48.83318" lon="2.29985">
        <ele>89.9</ele>
        <time>2013-03-03T13:13:42.000Z</time>
      </trkpt>
      <trkpt lat="48.83317" lon="2.29989">
        <ele>89.1</ele>
        <time>2013-03-03T13:13:43.000Z</time>
      </trkpt>
      <trkpt lat="48.83315" lon="2.29994">
        <ele>86.9</ele>
        <time>2013-03-03T13:13:44.000Z</time>
      </trkpt>
      <trkpt lat="48.83313" lon="2.29998">
        <ele>86.2</ele>
        <time>2013-03-03T13:13:45.000Z</time>
      </trkpt>
      <trkpt lat="48.83311" lon="2.30003">
        <ele>85.7</ele>
        <time>2013-03-03T13:13:46.000Z</time>
      </trkpt>
      <trkpt lat="48.83309" lon="2.30007">
        <ele>84.9</ele>
        <time>2013-03-03T13:13:47.000Z</time>
      </trkpt>
      <trkpt lat="48.83307" lon="2.30011">
        <ele>84.8</ele>
        <time>2013-03-03T13:13:48.000Z</time>
      </trkpt>
      <trkpt lat="48.83304" lon="2.30014">
        <ele>84.3</ele>
        <time>2013-03-03T13:13:49.000Z</time>
      </trkpt>
      <trkpt lat="48.83302" lon="2.30018">
        <ele>83.2</ele>
        <time>2013-03-03T13:13:50.000Z</time>
      </trkpt>
      <trkpt lat="48.833" lon="2.30021">
        <ele>83.1</ele>
        <time>2013-03-03T13:13:51.000Z</time>
      </trkpt>
      <trkpt lat="48.83298" lon="2.30025">
        <ele>83.1</ele>
        <time>2013-03-03T13:13:52.000Z</time>
      </trkpt>
      <trkpt lat="48.83296" lon="2.30028">
        <ele>83</ele>
        <time>2013-03-03T13:13:53.000Z</time>
      </trkpt>
      <trkpt lat="48.83294" lon="2.30032">
        <ele>83.5</ele>
        <time>2013-03-03T13:13:54.000Z</time>
      </trkpt>
      <trkpt lat="48.83292" lon="2.30035">
        <ele>85.1</ele>
        <time>2013-03-03T13:13:55.000Z</time>
      </trkpt>
      <trkpt lat="48.8329" lon="2.3004">
        <ele>85.2</ele>
        <time>2013-03-03T13:13:56.000Z</time>
      </trkpt>
      <trkpt lat="48.83287" lon="2.30045">
        <ele>85.6</ele>
        <time>2013-03-03T13:13:58.000Z</time>
      </trkpt>
      <trkpt lat="48.83286" lon="2.30048">
        <ele>85.6</ele>
        <time>2013-03-03T13:13:59.000Z</time>
      </trkpt>
      <trkpt lat="48.83283" lon="2.30052">
        <ele>84.9</ele>
        <time>2013-03-03T13:14:02.000Z</time>
      </trkpt>
      <trkpt lat="48.83283" lon="2.30053">
        <ele>85.1</ele>
        <time>2013-03-03T13:14:03.000Z</time>
      </trkpt>
      <trkpt lat="48.83281" lon="2.30059">
        <ele>85.7</ele>
        <time>2013-03-03T13:14:34.000Z</time>
      </trkpt>
      <trkpt lat="48.8328" lon="2.3006">
        <ele>86.2</ele>
        <time>2013-03-03T13:14:35.000Z</time>
      </trkpt>
      <trkpt lat="48.83278" lon="2.30064">
        <ele>85.6</ele>
        <time>2013-03-03T13:14:37.000Z</time>
      </trkpt>
      <trkpt lat="48.83277" lon="2.30068">
        <ele>85</ele>
        <time>2013-03-03T13:14:38.000Z</time>
      </trkpt>
      <trkpt lat="48.83277" lon="2.30071">
        <ele>84.5</ele>
        <time>2013-03-03T13:14:39.000Z</time>
      </trkpt>
      <trkpt lat="48.83276" lon="2.30075">
        <ele>84.8</ele>
        <time>2013-03-03T13:14:40.000Z</time>
      </trkpt>
      <trkpt lat="48.83275" lon="2.3008">
        <ele>83.6</ele>
        <time>2013-03-03T13:14:41.000Z</time>
      </trkpt>
      <trkpt lat="48.83274" lon="2.30083">
        <ele>83.3</ele>
        <time>2013-03-03T13:14:42.000Z</time>
      </trkpt>
      <trkpt lat="48.83273" lon="2.30087">
        <ele>83.5</ele>
        <time>2013-03-03T13:14:43.000Z</time>
      </trkpt>
      <trkpt lat="48.83272" lon="2.30091">
        <ele>82.9</ele>
        <time>2013-03-03T13:14:44.000Z</time>
      </trkpt>
      <trkpt lat="48.83271" lon="2.30094">
        <ele>82.7</ele>
        <time>2013-03-03T13:14:45.000Z</time>
      </trkpt>
      <trkpt lat="48.8327" lon="2.30098">
        <ele>83.3</ele>
        <time>2013-03-03T13:14:46.000Z</time>
      </trkpt>
      <trkpt lat="48.8327" lon="2.30102">
        <ele>84.3</ele>
        <time>2013-03-03T13:14:47.000Z</time>
      </trkpt>
      <trkpt lat="48.83268" lon="2.30105">
        <ele>85.3</ele>
        <time>2013-03-03T13:14:48.000Z</time>
      </trkpt>
      <trkpt lat="48.83267" lon="2.30108">
        <ele>86.1</ele>
        <time>2013-03-03T13:14:49.000Z</time>
      </trkpt>
      <trkpt lat="48.83266" lon="2.30111">
        <ele>86.4</ele>
        <time>2013-03-03T13:14:50.000Z</time>
      </trkpt>
      <trkpt lat="48.83266" lon="2.30115">
        <ele>86</ele>
        <time>2013-03-03T13:14:51.000Z</time>
      </trkpt>
      <trkpt lat="48.83265" lon="2.30118">
        <ele>86</ele>
        <time>2013-03-03T13:14:52.000Z</time>
      </trkpt>
      <trkpt lat="48.83265" lon="2.30125">
        <ele>86.7</ele>
        <time>2013-03-03T13:14:54.000Z</time>
      </trkpt>
      <trkpt lat="48.83265" lon="2.30128">
        <ele>86.7</ele>
        <time>2013-03-03T13:14:55.000Z</time>
      </trkpt>
      <trkpt lat="48.83265" lon="2.30132">
        <ele>86.9</ele>
        <time>2013-03-03T13:14:57.000Z</time>
      </trkpt>
      <trkpt lat="48.83265" lon="2.30135">
        <ele>86.7</ele>
        <time>2013-03-03T13:14:58.000Z</time>
      </trkpt>
      <trkpt lat="48.83264" lon="2.30138">
        <ele>86.6</ele>
        <time>2013-03-03T13:14:59.000Z</time>
      </trkpt>
      <trkpt lat="48.83263" lon="2.30142">
        <ele>87.2</ele>
        <time>2013-03-03T13:15:00.000Z</time>
      </trkpt>
      <trkpt lat="48.83262" lon="2.30145">
        <ele>87.2</ele>
        <time>2013-03-03T13:15:01.000Z</time>
      </trkpt>
      <trkpt lat="48.83261" lon="2.30148">
        <ele>86.2</ele>
        <time>2013-03-03T13:15:02.000Z</time>
      </trkpt>
      <trkpt lat="48.8326" lon="2.30155">
        <ele>86.3</ele>
        <time>2013-03-03T13:15:04.000Z</time>
      </trkpt>
      <trkpt lat="48.83259" lon="2.30158">
        <ele>87</ele>
        <time>2013-03-03T13:15:05.000Z</time>
      </trkpt>
      <trkpt lat="48.83258" lon="2.30161">
        <ele>88.6</ele>
        <time>2013-03-03T13:15:06.000Z</time>
      </trkpt>
      <trkpt lat="48.83257" lon="2.30164">
        <ele>88</ele>
        <time>2013-03-03T13:15:07.000Z</time>
      </trkpt>
      <trkpt lat="48.83256" lon="2.3017">
        <ele>88.4</ele>
        <time>2013-03-03T13:15:09.000Z</time>
      </trkpt>
      <trkpt lat="48.83256" lon="2.30173">
        <ele>88.8</ele>
        <time>2013-03-03T13:15:10.000Z</time>
      </trkpt>
      <trkpt lat="48.83255" lon="2.3018">
        <ele>88.5</ele>
        <time>2013-03-03T13:15:12.000Z</time>
      </trkpt>
      <trkpt lat="48.83254" lon="2.30183">
        <ele>87</ele>
        <time>2013-03-03T13:15:13.000Z</time>
      </trkpt>
      <trkpt lat="48.83254" lon="2.30187">
        <ele>87.9</ele>
        <time>2013-03-03T13:15:15.000Z</time>
      </trkpt>
      <trkpt lat="48.83253" lon="2.3019">
        <ele>87</ele>
        <time>2013-03-03T13:15:16.000Z</time>
      </trkpt>
      <trkpt lat="48.83251" lon="2.30195">
        <ele>88.2</ele>
        <time>2013-03-03T13:15:18.000Z</time>
      </trkpt>
      <trkpt lat="48.8325" lon="2.30199">
        <ele>87.5</ele>
        <time>2013-03-03T13:15:19.000Z</time>
      </trkpt>
      <trkpt lat="48.83251" lon="2.30205">
        <ele>87.1</ele>
        <time>2013-03-03T13:15:21.000Z</time>
      </trkpt>
      <trkpt lat="48.83251" lon="2.30208">
        <ele>86</ele>
        <time>2013-03-03T13:15:22.000Z</time>
      </trkpt>
      <trkpt lat="48.8325" lon="2.30214">
        <ele>85.6</ele>
        <time>2013-03-03T13:15:24.000Z</time>
      </trkpt>
      <trkpt lat="48.8325" lon="2.30216">
        <ele>85.4</ele>
        <time>2013-03-03T13:15:25.000Z</time>
      </trkpt>
      <trkpt lat="48.83249" lon="2.30222">
        <ele>85.2</ele>
        <time>2013-03-03T13:15:27.000Z</time>
      </trkpt>
      <trkpt lat="48.83248" lon="2.30224">
        <ele>84.9</ele>
        <time>2013-03-03T13:15:28.000Z</time>
      </trkpt>
      <trkpt lat="48.83246" lon="2.3023">
        <ele>84.3</ele>
        <time>2013-03-03T13:15:30.000Z</time>
      </trkpt>
      <trkpt lat="48.83244" lon="2.30233">
        <ele>84.1</ele>
        <time>2013-03-03T13:15:31.000Z</time>
      </trkpt>
      <trkpt lat="48.83241" lon="2.30238">
        <ele>83.7</ele>
        <time>2013-03-03T13:15:33.000Z</time>
      </trkpt>
      <trkpt lat="48.83239" lon="2.3024">
        <ele>85.9</ele>
        <time>2013-03-03T13:15:34.000Z</time>
      </trkpt>
      <trkpt lat="48.83237" lon="2.30241">
        <ele>88.1</ele>
        <time>2013-03-03T13:15:35.000Z</time>
      </trkpt>
      <trkpt lat="48.83235" lon="2.30241">
        <ele>88.4</ele>
        <time>2013-03-03T13:15:36.000Z</time>
      </trkpt>
      <trkpt lat="48.8323" lon="2.30242">
        <ele>89.3</ele>
        <time>2013-03-03T13:15:38.000Z</time>
      </trkpt>
      <trkpt lat="48.83228" lon="2.30242">
        <ele>87.2</ele>
        <time>2013-03-03T13:15:39.000Z</time>
      </trkpt>
      <trkpt lat="48.83226" lon="2.30242">
        <ele>87.4</ele>
        <time>2013-03-03T13:15:40.000Z</time>
      </trkpt>
      <trkpt lat="48.83222" lon="2.30242">
        <ele>87.6</ele>
        <time>2013-03-03T13:15:41.000Z</time>
      </trkpt>
      <trkpt lat="48.83218" lon="2.30241">
        <ele>88.4</ele>
        <time>2013-03-03T13:15:42.000Z</time>
      </trkpt>
      <trkpt lat="48.83214" lon="2.30241">
        <ele>88.5</ele>
        <time>2013-03-03T13:15:43.000Z</time>
      </trkpt>
      <trkpt lat="48.83211" lon="2.30241">
        <ele>90.6</ele>
        <time>2013-03-03T13:15:44.000Z</time>
      </trkpt>
      <trkpt lat="48.83207" lon="2.3024">
        <ele>89.1</ele>
        <time>2013-03-03T13:15:45.000Z</time>
      </trkpt>
      <trkpt lat="48.83204" lon="2.3024">
        <ele>89.2</ele>
        <time>2013-03-03T13:15:46.000Z</time>
      </trkpt>
      <trkpt lat="48.83201" lon="2.30239">
        <ele>89.1</ele>
        <time>2013-03-03T13:15:47.000Z</time>
      </trkpt>
      <trkpt lat="48.83197" lon="2.30239">
        <ele>89.1</ele>
        <time>2013-03-03T13:15:48.000Z</time>
      </trkpt>
      <trkpt lat="48.83194" lon="2.30239">
        <ele>88.7</ele>
        <time>2013-03-03T13:15:49.000Z</time>
      </trkpt>
      <trkpt lat="48.83191" lon="2.30239">
        <ele>89</ele>
        <time>2013-03-03T13:15:50.000Z</time>
      </trkpt>
      <trkpt lat="48.83188" lon="2.30239">
        <ele>89</ele>
        <time>2013-03-03T13:15:51.000Z</time>
      </trkpt>
      <trkpt lat="48.83185" lon="2.30239">
        <ele>87.4</ele>
        <time>2013-03-03T13:15:52.000Z</time>
      </trkpt>
      <trkpt lat="48.83182" lon="2.30238">
        <ele>87.4</ele>
        <time>2013-03-03T13:15:53.000Z</time>
      </trkpt>
      <trkpt lat="48.83179" lon="2.30239">
        <ele>86.5</ele>
        <time>2013-03-03T13:15:54.000Z</time>
      </trkpt>
      <trkpt lat="48.83176" lon="2.30239">
        <ele>86.6</ele>
        <time>2013-03-03T13:15:55.000Z</time>
      </trkpt>
      <trkpt lat="48.83173" lon="2.30239">
        <ele>86.7</ele>
        <time>2013-03-03T13:15:56.000Z</time>
      </trkpt>
      <trkpt lat="48.8317" lon="2.30239">
        <ele>86.5</ele>
        <time>2013-03-03T13:15:57.000Z</time>
      </trkpt>
      <trkpt lat="48.83167" lon="2.30239">
        <ele>85.9</ele>
        <time>2013-03-03T13:15:58.000Z</time>
      </trkpt>
      <trkpt lat="48.83165" lon="2.30238">
        <ele>85.6</ele>
        <time>2013-03-03T13:15:59.000Z</time>
      </trkpt>
      <trkpt lat="48.83162" lon="2.30238">
        <ele>85.3</ele>
        <time>2013-03-03T13:16:00.000Z</time>
      </trkpt>
      <trkpt lat="48.83159" lon="2.30237">
        <ele>84.4</ele>
        <time>2013-03-03T13:16:01.000Z</time>
      </trkpt>
      <trkpt lat="48.83156" lon="2.30236">
        <ele>83.6</ele>
        <time>2013-03-03T13:16:02.000Z</time>
      </trkpt>
      <trkpt lat="48.83154" lon="2.30236">
        <ele>82.7</ele>
        <time>2013-03-03T13:16:03.000Z</time>
      </trkpt>
      <trkpt lat="48.83151" lon="2.30237">
        <ele>82.1</ele>
        <time>2013-03-03T13:16:04.000Z</time>
      </trkpt>
      <trkpt lat="48.83149" lon="2.30238">
        <ele>82.1</ele>
        <time>2013-03-03T13:16:05.000Z</time>
      </trkpt>
      <trkpt lat="48.83145" lon="2.30242">
        <ele>82.3</ele>
        <time>2013-03-03T13:16:07.000Z</time>
      </trkpt>
      <trkpt lat="48.83144" lon="2.30245">
        <ele>82</ele>
        <time>2013-03-03T13:16:08.000Z</time>
      </trkpt>
      <trkpt lat="48.83143" lon="2.30248">
        <ele>80.9</ele>
        <time>2013-03-03T13:16:09.000Z</time>
      </trkpt>
      <trkpt lat="48.83142" lon="2.30251">
        <ele>80.7</ele>
        <time>2013-03-03T13:16:10.000Z</time>
      </trkpt>
      <trkpt lat="48.83141" lon="2.30257">
        <ele>81.4</ele>
        <time>2013-03-03T13:16:12.000Z</time>
      </trkpt>
      <trkpt lat="48.8314" lon="2.30259">
        <ele>82.7</ele>
        <time>2013-03-03T13:16:13.000Z</time>
      </trkpt>
      <trkpt lat="48.83139" lon="2.30265">
        <ele>85.4</ele>
        <time>2013-03-03T13:16:16.000Z</time>
      </trkpt>
      <trkpt lat="48.83138" lon="2.30268">
        <ele>86.8</ele>
        <time>2013-03-03T13:16:17.000Z</time>
      </trkpt>
      <trkpt lat="48.83136" lon="2.3027">
        <ele>86.4</ele>
        <time>2013-03-03T13:16:18.000Z</time>
      </trkpt>
      <trkpt lat="48.83134" lon="2.30273">
        <ele>86.5</ele>
        <time>2013-03-03T13:16:19.000Z</time>
      </trkpt>
      <trkpt lat="48.83133" lon="2.30275">
        <ele>86.9</ele>
        <time>2013-03-03T13:16:20.000Z</time>
      </trkpt>
      <trkpt lat="48.83131" lon="2.30278">
        <ele>87.6</ele>
        <time>2013-03-03T13:16:21.000Z</time>
      </trkpt>
      <trkpt lat="48.83129" lon="2.30281">
        <ele>86.9</ele>
        <time>2013-03-03T13:16:22.000Z</time>
      </trkpt>
      <trkpt lat="48.83128" lon="2.30283">
        <ele>89.3</ele>
        <time>2013-03-03T13:16:23.000Z</time>
      </trkpt>
      <trkpt lat="48.83124" lon="2.30286">
        <ele>91.8</ele>
        <time>2013-03-03T13:16:25.000Z</time>
      </trkpt>
      <trkpt lat="48.83122" lon="2.30288">
        <ele>92.5</ele>
        <time>2013-03-03T13:16:26.000Z</time>
      </trkpt>
      <trkpt lat="48.8312" lon="2.30291">
        <ele>93.7</ele>
        <time>2013-03-03T13:16:27.000Z</time>
      </trkpt>
      <trkpt lat="48.83119" lon="2.30294">
        <ele>94.6</ele>
        <time>2013-03-03T13:16:28.000Z</time>
      </trkpt>
      <trkpt lat="48.83117" lon="2.30298">
        <ele>94.7</ele>
        <time>2013-03-03T13:16:29.000Z</time>
      </trkpt>
      <trkpt lat="48.83116" lon="2.30302">
        <ele>95.1</ele>
        <time>2013-03-03T13:16:30.000Z</time>
      </trkpt>
      <trkpt lat="48.83114" lon="2.30305">
        <ele>95.4</ele>
        <time>2013-03-03T13:16:31.000Z</time>
      </trkpt>
      <trkpt lat="48.83113" lon="2.30309">
        <ele>94.7</ele>
        <time>2013-03-03T13:16:32.000Z</time>
      </trkpt>
      <trkpt lat="48.83111" lon="2.30315">
        <ele>95.9</ele>
        <time>2013-03-03T13:16:34.000Z</time>
      </trkpt>
      <trkpt lat="48.83111" lon="2.30318">
        <ele>96.8</ele>
        <time>2013-03-03T13:16:35.000Z</time>
      </trkpt>
      <trkpt lat="48.8311" lon="2.30323">
        <ele>99.3</ele>
        <time>2013-03-03T13:16:37.000Z</time>
      </trkpt>
      <trkpt lat="48.83109" lon="2.30324">
        <ele>100.6</ele>
        <time>2013-03-03T13:16:38.000Z</time>
      </trkpt>
      <trkpt lat="48.83105" lon="2.30324">
        <ele>103.2</ele>
        <time>2013-03-03T13:16:41.000Z</time>
      </trkpt>
      <trkpt lat="48.83103" lon="2.30324">
        <ele>106.1</ele>
        <time>2013-03-03T13:16:42.000Z</time>
      </trkpt>
      <trkpt lat="48.83101" lon="2.30329">
        <ele>101.5</ele>
        <time>2013-03-03T13:16:49.000Z</time>
      </trkpt>
      <trkpt lat="48.83102" lon="2.30334">
        <ele>99.7</ele>
        <time>2013-03-03T13:16:50.000Z</time>
      </trkpt>
      <trkpt lat="48.83102" lon="2.30337">
        <ele>99.3</ele>
        <time>2013-03-03T13:16:51.000Z</time>
      </trkpt>
      <trkpt lat="48.83102" lon="2.30341">
        <ele>100.1</ele>
        <time>2013-03-03T13:16:52.000Z</time>
      </trkpt>
      <trkpt lat="48.831" lon="2.30346">
        <ele>103.6</ele>
        <time>2013-03-03T13:16:53.000Z</time>
      </trkpt>
      <trkpt lat="48.83099" lon="2.3035">
        <ele>103.4</ele>
        <time>2013-03-03T13:16:54.000Z</time>
      </trkpt>
      <trkpt lat="48.83097" lon="2.30354">
        <ele>104.1</ele>
        <time>2013-03-03T13:16:55.000Z</time>
      </trkpt>
      <trkpt lat="48.83096" lon="2.30358">
        <ele>104.4</ele>
        <time>2013-03-03T13:16:56.000Z</time>
      </trkpt>
      <trkpt lat="48.83094" lon="2.30362">
        <ele>106.2</ele>
        <time>2013-03-03T13:16:58.000Z</time>
      </trkpt>
      <trkpt lat="48.83093" lon="2.30365">
        <ele>106.2</ele>
        <time>2013-03-03T13:16:59.000Z</time>
      </trkpt>
      <trkpt lat="48.8309" lon="2.3037">
        <ele>106.8</ele>
        <time>2013-03-03T13:17:01.000Z</time>
      </trkpt>
      <trkpt lat="48.83089" lon="2.30372">
        <ele>105.3</ele>
        <time>2013-03-03T13:17:02.000Z</time>
      </trkpt>
      <trkpt lat="48.83088" lon="2.30376">
        <ele>105.4</ele>
        <time>2013-03-03T13:17:03.000Z</time>
      </trkpt>
      <trkpt lat="48.83087" lon="2.30379">
        <ele>105.1</ele>
        <time>2013-03-03T13:17:04.000Z</time>
      </trkpt>
      <trkpt lat="48.83085" lon="2.30384">
        <ele>104.9</ele>
        <time>2013-03-03T13:17:07.000Z</time>
      </trkpt>
      <trkpt lat="48.83084" lon="2.30385">
        <ele>105.5</ele>
        <time>2013-03-03T13:17:08.000Z</time>
      </trkpt>
      <trkpt lat="48.8308" lon="2.30389">
        <ele>106.2</ele>
        <time>2013-03-03T13:17:12.000Z</time>
      </trkpt>
      <trkpt lat="48.83079" lon="2.30389">
        <ele>105.3</ele>
        <time>2013-03-03T13:17:13.000Z</time>
      </trkpt>
      <trkpt lat="48.83075" lon="2.30392">
        <ele>104.3</ele>
        <time>2013-03-03T13:17:16.000Z</time>
      </trkpt>
      <trkpt lat="48.83074" lon="2.30393">
        <ele>101.5</ele>
        <time>2013-03-03T13:17:17.000Z</time>
      </trkpt>
      <trkpt lat="48.83072" lon="2.30395">
        <ele>101</ele>
        <time>2013-03-03T13:17:18.000Z</time>
      </trkpt>
      <trkpt lat="48.8307" lon="2.30398">
        <ele>102.1</ele>
        <time>2013-03-03T13:17:19.000Z</time>
      </trkpt>
      <trkpt lat="48.83068" lon="2.30402">
        <ele>101.9</ele>
        <time>2013-03-03T13:17:20.000Z</time>
      </trkpt>
      <trkpt lat="48.83067" lon="2.30406">
        <ele>101.6</ele>
        <time>2013-03-03T13:17:21.000Z</time>
      </trkpt>
      <trkpt lat="48.83067" lon="2.30409">
        <ele>101.5</ele>
        <time>2013-03-03T13:17:22.000Z</time>
      </trkpt>
      <trkpt lat="48.83065" lon="2.30413">
        <ele>101.2</ele>
        <time>2013-03-03T13:17:23.000Z</time>
      </trkpt>
      <trkpt lat="48.83064" lon="2.30416">
        <ele>100.5</ele>
        <time>2013-03-03T13:17:24.000Z</time>
      </trkpt>
      <trkpt lat="48.83063" lon="2.30419">
        <ele>101</ele>
        <time>2013-03-03T13:17:25.000Z</time>
      </trkpt>
      <trkpt lat="48.83061" lon="2.30423">
        <ele>100.3</ele>
        <time>2013-03-03T13:17:26.000Z</time>
      </trkpt>
      <trkpt lat="48.83058" lon="2.30426">
        <ele>100.5</ele>
        <time>2013-03-03T13:17:27.000Z</time>
      </trkpt>
      <trkpt lat="48.83055" lon="2.30429">
        <ele>100.6</ele>
        <time>2013-03-03T13:17:28.000Z</time>
      </trkpt>
      <trkpt lat="48.83053" lon="2.30433">
        <ele>99.1</ele>
        <time>2013-03-03T13:17:29.000Z</time>
      </trkpt>
      <trkpt lat="48.83051" lon="2.30437">
        <ele>98.9</ele>
        <time>2013-03-03T13:17:30.000Z</time>
      </trkpt>
      <trkpt lat="48.8305" lon="2.30441">
        <ele>102.6</ele>
        <time>2013-03-03T13:17:31.000Z</time>
      </trkpt>
      <trkpt lat="48.83049" lon="2.30445">
        <ele>102.7</ele>
        <time>2013-03-03T13:17:32.000Z</time>
      </trkpt>
      <trkpt lat="48.83047" lon="2.30449">
        <ele>101.9</ele>
        <time>2013-03-03T13:17:33.000Z</time>
      </trkpt>
      <trkpt lat="48.83044" lon="2.30452">
        <ele>100.9</ele>
        <time>2013-03-03T13:17:35.000Z</time>
      </trkpt>
      <trkpt lat="48.83042" lon="2.30452">
        <ele>100.1</ele>
        <time>2013-03-03T13:17:36.000Z</time>
      </trkpt>
      <trkpt lat="48.83038" lon="2.30453">
        <ele>100.2</ele>
        <time>2013-03-03T13:17:38.000Z</time>
      </trkpt>
      <trkpt lat="48.83035" lon="2.30456">
        <ele>99.8</ele>
        <time>2013-03-03T13:17:39.000Z</time>
      </trkpt>
      <trkpt lat="48.83033" lon="2.30458">
        <ele>100.5</ele>
        <time>2013-03-03T13:17:40.000Z</time>
      </trkpt>
      <trkpt lat="48.83031" lon="2.30462">
        <ele>98.6</ele>
        <time>2013-03-03T13:17:41.000Z</time>
      </trkpt>
      <trkpt lat="48.8303" lon="2.30466">
        <ele>95.5</ele>
        <time>2013-03-03T13:17:42.000Z</time>
      </trkpt>
      <trkpt lat="48.8303" lon="2.30469">
        <ele>92.9</ele>
        <time>2013-03-03T13:17:43.000Z</time>
      </trkpt>
      <trkpt lat="48.8303" lon="2.30474">
        <ele>91.5</ele>
        <time>2013-03-03T13:17:44.000Z</time>
      </trkpt>
      <trkpt lat="48.83031" lon="2.30478">
        <ele>90.3</ele>
        <time>2013-03-03T13:17:45.000Z</time>
      </trkpt>
      <trkpt lat="48.83031" lon="2.30483">
        <ele>89.7</ele>
        <time>2013-03-03T13:17:46.000Z</time>
      </trkpt>
      <trkpt lat="48.83032" lon="2.30487">
        <ele>89.9</ele>
        <time>2013-03-03T13:17:47.000Z</time>
      </trkpt>
      <trkpt lat="48.83034" lon="2.30491">
        <ele>88.9</ele>
        <time>2013-03-03T13:17:48.000Z</time>
      </trkpt>
      <trkpt lat="48.83035" lon="2.30494">
        <ele>88.8</ele>
        <time>2013-03-03T13:17:49.000Z</time>
      </trkpt>
      <trkpt lat="48.83036" lon="2.30498">
        <ele>87.6</ele>
        <time>2013-03-03T13:17:50.000Z</time>
      </trkpt>
      <trkpt lat="48.83037" lon="2.30501">
        <ele>86.7</ele>
        <time>2013-03-03T13:17:51.000Z</time>
      </trkpt>
      <trkpt lat="48.83038" lon="2.30505">
        <ele>86.3</ele>
        <time>2013-03-03T13:17:52.000Z</time>
      </trkpt>
      <trkpt lat="48.83039" lon="2.30509">
        <ele>87.3</ele>
        <time>2013-03-03T13:17:53.000Z</time>
      </trkpt>
      <trkpt lat="48.8304" lon="2.30514">
        <ele>88.2</ele>
        <time>2013-03-03T13:17:54.000Z</time>
      </trkpt>
      <trkpt lat="48.83041" lon="2.3052">
        <ele>88.3</ele>
        <time>2013-03-03T13:17:55.000Z</time>
      </trkpt>
      <trkpt lat="48.83041" lon="2.30526">
        <ele>88.5</ele>
        <time>2013-03-03T13:17:56.000Z</time>
      </trkpt>
      <trkpt lat="48.83042" lon="2.30531">
        <ele>89.7</ele>
        <time>2013-03-03T13:17:57.000Z</time>
      </trkpt>
      <trkpt lat="48.83042" lon="2.30537">
        <ele>90.4</ele>
        <time>2013-03-03T13:17:58.000Z</time>
      </trkpt>
      <trkpt lat="48.83042" lon="2.30542">
        <ele>91</ele>
        <time>2013-03-03T13:17:59.000Z</time>
      </trkpt>
      <trkpt lat="48.83041" lon="2.30547">
        <ele>90</ele>
        <time>2013-03-03T13:18:00.000Z</time>
      </trkpt>
      <trkpt lat="48.83042" lon="2.3055">
        <ele>88.8</ele>
        <time>2013-03-03T13:18:01.000Z</time>
      </trkpt>
      <trkpt lat="48.83042" lon="2.30553">
        <ele>88.8</ele>
        <time>2013-03-03T13:18:02.000Z</time>
      </trkpt>
      <trkpt lat="48.83041" lon="2.30557">
        <ele>88.5</ele>
        <time>2013-03-03T13:18:03.000Z</time>
      </trkpt>
      <trkpt lat="48.83041" lon="2.30561">
        <ele>88.2</ele>
        <time>2013-03-03T13:18:04.000Z</time>
      </trkpt>
      <trkpt lat="48.83042" lon="2.30565">
        <ele>87.3</ele>
        <time>2013-03-03T13:18:05.000Z</time>
      </trkpt>
      <trkpt lat="48.83042" lon="2.30568">
        <ele>87.3</ele>
        <time>2013-03-03T13:18:06.000Z</time>
      </trkpt>
      <trkpt lat="48.83043" lon="2.30572">
        <ele>86.9</ele>
        <time>2013-03-03T13:18:07.000Z</time>
      </trkpt>
      <trkpt lat="48.83045" lon="2.30577">
        <ele>87.6</ele>
        <time>2013-03-03T13:18:09.000Z</time>
      </trkpt>
      <trkpt lat="48.83046" lon="2.3058">
        <ele>87.6</ele>
        <time>2013-03-03T13:18:10.000Z</time>
      </trkpt>
      <trkpt lat="48.83048" lon="2.30582">
        <ele>88.8</ele>
        <time>2013-03-03T13:18:11.000Z</time>
      </trkpt>
      <trkpt lat="48.83049" lon="2.30585">
        <ele>89.4</ele>
        <time>2013-03-03T13:18:12.000Z</time>
      </trkpt>
      <trkpt lat="48.83051" lon="2.30587">
        <ele>89.7</ele>
        <time>2013-03-03T13:18:13.000Z</time>
      </trkpt>
      <trkpt lat="48.83052" lon="2.3059">
        <ele>90.4</ele>
        <time>2013-03-03T13:18:14.000Z</time>
      </trkpt>
      <trkpt lat="48.83053" lon="2.30594">
        <ele>91.2</ele>
        <time>2013-03-03T13:18:15.000Z</time>
      </trkpt>
      <trkpt lat="48.83055" lon="2.30597">
        <ele>91.4</ele>
        <time>2013-03-03T13:18:16.000Z</time>
      </trkpt>
      <trkpt lat="48.83056" lon="2.30601">
        <ele>91.6</ele>
        <time>2013-03-03T13:18:17.000Z</time>
      </trkpt>
      <trkpt lat="48.83058" lon="2.30604">
        <ele>91.8</ele>
        <time>2013-03-03T13:18:18.000Z</time>
      </trkpt>
      <trkpt lat="48.8306" lon="2.30608">
        <ele>91.6</ele>
        <time>2013-03-03T13:18:19.000Z</time>
      </trkpt>
      <trkpt lat="48.83062" lon="2.30612">
        <ele>92.4</ele>
        <time>2013-03-03T13:18:20.000Z</time>
      </trkpt>
      <trkpt lat="48.83065" lon="2.30616">
        <ele>93</ele>
        <time>2013-03-03T13:18:21.000Z</time>
      </trkpt>
      <trkpt lat="48.83067" lon="2.30619">
        <ele>92.6</ele>
        <time>2013-03-03T13:18:22.000Z</time>
      </trkpt>
      <trkpt lat="48.83069" lon="2.30622">
        <ele>92.2</ele>
        <time>2013-03-03T13:18:23.000Z</time>
      </trkpt>
      <trkpt lat="48.83072" lon="2.30625">
        <ele>93.9</ele>
        <time>2013-03-03T13:18:24.000Z</time>
      </trkpt>
      <trkpt lat="48.83074" lon="2.30628">
        <ele>94.8</ele>
        <time>2013-03-03T13:18:25.000Z</time>
      </trkpt>
      <trkpt lat="48.83077" lon="2.3063">
        <ele>94.8</ele>
        <time>2013-03-03T13:18:26.000Z</time>
      </trkpt>
      <trkpt lat="48.8308" lon="2.30633">
        <ele>95.1</ele>
        <time>2013-03-03T13:18:27.000Z</time>
      </trkpt>
      <trkpt lat="48.83083" lon="2.30635">
        <ele>95.1</ele>
        <time>2013-03-03T13:18:28.000Z</time>
      </trkpt>
      <trkpt lat="48.83086" lon="2.30637">
        <ele>94.7</ele>
        <time>2013-03-03T13:18:29.000Z</time>
      </trkpt>
      <trkpt lat="48.83089" lon="2.3064">
        <ele>95.3</ele>
        <time>2013-03-03T13:18:30.000Z</time>
      </trkpt>
      <trkpt lat="48.83092" lon="2.30642">
        <ele>95.5</ele>
        <time>2013-03-03T13:18:31.000Z</time>
      </trkpt>
      <trkpt lat="48.83094" lon="2.30645">
        <ele>95.5</ele>
        <time>2013-03-03T13:18:32.000Z</time>
      </trkpt>
      <trkpt lat="48.83097" lon="2.30647">
        <ele>94.8</ele>
        <time>2013-03-03T13:18:33.000Z</time>
      </trkpt>
      <trkpt lat="48.831" lon="2.30649">
        <ele>94.6</ele>
        <time>2013-03-03T13:18:34.000Z</time>
      </trkpt>
      <trkpt lat="48.83103" lon="2.30651">
        <ele>94.4</ele>
        <time>2013-03-03T13:18:35.000Z</time>
      </trkpt>
      <trkpt lat="48.83105" lon="2.30654">
        <ele>94.1</ele>
        <time>2013-03-03T13:18:36.000Z</time>
      </trkpt>
      <trkpt lat="48.83107" lon="2.30656">
        <ele>94.2</ele>
        <time>2013-03-03T13:18:37.000Z</time>
      </trkpt>
      <trkpt lat="48.8311" lon="2.30658">
        <ele>92.5</ele>
        <time>2013-03-03T13:18:38.000Z</time>
      </trkpt>
      <trkpt lat="48.83114" lon="2.30659">
        <ele>92.6</ele>
        <time>2013-03-03T13:18:40.000Z</time>
      </trkpt>
      <trkpt lat="48.83116" lon="2.30659">
        <ele>93.2</ele>
        <time>2013-03-03T13:18:41.000Z</time>
      </trkpt>
      <trkpt lat="48.83119" lon="2.3066">
        <ele>92.2</ele>
        <time>2013-03-03T13:18:42.000Z</time>
      </trkpt>
      <trkpt lat="48.83121" lon="2.30661">
        <ele>91.1</ele>
        <time>2013-03-03T13:18:43.000Z</time>
      </trkpt>
      <trkpt lat="48.83123" lon="2.30662">
        <ele>91.9</ele>
        <time>2013-03-03T13:18:44.000Z</time>
      </trkpt>
      <trkpt lat="48.83125" lon="2.30662">
        <ele>93.3</ele>
        <time>2013-03-03T13:18:45.000Z</time>
      </trkpt>
      <trkpt lat="48.83128" lon="2.30666">
        <ele>92.4</ele>
        <time>2013-03-03T13:18:49.000Z</time>
      </trkpt>
      <trkpt lat="48.83129" lon="2.30668">
        <ele>92.9</ele>
        <time>2013-03-03T13:18:50.000Z</time>
      </trkpt>
      <trkpt lat="48.83132" lon="2.30671">
        <ele>96.4</ele>
        <time>2013-03-03T13:18:59.000Z</time>
      </trkpt>
      <trkpt lat="48.83133" lon="2.30672">
        <ele>96.8</ele>
        <time>2013-03-03T13:19:00.000Z</time>
      </trkpt>
      <trkpt lat="48.83135" lon="2.30677">
        <ele>96.4</ele>
        <time>2013-03-03T13:19:06.000Z</time>
      </trkpt>
      <trkpt lat="48.83136" lon="2.30678">
        <ele>96.8</ele>
        <time>2013-03-03T13:19:07.000Z</time>
      </trkpt>
      <trkpt lat="48.8314" lon="2.30679">
        <ele>97.1</ele>
        <time>2013-03-03T13:19:20.000Z</time>
      </trkpt>
      <trkpt lat="48.83141" lon="2.30679">
        <ele>96.9</ele>
        <time>2013-03-03T13:19:21.000Z</time>
      </trkpt>
      <trkpt lat="48.83144" lon="2.30676">
        <ele>101.9</ele>
        <time>2013-03-03T13:20:03.000Z</time>
      </trkpt>
      <trkpt lat="48.83145" lon="2.30674">
        <ele>101.8</ele>
        <time>2013-03-03T13:20:04.000Z</time>
      </trkpt>
      <trkpt lat="48.83146" lon="2.30671">
        <ele>101.6</ele>
        <time>2013-03-03T13:20:05.000Z</time>
      </trkpt>
      <trkpt lat="48.83147" lon="2.30668">
        <ele>101.4</ele>
        <time>2013-03-03T13:20:06.000Z</time>
      </trkpt>
      <trkpt lat="48.83149" lon="2.30664">
        <ele>101.1</ele>
        <time>2013-03-03T13:20:07.000Z</time>
      </trkpt>
      <trkpt lat="48.83151" lon="2.30661">
        <ele>101.6</ele>
        <time>2013-03-03T13:20:08.000Z</time>
      </trkpt>
      <trkpt lat="48.83153" lon="2.30657">
        <ele>101.3</ele>
        <time>2013-03-03T13:20:09.000Z</time>
      </trkpt>
      <trkpt lat="48.83154" lon="2.30653">
        <ele>101.2</ele>
        <time>2013-03-03T13:20:10.000Z</time>
      </trkpt>
      <trkpt lat="48.83156" lon="2.3065">
        <ele>100.9</ele>
        <time>2013-03-03T13:20:11.000Z</time>
      </trkpt>
      <trkpt lat="48.83159" lon="2.30646">
        <ele>100.2</ele>
        <time>2013-03-03T13:20:12.000Z</time>
      </trkpt>
      <trkpt lat="48.83161" lon="2.30642">
        <ele>101.9</ele>
        <time>2013-03-03T13:20:13.000Z</time>
      </trkpt>
      <trkpt lat="48.83163" lon="2.30638">
        <ele>101.6</ele>
        <time>2013-03-03T13:20:14.000Z</time>
      </trkpt>
      <trkpt lat="48.83164" lon="2.30634">
        <ele>102.3</ele>
        <time>2013-03-03T13:20:15.000Z</time>
      </trkpt>
      <trkpt lat="48.83166" lon="2.30629">
        <ele>102.5</ele>
        <time>2013-03-03T13:20:16.000Z</time>
      </trkpt>
      <trkpt lat="48.83168" lon="2.30625">
        <ele>101.8</ele>
        <time>2013-03-03T13:20:17.000Z</time>
      </trkpt>
      <trkpt lat="48.83169" lon="2.30621">
        <ele>101.1</ele>
        <time>2013-03-03T13:20:18.000Z</time>
      </trkpt>
      <trkpt lat="48.83169" lon="2.30617">
        <ele>100.7</ele>
        <time>2013-03-03T13:20:19.000Z</time>
      </trkpt>
      <trkpt lat="48.83169" lon="2.30614">
        <ele>100.7</ele>
        <time>2013-03-03T13:20:20.000Z</time>
      </trkpt>
      <trkpt lat="48.83165" lon="2.30612">
        <ele>99.5</ele>
        <time>2013-03-03T13:20:23.000Z</time>
      </trkpt>
      <trkpt lat="48.83164" lon="2.30611">
        <ele>99.8</ele>
        <time>2013-03-03T13:20:24.000Z</time>
      </trkpt>
      <trkpt lat="48.8316" lon="2.30608">
        <ele>101.1</ele>
        <time>2013-03-03T13:20:29.000Z</time>
      </trkpt>
      <trkpt lat="48.8316" lon="2.30608">
        <ele>101.5</ele>
        <time>2013-03-03T13:20:30.000Z</time>
      </trkpt>
      <trkpt lat="48.83159" lon="2.30602">
        <ele>100.7</ele>
        <time>2013-03-03T13:20:37.000Z</time>
      </trkpt>
      <trkpt lat="48.8316" lon="2.306">
        <ele>100</ele>
        <time>2013-03-03T13:20:38.000Z</time>
      </trkpt>
      <trkpt lat="48.83161" lon="2.30597">
        <ele>101.3</ele>
        <time>2013-03-03T13:20:39.000Z</time>
      </trkpt>
      <trkpt lat="48.83163" lon="2.30593">
        <ele>101.1</ele>
        <time>2013-03-03T13:20:40.000Z</time>
      </trkpt>
      <trkpt lat="48.83164" lon="2.3059">
        <ele>101</ele>
        <time>2013-03-03T13:20:41.000Z</time>
      </trkpt>
      <trkpt lat="48.83166" lon="2.30586">
        <ele>101.7</ele>
        <time>2013-03-03T13:20:42.000Z</time>
      </trkpt>
      <trkpt lat="48.83168" lon="2.30583">
        <ele>102</ele>
        <time>2013-03-03T13:20:43.000Z</time>
      </trkpt>
      <trkpt lat="48.83171" lon="2.30578">
        <ele>103.2</ele>
        <time>2013-03-03T13:20:44.000Z</time>
      </trkpt>
      <trkpt lat="48.83173" lon="2.30574">
        <ele>104</ele>
        <time>2013-03-03T13:20:45.000Z</time>
      </trkpt>
      <trkpt lat="48.83176" lon="2.3057">
        <ele>102.7</ele>
        <time>2013-03-03T13:20:46.000Z</time>
      </trkpt>
      <trkpt lat="48.83179" lon="2.30566">
        <ele>103.2</ele>
        <time>2013-03-03T13:20:47.000Z</time>
      </trkpt>
      <trkpt lat="48.8318" lon="2.30561">
        <ele>103.9</ele>
        <time>2013-03-03T13:20:48.000Z</time>
      </trkpt>
      <trkpt lat="48.83182" lon="2.30557">
        <ele>104.1</ele>
        <time>2013-03-03T13:20:49.000Z</time>
      </trkpt>
      <trkpt lat="48.83183" lon="2.30553">
        <ele>104.2</ele>
        <time>2013-03-03T13:20:50.000Z</time>
      </trkpt>
      <trkpt lat="48.83184" lon="2.3055">
        <ele>104.6</ele>
        <time>2013-03-03T13:20:51.000Z</time>
      </trkpt>
      <trkpt lat="48.83185" lon="2.30545">
        <ele>105</ele>
        <time>2013-03-03T13:20:52.000Z</time>
      </trkpt>
      <trkpt lat="48.83186" lon="2.30541">
        <ele>106.1</ele>
        <time>2013-03-03T13:20:53.000Z</time>
      </trkpt>
      <trkpt lat="48.83186" lon="2.30536">
        <ele>106.2</ele>
        <time>2013-03-03T13:20:54.000Z</time>
      </trkpt>
      <trkpt lat="48.83187" lon="2.30532">
        <ele>107.2</ele>
        <time>2013-03-03T13:20:55.000Z</time>
      </trkpt>
      <trkpt lat="48.83188" lon="2.30527">
        <ele>106.9</ele>
        <time>2013-03-03T13:20:56.000Z</time>
      </trkpt>
      <trkpt lat="48.83188" lon="2.30522">
        <ele>107</ele>
        <time>2013-03-03T13:20:57.000Z</time>
      </trkpt>
      <trkpt lat="48.83189" lon="2.30516">
        <ele>107</ele>
        <time>2013-03-03T13:20:58.000Z</time>
      </trkpt>
      <trkpt lat="48.8319" lon="2.30511">
        <ele>107.6</ele>
        <time>2013-03-03T13:20:59.000Z</time>
      </trkpt>
      <trkpt lat="48.83192" lon="2.30506">
        <ele>107.6</ele>
        <time>2013-03-03T13:21:00.000Z</time>
      </trkpt>
      <trkpt lat="48.83193" lon="2.305">
        <ele>107.3</ele>
        <time>2013-03-03T13:21:01.000Z</time>
      </trkpt>
      <trkpt lat="48.83193" lon="2.30495">
        <ele>106.9</ele>
        <time>2013-03-03T13:21:02.000Z</time>
      </trkpt>
      <trkpt lat="48.83194" lon="2.30489">
        <ele>106.5</ele>
        <time>2013-03-03T13:21:03.000Z</time>
      </trkpt>
      <trkpt lat="48.83195" lon="2.30483">
        <ele>103.8</ele>
        <time>2013-03-03T13:21:04.000Z</time>
      </trkpt>
      <trkpt lat="48.83196" lon="2.30478">
        <ele>102.2</ele>
        <time>2013-03-03T13:21:05.000Z</time>
      </trkpt>
      <trkpt lat="48.83197" lon="2.30473">
        <ele>101.1</ele>
        <time>2013-03-03T13:21:06.000Z</time>
      </trkpt>
      <trkpt lat="48.83198" lon="2.30468">
        <ele>100.1</ele>
        <time>2013-03-03T13:21:07.000Z</time>
      </trkpt>
      <trkpt lat="48.83199" lon="2.30462">
        <ele>99.5</ele>
        <time>2013-03-03T13:21:08.000Z</time>
      </trkpt>
      <trkpt lat="48.83199" lon="2.30457">
        <ele>99.5</ele>
        <time>2013-03-03T13:21:09.000Z</time>
      </trkpt>
      <trkpt lat="48.83199" lon="2.30451">
        <ele>99.9</ele>
        <time>2013-03-03T13:21:10.000Z</time>
      </trkpt>
      <trkpt lat="48.83198" lon="2.30445">
        <ele>100.5</ele>
        <time>2013-03-03T13:21:11.000Z</time>
      </trkpt>
      <trkpt lat="48.83199" lon="2.30439">
        <ele>99.5</ele>
        <time>2013-03-03T13:21:12.000Z</time>
      </trkpt>
      <trkpt lat="48.83199" lon="2.30434">
        <ele>98.6</ele>
        <time>2013-03-03T13:21:13.000Z</time>
      </trkpt>
      <trkpt lat="48.832" lon="2.30429">
        <ele>99.5</ele>
        <time>2013-03-03T13:21:14.000Z</time>
      </trkpt>
      <trkpt lat="48.83201" lon="2.30424">
        <ele>99.2</ele>
        <time>2013-03-03T13:21:15.000Z</time>
      </trkpt>
      <trkpt lat="48.83202" lon="2.30419">
        <ele>100</ele>
        <time>2013-03-03T13:21:16.000Z</time>
      </trkpt>
      <trkpt lat="48.83203" lon="2.30414">
        <ele>101.1</ele>
        <time>2013-03-03T13:21:17.000Z</time>
      </trkpt>
      <trkpt lat="48.83204" lon="2.30409">
        <ele>101.9</ele>
        <time>2013-03-03T13:21:18.000Z</time>
      </trkpt>
      <trkpt lat="48.83204" lon="2.30404">
        <ele>102.5</ele>
        <time>2013-03-03T13:21:19.000Z</time>
      </trkpt>
      <trkpt lat="48.83205" lon="2.30399">
        <ele>102.6</ele>
        <time>2013-03-03T13:21:20.000Z</time>
      </trkpt>
      <trkpt lat="48.83204" lon="2.30394">
        <ele>102.6</ele>
        <time>2013-03-03T13:21:21.000Z</time>
      </trkpt>
      <trkpt lat="48.83204" lon="2.30389">
        <ele>104.3</ele>
        <time>2013-03-03T13:21:22.000Z</time>
      </trkpt>
      <trkpt lat="48.83208" lon="2.30387">
        <ele>102.1</ele>
        <time>2013-03-03T13:21:25.000Z</time>
      </trkpt>
      <trkpt lat="48.83211" lon="2.30388">
        <ele>99.2</ele>
        <time>2013-03-03T13:21:26.000Z</time>
      </trkpt>
      <trkpt lat="48.83214" lon="2.3039">
        <ele>98.9</ele>
        <time>2013-03-03T13:21:27.000Z</time>
      </trkpt>
      <trkpt lat="48.83218" lon="2.30392">
        <ele>99.7</ele>
        <time>2013-03-03T13:21:28.000Z</time>
      </trkpt>
      <trkpt lat="48.83221" lon="2.30394">
        <ele>100</ele>
        <time>2013-03-03T13:21:29.000Z</time>
      </trkpt>
      <trkpt lat="48.83225" lon="2.30397">
        <ele>98.9</ele>
        <time>2013-03-03T13:21:30.000Z</time>
      </trkpt>
      <trkpt lat="48.83228" lon="2.30399">
        <ele>98.8</ele>
        <time>2013-03-03T13:21:31.000Z</time>
      </trkpt>
      <trkpt lat="48.83231" lon="2.304">
        <ele>98.6</ele>
        <time>2013-03-03T13:21:32.000Z</time>
      </trkpt>
      <trkpt lat="48.83235" lon="2.30402">
        <ele>98.2</ele>
        <time>2013-03-03T13:21:33.000Z</time>
      </trkpt>
      <trkpt lat="48.83238" lon="2.30405">
        <ele>97.2</ele>
        <time>2013-03-03T13:21:34.000Z</time>
      </trkpt>
      <trkpt lat="48.8324" lon="2.30408">
        <ele>95.6</ele>
        <time>2013-03-03T13:21:35.000Z</time>
      </trkpt>
      <trkpt lat="48.83242" lon="2.3041">
        <ele>94.6</ele>
        <time>2013-03-03T13:21:36.000Z</time>
      </trkpt>
      <trkpt lat="48.83244" lon="2.30412">
        <ele>94</ele>
        <time>2013-03-03T13:21:37.000Z</time>
      </trkpt>
      <trkpt lat="48.83247" lon="2.30414">
        <ele>93.3</ele>
        <time>2013-03-03T13:21:38.000Z</time>
      </trkpt>
      <trkpt lat="48.83249" lon="2.30416">
        <ele>92.8</ele>
        <time>2013-03-03T13:21:39.000Z</time>
      </trkpt>
      <trkpt lat="48.83251" lon="2.30418">
        <ele>93.5</ele>
        <time>2013-03-03T13:21:40.000Z</time>
      </trkpt>
      <trkpt lat="48.83254" lon="2.3042">
        <ele>93.3</ele>
        <time>2013-03-03T13:21:41.000Z</time>
      </trkpt>
      <trkpt lat="48.83256" lon="2.30423">
        <ele>94</ele>
        <time>2013-03-03T13:21:42.000Z</time>
      </trkpt>
      <trkpt lat="48.83258" lon="2.30425">
        <ele>94.2</ele>
        <time>2013-03-03T13:21:43.000Z</time>
      </trkpt>
      <trkpt lat="48.83261" lon="2.30429">
        <ele>95.3</ele>
        <time>2013-03-03T13:21:44.000Z</time>
      </trkpt>
      <trkpt lat="48.83263" lon="2.30432">
        <ele>93.3</ele>
        <time>2013-03-03T13:21:45.000Z</time>
      </trkpt>
      <trkpt lat="48.83265" lon="2.30436">
        <ele>92.8</ele>
        <time>2013-03-03T13:21:46.000Z</time>
      </trkpt>
      <trkpt lat="48.83267" lon="2.30439">
        <ele>92.5</ele>
        <time>2013-03-03T13:21:47.000Z</time>
      </trkpt>
      <trkpt lat="48.83269" lon="2.30441">
        <ele>92.3</ele>
        <time>2013-03-03T13:21:48.000Z</time>
      </trkpt>
      <trkpt lat="48.83268" lon="2.30434">
        <ele>96.4</ele>
        <time>2013-03-03T13:22:08.000Z</time>
      </trkpt>
      <trkpt lat="48.83268" lon="2.30434">
        <ele>96.4</ele>
        <time>2013-03-03T13:22:09.000Z</time>
      </trkpt>
      <trkpt lat="48.83272" lon="2.30435">
        <ele>96.4</ele>
        <time>2013-03-03T13:22:12.000Z</time>
      </trkpt>
      <trkpt lat="48.83273" lon="2.30435">
        <ele>96.6</ele>
        <time>2013-03-03T13:22:13.000Z</time>
      </trkpt>
      <trkpt lat="48.83276" lon="2.30437">
        <ele>95.2</ele>
        <time>2013-03-03T13:22:15.000Z</time>
      </trkpt>
      <trkpt lat="48.83278" lon="2.30438">
        <ele>93.3</ele>
        <time>2013-03-03T13:22:16.000Z</time>
      </trkpt>
      <trkpt lat="48.83282" lon="2.30441">
        <ele>94</ele>
        <time>2013-03-03T13:22:18.000Z</time>
      </trkpt>
      <trkpt lat="48.83285" lon="2.30442">
        <ele>95.6</ele>
        <time>2013-03-03T13:22:19.000Z</time>
      </trkpt>
      <trkpt lat="48.83288" lon="2.30443">
        <ele>97.7</ele>
        <time>2013-03-03T13:22:20.000Z</time>
      </trkpt>
      <trkpt lat="48.8329" lon="2.30444">
        <ele>97.5</ele>
        <time>2013-03-03T13:22:21.000Z</time>
      </trkpt>
      <trkpt lat="48.83292" lon="2.30444">
        <ele>99.2</ele>
        <time>2013-03-03T13:22:23.000Z</time>
      </trkpt>
      <trkpt lat="48.83294" lon="2.30443">
        <ele>99.1</ele>
        <time>2013-03-03T13:22:24.000Z</time>
      </trkpt>
      <trkpt lat="48.83298" lon="2.3044">
        <ele>98.9</ele>
        <time>2013-03-03T13:22:26.000Z</time>
      </trkpt>
      <trkpt lat="48.833" lon="2.30439">
        <ele>99.5</ele>
        <time>2013-03-03T13:22:27.000Z</time>
      </trkpt>
      <trkpt lat="48.83304" lon="2.30436">
        <ele>99.2</ele>
        <time>2013-03-03T13:22:31.000Z</time>
      </trkpt>
      <trkpt lat="48.83304" lon="2.30436">
        <ele>100</ele>
        <time>2013-03-03T13:22:32.000Z</time>
      </trkpt>
      <trkpt lat="48.83303" lon="2.30441">
        <ele>106.3</ele>
        <time>2013-03-03T13:23:30.000Z</time>
      </trkpt>
      <trkpt lat="48.83301" lon="2.30443">
        <ele>107.6</ele>
        <time>2013-03-03T13:23:31.000Z</time>
      </trkpt>
      <trkpt lat="48.833" lon="2.30449">
        <ele>98.8</ele>
        <time>2013-03-03T13:23:35.000Z</time>
      </trkpt>
      <trkpt lat="48.83301" lon="2.3045">
        <ele>100.3</ele>
        <time>2013-03-03T13:23:36.000Z</time>
      </trkpt>
      <trkpt lat="48.833" lon="2.30456">
        <ele>102.4</ele>
        <time>2013-03-03T13:23:49.000Z</time>
      </trkpt>
      <trkpt lat="48.833" lon="2.30458">
        <ele>101.4</ele>
        <time>2013-03-03T13:23:50.000Z</time>
      </trkpt>
      <trkpt lat="48.83299" lon="2.30464">
        <ele>101.1</ele>
        <time>2013-03-03T13:23:52.000Z</time>
      </trkpt>
      <trkpt lat="48.83298" lon="2.30466">
        <ele>101.3</ele>
        <time>2013-03-03T13:23:53.000Z</time>
      </trkpt>
      <trkpt lat="48.83298" lon="2.30472">
        <ele>100.7</ele>
        <time>2013-03-03T13:23:55.000Z</time>
      </trkpt>
      <trkpt lat="48.83297" lon="2.30475">
        <ele>101</ele>
        <time>2013-03-03T13:23:56.000Z</time>
      </trkpt>
      <trkpt lat="48.83297" lon="2.30478">
        <ele>101.2</ele>
        <time>2013-03-03T13:23:57.000Z</time>
      </trkpt>
      <trkpt lat="48.83297" lon="2.30482">
        <ele>102</ele>
        <time>2013-03-03T13:23:58.000Z</time>
      </trkpt>
      <trkpt lat="48.83297" lon="2.30485">
        <ele>102.2</ele>
        <time>2013-03-03T13:23:59.000Z</time>
      </trkpt>
      <trkpt lat="48.83298" lon="2.30489">
        <ele>102.9</ele>
        <time>2013-03-03T13:24:00.000Z</time>
      </trkpt>
      <trkpt lat="48.833" lon="2.30491">
        <ele>103.1</ele>
        <time>2013-03-03T13:24:01.000Z</time>
      </trkpt>
      <trkpt lat="48.83302" lon="2.30493">
        <ele>102.4</ele>
        <time>2013-03-03T13:24:02.000Z</time>
      </trkpt>
      <trkpt lat="48.83304" lon="2.30494">
        <ele>101.5</ele>
        <time>2013-03-03T13:24:03.000Z</time>
      </trkpt>
      <trkpt lat="48.83306" lon="2.30496">
        <ele>101.3</ele>
        <time>2013-03-03T13:24:04.000Z</time>
      </trkpt>
      <trkpt lat="48.83309" lon="2.30497">
        <ele>99.9</ele>
        <time>2013-03-03T13:24:05.000Z</time>
      </trkpt>
      <trkpt lat="48.83311" lon="2.30498">
        <ele>99.5</ele>
        <time>2013-03-03T13:24:06.000Z</time>
      </trkpt>
      <trkpt lat="48.83313" lon="2.305">
        <ele>99.5</ele>
        <time>2013-03-03T13:24:07.000Z</time>
      </trkpt>
      <trkpt lat="48.83316" lon="2.30501">
        <ele>100.7</ele>
        <time>2013-03-03T13:24:08.000Z</time>
      </trkpt>
      <trkpt lat="48.83318" lon="2.30502">
        <ele>100.3</ele>
        <time>2013-03-03T13:24:09.000Z</time>
      </trkpt>
      <trkpt lat="48.83321" lon="2.30503">
        <ele>100.4</ele>
        <time>2013-03-03T13:24:10.000Z</time>
      </trkpt>
      <trkpt lat="48.83323" lon="2.30504">
        <ele>100.2</ele>
        <time>2013-03-03T13:24:11.000Z</time>
      </trkpt>
      <trkpt lat="48.83325" lon="2.30505">
        <ele>100.4</ele>
        <time>2013-03-03T13:24:12.000Z</time>
      </trkpt>
      <trkpt lat="48.83327" lon="2.30506">
        <ele>99.7</ele>
        <time>2013-03-03T13:24:13.000Z</time>
      </trkpt>
      <trkpt lat="48.8333" lon="2.30508">
        <ele>99.7</ele>
        <time>2013-03-03T13:24:14.000Z</time>
      </trkpt>
      <trkpt lat="48.83332" lon="2.30509">
        <ele>99.9</ele>
        <time>2013-03-03T13:24:15.000Z</time>
      </trkpt>
      <trkpt lat="48.83334" lon="2.30511">
        <ele>98.2</ele>
        <time>2013-03-03T13:24:16.000Z</time>
      </trkpt>
      <trkpt lat="48.83337" lon="2.30513">
        <ele>97.7</ele>
        <time>2013-03-03T13:24:17.000Z</time>
      </trkpt>
      <trkpt lat="48.8334" lon="2.30515">
        <ele>97.6</ele>
        <time>2013-03-03T13:24:18.000Z</time>
      </trkpt>
      <trkpt lat="48.83343" lon="2.30517">
        <ele>96.8</ele>
        <time>2013-03-03T13:24:19.000Z</time>
      </trkpt>
      <trkpt lat="48.83346" lon="2.30519">
        <ele>96.6</ele>
        <time>2013-03-03T13:24:20.000Z</time>
      </trkpt>
      <trkpt lat="48.83349" lon="2.30521">
        <ele>97.6</ele>
        <time>2013-03-03T13:24:21.000Z</time>
      </trkpt>
      <trkpt lat="48.83352" lon="2.30523">
        <ele>98.1</ele>
        <time>2013-03-03T13:24:22.000Z</time>
      </trkpt>
      <trkpt lat="48.83355" lon="2.30524">
        <ele>97.9</ele>
        <time>2013-03-03T13:24:23.000Z</time>
      </trkpt>
      <trkpt lat="48.83357" lon="2.30526">
        <ele>96.8</ele>
        <time>2013-03-03T13:24:24.000Z</time>
      </trkpt>
      <trkpt lat="48.8336" lon="2.30527">
        <ele>96.2</ele>
        <time>2013-03-03T13:24:25.000Z</time>
      </trkpt>
      <trkpt lat="48.83362" lon="2.30528">
        <ele>95.4</ele>
        <time>2013-03-03T13:24:26.000Z</time>
      </trkpt>
      <trkpt lat="48.83364" lon="2.30529">
        <ele>95.1</ele>
        <time>2013-03-03T13:24:27.000Z</time>
      </trkpt>
      <trkpt lat="48.83367" lon="2.3053">
        <ele>97.1</ele>
        <time>2013-03-03T13:24:28.000Z</time>
      </trkpt>
      <trkpt lat="48.8337" lon="2.30532">
        <ele>97.3</ele>
        <time>2013-03-03T13:24:29.000Z</time>
      </trkpt>
      <trkpt lat="48.83373" lon="2.30534">
        <ele>96.8</ele>
        <time>2013-03-03T13:24:30.000Z</time>
      </trkpt>
      <trkpt lat="48.83376" lon="2.30536">
        <ele>98.2</ele>
        <time>2013-03-03T13:24:31.000Z</time>
      </trkpt>
      <trkpt lat="48.8338" lon="2.30538">
        <ele>98.4</ele>
        <time>2013-03-03T13:24:32.000Z</time>
      </trkpt>
      <trkpt lat="48.83383" lon="2.3054">
        <ele>97.2</ele>
        <time>2013-03-03T13:24:33.000Z</time>
      </trkpt>
      <trkpt lat="48.83385" lon="2.30541">
        <ele>97</ele>
        <time>2013-03-03T13:24:34.000Z</time>
      </trkpt>
      <trkpt lat="48.83388" lon="2.30543">
        <ele>98</ele>
        <time>2013-03-03T13:24:35.000Z</time>
      </trkpt>
      <trkpt lat="48.83391" lon="2.30544">
        <ele>98</ele>
        <time>2013-03-03T13:24:36.000Z</time>
      </trkpt>
      <trkpt lat="48.83394" lon="2.30545">
        <ele>99.5</ele>
        <time>2013-03-03T13:24:37.000Z</time>
      </trkpt>
      <trkpt lat="48.83397" lon="2.30547">
        <ele>99.7</ele>
        <time>2013-03-03T13:24:38.000Z</time>
      </trkpt>
      <trkpt lat="48.834" lon="2.30548">
        <ele>99.8</ele>
        <time>2013-03-03T13:24:39.000Z</time>
      </trkpt>
      <trkpt lat="48.83403" lon="2.30549">
        <ele>100.3</ele>
        <time>2013-03-03T13:24:40.000Z</time>
      </trkpt>
      <trkpt lat="48.83406" lon="2.30551">
        <ele>100.1</ele>
        <time>2013-03-03T13:24:41.000Z</time>
      </trkpt>
      <trkpt lat="48.83409" lon="2.30552">
        <ele>100.2</ele>
        <time>2013-03-03T13:24:42.000Z</time>
      </trkpt>
      <trkpt lat="48.83412" lon="2.30554">
        <ele>100</ele>
        <time>2013-03-03T13:24:43.000Z</time>
      </trkpt>
      <trkpt lat="48.83416" lon="2.30556">
        <ele>99.5</ele>
        <time>2013-03-03T13:24:44.000Z</time>
      </trkpt>
      <trkpt lat="48.83419" lon="2.30558">
        <ele>99.3</ele>
        <time>2013-03-03T13:24:45.000Z</time>
      </trkpt>
      <trkpt lat="48.83422" lon="2.3056">
        <ele>99.2</ele>
        <time>2013-03-03T13:24:46.000Z</time>
      </trkpt>
      <trkpt lat="48.83426" lon="2.30562">
        <ele>98.8</ele>
        <time>2013-03-03T13:24:47.000Z</time>
      </trkpt>
      <trkpt lat="48.83429" lon="2.30563">
        <ele>99.3</ele>
        <time>2013-03-03T13:24:48.000Z</time>
      </trkpt>
      <trkpt lat="48.83433" lon="2.30565">
        <ele>98.3</ele>
        <time>2013-03-03T13:24:49.000Z</time>
      </trkpt>
      <trkpt lat="48.83436" lon="2.30567">
        <ele>96.5</ele>
        <time>2013-03-03T13:24:50.000Z</time>
      </trkpt>
      <trkpt lat="48.83438" lon="2.3057">
        <ele>96.7</ele>
        <time>2013-03-03T13:24:51.000Z</time>
      </trkpt>
      <trkpt lat="48.8344" lon="2.30573">
        <ele>97.1</ele>
        <time>2013-03-03T13:24:52.000Z</time>
      </trkpt>
      <trkpt lat="48.83441" lon="2.30577">
        <ele>97.6</ele>
        <time>2013-03-03T13:24:53.000Z</time>
      </trkpt>
      <trkpt lat="48.83442" lon="2.30581">
        <ele>95.1</ele>
        <time>2013-03-03T13:24:54.000Z</time>
      </trkpt>
      <trkpt lat="48.83442" lon="2.30585">
        <ele>93.6</ele>
        <time>2013-03-03T13:24:55.000Z</time>
      </trkpt>
      <trkpt lat="48.83441" lon="2.30589">
        <ele>93.1</ele>
        <time>2013-03-03T13:24:56.000Z</time>
      </trkpt>
      <trkpt lat="48.83439" lon="2.30592">
        <ele>93</ele>
        <time>2013-03-03T13:24:57.000Z</time>
      </trkpt>
      <trkpt lat="48.83438" lon="2.30595">
        <ele>93.1</ele>
        <time>2013-03-03T13:24:58.000Z</time>
      </trkpt>
      <trkpt lat="48.83437" lon="2.30599">
        <ele>93.9</ele>
        <time>2013-03-03T13:24:59.000Z</time>
      </trkpt>
      <trkpt lat="48.83435" lon="2.30602">
        <ele>94.8</ele>
        <time>2013-03-03T13:25:00.000Z</time>
      </trkpt>
      <trkpt lat="48.83434" lon="2.30606">
        <ele>96.3</ele>
        <time>2013-03-03T13:25:01.000Z</time>
      </trkpt>
      <trkpt lat="48.83433" lon="2.30611">
        <ele>97.3</ele>
        <time>2013-03-03T13:25:02.000Z</time>
      </trkpt>
      <trkpt lat="48.83431" lon="2.30616">
        <ele>97.7</ele>
        <time>2013-03-03T13:25:03.000Z</time>
      </trkpt>
      <trkpt lat="48.8343" lon="2.3062">
        <ele>98.2</ele>
        <time>2013-03-03T13:25:04.000Z</time>
      </trkpt>
      <trkpt lat="48.83428" lon="2.30624">
        <ele>99.3</ele>
        <time>2013-03-03T13:25:05.000Z</time>
      </trkpt>
      <trkpt lat="48.83428" lon="2.30628">
        <ele>99.9</ele>
        <time>2013-03-03T13:25:06.000Z</time>
      </trkpt>
      <trkpt lat="48.83427" lon="2.30634">
        <ele>102.2</ele>
        <time>2013-03-03T13:25:09.000Z</time>
      </trkpt>
      <trkpt lat="48.83427" lon="2.30636">
        <ele>101.7</ele>
        <time>2013-03-03T13:25:10.000Z</time>
      </trkpt>
      <trkpt lat="48.83428" lon="2.30641">
        <ele>101.1</ele>
        <time>2013-03-03T13:25:12.000Z</time>
      </trkpt>
      <trkpt lat="48.83427" lon="2.30644">
        <ele>100.8</ele>
        <time>2013-03-03T13:25:13.000Z</time>
      </trkpt>
      <trkpt lat="48.83426" lon="2.30648">
        <ele>100</ele>
        <time>2013-03-03T13:25:14.000Z</time>
      </trkpt>
      <trkpt lat="48.83425" lon="2.30652">
        <ele>99.7</ele>
        <time>2013-03-03T13:25:15.000Z</time>
      </trkpt>
      <trkpt lat="48.83424" lon="2.30656">
        <ele>99.8</ele>
        <time>2013-03-03T13:25:16.000Z</time>
      </trkpt>
      <trkpt lat="48.83422" lon="2.30661">
        <ele>99.9</ele>
        <time>2013-03-03T13:25:17.000Z</time>
      </trkpt>
      <trkpt lat="48.8342" lon="2.30666">
        <ele>99.7</ele>
        <time>2013-03-03T13:25:18.000Z</time>
      </trkpt>
      <trkpt lat="48.83418" lon="2.30672">
        <ele>100.6</ele>
        <time>2013-03-03T13:25:19.000Z</time>
      </trkpt>
      <trkpt lat="48.83416" lon="2.30677">
        <ele>101.1</ele>
        <time>2013-03-03T13:25:20.000Z</time>
      </trkpt>
      <trkpt lat="48.83413" lon="2.30682">
        <ele>101.2</ele>
        <time>2013-03-03T13:25:21.000Z</time>
      </trkpt>
      <trkpt lat="48.83411" lon="2.30687">
        <ele>101.1</ele>
        <time>2013-03-03T13:25:22.000Z</time>
      </trkpt>
      <trkpt lat="48.83409" lon="2.30691">
        <ele>101.7</ele>
        <time>2013-03-03T13:25:23.000Z</time>
      </trkpt>
      <trkpt lat="48.83408" lon="2.30696">
        <ele>102.1</ele>
        <time>2013-03-03T13:25:24.000Z</time>
      </trkpt>
      <trkpt lat="48.83407" lon="2.30701">
        <ele>102.1</ele>
        <time>2013-03-03T13:25:25.000Z</time>
      </trkpt>
      <trkpt lat="48.83405" lon="2.30705">
        <ele>102.2</ele>
        <time>2013-03-03T13:25:26.000Z</time>
      </trkpt>
      <trkpt lat="48.83404" lon="2.30708">
        <ele>102</ele>
        <time>2013-03-03T13:25:27.000Z</time>
      </trkpt>
      <trkpt lat="48.83404" lon="2.30712">
        <ele>102.3</ele>
        <time>2013-03-03T13:25:28.000Z</time>
      </trkpt>
      <trkpt lat="48.83403" lon="2.30716">
        <ele>102</ele>
        <time>2013-03-03T13:25:29.000Z</time>
      </trkpt>
      <trkpt lat="48.83402" lon="2.30721">
        <ele>102.5</ele>
        <time>2013-03-03T13:25:30.000Z</time>
      </trkpt>
      <trkpt lat="48.83402" lon="2.30725">
        <ele>102.4</ele>
        <time>2013-03-03T13:25:31.000Z</time>
      </trkpt>
      <trkpt lat="48.83401" lon="2.3073">
        <ele>102.4</ele>
        <time>2013-03-03T13:25:32.000Z</time>
      </trkpt>
      <trkpt lat="48.834" lon="2.30734">
        <ele>102.3</ele>
        <time>2013-03-03T13:25:33.000Z</time>
      </trkpt>
      <trkpt lat="48.83399" lon="2.30738">
        <ele>102.5</ele>
        <time>2013-03-03T13:25:34.000Z</time>
      </trkpt>
      <trkpt lat="48.83399" lon="2.30742">
        <ele>103</ele>
        <time>2013-03-03T13:25:35.000Z</time>
      </trkpt>
      <trkpt lat="48.83398" lon="2.30746">
        <ele>102.7</ele>
        <time>2013-03-03T13:25:36.000Z</time>
      </trkpt>
      <trkpt lat="48.83398" lon="2.3075">
        <ele>102.8</ele>
        <time>2013-03-03T13:25:37.000Z</time>
      </trkpt>
      <trkpt lat="48.83398" lon="2.30754">
        <ele>103.1</ele>
        <time>2013-03-03T13:25:38.000Z</time>
      </trkpt>
      <trkpt lat="48.83397" lon="2.30757">
        <ele>103.5</ele>
        <time>2013-03-03T13:25:39.000Z</time>
      </trkpt>
      <trkpt lat="48.83396" lon="2.30763">
        <ele>106.9</ele>
        <time>2013-03-03T13:25:41.000Z</time>
      </trkpt>
      <trkpt lat="48.83396" lon="2.30766">
        <ele>106.9</ele>
        <time>2013-03-03T13:25:42.000Z</time>
      </trkpt>
      <trkpt lat="48.83395" lon="2.3077">
        <ele>106.4</ele>
        <time>2013-03-03T13:25:43.000Z</time>
      </trkpt>
      <trkpt lat="48.83395" lon="2.30773">
        <ele>106.4</ele>
        <time>2013-03-03T13:25:44.000Z</time>
      </trkpt>
      <trkpt lat="48.83395" lon="2.30777">
        <ele>108.3</ele>
        <time>2013-03-03T13:25:45.000Z</time>
      </trkpt>
      <trkpt lat="48.83395" lon="2.3078">
        <ele>108.8</ele>
        <time>2013-03-03T13:25:46.000Z</time>
      </trkpt>
      <trkpt lat="48.83394" lon="2.30786">
        <ele>107.4</ele>
        <time>2013-03-03T13:25:48.000Z</time>
      </trkpt>
      <trkpt lat="48.83394" lon="2.30789">
        <ele>108.1</ele>
        <time>2013-03-03T13:25:49.000Z</time>
      </trkpt>
      <trkpt lat="48.83392" lon="2.30794">
        <ele>107.4</ele>
        <time>2013-03-03T13:25:51.000Z</time>
      </trkpt>
      <trkpt lat="48.83392" lon="2.30797">
        <ele>108</ele>
        <time>2013-03-03T13:25:52.000Z</time>
      </trkpt>
      <trkpt lat="48.83391" lon="2.30802">
        <ele>106.4</ele>
        <time>2013-03-03T13:25:54.000Z</time>
      </trkpt>
      <trkpt lat="48.8339" lon="2.30805">
        <ele>106.9</ele>
        <time>2013-03-03T13:25:55.000Z</time>
      </trkpt>
      <trkpt lat="48.83389" lon="2.30811">
        <ele>106.5</ele>
        <time>2013-03-03T13:25:57.000Z</time>
      </trkpt>
      <trkpt lat="48.83388" lon="2.30814">
        <ele>106.6</ele>
        <time>2013-03-03T13:25:58.000Z</time>
      </trkpt>
      <trkpt lat="48.83386" lon="2.3082">
        <ele>106.7</ele>
        <time>2013-03-03T13:26:00.000Z</time>
      </trkpt>
      <trkpt lat="48.83385" lon="2.30824">
        <ele>106.9</ele>
        <time>2013-03-03T13:26:01.000Z</time>
      </trkpt>
      <trkpt lat="48.83384" lon="2.30827">
        <ele>106.9</ele>
        <time>2013-03-03T13:26:02.000Z</time>
      </trkpt>
      <trkpt lat="48.83383" lon="2.30831">
        <ele>105.7</ele>
        <time>2013-03-03T13:26:03.000Z</time>
      </trkpt>
      <trkpt lat="48.83381" lon="2.30835">
        <ele>105.3</ele>
        <time>2013-03-03T13:26:04.000Z</time>
      </trkpt>
      <trkpt lat="48.8338" lon="2.30839">
        <ele>104.2</ele>
        <time>2013-03-03T13:26:05.000Z</time>
      </trkpt>
      <trkpt lat="48.83379" lon="2.30843">
        <ele>104.3</ele>
        <time>2013-03-03T13:26:06.000Z</time>
      </trkpt>
      <trkpt lat="48.83378" lon="2.30847">
        <ele>101.9</ele>
        <time>2013-03-03T13:26:07.000Z</time>
      </trkpt>
      <trkpt lat="48.83376" lon="2.30852">
        <ele>100.9</ele>
        <time>2013-03-03T13:26:08.000Z</time>
      </trkpt>
      <trkpt lat="48.83374" lon="2.30856">
        <ele>100.4</ele>
        <time>2013-03-03T13:26:09.000Z</time>
      </trkpt>
      <trkpt lat="48.83372" lon="2.3086">
        <ele>98.1</ele>
        <time>2013-03-03T13:26:10.000Z</time>
      </trkpt>
      <trkpt lat="48.8337" lon="2.30863">
        <ele>96.6</ele>
        <time>2013-03-03T13:26:11.000Z</time>
      </trkpt>
      <trkpt lat="48.83367" lon="2.30867">
        <ele>94.9</ele>
        <time>2013-03-03T13:26:12.000Z</time>
      </trkpt>
      <trkpt lat="48.83365" lon="2.3087">
        <ele>94</ele>
        <time>2013-03-03T13:26:13.000Z</time>
      </trkpt>
      <trkpt lat="48.83363" lon="2.30873">
        <ele>92.7</ele>
        <time>2013-03-03T13:26:14.000Z</time>
      </trkpt>
      <trkpt lat="48.83362" lon="2.30876">
        <ele>92.4</ele>
        <time>2013-03-03T13:26:15.000Z</time>
      </trkpt>
      <trkpt lat="48.83361" lon="2.30879">
        <ele>103</ele>
        <time>2013-03-03T13:26:16.000Z</time>
      </trkpt>
      <trkpt lat="48.8336" lon="2.30882">
        <ele>100.3</ele>
        <time>2013-03-03T13:26:17.000Z</time>
      </trkpt>
      <trkpt lat="48.8336" lon="2.30886">
        <ele>99.7</ele>
        <time>2013-03-03T13:26:18.000Z</time>
      </trkpt>
      <trkpt lat="48.83359" lon="2.30889">
        <ele>97.1</ele>
        <time>2013-03-03T13:26:19.000Z</time>
      </trkpt>
      <trkpt lat="48.83359" lon="2.30894">
        <ele>96.9</ele>
        <time>2013-03-03T13:26:21.000Z</time>
      </trkpt>
      <trkpt lat="48.83358" lon="2.30896">
        <ele>96</ele>
        <time>2013-03-03T13:26:22.000Z</time>
      </trkpt>
      <trkpt lat="48.83357" lon="2.30899">
        <ele>95.4</ele>
        <time>2013-03-03T13:26:23.000Z</time>
      </trkpt>
      <trkpt lat="48.83356" lon="2.30902">
        <ele>95.1</ele>
        <time>2013-03-03T13:26:24.000Z</time>
      </trkpt>
      <trkpt lat="48.83355" lon="2.30909">
        <ele>96</ele>
        <time>2013-03-03T13:26:26.000Z</time>
      </trkpt>
      <trkpt lat="48.83355" lon="2.30912">
        <ele>96.7</ele>
        <time>2013-03-03T13:26:27.000Z</time>
      </trkpt>
      <trkpt lat="48.83354" lon="2.30918">
        <ele>96.6</ele>
        <time>2013-03-03T13:26:29.000Z</time>
      </trkpt>
      <trkpt lat="48.83353" lon="2.30922">
        <ele>95.4</ele>
        <time>2013-03-03T13:26:30.000Z</time>
      </trkpt>
      <trkpt lat="48.83352" lon="2.30924">
        <ele>95.1</ele>
        <time>2013-03-03T13:26:31.000Z</time>
      </trkpt>
      <trkpt lat="48.83351" lon="2.30929">
        <ele>93.8</ele>
        <time>2013-03-03T13:26:32.000Z</time>
      </trkpt>
      <trkpt lat="48.8335" lon="2.30934">
        <ele>93.2</ele>
        <time>2013-03-03T13:26:33.000Z</time>
      </trkpt>
      <trkpt lat="48.83349" lon="2.30939">
        <ele>93</ele>
        <time>2013-03-03T13:26:34.000Z</time>
      </trkpt>
      <trkpt lat="48.83348" lon="2.30945">
        <ele>92.7</ele>
        <time>2013-03-03T13:26:35.000Z</time>
      </trkpt>
      <trkpt lat="48.83346" lon="2.3095">
        <ele>92.6</ele>
        <time>2013-03-03T13:26:36.000Z</time>
      </trkpt>
      <trkpt lat="48.83345" lon="2.30954">
        <ele>90.4</ele>
        <time>2013-03-03T13:26:37.000Z</time>
      </trkpt>
      <trkpt lat="48.83344" lon="2.30959">
        <ele>91.4</ele>
        <time>2013-03-03T13:26:38.000Z</time>
      </trkpt>
      <trkpt lat="48.83343" lon="2.30964">
        <ele>91.4</ele>
        <time>2013-03-03T13:26:39.000Z</time>
      </trkpt>
      <trkpt lat="48.83341" lon="2.30969">
        <ele>92.3</ele>
        <time>2013-03-03T13:26:40.000Z</time>
      </trkpt>
      <trkpt lat="48.8334" lon="2.30973">
        <ele>92.7</ele>
        <time>2013-03-03T13:26:41.000Z</time>
      </trkpt>
      <trkpt lat="48.83338" lon="2.30977">
        <ele>93</ele>
        <time>2013-03-03T13:26:42.000Z</time>
      </trkpt>
      <trkpt lat="48.83336" lon="2.30981">
        <ele>95.1</ele>
        <time>2013-03-03T13:26:43.000Z</time>
      </trkpt>
      <trkpt lat="48.83335" lon="2.30985">
        <ele>95.1</ele>
        <time>2013-03-03T13:26:44.000Z</time>
      </trkpt>
      <trkpt lat="48.83334" lon="2.30989">
        <ele>94.9</ele>
        <time>2013-03-03T13:26:45.000Z</time>
      </trkpt>
      <trkpt lat="48.83333" lon="2.30992">
        <ele>94.2</ele>
        <time>2013-03-03T13:26:46.000Z</time>
      </trkpt>
      <trkpt lat="48.83332" lon="2.30995">
        <ele>97</ele>
        <time>2013-03-03T13:26:47.000Z</time>
      </trkpt>
      <trkpt lat="48.83331" lon="2.30999">
        <ele>97.2</ele>
        <time>2013-03-03T13:26:48.000Z</time>
      </trkpt>
      <trkpt lat="48.83329" lon="2.31004">
        <ele>97.2</ele>
        <time>2013-03-03T13:26:49.000Z</time>
      </trkpt>
      <trkpt lat="48.83328" lon="2.31008">
        <ele>96.9</ele>
        <time>2013-03-03T13:26:50.000Z</time>
      </trkpt>
      <trkpt lat="48.83326" lon="2.31012">
        <ele>97.9</ele>
        <time>2013-03-03T13:26:51.000Z</time>
      </trkpt>
      <trkpt lat="48.83324" lon="2.31017">
        <ele>98.9</ele>
        <time>2013-03-03T13:26:52.000Z</time>
      </trkpt>
      <trkpt lat="48.83323" lon="2.31021">
        <ele>98.8</ele>
        <time>2013-03-03T13:26:53.000Z</time>
      </trkpt>
      <trkpt lat="48.83322" lon="2.31024">
        <ele>99</ele>
        <time>2013-03-03T13:26:54.000Z</time>
      </trkpt>
      <trkpt lat="48.83321" lon="2.31031">
        <ele>99.6</ele>
        <time>2013-03-03T13:27:00.000Z</time>
      </trkpt>
      <trkpt lat="48.83322" lon="2.31031">
        <ele>99.1</ele>
        <time>2013-03-03T13:27:01.000Z</time>
      </trkpt>
      <trkpt lat="48.83325" lon="2.31033">
        <ele>97.4</ele>
        <time>2013-03-03T13:27:03.000Z</time>
      </trkpt>
      <trkpt lat="48.83327" lon="2.31035">
        <ele>96.5</ele>
        <time>2013-03-03T13:27:04.000Z</time>
      </trkpt>
      <trkpt lat="48.83327" lon="2.31041">
        <ele>95.9</ele>
        <time>2013-03-03T13:27:06.000Z</time>
      </trkpt>
      <trkpt lat="48.83325" lon="2.31046">
        <ele>96.6</ele>
        <time>2013-03-03T13:27:07.000Z</time>
      </trkpt>
      <trkpt lat="48.83323" lon="2.3105">
        <ele>95.4</ele>
        <time>2013-03-03T13:27:08.000Z</time>
      </trkpt>
      <trkpt lat="48.83321" lon="2.31055">
        <ele>93.8</ele>
        <time>2013-03-03T13:27:09.000Z</time>
      </trkpt>
      <trkpt lat="48.83319" lon="2.31059">
        <ele>93.4</ele>
        <time>2013-03-03T13:27:10.000Z</time>
      </trkpt>
      <trkpt lat="48.83316" lon="2.31064">
        <ele>93</ele>
        <time>2013-03-03T13:27:11.000Z</time>
      </trkpt>
      <trkpt lat="48.83313" lon="2.31068">
        <ele>91.8</ele>
        <time>2013-03-03T13:27:12.000Z</time>
      </trkpt>
      <trkpt lat="48.83311" lon="2.31072">
        <ele>92.4</ele>
        <time>2013-03-03T13:27:13.000Z</time>
      </trkpt>
      <trkpt lat="48.83309" lon="2.31077">
        <ele>91.8</ele>
        <time>2013-03-03T13:27:14.000Z</time>
      </trkpt>
      <trkpt lat="48.83306" lon="2.31081">
        <ele>91</ele>
        <time>2013-03-03T13:27:15.000Z</time>
      </trkpt>
      <trkpt lat="48.83304" lon="2.31084">
        <ele>89.9</ele>
        <time>2013-03-03T13:27:16.000Z</time>
      </trkpt>
      <trkpt lat="48.83302" lon="2.31088">
        <ele>89</ele>
        <time>2013-03-03T13:27:17.000Z</time>
      </trkpt>
      <trkpt lat="48.833" lon="2.3109">
        <ele>90.1</ele>
        <time>2013-03-03T13:27:18.000Z</time>
      </trkpt>
      <trkpt lat="48.83298" lon="2.31093">
        <ele>91.7</ele>
        <time>2013-03-03T13:27:19.000Z</time>
      </trkpt>
      <trkpt lat="48.83295" lon="2.31098">
        <ele>93.1</ele>
        <time>2013-03-03T13:27:20.000Z</time>
      </trkpt>
      <trkpt lat="48.83294" lon="2.31102">
        <ele>94.7</ele>
        <time>2013-03-03T13:27:21.000Z</time>
      </trkpt>
      <trkpt lat="48.83293" lon="2.31104">
        <ele>95.5</ele>
        <time>2013-03-03T13:27:22.000Z</time>
      </trkpt>
      <trkpt lat="48.8329" lon="2.31109">
        <ele>95.7</ele>
        <time>2013-03-03T13:27:26.000Z</time>
      </trkpt>
      <trkpt lat="48.8329" lon="2.3111">
        <ele>95.5</ele>
        <time>2013-03-03T13:27:27.000Z</time>
      </trkpt>
      <trkpt lat="48.83287" lon="2.31113">
        <ele>97.2</ele>
        <time>2013-03-03T13:27:32.000Z</time>
      </trkpt>
      <trkpt lat="48.83287" lon="2.31115">
        <ele>99.1</ele>
        <time>2013-03-03T13:27:33.000Z</time>
      </trkpt>
      <trkpt lat="48.83285" lon="2.31119">
        <ele>99.4</ele>
        <time>2013-03-03T13:27:38.000Z</time>
      </trkpt>
      <trkpt lat="48.83284" lon="2.3112">
        <ele>100</ele>
        <time>2013-03-03T13:27:39.000Z</time>
      </trkpt>
      <trkpt lat="48.83282" lon="2.31126">
        <ele>99.9</ele>
        <time>2013-03-03T13:27:56.000Z</time>
      </trkpt>
      <trkpt lat="48.83282" lon="2.31127">
        <ele>99.4</ele>
        <time>2013-03-03T13:27:57.000Z</time>
      </trkpt>
      <trkpt lat="48.8328" lon="2.3113">
        <ele>98.4</ele>
        <time>2013-03-03T13:27:59.000Z</time>
      </trkpt>
      <trkpt lat="48.83279" lon="2.31133">
        <ele>98.4</ele>
        <time>2013-03-03T13:28:00.000Z</time>
      </trkpt>
      <trkpt lat="48.83277" lon="2.31138">
        <ele>97.9</ele>
        <time>2013-03-03T13:28:02.000Z</time>
      </trkpt>
      <trkpt lat="48.83276" lon="2.31141">
        <ele>97.2</ele>
        <time>2013-03-03T13:28:03.000Z</time>
      </trkpt>
      <trkpt lat="48.83275" lon="2.31145">
        <ele>97.3</ele>
        <time>2013-03-03T13:28:04.000Z</time>
      </trkpt>
      <trkpt lat="48.83273" lon="2.31149">
        <ele>98.8</ele>
        <time>2013-03-03T13:28:05.000Z</time>
      </trkpt>
      <trkpt lat="48.83272" lon="2.31152">
        <ele>99.6</ele>
        <time>2013-03-03T13:28:06.000Z</time>
      </trkpt>
      <trkpt lat="48.83271" lon="2.31156">
        <ele>100.8</ele>
        <time>2013-03-03T13:28:07.000Z</time>
      </trkpt>
      <trkpt lat="48.83269" lon="2.31159">
        <ele>100.9</ele>
        <time>2013-03-03T13:28:08.000Z</time>
      </trkpt>
      <trkpt lat="48.83267" lon="2.31162">
        <ele>101.1</ele>
        <time>2013-03-03T13:28:09.000Z</time>
      </trkpt>
      <trkpt lat="48.83265" lon="2.31165">
        <ele>100.3</ele>
        <time>2013-03-03T13:28:10.000Z</time>
      </trkpt>
      <trkpt lat="48.83264" lon="2.31168">
        <ele>99.4</ele>
        <time>2013-03-03T13:28:11.000Z</time>
      </trkpt>
      <trkpt lat="48.83262" lon="2.31171">
        <ele>98.8</ele>
        <time>2013-03-03T13:28:12.000Z</time>
      </trkpt>
      <trkpt lat="48.8326" lon="2.31174">
        <ele>98.4</ele>
        <time>2013-03-03T13:28:13.000Z</time>
      </trkpt>
      <trkpt lat="48.83259" lon="2.31177">
        <ele>98.7</ele>
        <time>2013-03-03T13:28:14.000Z</time>
      </trkpt>
      <trkpt lat="48.83257" lon="2.3118">
        <ele>98</ele>
        <time>2013-03-03T13:28:15.000Z</time>
      </trkpt>
      <trkpt lat="48.83255" lon="2.31183">
        <ele>97.4</ele>
        <time>2013-03-03T13:28:16.000Z</time>
      </trkpt>
      <trkpt lat="48.83254" lon="2.31186">
        <ele>96.6</ele>
        <time>2013-03-03T13:28:17.000Z</time>
      </trkpt>
      <trkpt lat="48.83252" lon="2.3119">
        <ele>97.5</ele>
        <time>2013-03-03T13:28:18.000Z</time>
      </trkpt>
      <trkpt lat="48.8325" lon="2.31194">
        <ele>97.2</ele>
        <time>2013-03-03T13:28:19.000Z</time>
      </trkpt>
      <trkpt lat="48.83248" lon="2.31199">
        <ele>97</ele>
        <time>2013-03-03T13:28:20.000Z</time>
      </trkpt>
      <trkpt lat="48.83246" lon="2.31203">
        <ele>97.3</ele>
        <time>2013-03-03T13:28:21.000Z</time>
      </trkpt>
      <trkpt lat="48.83245" lon="2.31208">
        <ele>97.1</ele>
        <time>2013-03-03T13:28:22.000Z</time>
      </trkpt>
      <trkpt lat="48.83243" lon="2.31212">
        <ele>97.6</ele>
        <time>2013-03-03T13:28:23.000Z</time>
      </trkpt>
      <trkpt lat="48.83242" lon="2.31216">
        <ele>97.7</ele>
        <time>2013-03-03T13:28:24.000Z</time>
      </trkpt>
      <trkpt lat="48.8324" lon="2.3122">
        <ele>98</ele>
        <time>2013-03-03T13:28:25.000Z</time>
      </trkpt>
      <trkpt lat="48.83238" lon="2.31223">
        <ele>98.4</ele>
        <time>2013-03-03T13:28:26.000Z</time>
      </trkpt>
      <trkpt lat="48.83236" lon="2.31226">
        <ele>99.7</ele>
        <time>2013-03-03T13:28:27.000Z</time>
      </trkpt>
      <trkpt lat="48.83234" lon="2.31229">
        <ele>98.8</ele>
        <time>2013-03-03T13:28:28.000Z</time>
      </trkpt>
      <trkpt lat="48.83232" lon="2.31232">
        <ele>98.4</ele>
        <time>2013-03-03T13:28:29.000Z</time>
      </trkpt>
      <trkpt lat="48.83229" lon="2.31236">
        <ele>100.1</ele>
        <time>2013-03-03T13:28:39.000Z</time>
      </trkpt>
      <trkpt lat="48.83229" lon="2.31237">
        <ele>100.2</ele>
        <time>2013-03-03T13:28:40.000Z</time>
      </trkpt>
      <trkpt lat="48.83227" lon="2.31242">
        <ele>101</ele>
        <time>2013-03-03T13:28:42.000Z</time>
      </trkpt>
      <trkpt lat="48.83226" lon="2.31246">
        <ele>100.2</ele>
        <time>2013-03-03T13:28:43.000Z</time>
      </trkpt>
      <trkpt lat="48.83225" lon="2.31249">
        <ele>99.7</ele>
        <time>2013-03-03T13:28:44.000Z</time>
      </trkpt>
      <trkpt lat="48.83224" lon="2.31253">
        <ele>100.1</ele>
        <time>2013-03-03T13:28:45.000Z</time>
      </trkpt>
      <trkpt lat="48.83222" lon="2.31258">
        <ele>100.1</ele>
        <time>2013-03-03T13:28:47.000Z</time>
      </trkpt>
      <trkpt lat="48.83221" lon="2.31261">
        <ele>99.7</ele>
        <time>2013-03-03T13:28:48.000Z</time>
      </trkpt>
      <trkpt lat="48.83218" lon="2.31266">
        <ele>99.8</ele>
        <time>2013-03-03T13:28:50.000Z</time>
      </trkpt>
      <trkpt lat="48.83217" lon="2.31268">
        <ele>99.2</ele>
        <time>2013-03-03T13:28:51.000Z</time>
      </trkpt>
      <trkpt lat="48.83216" lon="2.31271">
        <ele>99.2</ele>
        <time>2013-03-03T13:28:52.000Z</time>
      </trkpt>
      <trkpt lat="48.83215" lon="2.31274">
        <ele>99.6</ele>
        <time>2013-03-03T13:28:53.000Z</time>
      </trkpt>
      <trkpt lat="48.83213" lon="2.31278">
        <ele>99.7</ele>
        <time>2013-03-03T13:28:54.000Z</time>
      </trkpt>
      <trkpt lat="48.83212" lon="2.31281">
        <ele>97.1</ele>
        <time>2013-03-03T13:28:55.000Z</time>
      </trkpt>
      <trkpt lat="48.83211" lon="2.31286">
        <ele>97.3</ele>
        <time>2013-03-03T13:28:57.000Z</time>
      </trkpt>
      <trkpt lat="48.8321" lon="2.3129">
        <ele>100.4</ele>
        <time>2013-03-03T13:28:58.000Z</time>
      </trkpt>
      <trkpt lat="48.8321" lon="2.31293">
        <ele>101.7</ele>
        <time>2013-03-03T13:28:59.000Z</time>
      </trkpt>
      <trkpt lat="48.83212" lon="2.31296">
        <ele>103.9</ele>
        <time>2013-03-03T13:29:00.000Z</time>
      </trkpt>
      <trkpt lat="48.83214" lon="2.31301">
        <ele>106.2</ele>
        <time>2013-03-03T13:29:03.000Z</time>
      </trkpt>
      <trkpt lat="48.83213" lon="2.31305">
        <ele>105</ele>
        <time>2013-03-03T13:29:04.000Z</time>
      </trkpt>
      <trkpt lat="48.83212" lon="2.31309">
        <ele>101.2</ele>
        <time>2013-03-03T13:29:05.000Z</time>
      </trkpt>
      <trkpt lat="48.83211" lon="2.31315">
        <ele>100.7</ele>
        <time>2013-03-03T13:29:06.000Z</time>
      </trkpt>
      <trkpt lat="48.8321" lon="2.31319">
        <ele>100.7</ele>
        <time>2013-03-03T13:29:07.000Z</time>
      </trkpt>
      <trkpt lat="48.83208" lon="2.31323">
        <ele>99.5</ele>
        <time>2013-03-03T13:29:08.000Z</time>
      </trkpt>
      <trkpt lat="48.83207" lon="2.31328">
        <ele>99.1</ele>
        <time>2013-03-03T13:29:09.000Z</time>
      </trkpt>
      <trkpt lat="48.83206" lon="2.31333">
        <ele>97.7</ele>
        <time>2013-03-03T13:29:10.000Z</time>
      </trkpt>
      <trkpt lat="48.83204" lon="2.31337">
        <ele>99.1</ele>
        <time>2013-03-03T13:29:11.000Z</time>
      </trkpt>
      <trkpt lat="48.83203" lon="2.31342">
        <ele>98.4</ele>
        <time>2013-03-03T13:29:12.000Z</time>
      </trkpt>
      <trkpt lat="48.83202" lon="2.31347">
        <ele>97.8</ele>
        <time>2013-03-03T13:29:13.000Z</time>
      </trkpt>
      <trkpt lat="48.832" lon="2.31352">
        <ele>98.2</ele>
        <time>2013-03-03T13:29:14.000Z</time>
      </trkpt>
      <trkpt lat="48.83199" lon="2.31356">
        <ele>98.9</ele>
        <time>2013-03-03T13:29:15.000Z</time>
      </trkpt>
      <trkpt lat="48.83198" lon="2.31361">
        <ele>99.2</ele>
        <time>2013-03-03T13:29:16.000Z</time>
      </trkpt>
      <trkpt lat="48.83196" lon="2.31364">
        <ele>98.5</ele>
        <time>2013-03-03T13:29:17.000Z</time>
      </trkpt>
      <trkpt lat="48.83195" lon="2.31367">
        <ele>99.1</ele>
        <time>2013-03-03T13:29:18.000Z</time>
      </trkpt>
      <trkpt lat="48.83192" lon="2.31371">
        <ele>102.7</ele>
        <time>2013-03-03T13:29:21.000Z</time>
      </trkpt>
      <trkpt lat="48.83192" lon="2.31372">
        <ele>105</ele>
        <time>2013-03-03T13:29:22.000Z</time>
      </trkpt>
      <trkpt lat="48.83192" lon="2.31377">
        <ele>103.6</ele>
        <time>2013-03-03T13:29:26.000Z</time>
      </trkpt>
      <trkpt lat="48.83191" lon="2.3138">
        <ele>104.1</ele>
        <time>2013-03-03T13:29:27.000Z</time>
      </trkpt>
      <trkpt lat="48.8319" lon="2.31386">
        <ele>104.5</ele>
        <time>2013-03-03T13:29:30.000Z</time>
      </trkpt>
      <trkpt lat="48.8319" lon="2.31389">
        <ele>104.6</ele>
        <time>2013-03-03T13:29:31.000Z</time>
      </trkpt>
      <trkpt lat="48.83188" lon="2.31394">
        <ele>104.6</ele>
        <time>2013-03-03T13:29:33.000Z</time>
      </trkpt>
      <trkpt lat="48.83187" lon="2.31397">
        <ele>105.5</ele>
        <time>2013-03-03T13:29:34.000Z</time>
      </trkpt>
      <trkpt lat="48.83186" lon="2.31403">
        <ele>102.4</ele>
        <time>2013-03-03T13:29:36.000Z</time>
      </trkpt>
      <trkpt lat="48.83185" lon="2.31406">
        <ele>103.2</ele>
        <time>2013-03-03T13:29:37.000Z</time>
      </trkpt>
      <trkpt lat="48.83182" lon="2.31411">
        <ele>103.5</ele>
        <time>2013-03-03T13:29:39.000Z</time>
      </trkpt>
      <trkpt lat="48.83181" lon="2.31415">
        <ele>102.7</ele>
        <time>2013-03-03T13:29:40.000Z</time>
      </trkpt>
      <trkpt lat="48.8318" lon="2.31419">
        <ele>101.9</ele>
        <time>2013-03-03T13:29:41.000Z</time>
      </trkpt>
      <trkpt lat="48.83179" lon="2.31424">
        <ele>101.9</ele>
        <time>2013-03-03T13:29:42.000Z</time>
      </trkpt>
      <trkpt lat="48.83177" lon="2.3143">
        <ele>103.6</ele>
        <time>2013-03-03T13:29:43.000Z</time>
      </trkpt>
      <trkpt lat="48.83176" lon="2.31436">
        <ele>104.2</ele>
        <time>2013-03-03T13:29:44.000Z</time>
      </trkpt>
      <trkpt lat="48.83174" lon="2.31442">
        <ele>104.4</ele>
        <time>2013-03-03T13:29:45.000Z</time>
      </trkpt>
      <trkpt lat="48.83173" lon="2.31448">
        <ele>104.8</ele>
        <time>2013-03-03T13:29:46.000Z</time>
      </trkpt>
      <trkpt lat="48.83173" lon="2.31454">
        <ele>105.6</ele>
        <time>2013-03-03T13:29:47.000Z</time>
      </trkpt>
      <trkpt lat="48.83172" lon="2.31459">
        <ele>106.3</ele>
        <time>2013-03-03T13:29:48.000Z</time>
      </trkpt>
      <trkpt lat="48.83172" lon="2.31465">
        <ele>106</ele>
        <time>2013-03-03T13:29:49.000Z</time>
      </trkpt>
      <trkpt lat="48.83171" lon="2.3147">
        <ele>106.2</ele>
        <time>2013-03-03T13:29:50.000Z</time>
      </trkpt>
      <trkpt lat="48.8317" lon="2.31475">
        <ele>105.8</ele>
        <time>2013-03-03T13:29:51.000Z</time>
      </trkpt>
      <trkpt lat="48.83169" lon="2.3148">
        <ele>106.2</ele>
        <time>2013-03-03T13:29:52.000Z</time>
      </trkpt>
      <trkpt lat="48.83168" lon="2.31485">
        <ele>105.5</ele>
        <time>2013-03-03T13:29:53.000Z</time>
      </trkpt>
      <trkpt lat="48.83167" lon="2.31489">
        <ele>106.9</ele>
        <time>2013-03-03T13:29:54.000Z</time>
      </trkpt>
      <trkpt lat="48.83166" lon="2.31493">
        <ele>105.7</ele>
        <time>2013-03-03T13:29:55.000Z</time>
      </trkpt>
      <trkpt lat="48.83164" lon="2.31496">
        <ele>105.2</ele>
        <time>2013-03-03T13:29:56.000Z</time>
      </trkpt>
      <trkpt lat="48.83163" lon="2.31501">
        <ele>105.7</ele>
        <time>2013-03-03T13:29:57.000Z</time>
      </trkpt>
      <trkpt lat="48.83162" lon="2.31506">
        <ele>105.4</ele>
        <time>2013-03-03T13:29:58.000Z</time>
      </trkpt>
      <trkpt lat="48.83162" lon="2.31511">
        <ele>102.6</ele>
        <time>2013-03-03T13:29:59.000Z</time>
      </trkpt>
      <trkpt lat="48.83161" lon="2.31516">
        <ele>103.8</ele>
        <time>2013-03-03T13:30:00.000Z</time>
      </trkpt>
      <trkpt lat="48.8316" lon="2.31521">
        <ele>105.1</ele>
        <time>2013-03-03T13:30:01.000Z</time>
      </trkpt>
      <trkpt lat="48.83158" lon="2.31526">
        <ele>102.9</ele>
        <time>2013-03-03T13:30:02.000Z</time>
      </trkpt>
      <trkpt lat="48.83157" lon="2.31531">
        <ele>103.2</ele>
        <time>2013-03-03T13:30:03.000Z</time>
      </trkpt>
      <trkpt lat="48.83155" lon="2.31534">
        <ele>103.9</ele>
        <time>2013-03-03T13:30:04.000Z</time>
      </trkpt>
      <trkpt lat="48.83153" lon="2.3154">
        <ele>104.5</ele>
        <time>2013-03-03T13:30:06.000Z</time>
      </trkpt>
      <trkpt lat="48.83153" lon="2.31544">
        <ele>104.7</ele>
        <time>2013-03-03T13:30:07.000Z</time>
      </trkpt>
      <trkpt lat="48.83151" lon="2.3155">
        <ele>105.4</ele>
        <time>2013-03-03T13:30:09.000Z</time>
      </trkpt>
      <trkpt lat="48.83151" lon="2.31553">
        <ele>105.2</ele>
        <time>2013-03-03T13:30:10.000Z</time>
      </trkpt>
      <trkpt lat="48.8315" lon="2.31556">
        <ele>104.9</ele>
        <time>2013-03-03T13:30:11.000Z</time>
      </trkpt>
      <trkpt lat="48.83149" lon="2.3156">
        <ele>104.5</ele>
        <time>2013-03-03T13:30:12.000Z</time>
      </trkpt>
      <trkpt lat="48.83148" lon="2.31566">
        <ele>103.7</ele>
        <time>2013-03-03T13:30:13.000Z</time>
      </trkpt>
      <trkpt lat="48.83146" lon="2.31571">
        <ele>103.9</ele>
        <time>2013-03-03T13:30:14.000Z</time>
      </trkpt>
      <trkpt lat="48.83145" lon="2.31577">
        <ele>103.8</ele>
        <time>2013-03-03T13:30:15.000Z</time>
      </trkpt>
      <trkpt lat="48.83143" lon="2.31582">
        <ele>106.7</ele>
        <time>2013-03-03T13:30:16.000Z</time>
      </trkpt>
      <trkpt lat="48.83141" lon="2.31586">
        <ele>105.9</ele>
        <time>2013-03-03T13:30:17.000Z</time>
      </trkpt>
      <trkpt lat="48.83139" lon="2.3159">
        <ele>106.6</ele>
        <time>2013-03-03T13:30:18.000Z</time>
      </trkpt>
      <trkpt lat="48.83137" lon="2.31594">
        <ele>107.5</ele>
        <time>2013-03-03T13:30:19.000Z</time>
      </trkpt>
      <trkpt lat="48.83136" lon="2.31598">
        <ele>108.2</ele>
        <time>2013-03-03T13:30:20.000Z</time>
      </trkpt>
      <trkpt lat="48.83135" lon="2.31602">
        <ele>109</ele>
        <time>2013-03-03T13:30:21.000Z</time>
      </trkpt>
      <trkpt lat="48.83135" lon="2.31606">
        <ele>107.1</ele>
        <time>2013-03-03T13:30:22.000Z</time>
      </trkpt>
      <trkpt lat="48.83134" lon="2.3161">
        <ele>105.9</ele>
        <time>2013-03-03T13:30:23.000Z</time>
      </trkpt>
      <trkpt lat="48.83133" lon="2.31614">
        <ele>105.9</ele>
        <time>2013-03-03T13:30:24.000Z</time>
      </trkpt>
      <trkpt lat="48.83132" lon="2.31618">
        <ele>105.7</ele>
        <time>2013-03-03T13:30:25.000Z</time>
      </trkpt>
      <trkpt lat="48.83131" lon="2.31623">
        <ele>105.5</ele>
        <time>2013-03-03T13:30:26.000Z</time>
      </trkpt>
      <trkpt lat="48.8313" lon="2.31627">
        <ele>105.6</ele>
        <time>2013-03-03T13:30:27.000Z</time>
      </trkpt>
      <trkpt lat="48.83129" lon="2.31632">
        <ele>105.2</ele>
        <time>2013-03-03T13:30:28.000Z</time>
      </trkpt>
      <trkpt lat="48.83128" lon="2.31636">
        <ele>104.5</ele>
        <time>2013-03-03T13:30:29.000Z</time>
      </trkpt>
      <trkpt lat="48.83127" lon="2.3164">
        <ele>104.3</ele>
        <time>2013-03-03T13:30:30.000Z</time>
      </trkpt>
      <trkpt lat="48.83127" lon="2.31644">
        <ele>103.2</ele>
        <time>2013-03-03T13:30:31.000Z</time>
      </trkpt>
      <trkpt lat="48.83128" lon="2.31647">
        <ele>104.3</ele>
        <time>2013-03-03T13:30:32.000Z</time>
      </trkpt>
      <trkpt lat="48.83127" lon="2.31653">
        <ele>102.6</ele>
        <time>2013-03-03T13:30:34.000Z</time>
      </trkpt>
      <trkpt lat="48.83125" lon="2.31658">
        <ele>103.8</ele>
        <time>2013-03-03T13:30:35.000Z</time>
      </trkpt>
      <trkpt lat="48.83124" lon="2.31662">
        <ele>104.9</ele>
        <time>2013-03-03T13:30:36.000Z</time>
      </trkpt>
      <trkpt lat="48.83122" lon="2.31666">
        <ele>104.8</ele>
        <time>2013-03-03T13:30:37.000Z</time>
      </trkpt>
      <trkpt lat="48.83121" lon="2.3167">
        <ele>103.9</ele>
        <time>2013-03-03T13:30:38.000Z</time>
      </trkpt>
      <trkpt lat="48.8312" lon="2.31674">
        <ele>103.9</ele>
        <time>2013-03-03T13:30:39.000Z</time>
      </trkpt>
      <trkpt lat="48.83119" lon="2.31678">
        <ele>104.6</ele>
        <time>2013-03-03T13:30:40.000Z</time>
      </trkpt>
      <trkpt lat="48.83118" lon="2.31682">
        <ele>105.2</ele>
        <time>2013-03-03T13:30:41.000Z</time>
      </trkpt>
      <trkpt lat="48.83117" lon="2.31686">
        <ele>104.2</ele>
        <time>2013-03-03T13:30:42.000Z</time>
      </trkpt>
      <trkpt lat="48.83116" lon="2.3169">
        <ele>104.4</ele>
        <time>2013-03-03T13:30:43.000Z</time>
      </trkpt>
      <trkpt lat="48.83115" lon="2.31694">
        <ele>104.4</ele>
        <time>2013-03-03T13:30:44.000Z</time>
      </trkpt>
      <trkpt lat="48.83115" lon="2.31698">
        <ele>104.7</ele>
        <time>2013-03-03T13:30:45.000Z</time>
      </trkpt>
      <trkpt lat="48.83115" lon="2.31702">
        <ele>105.6</ele>
        <time>2013-03-03T13:30:46.000Z</time>
      </trkpt>
      <trkpt lat="48.83115" lon="2.31707">
        <ele>105.9</ele>
        <time>2013-03-03T13:30:47.000Z</time>
      </trkpt>
      <trkpt lat="48.83115" lon="2.31711">
        <ele>105.9</ele>
        <time>2013-03-03T13:30:48.000Z</time>
      </trkpt>
      <trkpt lat="48.83115" lon="2.31715">
        <ele>106.5</ele>
        <time>2013-03-03T13:30:49.000Z</time>
      </trkpt>
      <trkpt lat="48.83113" lon="2.31718">
        <ele>106.9</ele>
        <time>2013-03-03T13:30:50.000Z</time>
      </trkpt>
      <trkpt lat="48.83112" lon="2.31722">
        <ele>107.8</ele>
        <time>2013-03-03T13:30:51.000Z</time>
      </trkpt>
      <trkpt lat="48.83111" lon="2.31726">
        <ele>108</ele>
        <time>2013-03-03T13:30:52.000Z</time>
      </trkpt>
      <trkpt lat="48.83111" lon="2.3173">
        <ele>109</ele>
        <time>2013-03-03T13:30:53.000Z</time>
      </trkpt>
      <trkpt lat="48.8311" lon="2.31734">
        <ele>108.4</ele>
        <time>2013-03-03T13:30:54.000Z</time>
      </trkpt>
      <trkpt lat="48.8311" lon="2.31738">
        <ele>108.3</ele>
        <time>2013-03-03T13:30:55.000Z</time>
      </trkpt>
      <trkpt lat="48.83108" lon="2.31742">
        <ele>108.6</ele>
        <time>2013-03-03T13:30:56.000Z</time>
      </trkpt>
      <trkpt lat="48.83107" lon="2.31745">
        <ele>108.9</ele>
        <time>2013-03-03T13:30:57.000Z</time>
      </trkpt>
      <trkpt lat="48.83105" lon="2.31749">
        <ele>109.2</ele>
        <time>2013-03-03T13:30:58.000Z</time>
      </trkpt>
      <trkpt lat="48.83104" lon="2.31753">
        <ele>110</ele>
        <time>2013-03-03T13:30:59.000Z</time>
      </trkpt>
      <trkpt lat="48.83102" lon="2.31756">
        <ele>109.8</ele>
        <time>2013-03-03T13:31:00.000Z</time>
      </trkpt>
      <trkpt lat="48.83101" lon="2.3176">
        <ele>108.7</ele>
        <time>2013-03-03T13:31:01.000Z</time>
      </trkpt>
      <trkpt lat="48.83099" lon="2.31764">
        <ele>108.3</ele>
        <time>2013-03-03T13:31:02.000Z</time>
      </trkpt>
      <trkpt lat="48.83098" lon="2.3177">
        <ele>108.7</ele>
        <time>2013-03-03T13:31:03.000Z</time>
      </trkpt>
      <trkpt lat="48.83096" lon="2.31775">
        <ele>108.5</ele>
        <time>2013-03-03T13:31:04.000Z</time>
      </trkpt>
      <trkpt lat="48.83094" lon="2.3178">
        <ele>108.4</ele>
        <time>2013-03-03T13:31:05.000Z</time>
      </trkpt>
      <trkpt lat="48.83093" lon="2.31785">
        <ele>107.7</ele>
        <time>2013-03-03T13:31:06.000Z</time>
      </trkpt>
      <trkpt lat="48.83091" lon="2.3179">
        <ele>108.2</ele>
        <time>2013-03-03T13:31:07.000Z</time>
      </trkpt>
      <trkpt lat="48.83089" lon="2.31795">
        <ele>108.1</ele>
        <time>2013-03-03T13:31:08.000Z</time>
      </trkpt>
      <trkpt lat="48.83087" lon="2.318">
        <ele>107.9</ele>
        <time>2013-03-03T13:31:09.000Z</time>
      </trkpt>
      <trkpt lat="48.83086" lon="2.31805">
        <ele>107.9</ele>
        <time>2013-03-03T13:31:10.000Z</time>
      </trkpt>
      <trkpt lat="48.83084" lon="2.3181">
        <ele>107.5</ele>
        <time>2013-03-03T13:31:11.000Z</time>
      </trkpt>
      <trkpt lat="48.83082" lon="2.31813">
        <ele>106</ele>
        <time>2013-03-03T13:31:12.000Z</time>
      </trkpt>
      <trkpt lat="48.83079" lon="2.31816">
        <ele>105.7</ele>
        <time>2013-03-03T13:31:13.000Z</time>
      </trkpt>
      <trkpt lat="48.83076" lon="2.31819">
        <ele>105.9</ele>
        <time>2013-03-03T13:31:14.000Z</time>
      </trkpt>
      <trkpt lat="48.83074" lon="2.31822">
        <ele>105.1</ele>
        <time>2013-03-03T13:31:15.000Z</time>
      </trkpt>
      <trkpt lat="48.83071" lon="2.31825">
        <ele>105.2</ele>
        <time>2013-03-03T13:31:16.000Z</time>
      </trkpt>
      <trkpt lat="48.83069" lon="2.31828">
        <ele>104.9</ele>
        <time>2013-03-03T13:31:17.000Z</time>
      </trkpt>
      <trkpt lat="48.83068" lon="2.31831">
        <ele>104</ele>
        <time>2013-03-03T13:31:18.000Z</time>
      </trkpt>
      <trkpt lat="48.83066" lon="2.31835">
        <ele>103.4</ele>
        <time>2013-03-03T13:31:19.000Z</time>
      </trkpt>
      <trkpt lat="48.83065" lon="2.31839">
        <ele>103.5</ele>
        <time>2013-03-03T13:31:20.000Z</time>
      </trkpt>
      <trkpt lat="48.83063" lon="2.31843">
        <ele>102.8</ele>
        <time>2013-03-03T13:31:21.000Z</time>
      </trkpt>
      <trkpt lat="48.83062" lon="2.31846">
        <ele>100.8</ele>
        <time>2013-03-03T13:31:22.000Z</time>
      </trkpt>
      <trkpt lat="48.8306" lon="2.3185">
        <ele>100</ele>
        <time>2013-03-03T13:31:23.000Z</time>
      </trkpt>
      <trkpt lat="48.83058" lon="2.31854">
        <ele>100.2</ele>
        <time>2013-03-03T13:31:24.000Z</time>
      </trkpt>
      <trkpt lat="48.83056" lon="2.31857">
        <ele>101.9</ele>
        <time>2013-03-03T13:31:25.000Z</time>
      </trkpt>
      <trkpt lat="48.83054" lon="2.31859">
        <ele>101.8</ele>
        <time>2013-03-03T13:31:26.000Z</time>
      </trkpt>
      <trkpt lat="48.83051" lon="2.31861">
        <ele>104.1</ele>
        <time>2013-03-03T13:31:27.000Z</time>
      </trkpt>
      <trkpt lat="48.83049" lon="2.31862">
        <ele>106.1</ele>
        <time>2013-03-03T13:31:28.000Z</time>
      </trkpt>
      <trkpt lat="48.83046" lon="2.31864">
        <ele>107.1</ele>
        <time>2013-03-03T13:31:29.000Z</time>
      </trkpt>
      <trkpt lat="48.83042" lon="2.31864">
        <ele>106.5</ele>
        <time>2013-03-03T13:31:32.000Z</time>
      </trkpt>
      <trkpt lat="48.83041" lon="2.31863">
        <ele>109.3</ele>
        <time>2013-03-03T13:31:33.000Z</time>
      </trkpt>
      <trkpt lat="48.83039" lon="2.3186">
        <ele>113.1</ele>
        <time>2013-03-03T13:31:36.000Z</time>
      </trkpt>
      <trkpt lat="48.83037" lon="2.31859">
        <ele>112</ele>
        <time>2013-03-03T13:31:37.000Z</time>
      </trkpt>
      <trkpt lat="48.83034" lon="2.31857">
        <ele>111.7</ele>
        <time>2013-03-03T13:31:38.000Z</time>
      </trkpt>
      <trkpt lat="48.83032" lon="2.31854">
        <ele>111</ele>
        <time>2013-03-03T13:31:39.000Z</time>
      </trkpt>
      <trkpt lat="48.8303" lon="2.31851">
        <ele>110.7</ele>
        <time>2013-03-03T13:31:40.000Z</time>
      </trkpt>
      <trkpt lat="48.83027" lon="2.31847">
        <ele>110.3</ele>
        <time>2013-03-03T13:31:41.000Z</time>
      </trkpt>
      <trkpt lat="48.83024" lon="2.31844">
        <ele>110.4</ele>
        <time>2013-03-03T13:31:42.000Z</time>
      </trkpt>
      <trkpt lat="48.8302" lon="2.3184">
        <ele>110.2</ele>
        <time>2013-03-03T13:31:43.000Z</time>
      </trkpt>
      <trkpt lat="48.83017" lon="2.31836">
        <ele>110</ele>
        <time>2013-03-03T13:31:44.000Z</time>
      </trkpt>
      <trkpt lat="48.83014" lon="2.31832">
        <ele>109.9</ele>
        <time>2013-03-03T13:31:45.000Z</time>
      </trkpt>
      <trkpt lat="48.83012" lon="2.31828">
        <ele>109.8</ele>
        <time>2013-03-03T13:31:46.000Z</time>
      </trkpt>
      <trkpt lat="48.83009" lon="2.31825">
        <ele>109.6</ele>
        <time>2013-03-03T13:31:47.000Z</time>
      </trkpt>
      <trkpt lat="48.83005" lon="2.31822">
        <ele>109.4</ele>
        <time>2013-03-03T13:31:48.000Z</time>
      </trkpt>
      <trkpt lat="48.83002" lon="2.31819">
        <ele>109.2</ele>
        <time>2013-03-03T13:31:49.000Z</time>
      </trkpt>
      <trkpt lat="48.82999" lon="2.31817">
        <ele>109</ele>
        <time>2013-03-03T13:31:50.000Z</time>
      </trkpt>
      <trkpt lat="48.82996" lon="2.31815">
        <ele>108.7</ele>
        <time>2013-03-03T13:31:51.000Z</time>
      </trkpt>
      <trkpt lat="48.82993" lon="2.31813">
        <ele>108.8</ele>
        <time>2013-03-03T13:31:52.000Z</time>
      </trkpt>
      <trkpt lat="48.82991" lon="2.31811">
        <ele>108.8</ele>
        <time>2013-03-03T13:31:53.000Z</time>
      </trkpt>
      <trkpt lat="48.82988" lon="2.31809">
        <ele>108.7</ele>
        <time>2013-03-03T13:31:54.000Z</time>
      </trkpt>
      <trkpt lat="48.82986" lon="2.31806">
        <ele>108.9</ele>
        <time>2013-03-03T13:31:55.000Z</time>
      </trkpt>
      <trkpt lat="48.82984" lon="2.31803">
        <ele>108.2</ele>
        <time>2013-03-03T13:31:56.000Z</time>
      </trkpt>
      <trkpt lat="48.82982" lon="2.318">
        <ele>108.3</ele>
        <time>2013-03-03T13:31:57.000Z</time>
      </trkpt>
      <trkpt lat="48.8298" lon="2.31798">
        <ele>108.8</ele>
        <time>2013-03-03T13:31:58.000Z</time>
      </trkpt>
      <trkpt lat="48.82978" lon="2.31796">
        <ele>108.4</ele>
        <time>2013-03-03T13:31:59.000Z</time>
      </trkpt>
      <trkpt lat="48.82975" lon="2.31793">
        <ele>106.1</ele>
        <time>2013-03-03T13:32:01.000Z</time>
      </trkpt>
      <trkpt lat="48.82974" lon="2.31792">
        <ele>106</ele>
        <time>2013-03-03T13:32:02.000Z</time>
      </trkpt>
      <trkpt lat="48.82971" lon="2.31788">
        <ele>106</ele>
        <time>2013-03-03T13:32:04.000Z</time>
      </trkpt>
      <trkpt lat="48.82969" lon="2.31787">
        <ele>105.8</ele>
        <time>2013-03-03T13:32:05.000Z</time>
      </trkpt>
      <trkpt lat="48.82966" lon="2.31782">
        <ele>105.6</ele>
        <time>2013-03-03T13:32:07.000Z</time>
      </trkpt>
      <trkpt lat="48.82965" lon="2.31779">
        <ele>105.4</ele>
        <time>2013-03-03T13:32:08.000Z</time>
      </trkpt>
      <trkpt lat="48.82962" lon="2.31774">
        <ele>105.3</ele>
        <time>2013-03-03T13:32:10.000Z</time>
      </trkpt>
      <trkpt lat="48.82961" lon="2.31771">
        <ele>105.5</ele>
        <time>2013-03-03T13:32:11.000Z</time>
      </trkpt>
      <trkpt lat="48.8296" lon="2.31768">
        <ele>105.6</ele>
        <time>2013-03-03T13:32:12.000Z</time>
      </trkpt>
      <trkpt lat="48.82958" lon="2.31764">
        <ele>106.4</ele>
        <time>2013-03-03T13:32:13.000Z</time>
      </trkpt>
      <trkpt lat="48.82956" lon="2.31761">
        <ele>105.9</ele>
        <time>2013-03-03T13:32:14.000Z</time>
      </trkpt>
      <trkpt lat="48.82956" lon="2.31758">
        <ele>105.6</ele>
        <time>2013-03-03T13:32:15.000Z</time>
      </trkpt>
      <trkpt lat="48.82959" lon="2.31754">
        <ele>107</ele>
        <time>2013-03-03T13:32:18.000Z</time>
      </trkpt>
      <trkpt lat="48.8296" lon="2.31755">
        <ele>107.2</ele>
        <time>2013-03-03T13:32:19.000Z</time>
      </trkpt>
      <trkpt lat="48.82959" lon="2.31751">
        <ele>108.5</ele>
        <time>2013-03-03T13:33:00.000Z</time>
      </trkpt>
      <trkpt lat="48.82956" lon="2.31748">
        <ele>109.9</ele>
        <time>2013-03-03T13:33:01.000Z</time>
      </trkpt>
      <trkpt lat="48.82952" lon="2.31745">
        <ele>109.2</ele>
        <time>2013-03-03T13:33:02.000Z</time>
      </trkpt>
      <trkpt lat="48.8295" lon="2.3174">
        <ele>108.3</ele>
        <time>2013-03-03T13:33:03.000Z</time>
      </trkpt>
      <trkpt lat="48.82947" lon="2.31735">
        <ele>108.4</ele>
        <time>2013-03-03T13:33:04.000Z</time>
      </trkpt>
      <trkpt lat="48.82944" lon="2.31731">
        <ele>107.2</ele>
        <time>2013-03-03T13:33:05.000Z</time>
      </trkpt>
      <trkpt lat="48.8294" lon="2.31729">
        <ele>105.8</ele>
        <time>2013-03-03T13:33:06.000Z</time>
      </trkpt>
      <trkpt lat="48.82936" lon="2.31728">
        <ele>106.6</ele>
        <time>2013-03-03T13:33:07.000Z</time>
      </trkpt>
      <trkpt lat="48.82932" lon="2.3173">
        <ele>106.1</ele>
        <time>2013-03-03T13:33:08.000Z</time>
      </trkpt>
      <trkpt lat="48.82928" lon="2.31732">
        <ele>106.8</ele>
        <time>2013-03-03T13:33:09.000Z</time>
      </trkpt>
      <trkpt lat="48.82925" lon="2.31735">
        <ele>106.5</ele>
        <time>2013-03-03T13:33:11.000Z</time>
      </trkpt>
      <trkpt lat="48.82924" lon="2.31735">
        <ele>106.5</ele>
        <time>2013-03-03T13:33:12.000Z</time>
      </trkpt>
      <trkpt lat="48.82922" lon="2.3174">
        <ele>107</ele>
        <time>2013-03-03T13:33:14.000Z</time>
      </trkpt>
      <trkpt lat="48.82922" lon="2.31746">
        <ele>107.5</ele>
        <time>2013-03-03T13:33:15.000Z</time>
      </trkpt>
      <trkpt lat="48.82922" lon="2.31751">
        <ele>106.6</ele>
        <time>2013-03-03T13:33:16.000Z</time>
      </trkpt>
      <trkpt lat="48.82922" lon="2.31755">
        <ele>106.5</ele>
        <time>2013-03-03T13:33:17.000Z</time>
      </trkpt>
      <trkpt lat="48.8292" lon="2.31759">
        <ele>104.6</ele>
        <time>2013-03-03T13:33:18.000Z</time>
      </trkpt>
      <trkpt lat="48.82918" lon="2.31762">
        <ele>105.1</ele>
        <time>2013-03-03T13:33:19.000Z</time>
      </trkpt>
      <trkpt lat="48.82916" lon="2.31766">
        <ele>105.4</ele>
        <time>2013-03-03T13:33:20.000Z</time>
      </trkpt>
      <trkpt lat="48.82914" lon="2.3177">
        <ele>105.9</ele>
        <time>2013-03-03T13:33:21.000Z</time>
      </trkpt>
      <trkpt lat="48.82913" lon="2.31773">
        <ele>106.3</ele>
        <time>2013-03-03T13:33:22.000Z</time>
      </trkpt>
      <trkpt lat="48.82911" lon="2.31777">
        <ele>106.1</ele>
        <time>2013-03-03T13:33:23.000Z</time>
      </trkpt>
      <trkpt lat="48.82909" lon="2.31777">
        <ele>106.9</ele>
        <time>2013-03-03T13:33:24.000Z</time>
      </trkpt>
      <trkpt lat="48.82906" lon="2.31775">
        <ele>108</ele>
        <time>2013-03-03T13:33:25.000Z</time>
      </trkpt>
      <trkpt lat="48.82903" lon="2.31772">
        <ele>109.9</ele>
        <time>2013-03-03T13:33:26.000Z</time>
      </trkpt>
      <trkpt lat="48.82901" lon="2.31769">
        <ele>110.2</ele>
        <time>2013-03-03T13:33:27.000Z</time>
      </trkpt>
      <trkpt lat="48.82898" lon="2.31767">
        <ele>110.6</ele>
        <time>2013-03-03T13:33:28.000Z</time>
      </trkpt>
      <trkpt lat="48.82895" lon="2.31764">
        <ele>110.8</ele>
        <time>2013-03-03T13:33:29.000Z</time>
      </trkpt>
      <trkpt lat="48.82893" lon="2.31759">
        <ele>111.2</ele>
        <time>2013-03-03T13:33:30.000Z</time>
      </trkpt>
      <trkpt lat="48.8289" lon="2.31754">
        <ele>111.3</ele>
        <time>2013-03-03T13:33:31.000Z</time>
      </trkpt>
      <trkpt lat="48.82888" lon="2.3175">
        <ele>112.4</ele>
        <time>2013-03-03T13:33:32.000Z</time>
      </trkpt>
      <trkpt lat="48.82885" lon="2.31746">
        <ele>111.5</ele>
        <time>2013-03-03T13:33:33.000Z</time>
      </trkpt>
      <trkpt lat="48.82882" lon="2.31743">
        <ele>111.9</ele>
        <time>2013-03-03T13:33:34.000Z</time>
      </trkpt>
      <trkpt lat="48.82879" lon="2.31741">
        <ele>111.5</ele>
        <time>2013-03-03T13:33:35.000Z</time>
      </trkpt>
      <trkpt lat="48.82876" lon="2.31739">
        <ele>110.4</ele>
        <time>2013-03-03T13:33:36.000Z</time>
      </trkpt>
      <trkpt lat="48.82872" lon="2.31737">
        <ele>109.3</ele>
        <time>2013-03-03T13:33:37.000Z</time>
      </trkpt>
      <trkpt lat="48.82869" lon="2.31736">
        <ele>109.9</ele>
        <time>2013-03-03T13:33:38.000Z</time>
      </trkpt>
      <trkpt lat="48.82866" lon="2.31734">
        <ele>110.9</ele>
        <time>2013-03-03T13:33:39.000Z</time>
      </trkpt>
      <trkpt lat="48.82863" lon="2.31733">
        <ele>111.2</ele>
        <time>2013-03-03T13:33:40.000Z</time>
      </trkpt>
      <trkpt lat="48.8286" lon="2.3173">
        <ele>110.6</ele>
        <time>2013-03-03T13:33:41.000Z</time>
      </trkpt>
      <trkpt lat="48.82858" lon="2.31728">
        <ele>111.3</ele>
        <time>2013-03-03T13:33:42.000Z</time>
      </trkpt>
      <trkpt lat="48.82855" lon="2.31725">
        <ele>112.7</ele>
        <time>2013-03-03T13:33:43.000Z</time>
      </trkpt>
      <trkpt lat="48.82852" lon="2.31722">
        <ele>112.3</ele>
        <time>2013-03-03T13:33:44.000Z</time>
      </trkpt>
      <trkpt lat="48.82849" lon="2.31719">
        <ele>112.8</ele>
        <time>2013-03-03T13:33:45.000Z</time>
      </trkpt>
      <trkpt lat="48.82846" lon="2.31717">
        <ele>112.7</ele>
        <time>2013-03-03T13:33:46.000Z</time>
      </trkpt>
      <trkpt lat="48.82844" lon="2.31714">
        <ele>112.7</ele>
        <time>2013-03-03T13:33:47.000Z</time>
      </trkpt>
      <trkpt lat="48.8284" lon="2.31711">
        <ele>111.3</ele>
        <time>2013-03-03T13:33:49.000Z</time>
      </trkpt>
      <trkpt lat="48.82839" lon="2.3171">
        <ele>111.2</ele>
        <time>2013-03-03T13:33:50.000Z</time>
      </trkpt>
      <trkpt lat="48.82836" lon="2.31707">
        <ele>111</ele>
        <time>2013-03-03T13:33:53.000Z</time>
      </trkpt>
      <trkpt lat="48.82836" lon="2.31705">
        <ele>110.6</ele>
        <time>2013-03-03T13:33:54.000Z</time>
      </trkpt>
      <trkpt lat="48.82835" lon="2.31699">
        <ele>110.9</ele>
        <time>2013-03-03T13:33:57.000Z</time>
      </trkpt>
      <trkpt lat="48.82835" lon="2.31698">
        <ele>111.1</ele>
        <time>2013-03-03T13:33:58.000Z</time>
      </trkpt>
      <trkpt lat="48.82838" lon="2.31695">
        <ele>111.5</ele>
        <time>2013-03-03T13:34:01.000Z</time>
      </trkpt>
      <trkpt lat="48.82839" lon="2.31693">
        <ele>111.5</ele>
        <time>2013-03-03T13:34:02.000Z</time>
      </trkpt>
      <trkpt lat="48.82841" lon="2.3169">
        <ele>110.7</ele>
        <time>2013-03-03T13:34:04.000Z</time>
      </trkpt>
      <trkpt lat="48.82842" lon="2.31688">
        <ele>110.1</ele>
        <time>2013-03-03T13:34:05.000Z</time>
      </trkpt>
      <trkpt lat="48.82845" lon="2.31684">
        <ele>107.7</ele>
        <time>2013-03-03T13:34:07.000Z</time>
      </trkpt>
      <trkpt lat="48.82846" lon="2.31682">
        <ele>108</ele>
        <time>2013-03-03T13:34:08.000Z</time>
      </trkpt>
      <trkpt lat="48.82847" lon="2.31678">
        <ele>107.1</ele>
        <time>2013-03-03T13:34:10.000Z</time>
      </trkpt>
      <trkpt lat="48.82848" lon="2.31675">
        <ele>106.6</ele>
        <time>2013-03-03T13:34:11.000Z</time>
      </trkpt>
      <trkpt lat="48.8285" lon="2.3167">
        <ele>107.5</ele>
        <time>2013-03-03T13:34:13.000Z</time>
      </trkpt>
      <trkpt lat="48.82851" lon="2.31667">
        <ele>107.7</ele>
        <time>2013-03-03T13:34:14.000Z</time>
      </trkpt>
      <trkpt lat="48.82854" lon="2.31663">
        <ele>109.3</ele>
        <time>2013-03-03T13:34:16.000Z</time>
      </trkpt>
      <trkpt lat="48.82854" lon="2.31661">
        <ele>110.8</ele>
        <time>2013-03-03T13:34:17.000Z</time>
      </trkpt>
      <trkpt lat="48.82856" lon="2.31656">
        <ele>115.5</ele>
        <time>2013-03-03T13:34:20.000Z</time>
      </trkpt>
      <trkpt lat="48.82856" lon="2.31653">
        <ele>114.2</ele>
        <time>2013-03-03T13:34:21.000Z</time>
      </trkpt>
      <trkpt lat="48.82855" lon="2.3165">
        <ele>113.5</ele>
        <time>2013-03-03T13:34:22.000Z</time>
      </trkpt>
      <trkpt lat="48.82853" lon="2.31646">
        <ele>113.4</ele>
        <time>2013-03-03T13:34:23.000Z</time>
      </trkpt>
      <trkpt lat="48.8285" lon="2.31642">
        <ele>114.1</ele>
        <time>2013-03-03T13:34:24.000Z</time>
      </trkpt>
      <trkpt lat="48.82848" lon="2.31638">
        <ele>113.1</ele>
        <time>2013-03-03T13:34:25.000Z</time>
      </trkpt>
      <trkpt lat="48.82846" lon="2.31634">
        <ele>112.6</ele>
        <time>2013-03-03T13:34:26.000Z</time>
      </trkpt>
      <trkpt lat="48.82844" lon="2.3163">
        <ele>112.6</ele>
        <time>2013-03-03T13:34:27.000Z</time>
      </trkpt>
      <trkpt lat="48.82843" lon="2.31626">
        <ele>112.8</ele>
        <time>2013-03-03T13:34:28.000Z</time>
      </trkpt>
      <trkpt lat="48.82841" lon="2.31623">
        <ele>111.6</ele>
        <time>2013-03-03T13:34:29.000Z</time>
      </trkpt>
      <trkpt lat="48.8284" lon="2.31619">
        <ele>110.3</ele>
        <time>2013-03-03T13:34:30.000Z</time>
      </trkpt>
      <trkpt lat="48.82838" lon="2.31617">
        <ele>109.4</ele>
        <time>2013-03-03T13:34:31.000Z</time>
      </trkpt>
      <trkpt lat="48.82835" lon="2.31614">
        <ele>110.3</ele>
        <time>2013-03-03T13:34:32.000Z</time>
      </trkpt>
      <trkpt lat="48.82833" lon="2.31611">
        <ele>109.4</ele>
        <time>2013-03-03T13:34:33.000Z</time>
      </trkpt>
      <trkpt lat="48.82831" lon="2.31609">
        <ele>109</ele>
        <time>2013-03-03T13:34:34.000Z</time>
      </trkpt>
      <trkpt lat="48.82828" lon="2.31606">
        <ele>108.9</ele>
        <time>2013-03-03T13:34:35.000Z</time>
      </trkpt>
      <trkpt lat="48.82826" lon="2.31603">
        <ele>108.5</ele>
        <time>2013-03-03T13:34:36.000Z</time>
      </trkpt>
      <trkpt lat="48.82824" lon="2.31601">
        <ele>108.7</ele>
        <time>2013-03-03T13:34:37.000Z</time>
      </trkpt>
      <trkpt lat="48.82822" lon="2.31598">
        <ele>107.9</ele>
        <time>2013-03-03T13:34:38.000Z</time>
      </trkpt>
      <trkpt lat="48.8282" lon="2.31596">
        <ele>109.1</ele>
        <time>2013-03-03T13:34:39.000Z</time>
      </trkpt>
      <trkpt lat="48.82817" lon="2.31591">
        <ele>108.6</ele>
        <time>2013-03-03T13:34:41.000Z</time>
      </trkpt>
      <trkpt lat="48.82816" lon="2.31588">
        <ele>108.7</ele>
        <time>2013-03-03T13:34:42.000Z</time>
      </trkpt>
      <trkpt lat="48.82814" lon="2.31585">
        <ele>108.3</ele>
        <time>2013-03-03T13:34:43.000Z</time>
      </trkpt>
      <trkpt lat="48.82813" lon="2.31582">
        <ele>107.8</ele>
        <time>2013-03-03T13:34:44.000Z</time>
      </trkpt>
      <trkpt lat="48.82811" lon="2.31578">
        <ele>109</ele>
        <time>2013-03-03T13:34:45.000Z</time>
      </trkpt>
      <trkpt lat="48.8281" lon="2.31575">
        <ele>108.3</ele>
        <time>2013-03-03T13:34:46.000Z</time>
      </trkpt>
      <trkpt lat="48.82809" lon="2.31571">
        <ele>108.6</ele>
        <time>2013-03-03T13:34:47.000Z</time>
      </trkpt>
      <trkpt lat="48.82809" lon="2.31566">
        <ele>107.7</ele>
        <time>2013-03-03T13:34:48.000Z</time>
      </trkpt>
      <trkpt lat="48.82808" lon="2.31561">
        <ele>106.7</ele>
        <time>2013-03-03T13:34:49.000Z</time>
      </trkpt>
      <trkpt lat="48.82807" lon="2.31556">
        <ele>106.6</ele>
        <time>2013-03-03T13:34:50.000Z</time>
      </trkpt>
      <trkpt lat="48.82805" lon="2.31553">
        <ele>107</ele>
        <time>2013-03-03T13:34:51.000Z</time>
      </trkpt>
      <trkpt lat="48.82803" lon="2.3155">
        <ele>107.4</ele>
        <time>2013-03-03T13:34:52.000Z</time>
      </trkpt>
      <trkpt lat="48.82801" lon="2.31548">
        <ele>107.3</ele>
        <time>2013-03-03T13:34:53.000Z</time>
      </trkpt>
      <trkpt lat="48.82798" lon="2.31546">
        <ele>107.3</ele>
        <time>2013-03-03T13:34:54.000Z</time>
      </trkpt>
      <trkpt lat="48.82796" lon="2.31545">
        <ele>106.4</ele>
        <time>2013-03-03T13:34:55.000Z</time>
      </trkpt>
      <trkpt lat="48.82793" lon="2.31543">
        <ele>106.5</ele>
        <time>2013-03-03T13:34:56.000Z</time>
      </trkpt>
      <trkpt lat="48.82791" lon="2.3154">
        <ele>106.8</ele>
        <time>2013-03-03T13:34:57.000Z</time>
      </trkpt>
      <trkpt lat="48.82789" lon="2.31538">
        <ele>106.3</ele>
        <time>2013-03-03T13:34:58.000Z</time>
      </trkpt>
      <trkpt lat="48.82786" lon="2.31535">
        <ele>105.1</ele>
        <time>2013-03-03T13:34:59.000Z</time>
      </trkpt>
      <trkpt lat="48.82784" lon="2.31533">
        <ele>104.9</ele>
        <time>2013-03-03T13:35:00.000Z</time>
      </trkpt>
      <trkpt lat="48.82782" lon="2.3153">
        <ele>104.8</ele>
        <time>2013-03-03T13:35:01.000Z</time>
      </trkpt>
      <trkpt lat="48.8278" lon="2.31529">
        <ele>106.6</ele>
        <time>2013-03-03T13:35:02.000Z</time>
      </trkpt>
      <trkpt lat="48.82777" lon="2.3153">
        <ele>104.8</ele>
        <time>2013-03-03T13:35:04.000Z</time>
      </trkpt>
      <trkpt lat="48.82775" lon="2.31531">
        <ele>105.5</ele>
        <time>2013-03-03T13:35:05.000Z</time>
      </trkpt>
      <trkpt lat="48.82772" lon="2.31534">
        <ele>106.6</ele>
        <time>2013-03-03T13:35:07.000Z</time>
      </trkpt>
      <trkpt lat="48.82771" lon="2.31535">
        <ele>106.5</ele>
        <time>2013-03-03T13:35:08.000Z</time>
      </trkpt>
      <trkpt lat="48.8277" lon="2.31541">
        <ele>107.8</ele>
        <time>2013-03-03T13:35:11.000Z</time>
      </trkpt>
      <trkpt lat="48.8277" lon="2.31542">
        <ele>107.1</ele>
        <time>2013-03-03T13:35:12.000Z</time>
      </trkpt>
      <trkpt lat="48.82769" lon="2.31548">
        <ele>105.6</ele>
        <time>2013-03-03T13:35:15.000Z</time>
      </trkpt>
      <trkpt lat="48.82768" lon="2.3155">
        <ele>105</ele>
        <time>2013-03-03T13:35:16.000Z</time>
      </trkpt>
      <trkpt lat="48.82765" lon="2.31555">
        <ele>106.4</ele>
        <time>2013-03-03T13:35:18.000Z</time>
      </trkpt>
      <trkpt lat="48.82764" lon="2.31558">
        <ele>106.8</ele>
        <time>2013-03-03T13:35:19.000Z</time>
      </trkpt>
      <trkpt lat="48.82762" lon="2.31561">
        <ele>105.6</ele>
        <time>2013-03-03T13:35:20.000Z</time>
      </trkpt>
      <trkpt lat="48.8276" lon="2.31564">
        <ele>105.4</ele>
        <time>2013-03-03T13:35:21.000Z</time>
      </trkpt>
      <trkpt lat="48.82758" lon="2.31566">
        <ele>106</ele>
        <time>2013-03-03T13:35:22.000Z</time>
      </trkpt>
      <trkpt lat="48.82755" lon="2.31569">
        <ele>106</ele>
        <time>2013-03-03T13:35:23.000Z</time>
      </trkpt>
      <trkpt lat="48.82753" lon="2.31571">
        <ele>105.5</ele>
        <time>2013-03-03T13:35:24.000Z</time>
      </trkpt>
      <trkpt lat="48.82751" lon="2.31573">
        <ele>108.9</ele>
        <time>2013-03-03T13:35:25.000Z</time>
      </trkpt>
      <trkpt lat="48.82747" lon="2.31576">
        <ele>108.6</ele>
        <time>2013-03-03T13:35:28.000Z</time>
      </trkpt>
      <trkpt lat="48.82746" lon="2.31578">
        <ele>108.4</ele>
        <time>2013-03-03T13:35:29.000Z</time>
      </trkpt>
      <trkpt lat="48.82744" lon="2.31583">
        <ele>108.1</ele>
        <time>2013-03-03T13:35:31.000Z</time>
      </trkpt>
      <trkpt lat="48.82742" lon="2.31586">
        <ele>107.9</ele>
        <time>2013-03-03T13:35:32.000Z</time>
      </trkpt>
      <trkpt lat="48.8274" lon="2.31591">
        <ele>107.9</ele>
        <time>2013-03-03T13:35:34.000Z</time>
      </trkpt>
      <trkpt lat="48.82738" lon="2.31594">
        <ele>108.7</ele>
        <time>2013-03-03T13:35:35.000Z</time>
      </trkpt>
      <trkpt lat="48.82736" lon="2.31596">
        <ele>110</ele>
        <time>2013-03-03T13:35:36.000Z</time>
      </trkpt>
      <trkpt lat="48.82734" lon="2.31598">
        <ele>110.6</ele>
        <time>2013-03-03T13:35:37.000Z</time>
      </trkpt>
      <trkpt lat="48.82733" lon="2.316">
        <ele>110.1</ele>
        <time>2013-03-03T13:35:38.000Z</time>
      </trkpt>
      <trkpt lat="48.82731" lon="2.31603">
        <ele>109.9</ele>
        <time>2013-03-03T13:35:39.000Z</time>
      </trkpt>
      <trkpt lat="48.82729" lon="2.31605">
        <ele>110</ele>
        <time>2013-03-03T13:35:40.000Z</time>
      </trkpt>
      <trkpt lat="48.82728" lon="2.31608">
        <ele>109.9</ele>
        <time>2013-03-03T13:35:41.000Z</time>
      </trkpt>
      <trkpt lat="48.82726" lon="2.31611">
        <ele>110</ele>
        <time>2013-03-03T13:35:42.000Z</time>
      </trkpt>
      <trkpt lat="48.82724" lon="2.31613">
        <ele>109.9</ele>
        <time>2013-03-03T13:35:43.000Z</time>
      </trkpt>
      <trkpt lat="48.82722" lon="2.31615">
        <ele>109.9</ele>
        <time>2013-03-03T13:35:44.000Z</time>
      </trkpt>
      <trkpt lat="48.82719" lon="2.31617">
        <ele>111.3</ele>
        <time>2013-03-03T13:35:45.000Z</time>
      </trkpt>
      <trkpt lat="48.82716" lon="2.3162">
        <ele>113.2</ele>
        <time>2013-03-03T13:35:46.000Z</time>
      </trkpt>
      <trkpt lat="48.82713" lon="2.31623">
        <ele>114</ele>
        <time>2013-03-03T13:35:47.000Z</time>
      </trkpt>
      <trkpt lat="48.82711" lon="2.31627">
        <ele>114.8</ele>
        <time>2013-03-03T13:35:48.000Z</time>
      </trkpt>
      <trkpt lat="48.82709" lon="2.31631">
        <ele>116.6</ele>
        <time>2013-03-03T13:35:49.000Z</time>
      </trkpt>
      <trkpt lat="48.82707" lon="2.31635">
        <ele>118.1</ele>
        <time>2013-03-03T13:35:50.000Z</time>
      </trkpt>
      <trkpt lat="48.82706" lon="2.31639">
        <ele>119</ele>
        <time>2013-03-03T13:35:51.000Z</time>
      </trkpt>
      <trkpt lat="48.82704" lon="2.31644">
        <ele>118.5</ele>
        <time>2013-03-03T13:35:52.000Z</time>
      </trkpt>
      <trkpt lat="48.82704" lon="2.31648">
        <ele>120</ele>
        <time>2013-03-03T13:35:53.000Z</time>
      </trkpt>
      <trkpt lat="48.82704" lon="2.31652">
        <ele>119.8</ele>
        <time>2013-03-03T13:35:55.000Z</time>
      </trkpt>
      <trkpt lat="48.82703" lon="2.31655">
        <ele>119.7</ele>
        <time>2013-03-03T13:35:56.000Z</time>
      </trkpt>
      <trkpt lat="48.82702" lon="2.31657">
        <ele>120.9</ele>
        <time>2013-03-03T13:35:57.000Z</time>
      </trkpt>
      <trkpt lat="48.827" lon="2.31661">
        <ele>122</ele>
        <time>2013-03-03T13:35:58.000Z</time>
      </trkpt>
      <trkpt lat="48.82699" lon="2.31665">
        <ele>120.2</ele>
        <time>2013-03-03T13:35:59.000Z</time>
      </trkpt>
      <trkpt lat="48.82697" lon="2.31669">
        <ele>119.8</ele>
        <time>2013-03-03T13:36:00.000Z</time>
      </trkpt>
      <trkpt lat="48.82695" lon="2.31673">
        <ele>120.2</ele>
        <time>2013-03-03T13:36:01.000Z</time>
      </trkpt>
      <trkpt lat="48.82694" lon="2.31676">
        <ele>119.7</ele>
        <time>2013-03-03T13:36:02.000Z</time>
      </trkpt>
      <trkpt lat="48.82692" lon="2.3168">
        <ele>118.7</ele>
        <time>2013-03-03T13:36:03.000Z</time>
      </trkpt>
      <trkpt lat="48.8269" lon="2.31683">
        <ele>117.8</ele>
        <time>2013-03-03T13:36:04.000Z</time>
      </trkpt>
      <trkpt lat="48.82688" lon="2.31686">
        <ele>115.5</ele>
        <time>2013-03-03T13:36:05.000Z</time>
      </trkpt>
      <trkpt lat="48.82688" lon="2.3169">
        <ele>115.3</ele>
        <time>2013-03-03T13:36:06.000Z</time>
      </trkpt>
      <trkpt lat="48.82687" lon="2.31693">
        <ele>115.3</ele>
        <time>2013-03-03T13:36:07.000Z</time>
      </trkpt>
      <trkpt lat="48.82686" lon="2.31697">
        <ele>115.4</ele>
        <time>2013-03-03T13:36:08.000Z</time>
      </trkpt>
      <trkpt lat="48.82685" lon="2.31701">
        <ele>115.8</ele>
        <time>2013-03-03T13:36:09.000Z</time>
      </trkpt>
      <trkpt lat="48.82684" lon="2.31705">
        <ele>116.7</ele>
        <time>2013-03-03T13:36:10.000Z</time>
      </trkpt>
      <trkpt lat="48.82683" lon="2.31709">
        <ele>115.8</ele>
        <time>2013-03-03T13:36:11.000Z</time>
      </trkpt>
      <trkpt lat="48.82682" lon="2.31713">
        <ele>114.5</ele>
        <time>2013-03-03T13:36:12.000Z</time>
      </trkpt>
      <trkpt lat="48.82681" lon="2.31717">
        <ele>114.5</ele>
        <time>2013-03-03T13:36:13.000Z</time>
      </trkpt>
      <trkpt lat="48.8268" lon="2.31721">
        <ele>114.9</ele>
        <time>2013-03-03T13:36:14.000Z</time>
      </trkpt>
      <trkpt lat="48.82679" lon="2.31726">
        <ele>114.7</ele>
        <time>2013-03-03T13:36:15.000Z</time>
      </trkpt>
      <trkpt lat="48.82677" lon="2.31729">
        <ele>115.1</ele>
        <time>2013-03-03T13:36:16.000Z</time>
      </trkpt>
      <trkpt lat="48.82676" lon="2.31733">
        <ele>114.4</ele>
        <time>2013-03-03T13:36:17.000Z</time>
      </trkpt>
      <trkpt lat="48.82675" lon="2.31736">
        <ele>114.2</ele>
        <time>2013-03-03T13:36:18.000Z</time>
      </trkpt>
      <trkpt lat="48.82674" lon="2.31742">
        <ele>115</ele>
        <time>2013-03-03T13:36:20.000Z</time>
      </trkpt>
      <trkpt lat="48.82674" lon="2.31745">
        <ele>114.8</ele>
        <time>2013-03-03T13:36:21.000Z</time>
      </trkpt>
      <trkpt lat="48.82674" lon="2.31749">
        <ele>114.7</ele>
        <time>2013-03-03T13:36:22.000Z</time>
      </trkpt>
      <trkpt lat="48.82673" lon="2.31752">
        <ele>113.8</ele>
        <time>2013-03-03T13:36:23.000Z</time>
      </trkpt>
      <trkpt lat="48.82673" lon="2.31756">
        <ele>113.3</ele>
        <time>2013-03-03T13:36:24.000Z</time>
      </trkpt>
      <trkpt lat="48.82672" lon="2.3176">
        <ele>113.3</ele>
        <time>2013-03-03T13:36:25.000Z</time>
      </trkpt>
      <trkpt lat="48.82671" lon="2.31764">
        <ele>112.1</ele>
        <time>2013-03-03T13:36:26.000Z</time>
      </trkpt>
      <trkpt lat="48.8267" lon="2.31768">
        <ele>112.1</ele>
        <time>2013-03-03T13:36:27.000Z</time>
      </trkpt>
      <trkpt lat="48.82669" lon="2.31772">
        <ele>111.6</ele>
        <time>2013-03-03T13:36:28.000Z</time>
      </trkpt>
      <trkpt lat="48.82667" lon="2.31776">
        <ele>111.2</ele>
        <time>2013-03-03T13:36:29.000Z</time>
      </trkpt>
      <trkpt lat="48.82666" lon="2.31779">
        <ele>110.9</ele>
        <time>2013-03-03T13:36:30.000Z</time>
      </trkpt>
      <trkpt lat="48.82666" lon="2.31783">
        <ele>110.2</ele>
        <time>2013-03-03T13:36:31.000Z</time>
      </trkpt>
      <trkpt lat="48.82666" lon="2.31787">
        <ele>110.5</ele>
        <time>2013-03-03T13:36:32.000Z</time>
      </trkpt>
      <trkpt lat="48.82667" lon="2.31791">
        <ele>110.2</ele>
        <time>2013-03-03T13:36:33.000Z</time>
      </trkpt>
      <trkpt lat="48.82667" lon="2.31795">
        <ele>109.8</ele>
        <time>2013-03-03T13:36:35.000Z</time>
      </trkpt>
      <trkpt lat="48.82666" lon="2.31799">
        <ele>110.5</ele>
        <time>2013-03-03T13:36:36.000Z</time>
      </trkpt>
      <trkpt lat="48.82666" lon="2.31802">
        <ele>110.4</ele>
        <time>2013-03-03T13:36:37.000Z</time>
      </trkpt>
      <trkpt lat="48.82666" lon="2.31806">
        <ele>109.5</ele>
        <time>2013-03-03T13:36:38.000Z</time>
      </trkpt>
      <trkpt lat="48.82665" lon="2.3181">
        <ele>110.1</ele>
        <time>2013-03-03T13:36:39.000Z</time>
      </trkpt>
      <trkpt lat="48.82664" lon="2.31814">
        <ele>110.4</ele>
        <time>2013-03-03T13:36:40.000Z</time>
      </trkpt>
      <trkpt lat="48.82662" lon="2.31819">
        <ele>110.5</ele>
        <time>2013-03-03T13:36:41.000Z</time>
      </trkpt>
      <trkpt lat="48.8266" lon="2.31824">
        <ele>110.5</ele>
        <time>2013-03-03T13:36:42.000Z</time>
      </trkpt>
      <trkpt lat="48.82658" lon="2.31829">
        <ele>110.1</ele>
        <time>2013-03-03T13:36:43.000Z</time>
      </trkpt>
      <trkpt lat="48.82656" lon="2.31835">
        <ele>110.8</ele>
        <time>2013-03-03T13:36:44.000Z</time>
      </trkpt>
      <trkpt lat="48.82655" lon="2.3184">
        <ele>111.4</ele>
        <time>2013-03-03T13:36:45.000Z</time>
      </trkpt>
      <trkpt lat="48.82653" lon="2.31845">
        <ele>111.8</ele>
        <time>2013-03-03T13:36:46.000Z</time>
      </trkpt>
      <trkpt lat="48.82651" lon="2.31851">
        <ele>105.4</ele>
        <time>2013-03-03T13:36:47.000Z</time>
      </trkpt>
      <trkpt lat="48.82649" lon="2.31856">
        <ele>105.6</ele>
        <time>2013-03-03T13:36:48.000Z</time>
      </trkpt>
      <trkpt lat="48.82648" lon="2.31862">
        <ele>105</ele>
        <time>2013-03-03T13:36:49.000Z</time>
      </trkpt>
      <trkpt lat="48.82647" lon="2.31868">
        <ele>104.3</ele>
        <time>2013-03-03T13:36:50.000Z</time>
      </trkpt>
      <trkpt lat="48.82646" lon="2.31874">
        <ele>104.7</ele>
        <time>2013-03-03T13:36:51.000Z</time>
      </trkpt>
      <trkpt lat="48.82644" lon="2.31881">
        <ele>104.4</ele>
        <time>2013-03-03T13:36:52.000Z</time>
      </trkpt>
      <trkpt lat="48.82643" lon="2.31886">
        <ele>104.4</ele>
        <time>2013-03-03T13:36:53.000Z</time>
      </trkpt>
      <trkpt lat="48.82642" lon="2.31893">
        <ele>102.7</ele>
        <time>2013-03-03T13:36:54.000Z</time>
      </trkpt>
      <trkpt lat="48.8264" lon="2.31899">
        <ele>102.4</ele>
        <time>2013-03-03T13:36:55.000Z</time>
      </trkpt>
      <trkpt lat="48.82639" lon="2.31905">
        <ele>102</ele>
        <time>2013-03-03T13:36:56.000Z</time>
      </trkpt>
      <trkpt lat="48.82638" lon="2.3191">
        <ele>101.9</ele>
        <time>2013-03-03T13:36:57.000Z</time>
      </trkpt>
      <trkpt lat="48.82636" lon="2.31915">
        <ele>102.9</ele>
        <time>2013-03-03T13:36:58.000Z</time>
      </trkpt>
      <trkpt lat="48.82635" lon="2.3192">
        <ele>104.2</ele>
        <time>2013-03-03T13:36:59.000Z</time>
      </trkpt>
      <trkpt lat="48.82634" lon="2.31924">
        <ele>104.3</ele>
        <time>2013-03-03T13:37:00.000Z</time>
      </trkpt>
      <trkpt lat="48.82633" lon="2.31928">
        <ele>103.9</ele>
        <time>2013-03-03T13:37:01.000Z</time>
      </trkpt>
      <trkpt lat="48.82632" lon="2.31931">
        <ele>104</ele>
        <time>2013-03-03T13:37:02.000Z</time>
      </trkpt>
      <trkpt lat="48.8263" lon="2.31937">
        <ele>104.5</ele>
        <time>2013-03-03T13:37:12.000Z</time>
      </trkpt>
      <trkpt lat="48.82628" lon="2.31937">
        <ele>104.2</ele>
        <time>2013-03-03T13:37:13.000Z</time>
      </trkpt>
      <trkpt lat="48.82625" lon="2.31939">
        <ele>104.7</ele>
        <time>2013-03-03T13:37:15.000Z</time>
      </trkpt>
      <trkpt lat="48.82623" lon="2.3194">
        <ele>104.6</ele>
        <time>2013-03-03T13:37:16.000Z</time>
      </trkpt>
      <trkpt lat="48.82621" lon="2.31945">
        <ele>104.5</ele>
        <time>2013-03-03T13:37:19.000Z</time>
      </trkpt>
      <trkpt lat="48.82621" lon="2.31947">
        <ele>105.6</ele>
        <time>2013-03-03T13:37:20.000Z</time>
      </trkpt>
      <trkpt lat="48.82621" lon="2.31953">
        <ele>106.3</ele>
        <time>2013-03-03T13:37:23.000Z</time>
      </trkpt>
      <trkpt lat="48.8262" lon="2.31956">
        <ele>106.4</ele>
        <time>2013-03-03T13:37:24.000Z</time>
      </trkpt>
      <trkpt lat="48.8262" lon="2.3196">
        <ele>106.8</ele>
        <time>2013-03-03T13:37:25.000Z</time>
      </trkpt>
      <trkpt lat="48.82619" lon="2.31964">
        <ele>107.5</ele>
        <time>2013-03-03T13:37:26.000Z</time>
      </trkpt>
      <trkpt lat="48.82618" lon="2.31968">
        <ele>109.7</ele>
        <time>2013-03-03T13:37:27.000Z</time>
      </trkpt>
      <trkpt lat="48.82617" lon="2.31972">
        <ele>110.5</ele>
        <time>2013-03-03T13:37:28.000Z</time>
      </trkpt>
      <trkpt lat="48.82616" lon="2.31976">
        <ele>110.9</ele>
        <time>2013-03-03T13:37:29.000Z</time>
      </trkpt>
      <trkpt lat="48.82615" lon="2.31979">
        <ele>111</ele>
        <time>2013-03-03T13:37:30.000Z</time>
      </trkpt>
      <trkpt lat="48.82614" lon="2.31982">
        <ele>110.6</ele>
        <time>2013-03-03T13:37:31.000Z</time>
      </trkpt>
      <trkpt lat="48.82613" lon="2.31987">
        <ele>110.6</ele>
        <time>2013-03-03T13:37:32.000Z</time>
      </trkpt>
      <trkpt lat="48.82611" lon="2.31992">
        <ele>110.4</ele>
        <time>2013-03-03T13:37:33.000Z</time>
      </trkpt>
      <trkpt lat="48.82609" lon="2.31998">
        <ele>113</ele>
        <time>2013-03-03T13:37:34.000Z</time>
      </trkpt>
      <trkpt lat="48.82608" lon="2.32004">
        <ele>113.7</ele>
        <time>2013-03-03T13:37:35.000Z</time>
      </trkpt>
      <trkpt lat="48.82606" lon="2.3201">
        <ele>115.5</ele>
        <time>2013-03-03T13:37:36.000Z</time>
      </trkpt>
      <trkpt lat="48.82605" lon="2.32015">
        <ele>117.2</ele>
        <time>2013-03-03T13:37:37.000Z</time>
      </trkpt>
      <trkpt lat="48.82604" lon="2.32021">
        <ele>110.6</ele>
        <time>2013-03-03T13:37:38.000Z</time>
      </trkpt>
      <trkpt lat="48.82602" lon="2.32026">
        <ele>112.1</ele>
        <time>2013-03-03T13:37:39.000Z</time>
      </trkpt>
      <trkpt lat="48.82601" lon="2.32031">
        <ele>113.3</ele>
        <time>2013-03-03T13:37:40.000Z</time>
      </trkpt>
      <trkpt lat="48.826" lon="2.32036">
        <ele>111.6</ele>
        <time>2013-03-03T13:37:41.000Z</time>
      </trkpt>
      <trkpt lat="48.82599" lon="2.32042">
        <ele>112.3</ele>
        <time>2013-03-03T13:37:42.000Z</time>
      </trkpt>
      <trkpt lat="48.82599" lon="2.32047">
        <ele>112.2</ele>
        <time>2013-03-03T13:37:43.000Z</time>
      </trkpt>
      <trkpt lat="48.82599" lon="2.32052">
        <ele>110.1</ele>
        <time>2013-03-03T13:37:44.000Z</time>
      </trkpt>
      <trkpt lat="48.82598" lon="2.32056">
        <ele>110.4</ele>
        <time>2013-03-03T13:37:45.000Z</time>
      </trkpt>
      <trkpt lat="48.82598" lon="2.3206">
        <ele>110.5</ele>
        <time>2013-03-03T13:37:46.000Z</time>
      </trkpt>
      <trkpt lat="48.82598" lon="2.32063">
        <ele>112.1</ele>
        <time>2013-03-03T13:37:47.000Z</time>
      </trkpt>
      <trkpt lat="48.82598" lon="2.32067">
        <ele>112.6</ele>
        <time>2013-03-03T13:37:48.000Z</time>
      </trkpt>
      <trkpt lat="48.82598" lon="2.3207">
        <ele>113.1</ele>
        <time>2013-03-03T13:37:49.000Z</time>
      </trkpt>
      <trkpt lat="48.82597" lon="2.32074">
        <ele>112.9</ele>
        <time>2013-03-03T13:37:50.000Z</time>
      </trkpt>
      <trkpt lat="48.82596" lon="2.32078">
        <ele>111.1</ele>
        <time>2013-03-03T13:37:51.000Z</time>
      </trkpt>
      <trkpt lat="48.82594" lon="2.32081">
        <ele>111.5</ele>
        <time>2013-03-03T13:37:52.000Z</time>
      </trkpt>
      <trkpt lat="48.82593" lon="2.32084">
        <ele>110.6</ele>
        <time>2013-03-03T13:37:53.000Z</time>
      </trkpt>
      <trkpt lat="48.82592" lon="2.32088">
        <ele>110.4</ele>
        <time>2013-03-03T13:37:54.000Z</time>
      </trkpt>
      <trkpt lat="48.82591" lon="2.32092">
        <ele>110.6</ele>
        <time>2013-03-03T13:37:55.000Z</time>
      </trkpt>
      <trkpt lat="48.82589" lon="2.32096">
        <ele>110.4</ele>
        <time>2013-03-03T13:37:56.000Z</time>
      </trkpt>
      <trkpt lat="48.82588" lon="2.32099">
        <ele>110.3</ele>
        <time>2013-03-03T13:37:57.000Z</time>
      </trkpt>
      <trkpt lat="48.82588" lon="2.32102">
        <ele>109.9</ele>
        <time>2013-03-03T13:37:58.000Z</time>
      </trkpt>
      <trkpt lat="48.82586" lon="2.32108">
        <ele>106.4</ele>
        <time>2013-03-03T13:38:00.000Z</time>
      </trkpt>
      <trkpt lat="48.82585" lon="2.3211">
        <ele>107</ele>
        <time>2013-03-03T13:38:01.000Z</time>
      </trkpt>
      <trkpt lat="48.82584" lon="2.32114">
        <ele>105.4</ele>
        <time>2013-03-03T13:38:02.000Z</time>
      </trkpt>
      <trkpt lat="48.82583" lon="2.32117">
        <ele>105.6</ele>
        <time>2013-03-03T13:38:03.000Z</time>
      </trkpt>
      <trkpt lat="48.82582" lon="2.3212">
        <ele>106.5</ele>
        <time>2013-03-03T13:38:04.000Z</time>
      </trkpt>
      <trkpt lat="48.8258" lon="2.32122">
        <ele>107.5</ele>
        <time>2013-03-03T13:38:05.000Z</time>
      </trkpt>
      <trkpt lat="48.82576" lon="2.32124">
        <ele>106.2</ele>
        <time>2013-03-03T13:38:07.000Z</time>
      </trkpt>
      <trkpt lat="48.82574" lon="2.32123">
        <ele>106.4</ele>
        <time>2013-03-03T13:38:08.000Z</time>
      </trkpt>
      <trkpt lat="48.82571" lon="2.32125">
        <ele>107.5</ele>
        <time>2013-03-03T13:38:11.000Z</time>
      </trkpt>
      <trkpt lat="48.8257" lon="2.32127">
        <ele>108.1</ele>
        <time>2013-03-03T13:38:12.000Z</time>
      </trkpt>
      <trkpt lat="48.82566" lon="2.32129">
        <ele>105.7</ele>
        <time>2013-03-03T13:38:20.000Z</time>
      </trkpt>
      <trkpt lat="48.82565" lon="2.32129">
        <ele>105.7</ele>
        <time>2013-03-03T13:38:21.000Z</time>
      </trkpt>
      <trkpt lat="48.82563" lon="2.32125">
        <ele>109.3</ele>
        <time>2013-03-03T13:38:43.000Z</time>
      </trkpt>
      <trkpt lat="48.82562" lon="2.32125">
        <ele>109.5</ele>
        <time>2013-03-03T13:38:44.000Z</time>
      </trkpt>
      <trkpt lat="48.82558" lon="2.32126">
        <ele>114</ele>
        <time>2013-03-03T13:39:40.000Z</time>
      </trkpt>
      <trkpt lat="48.82557" lon="2.32127">
        <ele>109.9</ele>
        <time>2013-03-03T13:39:41.000Z</time>
      </trkpt>
      <trkpt lat="48.82554" lon="2.32131">
        <ele>115.7</ele>
        <time>2013-03-03T13:39:44.000Z</time>
      </trkpt>
      <trkpt lat="48.82553" lon="2.32132">
        <ele>114.9</ele>
        <time>2013-03-03T13:39:45.000Z</time>
      </trkpt>
      <trkpt lat="48.82551" lon="2.32136">
        <ele>114.2</ele>
        <time>2013-03-03T13:39:50.000Z</time>
      </trkpt>
      <trkpt lat="48.8255" lon="2.32138">
        <ele>113.3</ele>
        <time>2013-03-03T13:39:51.000Z</time>
      </trkpt>
      <trkpt lat="48.82549" lon="2.32142">
        <ele>113.1</ele>
        <time>2013-03-03T13:39:52.000Z</time>
      </trkpt>
      <trkpt lat="48.82548" lon="2.32146">
        <ele>113.1</ele>
        <time>2013-03-03T13:39:53.000Z</time>
      </trkpt>
      <trkpt lat="48.82547" lon="2.32151">
        <ele>113</ele>
        <time>2013-03-03T13:39:54.000Z</time>
      </trkpt>
      <trkpt lat="48.82546" lon="2.32155">
        <ele>112.9</ele>
        <time>2013-03-03T13:39:55.000Z</time>
      </trkpt>
      <trkpt lat="48.82545" lon="2.3216">
        <ele>110.5</ele>
        <time>2013-03-03T13:39:56.000Z</time>
      </trkpt>
      <trkpt lat="48.82544" lon="2.32164">
        <ele>110.5</ele>
        <time>2013-03-03T13:39:57.000Z</time>
      </trkpt>
      <trkpt lat="48.82543" lon="2.32169">
        <ele>109.8</ele>
        <time>2013-03-03T13:39:58.000Z</time>
      </trkpt>
      <trkpt lat="48.82542" lon="2.32175">
        <ele>108.8</ele>
        <time>2013-03-03T13:39:59.000Z</time>
      </trkpt>
      <trkpt lat="48.82541" lon="2.32181">
        <ele>107.2</ele>
        <time>2013-03-03T13:40:00.000Z</time>
      </trkpt>
      <trkpt lat="48.8254" lon="2.32187">
        <ele>107.4</ele>
        <time>2013-03-03T13:40:01.000Z</time>
      </trkpt>
      <trkpt lat="48.82539" lon="2.32193">
        <ele>108.1</ele>
        <time>2013-03-03T13:40:02.000Z</time>
      </trkpt>
      <trkpt lat="48.82538" lon="2.32198">
        <ele>107</ele>
        <time>2013-03-03T13:40:03.000Z</time>
      </trkpt>
      <trkpt lat="48.82537" lon="2.32204">
        <ele>107.6</ele>
        <time>2013-03-03T13:40:04.000Z</time>
      </trkpt>
      <trkpt lat="48.82535" lon="2.32209">
        <ele>107.3</ele>
        <time>2013-03-03T13:40:05.000Z</time>
      </trkpt>
      <trkpt lat="48.82534" lon="2.32214">
        <ele>107.3</ele>
        <time>2013-03-03T13:40:06.000Z</time>
      </trkpt>
      <trkpt lat="48.82533" lon="2.32219">
        <ele>107.7</ele>
        <time>2013-03-03T13:40:07.000Z</time>
      </trkpt>
      <trkpt lat="48.82531" lon="2.32224">
        <ele>106.9</ele>
        <time>2013-03-03T13:40:08.000Z</time>
      </trkpt>
      <trkpt lat="48.8253" lon="2.32229">
        <ele>107</ele>
        <time>2013-03-03T13:40:09.000Z</time>
      </trkpt>
      <trkpt lat="48.82529" lon="2.32234">
        <ele>107.3</ele>
        <time>2013-03-03T13:40:10.000Z</time>
      </trkpt>
      <trkpt lat="48.82528" lon="2.32239">
        <ele>107.2</ele>
        <time>2013-03-03T13:40:11.000Z</time>
      </trkpt>
      <trkpt lat="48.82527" lon="2.32244">
        <ele>106.4</ele>
        <time>2013-03-03T13:40:12.000Z</time>
      </trkpt>
      <trkpt lat="48.82526" lon="2.32249">
        <ele>105.9</ele>
        <time>2013-03-03T13:40:13.000Z</time>
      </trkpt>
      <trkpt lat="48.82525" lon="2.32254">
        <ele>107.2</ele>
        <time>2013-03-03T13:40:14.000Z</time>
      </trkpt>
      <trkpt lat="48.82524" lon="2.32258">
        <ele>107.4</ele>
        <time>2013-03-03T13:40:15.000Z</time>
      </trkpt>
      <trkpt lat="48.82523" lon="2.32264">
        <ele>107.7</ele>
        <time>2013-03-03T13:40:17.000Z</time>
      </trkpt>
      <trkpt lat="48.82523" lon="2.32267">
        <ele>108.1</ele>
        <time>2013-03-03T13:40:18.000Z</time>
      </trkpt>
      <trkpt lat="48.82522" lon="2.32271">
        <ele>107.5</ele>
        <time>2013-03-03T13:40:19.000Z</time>
      </trkpt>
      <trkpt lat="48.82521" lon="2.32275">
        <ele>107.3</ele>
        <time>2013-03-03T13:40:20.000Z</time>
      </trkpt>
      <trkpt lat="48.8252" lon="2.32279">
        <ele>106.5</ele>
        <time>2013-03-03T13:40:21.000Z</time>
      </trkpt>
      <trkpt lat="48.82518" lon="2.32283">
        <ele>107.2</ele>
        <time>2013-03-03T13:40:22.000Z</time>
      </trkpt>
      <trkpt lat="48.82517" lon="2.32287">
        <ele>106.9</ele>
        <time>2013-03-03T13:40:23.000Z</time>
      </trkpt>
      <trkpt lat="48.82516" lon="2.32291">
        <ele>108.1</ele>
        <time>2013-03-03T13:40:24.000Z</time>
      </trkpt>
      <trkpt lat="48.82515" lon="2.32296">
        <ele>108.5</ele>
        <time>2013-03-03T13:40:25.000Z</time>
      </trkpt>
      <trkpt lat="48.82513" lon="2.32302">
        <ele>107.7</ele>
        <time>2013-03-03T13:40:26.000Z</time>
      </trkpt>
      <trkpt lat="48.82511" lon="2.32308">
        <ele>108.1</ele>
        <time>2013-03-03T13:40:27.000Z</time>
      </trkpt>
      <trkpt lat="48.82509" lon="2.32314">
        <ele>108.1</ele>
        <time>2013-03-03T13:40:28.000Z</time>
      </trkpt>
      <trkpt lat="48.82508" lon="2.3232">
        <ele>108.7</ele>
        <time>2013-03-03T13:40:29.000Z</time>
      </trkpt>
      <trkpt lat="48.82506" lon="2.32327">
        <ele>108.6</ele>
        <time>2013-03-03T13:40:30.000Z</time>
      </trkpt>
      <trkpt lat="48.82505" lon="2.32333">
        <ele>107.8</ele>
        <time>2013-03-03T13:40:31.000Z</time>
      </trkpt>
      <trkpt lat="48.82503" lon="2.32339">
        <ele>108.5</ele>
        <time>2013-03-03T13:40:32.000Z</time>
      </trkpt>
      <trkpt lat="48.82502" lon="2.32346">
        <ele>109.2</ele>
        <time>2013-03-03T13:40:33.000Z</time>
      </trkpt>
      <trkpt lat="48.825" lon="2.32352">
        <ele>109</ele>
        <time>2013-03-03T13:40:34.000Z</time>
      </trkpt>
      <trkpt lat="48.82499" lon="2.32358">
        <ele>109.3</ele>
        <time>2013-03-03T13:40:35.000Z</time>
      </trkpt>
      <trkpt lat="48.82498" lon="2.32365">
        <ele>109.9</ele>
        <time>2013-03-03T13:40:36.000Z</time>
      </trkpt>
      <trkpt lat="48.82497" lon="2.32371">
        <ele>110.2</ele>
        <time>2013-03-03T13:40:37.000Z</time>
      </trkpt>
      <trkpt lat="48.82496" lon="2.32377">
        <ele>111</ele>
        <time>2013-03-03T13:40:38.000Z</time>
      </trkpt>
      <trkpt lat="48.82494" lon="2.32382">
        <ele>110.7</ele>
        <time>2013-03-03T13:40:39.000Z</time>
      </trkpt>
      <trkpt lat="48.82493" lon="2.32387">
        <ele>111.3</ele>
        <time>2013-03-03T13:40:40.000Z</time>
      </trkpt>
      <trkpt lat="48.82491" lon="2.32392">
        <ele>112.3</ele>
        <time>2013-03-03T13:40:41.000Z</time>
      </trkpt>
      <trkpt lat="48.8249" lon="2.32398">
        <ele>113.1</ele>
        <time>2013-03-03T13:40:42.000Z</time>
      </trkpt>
      <trkpt lat="48.82489" lon="2.32404">
        <ele>113.7</ele>
        <time>2013-03-03T13:40:43.000Z</time>
      </trkpt>
      <trkpt lat="48.82488" lon="2.3241">
        <ele>114.8</ele>
        <time>2013-03-03T13:40:44.000Z</time>
      </trkpt>
      <trkpt lat="48.82487" lon="2.32417">
        <ele>115</ele>
        <time>2013-03-03T13:40:45.000Z</time>
      </trkpt>
      <trkpt lat="48.82486" lon="2.32423">
        <ele>115.1</ele>
        <time>2013-03-03T13:40:46.000Z</time>
      </trkpt>
      <trkpt lat="48.82485" lon="2.32429">
        <ele>115.3</ele>
        <time>2013-03-03T13:40:47.000Z</time>
      </trkpt>
      <trkpt lat="48.82483" lon="2.32435">
        <ele>115.4</ele>
        <time>2013-03-03T13:40:48.000Z</time>
      </trkpt>
      <trkpt lat="48.82482" lon="2.32441">
        <ele>115.4</ele>
        <time>2013-03-03T13:40:49.000Z</time>
      </trkpt>
      <trkpt lat="48.82481" lon="2.32447">
        <ele>114.3</ele>
        <time>2013-03-03T13:40:50.000Z</time>
      </trkpt>
      <trkpt lat="48.8248" lon="2.32452">
        <ele>112.8</ele>
        <time>2013-03-03T13:40:51.000Z</time>
      </trkpt>
      <trkpt lat="48.82479" lon="2.32456">
        <ele>112.6</ele>
        <time>2013-03-03T13:40:52.000Z</time>
      </trkpt>
      <trkpt lat="48.82477" lon="2.32461">
        <ele>112.5</ele>
        <time>2013-03-03T13:40:53.000Z</time>
      </trkpt>
      <trkpt lat="48.82476" lon="2.32465">
        <ele>111</ele>
        <time>2013-03-03T13:40:54.000Z</time>
      </trkpt>
      <trkpt lat="48.82476" lon="2.32469">
        <ele>111</ele>
        <time>2013-03-03T13:40:55.000Z</time>
      </trkpt>
      <trkpt lat="48.82475" lon="2.32472">
        <ele>110.3</ele>
        <time>2013-03-03T13:40:56.000Z</time>
      </trkpt>
      <trkpt lat="48.82474" lon="2.32475">
        <ele>110</ele>
        <time>2013-03-03T13:40:57.000Z</time>
      </trkpt>
      <trkpt lat="48.82472" lon="2.32481">
        <ele>105.2</ele>
        <time>2013-03-03T13:40:59.000Z</time>
      </trkpt>
      <trkpt lat="48.82471" lon="2.32485">
        <ele>105.4</ele>
        <time>2013-03-03T13:41:00.000Z</time>
      </trkpt>
      <trkpt lat="48.8247" lon="2.32489">
        <ele>105.8</ele>
        <time>2013-03-03T13:41:01.000Z</time>
      </trkpt>
      <trkpt lat="48.82469" lon="2.32494">
        <ele>105.4</ele>
        <time>2013-03-03T13:41:02.000Z</time>
      </trkpt>
      <trkpt lat="48.82468" lon="2.325">
        <ele>105.2</ele>
        <time>2013-03-03T13:41:03.000Z</time>
      </trkpt>
      <trkpt lat="48.82467" lon="2.32506">
        <ele>105.8</ele>
        <time>2013-03-03T13:41:04.000Z</time>
      </trkpt>
      <trkpt lat="48.82466" lon="2.32512">
        <ele>106.5</ele>
        <time>2013-03-03T13:41:05.000Z</time>
      </trkpt>
      <trkpt lat="48.82464" lon="2.32517">
        <ele>106.6</ele>
        <time>2013-03-03T13:41:06.000Z</time>
      </trkpt>
      <trkpt lat="48.82463" lon="2.32523">
        <ele>106.4</ele>
        <time>2013-03-03T13:41:07.000Z</time>
      </trkpt>
      <trkpt lat="48.82462" lon="2.32529">
        <ele>107.5</ele>
        <time>2013-03-03T13:41:08.000Z</time>
      </trkpt>
      <trkpt lat="48.8246" lon="2.32535">
        <ele>107.7</ele>
        <time>2013-03-03T13:41:09.000Z</time>
      </trkpt>
      <trkpt lat="48.82459" lon="2.3254">
        <ele>106.1</ele>
        <time>2013-03-03T13:41:10.000Z</time>
      </trkpt>
      <trkpt lat="48.82458" lon="2.32545">
        <ele>105.2</ele>
        <time>2013-03-03T13:41:11.000Z</time>
      </trkpt>
      <trkpt lat="48.82457" lon="2.3255">
        <ele>104.7</ele>
        <time>2013-03-03T13:41:12.000Z</time>
      </trkpt>
      <trkpt lat="48.82458" lon="2.32556">
        <ele>102.3</ele>
        <time>2013-03-03T13:41:15.000Z</time>
      </trkpt>
      <trkpt lat="48.8246" lon="2.32557">
        <ele>103.9</ele>
        <time>2013-03-03T13:41:16.000Z</time>
      </trkpt>
      <trkpt lat="48.82464" lon="2.3256">
        <ele>104.9</ele>
        <time>2013-03-03T13:41:18.000Z</time>
      </trkpt>
      <trkpt lat="48.82466" lon="2.32561">
        <ele>105.6</ele>
        <time>2013-03-03T13:41:19.000Z</time>
      </trkpt>
      <trkpt lat="48.8247" lon="2.32565">
        <ele>110.9</ele>
        <time>2013-03-03T13:41:24.000Z</time>
      </trkpt>
      <trkpt lat="48.82469" lon="2.32566">
        <ele>110.4</ele>
        <time>2013-03-03T13:41:25.000Z</time>
      </trkpt>
      <trkpt lat="48.82467" lon="2.32571">
        <ele>112</ele>
        <time>2013-03-03T13:41:36.000Z</time>
      </trkpt>
      <trkpt lat="48.82467" lon="2.32572">
        <ele>112.1</ele>
        <time>2013-03-03T13:41:37.000Z</time>
      </trkpt>
      <trkpt lat="48.82468" lon="2.32577">
        <ele>124.1</ele>
        <time>2013-03-03T13:42:29.000Z</time>
      </trkpt>
      <trkpt lat="48.82468" lon="2.3258">
        <ele>125.1</ele>
        <time>2013-03-03T13:42:30.000Z</time>
      </trkpt>
      <trkpt lat="48.82468" lon="2.32584">
        <ele>124.1</ele>
        <time>2013-03-03T13:42:32.000Z</time>
      </trkpt>
      <trkpt lat="48.82468" lon="2.32587">
        <ele>126.4</ele>
        <time>2013-03-03T13:42:33.000Z</time>
      </trkpt>
      <trkpt lat="48.82468" lon="2.32592">
        <ele>125.4</ele>
        <time>2013-03-03T13:42:35.000Z</time>
      </trkpt>
      <trkpt lat="48.82469" lon="2.32594">
        <ele>125</ele>
        <time>2013-03-03T13:42:36.000Z</time>
      </trkpt>
      <trkpt lat="48.8247" lon="2.32598">
        <ele>125.4</ele>
        <time>2013-03-03T13:42:37.000Z</time>
      </trkpt>
      <trkpt lat="48.82472" lon="2.32601">
        <ele>127.2</ele>
        <time>2013-03-03T13:42:38.000Z</time>
      </trkpt>
      <trkpt lat="48.82473" lon="2.32604">
        <ele>127.3</ele>
        <time>2013-03-03T13:42:39.000Z</time>
      </trkpt>
      <trkpt lat="48.82474" lon="2.32607">
        <ele>126.7</ele>
        <time>2013-03-03T13:42:40.000Z</time>
      </trkpt>
      <trkpt lat="48.82475" lon="2.32611">
        <ele>125</ele>
        <time>2013-03-03T13:42:41.000Z</time>
      </trkpt>
      <trkpt lat="48.82475" lon="2.32615">
        <ele>123.9</ele>
        <time>2013-03-03T13:42:42.000Z</time>
      </trkpt>
      <trkpt lat="48.82474" lon="2.32619">
        <ele>125.1</ele>
        <time>2013-03-03T13:42:43.000Z</time>
      </trkpt>
      <trkpt lat="48.82473" lon="2.32624">
        <ele>124</ele>
        <time>2013-03-03T13:42:44.000Z</time>
      </trkpt>
      <trkpt lat="48.82473" lon="2.3263">
        <ele>123.5</ele>
        <time>2013-03-03T13:42:45.000Z</time>
      </trkpt>
      <trkpt lat="48.82472" lon="2.32635">
        <ele>123.4</ele>
        <time>2013-03-03T13:42:46.000Z</time>
      </trkpt>
      <trkpt lat="48.82472" lon="2.3264">
        <ele>122.8</ele>
        <time>2013-03-03T13:42:47.000Z</time>
      </trkpt>
      <trkpt lat="48.82472" lon="2.32645">
        <ele>123.2</ele>
        <time>2013-03-03T13:42:48.000Z</time>
      </trkpt>
      <trkpt lat="48.82472" lon="2.32651">
        <ele>123.9</ele>
        <time>2013-03-03T13:42:49.000Z</time>
      </trkpt>
      <trkpt lat="48.82473" lon="2.32656">
        <ele>124.1</ele>
        <time>2013-03-03T13:42:50.000Z</time>
      </trkpt>
      <trkpt lat="48.82473" lon="2.32661">
        <ele>124.1</ele>
        <time>2013-03-03T13:42:51.000Z</time>
      </trkpt>
      <trkpt lat="48.82472" lon="2.32666">
        <ele>123.6</ele>
        <time>2013-03-03T13:42:52.000Z</time>
      </trkpt>
      <trkpt lat="48.82472" lon="2.32671">
        <ele>123.6</ele>
        <time>2013-03-03T13:42:53.000Z</time>
      </trkpt>
      <trkpt lat="48.82471" lon="2.32675">
        <ele>123.3</ele>
        <time>2013-03-03T13:42:54.000Z</time>
      </trkpt>
      <trkpt lat="48.8247" lon="2.32679">
        <ele>123.3</ele>
        <time>2013-03-03T13:42:55.000Z</time>
      </trkpt>
      <trkpt lat="48.82469" lon="2.32683">
        <ele>123.6</ele>
        <time>2013-03-03T13:42:56.000Z</time>
      </trkpt>
      <trkpt lat="48.82468" lon="2.32687">
        <ele>124</ele>
        <time>2013-03-03T13:42:57.000Z</time>
      </trkpt>
      <trkpt lat="48.82467" lon="2.32691">
        <ele>123.6</ele>
        <time>2013-03-03T13:42:58.000Z</time>
      </trkpt>
      <trkpt lat="48.82467" lon="2.32695">
        <ele>123</ele>
        <time>2013-03-03T13:42:59.000Z</time>
      </trkpt>
      <trkpt lat="48.82467" lon="2.327">
        <ele>124.4</ele>
        <time>2013-03-03T13:43:00.000Z</time>
      </trkpt>
      <trkpt lat="48.82467" lon="2.32704">
        <ele>124.3</ele>
        <time>2013-03-03T13:43:01.000Z</time>
      </trkpt>
      <trkpt lat="48.82467" lon="2.32709">
        <ele>124.3</ele>
        <time>2013-03-03T13:43:02.000Z</time>
      </trkpt>
      <trkpt lat="48.82467" lon="2.32714">
        <ele>124.3</ele>
        <time>2013-03-03T13:43:03.000Z</time>
      </trkpt>
      <trkpt lat="48.82467" lon="2.32719">
        <ele>124.4</ele>
        <time>2013-03-03T13:43:04.000Z</time>
      </trkpt>
      <trkpt lat="48.82467" lon="2.32723">
        <ele>124.5</ele>
        <time>2013-03-03T13:43:05.000Z</time>
      </trkpt>
      <trkpt lat="48.82467" lon="2.32728">
        <ele>125.3</ele>
        <time>2013-03-03T13:43:06.000Z</time>
      </trkpt>
      <trkpt lat="48.82467" lon="2.32733">
        <ele>125.7</ele>
        <time>2013-03-03T13:43:07.000Z</time>
      </trkpt>
      <trkpt lat="48.82467" lon="2.32738">
        <ele>125.6</ele>
        <time>2013-03-03T13:43:08.000Z</time>
      </trkpt>
      <trkpt lat="48.82466" lon="2.32743">
        <ele>125.1</ele>
        <time>2013-03-03T13:43:09.000Z</time>
      </trkpt>
      <trkpt lat="48.82465" lon="2.32748">
        <ele>125.1</ele>
        <time>2013-03-03T13:43:10.000Z</time>
      </trkpt>
      <trkpt lat="48.82465" lon="2.32753">
        <ele>124.5</ele>
        <time>2013-03-03T13:43:11.000Z</time>
      </trkpt>
      <trkpt lat="48.82464" lon="2.32758">
        <ele>124.2</ele>
        <time>2013-03-03T13:43:12.000Z</time>
      </trkpt>
      <trkpt lat="48.82464" lon="2.32762">
        <ele>124.9</ele>
        <time>2013-03-03T13:43:13.000Z</time>
      </trkpt>
      <trkpt lat="48.82464" lon="2.32765">
        <ele>124.9</ele>
        <time>2013-03-03T13:43:14.000Z</time>
      </trkpt>
      <trkpt lat="48.82465" lon="2.32769">
        <ele>124.9</ele>
        <time>2013-03-03T13:43:15.000Z</time>
      </trkpt>
      <trkpt lat="48.82465" lon="2.32773">
        <ele>125.4</ele>
        <time>2013-03-03T13:43:16.000Z</time>
      </trkpt>
      <trkpt lat="48.82466" lon="2.32777">
        <ele>125.7</ele>
        <time>2013-03-03T13:43:17.000Z</time>
      </trkpt>
      <trkpt lat="48.82465" lon="2.32781">
        <ele>124.4</ele>
        <time>2013-03-03T13:43:18.000Z</time>
      </trkpt>
      <trkpt lat="48.82465" lon="2.32786">
        <ele>124.9</ele>
        <time>2013-03-03T13:43:19.000Z</time>
      </trkpt>
      <trkpt lat="48.82464" lon="2.32791">
        <ele>123.8</ele>
        <time>2013-03-03T13:43:20.000Z</time>
      </trkpt>
      <trkpt lat="48.82463" lon="2.32795">
        <ele>124.1</ele>
        <time>2013-03-03T13:43:21.000Z</time>
      </trkpt>
      <trkpt lat="48.82462" lon="2.32799">
        <ele>124.6</ele>
        <time>2013-03-03T13:43:22.000Z</time>
      </trkpt>
      <trkpt lat="48.82461" lon="2.32803">
        <ele>124.5</ele>
        <time>2013-03-03T13:43:23.000Z</time>
      </trkpt>
      <trkpt lat="48.8246" lon="2.32807">
        <ele>123.4</ele>
        <time>2013-03-03T13:43:24.000Z</time>
      </trkpt>
      <trkpt lat="48.82458" lon="2.32813">
        <ele>123</ele>
        <time>2013-03-03T13:43:26.000Z</time>
      </trkpt>
      <trkpt lat="48.82458" lon="2.32816">
        <ele>123.7</ele>
        <time>2013-03-03T13:43:27.000Z</time>
      </trkpt>
      <trkpt lat="48.82457" lon="2.32822">
        <ele>123.5</ele>
        <time>2013-03-03T13:43:29.000Z</time>
      </trkpt>
      <trkpt lat="48.82457" lon="2.32825">
        <ele>123.7</ele>
        <time>2013-03-03T13:43:30.000Z</time>
      </trkpt>
      <trkpt lat="48.82456" lon="2.32831">
        <ele>123.8</ele>
        <time>2013-03-03T13:43:32.000Z</time>
      </trkpt>
      <trkpt lat="48.82455" lon="2.32834">
        <ele>123.6</ele>
        <time>2013-03-03T13:43:33.000Z</time>
      </trkpt>
      <trkpt lat="48.82453" lon="2.32839">
        <ele>123.7</ele>
        <time>2013-03-03T13:43:35.000Z</time>
      </trkpt>
      <trkpt lat="48.82453" lon="2.32841">
        <ele>124</ele>
        <time>2013-03-03T13:43:36.000Z</time>
      </trkpt>
      <trkpt lat="48.82452" lon="2.32847">
        <ele>124.1</ele>
        <time>2013-03-03T13:43:38.000Z</time>
      </trkpt>
      <trkpt lat="48.82452" lon="2.3285">
        <ele>123.6</ele>
        <time>2013-03-03T13:43:39.000Z</time>
      </trkpt>
      <trkpt lat="48.82451" lon="2.32856">
        <ele>122.8</ele>
        <time>2013-03-03T13:43:41.000Z</time>
      </trkpt>
      <trkpt lat="48.82451" lon="2.32861">
        <ele>123</ele>
        <time>2013-03-03T13:43:42.000Z</time>
      </trkpt>
      <trkpt lat="48.8245" lon="2.32866">
        <ele>122.8</ele>
        <time>2013-03-03T13:43:43.000Z</time>
      </trkpt>
      <trkpt lat="48.8245" lon="2.3287">
        <ele>122.3</ele>
        <time>2013-03-03T13:43:44.000Z</time>
      </trkpt>
      <trkpt lat="48.82449" lon="2.32875">
        <ele>121.9</ele>
        <time>2013-03-03T13:43:45.000Z</time>
      </trkpt>
      <trkpt lat="48.82448" lon="2.3288">
        <ele>122</ele>
        <time>2013-03-03T13:43:46.000Z</time>
      </trkpt>
      <trkpt lat="48.82448" lon="2.32884">
        <ele>121.5</ele>
        <time>2013-03-03T13:43:47.000Z</time>
      </trkpt>
      <trkpt lat="48.82447" lon="2.3289">
        <ele>121.8</ele>
        <time>2013-03-03T13:43:48.000Z</time>
      </trkpt>
      <trkpt lat="48.82446" lon="2.32895">
        <ele>122</ele>
        <time>2013-03-03T13:43:49.000Z</time>
      </trkpt>
      <trkpt lat="48.82445" lon="2.32901">
        <ele>121.8</ele>
        <time>2013-03-03T13:43:50.000Z</time>
      </trkpt>
      <trkpt lat="48.82444" lon="2.32907">
        <ele>121.8</ele>
        <time>2013-03-03T13:43:51.000Z</time>
      </trkpt>
      <trkpt lat="48.82443" lon="2.32912">
        <ele>122</ele>
        <time>2013-03-03T13:43:52.000Z</time>
      </trkpt>
      <trkpt lat="48.82442" lon="2.32918">
        <ele>122.9</ele>
        <time>2013-03-03T13:43:53.000Z</time>
      </trkpt>
      <trkpt lat="48.82441" lon="2.32924">
        <ele>122.7</ele>
        <time>2013-03-03T13:43:54.000Z</time>
      </trkpt>
      <trkpt lat="48.8244" lon="2.32929">
        <ele>123.5</ele>
        <time>2013-03-03T13:43:55.000Z</time>
      </trkpt>
      <trkpt lat="48.82438" lon="2.32934">
        <ele>123.6</ele>
        <time>2013-03-03T13:43:56.000Z</time>
      </trkpt>
      <trkpt lat="48.82437" lon="2.32939">
        <ele>123.4</ele>
        <time>2013-03-03T13:43:57.000Z</time>
      </trkpt>
      <trkpt lat="48.82436" lon="2.32943">
        <ele>122.8</ele>
        <time>2013-03-03T13:43:58.000Z</time>
      </trkpt>
      <trkpt lat="48.82435" lon="2.32948">
        <ele>122.4</ele>
        <time>2013-03-03T13:43:59.000Z</time>
      </trkpt>
      <trkpt lat="48.82434" lon="2.32953">
        <ele>124.2</ele>
        <time>2013-03-03T13:44:00.000Z</time>
      </trkpt>
      <trkpt lat="48.82433" lon="2.32958">
        <ele>123.9</ele>
        <time>2013-03-03T13:44:01.000Z</time>
      </trkpt>
      <trkpt lat="48.82432" lon="2.32963">
        <ele>123.2</ele>
        <time>2013-03-03T13:44:02.000Z</time>
      </trkpt>
      <trkpt lat="48.8243" lon="2.32967">
        <ele>122.1</ele>
        <time>2013-03-03T13:44:03.000Z</time>
      </trkpt>
      <trkpt lat="48.82429" lon="2.3297">
        <ele>122.1</ele>
        <time>2013-03-03T13:44:04.000Z</time>
      </trkpt>
      <trkpt lat="48.82428" lon="2.32973">
        <ele>122.1</ele>
        <time>2013-03-03T13:44:05.000Z</time>
      </trkpt>
      <trkpt lat="48.82427" lon="2.32977">
        <ele>122.5</ele>
        <time>2013-03-03T13:44:06.000Z</time>
      </trkpt>
      <trkpt lat="48.82427" lon="2.32981">
        <ele>121.8</ele>
        <time>2013-03-03T13:44:07.000Z</time>
      </trkpt>
      <trkpt lat="48.82426" lon="2.32986">
        <ele>121.8</ele>
        <time>2013-03-03T13:44:08.000Z</time>
      </trkpt>
      <trkpt lat="48.82425" lon="2.32991">
        <ele>121.5</ele>
        <time>2013-03-03T13:44:09.000Z</time>
      </trkpt>
      <trkpt lat="48.82425" lon="2.32996">
        <ele>122.2</ele>
        <time>2013-03-03T13:44:10.000Z</time>
      </trkpt>
      <trkpt lat="48.82425" lon="2.33">
        <ele>123.2</ele>
        <time>2013-03-03T13:44:11.000Z</time>
      </trkpt>
      <trkpt lat="48.82424" lon="2.33005">
        <ele>123.5</ele>
        <time>2013-03-03T13:44:12.000Z</time>
      </trkpt>
      <trkpt lat="48.82423" lon="2.33009">
        <ele>122.8</ele>
        <time>2013-03-03T13:44:13.000Z</time>
      </trkpt>
      <trkpt lat="48.82422" lon="2.33014">
        <ele>123.7</ele>
        <time>2013-03-03T13:44:14.000Z</time>
      </trkpt>
      <trkpt lat="48.82421" lon="2.33018">
        <ele>123.7</ele>
        <time>2013-03-03T13:44:15.000Z</time>
      </trkpt>
      <trkpt lat="48.8242" lon="2.33022">
        <ele>123.1</ele>
        <time>2013-03-03T13:44:16.000Z</time>
      </trkpt>
      <trkpt lat="48.8242" lon="2.33027">
        <ele>122.5</ele>
        <time>2013-03-03T13:44:17.000Z</time>
      </trkpt>
      <trkpt lat="48.82419" lon="2.33031">
        <ele>122.4</ele>
        <time>2013-03-03T13:44:18.000Z</time>
      </trkpt>
      <trkpt lat="48.82418" lon="2.33035">
        <ele>122.9</ele>
        <time>2013-03-03T13:44:19.000Z</time>
      </trkpt>
      <trkpt lat="48.82417" lon="2.3304">
        <ele>122.7</ele>
        <time>2013-03-03T13:44:20.000Z</time>
      </trkpt>
      <trkpt lat="48.82416" lon="2.33046">
        <ele>120.5</ele>
        <time>2013-03-03T13:44:21.000Z</time>
      </trkpt>
      <trkpt lat="48.82415" lon="2.33053">
        <ele>120.2</ele>
        <time>2013-03-03T13:44:22.000Z</time>
      </trkpt>
      <trkpt lat="48.82415" lon="2.33059">
        <ele>117.1</ele>
        <time>2013-03-03T13:44:23.000Z</time>
      </trkpt>
      <trkpt lat="48.82414" lon="2.33064">
        <ele>116.6</ele>
        <time>2013-03-03T13:44:24.000Z</time>
      </trkpt>
      <trkpt lat="48.82413" lon="2.33069">
        <ele>116.5</ele>
        <time>2013-03-03T13:44:25.000Z</time>
      </trkpt>
      <trkpt lat="48.82412" lon="2.33073">
        <ele>114.8</ele>
        <time>2013-03-03T13:44:26.000Z</time>
      </trkpt>
      <trkpt lat="48.8241" lon="2.33077">
        <ele>113.8</ele>
        <time>2013-03-03T13:44:27.000Z</time>
      </trkpt>
      <trkpt lat="48.82409" lon="2.33081">
        <ele>113</ele>
        <time>2013-03-03T13:44:28.000Z</time>
      </trkpt>
      <trkpt lat="48.82408" lon="2.33085">
        <ele>114.4</ele>
        <time>2013-03-03T13:44:29.000Z</time>
      </trkpt>
      <trkpt lat="48.82407" lon="2.33088">
        <ele>113.4</ele>
        <time>2013-03-03T13:44:30.000Z</time>
      </trkpt>
      <trkpt lat="48.82406" lon="2.33092">
        <ele>112.8</ele>
        <time>2013-03-03T13:44:31.000Z</time>
      </trkpt>
      <trkpt lat="48.82405" lon="2.33095">
        <ele>112.6</ele>
        <time>2013-03-03T13:44:32.000Z</time>
      </trkpt>
      <trkpt lat="48.82405" lon="2.33102">
        <ele>114.8</ele>
        <time>2013-03-03T13:44:37.000Z</time>
      </trkpt>
      <trkpt lat="48.82404" lon="2.33106">
        <ele>115.1</ele>
        <time>2013-03-03T13:44:38.000Z</time>
      </trkpt>
      <trkpt lat="48.82403" lon="2.33111">
        <ele>114.4</ele>
        <time>2013-03-03T13:44:39.000Z</time>
      </trkpt>
      <trkpt lat="48.82402" lon="2.33117">
        <ele>113.3</ele>
        <time>2013-03-03T13:44:40.000Z</time>
      </trkpt>
      <trkpt lat="48.82401" lon="2.33122">
        <ele>112.9</ele>
        <time>2013-03-03T13:44:41.000Z</time>
      </trkpt>
      <trkpt lat="48.824" lon="2.33128">
        <ele>112.6</ele>
        <time>2013-03-03T13:44:42.000Z</time>
      </trkpt>
      <trkpt lat="48.82399" lon="2.33133">
        <ele>112.2</ele>
        <time>2013-03-03T13:44:43.000Z</time>
      </trkpt>
      <trkpt lat="48.82397" lon="2.33138">
        <ele>112.6</ele>
        <time>2013-03-03T13:44:44.000Z</time>
      </trkpt>
      <trkpt lat="48.82396" lon="2.33144">
        <ele>112</ele>
        <time>2013-03-03T13:44:45.000Z</time>
      </trkpt>
      <trkpt lat="48.82394" lon="2.33149">
        <ele>111.8</ele>
        <time>2013-03-03T13:44:46.000Z</time>
      </trkpt>
      <trkpt lat="48.82392" lon="2.33153">
        <ele>112.5</ele>
        <time>2013-03-03T13:44:47.000Z</time>
      </trkpt>
      <trkpt lat="48.82389" lon="2.33155">
        <ele>112.6</ele>
        <time>2013-03-03T13:44:48.000Z</time>
      </trkpt>
      <trkpt lat="48.82386" lon="2.33155">
        <ele>113.7</ele>
        <time>2013-03-03T13:44:49.000Z</time>
      </trkpt>
      <trkpt lat="48.82383" lon="2.33156">
        <ele>114</ele>
        <time>2013-03-03T13:44:50.000Z</time>
      </trkpt>
      <trkpt lat="48.82379" lon="2.33159">
        <ele>115.2</ele>
        <time>2013-03-03T13:44:52.000Z</time>
      </trkpt>
      <trkpt lat="48.82378" lon="2.33161">
        <ele>115.6</ele>
        <time>2013-03-03T13:44:53.000Z</time>
      </trkpt>
      <trkpt lat="48.82377" lon="2.33166">
        <ele>115.1</ele>
        <time>2013-03-03T13:44:55.000Z</time>
      </trkpt>
      <trkpt lat="48.82377" lon="2.33169">
        <ele>115.2</ele>
        <time>2013-03-03T13:44:56.000Z</time>
      </trkpt>
      <trkpt lat="48.82377" lon="2.33175">
        <ele>114.4</ele>
        <time>2013-03-03T13:44:59.000Z</time>
      </trkpt>
      <trkpt lat="48.82377" lon="2.33177">
        <ele>114.1</ele>
        <time>2013-03-03T13:45:00.000Z</time>
      </trkpt>
      <trkpt lat="48.82376" lon="2.33183">
        <ele>112.7</ele>
        <time>2013-03-03T13:45:09.000Z</time>
      </trkpt>
      <trkpt lat="48.82376" lon="2.33185">
        <ele>112.5</ele>
        <time>2013-03-03T13:45:10.000Z</time>
      </trkpt>
      <trkpt lat="48.82377" lon="2.33191">
        <ele>112.2</ele>
        <time>2013-03-03T13:45:12.000Z</time>
      </trkpt>
      <trkpt lat="48.82377" lon="2.33193">
        <ele>111</ele>
        <time>2013-03-03T13:45:13.000Z</time>
      </trkpt>
      <trkpt lat="48.82377" lon="2.33199">
        <ele>108.7</ele>
        <time>2013-03-03T13:45:15.000Z</time>
      </trkpt>
      <trkpt lat="48.82377" lon="2.33201">
        <ele>108.1</ele>
        <time>2013-03-03T13:45:16.000Z</time>
      </trkpt>
      <trkpt lat="48.82377" lon="2.33207">
        <ele>109.3</ele>
        <time>2013-03-03T13:45:18.000Z</time>
      </trkpt>
      <trkpt lat="48.82377" lon="2.3321">
        <ele>109.6</ele>
        <time>2013-03-03T13:45:19.000Z</time>
      </trkpt>
      <trkpt lat="48.82378" lon="2.33213">
        <ele>109.8</ele>
        <time>2013-03-03T13:45:20.000Z</time>
      </trkpt>
      <trkpt lat="48.82378" lon="2.33217">
        <ele>109.7</ele>
        <time>2013-03-03T13:45:21.000Z</time>
      </trkpt>
      <trkpt lat="48.82379" lon="2.33221">
        <ele>109.7</ele>
        <time>2013-03-03T13:45:22.000Z</time>
      </trkpt>
      <trkpt lat="48.82379" lon="2.33225">
        <ele>109.9</ele>
        <time>2013-03-03T13:45:23.000Z</time>
      </trkpt>
      <trkpt lat="48.82379" lon="2.33229">
        <ele>110.1</ele>
        <time>2013-03-03T13:45:24.000Z</time>
      </trkpt>
      <trkpt lat="48.82379" lon="2.33233">
        <ele>109.2</ele>
        <time>2013-03-03T13:45:25.000Z</time>
      </trkpt>
      <trkpt lat="48.82379" lon="2.33237">
        <ele>109.3</ele>
        <time>2013-03-03T13:45:26.000Z</time>
      </trkpt>
      <trkpt lat="48.82379" lon="2.3324">
        <ele>108</ele>
        <time>2013-03-03T13:45:27.000Z</time>
      </trkpt>
      <trkpt lat="48.82379" lon="2.33247">
        <ele>106.9</ele>
        <time>2013-03-03T13:45:29.000Z</time>
      </trkpt>
      <trkpt lat="48.82379" lon="2.3325">
        <ele>106.2</ele>
        <time>2013-03-03T13:45:30.000Z</time>
      </trkpt>
      <trkpt lat="48.82379" lon="2.33254">
        <ele>107.2</ele>
        <time>2013-03-03T13:45:31.000Z</time>
      </trkpt>
      <trkpt lat="48.8238" lon="2.33258">
        <ele>106.7</ele>
        <time>2013-03-03T13:45:32.000Z</time>
      </trkpt>
      <trkpt lat="48.8238" lon="2.33261">
        <ele>106.1</ele>
        <time>2013-03-03T13:45:33.000Z</time>
      </trkpt>
      <trkpt lat="48.82381" lon="2.33265">
        <ele>105.5</ele>
        <time>2013-03-03T13:45:34.000Z</time>
      </trkpt>
      <trkpt lat="48.82382" lon="2.33268">
        <ele>105.7</ele>
        <time>2013-03-03T13:45:35.000Z</time>
      </trkpt>
      <trkpt lat="48.82383" lon="2.33271">
        <ele>106.2</ele>
        <time>2013-03-03T13:45:36.000Z</time>
      </trkpt>
      <trkpt lat="48.82381" lon="2.33277">
        <ele>105.9</ele>
        <time>2013-03-03T13:45:45.000Z</time>
      </trkpt>
      <trkpt lat="48.82381" lon="2.33277">
        <ele>106.4</ele>
        <time>2013-03-03T13:45:46.000Z</time>
      </trkpt>
      <trkpt lat="48.82382" lon="2.33281">
        <ele>109.6</ele>
        <time>2013-03-03T13:46:44.000Z</time>
      </trkpt>
      <trkpt lat="48.82383" lon="2.33283">
        <ele>110.8</ele>
        <time>2013-03-03T13:46:45.000Z</time>
      </trkpt>
      <trkpt lat="48.82386" lon="2.33287">
        <ele>110.8</ele>
        <time>2013-03-03T13:46:47.000Z</time>
      </trkpt>
      <trkpt lat="48.82386" lon="2.33289">
        <ele>110.2</ele>
        <time>2013-03-03T13:46:48.000Z</time>
      </trkpt>
      <trkpt lat="48.82387" lon="2.33295">
        <ele>107.5</ele>
        <time>2013-03-03T13:46:50.000Z</time>
      </trkpt>
      <trkpt lat="48.82387" lon="2.33298">
        <ele>107.1</ele>
        <time>2013-03-03T13:46:51.000Z</time>
      </trkpt>
      <trkpt lat="48.82387" lon="2.33303">
        <ele>107.2</ele>
        <time>2013-03-03T13:46:52.000Z</time>
      </trkpt>
      <trkpt lat="48.82387" lon="2.33309">
        <ele>109.4</ele>
        <time>2013-03-03T13:46:53.000Z</time>
      </trkpt>
      <trkpt lat="48.82387" lon="2.33314">
        <ele>109.6</ele>
        <time>2013-03-03T13:46:54.000Z</time>
      </trkpt>
      <trkpt lat="48.82388" lon="2.3332">
        <ele>107.9</ele>
        <time>2013-03-03T13:46:55.000Z</time>
      </trkpt>
      <trkpt lat="48.82388" lon="2.33326">
        <ele>108.3</ele>
        <time>2013-03-03T13:46:56.000Z</time>
      </trkpt>
      <trkpt lat="48.82388" lon="2.33332">
        <ele>107.7</ele>
        <time>2013-03-03T13:46:57.000Z</time>
      </trkpt>
      <trkpt lat="48.82388" lon="2.33338">
        <ele>106.7</ele>
        <time>2013-03-03T13:46:58.000Z</time>
      </trkpt>
      <trkpt lat="48.82389" lon="2.33344">
        <ele>105.5</ele>
        <time>2013-03-03T13:46:59.000Z</time>
      </trkpt>
      <trkpt lat="48.82389" lon="2.33351">
        <ele>106.6</ele>
        <time>2013-03-03T13:47:00.000Z</time>
      </trkpt>
      <trkpt lat="48.82389" lon="2.33357">
        <ele>105.1</ele>
        <time>2013-03-03T13:47:01.000Z</time>
      </trkpt>
      <trkpt lat="48.8239" lon="2.33365">
        <ele>105.8</ele>
        <time>2013-03-03T13:47:02.000Z</time>
      </trkpt>
      <trkpt lat="48.8239" lon="2.33372">
        <ele>104.9</ele>
        <time>2013-03-03T13:47:03.000Z</time>
      </trkpt>
      <trkpt lat="48.82391" lon="2.33379">
        <ele>105.4</ele>
        <time>2013-03-03T13:47:04.000Z</time>
      </trkpt>
      <trkpt lat="48.82393" lon="2.33387">
        <ele>105.9</ele>
        <time>2013-03-03T13:47:05.000Z</time>
      </trkpt>
      <trkpt lat="48.82394" lon="2.33395">
        <ele>105.5</ele>
        <time>2013-03-03T13:47:06.000Z</time>
      </trkpt>
      <trkpt lat="48.82396" lon="2.33403">
        <ele>105.8</ele>
        <time>2013-03-03T13:47:07.000Z</time>
      </trkpt>
      <trkpt lat="48.82397" lon="2.33415">
        <ele>104.8</ele>
        <time>2013-03-03T13:47:08.000Z</time>
      </trkpt>
      <trkpt lat="48.82397" lon="2.33421">
        <ele>104.9</ele>
        <time>2013-03-03T13:47:09.000Z</time>
      </trkpt>
      <trkpt lat="48.82397" lon="2.33427">
        <ele>105.1</ele>
        <time>2013-03-03T13:47:10.000Z</time>
      </trkpt>
      <trkpt lat="48.82398" lon="2.33434">
        <ele>106.4</ele>
        <time>2013-03-03T13:47:11.000Z</time>
      </trkpt>
      <trkpt lat="48.82398" lon="2.33441">
        <ele>106.7</ele>
        <time>2013-03-03T13:47:12.000Z</time>
      </trkpt>
      <trkpt lat="48.82401" lon="2.33444">
        <ele>107.7</ele>
        <time>2013-03-03T13:47:13.000Z</time>
      </trkpt>
      <trkpt lat="48.824" lon="2.33449">
        <ele>107.1</ele>
        <time>2013-03-03T13:47:14.000Z</time>
      </trkpt>
      <trkpt lat="48.824" lon="2.33454">
        <ele>107.1</ele>
        <time>2013-03-03T13:47:15.000Z</time>
      </trkpt>
      <trkpt lat="48.824" lon="2.33464">
        <ele>107.8</ele>
        <time>2013-03-03T13:47:16.000Z</time>
      </trkpt>
      <trkpt lat="48.824" lon="2.33474">
        <ele>107.8</ele>
        <time>2013-03-03T13:47:17.000Z</time>
      </trkpt>
      <trkpt lat="48.82401" lon="2.33481">
        <ele>108</ele>
        <time>2013-03-03T13:47:18.000Z</time>
      </trkpt>
      <trkpt lat="48.82402" lon="2.33488">
        <ele>107.6</ele>
        <time>2013-03-03T13:47:19.000Z</time>
      </trkpt>
      <trkpt lat="48.82402" lon="2.33497">
        <ele>107.4</ele>
        <time>2013-03-03T13:47:20.000Z</time>
      </trkpt>
      <trkpt lat="48.82403" lon="2.33501">
        <ele>106.7</ele>
        <time>2013-03-03T13:47:21.000Z</time>
      </trkpt>
      <trkpt lat="48.82404" lon="2.33505">
        <ele>107.8</ele>
        <time>2013-03-03T13:47:22.000Z</time>
      </trkpt>
      <trkpt lat="48.82405" lon="2.33509">
        <ele>106.5</ele>
        <time>2013-03-03T13:47:23.000Z</time>
      </trkpt>
      <trkpt lat="48.82406" lon="2.33513">
        <ele>108</ele>
        <time>2013-03-03T13:47:24.000Z</time>
      </trkpt>
      <trkpt lat="48.82406" lon="2.33519">
        <ele>107</ele>
        <time>2013-03-03T13:47:25.000Z</time>
      </trkpt>
      <trkpt lat="48.82407" lon="2.33525">
        <ele>109</ele>
        <time>2013-03-03T13:47:26.000Z</time>
      </trkpt>
      <trkpt lat="48.82408" lon="2.33532">
        <ele>108.6</ele>
        <time>2013-03-03T13:47:27.000Z</time>
      </trkpt>
      <trkpt lat="48.82409" lon="2.33537">
        <ele>108.4</ele>
        <time>2013-03-03T13:47:28.000Z</time>
      </trkpt>
      <trkpt lat="48.82409" lon="2.33543">
        <ele>108.7</ele>
        <time>2013-03-03T13:47:29.000Z</time>
      </trkpt>
      <trkpt lat="48.82407" lon="2.33546">
        <ele>108.6</ele>
        <time>2013-03-03T13:47:30.000Z</time>
      </trkpt>
      <trkpt lat="48.82405" lon="2.33549">
        <ele>108.7</ele>
        <time>2013-03-03T13:47:31.000Z</time>
      </trkpt>
      <trkpt lat="48.82407" lon="2.33553">
        <ele>109.1</ele>
        <time>2013-03-03T13:47:32.000Z</time>
      </trkpt>
      <trkpt lat="48.82407" lon="2.33556">
        <ele>108.3</ele>
        <time>2013-03-03T13:47:33.000Z</time>
      </trkpt>
      <trkpt lat="48.82409" lon="2.33559">
        <ele>109.1</ele>
        <time>2013-03-03T13:47:34.000Z</time>
      </trkpt>
      <trkpt lat="48.82412" lon="2.33562">
        <ele>108.6</ele>
        <time>2013-03-03T13:47:35.000Z</time>
      </trkpt>
      <trkpt lat="48.82413" lon="2.33566">
        <ele>109.9</ele>
        <time>2013-03-03T13:47:36.000Z</time>
      </trkpt>
      <trkpt lat="48.82414" lon="2.33569">
        <ele>109.9</ele>
        <time>2013-03-03T13:47:37.000Z</time>
      </trkpt>
      <trkpt lat="48.82415" lon="2.33573">
        <ele>110.2</ele>
        <time>2013-03-03T13:47:38.000Z</time>
      </trkpt>
      <trkpt lat="48.82416" lon="2.33577">
        <ele>110.8</ele>
        <time>2013-03-03T13:47:39.000Z</time>
      </trkpt>
      <trkpt lat="48.82417" lon="2.33581">
        <ele>111.3</ele>
        <time>2013-03-03T13:47:40.000Z</time>
      </trkpt>
      <trkpt lat="48.82417" lon="2.33585">
        <ele>110.4</ele>
        <time>2013-03-03T13:47:41.000Z</time>
      </trkpt>
      <trkpt lat="48.82418" lon="2.3359">
        <ele>111</ele>
        <time>2013-03-03T13:47:42.000Z</time>
      </trkpt>
      <trkpt lat="48.82419" lon="2.33596">
        <ele>111.4</ele>
        <time>2013-03-03T13:47:43.000Z</time>
      </trkpt>
      <trkpt lat="48.82418" lon="2.33601">
        <ele>111.2</ele>
        <time>2013-03-03T13:47:44.000Z</time>
      </trkpt>
      <trkpt lat="48.82417" lon="2.33607">
        <ele>111.4</ele>
        <time>2013-03-03T13:47:45.000Z</time>
      </trkpt>
      <trkpt lat="48.82415" lon="2.33612">
        <ele>112.2</ele>
        <time>2013-03-03T13:47:46.000Z</time>
      </trkpt>
      <trkpt lat="48.82415" lon="2.33605">
        <ele>113.3</ele>
        <time>2013-03-03T13:47:52.000Z</time>
      </trkpt>
      <trkpt lat="48.82416" lon="2.33604">
        <ele>113.1</ele>
        <time>2013-03-03T13:47:53.000Z</time>
      </trkpt>
      <trkpt lat="48.82413" lon="2.33598">
        <ele>110.6</ele>
        <time>2013-03-03T13:47:58.000Z</time>
      </trkpt>
      <trkpt lat="48.82413" lon="2.33598">
        <ele>110.3</ele>
        <time>2013-03-03T13:47:59.000Z</time>
      </trkpt>
      <trkpt lat="48.82409" lon="2.33602">
        <ele>107</ele>
        <time>2013-03-03T13:48:14.000Z</time>
      </trkpt>
      <trkpt lat="48.8241" lon="2.33605">
        <ele>107.8</ele>
        <time>2013-03-03T13:48:15.000Z</time>
      </trkpt>
      <trkpt lat="48.82412" lon="2.33609">
        <ele>107.4</ele>
        <time>2013-03-03T13:48:16.000Z</time>
      </trkpt>
      <trkpt lat="48.82414" lon="2.33612">
        <ele>106.4</ele>
        <time>2013-03-03T13:48:17.000Z</time>
      </trkpt>
      <trkpt lat="48.82416" lon="2.33615">
        <ele>106.7</ele>
        <time>2013-03-03T13:48:18.000Z</time>
      </trkpt>
      <trkpt lat="48.82418" lon="2.33619">
        <ele>106.9</ele>
        <time>2013-03-03T13:48:19.000Z</time>
      </trkpt>
      <trkpt lat="48.82418" lon="2.33623">
        <ele>106.8</ele>
        <time>2013-03-03T13:48:20.000Z</time>
      </trkpt>
      <trkpt lat="48.82418" lon="2.33627">
        <ele>107.8</ele>
        <time>2013-03-03T13:48:21.000Z</time>
      </trkpt>
      <trkpt lat="48.82419" lon="2.33633">
        <ele>106.9</ele>
        <time>2013-03-03T13:48:23.000Z</time>
      </trkpt>
      <trkpt lat="48.82419" lon="2.33637">
        <ele>106.7</ele>
        <time>2013-03-03T13:48:24.000Z</time>
      </trkpt>
      <trkpt lat="48.8242" lon="2.3364">
        <ele>105.5</ele>
        <time>2013-03-03T13:48:25.000Z</time>
      </trkpt>
      <trkpt lat="48.82421" lon="2.33643">
        <ele>104.4</ele>
        <time>2013-03-03T13:48:26.000Z</time>
      </trkpt>
      <trkpt lat="48.82422" lon="2.33646">
        <ele>102.8</ele>
        <time>2013-03-03T13:48:27.000Z</time>
      </trkpt>
      <trkpt lat="48.82422" lon="2.3365">
        <ele>103</ele>
        <time>2013-03-03T13:48:28.000Z</time>
      </trkpt>
      <trkpt lat="48.82424" lon="2.33654">
        <ele>103.3</ele>
        <time>2013-03-03T13:48:29.000Z</time>
      </trkpt>
      <trkpt lat="48.82425" lon="2.33659">
        <ele>104.1</ele>
        <time>2013-03-03T13:48:30.000Z</time>
      </trkpt>
      <trkpt lat="48.82427" lon="2.33665">
        <ele>104</ele>
        <time>2013-03-03T13:48:31.000Z</time>
      </trkpt>
      <trkpt lat="48.82428" lon="2.33672">
        <ele>103.4</ele>
        <time>2013-03-03T13:48:32.000Z</time>
      </trkpt>
      <trkpt lat="48.8243" lon="2.33679">
        <ele>102.6</ele>
        <time>2013-03-03T13:48:33.000Z</time>
      </trkpt>
      <trkpt lat="48.82431" lon="2.33686">
        <ele>102.3</ele>
        <time>2013-03-03T13:48:34.000Z</time>
      </trkpt>
      <trkpt lat="48.82433" lon="2.33694">
        <ele>102.8</ele>
        <time>2013-03-03T13:48:35.000Z</time>
      </trkpt>
      <trkpt lat="48.82435" lon="2.33702">
        <ele>103.7</ele>
        <time>2013-03-03T13:48:36.000Z</time>
      </trkpt>
      <trkpt lat="48.82437" lon="2.33709">
        <ele>104.6</ele>
        <time>2013-03-03T13:48:37.000Z</time>
      </trkpt>
      <trkpt lat="48.82439" lon="2.33716">
        <ele>105.1</ele>
        <time>2013-03-03T13:48:38.000Z</time>
      </trkpt>
      <trkpt lat="48.8244" lon="2.33723">
        <ele>105.2</ele>
        <time>2013-03-03T13:48:39.000Z</time>
      </trkpt>
      <trkpt lat="48.82442" lon="2.33731">
        <ele>104.5</ele>
        <time>2013-03-03T13:48:40.000Z</time>
      </trkpt>
      <trkpt lat="48.82445" lon="2.33742">
        <ele>104.6</ele>
        <time>2013-03-03T13:48:41.000Z</time>
      </trkpt>
      <trkpt lat="48.82446" lon="2.33748">
        <ele>104.4</ele>
        <time>2013-03-03T13:48:42.000Z</time>
      </trkpt>
      <trkpt lat="48.82447" lon="2.33755">
        <ele>103.6</ele>
        <time>2013-03-03T13:48:43.000Z</time>
      </trkpt>
      <trkpt lat="48.82448" lon="2.33763">
        <ele>103.4</ele>
        <time>2013-03-03T13:48:44.000Z</time>
      </trkpt>
      <trkpt lat="48.82448" lon="2.3377">
        <ele>103.4</ele>
        <time>2013-03-03T13:48:45.000Z</time>
      </trkpt>
      <trkpt lat="48.82451" lon="2.33775">
        <ele>104.2</ele>
        <time>2013-03-03T13:48:46.000Z</time>
      </trkpt>
      <trkpt lat="48.82453" lon="2.33787">
        <ele>104.7</ele>
        <time>2013-03-03T13:48:47.000Z</time>
      </trkpt>
      <trkpt lat="48.82452" lon="2.33792">
        <ele>104.3</ele>
        <time>2013-03-03T13:48:48.000Z</time>
      </trkpt>
      <trkpt lat="48.82449" lon="2.33803">
        <ele>105.2</ele>
        <time>2013-03-03T13:48:49.000Z</time>
      </trkpt>
      <trkpt lat="48.8245" lon="2.33808">
        <ele>106.1</ele>
        <time>2013-03-03T13:48:50.000Z</time>
      </trkpt>
      <trkpt lat="48.82448" lon="2.33816">
        <ele>105.9</ele>
        <time>2013-03-03T13:48:51.000Z</time>
      </trkpt>
      <trkpt lat="48.82447" lon="2.33821">
        <ele>104.6</ele>
        <time>2013-03-03T13:48:52.000Z</time>
      </trkpt>
      <trkpt lat="48.82445" lon="2.33829">
        <ele>106</ele>
        <time>2013-03-03T13:48:53.000Z</time>
      </trkpt>
      <trkpt lat="48.82448" lon="2.33832">
        <ele>106.8</ele>
        <time>2013-03-03T13:48:54.000Z</time>
      </trkpt>
      <trkpt lat="48.82452" lon="2.33838">
        <ele>106.4</ele>
        <time>2013-03-03T13:48:55.000Z</time>
      </trkpt>
      <trkpt lat="48.82452" lon="2.33848">
        <ele>106.5</ele>
        <time>2013-03-03T13:48:56.000Z</time>
      </trkpt>
      <trkpt lat="48.82452" lon="2.33858">
        <ele>106.5</ele>
        <time>2013-03-03T13:48:57.000Z</time>
      </trkpt>
      <trkpt lat="48.82455" lon="2.33861">
        <ele>106.9</ele>
        <time>2013-03-03T13:48:58.000Z</time>
      </trkpt>
      <trkpt lat="48.82455" lon="2.33864">
        <ele>106.2</ele>
        <time>2013-03-03T13:48:59.000Z</time>
      </trkpt>
      <trkpt lat="48.82455" lon="2.33866">
        <ele>106.3</ele>
        <time>2013-03-03T13:49:00.000Z</time>
      </trkpt>
      <trkpt lat="48.82459" lon="2.33871">
        <ele>107</ele>
        <time>2013-03-03T13:49:01.000Z</time>
      </trkpt>
      <trkpt lat="48.82461" lon="2.33875">
        <ele>106.6</ele>
        <time>2013-03-03T13:49:02.000Z</time>
      </trkpt>
      <trkpt lat="48.82463" lon="2.33878">
        <ele>105.3</ele>
        <time>2013-03-03T13:49:03.000Z</time>
      </trkpt>
      <trkpt lat="48.82462" lon="2.33883">
        <ele>104.5</ele>
        <time>2013-03-03T13:49:04.000Z</time>
      </trkpt>
      <trkpt lat="48.82462" lon="2.33892">
        <ele>104</ele>
        <time>2013-03-03T13:49:05.000Z</time>
      </trkpt>
      <trkpt lat="48.82461" lon="2.33899">
        <ele>102.9</ele>
        <time>2013-03-03T13:49:06.000Z</time>
      </trkpt>
      <trkpt lat="48.82462" lon="2.33901">
        <ele>102.7</ele>
        <time>2013-03-03T13:49:07.000Z</time>
      </trkpt>
      <trkpt lat="48.82463" lon="2.33907">
        <ele>101.7</ele>
        <time>2013-03-03T13:49:08.000Z</time>
      </trkpt>
      <trkpt lat="48.82463" lon="2.33913">
        <ele>101.5</ele>
        <time>2013-03-03T13:49:09.000Z</time>
      </trkpt>
      <trkpt lat="48.82464" lon="2.33919">
        <ele>103.3</ele>
        <time>2013-03-03T13:49:10.000Z</time>
      </trkpt>
      <trkpt lat="48.82465" lon="2.33925">
        <ele>103.2</ele>
        <time>2013-03-03T13:49:11.000Z</time>
      </trkpt>
      <trkpt lat="48.82465" lon="2.33931">
        <ele>104.7</ele>
        <time>2013-03-03T13:49:12.000Z</time>
      </trkpt>
      <trkpt lat="48.82466" lon="2.33938">
        <ele>104.8</ele>
        <time>2013-03-03T13:49:13.000Z</time>
      </trkpt>
      <trkpt lat="48.82466" lon="2.33944">
        <ele>104.5</ele>
        <time>2013-03-03T13:49:14.000Z</time>
      </trkpt>
      <trkpt lat="48.82465" lon="2.3395">
        <ele>102.8</ele>
        <time>2013-03-03T13:49:15.000Z</time>
      </trkpt>
      <trkpt lat="48.82465" lon="2.33955">
        <ele>103.5</ele>
        <time>2013-03-03T13:49:16.000Z</time>
      </trkpt>
      <trkpt lat="48.82465" lon="2.33961">
        <ele>103.1</ele>
        <time>2013-03-03T13:49:17.000Z</time>
      </trkpt>
      <trkpt lat="48.82465" lon="2.33966">
        <ele>103.1</ele>
        <time>2013-03-03T13:49:18.000Z</time>
      </trkpt>
      <trkpt lat="48.82465" lon="2.33971">
        <ele>103</ele>
        <time>2013-03-03T13:49:19.000Z</time>
      </trkpt>
      <trkpt lat="48.82465" lon="2.33976">
        <ele>103</ele>
        <time>2013-03-03T13:49:20.000Z</time>
      </trkpt>
      <trkpt lat="48.82465" lon="2.3398">
        <ele>103.6</ele>
        <time>2013-03-03T13:49:21.000Z</time>
      </trkpt>
      <trkpt lat="48.82465" lon="2.33984">
        <ele>104</ele>
        <time>2013-03-03T13:49:22.000Z</time>
      </trkpt>
      <trkpt lat="48.82464" lon="2.33987">
        <ele>105.8</ele>
        <time>2013-03-03T13:49:23.000Z</time>
      </trkpt>
      <trkpt lat="48.82464" lon="2.3399">
        <ele>105.7</ele>
        <time>2013-03-03T13:49:24.000Z</time>
      </trkpt>
      <trkpt lat="48.8246" lon="2.33991">
        <ele>104.8</ele>
        <time>2013-03-03T13:49:25.000Z</time>
      </trkpt>
      <trkpt lat="48.82457" lon="2.33992">
        <ele>105</ele>
        <time>2013-03-03T13:49:26.000Z</time>
      </trkpt>
      <trkpt lat="48.82452" lon="2.33994">
        <ele>104.7</ele>
        <time>2013-03-03T13:49:27.000Z</time>
      </trkpt>
      <trkpt lat="48.82447" lon="2.33996">
        <ele>103.9</ele>
        <time>2013-03-03T13:49:28.000Z</time>
      </trkpt>
      <trkpt lat="48.82441" lon="2.33998">
        <ele>104.3</ele>
        <time>2013-03-03T13:49:29.000Z</time>
      </trkpt>
      <trkpt lat="48.82437" lon="2.34">
        <ele>104.9</ele>
        <time>2013-03-03T13:49:30.000Z</time>
      </trkpt>
      <trkpt lat="48.82432" lon="2.34002">
        <ele>106.6</ele>
        <time>2013-03-03T13:49:31.000Z</time>
      </trkpt>
      <trkpt lat="48.82427" lon="2.34003">
        <ele>107.2</ele>
        <time>2013-03-03T13:49:32.000Z</time>
      </trkpt>
      <trkpt lat="48.82424" lon="2.34004">
        <ele>107.8</ele>
        <time>2013-03-03T13:49:33.000Z</time>
      </trkpt>
      <trkpt lat="48.8242" lon="2.34006">
        <ele>108.4</ele>
        <time>2013-03-03T13:49:34.000Z</time>
      </trkpt>
      <trkpt lat="48.82417" lon="2.34007">
        <ele>109.9</ele>
        <time>2013-03-03T13:49:35.000Z</time>
      </trkpt>
      <trkpt lat="48.82414" lon="2.34009">
        <ele>109.6</ele>
        <time>2013-03-03T13:49:36.000Z</time>
      </trkpt>
      <trkpt lat="48.82411" lon="2.3401">
        <ele>110</ele>
        <time>2013-03-03T13:49:37.000Z</time>
      </trkpt>
      <trkpt lat="48.82407" lon="2.34012">
        <ele>108.8</ele>
        <time>2013-03-03T13:49:38.000Z</time>
      </trkpt>
      <trkpt lat="48.82404" lon="2.34014">
        <ele>106.3</ele>
        <time>2013-03-03T13:49:39.000Z</time>
      </trkpt>
      <trkpt lat="48.824" lon="2.34015">
        <ele>103.5</ele>
        <time>2013-03-03T13:49:40.000Z</time>
      </trkpt>
      <trkpt lat="48.82397" lon="2.34017">
        <ele>102.8</ele>
        <time>2013-03-03T13:49:41.000Z</time>
      </trkpt>
      <trkpt lat="48.82393" lon="2.34018">
        <ele>102.7</ele>
        <time>2013-03-03T13:49:42.000Z</time>
      </trkpt>
      <trkpt lat="48.82389" lon="2.3402">
        <ele>100.1</ele>
        <time>2013-03-03T13:49:43.000Z</time>
      </trkpt>
      <trkpt lat="48.82386" lon="2.34021">
        <ele>97.8</ele>
        <time>2013-03-03T13:49:44.000Z</time>
      </trkpt>
      <trkpt lat="48.82382" lon="2.34023">
        <ele>97.6</ele>
        <time>2013-03-03T13:49:45.000Z</time>
      </trkpt>
      <trkpt lat="48.82378" lon="2.34024">
        <ele>96.4</ele>
        <time>2013-03-03T13:49:46.000Z</time>
      </trkpt>
      <trkpt lat="48.82374" lon="2.34025">
        <ele>95.4</ele>
        <time>2013-03-03T13:49:47.000Z</time>
      </trkpt>
      <trkpt lat="48.8237" lon="2.34027">
        <ele>95.3</ele>
        <time>2013-03-03T13:49:48.000Z</time>
      </trkpt>
      <trkpt lat="48.82366" lon="2.34028">
        <ele>94.9</ele>
        <time>2013-03-03T13:49:49.000Z</time>
      </trkpt>
      <trkpt lat="48.82362" lon="2.34029">
        <ele>95</ele>
        <time>2013-03-03T13:49:50.000Z</time>
      </trkpt>
      <trkpt lat="48.82359" lon="2.3403">
        <ele>94.9</ele>
        <time>2013-03-03T13:49:51.000Z</time>
      </trkpt>
      <trkpt lat="48.82357" lon="2.34031">
        <ele>94.4</ele>
        <time>2013-03-03T13:49:52.000Z</time>
      </trkpt>
      <trkpt lat="48.82354" lon="2.34032">
        <ele>93.3</ele>
        <time>2013-03-03T13:49:53.000Z</time>
      </trkpt>
      <trkpt lat="48.82352" lon="2.34033">
        <ele>91.2</ele>
        <time>2013-03-03T13:49:54.000Z</time>
      </trkpt>
      <trkpt lat="48.8235" lon="2.34035">
        <ele>90.5</ele>
        <time>2013-03-03T13:49:55.000Z</time>
      </trkpt>
      <trkpt lat="48.82346" lon="2.34038">
        <ele>88.4</ele>
        <time>2013-03-03T13:49:57.000Z</time>
      </trkpt>
      <trkpt lat="48.82344" lon="2.34039">
        <ele>85.4</ele>
        <time>2013-03-03T13:49:58.000Z</time>
      </trkpt>
      <trkpt lat="48.82341" lon="2.34042">
        <ele>85.2</ele>
        <time>2013-03-03T13:49:59.000Z</time>
      </trkpt>
      <trkpt lat="48.82338" lon="2.34044">
        <ele>85.4</ele>
        <time>2013-03-03T13:50:00.000Z</time>
      </trkpt>
      <trkpt lat="48.82334" lon="2.34047">
        <ele>82.6</ele>
        <time>2013-03-03T13:50:01.000Z</time>
      </trkpt>
      <trkpt lat="48.82331" lon="2.34049">
        <ele>80.6</ele>
        <time>2013-03-03T13:50:02.000Z</time>
      </trkpt>
      <trkpt lat="48.82328" lon="2.34051">
        <ele>90.8</ele>
        <time>2013-03-03T13:50:03.000Z</time>
      </trkpt>
      <trkpt lat="48.82325" lon="2.34054">
        <ele>88</ele>
        <time>2013-03-03T13:50:04.000Z</time>
      </trkpt>
      <trkpt lat="48.82321" lon="2.34056">
        <ele>85.7</ele>
        <time>2013-03-03T13:50:05.000Z</time>
      </trkpt>
      <trkpt lat="48.82318" lon="2.34058">
        <ele>83</ele>
        <time>2013-03-03T13:50:06.000Z</time>
      </trkpt>
      <trkpt lat="48.82315" lon="2.3406">
        <ele>81.3</ele>
        <time>2013-03-03T13:50:07.000Z</time>
      </trkpt>
      <trkpt lat="48.82312" lon="2.34062">
        <ele>80.8</ele>
        <time>2013-03-03T13:50:08.000Z</time>
      </trkpt>
      <trkpt lat="48.82309" lon="2.34064">
        <ele>79.7</ele>
        <time>2013-03-03T13:50:09.000Z</time>
      </trkpt>
      <trkpt lat="48.82305" lon="2.34065">
        <ele>78.5</ele>
        <time>2013-03-03T13:50:10.000Z</time>
      </trkpt>
      <trkpt lat="48.82302" lon="2.34066">
        <ele>77.5</ele>
        <time>2013-03-03T13:50:11.000Z</time>
      </trkpt>
      <trkpt lat="48.82298" lon="2.34068">
        <ele>76.7</ele>
        <time>2013-03-03T13:50:12.000Z</time>
      </trkpt>
      <trkpt lat="48.82294" lon="2.3407">
        <ele>77</ele>
        <time>2013-03-03T13:50:13.000Z</time>
      </trkpt>
      <trkpt lat="48.82289" lon="2.34072">
        <ele>74.9</ele>
        <time>2013-03-03T13:50:14.000Z</time>
      </trkpt>
      <trkpt lat="48.82284" lon="2.34075">
        <ele>74.4</ele>
        <time>2013-03-03T13:50:15.000Z</time>
      </trkpt>
      <trkpt lat="48.82277" lon="2.34077">
        <ele>74.4</ele>
        <time>2013-03-03T13:50:16.000Z</time>
      </trkpt>
      <trkpt lat="48.82272" lon="2.34078">
        <ele>74.3</ele>
        <time>2013-03-03T13:50:17.000Z</time>
      </trkpt>
      <trkpt lat="48.82267" lon="2.34081">
        <ele>73.9</ele>
        <time>2013-03-03T13:50:18.000Z</time>
      </trkpt>
      <trkpt lat="48.82262" lon="2.34082">
        <ele>73.7</ele>
        <time>2013-03-03T13:50:19.000Z</time>
      </trkpt>
      <trkpt lat="48.82257" lon="2.34086">
        <ele>68.5</ele>
        <time>2013-03-03T13:50:20.000Z</time>
      </trkpt>
      <trkpt lat="48.82252" lon="2.34087">
        <ele>69.3</ele>
        <time>2013-03-03T13:50:21.000Z</time>
      </trkpt>
      <trkpt lat="48.82248" lon="2.34089">
        <ele>68.5</ele>
        <time>2013-03-03T13:50:22.000Z</time>
      </trkpt>
      <trkpt lat="48.82244" lon="2.34092">
        <ele>67.5</ele>
        <time>2013-03-03T13:50:23.000Z</time>
      </trkpt>
      <trkpt lat="48.8224" lon="2.34095">
        <ele>67.4</ele>
        <time>2013-03-03T13:50:24.000Z</time>
      </trkpt>
      <trkpt lat="48.82236" lon="2.34098">
        <ele>64.4</ele>
        <time>2013-03-03T13:50:25.000Z</time>
      </trkpt>
      <trkpt lat="48.82231" lon="2.341">
        <ele>64</ele>
        <time>2013-03-03T13:50:26.000Z</time>
      </trkpt>
      <trkpt lat="48.82227" lon="2.34101">
        <ele>65</ele>
        <time>2013-03-03T13:50:27.000Z</time>
      </trkpt>
      <trkpt lat="48.82224" lon="2.34105">
        <ele>62.5</ele>
        <time>2013-03-03T13:50:28.000Z</time>
      </trkpt>
      <trkpt lat="48.82221" lon="2.34107">
        <ele>62.7</ele>
        <time>2013-03-03T13:50:29.000Z</time>
      </trkpt>
      <trkpt lat="48.82216" lon="2.34108">
        <ele>63</ele>
        <time>2013-03-03T13:50:30.000Z</time>
      </trkpt>
      <trkpt lat="48.82212" lon="2.3411">
        <ele>61.6</ele>
        <time>2013-03-03T13:50:31.000Z</time>
      </trkpt>
      <trkpt lat="48.82208" lon="2.34112">
        <ele>61.2</ele>
        <time>2013-03-03T13:50:32.000Z</time>
      </trkpt>
      <trkpt lat="48.82204" lon="2.34113">
        <ele>61.7</ele>
        <time>2013-03-03T13:50:33.000Z</time>
      </trkpt>
      <trkpt lat="48.822" lon="2.34115">
        <ele>61.8</ele>
        <time>2013-03-03T13:50:34.000Z</time>
      </trkpt>
      <trkpt lat="48.82196" lon="2.34116">
        <ele>62.9</ele>
        <time>2013-03-03T13:50:35.000Z</time>
      </trkpt>
      <trkpt lat="48.82191" lon="2.34117">
        <ele>65.5</ele>
        <time>2013-03-03T13:50:36.000Z</time>
      </trkpt>
      <trkpt lat="48.82187" lon="2.34118">
        <ele>67.1</ele>
        <time>2013-03-03T13:50:37.000Z</time>
      </trkpt>
      <trkpt lat="48.82182" lon="2.34118">
        <ele>68.7</ele>
        <time>2013-03-03T13:50:38.000Z</time>
      </trkpt>
      <trkpt lat="48.82177" lon="2.34118">
        <ele>70.9</ele>
        <time>2013-03-03T13:50:39.000Z</time>
      </trkpt>
      <trkpt lat="48.82173" lon="2.34118">
        <ele>71.3</ele>
        <time>2013-03-03T13:50:40.000Z</time>
      </trkpt>
      <trkpt lat="48.82168" lon="2.34119">
        <ele>72.2</ele>
        <time>2013-03-03T13:50:41.000Z</time>
      </trkpt>
      <trkpt lat="48.82164" lon="2.34119">
        <ele>79.4</ele>
        <time>2013-03-03T13:50:42.000Z</time>
      </trkpt>
      <trkpt lat="48.82158" lon="2.34119">
        <ele>84.5</ele>
        <time>2013-03-03T13:50:43.000Z</time>
      </trkpt>
      <trkpt lat="48.82154" lon="2.34118">
        <ele>88.6</ele>
        <time>2013-03-03T13:50:44.000Z</time>
      </trkpt>
      <trkpt lat="48.82149" lon="2.34118">
        <ele>91.1</ele>
        <time>2013-03-03T13:50:45.000Z</time>
      </trkpt>
      <trkpt lat="48.82144" lon="2.34117">
        <ele>92.1</ele>
        <time>2013-03-03T13:50:46.000Z</time>
      </trkpt>
      <trkpt lat="48.8214" lon="2.34117">
        <ele>92.8</ele>
        <time>2013-03-03T13:50:47.000Z</time>
      </trkpt>
      <trkpt lat="48.82136" lon="2.34118">
        <ele>92.6</ele>
        <time>2013-03-03T13:50:49.000Z</time>
      </trkpt>
      <trkpt lat="48.82134" lon="2.3412">
        <ele>93.2</ele>
        <time>2013-03-03T13:50:50.000Z</time>
      </trkpt>
      <trkpt lat="48.82132" lon="2.34126">
        <ele>92.2</ele>
        <time>2013-03-03T13:50:52.000Z</time>
      </trkpt>
      <trkpt lat="48.82131" lon="2.34129">
        <ele>92.1</ele>
        <time>2013-03-03T13:50:53.000Z</time>
      </trkpt>
      <trkpt lat="48.82131" lon="2.34134">
        <ele>89.1</ele>
        <time>2013-03-03T13:50:54.000Z</time>
      </trkpt>
      <trkpt lat="48.8213" lon="2.34138">
        <ele>89.7</ele>
        <time>2013-03-03T13:50:55.000Z</time>
      </trkpt>
      <trkpt lat="48.8213" lon="2.34143">
        <ele>90</ele>
        <time>2013-03-03T13:50:56.000Z</time>
      </trkpt>
      <trkpt lat="48.82131" lon="2.34149">
        <ele>90.3</ele>
        <time>2013-03-03T13:50:57.000Z</time>
      </trkpt>
      <trkpt lat="48.82131" lon="2.34155">
        <ele>91</ele>
        <time>2013-03-03T13:50:58.000Z</time>
      </trkpt>
      <trkpt lat="48.82131" lon="2.34161">
        <ele>90.8</ele>
        <time>2013-03-03T13:50:59.000Z</time>
      </trkpt>
      <trkpt lat="48.82132" lon="2.34168">
        <ele>90.6</ele>
        <time>2013-03-03T13:51:00.000Z</time>
      </trkpt>
      <trkpt lat="48.82132" lon="2.34175">
        <ele>90.2</ele>
        <time>2013-03-03T13:51:01.000Z</time>
      </trkpt>
      <trkpt lat="48.82133" lon="2.34182">
        <ele>90.3</ele>
        <time>2013-03-03T13:51:02.000Z</time>
      </trkpt>
      <trkpt lat="48.82134" lon="2.34195">
        <ele>90.1</ele>
        <time>2013-03-03T13:51:03.000Z</time>
      </trkpt>
      <trkpt lat="48.82134" lon="2.34202">
        <ele>90.7</ele>
        <time>2013-03-03T13:51:04.000Z</time>
      </trkpt>
      <trkpt lat="48.82134" lon="2.34209">
        <ele>90.7</ele>
        <time>2013-03-03T13:51:05.000Z</time>
      </trkpt>
      <trkpt lat="48.82134" lon="2.34216">
        <ele>90.4</ele>
        <time>2013-03-03T13:51:06.000Z</time>
      </trkpt>
      <trkpt lat="48.82134" lon="2.34222">
        <ele>90.1</ele>
        <time>2013-03-03T13:51:07.000Z</time>
      </trkpt>
      <trkpt lat="48.82134" lon="2.34228">
        <ele>90.7</ele>
        <time>2013-03-03T13:51:08.000Z</time>
      </trkpt>
      <trkpt lat="48.82135" lon="2.34233">
        <ele>90.5</ele>
        <time>2013-03-03T13:51:09.000Z</time>
      </trkpt>
      <trkpt lat="48.82136" lon="2.34237">
        <ele>90.7</ele>
        <time>2013-03-03T13:51:10.000Z</time>
      </trkpt>
      <trkpt lat="48.82136" lon="2.34241">
        <ele>91.1</ele>
        <time>2013-03-03T13:51:11.000Z</time>
      </trkpt>
      <trkpt lat="48.82136" lon="2.34244">
        <ele>91.8</ele>
        <time>2013-03-03T13:51:12.000Z</time>
      </trkpt>
      <trkpt lat="48.82138" lon="2.34247">
        <ele>92.6</ele>
        <time>2013-03-03T13:51:13.000Z</time>
      </trkpt>
      <trkpt lat="48.82139" lon="2.34252">
        <ele>92.1</ele>
        <time>2013-03-03T13:51:26.000Z</time>
      </trkpt>
      <trkpt lat="48.8214" lon="2.34253">
        <ele>91.2</ele>
        <time>2013-03-03T13:51:27.000Z</time>
      </trkpt>
      <trkpt lat="48.82143" lon="2.34256">
        <ele>91.1</ele>
        <time>2013-03-03T13:51:29.000Z</time>
      </trkpt>
      <trkpt lat="48.82145" lon="2.34258">
        <ele>90.5</ele>
        <time>2013-03-03T13:51:30.000Z</time>
      </trkpt>
      <trkpt lat="48.82148" lon="2.34262">
        <ele>89.6</ele>
        <time>2013-03-03T13:51:33.000Z</time>
      </trkpt>
      <trkpt lat="48.82149" lon="2.34263">
        <ele>89.8</ele>
        <time>2013-03-03T13:51:34.000Z</time>
      </trkpt>
      <trkpt lat="48.82151" lon="2.34266">
        <ele>91.8</ele>
        <time>2013-03-03T13:51:36.000Z</time>
      </trkpt>
      <trkpt lat="48.82152" lon="2.34268">
        <ele>92.5</ele>
        <time>2013-03-03T13:51:37.000Z</time>
      </trkpt>
      <trkpt lat="48.82153" lon="2.34271">
        <ele>92.3</ele>
        <time>2013-03-03T13:51:38.000Z</time>
      </trkpt>
      <trkpt lat="48.82154" lon="2.34274">
        <ele>92.3</ele>
        <time>2013-03-03T13:51:39.000Z</time>
      </trkpt>
      <trkpt lat="48.82156" lon="2.34277">
        <ele>91.8</ele>
        <time>2013-03-03T13:51:40.000Z</time>
      </trkpt>
      <trkpt lat="48.82157" lon="2.34281">
        <ele>91.6</ele>
        <time>2013-03-03T13:51:41.000Z</time>
      </trkpt>
      <trkpt lat="48.82159" lon="2.34284">
        <ele>92.1</ele>
        <time>2013-03-03T13:51:42.000Z</time>
      </trkpt>
      <trkpt lat="48.8216" lon="2.34287">
        <ele>92.2</ele>
        <time>2013-03-03T13:51:43.000Z</time>
      </trkpt>
      <trkpt lat="48.82162" lon="2.3429">
        <ele>91.2</ele>
        <time>2013-03-03T13:51:44.000Z</time>
      </trkpt>
      <trkpt lat="48.82164" lon="2.34292">
        <ele>90.7</ele>
        <time>2013-03-03T13:51:45.000Z</time>
      </trkpt>
      <trkpt lat="48.82168" lon="2.34295">
        <ele>90</ele>
        <time>2013-03-03T13:51:47.000Z</time>
      </trkpt>
      <trkpt lat="48.82169" lon="2.34296">
        <ele>91</ele>
        <time>2013-03-03T13:51:48.000Z</time>
      </trkpt>
      <trkpt lat="48.82173" lon="2.34297">
        <ele>90</ele>
        <time>2013-03-03T13:51:50.000Z</time>
      </trkpt>
      <trkpt lat="48.82175" lon="2.34298">
        <ele>89.2</ele>
        <time>2013-03-03T13:51:51.000Z</time>
      </trkpt>
      <trkpt lat="48.82177" lon="2.343">
        <ele>89.5</ele>
        <time>2013-03-03T13:51:52.000Z</time>
      </trkpt>
      <trkpt lat="48.82179" lon="2.34302">
        <ele>89.2</ele>
        <time>2013-03-03T13:51:53.000Z</time>
      </trkpt>
      <trkpt lat="48.82181" lon="2.34304">
        <ele>89.2</ele>
        <time>2013-03-03T13:51:54.000Z</time>
      </trkpt>
      <trkpt lat="48.82183" lon="2.34306">
        <ele>89.5</ele>
        <time>2013-03-03T13:51:55.000Z</time>
      </trkpt>
      <trkpt lat="48.82186" lon="2.34307">
        <ele>89.7</ele>
        <time>2013-03-03T13:51:56.000Z</time>
      </trkpt>
      <trkpt lat="48.82188" lon="2.34308">
        <ele>89.8</ele>
        <time>2013-03-03T13:51:57.000Z</time>
      </trkpt>
      <trkpt lat="48.8219" lon="2.34309">
        <ele>89.7</ele>
        <time>2013-03-03T13:51:58.000Z</time>
      </trkpt>
      <trkpt lat="48.82192" lon="2.3431">
        <ele>89.6</ele>
        <time>2013-03-03T13:51:59.000Z</time>
      </trkpt>
      <trkpt lat="48.82195" lon="2.34311">
        <ele>89.3</ele>
        <time>2013-03-03T13:52:00.000Z</time>
      </trkpt>
      <trkpt lat="48.82197" lon="2.34313">
        <ele>89.2</ele>
        <time>2013-03-03T13:52:01.000Z</time>
      </trkpt>
      <trkpt lat="48.822" lon="2.34317">
        <ele>88.2</ele>
        <time>2013-03-03T13:52:03.000Z</time>
      </trkpt>
      <trkpt lat="48.822" lon="2.34318">
        <ele>88.2</ele>
        <time>2013-03-03T13:52:04.000Z</time>
      </trkpt>
      <trkpt lat="48.82199" lon="2.34323">
        <ele>87.8</ele>
        <time>2013-03-03T13:52:07.000Z</time>
      </trkpt>
      <trkpt lat="48.82199" lon="2.34326">
        <ele>87.9</ele>
        <time>2013-03-03T13:52:08.000Z</time>
      </trkpt>
      <trkpt lat="48.82199" lon="2.34332">
        <ele>90.2</ele>
        <time>2013-03-03T13:52:25.000Z</time>
      </trkpt>
      <trkpt lat="48.822" lon="2.34334">
        <ele>91.7</ele>
        <time>2013-03-03T13:52:26.000Z</time>
      </trkpt>
      <trkpt lat="48.82202" lon="2.3434">
        <ele>93.2</ele>
        <time>2013-03-03T13:53:01.000Z</time>
      </trkpt>
      <trkpt lat="48.82203" lon="2.34342">
        <ele>93.4</ele>
        <time>2013-03-03T13:53:02.000Z</time>
      </trkpt>
      <trkpt lat="48.82205" lon="2.34345">
        <ele>94</ele>
        <time>2013-03-03T13:53:03.000Z</time>
      </trkpt>
      <trkpt lat="48.82208" lon="2.34348">
        <ele>95</ele>
        <time>2013-03-03T13:53:04.000Z</time>
      </trkpt>
      <trkpt lat="48.8221" lon="2.3435">
        <ele>94.8</ele>
        <time>2013-03-03T13:53:05.000Z</time>
      </trkpt>
      <trkpt lat="48.82213" lon="2.34353">
        <ele>92.7</ele>
        <time>2013-03-03T13:53:06.000Z</time>
      </trkpt>
      <trkpt lat="48.82216" lon="2.34356">
        <ele>92.2</ele>
        <time>2013-03-03T13:53:07.000Z</time>
      </trkpt>
      <trkpt lat="48.8222" lon="2.3436">
        <ele>93.6</ele>
        <time>2013-03-03T13:53:08.000Z</time>
      </trkpt>
      <trkpt lat="48.82223" lon="2.34363">
        <ele>90.5</ele>
        <time>2013-03-03T13:53:09.000Z</time>
      </trkpt>
      <trkpt lat="48.82225" lon="2.34367">
        <ele>89.7</ele>
        <time>2013-03-03T13:53:10.000Z</time>
      </trkpt>
      <trkpt lat="48.82227" lon="2.3437">
        <ele>87.6</ele>
        <time>2013-03-03T13:53:11.000Z</time>
      </trkpt>
      <trkpt lat="48.8223" lon="2.34373">
        <ele>85.9</ele>
        <time>2013-03-03T13:53:12.000Z</time>
      </trkpt>
      <trkpt lat="48.82232" lon="2.34376">
        <ele>84.8</ele>
        <time>2013-03-03T13:53:13.000Z</time>
      </trkpt>
      <trkpt lat="48.82235" lon="2.34379">
        <ele>84.1</ele>
        <time>2013-03-03T13:53:14.000Z</time>
      </trkpt>
      <trkpt lat="48.82238" lon="2.34382">
        <ele>84.2</ele>
        <time>2013-03-03T13:53:15.000Z</time>
      </trkpt>
      <trkpt lat="48.82241" lon="2.34384">
        <ele>82.9</ele>
        <time>2013-03-03T13:53:16.000Z</time>
      </trkpt>
      <trkpt lat="48.82244" lon="2.34386">
        <ele>83.5</ele>
        <time>2013-03-03T13:53:17.000Z</time>
      </trkpt>
      <trkpt lat="48.82247" lon="2.34387">
        <ele>83.9</ele>
        <time>2013-03-03T13:53:18.000Z</time>
      </trkpt>
      <trkpt lat="48.8225" lon="2.34388">
        <ele>82.6</ele>
        <time>2013-03-03T13:53:19.000Z</time>
      </trkpt>
      <trkpt lat="48.82253" lon="2.3439">
        <ele>83.3</ele>
        <time>2013-03-03T13:53:20.000Z</time>
      </trkpt>
      <trkpt lat="48.82256" lon="2.34393">
        <ele>84.4</ele>
        <time>2013-03-03T13:53:21.000Z</time>
      </trkpt>
      <trkpt lat="48.8226" lon="2.34397">
        <ele>86</ele>
        <time>2013-03-03T13:53:22.000Z</time>
      </trkpt>
      <trkpt lat="48.82264" lon="2.34401">
        <ele>88.9</ele>
        <time>2013-03-03T13:53:23.000Z</time>
      </trkpt>
      <trkpt lat="48.82268" lon="2.34406">
        <ele>90</ele>
        <time>2013-03-03T13:53:24.000Z</time>
      </trkpt>
      <trkpt lat="48.82272" lon="2.34411">
        <ele>93.3</ele>
        <time>2013-03-03T13:53:25.000Z</time>
      </trkpt>
      <trkpt lat="48.82276" lon="2.34415">
        <ele>96.6</ele>
        <time>2013-03-03T13:53:26.000Z</time>
      </trkpt>
      <trkpt lat="48.8228" lon="2.34418">
        <ele>97.8</ele>
        <time>2013-03-03T13:53:27.000Z</time>
      </trkpt>
      <trkpt lat="48.82283" lon="2.34421">
        <ele>97.3</ele>
        <time>2013-03-03T13:53:28.000Z</time>
      </trkpt>
      <trkpt lat="48.82286" lon="2.34424">
        <ele>97.6</ele>
        <time>2013-03-03T13:53:29.000Z</time>
      </trkpt>
      <trkpt lat="48.8229" lon="2.34428">
        <ele>96.4</ele>
        <time>2013-03-03T13:53:30.000Z</time>
      </trkpt>
      <trkpt lat="48.82292" lon="2.34431">
        <ele>96.6</ele>
        <time>2013-03-03T13:53:31.000Z</time>
      </trkpt>
      <trkpt lat="48.82295" lon="2.34434">
        <ele>96.6</ele>
        <time>2013-03-03T13:53:32.000Z</time>
      </trkpt>
      <trkpt lat="48.82298" lon="2.34437">
        <ele>96.7</ele>
        <time>2013-03-03T13:53:33.000Z</time>
      </trkpt>
      <trkpt lat="48.82303" lon="2.34443">
        <ele>97.1</ele>
        <time>2013-03-03T13:53:35.000Z</time>
      </trkpt>
      <trkpt lat="48.82302" lon="2.34448">
        <ele>96.5</ele>
        <time>2013-03-03T13:53:37.000Z</time>
      </trkpt>
      <trkpt lat="48.823" lon="2.34451">
        <ele>95.3</ele>
        <time>2013-03-03T13:53:38.000Z</time>
      </trkpt>
      <trkpt lat="48.82297" lon="2.34453">
        <ele>95.2</ele>
        <time>2013-03-03T13:53:39.000Z</time>
      </trkpt>
      <trkpt lat="48.82295" lon="2.34455">
        <ele>94.8</ele>
        <time>2013-03-03T13:53:40.000Z</time>
      </trkpt>
      <trkpt lat="48.82293" lon="2.34456">
        <ele>95.4</ele>
        <time>2013-03-03T13:53:41.000Z</time>
      </trkpt>
      <trkpt lat="48.8229" lon="2.34457">
        <ele>94.7</ele>
        <time>2013-03-03T13:53:42.000Z</time>
      </trkpt>
      <trkpt lat="48.82286" lon="2.34455">
        <ele>93.5</ele>
        <time>2013-03-03T13:53:44.000Z</time>
      </trkpt>
      <trkpt lat="48.82284" lon="2.34453">
        <ele>93.1</ele>
        <time>2013-03-03T13:53:45.000Z</time>
      </trkpt>
      <trkpt lat="48.82282" lon="2.34452">
        <ele>92.9</ele>
        <time>2013-03-03T13:53:46.000Z</time>
      </trkpt>
      <trkpt lat="48.8228" lon="2.3445">
        <ele>92.5</ele>
        <time>2013-03-03T13:53:47.000Z</time>
      </trkpt>
      <trkpt lat="48.82278" lon="2.34448">
        <ele>92</ele>
        <time>2013-03-03T13:53:48.000Z</time>
      </trkpt>
      <trkpt lat="48.82276" lon="2.34446">
        <ele>91.1</ele>
        <time>2013-03-03T13:53:49.000Z</time>
      </trkpt>
      <trkpt lat="48.82273" lon="2.34443">
        <ele>92.4</ele>
        <time>2013-03-03T13:53:51.000Z</time>
      </trkpt>
      <trkpt lat="48.82271" lon="2.34442">
        <ele>93.3</ele>
        <time>2013-03-03T13:53:52.000Z</time>
      </trkpt>
      <trkpt lat="48.82268" lon="2.34438">
        <ele>93.3</ele>
        <time>2013-03-03T13:53:56.000Z</time>
      </trkpt>
      <trkpt lat="48.82267" lon="2.34438">
        <ele>92.7</ele>
        <time>2013-03-03T13:53:57.000Z</time>
      </trkpt>
      <trkpt lat="48.82265" lon="2.34441">
        <ele>91.8</ele>
        <time>2013-03-03T13:53:59.000Z</time>
      </trkpt>
      <trkpt lat="48.82264" lon="2.34444">
        <ele>91.8</ele>
        <time>2013-03-03T13:54:00.000Z</time>
      </trkpt>
      <trkpt lat="48.82264" lon="2.34449">
        <ele>92.2</ele>
        <time>2013-03-03T13:54:02.000Z</time>
      </trkpt>
      <trkpt lat="48.82264" lon="2.34452">
        <ele>91.7</ele>
        <time>2013-03-03T13:54:03.000Z</time>
      </trkpt>
      <trkpt lat="48.82263" lon="2.34458">
        <ele>91.3</ele>
        <time>2013-03-03T13:54:05.000Z</time>
      </trkpt>
      <trkpt lat="48.82263" lon="2.34461">
        <ele>91</ele>
        <time>2013-03-03T13:54:06.000Z</time>
      </trkpt>
      <trkpt lat="48.82263" lon="2.34467">
        <ele>91.1</ele>
        <time>2013-03-03T13:54:08.000Z</time>
      </trkpt>
      <trkpt lat="48.82263" lon="2.3447">
        <ele>90.8</ele>
        <time>2013-03-03T13:54:09.000Z</time>
      </trkpt>
      <trkpt lat="48.82262" lon="2.34476">
        <ele>89.4</ele>
        <time>2013-03-03T13:54:11.000Z</time>
      </trkpt>
      <trkpt lat="48.82261" lon="2.34479">
        <ele>89.9</ele>
        <time>2013-03-03T13:54:12.000Z</time>
      </trkpt>
      <trkpt lat="48.82261" lon="2.34484">
        <ele>88.4</ele>
        <time>2013-03-03T13:54:14.000Z</time>
      </trkpt>
      <trkpt lat="48.82261" lon="2.34486">
        <ele>87.5</ele>
        <time>2013-03-03T13:54:15.000Z</time>
      </trkpt>
      <trkpt lat="48.82262" lon="2.34491">
        <ele>87.2</ele>
        <time>2013-03-03T13:54:17.000Z</time>
      </trkpt>
      <trkpt lat="48.82264" lon="2.34491">
        <ele>86.5</ele>
        <time>2013-03-03T13:54:18.000Z</time>
      </trkpt>
      <trkpt lat="48.82267" lon="2.34491">
        <ele>86.9</ele>
        <time>2013-03-03T13:54:20.000Z</time>
      </trkpt>
      <trkpt lat="48.82269" lon="2.34491">
        <ele>86.4</ele>
        <time>2013-03-03T13:54:21.000Z</time>
      </trkpt>
      <trkpt lat="48.82272" lon="2.3449">
        <ele>86.5</ele>
        <time>2013-03-03T13:54:22.000Z</time>
      </trkpt>
      <trkpt lat="48.82274" lon="2.3449">
        <ele>87.6</ele>
        <time>2013-03-03T13:54:23.000Z</time>
      </trkpt>
      <trkpt lat="48.82278" lon="2.34489">
        <ele>88.2</ele>
        <time>2013-03-03T13:54:28.000Z</time>
      </trkpt>
      <trkpt lat="48.82279" lon="2.3449">
        <ele>87.3</ele>
        <time>2013-03-03T13:54:29.000Z</time>
      </trkpt>
      <trkpt lat="48.82279" lon="2.34495">
        <ele>84.8</ele>
        <time>2013-03-03T13:54:32.000Z</time>
      </trkpt>
      <trkpt lat="48.82278" lon="2.34497">
        <ele>84.9</ele>
        <time>2013-03-03T13:54:33.000Z</time>
      </trkpt>
      <trkpt lat="48.82278" lon="2.34503">
        <ele>84.1</ele>
        <time>2013-03-03T13:54:35.000Z</time>
      </trkpt>
      <trkpt lat="48.82278" lon="2.34505">
        <ele>83.8</ele>
        <time>2013-03-03T13:54:36.000Z</time>
      </trkpt>
      <trkpt lat="48.8228" lon="2.34512">
        <ele>80.8</ele>
        <time>2013-03-03T13:54:39.000Z</time>
      </trkpt>
      <trkpt lat="48.8228" lon="2.34514">
        <ele>79.7</ele>
        <time>2013-03-03T13:54:40.000Z</time>
      </trkpt>
      <trkpt lat="48.82279" lon="2.3452">
        <ele>76.3</ele>
        <time>2013-03-03T13:54:43.000Z</time>
      </trkpt>
      <trkpt lat="48.82278" lon="2.34522">
        <ele>74.9</ele>
        <time>2013-03-03T13:54:44.000Z</time>
      </trkpt>
      <trkpt lat="48.82278" lon="2.34527">
        <ele>75.4</ele>
        <time>2013-03-03T13:54:46.000Z</time>
      </trkpt>
      <trkpt lat="48.82279" lon="2.3453">
        <ele>76.9</ele>
        <time>2013-03-03T13:54:47.000Z</time>
      </trkpt>
      <trkpt lat="48.82278" lon="2.34536">
        <ele>78.7</ele>
        <time>2013-03-03T13:54:50.000Z</time>
      </trkpt>
      <trkpt lat="48.82278" lon="2.34538">
        <ele>78.4</ele>
        <time>2013-03-03T13:54:51.000Z</time>
      </trkpt>
      <trkpt lat="48.82276" lon="2.34544">
        <ele>78.5</ele>
        <time>2013-03-03T13:54:53.000Z</time>
      </trkpt>
      <trkpt lat="48.82275" lon="2.34546">
        <ele>77.2</ele>
        <time>2013-03-03T13:54:54.000Z</time>
      </trkpt>
      <trkpt lat="48.82272" lon="2.34549">
        <ele>77</ele>
        <time>2013-03-03T13:54:56.000Z</time>
      </trkpt>
      <trkpt lat="48.82271" lon="2.34552">
        <ele>77.2</ele>
        <time>2013-03-03T13:54:57.000Z</time>
      </trkpt>
      <trkpt lat="48.82269" lon="2.34554">
        <ele>77.8</ele>
        <time>2013-03-03T13:54:58.000Z</time>
      </trkpt>
      <trkpt lat="48.82267" lon="2.34556">
        <ele>77.7</ele>
        <time>2013-03-03T13:54:59.000Z</time>
      </trkpt>
      <trkpt lat="48.82265" lon="2.34558">
        <ele>78.1</ele>
        <time>2013-03-03T13:55:00.000Z</time>
      </trkpt>
      <trkpt lat="48.82263" lon="2.34561">
        <ele>78.4</ele>
        <time>2013-03-03T13:55:01.000Z</time>
      </trkpt>
      <trkpt lat="48.8226" lon="2.34563">
        <ele>80</ele>
        <time>2013-03-03T13:55:03.000Z</time>
      </trkpt>
      <trkpt lat="48.82258" lon="2.34564">
        <ele>80.8</ele>
        <time>2013-03-03T13:55:04.000Z</time>
      </trkpt>
      <trkpt lat="48.82255" lon="2.34568">
        <ele>80.9</ele>
        <time>2013-03-03T13:55:06.000Z</time>
      </trkpt>
      <trkpt lat="48.82253" lon="2.3457">
        <ele>80.4</ele>
        <time>2013-03-03T13:55:07.000Z</time>
      </trkpt>
      <trkpt lat="48.82251" lon="2.34573">
        <ele>81</ele>
        <time>2013-03-03T13:55:08.000Z</time>
      </trkpt>
      <trkpt lat="48.82249" lon="2.34576">
        <ele>80</ele>
        <time>2013-03-03T13:55:09.000Z</time>
      </trkpt>
      <trkpt lat="48.82246" lon="2.34578">
        <ele>80.6</ele>
        <time>2013-03-03T13:55:11.000Z</time>
      </trkpt>
      <trkpt lat="48.82244" lon="2.34579">
        <ele>80.5</ele>
        <time>2013-03-03T13:55:12.000Z</time>
      </trkpt>
      <trkpt lat="48.82242" lon="2.34584">
        <ele>76.7</ele>
        <time>2013-03-03T13:55:14.000Z</time>
      </trkpt>
      <trkpt lat="48.82242" lon="2.34588">
        <ele>73.5</ele>
        <time>2013-03-03T13:55:15.000Z</time>
      </trkpt>
      <trkpt lat="48.82242" lon="2.34592">
        <ele>73.8</ele>
        <time>2013-03-03T13:55:16.000Z</time>
      </trkpt>
      <trkpt lat="48.82242" lon="2.34597">
        <ele>73.3</ele>
        <time>2013-03-03T13:55:17.000Z</time>
      </trkpt>
      <trkpt lat="48.82243" lon="2.34601">
        <ele>74.1</ele>
        <time>2013-03-03T13:55:18.000Z</time>
      </trkpt>
      <trkpt lat="48.82243" lon="2.34605">
        <ele>74.4</ele>
        <time>2013-03-03T13:55:19.000Z</time>
      </trkpt>
      <trkpt lat="48.82244" lon="2.34609">
        <ele>73.8</ele>
        <time>2013-03-03T13:55:20.000Z</time>
      </trkpt>
      <trkpt lat="48.82245" lon="2.34614">
        <ele>74.8</ele>
        <time>2013-03-03T13:55:21.000Z</time>
      </trkpt>
      <trkpt lat="48.82246" lon="2.34617">
        <ele>74.5</ele>
        <time>2013-03-03T13:55:22.000Z</time>
      </trkpt>
      <trkpt lat="48.82247" lon="2.3462">
        <ele>75.2</ele>
        <time>2013-03-03T13:55:23.000Z</time>
      </trkpt>
      <trkpt lat="48.8225" lon="2.34625">
        <ele>75.9</ele>
        <time>2013-03-03T13:55:25.000Z</time>
      </trkpt>
      <trkpt lat="48.82251" lon="2.34627">
        <ele>76.2</ele>
        <time>2013-03-03T13:55:26.000Z</time>
      </trkpt>
      <trkpt lat="48.82255" lon="2.3463">
        <ele>79.3</ele>
        <time>2013-03-03T13:55:29.000Z</time>
      </trkpt>
      <trkpt lat="48.82256" lon="2.3463">
        <ele>79.3</ele>
        <time>2013-03-03T13:55:30.000Z</time>
      </trkpt>
      <trkpt lat="48.82257" lon="2.34635">
        <ele>83.1</ele>
        <time>2013-03-03T13:55:34.000Z</time>
      </trkpt>
      <trkpt lat="48.82258" lon="2.34638">
        <ele>81.9</ele>
        <time>2013-03-03T13:55:35.000Z</time>
      </trkpt>
      <trkpt lat="48.82259" lon="2.34644">
        <ele>82.8</ele>
        <time>2013-03-03T13:55:37.000Z</time>
      </trkpt>
      <trkpt lat="48.82259" lon="2.34647">
        <ele>82.4</ele>
        <time>2013-03-03T13:55:38.000Z</time>
      </trkpt>
      <trkpt lat="48.8226" lon="2.34652">
        <ele>82</ele>
        <time>2013-03-03T13:55:40.000Z</time>
      </trkpt>
      <trkpt lat="48.8226" lon="2.34654">
        <ele>81.6</ele>
        <time>2013-03-03T13:55:41.000Z</time>
      </trkpt>
      <trkpt lat="48.82262" lon="2.34659">
        <ele>80.9</ele>
        <time>2013-03-03T13:55:43.000Z</time>
      </trkpt>
      <trkpt lat="48.82263" lon="2.34661">
        <ele>81.5</ele>
        <time>2013-03-03T13:55:44.000Z</time>
      </trkpt>
      <trkpt lat="48.82264" lon="2.34667">
        <ele>82.4</ele>
        <time>2013-03-03T13:55:46.000Z</time>
      </trkpt>
      <trkpt lat="48.82264" lon="2.3467">
        <ele>82.5</ele>
        <time>2013-03-03T13:55:47.000Z</time>
      </trkpt>
      <trkpt lat="48.82264" lon="2.34675">
        <ele>84.2</ele>
        <time>2013-03-03T13:55:49.000Z</time>
      </trkpt>
      <trkpt lat="48.82264" lon="2.34678">
        <ele>83.7</ele>
        <time>2013-03-03T13:55:50.000Z</time>
      </trkpt>
      <trkpt lat="48.82265" lon="2.34684">
        <ele>84</ele>
        <time>2013-03-03T13:55:52.000Z</time>
      </trkpt>
      <trkpt lat="48.82264" lon="2.34688">
        <ele>83.1</ele>
        <time>2013-03-03T13:55:53.000Z</time>
      </trkpt>
      <trkpt lat="48.82263" lon="2.34694">
        <ele>83.6</ele>
        <time>2013-03-03T13:55:55.000Z</time>
      </trkpt>
      <trkpt lat="48.82262" lon="2.34697">
        <ele>84.8</ele>
        <time>2013-03-03T13:55:56.000Z</time>
      </trkpt>
      <trkpt lat="48.8226" lon="2.34703">
        <ele>83.5</ele>
        <time>2013-03-03T13:55:58.000Z</time>
      </trkpt>
      <trkpt lat="48.82259" lon="2.34705">
        <ele>83.5</ele>
        <time>2013-03-03T13:55:59.000Z</time>
      </trkpt>
      <trkpt lat="48.82258" lon="2.34711">
        <ele>86.7</ele>
        <time>2013-03-03T13:56:01.000Z</time>
      </trkpt>
      <trkpt lat="48.82257" lon="2.34714">
        <ele>87.3</ele>
        <time>2013-03-03T13:56:02.000Z</time>
      </trkpt>
      <trkpt lat="48.82254" lon="2.34717">
        <ele>89</ele>
        <time>2013-03-03T13:56:04.000Z</time>
      </trkpt>
      <trkpt lat="48.82252" lon="2.34719">
        <ele>89.8</ele>
        <time>2013-03-03T13:56:05.000Z</time>
      </trkpt>
      <trkpt lat="48.82251" lon="2.34725">
        <ele>90.3</ele>
        <time>2013-03-03T13:56:07.000Z</time>
      </trkpt>
      <trkpt lat="48.8225" lon="2.34727">
        <ele>90.3</ele>
        <time>2013-03-03T13:56:08.000Z</time>
      </trkpt>
      <trkpt lat="48.82249" lon="2.34733">
        <ele>90.8</ele>
        <time>2013-03-03T13:56:10.000Z</time>
      </trkpt>
      <trkpt lat="48.82248" lon="2.34736">
        <ele>91</ele>
        <time>2013-03-03T13:56:11.000Z</time>
      </trkpt>
      <trkpt lat="48.82249" lon="2.34742">
        <ele>91.7</ele>
        <time>2013-03-03T13:56:13.000Z</time>
      </trkpt>
      <trkpt lat="48.8225" lon="2.34745">
        <ele>92.6</ele>
        <time>2013-03-03T13:56:14.000Z</time>
      </trkpt>
      <trkpt lat="48.82251" lon="2.34748">
        <ele>92.5</ele>
        <time>2013-03-03T13:56:15.000Z</time>
      </trkpt>
      <trkpt lat="48.82253" lon="2.34752">
        <ele>93.5</ele>
        <time>2013-03-03T13:56:16.000Z</time>
      </trkpt>
      <trkpt lat="48.82255" lon="2.34756">
        <ele>93.1</ele>
        <time>2013-03-03T13:56:17.000Z</time>
      </trkpt>
      <trkpt lat="48.82257" lon="2.34759">
        <ele>92.8</ele>
        <time>2013-03-03T13:56:18.000Z</time>
      </trkpt>
      <trkpt lat="48.82259" lon="2.34763">
        <ele>92.5</ele>
        <time>2013-03-03T13:56:19.000Z</time>
      </trkpt>
      <trkpt lat="48.82261" lon="2.34767">
        <ele>91.7</ele>
        <time>2013-03-03T13:56:20.000Z</time>
      </trkpt>
      <trkpt lat="48.82263" lon="2.34771">
        <ele>90.1</ele>
        <time>2013-03-03T13:56:21.000Z</time>
      </trkpt>
      <trkpt lat="48.82265" lon="2.34774">
        <ele>90.3</ele>
        <time>2013-03-03T13:56:22.000Z</time>
      </trkpt>
      <trkpt lat="48.82267" lon="2.34778">
        <ele>90.1</ele>
        <time>2013-03-03T13:56:23.000Z</time>
      </trkpt>
      <trkpt lat="48.82269" lon="2.34782">
        <ele>90.2</ele>
        <time>2013-03-03T13:56:24.000Z</time>
      </trkpt>
      <trkpt lat="48.8227" lon="2.34786">
        <ele>90.7</ele>
        <time>2013-03-03T13:56:25.000Z</time>
      </trkpt>
      <trkpt lat="48.82272" lon="2.3479">
        <ele>89.8</ele>
        <time>2013-03-03T13:56:26.000Z</time>
      </trkpt>
      <trkpt lat="48.82273" lon="2.34794">
        <ele>88.8</ele>
        <time>2013-03-03T13:56:27.000Z</time>
      </trkpt>
      <trkpt lat="48.82275" lon="2.34798">
        <ele>88.4</ele>
        <time>2013-03-03T13:56:28.000Z</time>
      </trkpt>
      <trkpt lat="48.82277" lon="2.34803">
        <ele>87.8</ele>
        <time>2013-03-03T13:56:29.000Z</time>
      </trkpt>
      <trkpt lat="48.82278" lon="2.34807">
        <ele>88.2</ele>
        <time>2013-03-03T13:56:30.000Z</time>
      </trkpt>
      <trkpt lat="48.8228" lon="2.34811">
        <ele>87.6</ele>
        <time>2013-03-03T13:56:31.000Z</time>
      </trkpt>
      <trkpt lat="48.82281" lon="2.34815">
        <ele>87.9</ele>
        <time>2013-03-03T13:56:32.000Z</time>
      </trkpt>
      <trkpt lat="48.82283" lon="2.34819">
        <ele>86.6</ele>
        <time>2013-03-03T13:56:33.000Z</time>
      </trkpt>
      <trkpt lat="48.82284" lon="2.34823">
        <ele>87</ele>
        <time>2013-03-03T13:56:34.000Z</time>
      </trkpt>
      <trkpt lat="48.82285" lon="2.34827">
        <ele>88</ele>
        <time>2013-03-03T13:56:35.000Z</time>
      </trkpt>
      <trkpt lat="48.82286" lon="2.34832">
        <ele>87.8</ele>
        <time>2013-03-03T13:56:36.000Z</time>
      </trkpt>
      <trkpt lat="48.82287" lon="2.34835">
        <ele>87</ele>
        <time>2013-03-03T13:56:37.000Z</time>
      </trkpt>
      <trkpt lat="48.82289" lon="2.34839">
        <ele>86.1</ele>
        <time>2013-03-03T13:56:38.000Z</time>
      </trkpt>
      <trkpt lat="48.8229" lon="2.34843">
        <ele>86.2</ele>
        <time>2013-03-03T13:56:39.000Z</time>
      </trkpt>
      <trkpt lat="48.82292" lon="2.34847">
        <ele>87.1</ele>
        <time>2013-03-03T13:56:40.000Z</time>
      </trkpt>
      <trkpt lat="48.82294" lon="2.3485">
        <ele>87.1</ele>
        <time>2013-03-03T13:56:41.000Z</time>
      </trkpt>
      <trkpt lat="48.82295" lon="2.34853">
        <ele>86.7</ele>
        <time>2013-03-03T13:56:42.000Z</time>
      </trkpt>
      <trkpt lat="48.82297" lon="2.34856">
        <ele>86.7</ele>
        <time>2013-03-03T13:56:43.000Z</time>
      </trkpt>
      <trkpt lat="48.82298" lon="2.34858">
        <ele>86.4</ele>
        <time>2013-03-03T13:56:44.000Z</time>
      </trkpt>
      <trkpt lat="48.82301" lon="2.34863">
        <ele>84.3</ele>
        <time>2013-03-03T13:56:46.000Z</time>
      </trkpt>
      <trkpt lat="48.82302" lon="2.34867">
        <ele>84.3</ele>
        <time>2013-03-03T13:56:47.000Z</time>
      </trkpt>
      <trkpt lat="48.82304" lon="2.34871">
        <ele>84.2</ele>
        <time>2013-03-03T13:56:48.000Z</time>
      </trkpt>
      <trkpt lat="48.82305" lon="2.34874">
        <ele>83.6</ele>
        <time>2013-03-03T13:56:49.000Z</time>
      </trkpt>
      <trkpt lat="48.82307" lon="2.34877">
        <ele>83.5</ele>
        <time>2013-03-03T13:56:50.000Z</time>
      </trkpt>
      <trkpt lat="48.82308" lon="2.34881">
        <ele>84.4</ele>
        <time>2013-03-03T13:56:51.000Z</time>
      </trkpt>
      <trkpt lat="48.82309" lon="2.34884">
        <ele>84.3</ele>
        <time>2013-03-03T13:56:52.000Z</time>
      </trkpt>
      <trkpt lat="48.82311" lon="2.34888">
        <ele>84</ele>
        <time>2013-03-03T13:56:53.000Z</time>
      </trkpt>
      <trkpt lat="48.82313" lon="2.34892">
        <ele>83.8</ele>
        <time>2013-03-03T13:56:54.000Z</time>
      </trkpt>
      <trkpt lat="48.82314" lon="2.34896">
        <ele>83.7</ele>
        <time>2013-03-03T13:56:55.000Z</time>
      </trkpt>
      <trkpt lat="48.82316" lon="2.34899">
        <ele>83.8</ele>
        <time>2013-03-03T13:56:56.000Z</time>
      </trkpt>
      <trkpt lat="48.82319" lon="2.34903">
        <ele>84.2</ele>
        <time>2013-03-03T13:56:57.000Z</time>
      </trkpt>
      <trkpt lat="48.82321" lon="2.34907">
        <ele>83.8</ele>
        <time>2013-03-03T13:56:58.000Z</time>
      </trkpt>
      <trkpt lat="48.82324" lon="2.34912">
        <ele>83.6</ele>
        <time>2013-03-03T13:56:59.000Z</time>
      </trkpt>
      <trkpt lat="48.82328" lon="2.34917">
        <ele>83.5</ele>
        <time>2013-03-03T13:57:00.000Z</time>
      </trkpt>
      <trkpt lat="48.82331" lon="2.34921">
        <ele>83.4</ele>
        <time>2013-03-03T13:57:01.000Z</time>
      </trkpt>
      <trkpt lat="48.82334" lon="2.34925">
        <ele>83.4</ele>
        <time>2013-03-03T13:57:02.000Z</time>
      </trkpt>
      <trkpt lat="48.82338" lon="2.3493">
        <ele>83.4</ele>
        <time>2013-03-03T13:57:03.000Z</time>
      </trkpt>
      <trkpt lat="48.82341" lon="2.34934">
        <ele>83.3</ele>
        <time>2013-03-03T13:57:04.000Z</time>
      </trkpt>
      <trkpt lat="48.82344" lon="2.34938">
        <ele>83</ele>
        <time>2013-03-03T13:57:05.000Z</time>
      </trkpt>
      <trkpt lat="48.82347" lon="2.34942">
        <ele>82.3</ele>
        <time>2013-03-03T13:57:06.000Z</time>
      </trkpt>
      <trkpt lat="48.8235" lon="2.34946">
        <ele>81.8</ele>
        <time>2013-03-03T13:57:07.000Z</time>
      </trkpt>
      <trkpt lat="48.82353" lon="2.34949">
        <ele>80.7</ele>
        <time>2013-03-03T13:57:08.000Z</time>
      </trkpt>
      <trkpt lat="48.82356" lon="2.34952">
        <ele>80.6</ele>
        <time>2013-03-03T13:57:09.000Z</time>
      </trkpt>
      <trkpt lat="48.82359" lon="2.34955">
        <ele>80.2</ele>
        <time>2013-03-03T13:57:10.000Z</time>
      </trkpt>
      <trkpt lat="48.82362" lon="2.34958">
        <ele>80.6</ele>
        <time>2013-03-03T13:57:11.000Z</time>
      </trkpt>
      <trkpt lat="48.82364" lon="2.34961">
        <ele>81.7</ele>
        <time>2013-03-03T13:57:12.000Z</time>
      </trkpt>
      <trkpt lat="48.82367" lon="2.34965">
        <ele>82</ele>
        <time>2013-03-03T13:57:13.000Z</time>
      </trkpt>
      <trkpt lat="48.82369" lon="2.3497">
        <ele>83</ele>
        <time>2013-03-03T13:57:14.000Z</time>
      </trkpt>
      <trkpt lat="48.82372" lon="2.34974">
        <ele>82.7</ele>
        <time>2013-03-03T13:57:15.000Z</time>
      </trkpt>
      <trkpt lat="48.82374" lon="2.34978">
        <ele>82.2</ele>
        <time>2013-03-03T13:57:16.000Z</time>
      </trkpt>
      <trkpt lat="48.82377" lon="2.34982">
        <ele>81.9</ele>
        <time>2013-03-03T13:57:17.000Z</time>
      </trkpt>
      <trkpt lat="48.82379" lon="2.34986">
        <ele>81.3</ele>
        <time>2013-03-03T13:57:18.000Z</time>
      </trkpt>
      <trkpt lat="48.82382" lon="2.3499">
        <ele>81.9</ele>
        <time>2013-03-03T13:57:19.000Z</time>
      </trkpt>
      <trkpt lat="48.82384" lon="2.34994">
        <ele>82.1</ele>
        <time>2013-03-03T13:57:20.000Z</time>
      </trkpt>
      <trkpt lat="48.82387" lon="2.34998">
        <ele>81.9</ele>
        <time>2013-03-03T13:57:21.000Z</time>
      </trkpt>
      <trkpt lat="48.82389" lon="2.35001">
        <ele>81.9</ele>
        <time>2013-03-03T13:57:22.000Z</time>
      </trkpt>
      <trkpt lat="48.82391" lon="2.35005">
        <ele>81.3</ele>
        <time>2013-03-03T13:57:23.000Z</time>
      </trkpt>
      <trkpt lat="48.82394" lon="2.3501">
        <ele>79.8</ele>
        <time>2013-03-03T13:57:25.000Z</time>
      </trkpt>
      <trkpt lat="48.82395" lon="2.35014">
        <ele>78.2</ele>
        <time>2013-03-03T13:57:26.000Z</time>
      </trkpt>
      <trkpt lat="48.82395" lon="2.35019">
        <ele>76.5</ele>
        <time>2013-03-03T13:57:27.000Z</time>
      </trkpt>
      <trkpt lat="48.82396" lon="2.35023">
        <ele>77.6</ele>
        <time>2013-03-03T13:57:28.000Z</time>
      </trkpt>
      <trkpt lat="48.82396" lon="2.35027">
        <ele>77.7</ele>
        <time>2013-03-03T13:57:29.000Z</time>
      </trkpt>
      <trkpt lat="48.82397" lon="2.35032">
        <ele>78.3</ele>
        <time>2013-03-03T13:57:30.000Z</time>
      </trkpt>
      <trkpt lat="48.82397" lon="2.35036">
        <ele>78.6</ele>
        <time>2013-03-03T13:57:31.000Z</time>
      </trkpt>
      <trkpt lat="48.82397" lon="2.3504">
        <ele>78.2</ele>
        <time>2013-03-03T13:57:32.000Z</time>
      </trkpt>
      <trkpt lat="48.82397" lon="2.35045">
        <ele>78.6</ele>
        <time>2013-03-03T13:57:33.000Z</time>
      </trkpt>
      <trkpt lat="48.82397" lon="2.35049">
        <ele>79.7</ele>
        <time>2013-03-03T13:57:34.000Z</time>
      </trkpt>
      <trkpt lat="48.82398" lon="2.35054">
        <ele>80</ele>
        <time>2013-03-03T13:57:35.000Z</time>
      </trkpt>
      <trkpt lat="48.82398" lon="2.35059">
        <ele>80.8</ele>
        <time>2013-03-03T13:57:36.000Z</time>
      </trkpt>
      <trkpt lat="48.82397" lon="2.35063">
        <ele>79.8</ele>
        <time>2013-03-03T13:57:37.000Z</time>
      </trkpt>
      <trkpt lat="48.82396" lon="2.35067">
        <ele>79.9</ele>
        <time>2013-03-03T13:57:38.000Z</time>
      </trkpt>
      <trkpt lat="48.82394" lon="2.35071">
        <ele>79.3</ele>
        <time>2013-03-03T13:57:39.000Z</time>
      </trkpt>
      <trkpt lat="48.82393" lon="2.35075">
        <ele>78.8</ele>
        <time>2013-03-03T13:57:40.000Z</time>
      </trkpt>
      <trkpt lat="48.82392" lon="2.35078">
        <ele>77.2</ele>
        <time>2013-03-03T13:57:41.000Z</time>
      </trkpt>
      <trkpt lat="48.82391" lon="2.35082">
        <ele>77.1</ele>
        <time>2013-03-03T13:57:42.000Z</time>
      </trkpt>
      <trkpt lat="48.8239" lon="2.35088">
        <ele>76.7</ele>
        <time>2013-03-03T13:57:44.000Z</time>
      </trkpt>
      <trkpt lat="48.82389" lon="2.35091">
        <ele>77.1</ele>
        <time>2013-03-03T13:57:45.000Z</time>
      </trkpt>
      <trkpt lat="48.82389" lon="2.35096">
        <ele>78</ele>
        <time>2013-03-03T13:57:47.000Z</time>
      </trkpt>
      <trkpt lat="48.82388" lon="2.35098">
        <ele>78.2</ele>
        <time>2013-03-03T13:57:48.000Z</time>
      </trkpt>
      <trkpt lat="48.82392" lon="2.35099">
        <ele>80.6</ele>
        <time>2013-03-03T13:57:52.000Z</time>
      </trkpt>
      <trkpt lat="48.82393" lon="2.35099">
        <ele>80.3</ele>
        <time>2013-03-03T13:57:53.000Z</time>
      </trkpt>
      <trkpt lat="48.82398" lon="2.35099">
        <ele>81.9</ele>
        <time>2013-03-03T13:57:56.000Z</time>
      </trkpt>
      <trkpt lat="48.82399" lon="2.35099">
        <ele>82.4</ele>
        <time>2013-03-03T13:57:57.000Z</time>
      </trkpt>
      <trkpt lat="48.82403" lon="2.351">
        <ele>83.9</ele>
        <time>2013-03-03T13:57:59.000Z</time>
      </trkpt>
      <trkpt lat="48.82404" lon="2.351">
        <ele>83.1</ele>
        <time>2013-03-03T13:58:00.000Z</time>
      </trkpt>
      <trkpt lat="48.82408" lon="2.35103">
        <ele>82.4</ele>
        <time>2013-03-03T13:58:10.000Z</time>
      </trkpt>
      <trkpt lat="48.82409" lon="2.35102">
        <ele>81.5</ele>
        <time>2013-03-03T13:58:11.000Z</time>
      </trkpt>
      <trkpt lat="48.8241" lon="2.35106">
        <ele>82.3</ele>
        <time>2013-03-03T14:00:07.000Z</time>
      </trkpt>
      <trkpt lat="48.82409" lon="2.3511">
        <ele>82.7</ele>
        <time>2013-03-03T14:00:08.000Z</time>
      </trkpt>
      <trkpt lat="48.82409" lon="2.35113">
        <ele>83.4</ele>
        <time>2013-03-03T14:00:09.000Z</time>
      </trkpt>
      <trkpt lat="48.82408" lon="2.35117">
        <ele>83.3</ele>
        <time>2013-03-03T14:00:10.000Z</time>
      </trkpt>
      <trkpt lat="48.82409" lon="2.35124">
        <ele>81.7</ele>
        <time>2013-03-03T14:00:12.000Z</time>
      </trkpt>
      <trkpt lat="48.8241" lon="2.35126">
        <ele>82.9</ele>
        <time>2013-03-03T14:00:13.000Z</time>
      </trkpt>
      <trkpt lat="48.82411" lon="2.35132">
        <ele>85.1</ele>
        <time>2013-03-03T14:00:15.000Z</time>
      </trkpt>
      <trkpt lat="48.82411" lon="2.35136">
        <ele>85.5</ele>
        <time>2013-03-03T14:00:16.000Z</time>
      </trkpt>
      <trkpt lat="48.82411" lon="2.35141">
        <ele>86.5</ele>
        <time>2013-03-03T14:00:17.000Z</time>
      </trkpt>
      <trkpt lat="48.82412" lon="2.35146">
        <ele>87</ele>
        <time>2013-03-03T14:00:18.000Z</time>
      </trkpt>
      <trkpt lat="48.82412" lon="2.35153">
        <ele>86.7</ele>
        <time>2013-03-03T14:00:19.000Z</time>
      </trkpt>
      <trkpt lat="48.82412" lon="2.35159">
        <ele>86.6</ele>
        <time>2013-03-03T14:00:20.000Z</time>
      </trkpt>
      <trkpt lat="48.82413" lon="2.35164">
        <ele>87</ele>
        <time>2013-03-03T14:00:21.000Z</time>
      </trkpt>
      <trkpt lat="48.82413" lon="2.3517">
        <ele>87.5</ele>
        <time>2013-03-03T14:00:22.000Z</time>
      </trkpt>
      <trkpt lat="48.82413" lon="2.35175">
        <ele>87.6</ele>
        <time>2013-03-03T14:00:23.000Z</time>
      </trkpt>
      <trkpt lat="48.82413" lon="2.3518">
        <ele>85.4</ele>
        <time>2013-03-03T14:00:24.000Z</time>
      </trkpt>
      <trkpt lat="48.82413" lon="2.35184">
        <ele>84.9</ele>
        <time>2013-03-03T14:00:25.000Z</time>
      </trkpt>
      <trkpt lat="48.82412" lon="2.35189">
        <ele>85.2</ele>
        <time>2013-03-03T14:00:26.000Z</time>
      </trkpt>
      <trkpt lat="48.82411" lon="2.35194">
        <ele>85.4</ele>
        <time>2013-03-03T14:00:27.000Z</time>
      </trkpt>
      <trkpt lat="48.82411" lon="2.35199">
        <ele>86.2</ele>
        <time>2013-03-03T14:00:28.000Z</time>
      </trkpt>
      <trkpt lat="48.8241" lon="2.35203">
        <ele>84.5</ele>
        <time>2013-03-03T14:00:29.000Z</time>
      </trkpt>
      <trkpt lat="48.82409" lon="2.35208">
        <ele>84.3</ele>
        <time>2013-03-03T14:00:30.000Z</time>
      </trkpt>
      <trkpt lat="48.82408" lon="2.35213">
        <ele>84.9</ele>
        <time>2013-03-03T14:00:31.000Z</time>
      </trkpt>
      <trkpt lat="48.82407" lon="2.35218">
        <ele>86</ele>
        <time>2013-03-03T14:00:32.000Z</time>
      </trkpt>
      <trkpt lat="48.82406" lon="2.35223">
        <ele>86.5</ele>
        <time>2013-03-03T14:00:33.000Z</time>
      </trkpt>
      <trkpt lat="48.82405" lon="2.35229">
        <ele>87.4</ele>
        <time>2013-03-03T14:00:34.000Z</time>
      </trkpt>
      <trkpt lat="48.82404" lon="2.35235">
        <ele>88.3</ele>
        <time>2013-03-03T14:00:35.000Z</time>
      </trkpt>
      <trkpt lat="48.82404" lon="2.35241">
        <ele>88.9</ele>
        <time>2013-03-03T14:00:36.000Z</time>
      </trkpt>
      <trkpt lat="48.82403" lon="2.35246">
        <ele>89.7</ele>
        <time>2013-03-03T14:00:37.000Z</time>
      </trkpt>
      <trkpt lat="48.82402" lon="2.35252">
        <ele>90.4</ele>
        <time>2013-03-03T14:00:38.000Z</time>
      </trkpt>
      <trkpt lat="48.82401" lon="2.35257">
        <ele>90.1</ele>
        <time>2013-03-03T14:00:39.000Z</time>
      </trkpt>
      <trkpt lat="48.82401" lon="2.35261">
        <ele>89.9</ele>
        <time>2013-03-03T14:00:40.000Z</time>
      </trkpt>
      <trkpt lat="48.824" lon="2.35266">
        <ele>89.4</ele>
        <time>2013-03-03T14:00:41.000Z</time>
      </trkpt>
      <trkpt lat="48.824" lon="2.3527">
        <ele>89.7</ele>
        <time>2013-03-03T14:00:42.000Z</time>
      </trkpt>
      <trkpt lat="48.824" lon="2.35274">
        <ele>89.8</ele>
        <time>2013-03-03T14:00:43.000Z</time>
      </trkpt>
      <trkpt lat="48.824" lon="2.35279">
        <ele>89.3</ele>
        <time>2013-03-03T14:00:44.000Z</time>
      </trkpt>
      <trkpt lat="48.82399" lon="2.35283">
        <ele>88.9</ele>
        <time>2013-03-03T14:00:45.000Z</time>
      </trkpt>
      <trkpt lat="48.82397" lon="2.35286">
        <ele>89.6</ele>
        <time>2013-03-03T14:00:46.000Z</time>
      </trkpt>
      <trkpt lat="48.82395" lon="2.35289">
        <ele>90.9</ele>
        <time>2013-03-03T14:00:47.000Z</time>
      </trkpt>
      <trkpt lat="48.82393" lon="2.35291">
        <ele>92</ele>
        <time>2013-03-03T14:00:48.000Z</time>
      </trkpt>
      <trkpt lat="48.8239" lon="2.35293">
        <ele>93</ele>
        <time>2013-03-03T14:00:49.000Z</time>
      </trkpt>
      <trkpt lat="48.82387" lon="2.35294">
        <ele>93</ele>
        <time>2013-03-03T14:00:50.000Z</time>
      </trkpt>
      <trkpt lat="48.82385" lon="2.35295">
        <ele>93.5</ele>
        <time>2013-03-03T14:00:51.000Z</time>
      </trkpt>
      <trkpt lat="48.82382" lon="2.35296">
        <ele>93.8</ele>
        <time>2013-03-03T14:00:52.000Z</time>
      </trkpt>
      <trkpt lat="48.8238" lon="2.35299">
        <ele>93.6</ele>
        <time>2013-03-03T14:00:54.000Z</time>
      </trkpt>
      <trkpt lat="48.82378" lon="2.35301">
        <ele>92.9</ele>
        <time>2013-03-03T14:00:55.000Z</time>
      </trkpt>
      <trkpt lat="48.82375" lon="2.35305">
        <ele>91.8</ele>
        <time>2013-03-03T14:00:57.000Z</time>
      </trkpt>
      <trkpt lat="48.82375" lon="2.35309">
        <ele>91</ele>
        <time>2013-03-03T14:00:58.000Z</time>
      </trkpt>
      <trkpt lat="48.82374" lon="2.35314">
        <ele>90.9</ele>
        <time>2013-03-03T14:01:00.000Z</time>
      </trkpt>
      <trkpt lat="48.82374" lon="2.35316">
        <ele>90.8</ele>
        <time>2013-03-03T14:01:01.000Z</time>
      </trkpt>
      <trkpt lat="48.82374" lon="2.35322">
        <ele>91.2</ele>
        <time>2013-03-03T14:01:03.000Z</time>
      </trkpt>
      <trkpt lat="48.82374" lon="2.35324">
        <ele>91.6</ele>
        <time>2013-03-03T14:01:04.000Z</time>
      </trkpt>
      <trkpt lat="48.82374" lon="2.35328">
        <ele>92</ele>
        <time>2013-03-03T14:01:05.000Z</time>
      </trkpt>
      <trkpt lat="48.82374" lon="2.35331">
        <ele>92.3</ele>
        <time>2013-03-03T14:01:06.000Z</time>
      </trkpt>
      <trkpt lat="48.82374" lon="2.35335">
        <ele>92.7</ele>
        <time>2013-03-03T14:01:07.000Z</time>
      </trkpt>
      <trkpt lat="48.82374" lon="2.35338">
        <ele>92.9</ele>
        <time>2013-03-03T14:01:08.000Z</time>
      </trkpt>
      <trkpt lat="48.82374" lon="2.35342">
        <ele>92.9</ele>
        <time>2013-03-03T14:01:09.000Z</time>
      </trkpt>
      <trkpt lat="48.82375" lon="2.35345">
        <ele>93</ele>
        <time>2013-03-03T14:01:10.000Z</time>
      </trkpt>
      <trkpt lat="48.82376" lon="2.35349">
        <ele>93.1</ele>
        <time>2013-03-03T14:01:11.000Z</time>
      </trkpt>
      <trkpt lat="48.82376" lon="2.35353">
        <ele>93.6</ele>
        <time>2013-03-03T14:01:12.000Z</time>
      </trkpt>
      <trkpt lat="48.82375" lon="2.35359">
        <ele>95.2</ele>
        <time>2013-03-03T14:01:14.000Z</time>
      </trkpt>
      <trkpt lat="48.82375" lon="2.35361">
        <ele>95.4</ele>
        <time>2013-03-03T14:01:15.000Z</time>
      </trkpt>
      <trkpt lat="48.82373" lon="2.35366">
        <ele>95.1</ele>
        <time>2013-03-03T14:01:17.000Z</time>
      </trkpt>
      <trkpt lat="48.82372" lon="2.3537">
        <ele>94.9</ele>
        <time>2013-03-03T14:01:18.000Z</time>
      </trkpt>
      <trkpt lat="48.8237" lon="2.35373">
        <ele>95</ele>
        <time>2013-03-03T14:01:19.000Z</time>
      </trkpt>
      <trkpt lat="48.82369" lon="2.35377">
        <ele>95</ele>
        <time>2013-03-03T14:01:20.000Z</time>
      </trkpt>
      <trkpt lat="48.82368" lon="2.35381">
        <ele>95</ele>
        <time>2013-03-03T14:01:21.000Z</time>
      </trkpt>
      <trkpt lat="48.82366" lon="2.35385">
        <ele>94.1</ele>
        <time>2013-03-03T14:01:22.000Z</time>
      </trkpt>
      <trkpt lat="48.82364" lon="2.35388">
        <ele>92.9</ele>
        <time>2013-03-03T14:01:23.000Z</time>
      </trkpt>
      <trkpt lat="48.82362" lon="2.35392">
        <ele>92</ele>
        <time>2013-03-03T14:01:24.000Z</time>
      </trkpt>
      <trkpt lat="48.82359" lon="2.35395">
        <ele>91.2</ele>
        <time>2013-03-03T14:01:25.000Z</time>
      </trkpt>
      <trkpt lat="48.82357" lon="2.35399">
        <ele>91.4</ele>
        <time>2013-03-03T14:01:26.000Z</time>
      </trkpt>
      <trkpt lat="48.82354" lon="2.35402">
        <ele>90.4</ele>
        <time>2013-03-03T14:01:27.000Z</time>
      </trkpt>
      <trkpt lat="48.82352" lon="2.35405">
        <ele>89.4</ele>
        <time>2013-03-03T14:01:28.000Z</time>
      </trkpt>
      <trkpt lat="48.8235" lon="2.35407">
        <ele>88.3</ele>
        <time>2013-03-03T14:01:29.000Z</time>
      </trkpt>
      <trkpt lat="48.82349" lon="2.3541">
        <ele>88.7</ele>
        <time>2013-03-03T14:01:30.000Z</time>
      </trkpt>
      <trkpt lat="48.82347" lon="2.35415">
        <ele>88.2</ele>
        <time>2013-03-03T14:01:32.000Z</time>
      </trkpt>
      <trkpt lat="48.82346" lon="2.35417">
        <ele>88.6</ele>
        <time>2013-03-03T14:01:33.000Z</time>
      </trkpt>
      <trkpt lat="48.82343" lon="2.35421">
        <ele>87.3</ele>
        <time>2013-03-03T14:01:35.000Z</time>
      </trkpt>
      <trkpt lat="48.82341" lon="2.35423">
        <ele>86.9</ele>
        <time>2013-03-03T14:01:36.000Z</time>
      </trkpt>
      <trkpt lat="48.82337" lon="2.35425">
        <ele>86.4</ele>
        <time>2013-03-03T14:01:39.000Z</time>
      </trkpt>
      <trkpt lat="48.82336" lon="2.35425">
        <ele>86</ele>
        <time>2013-03-03T14:01:40.000Z</time>
      </trkpt>
      <trkpt lat="48.82333" lon="2.35429">
        <ele>89.4</ele>
        <time>2013-03-03T14:01:45.000Z</time>
      </trkpt>
      <trkpt lat="48.82333" lon="2.35431">
        <ele>90.4</ele>
        <time>2013-03-03T14:01:46.000Z</time>
      </trkpt>
      <trkpt lat="48.82334" lon="2.35436">
        <ele>92.8</ele>
        <time>2013-03-03T14:01:55.000Z</time>
      </trkpt>
      <trkpt lat="48.82334" lon="2.35438">
        <ele>93.7</ele>
        <time>2013-03-03T14:01:56.000Z</time>
      </trkpt>
      <trkpt lat="48.82336" lon="2.35444">
        <ele>97.1</ele>
        <time>2013-03-03T14:02:04.000Z</time>
      </trkpt>
      <trkpt lat="48.82336" lon="2.35444">
        <ele>97.2</ele>
        <time>2013-03-03T14:02:05.000Z</time>
      </trkpt>
      <trkpt lat="48.82335" lon="2.35439">
        <ele>98.4</ele>
        <time>2013-03-03T14:02:27.000Z</time>
      </trkpt>
      <trkpt lat="48.82335" lon="2.35437">
        <ele>98.1</ele>
        <time>2013-03-03T14:02:28.000Z</time>
      </trkpt>
      <trkpt lat="48.82338" lon="2.35434">
        <ele>98.6</ele>
        <time>2013-03-03T14:03:13.000Z</time>
      </trkpt>
      <trkpt lat="48.82338" lon="2.35432">
        <ele>98.7</ele>
        <time>2013-03-03T14:03:14.000Z</time>
      </trkpt>
      <trkpt lat="48.82334" lon="2.35434">
        <ele>84.7</ele>
        <time>2013-03-03T14:06:36.000Z</time>
      </trkpt>
      <trkpt lat="48.82334" lon="2.35435">
        <ele>85</ele>
        <time>2013-03-03T14:06:37.000Z</time>
      </trkpt>
      <trkpt lat="48.82332" lon="2.3544">
        <ele>85.9</ele>
        <time>2013-03-03T14:07:19.000Z</time>
      </trkpt>
      <trkpt lat="48.82331" lon="2.3544">
        <ele>85.7</ele>
        <time>2013-03-03T14:07:20.000Z</time>
      </trkpt>
      <trkpt lat="48.82328" lon="2.35445">
        <ele>86.6</ele>
        <time>2013-03-03T14:07:40.000Z</time>
      </trkpt>
      <trkpt lat="48.82328" lon="2.35445">
        <ele>86.6</ele>
        <time>2013-03-03T14:07:41.000Z</time>
      </trkpt>
      <trkpt lat="48.82329" lon="2.3544">
        <ele>86.3</ele>
        <time>2013-03-03T14:14:03.000Z</time>
      </trkpt>
      <trkpt lat="48.8233" lon="2.35438">
        <ele>86.3</ele>
        <time>2013-03-03T14:14:04.000Z</time>
      </trkpt>
      <trkpt lat="48.82328" lon="2.35432">
        <ele>86.4</ele>
        <time>2013-03-03T14:14:07.000Z</time>
      </trkpt>
      <trkpt lat="48.82326" lon="2.35432">
        <ele>85</ele>
        <time>2013-03-03T14:14:08.000Z</time>
      </trkpt>
      <trkpt lat="48.82326" lon="2.35437">
        <ele>85.2</ele>
        <time>2013-03-03T14:14:12.000Z</time>
      </trkpt>
      <trkpt lat="48.82326" lon="2.35439">
        <ele>86</ele>
        <time>2013-03-03T14:14:13.000Z</time>
      </trkpt>
      <trkpt lat="48.82327" lon="2.35444">
        <ele>85.4</ele>
        <time>2013-03-03T14:14:16.000Z</time>
      </trkpt>
      <trkpt lat="48.82327" lon="2.35445">
        <ele>84.7</ele>
        <time>2013-03-03T14:14:17.000Z</time>
      </trkpt>
      <trkpt lat="48.82325" lon="2.35449">
        <ele>99.9</ele>
        <time>2013-03-03T14:20:46.000Z</time>
      </trkpt>
      <trkpt lat="48.82323" lon="2.35451">
        <ele>98.9</ele>
        <time>2013-03-03T14:20:47.000Z</time>
      </trkpt>
      <trkpt lat="48.8232" lon="2.35454">
        <ele>98.1</ele>
        <time>2013-03-03T14:20:49.000Z</time>
      </trkpt>
      <trkpt lat="48.82319" lon="2.35457">
        <ele>97.8</ele>
        <time>2013-03-03T14:20:50.000Z</time>
      </trkpt>
      <trkpt lat="48.82316" lon="2.3546">
        <ele>96.7</ele>
        <time>2013-03-03T14:20:52.000Z</time>
      </trkpt>
      <trkpt lat="48.82314" lon="2.35462">
        <ele>94.1</ele>
        <time>2013-03-03T14:20:53.000Z</time>
      </trkpt>
      <trkpt lat="48.82311" lon="2.35463">
        <ele>92.3</ele>
        <time>2013-03-03T14:20:55.000Z</time>
      </trkpt>
      <trkpt lat="48.82308" lon="2.35463">
        <ele>91.7</ele>
        <time>2013-03-03T14:20:56.000Z</time>
      </trkpt>
      <trkpt lat="48.82306" lon="2.35463">
        <ele>90.8</ele>
        <time>2013-03-03T14:20:57.000Z</time>
      </trkpt>
      <trkpt lat="48.82303" lon="2.35463">
        <ele>90.4</ele>
        <time>2013-03-03T14:20:58.000Z</time>
      </trkpt>
      <trkpt lat="48.823" lon="2.35464">
        <ele>90.4</ele>
        <time>2013-03-03T14:20:59.000Z</time>
      </trkpt>
      <trkpt lat="48.82297" lon="2.35465">
        <ele>89.4</ele>
        <time>2013-03-03T14:21:00.000Z</time>
      </trkpt>
      <trkpt lat="48.82295" lon="2.35467">
        <ele>89.1</ele>
        <time>2013-03-03T14:21:01.000Z</time>
      </trkpt>
      <trkpt lat="48.82292" lon="2.35468">
        <ele>85.8</ele>
        <time>2013-03-03T14:21:02.000Z</time>
      </trkpt>
      <trkpt lat="48.82289" lon="2.3547">
        <ele>85.9</ele>
        <time>2013-03-03T14:21:03.000Z</time>
      </trkpt>
      <trkpt lat="48.82287" lon="2.35471">
        <ele>84.3</ele>
        <time>2013-03-03T14:21:04.000Z</time>
      </trkpt>
      <trkpt lat="48.82284" lon="2.35473">
        <ele>83.6</ele>
        <time>2013-03-03T14:21:05.000Z</time>
      </trkpt>
      <trkpt lat="48.82282" lon="2.35474">
        <ele>82.7</ele>
        <time>2013-03-03T14:21:06.000Z</time>
      </trkpt>
      <trkpt lat="48.82279" lon="2.35476">
        <ele>81.3</ele>
        <time>2013-03-03T14:21:07.000Z</time>
      </trkpt>
      <trkpt lat="48.82276" lon="2.35477">
        <ele>80.7</ele>
        <time>2013-03-03T14:21:08.000Z</time>
      </trkpt>
      <trkpt lat="48.82274" lon="2.35478">
        <ele>80.6</ele>
        <time>2013-03-03T14:21:09.000Z</time>
      </trkpt>
      <trkpt lat="48.82271" lon="2.35479">
        <ele>80.3</ele>
        <time>2013-03-03T14:21:10.000Z</time>
      </trkpt>
      <trkpt lat="48.82268" lon="2.35481">
        <ele>81</ele>
        <time>2013-03-03T14:21:11.000Z</time>
      </trkpt>
      <trkpt lat="48.82265" lon="2.35484">
        <ele>80.2</ele>
        <time>2013-03-03T14:21:12.000Z</time>
      </trkpt>
      <trkpt lat="48.82262" lon="2.35488">
        <ele>79.9</ele>
        <time>2013-03-03T14:21:13.000Z</time>
      </trkpt>
      <trkpt lat="48.82259" lon="2.35492">
        <ele>79.7</ele>
        <time>2013-03-03T14:21:14.000Z</time>
      </trkpt>
      <trkpt lat="48.82256" lon="2.35495">
        <ele>78.3</ele>
        <time>2013-03-03T14:21:15.000Z</time>
      </trkpt>
      <trkpt lat="48.82253" lon="2.35498">
        <ele>78.5</ele>
        <time>2013-03-03T14:21:16.000Z</time>
      </trkpt>
      <trkpt lat="48.8225" lon="2.35501">
        <ele>78.4</ele>
        <time>2013-03-03T14:21:17.000Z</time>
      </trkpt>
      <trkpt lat="48.82247" lon="2.35505">
        <ele>78.3</ele>
        <time>2013-03-03T14:21:18.000Z</time>
      </trkpt>
      <trkpt lat="48.82245" lon="2.35509">
        <ele>77.7</ele>
        <time>2013-03-03T14:21:19.000Z</time>
      </trkpt>
      <trkpt lat="48.82243" lon="2.35513">
        <ele>78.3</ele>
        <time>2013-03-03T14:21:20.000Z</time>
      </trkpt>
      <trkpt lat="48.82241" lon="2.35517">
        <ele>82.4</ele>
        <time>2013-03-03T14:21:21.000Z</time>
      </trkpt>
      <trkpt lat="48.82239" lon="2.3552">
        <ele>81.4</ele>
        <time>2013-03-03T14:21:22.000Z</time>
      </trkpt>
      <trkpt lat="48.82236" lon="2.35523">
        <ele>79.4</ele>
        <time>2013-03-03T14:21:24.000Z</time>
      </trkpt>
      <trkpt lat="48.82235" lon="2.35524">
        <ele>79.5</ele>
        <time>2013-03-03T14:21:25.000Z</time>
      </trkpt>
      <trkpt lat="48.82232" lon="2.35527">
        <ele>78.2</ele>
        <time>2013-03-03T14:21:28.000Z</time>
      </trkpt>
      <trkpt lat="48.8223" lon="2.35528">
        <ele>78.8</ele>
        <time>2013-03-03T14:21:29.000Z</time>
      </trkpt>
      <trkpt lat="48.82227" lon="2.35529">
        <ele>78.5</ele>
        <time>2013-03-03T14:21:32.000Z</time>
      </trkpt>
      <trkpt lat="48.82226" lon="2.35531">
        <ele>79.3</ele>
        <time>2013-03-03T14:21:33.000Z</time>
      </trkpt>
      <trkpt lat="48.82227" lon="2.35537">
        <ele>80.2</ele>
        <time>2013-03-03T14:21:35.000Z</time>
      </trkpt>
      <trkpt lat="48.82227" lon="2.35541">
        <ele>81.2</ele>
        <time>2013-03-03T14:21:36.000Z</time>
      </trkpt>
      <trkpt lat="48.82228" lon="2.35546">
        <ele>82.5</ele>
        <time>2013-03-03T14:21:37.000Z</time>
      </trkpt>
      <trkpt lat="48.82228" lon="2.3555">
        <ele>84.2</ele>
        <time>2013-03-03T14:21:38.000Z</time>
      </trkpt>
      <trkpt lat="48.82228" lon="2.35555">
        <ele>83.6</ele>
        <time>2013-03-03T14:21:39.000Z</time>
      </trkpt>
      <trkpt lat="48.82228" lon="2.3556">
        <ele>82.2</ele>
        <time>2013-03-03T14:21:40.000Z</time>
      </trkpt>
      <trkpt lat="48.82228" lon="2.35565">
        <ele>82.6</ele>
        <time>2013-03-03T14:21:41.000Z</time>
      </trkpt>
      <trkpt lat="48.82228" lon="2.3557">
        <ele>84</ele>
        <time>2013-03-03T14:21:42.000Z</time>
      </trkpt>
      <trkpt lat="48.82228" lon="2.35575">
        <ele>85</ele>
        <time>2013-03-03T14:21:43.000Z</time>
      </trkpt>
      <trkpt lat="48.82228" lon="2.35581">
        <ele>85.8</ele>
        <time>2013-03-03T14:21:44.000Z</time>
      </trkpt>
      <trkpt lat="48.82228" lon="2.35586">
        <ele>86.1</ele>
        <time>2013-03-03T14:21:45.000Z</time>
      </trkpt>
      <trkpt lat="48.82228" lon="2.35592">
        <ele>86.5</ele>
        <time>2013-03-03T14:21:46.000Z</time>
      </trkpt>
      <trkpt lat="48.82228" lon="2.35597">
        <ele>87.2</ele>
        <time>2013-03-03T14:21:47.000Z</time>
      </trkpt>
      <trkpt lat="48.82227" lon="2.35602">
        <ele>87.5</ele>
        <time>2013-03-03T14:21:48.000Z</time>
      </trkpt>
      <trkpt lat="48.82227" lon="2.35607">
        <ele>86.4</ele>
        <time>2013-03-03T14:21:49.000Z</time>
      </trkpt>
      <trkpt lat="48.82226" lon="2.35612">
        <ele>88</ele>
        <time>2013-03-03T14:21:50.000Z</time>
      </trkpt>
      <trkpt lat="48.82226" lon="2.35617">
        <ele>88.1</ele>
        <time>2013-03-03T14:21:51.000Z</time>
      </trkpt>
      <trkpt lat="48.82225" lon="2.35622">
        <ele>87.9</ele>
        <time>2013-03-03T14:21:52.000Z</time>
      </trkpt>
      <trkpt lat="48.82224" lon="2.35628">
        <ele>88.3</ele>
        <time>2013-03-03T14:21:53.000Z</time>
      </trkpt>
      <trkpt lat="48.82224" lon="2.35633">
        <ele>89.1</ele>
        <time>2013-03-03T14:21:54.000Z</time>
      </trkpt>
      <trkpt lat="48.82223" lon="2.35638">
        <ele>89.3</ele>
        <time>2013-03-03T14:21:55.000Z</time>
      </trkpt>
      <trkpt lat="48.82223" lon="2.35642">
        <ele>86.5</ele>
        <time>2013-03-03T14:21:56.000Z</time>
      </trkpt>
      <trkpt lat="48.82222" lon="2.35647">
        <ele>85.2</ele>
        <time>2013-03-03T14:21:58.000Z</time>
      </trkpt>
      <trkpt lat="48.82221" lon="2.35649">
        <ele>85.4</ele>
        <time>2013-03-03T14:21:59.000Z</time>
      </trkpt>
      <trkpt lat="48.82221" lon="2.35656">
        <ele>85.5</ele>
        <time>2013-03-03T14:22:01.000Z</time>
      </trkpt>
      <trkpt lat="48.82221" lon="2.3566">
        <ele>85.5</ele>
        <time>2013-03-03T14:22:02.000Z</time>
      </trkpt>
      <trkpt lat="48.82222" lon="2.35664">
        <ele>85</ele>
        <time>2013-03-03T14:22:03.000Z</time>
      </trkpt>
      <trkpt lat="48.82222" lon="2.35668">
        <ele>85.2</ele>
        <time>2013-03-03T14:22:04.000Z</time>
      </trkpt>
      <trkpt lat="48.82222" lon="2.35672">
        <ele>85.7</ele>
        <time>2013-03-03T14:22:05.000Z</time>
      </trkpt>
      <trkpt lat="48.82222" lon="2.35677">
        <ele>86.1</ele>
        <time>2013-03-03T14:22:06.000Z</time>
      </trkpt>
      <trkpt lat="48.82223" lon="2.35682">
        <ele>85.9</ele>
        <time>2013-03-03T14:22:07.000Z</time>
      </trkpt>
      <trkpt lat="48.82223" lon="2.35687">
        <ele>84.1</ele>
        <time>2013-03-03T14:22:08.000Z</time>
      </trkpt>
      <trkpt lat="48.82224" lon="2.35692">
        <ele>84.2</ele>
        <time>2013-03-03T14:22:09.000Z</time>
      </trkpt>
      <trkpt lat="48.82224" lon="2.35697">
        <ele>85</ele>
        <time>2013-03-03T14:22:10.000Z</time>
      </trkpt>
      <trkpt lat="48.82224" lon="2.35701">
        <ele>81.9</ele>
        <time>2013-03-03T14:22:11.000Z</time>
      </trkpt>
      <trkpt lat="48.82224" lon="2.35705">
        <ele>81.8</ele>
        <time>2013-03-03T14:22:12.000Z</time>
      </trkpt>
      <trkpt lat="48.82224" lon="2.35709">
        <ele>82.9</ele>
        <time>2013-03-03T14:22:14.000Z</time>
      </trkpt>
      <trkpt lat="48.82224" lon="2.35713">
        <ele>83.2</ele>
        <time>2013-03-03T14:22:15.000Z</time>
      </trkpt>
      <trkpt lat="48.82224" lon="2.35717">
        <ele>84.4</ele>
        <time>2013-03-03T14:22:16.000Z</time>
      </trkpt>
      <trkpt lat="48.82224" lon="2.35723">
        <ele>85.1</ele>
        <time>2013-03-03T14:22:17.000Z</time>
      </trkpt>
      <trkpt lat="48.82224" lon="2.35728">
        <ele>84.5</ele>
        <time>2013-03-03T14:22:18.000Z</time>
      </trkpt>
      <trkpt lat="48.82225" lon="2.35734">
        <ele>84.7</ele>
        <time>2013-03-03T14:22:19.000Z</time>
      </trkpt>
      <trkpt lat="48.82226" lon="2.3574">
        <ele>84.5</ele>
        <time>2013-03-03T14:22:20.000Z</time>
      </trkpt>
      <trkpt lat="48.82227" lon="2.35746">
        <ele>84.4</ele>
        <time>2013-03-03T14:22:21.000Z</time>
      </trkpt>
      <trkpt lat="48.82227" lon="2.35752">
        <ele>84.5</ele>
        <time>2013-03-03T14:22:22.000Z</time>
      </trkpt>
      <trkpt lat="48.82228" lon="2.3576">
        <ele>84.9</ele>
        <time>2013-03-03T14:22:23.000Z</time>
      </trkpt>
      <trkpt lat="48.82229" lon="2.35768">
        <ele>84.5</ele>
        <time>2013-03-03T14:22:24.000Z</time>
      </trkpt>
      <trkpt lat="48.82231" lon="2.35776">
        <ele>85</ele>
        <time>2013-03-03T14:22:25.000Z</time>
      </trkpt>
      <trkpt lat="48.82234" lon="2.35785">
        <ele>86.1</ele>
        <time>2013-03-03T14:22:26.000Z</time>
      </trkpt>
      <trkpt lat="48.82242" lon="2.35806">
        <ele>86.2</ele>
        <time>2013-03-03T14:22:27.000Z</time>
      </trkpt>
      <trkpt lat="48.8224" lon="2.35808">
        <ele>86.8</ele>
        <time>2013-03-03T14:22:28.000Z</time>
      </trkpt>
      <trkpt lat="48.82239" lon="2.35813">
        <ele>87</ele>
        <time>2013-03-03T14:22:29.000Z</time>
      </trkpt>
      <trkpt lat="48.82238" lon="2.35817">
        <ele>88.4</ele>
        <time>2013-03-03T14:22:30.000Z</time>
      </trkpt>
      <trkpt lat="48.82229" lon="2.35825">
        <ele>86.6</ele>
        <time>2013-03-03T14:22:31.000Z</time>
      </trkpt>
      <trkpt lat="48.82221" lon="2.3583">
        <ele>85.5</ele>
        <time>2013-03-03T14:22:32.000Z</time>
      </trkpt>
      <trkpt lat="48.82218" lon="2.35833">
        <ele>85.8</ele>
        <time>2013-03-03T14:22:33.000Z</time>
      </trkpt>
      <trkpt lat="48.82215" lon="2.35835">
        <ele>84</ele>
        <time>2013-03-03T14:22:34.000Z</time>
      </trkpt>
      <trkpt lat="48.82212" lon="2.35837">
        <ele>84.1</ele>
        <time>2013-03-03T14:22:36.000Z</time>
      </trkpt>
      <trkpt lat="48.82212" lon="2.35839">
        <ele>85.1</ele>
        <time>2013-03-03T14:22:37.000Z</time>
      </trkpt>
      <trkpt lat="48.82211" lon="2.35845">
        <ele>93.3</ele>
        <time>2013-03-03T14:22:50.000Z</time>
      </trkpt>
      <trkpt lat="48.82211" lon="2.35846">
        <ele>94</ele>
        <time>2013-03-03T14:22:51.000Z</time>
      </trkpt>
      <trkpt lat="48.8221" lon="2.35852">
        <ele>95.7</ele>
        <time>2013-03-03T14:22:54.000Z</time>
      </trkpt>
      <trkpt lat="48.82211" lon="2.35855">
        <ele>95.9</ele>
        <time>2013-03-03T14:22:55.000Z</time>
      </trkpt>
      <trkpt lat="48.82211" lon="2.35861">
        <ele>97.8</ele>
        <time>2013-03-03T14:22:57.000Z</time>
      </trkpt>
      <trkpt lat="48.82212" lon="2.35863">
        <ele>98.4</ele>
        <time>2013-03-03T14:22:58.000Z</time>
      </trkpt>
      <trkpt lat="48.82214" lon="2.35869">
        <ele>101.3</ele>
        <time>2013-03-03T14:23:00.000Z</time>
      </trkpt>
      <trkpt lat="48.82215" lon="2.35872">
        <ele>102.5</ele>
        <time>2013-03-03T14:23:01.000Z</time>
      </trkpt>
      <trkpt lat="48.82215" lon="2.35878">
        <ele>103.9</ele>
        <time>2013-03-03T14:23:03.000Z</time>
      </trkpt>
      <trkpt lat="48.82215" lon="2.35881">
        <ele>104.8</ele>
        <time>2013-03-03T14:23:04.000Z</time>
      </trkpt>
      <trkpt lat="48.82212" lon="2.35885">
        <ele>104.9</ele>
        <time>2013-03-03T14:23:06.000Z</time>
      </trkpt>
      <trkpt lat="48.82211" lon="2.35887">
        <ele>105.5</ele>
        <time>2013-03-03T14:23:07.000Z</time>
      </trkpt>
      <trkpt lat="48.82207" lon="2.35889">
        <ele>106.6</ele>
        <time>2013-03-03T14:23:09.000Z</time>
      </trkpt>
      <trkpt lat="48.82206" lon="2.3589">
        <ele>107.6</ele>
        <time>2013-03-03T14:23:10.000Z</time>
      </trkpt>
      <trkpt lat="48.82201" lon="2.35891">
        <ele>109.6</ele>
        <time>2013-03-03T14:23:15.000Z</time>
      </trkpt>
      <trkpt lat="48.82201" lon="2.35891">
        <ele>109.7</ele>
        <time>2013-03-03T14:23:16.000Z</time>
      </trkpt>
      <trkpt lat="48.82196" lon="2.35891">
        <ele>105.6</ele>
        <time>2013-03-03T14:24:03.000Z</time>
      </trkpt>
      <trkpt lat="48.82196" lon="2.35892">
        <ele>106</ele>
        <time>2013-03-03T14:24:04.000Z</time>
      </trkpt>
      <trkpt lat="48.82193" lon="2.35893">
        <ele>105.6</ele>
        <time>2013-03-03T14:24:21.000Z</time>
      </trkpt>
      <trkpt lat="48.82191" lon="2.35892">
        <ele>104.9</ele>
        <time>2013-03-03T14:24:22.000Z</time>
      </trkpt>
      <trkpt lat="48.82188" lon="2.3589">
        <ele>104.6</ele>
        <time>2013-03-03T14:24:23.000Z</time>
      </trkpt>
      <trkpt lat="48.82186" lon="2.35889">
        <ele>106.1</ele>
        <time>2013-03-03T14:24:24.000Z</time>
      </trkpt>
      <trkpt lat="48.82183" lon="2.35888">
        <ele>107</ele>
        <time>2013-03-03T14:24:25.000Z</time>
      </trkpt>
      <trkpt lat="48.82181" lon="2.35887">
        <ele>107.2</ele>
        <time>2013-03-03T14:24:26.000Z</time>
      </trkpt>
      <trkpt lat="48.82177" lon="2.35887">
        <ele>105.7</ele>
        <time>2013-03-03T14:24:28.000Z</time>
      </trkpt>
      <trkpt lat="48.82175" lon="2.35887">
        <ele>104.5</ele>
        <time>2013-03-03T14:24:29.000Z</time>
      </trkpt>
      <trkpt lat="48.82173" lon="2.35888">
        <ele>103</ele>
        <time>2013-03-03T14:24:30.000Z</time>
      </trkpt>
      <trkpt lat="48.82169" lon="2.35889">
        <ele>104</ele>
        <time>2013-03-03T14:24:31.000Z</time>
      </trkpt>
      <trkpt lat="48.82166" lon="2.35891">
        <ele>101.4</ele>
        <time>2013-03-03T14:24:32.000Z</time>
      </trkpt>
      <trkpt lat="48.82163" lon="2.35892">
        <ele>101.5</ele>
        <time>2013-03-03T14:24:33.000Z</time>
      </trkpt>
      <trkpt lat="48.8216" lon="2.35893">
        <ele>101.8</ele>
        <time>2013-03-03T14:24:34.000Z</time>
      </trkpt>
      <trkpt lat="48.82157" lon="2.35894">
        <ele>102</ele>
        <time>2013-03-03T14:24:35.000Z</time>
      </trkpt>
      <trkpt lat="48.82154" lon="2.35895">
        <ele>101.6</ele>
        <time>2013-03-03T14:24:36.000Z</time>
      </trkpt>
      <trkpt lat="48.8215" lon="2.35896">
        <ele>101.5</ele>
        <time>2013-03-03T14:24:37.000Z</time>
      </trkpt>
      <trkpt lat="48.82147" lon="2.35898">
        <ele>101.1</ele>
        <time>2013-03-03T14:24:38.000Z</time>
      </trkpt>
      <trkpt lat="48.82143" lon="2.359">
        <ele>100.9</ele>
        <time>2013-03-03T14:24:39.000Z</time>
      </trkpt>
      <trkpt lat="48.82139" lon="2.35901">
        <ele>102.7</ele>
        <time>2013-03-03T14:24:40.000Z</time>
      </trkpt>
      <trkpt lat="48.82135" lon="2.35902">
        <ele>103.5</ele>
        <time>2013-03-03T14:24:41.000Z</time>
      </trkpt>
      <trkpt lat="48.82132" lon="2.35902">
        <ele>103.6</ele>
        <time>2013-03-03T14:24:42.000Z</time>
      </trkpt>
      <trkpt lat="48.82128" lon="2.35902">
        <ele>103.8</ele>
        <time>2013-03-03T14:24:43.000Z</time>
      </trkpt>
      <trkpt lat="48.82125" lon="2.35902">
        <ele>103.6</ele>
        <time>2013-03-03T14:24:44.000Z</time>
      </trkpt>
      <trkpt lat="48.82122" lon="2.35903">
        <ele>101.9</ele>
        <time>2013-03-03T14:24:45.000Z</time>
      </trkpt>
      <trkpt lat="48.82119" lon="2.35904">
        <ele>101.4</ele>
        <time>2013-03-03T14:24:46.000Z</time>
      </trkpt>
      <trkpt lat="48.82115" lon="2.35906">
        <ele>101.1</ele>
        <time>2013-03-03T14:24:47.000Z</time>
      </trkpt>
      <trkpt lat="48.82112" lon="2.35909">
        <ele>99.7</ele>
        <time>2013-03-03T14:24:48.000Z</time>
      </trkpt>
      <trkpt lat="48.82109" lon="2.35911">
        <ele>100.2</ele>
        <time>2013-03-03T14:24:49.000Z</time>
      </trkpt>
      <trkpt lat="48.82106" lon="2.35913">
        <ele>100.9</ele>
        <time>2013-03-03T14:24:50.000Z</time>
      </trkpt>
      <trkpt lat="48.82103" lon="2.35916">
        <ele>102.3</ele>
        <time>2013-03-03T14:24:51.000Z</time>
      </trkpt>
      <trkpt lat="48.82101" lon="2.35918">
        <ele>102.9</ele>
        <time>2013-03-03T14:24:52.000Z</time>
      </trkpt>
      <trkpt lat="48.82098" lon="2.35919">
        <ele>103.7</ele>
        <time>2013-03-03T14:24:53.000Z</time>
      </trkpt>
      <trkpt lat="48.82095" lon="2.35921">
        <ele>104.4</ele>
        <time>2013-03-03T14:24:54.000Z</time>
      </trkpt>
      <trkpt lat="48.82092" lon="2.35923">
        <ele>103.9</ele>
        <time>2013-03-03T14:24:55.000Z</time>
      </trkpt>
      <trkpt lat="48.82089" lon="2.35925">
        <ele>104.9</ele>
        <time>2013-03-03T14:24:56.000Z</time>
      </trkpt>
      <trkpt lat="48.82086" lon="2.35927">
        <ele>104.6</ele>
        <time>2013-03-03T14:24:57.000Z</time>
      </trkpt>
      <trkpt lat="48.82083" lon="2.35928">
        <ele>101.1</ele>
        <time>2013-03-03T14:24:58.000Z</time>
      </trkpt>
      <trkpt lat="48.82081" lon="2.35929">
        <ele>101.3</ele>
        <time>2013-03-03T14:24:59.000Z</time>
      </trkpt>
      <trkpt lat="48.82077" lon="2.35931">
        <ele>99.2</ele>
        <time>2013-03-03T14:25:01.000Z</time>
      </trkpt>
      <trkpt lat="48.82075" lon="2.35932">
        <ele>99.3</ele>
        <time>2013-03-03T14:25:02.000Z</time>
      </trkpt>
      <trkpt lat="48.82072" lon="2.35933">
        <ele>99.9</ele>
        <time>2013-03-03T14:25:03.000Z</time>
      </trkpt>
      <trkpt lat="48.8207" lon="2.35934">
        <ele>101.5</ele>
        <time>2013-03-03T14:25:04.000Z</time>
      </trkpt>
      <trkpt lat="48.82067" lon="2.35935">
        <ele>103.1</ele>
        <time>2013-03-03T14:25:05.000Z</time>
      </trkpt>
      <trkpt lat="48.82063" lon="2.35935">
        <ele>103.9</ele>
        <time>2013-03-03T14:25:06.000Z</time>
      </trkpt>
      <trkpt lat="48.82059" lon="2.35934">
        <ele>105.4</ele>
        <time>2013-03-03T14:25:07.000Z</time>
      </trkpt>
      <trkpt lat="48.82055" lon="2.35933">
        <ele>106</ele>
        <time>2013-03-03T14:25:08.000Z</time>
      </trkpt>
      <trkpt lat="48.82052" lon="2.35933">
        <ele>105.3</ele>
        <time>2013-03-03T14:25:09.000Z</time>
      </trkpt>
      <trkpt lat="48.8205" lon="2.35934">
        <ele>105.1</ele>
        <time>2013-03-03T14:25:10.000Z</time>
      </trkpt>
      <trkpt lat="48.82048" lon="2.35937">
        <ele>105.4</ele>
        <time>2013-03-03T14:25:11.000Z</time>
      </trkpt>
      <trkpt lat="48.82046" lon="2.35939">
        <ele>104.1</ele>
        <time>2013-03-03T14:25:12.000Z</time>
      </trkpt>
      <trkpt lat="48.82043" lon="2.35943">
        <ele>106</ele>
        <time>2013-03-03T14:25:14.000Z</time>
      </trkpt>
      <trkpt lat="48.82041" lon="2.35945">
        <ele>106.1</ele>
        <time>2013-03-03T14:25:15.000Z</time>
      </trkpt>
      <trkpt lat="48.82037" lon="2.35948">
        <ele>106.3</ele>
        <time>2013-03-03T14:25:17.000Z</time>
      </trkpt>
      <trkpt lat="48.82035" lon="2.35949">
        <ele>106</ele>
        <time>2013-03-03T14:25:18.000Z</time>
      </trkpt>
      <trkpt lat="48.82033" lon="2.35951">
        <ele>105.9</ele>
        <time>2013-03-03T14:25:19.000Z</time>
      </trkpt>
      <trkpt lat="48.8203" lon="2.35954">
        <ele>106.6</ele>
        <time>2013-03-03T14:25:20.000Z</time>
      </trkpt>
      <trkpt lat="48.82027" lon="2.35956">
        <ele>106.8</ele>
        <time>2013-03-03T14:25:21.000Z</time>
      </trkpt>
      <trkpt lat="48.82025" lon="2.35959">
        <ele>106.8</ele>
        <time>2013-03-03T14:25:22.000Z</time>
      </trkpt>
      <trkpt lat="48.82022" lon="2.35961">
        <ele>106.9</ele>
        <time>2013-03-03T14:25:23.000Z</time>
      </trkpt>
      <trkpt lat="48.82019" lon="2.35962">
        <ele>107.1</ele>
        <time>2013-03-03T14:25:24.000Z</time>
      </trkpt>
      <trkpt lat="48.82016" lon="2.35964">
        <ele>106.7</ele>
        <time>2013-03-03T14:25:25.000Z</time>
      </trkpt>
      <trkpt lat="48.82013" lon="2.35965">
        <ele>106</ele>
        <time>2013-03-03T14:25:26.000Z</time>
      </trkpt>
      <trkpt lat="48.82009" lon="2.35966">
        <ele>102.9</ele>
        <time>2013-03-03T14:25:27.000Z</time>
      </trkpt>
      <trkpt lat="48.82005" lon="2.35966">
        <ele>101.5</ele>
        <time>2013-03-03T14:25:28.000Z</time>
      </trkpt>
      <trkpt lat="48.82001" lon="2.35965">
        <ele>100.2</ele>
        <time>2013-03-03T14:25:29.000Z</time>
      </trkpt>
      <trkpt lat="48.81998" lon="2.35964">
        <ele>98.1</ele>
        <time>2013-03-03T14:25:30.000Z</time>
      </trkpt>
      <trkpt lat="48.81994" lon="2.35963">
        <ele>96.2</ele>
        <time>2013-03-03T14:25:31.000Z</time>
      </trkpt>
      <trkpt lat="48.81991" lon="2.35963">
        <ele>95.2</ele>
        <time>2013-03-03T14:25:32.000Z</time>
      </trkpt>
      <trkpt lat="48.81987" lon="2.35963">
        <ele>95.2</ele>
        <time>2013-03-03T14:25:33.000Z</time>
      </trkpt>
      <trkpt lat="48.81984" lon="2.35963">
        <ele>95.2</ele>
        <time>2013-03-03T14:25:34.000Z</time>
      </trkpt>
      <trkpt lat="48.81981" lon="2.35962">
        <ele>94.3</ele>
        <time>2013-03-03T14:25:35.000Z</time>
      </trkpt>
      <trkpt lat="48.81978" lon="2.35962">
        <ele>94.4</ele>
        <time>2013-03-03T14:25:36.000Z</time>
      </trkpt>
      <trkpt lat="48.81974" lon="2.3596">
        <ele>96.6</ele>
        <time>2013-03-03T14:25:38.000Z</time>
      </trkpt>
      <trkpt lat="48.81972" lon="2.35957">
        <ele>97.7</ele>
        <time>2013-03-03T14:25:39.000Z</time>
      </trkpt>
      <trkpt lat="48.8197" lon="2.35955">
        <ele>99.5</ele>
        <time>2013-03-03T14:25:40.000Z</time>
      </trkpt>
      <trkpt lat="48.81968" lon="2.35953">
        <ele>99.6</ele>
        <time>2013-03-03T14:25:41.000Z</time>
      </trkpt>
      <trkpt lat="48.81964" lon="2.35949">
        <ele>102.7</ele>
        <time>2013-03-03T14:25:49.000Z</time>
      </trkpt>
      <trkpt lat="48.81964" lon="2.35949">
        <ele>102.7</ele>
        <time>2013-03-03T14:25:50.000Z</time>
      </trkpt>
      <trkpt lat="48.81961" lon="2.3595">
        <ele>100.9</ele>
        <time>2013-03-03T14:25:54.000Z</time>
      </trkpt>
      <trkpt lat="48.8196" lon="2.35951">
        <ele>98.2</ele>
        <time>2013-03-03T14:25:55.000Z</time>
      </trkpt>
      <trkpt lat="48.81956" lon="2.35953">
        <ele>94.8</ele>
        <time>2013-03-03T14:25:57.000Z</time>
      </trkpt>
      <trkpt lat="48.81954" lon="2.35955">
        <ele>95.3</ele>
        <time>2013-03-03T14:25:58.000Z</time>
      </trkpt>
      <trkpt lat="48.8195" lon="2.35958">
        <ele>94.9</ele>
        <time>2013-03-03T14:26:00.000Z</time>
      </trkpt>
      <trkpt lat="48.81949" lon="2.3596">
        <ele>94.8</ele>
        <time>2013-03-03T14:26:01.000Z</time>
      </trkpt>
      <trkpt lat="48.81946" lon="2.35964">
        <ele>93.6</ele>
        <time>2013-03-03T14:26:03.000Z</time>
      </trkpt>
      <trkpt lat="48.81945" lon="2.35967">
        <ele>92.8</ele>
        <time>2013-03-03T14:26:04.000Z</time>
      </trkpt>
      <trkpt lat="48.81942" lon="2.35972">
        <ele>91.3</ele>
        <time>2013-03-03T14:26:06.000Z</time>
      </trkpt>
      <trkpt lat="48.8194" lon="2.35974">
        <ele>93.6</ele>
        <time>2013-03-03T14:26:07.000Z</time>
      </trkpt>
      <trkpt lat="48.81938" lon="2.35975">
        <ele>94.5</ele>
        <time>2013-03-03T14:26:08.000Z</time>
      </trkpt>
      <trkpt lat="48.81936" lon="2.35976">
        <ele>94.4</ele>
        <time>2013-03-03T14:26:09.000Z</time>
      </trkpt>
      <trkpt lat="48.81931" lon="2.35975">
        <ele>94.5</ele>
        <time>2013-03-03T14:26:16.000Z</time>
      </trkpt>
      <trkpt lat="48.81931" lon="2.35974">
        <ele>94.7</ele>
        <time>2013-03-03T14:26:17.000Z</time>
      </trkpt>
      <trkpt lat="48.81928" lon="2.35976">
        <ele>95.4</ele>
        <time>2013-03-03T14:26:41.000Z</time>
      </trkpt>
      <trkpt lat="48.81927" lon="2.35975">
        <ele>94.6</ele>
        <time>2013-03-03T14:26:42.000Z</time>
      </trkpt>
      <trkpt lat="48.81923" lon="2.35975">
        <ele>94.6</ele>
        <time>2013-03-03T14:26:44.000Z</time>
      </trkpt>
      <trkpt lat="48.81922" lon="2.35975">
        <ele>94.1</ele>
        <time>2013-03-03T14:26:45.000Z</time>
      </trkpt>
      <trkpt lat="48.81918" lon="2.35976">
        <ele>94.9</ele>
        <time>2013-03-03T14:26:47.000Z</time>
      </trkpt>
      <trkpt lat="48.81915" lon="2.35977">
        <ele>94.8</ele>
        <time>2013-03-03T14:26:48.000Z</time>
      </trkpt>
      <trkpt lat="48.81911" lon="2.35978">
        <ele>99.5</ele>
        <time>2013-03-03T14:26:50.000Z</time>
      </trkpt>
      <trkpt lat="48.81909" lon="2.35978">
        <ele>98.5</ele>
        <time>2013-03-03T14:26:51.000Z</time>
      </trkpt>
      <trkpt lat="48.81905" lon="2.35979">
        <ele>96.4</ele>
        <time>2013-03-03T14:26:53.000Z</time>
      </trkpt>
      <trkpt lat="48.81904" lon="2.3598">
        <ele>95.6</ele>
        <time>2013-03-03T14:26:54.000Z</time>
      </trkpt>
      <trkpt lat="48.819" lon="2.35982">
        <ele>94.6</ele>
        <time>2013-03-03T14:26:57.000Z</time>
      </trkpt>
      <trkpt lat="48.81899" lon="2.35983">
        <ele>93.8</ele>
        <time>2013-03-03T14:26:58.000Z</time>
      </trkpt>
      <trkpt lat="48.81896" lon="2.35986">
        <ele>93.8</ele>
        <time>2013-03-03T14:27:00.000Z</time>
      </trkpt>
      <trkpt lat="48.81896" lon="2.35988">
        <ele>93.8</ele>
        <time>2013-03-03T14:27:01.000Z</time>
      </trkpt>
      <trkpt lat="48.81895" lon="2.35994">
        <ele>92.6</ele>
        <time>2013-03-03T14:27:03.000Z</time>
      </trkpt>
      <trkpt lat="48.81895" lon="2.35996">
        <ele>93</ele>
        <time>2013-03-03T14:27:04.000Z</time>
      </trkpt>
      <trkpt lat="48.81896" lon="2.36">
        <ele>91.9</ele>
        <time>2013-03-03T14:27:05.000Z</time>
      </trkpt>
      <trkpt lat="48.81896" lon="2.36003">
        <ele>92</ele>
        <time>2013-03-03T14:27:06.000Z</time>
      </trkpt>
      <trkpt lat="48.81897" lon="2.36009">
        <ele>91.2</ele>
        <time>2013-03-03T14:27:08.000Z</time>
      </trkpt>
      <trkpt lat="48.81898" lon="2.36012">
        <ele>91</ele>
        <time>2013-03-03T14:27:09.000Z</time>
      </trkpt>
      <trkpt lat="48.819" lon="2.36018">
        <ele>90.8</ele>
        <time>2013-03-03T14:27:11.000Z</time>
      </trkpt>
      <trkpt lat="48.81901" lon="2.36021">
        <ele>91.6</ele>
        <time>2013-03-03T14:27:12.000Z</time>
      </trkpt>
      <trkpt lat="48.81902" lon="2.36024">
        <ele>92</ele>
        <time>2013-03-03T14:27:13.000Z</time>
      </trkpt>
      <trkpt lat="48.81902" lon="2.36028">
        <ele>91.9</ele>
        <time>2013-03-03T14:27:14.000Z</time>
      </trkpt>
      <trkpt lat="48.81903" lon="2.36032">
        <ele>91.4</ele>
        <time>2013-03-03T14:27:15.000Z</time>
      </trkpt>
      <trkpt lat="48.81903" lon="2.36036">
        <ele>91.6</ele>
        <time>2013-03-03T14:27:16.000Z</time>
      </trkpt>
      <trkpt lat="48.81904" lon="2.3604">
        <ele>89.8</ele>
        <time>2013-03-03T14:27:17.000Z</time>
      </trkpt>
      <trkpt lat="48.81904" lon="2.36045">
        <ele>90</ele>
        <time>2013-03-03T14:27:18.000Z</time>
      </trkpt>
      <trkpt lat="48.81905" lon="2.36049">
        <ele>90.2</ele>
        <time>2013-03-03T14:27:19.000Z</time>
      </trkpt>
      <trkpt lat="48.81906" lon="2.36053">
        <ele>90.6</ele>
        <time>2013-03-03T14:27:20.000Z</time>
      </trkpt>
      <trkpt lat="48.81906" lon="2.36057">
        <ele>90.9</ele>
        <time>2013-03-03T14:27:21.000Z</time>
      </trkpt>
      <trkpt lat="48.81906" lon="2.36061">
        <ele>91.5</ele>
        <time>2013-03-03T14:27:22.000Z</time>
      </trkpt>
      <trkpt lat="48.81907" lon="2.36065">
        <ele>92.1</ele>
        <time>2013-03-03T14:27:23.000Z</time>
      </trkpt>
      <trkpt lat="48.81907" lon="2.3607">
        <ele>92</ele>
        <time>2013-03-03T14:27:24.000Z</time>
      </trkpt>
      <trkpt lat="48.81907" lon="2.36074">
        <ele>90.4</ele>
        <time>2013-03-03T14:27:25.000Z</time>
      </trkpt>
      <trkpt lat="48.81907" lon="2.36079">
        <ele>90.8</ele>
        <time>2013-03-03T14:27:26.000Z</time>
      </trkpt>
      <trkpt lat="48.81907" lon="2.36083">
        <ele>90.8</ele>
        <time>2013-03-03T14:27:27.000Z</time>
      </trkpt>
      <trkpt lat="48.81907" lon="2.36086">
        <ele>91</ele>
        <time>2013-03-03T14:27:28.000Z</time>
      </trkpt>
      <trkpt lat="48.81907" lon="2.36092">
        <ele>89.7</ele>
        <time>2013-03-03T14:27:30.000Z</time>
      </trkpt>
      <trkpt lat="48.81907" lon="2.36095">
        <ele>90.4</ele>
        <time>2013-03-03T14:27:31.000Z</time>
      </trkpt>
      <trkpt lat="48.81907" lon="2.36099">
        <ele>90.3</ele>
        <time>2013-03-03T14:27:32.000Z</time>
      </trkpt>
      <trkpt lat="48.81907" lon="2.36103">
        <ele>90.8</ele>
        <time>2013-03-03T14:27:33.000Z</time>
      </trkpt>
      <trkpt lat="48.81908" lon="2.36108">
        <ele>91.5</ele>
        <time>2013-03-03T14:27:34.000Z</time>
      </trkpt>
      <trkpt lat="48.81909" lon="2.36114">
        <ele>92</ele>
        <time>2013-03-03T14:27:35.000Z</time>
      </trkpt>
      <trkpt lat="48.8191" lon="2.36119">
        <ele>92.1</ele>
        <time>2013-03-03T14:27:36.000Z</time>
      </trkpt>
      <trkpt lat="48.81912" lon="2.36125">
        <ele>93</ele>
        <time>2013-03-03T14:27:37.000Z</time>
      </trkpt>
      <trkpt lat="48.81916" lon="2.36131">
        <ele>93.3</ele>
        <time>2013-03-03T14:27:38.000Z</time>
      </trkpt>
      <trkpt lat="48.81921" lon="2.36138">
        <ele>93</ele>
        <time>2013-03-03T14:27:39.000Z</time>
      </trkpt>
      <trkpt lat="48.81926" lon="2.36144">
        <ele>95</ele>
        <time>2013-03-03T14:27:40.000Z</time>
      </trkpt>
      <trkpt lat="48.81931" lon="2.36149">
        <ele>95.3</ele>
        <time>2013-03-03T14:27:41.000Z</time>
      </trkpt>
      <trkpt lat="48.81936" lon="2.36154">
        <ele>94.3</ele>
        <time>2013-03-03T14:27:42.000Z</time>
      </trkpt>
      <trkpt lat="48.8194" lon="2.36157">
        <ele>95.9</ele>
        <time>2013-03-03T14:27:43.000Z</time>
      </trkpt>
      <trkpt lat="48.81942" lon="2.3616">
        <ele>96.3</ele>
        <time>2013-03-03T14:27:44.000Z</time>
      </trkpt>
      <trkpt lat="48.81945" lon="2.36162">
        <ele>97.7</ele>
        <time>2013-03-03T14:27:45.000Z</time>
      </trkpt>
      <trkpt lat="48.81948" lon="2.36164">
        <ele>97.2</ele>
        <time>2013-03-03T14:27:46.000Z</time>
      </trkpt>
      <trkpt lat="48.81949" lon="2.36167">
        <ele>95.5</ele>
        <time>2013-03-03T14:27:47.000Z</time>
      </trkpt>
      <trkpt lat="48.8195" lon="2.36173">
        <ele>94.6</ele>
        <time>2013-03-03T14:27:49.000Z</time>
      </trkpt>
      <trkpt lat="48.8195" lon="2.36176">
        <ele>94.9</ele>
        <time>2013-03-03T14:27:50.000Z</time>
      </trkpt>
      <trkpt lat="48.81949" lon="2.3618">
        <ele>96.4</ele>
        <time>2013-03-03T14:27:51.000Z</time>
      </trkpt>
      <trkpt lat="48.81926" lon="2.36197">
        <ele>91.1</ele>
        <time>2013-03-03T14:27:52.000Z</time>
      </trkpt>
      <trkpt lat="48.81925" lon="2.36201">
        <ele>90.6</ele>
        <time>2013-03-03T14:27:53.000Z</time>
      </trkpt>
      <trkpt lat="48.81923" lon="2.36206">
        <ele>89.8</ele>
        <time>2013-03-03T14:27:54.000Z</time>
      </trkpt>
      <trkpt lat="48.81922" lon="2.3621">
        <ele>90</ele>
        <time>2013-03-03T14:27:55.000Z</time>
      </trkpt>
      <trkpt lat="48.81922" lon="2.36214">
        <ele>90</ele>
        <time>2013-03-03T14:27:56.000Z</time>
      </trkpt>
      <trkpt lat="48.81923" lon="2.36218">
        <ele>89</ele>
        <time>2013-03-03T14:27:57.000Z</time>
      </trkpt>
      <trkpt lat="48.81925" lon="2.36221">
        <ele>91</ele>
        <time>2013-03-03T14:27:58.000Z</time>
      </trkpt>
      <trkpt lat="48.81927" lon="2.36224">
        <ele>92.3</ele>
        <time>2013-03-03T14:27:59.000Z</time>
      </trkpt>
      <trkpt lat="48.81928" lon="2.36226">
        <ele>93.4</ele>
        <time>2013-03-03T14:28:00.000Z</time>
      </trkpt>
      <trkpt lat="48.81929" lon="2.36229">
        <ele>92.2</ele>
        <time>2013-03-03T14:28:01.000Z</time>
      </trkpt>
      <trkpt lat="48.81931" lon="2.36233">
        <ele>92.1</ele>
        <time>2013-03-03T14:28:02.000Z</time>
      </trkpt>
      <trkpt lat="48.81933" lon="2.36236">
        <ele>92.3</ele>
        <time>2013-03-03T14:28:03.000Z</time>
      </trkpt>
      <trkpt lat="48.81935" lon="2.36239">
        <ele>91.7</ele>
        <time>2013-03-03T14:28:04.000Z</time>
      </trkpt>
      <trkpt lat="48.81939" lon="2.36243">
        <ele>90.1</ele>
        <time>2013-03-03T14:28:05.000Z</time>
      </trkpt>
      <trkpt lat="48.81944" lon="2.36248">
        <ele>90.3</ele>
        <time>2013-03-03T14:28:06.000Z</time>
      </trkpt>
      <trkpt lat="48.81951" lon="2.36252">
        <ele>90.2</ele>
        <time>2013-03-03T14:28:07.000Z</time>
      </trkpt>
      <trkpt lat="48.81969" lon="2.36262">
        <ele>90.4</ele>
        <time>2013-03-03T14:28:08.000Z</time>
      </trkpt>
      <trkpt lat="48.81976" lon="2.36262">
        <ele>90.9</ele>
        <time>2013-03-03T14:28:09.000Z</time>
      </trkpt>
      <trkpt lat="48.81984" lon="2.36268">
        <ele>91.7</ele>
        <time>2013-03-03T14:28:10.000Z</time>
      </trkpt>
      <trkpt lat="48.81985" lon="2.36273">
        <ele>92.9</ele>
        <time>2013-03-03T14:28:11.000Z</time>
      </trkpt>
      <trkpt lat="48.81972" lon="2.36282">
        <ele>94.1</ele>
        <time>2013-03-03T14:28:12.000Z</time>
      </trkpt>
      <trkpt lat="48.81965" lon="2.3629">
        <ele>96.7</ele>
        <time>2013-03-03T14:28:13.000Z</time>
      </trkpt>
      <trkpt lat="48.8196" lon="2.36296">
        <ele>94.4</ele>
        <time>2013-03-03T14:28:14.000Z</time>
      </trkpt>
      <trkpt lat="48.81958" lon="2.36304">
        <ele>92.9</ele>
        <time>2013-03-03T14:28:15.000Z</time>
      </trkpt>
      <trkpt lat="48.81957" lon="2.3631">
        <ele>92.8</ele>
        <time>2013-03-03T14:28:16.000Z</time>
      </trkpt>
      <trkpt lat="48.81958" lon="2.36315">
        <ele>93</ele>
        <time>2013-03-03T14:28:17.000Z</time>
      </trkpt>
      <trkpt lat="48.8196" lon="2.36319">
        <ele>93.1</ele>
        <time>2013-03-03T14:28:18.000Z</time>
      </trkpt>
      <trkpt lat="48.81961" lon="2.36326">
        <ele>93.3</ele>
        <time>2013-03-03T14:28:19.000Z</time>
      </trkpt>
      <trkpt lat="48.81963" lon="2.36333">
        <ele>93.2</ele>
        <time>2013-03-03T14:28:20.000Z</time>
      </trkpt>
      <trkpt lat="48.81965" lon="2.36338">
        <ele>93</ele>
        <time>2013-03-03T14:28:21.000Z</time>
      </trkpt>
      <trkpt lat="48.81967" lon="2.36342">
        <ele>93.8</ele>
        <time>2013-03-03T14:28:22.000Z</time>
      </trkpt>
      <trkpt lat="48.81968" lon="2.36347">
        <ele>94.2</ele>
        <time>2013-03-03T14:28:23.000Z</time>
      </trkpt>
      <trkpt lat="48.8197" lon="2.36352">
        <ele>95.1</ele>
        <time>2013-03-03T14:28:24.000Z</time>
      </trkpt>
      <trkpt lat="48.81972" lon="2.36356">
        <ele>97.3</ele>
        <time>2013-03-03T14:28:25.000Z</time>
      </trkpt>
      <trkpt lat="48.81974" lon="2.36361">
        <ele>98.7</ele>
        <time>2013-03-03T14:28:26.000Z</time>
      </trkpt>
      <trkpt lat="48.81976" lon="2.36366">
        <ele>101.1</ele>
        <time>2013-03-03T14:28:27.000Z</time>
      </trkpt>
      <trkpt lat="48.81978" lon="2.36372">
        <ele>104.3</ele>
        <time>2013-03-03T14:28:28.000Z</time>
      </trkpt>
      <trkpt lat="48.81979" lon="2.36377">
        <ele>105.8</ele>
        <time>2013-03-03T14:28:29.000Z</time>
      </trkpt>
      <trkpt lat="48.81981" lon="2.36383">
        <ele>105.7</ele>
        <time>2013-03-03T14:28:30.000Z</time>
      </trkpt>
      <trkpt lat="48.81982" lon="2.36388">
        <ele>105</ele>
        <time>2013-03-03T14:28:31.000Z</time>
      </trkpt>
      <trkpt lat="48.81984" lon="2.36392">
        <ele>105.6</ele>
        <time>2013-03-03T14:28:32.000Z</time>
      </trkpt>
      <trkpt lat="48.81986" lon="2.36396">
        <ele>105.4</ele>
        <time>2013-03-03T14:28:33.000Z</time>
      </trkpt>
      <trkpt lat="48.81987" lon="2.36401">
        <ele>105.4</ele>
        <time>2013-03-03T14:28:34.000Z</time>
      </trkpt>
      <trkpt lat="48.81989" lon="2.36405">
        <ele>105.8</ele>
        <time>2013-03-03T14:28:35.000Z</time>
      </trkpt>
      <trkpt lat="48.8199" lon="2.36409">
        <ele>105.5</ele>
        <time>2013-03-03T14:28:36.000Z</time>
      </trkpt>
      <trkpt lat="48.81992" lon="2.36413">
        <ele>105.7</ele>
        <time>2013-03-03T14:28:37.000Z</time>
      </trkpt>
      <trkpt lat="48.81994" lon="2.36417">
        <ele>105.5</ele>
        <time>2013-03-03T14:28:38.000Z</time>
      </trkpt>
      <trkpt lat="48.81995" lon="2.36421">
        <ele>106.3</ele>
        <time>2013-03-03T14:28:39.000Z</time>
      </trkpt>
      <trkpt lat="48.81997" lon="2.36425">
        <ele>107</ele>
        <time>2013-03-03T14:28:40.000Z</time>
      </trkpt>
      <trkpt lat="48.81999" lon="2.3643">
        <ele>107.7</ele>
        <time>2013-03-03T14:28:42.000Z</time>
      </trkpt>
      <trkpt lat="48.82" lon="2.36433">
        <ele>107.5</ele>
        <time>2013-03-03T14:28:43.000Z</time>
      </trkpt>
      <trkpt lat="48.82001" lon="2.36438">
        <ele>109.4</ele>
        <time>2013-03-03T14:28:45.000Z</time>
      </trkpt>
      <trkpt lat="48.82002" lon="2.36441">
        <ele>109.3</ele>
        <time>2013-03-03T14:28:46.000Z</time>
      </trkpt>
      <trkpt lat="48.82004" lon="2.36447">
        <ele>108.1</ele>
        <time>2013-03-03T14:28:48.000Z</time>
      </trkpt>
      <trkpt lat="48.82005" lon="2.36449">
        <ele>109.4</ele>
        <time>2013-03-03T14:28:49.000Z</time>
      </trkpt>
      <trkpt lat="48.82008" lon="2.36454">
        <ele>108.7</ele>
        <time>2013-03-03T14:28:51.000Z</time>
      </trkpt>
      <trkpt lat="48.82008" lon="2.36457">
        <ele>106</ele>
        <time>2013-03-03T14:28:52.000Z</time>
      </trkpt>
      <trkpt lat="48.82007" lon="2.36461">
        <ele>103.5</ele>
        <time>2013-03-03T14:28:53.000Z</time>
      </trkpt>
      <trkpt lat="48.82006" lon="2.36465">
        <ele>101.8</ele>
        <time>2013-03-03T14:28:54.000Z</time>
      </trkpt>
      <trkpt lat="48.82004" lon="2.36469">
        <ele>99.6</ele>
        <time>2013-03-03T14:28:55.000Z</time>
      </trkpt>
      <trkpt lat="48.82001" lon="2.36473">
        <ele>98.4</ele>
        <time>2013-03-03T14:28:56.000Z</time>
      </trkpt>
      <trkpt lat="48.81997" lon="2.36476">
        <ele>97.6</ele>
        <time>2013-03-03T14:28:57.000Z</time>
      </trkpt>
      <trkpt lat="48.81995" lon="2.36479">
        <ele>102</ele>
        <time>2013-03-03T14:28:58.000Z</time>
      </trkpt>
      <trkpt lat="48.81992" lon="2.36482">
        <ele>100.5</ele>
        <time>2013-03-03T14:28:59.000Z</time>
      </trkpt>
      <trkpt lat="48.8199" lon="2.36485">
        <ele>98.4</ele>
        <time>2013-03-03T14:29:00.000Z</time>
      </trkpt>
      <trkpt lat="48.81988" lon="2.36488">
        <ele>97.5</ele>
        <time>2013-03-03T14:29:01.000Z</time>
      </trkpt>
      <trkpt lat="48.81988" lon="2.36491">
        <ele>96.8</ele>
        <time>2013-03-03T14:29:02.000Z</time>
      </trkpt>
      <trkpt lat="48.81989" lon="2.36494">
        <ele>95.9</ele>
        <time>2013-03-03T14:29:03.000Z</time>
      </trkpt>
      <trkpt lat="48.81989" lon="2.36498">
        <ele>96.5</ele>
        <time>2013-03-03T14:29:04.000Z</time>
      </trkpt>
      <trkpt lat="48.8199" lon="2.36502">
        <ele>95.4</ele>
        <time>2013-03-03T14:29:05.000Z</time>
      </trkpt>
      <trkpt lat="48.81989" lon="2.36505">
        <ele>94.9</ele>
        <time>2013-03-03T14:29:06.000Z</time>
      </trkpt>
      <trkpt lat="48.81988" lon="2.36508">
        <ele>94.9</ele>
        <time>2013-03-03T14:29:07.000Z</time>
      </trkpt>
      <trkpt lat="48.81987" lon="2.36512">
        <ele>94.7</ele>
        <time>2013-03-03T14:29:08.000Z</time>
      </trkpt>
      <trkpt lat="48.81986" lon="2.36517">
        <ele>92.2</ele>
        <time>2013-03-03T14:29:10.000Z</time>
      </trkpt>
      <trkpt lat="48.81985" lon="2.3652">
        <ele>92.4</ele>
        <time>2013-03-03T14:29:11.000Z</time>
      </trkpt>
      <trkpt lat="48.81983" lon="2.36526">
        <ele>91.7</ele>
        <time>2013-03-03T14:29:14.000Z</time>
      </trkpt>
      <trkpt lat="48.81982" lon="2.36528">
        <ele>91.7</ele>
        <time>2013-03-03T14:29:15.000Z</time>
      </trkpt>
      <trkpt lat="48.8198" lon="2.36531">
        <ele>90.9</ele>
        <time>2013-03-03T14:29:17.000Z</time>
      </trkpt>
      <trkpt lat="48.81978" lon="2.36531">
        <ele>89.6</ele>
        <time>2013-03-03T14:29:18.000Z</time>
      </trkpt>
      <trkpt lat="48.81975" lon="2.36532">
        <ele>89.4</ele>
        <time>2013-03-03T14:29:19.000Z</time>
      </trkpt>
      <trkpt lat="48.81973" lon="2.36532">
        <ele>89.6</ele>
        <time>2013-03-03T14:29:20.000Z</time>
      </trkpt>
      <trkpt lat="48.8197" lon="2.36533">
        <ele>89.2</ele>
        <time>2013-03-03T14:29:21.000Z</time>
      </trkpt>
      <trkpt lat="48.81967" lon="2.36536">
        <ele>88.6</ele>
        <time>2013-03-03T14:29:22.000Z</time>
      </trkpt>
      <trkpt lat="48.81965" lon="2.3654">
        <ele>89.6</ele>
        <time>2013-03-03T14:29:23.000Z</time>
      </trkpt>
      <trkpt lat="48.81962" lon="2.36544">
        <ele>89.4</ele>
        <time>2013-03-03T14:29:24.000Z</time>
      </trkpt>
      <trkpt lat="48.8196" lon="2.36549">
        <ele>89.8</ele>
        <time>2013-03-03T14:29:25.000Z</time>
      </trkpt>
      <trkpt lat="48.81957" lon="2.36554">
        <ele>88.1</ele>
        <time>2013-03-03T14:29:26.000Z</time>
      </trkpt>
      <trkpt lat="48.81954" lon="2.36559">
        <ele>86.5</ele>
        <time>2013-03-03T14:29:27.000Z</time>
      </trkpt>
      <trkpt lat="48.8195" lon="2.36563">
        <ele>85.8</ele>
        <time>2013-03-03T14:29:28.000Z</time>
      </trkpt>
      <trkpt lat="48.81945" lon="2.36567">
        <ele>85.7</ele>
        <time>2013-03-03T14:29:29.000Z</time>
      </trkpt>
      <trkpt lat="48.81941" lon="2.36571">
        <ele>84.9</ele>
        <time>2013-03-03T14:29:30.000Z</time>
      </trkpt>
      <trkpt lat="48.81937" lon="2.36573">
        <ele>85.6</ele>
        <time>2013-03-03T14:29:31.000Z</time>
      </trkpt>
      <trkpt lat="48.81932" lon="2.36576">
        <ele>85.1</ele>
        <time>2013-03-03T14:29:32.000Z</time>
      </trkpt>
      <trkpt lat="48.81927" lon="2.36577">
        <ele>84</ele>
        <time>2013-03-03T14:29:33.000Z</time>
      </trkpt>
      <trkpt lat="48.81922" lon="2.36579">
        <ele>83.8</ele>
        <time>2013-03-03T14:29:34.000Z</time>
      </trkpt>
      <trkpt lat="48.81918" lon="2.36581">
        <ele>82.8</ele>
        <time>2013-03-03T14:29:35.000Z</time>
      </trkpt>
      <trkpt lat="48.81914" lon="2.36583">
        <ele>84.1</ele>
        <time>2013-03-03T14:29:36.000Z</time>
      </trkpt>
      <trkpt lat="48.8191" lon="2.36585">
        <ele>83.7</ele>
        <time>2013-03-03T14:29:37.000Z</time>
      </trkpt>
      <trkpt lat="48.81907" lon="2.36588">
        <ele>84.1</ele>
        <time>2013-03-03T14:29:38.000Z</time>
      </trkpt>
      <trkpt lat="48.81903" lon="2.3659">
        <ele>85.7</ele>
        <time>2013-03-03T14:29:39.000Z</time>
      </trkpt>
      <trkpt lat="48.81899" lon="2.36593">
        <ele>86.4</ele>
        <time>2013-03-03T14:29:40.000Z</time>
      </trkpt>
      <trkpt lat="48.81896" lon="2.36595">
        <ele>87.7</ele>
        <time>2013-03-03T14:29:41.000Z</time>
      </trkpt>
      <trkpt lat="48.81893" lon="2.36597">
        <ele>87.1</ele>
        <time>2013-03-03T14:29:42.000Z</time>
      </trkpt>
      <trkpt lat="48.81889" lon="2.36599">
        <ele>86.9</ele>
        <time>2013-03-03T14:29:43.000Z</time>
      </trkpt>
      <trkpt lat="48.81885" lon="2.366">
        <ele>86.9</ele>
        <time>2013-03-03T14:29:44.000Z</time>
      </trkpt>
      <trkpt lat="48.81882" lon="2.36601">
        <ele>86.7</ele>
        <time>2013-03-03T14:29:45.000Z</time>
      </trkpt>
      <trkpt lat="48.81877" lon="2.36602">
        <ele>86.6</ele>
        <time>2013-03-03T14:29:46.000Z</time>
      </trkpt>
      <trkpt lat="48.81873" lon="2.36602">
        <ele>86.3</ele>
        <time>2013-03-03T14:29:47.000Z</time>
      </trkpt>
      <trkpt lat="48.81869" lon="2.36603">
        <ele>84.9</ele>
        <time>2013-03-03T14:29:48.000Z</time>
      </trkpt>
      <trkpt lat="48.81866" lon="2.36604">
        <ele>82.7</ele>
        <time>2013-03-03T14:29:49.000Z</time>
      </trkpt>
      <trkpt lat="48.81862" lon="2.36605">
        <ele>82</ele>
        <time>2013-03-03T14:29:50.000Z</time>
      </trkpt>
      <trkpt lat="48.81859" lon="2.36607">
        <ele>81.3</ele>
        <time>2013-03-03T14:29:51.000Z</time>
      </trkpt>
      <trkpt lat="48.81856" lon="2.3661">
        <ele>79.5</ele>
        <time>2013-03-03T14:29:53.000Z</time>
      </trkpt>
      <trkpt lat="48.81854" lon="2.36612">
        <ele>78.3</ele>
        <time>2013-03-03T14:29:54.000Z</time>
      </trkpt>
      <trkpt lat="48.81852" lon="2.36613">
        <ele>77.3</ele>
        <time>2013-03-03T14:29:55.000Z</time>
      </trkpt>
      <trkpt lat="48.81849" lon="2.36614">
        <ele>77</ele>
        <time>2013-03-03T14:29:56.000Z</time>
      </trkpt>
      <trkpt lat="48.81847" lon="2.36615">
        <ele>76.2</ele>
        <time>2013-03-03T14:29:57.000Z</time>
      </trkpt>
      <trkpt lat="48.81843" lon="2.36616">
        <ele>76.3</ele>
        <time>2013-03-03T14:29:58.000Z</time>
      </trkpt>
      <trkpt lat="48.8184" lon="2.36618">
        <ele>77</ele>
        <time>2013-03-03T14:29:59.000Z</time>
      </trkpt>
      <trkpt lat="48.81838" lon="2.36619">
        <ele>75.3</ele>
        <time>2013-03-03T14:30:00.000Z</time>
      </trkpt>
      <trkpt lat="48.81835" lon="2.36621">
        <ele>75.3</ele>
        <time>2013-03-03T14:30:01.000Z</time>
      </trkpt>
      <trkpt lat="48.81833" lon="2.36622">
        <ele>76</ele>
        <time>2013-03-03T14:30:02.000Z</time>
      </trkpt>
      <trkpt lat="48.8183" lon="2.36623">
        <ele>77.3</ele>
        <time>2013-03-03T14:30:03.000Z</time>
      </trkpt>
      <trkpt lat="48.81827" lon="2.36625">
        <ele>78.8</ele>
        <time>2013-03-03T14:30:04.000Z</time>
      </trkpt>
      <trkpt lat="48.81824" lon="2.36629">
        <ele>79</ele>
        <time>2013-03-03T14:30:05.000Z</time>
      </trkpt>
      <trkpt lat="48.81821" lon="2.36633">
        <ele>81.1</ele>
        <time>2013-03-03T14:30:06.000Z</time>
      </trkpt>
      <trkpt lat="48.81818" lon="2.36636">
        <ele>81.5</ele>
        <time>2013-03-03T14:30:07.000Z</time>
      </trkpt>
      <trkpt lat="48.81815" lon="2.36639">
        <ele>81.7</ele>
        <time>2013-03-03T14:30:08.000Z</time>
      </trkpt>
      <trkpt lat="48.81812" lon="2.36643">
        <ele>80.6</ele>
        <time>2013-03-03T14:30:10.000Z</time>
      </trkpt>
      <trkpt lat="48.8181" lon="2.36645">
        <ele>81.2</ele>
        <time>2013-03-03T14:30:11.000Z</time>
      </trkpt>
      <trkpt lat="48.81808" lon="2.36647">
        <ele>82.3</ele>
        <time>2013-03-03T14:30:13.000Z</time>
      </trkpt>
      <trkpt lat="48.81806" lon="2.3665">
        <ele>82</ele>
        <time>2013-03-03T14:30:14.000Z</time>
      </trkpt>
      <trkpt lat="48.81805" lon="2.36653">
        <ele>82</ele>
        <time>2013-03-03T14:30:15.000Z</time>
      </trkpt>
      <trkpt lat="48.81803" lon="2.36656">
        <ele>82.5</ele>
        <time>2013-03-03T14:30:16.000Z</time>
      </trkpt>
      <trkpt lat="48.81801" lon="2.36659">
        <ele>82.1</ele>
        <time>2013-03-03T14:30:17.000Z</time>
      </trkpt>
      <trkpt lat="48.81797" lon="2.36663">
        <ele>82.2</ele>
        <time>2013-03-03T14:30:18.000Z</time>
      </trkpt>
      <trkpt lat="48.81794" lon="2.36665">
        <ele>81</ele>
        <time>2013-03-03T14:30:19.000Z</time>
      </trkpt>
      <trkpt lat="48.81792" lon="2.36668">
        <ele>81.3</ele>
        <time>2013-03-03T14:30:20.000Z</time>
      </trkpt>
      <trkpt lat="48.81789" lon="2.36671">
        <ele>81.8</ele>
        <time>2013-03-03T14:30:21.000Z</time>
      </trkpt>
      <trkpt lat="48.81786" lon="2.36674">
        <ele>82</ele>
        <time>2013-03-03T14:30:22.000Z</time>
      </trkpt>
      <trkpt lat="48.81783" lon="2.36677">
        <ele>82.8</ele>
        <time>2013-03-03T14:30:23.000Z</time>
      </trkpt>
      <trkpt lat="48.8178" lon="2.3668">
        <ele>83</ele>
        <time>2013-03-03T14:30:24.000Z</time>
      </trkpt>
      <trkpt lat="48.81776" lon="2.36683">
        <ele>82.8</ele>
        <time>2013-03-03T14:30:25.000Z</time>
      </trkpt>
      <trkpt lat="48.81773" lon="2.36686">
        <ele>82.7</ele>
        <time>2013-03-03T14:30:26.000Z</time>
      </trkpt>
      <trkpt lat="48.81769" lon="2.36689">
        <ele>82.9</ele>
        <time>2013-03-03T14:30:27.000Z</time>
      </trkpt>
      <trkpt lat="48.81766" lon="2.36692">
        <ele>83.7</ele>
        <time>2013-03-03T14:30:28.000Z</time>
      </trkpt>
      <trkpt lat="48.81763" lon="2.36694">
        <ele>82.2</ele>
        <time>2013-03-03T14:30:29.000Z</time>
      </trkpt>
      <trkpt lat="48.81759" lon="2.36697">
        <ele>82</ele>
        <time>2013-03-03T14:30:30.000Z</time>
      </trkpt>
      <trkpt lat="48.81756" lon="2.367">
        <ele>82.1</ele>
        <time>2013-03-03T14:30:31.000Z</time>
      </trkpt>
      <trkpt lat="48.81753" lon="2.36703">
        <ele>81.7</ele>
        <time>2013-03-03T14:30:32.000Z</time>
      </trkpt>
      <trkpt lat="48.81751" lon="2.36706">
        <ele>81.7</ele>
        <time>2013-03-03T14:30:33.000Z</time>
      </trkpt>
      <trkpt lat="48.81749" lon="2.3671">
        <ele>81.8</ele>
        <time>2013-03-03T14:30:34.000Z</time>
      </trkpt>
      <trkpt lat="48.8175" lon="2.36715">
        <ele>79.9</ele>
        <time>2013-03-03T14:30:36.000Z</time>
      </trkpt>
      <trkpt lat="48.81752" lon="2.36718">
        <ele>80.3</ele>
        <time>2013-03-03T14:30:37.000Z</time>
      </trkpt>
      <trkpt lat="48.81753" lon="2.36722">
        <ele>80.8</ele>
        <time>2013-03-03T14:30:38.000Z</time>
      </trkpt>
      <trkpt lat="48.81754" lon="2.36727">
        <ele>79.9</ele>
        <time>2013-03-03T14:30:39.000Z</time>
      </trkpt>
      <trkpt lat="48.81755" lon="2.36733">
        <ele>80</ele>
        <time>2013-03-03T14:30:40.000Z</time>
      </trkpt>
      <trkpt lat="48.81756" lon="2.36739">
        <ele>80.3</ele>
        <time>2013-03-03T14:30:41.000Z</time>
      </trkpt>
      <trkpt lat="48.81757" lon="2.36744">
        <ele>80.1</ele>
        <time>2013-03-03T14:30:42.000Z</time>
      </trkpt>
      <trkpt lat="48.81759" lon="2.3675">
        <ele>80.1</ele>
        <time>2013-03-03T14:30:43.000Z</time>
      </trkpt>
      <trkpt lat="48.8176" lon="2.36755">
        <ele>80.2</ele>
        <time>2013-03-03T14:30:44.000Z</time>
      </trkpt>
      <trkpt lat="48.81762" lon="2.36759">
        <ele>79.5</ele>
        <time>2013-03-03T14:30:45.000Z</time>
      </trkpt>
      <trkpt lat="48.81764" lon="2.36762">
        <ele>79.6</ele>
        <time>2013-03-03T14:30:46.000Z</time>
      </trkpt>
      <trkpt lat="48.81766" lon="2.36764">
        <ele>80.2</ele>
        <time>2013-03-03T14:30:47.000Z</time>
      </trkpt>
      <trkpt lat="48.81769" lon="2.36768">
        <ele>81.3</ele>
        <time>2013-03-03T14:30:49.000Z</time>
      </trkpt>
      <trkpt lat="48.81771" lon="2.3677">
        <ele>81.8</ele>
        <time>2013-03-03T14:30:50.000Z</time>
      </trkpt>
      <trkpt lat="48.81773" lon="2.36773">
        <ele>82.5</ele>
        <time>2013-03-03T14:30:51.000Z</time>
      </trkpt>
      <trkpt lat="48.81775" lon="2.36776">
        <ele>82.5</ele>
        <time>2013-03-03T14:30:52.000Z</time>
      </trkpt>
      <trkpt lat="48.81776" lon="2.3678">
        <ele>82.3</ele>
        <time>2013-03-03T14:30:53.000Z</time>
      </trkpt>
      <trkpt lat="48.81777" lon="2.36785">
        <ele>83.3</ele>
        <time>2013-03-03T14:30:54.000Z</time>
      </trkpt>
      <trkpt lat="48.81779" lon="2.3679">
        <ele>85</ele>
        <time>2013-03-03T14:30:55.000Z</time>
      </trkpt>
      <trkpt lat="48.81781" lon="2.36796">
        <ele>87</ele>
        <time>2013-03-03T14:30:56.000Z</time>
      </trkpt>
      <trkpt lat="48.81783" lon="2.36803">
        <ele>87.2</ele>
        <time>2013-03-03T14:30:57.000Z</time>
      </trkpt>
      <trkpt lat="48.81785" lon="2.3681">
        <ele>88.1</ele>
        <time>2013-03-03T14:30:58.000Z</time>
      </trkpt>
      <trkpt lat="48.81787" lon="2.36816">
        <ele>88.3</ele>
        <time>2013-03-03T14:30:59.000Z</time>
      </trkpt>
      <trkpt lat="48.81789" lon="2.36822">
        <ele>89.2</ele>
        <time>2013-03-03T14:31:00.000Z</time>
      </trkpt>
      <trkpt lat="48.81791" lon="2.36828">
        <ele>90.3</ele>
        <time>2013-03-03T14:31:01.000Z</time>
      </trkpt>
      <trkpt lat="48.81792" lon="2.36835">
        <ele>90.6</ele>
        <time>2013-03-03T14:31:02.000Z</time>
      </trkpt>
      <trkpt lat="48.81794" lon="2.3684">
        <ele>91.4</ele>
        <time>2013-03-03T14:31:03.000Z</time>
      </trkpt>
      <trkpt lat="48.81796" lon="2.36844">
        <ele>91.8</ele>
        <time>2013-03-03T14:31:04.000Z</time>
      </trkpt>
      <trkpt lat="48.81797" lon="2.36847">
        <ele>92.2</ele>
        <time>2013-03-03T14:31:05.000Z</time>
      </trkpt>
      <trkpt lat="48.81799" lon="2.36849">
        <ele>91.1</ele>
        <time>2013-03-03T14:31:06.000Z</time>
      </trkpt>
      <trkpt lat="48.818" lon="2.36852">
        <ele>91.6</ele>
        <time>2013-03-03T14:31:07.000Z</time>
      </trkpt>
      <trkpt lat="48.81801" lon="2.36856">
        <ele>92.3</ele>
        <time>2013-03-03T14:31:08.000Z</time>
      </trkpt>
      <trkpt lat="48.81802" lon="2.3686">
        <ele>92.3</ele>
        <time>2013-03-03T14:31:09.000Z</time>
      </trkpt>
      <trkpt lat="48.81804" lon="2.36864">
        <ele>92.3</ele>
        <time>2013-03-03T14:31:10.000Z</time>
      </trkpt>
      <trkpt lat="48.81804" lon="2.36867">
        <ele>92.3</ele>
        <time>2013-03-03T14:31:11.000Z</time>
      </trkpt>
      <trkpt lat="48.81805" lon="2.36872">
        <ele>91.1</ele>
        <time>2013-03-03T14:31:13.000Z</time>
      </trkpt>
      <trkpt lat="48.81804" lon="2.36875">
        <ele>91.8</ele>
        <time>2013-03-03T14:31:14.000Z</time>
      </trkpt>
      <trkpt lat="48.81802" lon="2.3688">
        <ele>90.1</ele>
        <time>2013-03-03T14:31:18.000Z</time>
      </trkpt>
      <trkpt lat="48.81801" lon="2.36881">
        <ele>90.8</ele>
        <time>2013-03-03T14:31:19.000Z</time>
      </trkpt>
      <trkpt lat="48.81798" lon="2.36886">
        <ele>91.2</ele>
        <time>2013-03-03T14:31:22.000Z</time>
      </trkpt>
      <trkpt lat="48.81795" lon="2.36888">
        <ele>90.5</ele>
        <time>2013-03-03T14:31:23.000Z</time>
      </trkpt>
      <trkpt lat="48.81793" lon="2.36889">
        <ele>89.8</ele>
        <time>2013-03-03T14:31:24.000Z</time>
      </trkpt>
      <trkpt lat="48.81791" lon="2.3689">
        <ele>89</ele>
        <time>2013-03-03T14:31:25.000Z</time>
      </trkpt>
      <trkpt lat="48.81787" lon="2.36892">
        <ele>87.4</ele>
        <time>2013-03-03T14:31:28.000Z</time>
      </trkpt>
      <trkpt lat="48.81786" lon="2.36893">
        <ele>86.9</ele>
        <time>2013-03-03T14:31:29.000Z</time>
      </trkpt>
      <trkpt lat="48.81784" lon="2.36897">
        <ele>85.7</ele>
        <time>2013-03-03T14:31:38.000Z</time>
      </trkpt>
      <trkpt lat="48.81782" lon="2.36898">
        <ele>85.2</ele>
        <time>2013-03-03T14:31:39.000Z</time>
      </trkpt>
      <trkpt lat="48.8178" lon="2.36903">
        <ele>84.4</ele>
        <time>2013-03-03T14:31:41.000Z</time>
      </trkpt>
      <trkpt lat="48.81779" lon="2.36907">
        <ele>83.7</ele>
        <time>2013-03-03T14:31:42.000Z</time>
      </trkpt>
      <trkpt lat="48.81779" lon="2.3691">
        <ele>83.1</ele>
        <time>2013-03-03T14:31:43.000Z</time>
      </trkpt>
      <trkpt lat="48.81778" lon="2.36915">
        <ele>82.8</ele>
        <time>2013-03-03T14:31:44.000Z</time>
      </trkpt>
      <trkpt lat="48.81779" lon="2.36919">
        <ele>82.9</ele>
        <time>2013-03-03T14:31:45.000Z</time>
      </trkpt>
      <trkpt lat="48.8178" lon="2.36924">
        <ele>82.8</ele>
        <time>2013-03-03T14:31:46.000Z</time>
      </trkpt>
      <trkpt lat="48.8178" lon="2.36928">
        <ele>84</ele>
        <time>2013-03-03T14:31:47.000Z</time>
      </trkpt>
      <trkpt lat="48.81782" lon="2.36932">
        <ele>84.3</ele>
        <time>2013-03-03T14:31:48.000Z</time>
      </trkpt>
      <trkpt lat="48.81783" lon="2.36936">
        <ele>83.5</ele>
        <time>2013-03-03T14:31:49.000Z</time>
      </trkpt>
      <trkpt lat="48.81784" lon="2.36939">
        <ele>82.3</ele>
        <time>2013-03-03T14:31:50.000Z</time>
      </trkpt>
      <trkpt lat="48.81785" lon="2.36943">
        <ele>83.2</ele>
        <time>2013-03-03T14:31:51.000Z</time>
      </trkpt>
      <trkpt lat="48.81786" lon="2.36946">
        <ele>83.8</ele>
        <time>2013-03-03T14:31:52.000Z</time>
      </trkpt>
      <trkpt lat="48.81788" lon="2.36951">
        <ele>83.8</ele>
        <time>2013-03-03T14:31:54.000Z</time>
      </trkpt>
      <trkpt lat="48.81789" lon="2.36954">
        <ele>83.4</ele>
        <time>2013-03-03T14:31:55.000Z</time>
      </trkpt>
      <trkpt lat="48.81792" lon="2.3696">
        <ele>83.8</ele>
        <time>2013-03-03T14:31:57.000Z</time>
      </trkpt>
      <trkpt lat="48.81793" lon="2.36963">
        <ele>84.5</ele>
        <time>2013-03-03T14:31:58.000Z</time>
      </trkpt>
      <trkpt lat="48.81794" lon="2.36966">
        <ele>85.5</ele>
        <time>2013-03-03T14:31:59.000Z</time>
      </trkpt>
      <trkpt lat="48.81795" lon="2.3697">
        <ele>86.1</ele>
        <time>2013-03-03T14:32:00.000Z</time>
      </trkpt>
      <trkpt lat="48.81796" lon="2.36974">
        <ele>86.5</ele>
        <time>2013-03-03T14:32:01.000Z</time>
      </trkpt>
      <trkpt lat="48.81798" lon="2.36978">
        <ele>86.6</ele>
        <time>2013-03-03T14:32:02.000Z</time>
      </trkpt>
      <trkpt lat="48.818" lon="2.36983">
        <ele>86.5</ele>
        <time>2013-03-03T14:32:03.000Z</time>
      </trkpt>
      <trkpt lat="48.81802" lon="2.36989">
        <ele>87.5</ele>
        <time>2013-03-03T14:32:04.000Z</time>
      </trkpt>
      <trkpt lat="48.81803" lon="2.36994">
        <ele>88.3</ele>
        <time>2013-03-03T14:32:05.000Z</time>
      </trkpt>
      <trkpt lat="48.81805" lon="2.37001">
        <ele>88.5</ele>
        <time>2013-03-03T14:32:06.000Z</time>
      </trkpt>
      <trkpt lat="48.81806" lon="2.37007">
        <ele>89</ele>
        <time>2013-03-03T14:32:07.000Z</time>
      </trkpt>
      <trkpt lat="48.81807" lon="2.37014">
        <ele>90.5</ele>
        <time>2013-03-03T14:32:08.000Z</time>
      </trkpt>
      <trkpt lat="48.81808" lon="2.37021">
        <ele>91</ele>
        <time>2013-03-03T14:32:09.000Z</time>
      </trkpt>
      <trkpt lat="48.81809" lon="2.37027">
        <ele>91.7</ele>
        <time>2013-03-03T14:32:10.000Z</time>
      </trkpt>
      <trkpt lat="48.81811" lon="2.37034">
        <ele>94.3</ele>
        <time>2013-03-03T14:32:11.000Z</time>
      </trkpt>
      <trkpt lat="48.81813" lon="2.3704">
        <ele>94.6</ele>
        <time>2013-03-03T14:32:12.000Z</time>
      </trkpt>
      <trkpt lat="48.81815" lon="2.37046">
        <ele>94.5</ele>
        <time>2013-03-03T14:32:13.000Z</time>
      </trkpt>
      <trkpt lat="48.81816" lon="2.37051">
        <ele>95</ele>
        <time>2013-03-03T14:32:14.000Z</time>
      </trkpt>
      <trkpt lat="48.81818" lon="2.37056">
        <ele>94</ele>
        <time>2013-03-03T14:32:15.000Z</time>
      </trkpt>
      <trkpt lat="48.81819" lon="2.3706">
        <ele>96.2</ele>
        <time>2013-03-03T14:32:16.000Z</time>
      </trkpt>
      <trkpt lat="48.8182" lon="2.37064">
        <ele>96.2</ele>
        <time>2013-03-03T14:32:17.000Z</time>
      </trkpt>
      <trkpt lat="48.81821" lon="2.37068">
        <ele>98.6</ele>
        <time>2013-03-03T14:32:18.000Z</time>
      </trkpt>
      <trkpt lat="48.81821" lon="2.37072">
        <ele>98.3</ele>
        <time>2013-03-03T14:32:19.000Z</time>
      </trkpt>
      <trkpt lat="48.81822" lon="2.37077">
        <ele>98.6</ele>
        <time>2013-03-03T14:32:20.000Z</time>
      </trkpt>
      <trkpt lat="48.81822" lon="2.37081">
        <ele>101</ele>
        <time>2013-03-03T14:32:21.000Z</time>
      </trkpt>
      <trkpt lat="48.81822" lon="2.37085">
        <ele>103.6</ele>
        <time>2013-03-03T14:32:22.000Z</time>
      </trkpt>
      <trkpt lat="48.81823" lon="2.37089">
        <ele>104.7</ele>
        <time>2013-03-03T14:32:23.000Z</time>
      </trkpt>
      <trkpt lat="48.81823" lon="2.37093">
        <ele>106.1</ele>
        <time>2013-03-03T14:32:24.000Z</time>
      </trkpt>
      <trkpt lat="48.81825" lon="2.37098">
        <ele>106.5</ele>
        <time>2013-03-03T14:32:26.000Z</time>
      </trkpt>
      <trkpt lat="48.81825" lon="2.37101">
        <ele>105.9</ele>
        <time>2013-03-03T14:32:27.000Z</time>
      </trkpt>
      <trkpt lat="48.81826" lon="2.37106">
        <ele>102.7</ele>
        <time>2013-03-03T14:32:29.000Z</time>
      </trkpt>
      <trkpt lat="48.81826" lon="2.37108">
        <ele>102.1</ele>
        <time>2013-03-03T14:32:30.000Z</time>
      </trkpt>
      <trkpt lat="48.81825" lon="2.37113">
        <ele>100.7</ele>
        <time>2013-03-03T14:32:32.000Z</time>
      </trkpt>
      <trkpt lat="48.81825" lon="2.37117">
        <ele>100</ele>
        <time>2013-03-03T14:32:33.000Z</time>
      </trkpt>
      <trkpt lat="48.81825" lon="2.37121">
        <ele>97</ele>
        <time>2013-03-03T14:32:34.000Z</time>
      </trkpt>
      <trkpt lat="48.81824" lon="2.37125">
        <ele>96.6</ele>
        <time>2013-03-03T14:32:35.000Z</time>
      </trkpt>
      <trkpt lat="48.81823" lon="2.37131">
        <ele>94.2</ele>
        <time>2013-03-03T14:32:38.000Z</time>
      </trkpt>
      <trkpt lat="48.81822" lon="2.37133">
        <ele>93.1</ele>
        <time>2013-03-03T14:32:39.000Z</time>
      </trkpt>
      <trkpt lat="48.81822" lon="2.37138">
        <ele>90.7</ele>
        <time>2013-03-03T14:32:41.000Z</time>
      </trkpt>
      <trkpt lat="48.81821" lon="2.3714">
        <ele>89.9</ele>
        <time>2013-03-03T14:32:42.000Z</time>
      </trkpt>
      <trkpt lat="48.81821" lon="2.37144">
        <ele>89.7</ele>
        <time>2013-03-03T14:32:44.000Z</time>
      </trkpt>
      <trkpt lat="48.8182" lon="2.37147">
        <ele>88.5</ele>
        <time>2013-03-03T14:32:45.000Z</time>
      </trkpt>
      <trkpt lat="48.8182" lon="2.37153">
        <ele>88.2</ele>
        <time>2013-03-03T14:32:47.000Z</time>
      </trkpt>
      <trkpt lat="48.8182" lon="2.37157">
        <ele>88.8</ele>
        <time>2013-03-03T14:32:48.000Z</time>
      </trkpt>
      <trkpt lat="48.8182" lon="2.37161">
        <ele>89</ele>
        <time>2013-03-03T14:32:49.000Z</time>
      </trkpt>
      <trkpt lat="48.8182" lon="2.37165">
        <ele>88.9</ele>
        <time>2013-03-03T14:32:50.000Z</time>
      </trkpt>
      <trkpt lat="48.8182" lon="2.37168">
        <ele>88.6</ele>
        <time>2013-03-03T14:32:51.000Z</time>
      </trkpt>
      <trkpt lat="48.81819" lon="2.37171">
        <ele>88.3</ele>
        <time>2013-03-03T14:32:52.000Z</time>
      </trkpt>
      <trkpt lat="48.81819" lon="2.37175">
        <ele>87.8</ele>
        <time>2013-03-03T14:32:53.000Z</time>
      </trkpt>
      <trkpt lat="48.81819" lon="2.3718">
        <ele>87</ele>
        <time>2013-03-03T14:32:54.000Z</time>
      </trkpt>
      <trkpt lat="48.81818" lon="2.37186">
        <ele>80.8</ele>
        <time>2013-03-03T14:32:56.000Z</time>
      </trkpt>
      <trkpt lat="48.81818" lon="2.37189">
        <ele>80.2</ele>
        <time>2013-03-03T14:32:57.000Z</time>
      </trkpt>
      <trkpt lat="48.81817" lon="2.37194">
        <ele>79.7</ele>
        <time>2013-03-03T14:32:59.000Z</time>
      </trkpt>
      <trkpt lat="48.81817" lon="2.37196">
        <ele>80</ele>
        <time>2013-03-03T14:33:00.000Z</time>
      </trkpt>
      <trkpt lat="48.81816" lon="2.37201">
        <ele>80.7</ele>
        <time>2013-03-03T14:33:02.000Z</time>
      </trkpt>
      <trkpt lat="48.81816" lon="2.37204">
        <ele>81.2</ele>
        <time>2013-03-03T14:33:03.000Z</time>
      </trkpt>
      <trkpt lat="48.81816" lon="2.37209">
        <ele>82.3</ele>
        <time>2013-03-03T14:33:05.000Z</time>
      </trkpt>
      <trkpt lat="48.81816" lon="2.37212">
        <ele>82</ele>
        <time>2013-03-03T14:33:06.000Z</time>
      </trkpt>
      <trkpt lat="48.81815" lon="2.37216">
        <ele>82.4</ele>
        <time>2013-03-03T14:33:07.000Z</time>
      </trkpt>
      <trkpt lat="48.81815" lon="2.3722">
        <ele>82.3</ele>
        <time>2013-03-03T14:33:08.000Z</time>
      </trkpt>
      <trkpt lat="48.81814" lon="2.37224">
        <ele>81.3</ele>
        <time>2013-03-03T14:33:09.000Z</time>
      </trkpt>
      <trkpt lat="48.81814" lon="2.37229">
        <ele>81.5</ele>
        <time>2013-03-03T14:33:10.000Z</time>
      </trkpt>
      <trkpt lat="48.81813" lon="2.37233">
        <ele>82.1</ele>
        <time>2013-03-03T14:33:11.000Z</time>
      </trkpt>
      <trkpt lat="48.81812" lon="2.37238">
        <ele>83</ele>
        <time>2013-03-03T14:33:12.000Z</time>
      </trkpt>
      <trkpt lat="48.81812" lon="2.37242">
        <ele>81.2</ele>
        <time>2013-03-03T14:33:13.000Z</time>
      </trkpt>
      <trkpt lat="48.81811" lon="2.37246">
        <ele>81.3</ele>
        <time>2013-03-03T14:33:14.000Z</time>
      </trkpt>
      <trkpt lat="48.8181" lon="2.3725">
        <ele>80.5</ele>
        <time>2013-03-03T14:33:15.000Z</time>
      </trkpt>
      <trkpt lat="48.8181" lon="2.37254">
        <ele>80.6</ele>
        <time>2013-03-03T14:33:16.000Z</time>
      </trkpt>
      <trkpt lat="48.8181" lon="2.37258">
        <ele>80.8</ele>
        <time>2013-03-03T14:33:17.000Z</time>
      </trkpt>
      <trkpt lat="48.81809" lon="2.37262">
        <ele>80.7</ele>
        <time>2013-03-03T14:33:18.000Z</time>
      </trkpt>
      <trkpt lat="48.81808" lon="2.37266">
        <ele>81.5</ele>
        <time>2013-03-03T14:33:19.000Z</time>
      </trkpt>
      <trkpt lat="48.81807" lon="2.37269">
        <ele>79.7</ele>
        <time>2013-03-03T14:33:20.000Z</time>
      </trkpt>
      <trkpt lat="48.81805" lon="2.37274">
        <ele>79.7</ele>
        <time>2013-03-03T14:33:22.000Z</time>
      </trkpt>
      <trkpt lat="48.81805" lon="2.37276">
        <ele>80.3</ele>
        <time>2013-03-03T14:33:23.000Z</time>
      </trkpt>
      <trkpt lat="48.81804" lon="2.3728">
        <ele>80.2</ele>
        <time>2013-03-03T14:33:25.000Z</time>
      </trkpt>
      <trkpt lat="48.81804" lon="2.37282">
        <ele>81.9</ele>
        <time>2013-03-03T14:33:26.000Z</time>
      </trkpt>
      <trkpt lat="48.81804" lon="2.37289">
        <ele>83.5</ele>
        <time>2013-03-03T14:33:28.000Z</time>
      </trkpt>
      <trkpt lat="48.81804" lon="2.37293">
        <ele>86.3</ele>
        <time>2013-03-03T14:33:29.000Z</time>
      </trkpt>
      <trkpt lat="48.81805" lon="2.37297">
        <ele>88.3</ele>
        <time>2013-03-03T14:33:30.000Z</time>
      </trkpt>
      <trkpt lat="48.81805" lon="2.37301">
        <ele>93.5</ele>
        <time>2013-03-03T14:33:31.000Z</time>
      </trkpt>
      <trkpt lat="48.81805" lon="2.37305">
        <ele>94.7</ele>
        <time>2013-03-03T14:33:32.000Z</time>
      </trkpt>
      <trkpt lat="48.81805" lon="2.37309">
        <ele>97.1</ele>
        <time>2013-03-03T14:33:33.000Z</time>
      </trkpt>
      <trkpt lat="48.81806" lon="2.37313">
        <ele>98</ele>
        <time>2013-03-03T14:33:34.000Z</time>
      </trkpt>
      <trkpt lat="48.81806" lon="2.37318">
        <ele>97.2</ele>
        <time>2013-03-03T14:33:35.000Z</time>
      </trkpt>
      <trkpt lat="48.81806" lon="2.37322">
        <ele>96.6</ele>
        <time>2013-03-03T14:33:36.000Z</time>
      </trkpt>
      <trkpt lat="48.81806" lon="2.37327">
        <ele>96.8</ele>
        <time>2013-03-03T14:33:37.000Z</time>
      </trkpt>
      <trkpt lat="48.81807" lon="2.3733">
        <ele>97</ele>
        <time>2013-03-03T14:33:38.000Z</time>
      </trkpt>
      <trkpt lat="48.81807" lon="2.37334">
        <ele>96.5</ele>
        <time>2013-03-03T14:33:39.000Z</time>
      </trkpt>
      <trkpt lat="48.81807" lon="2.37338">
        <ele>97.1</ele>
        <time>2013-03-03T14:33:40.000Z</time>
      </trkpt>
      <trkpt lat="48.81807" lon="2.37342">
        <ele>96.4</ele>
        <time>2013-03-03T14:33:41.000Z</time>
      </trkpt>
      <trkpt lat="48.81808" lon="2.37346">
        <ele>95.4</ele>
        <time>2013-03-03T14:33:42.000Z</time>
      </trkpt>
      <trkpt lat="48.81809" lon="2.37351">
        <ele>94.5</ele>
        <time>2013-03-03T14:33:43.000Z</time>
      </trkpt>
      <trkpt lat="48.8181" lon="2.37355">
        <ele>94.6</ele>
        <time>2013-03-03T14:33:44.000Z</time>
      </trkpt>
      <trkpt lat="48.81811" lon="2.37359">
        <ele>93.9</ele>
        <time>2013-03-03T14:33:45.000Z</time>
      </trkpt>
      <trkpt lat="48.81813" lon="2.37365">
        <ele>93</ele>
        <time>2013-03-03T14:33:47.000Z</time>
      </trkpt>
      <trkpt lat="48.81814" lon="2.37367">
        <ele>93.7</ele>
        <time>2013-03-03T14:33:48.000Z</time>
      </trkpt>
      <trkpt lat="48.81811" lon="2.37371">
        <ele>108.2</ele>
        <time>2013-03-03T14:34:44.000Z</time>
      </trkpt>
      <trkpt lat="48.8181" lon="2.37372">
        <ele>108.9</ele>
        <time>2013-03-03T14:34:45.000Z</time>
      </trkpt>
      <trkpt lat="48.8181" lon="2.37378">
        <ele>115.5</ele>
        <time>2013-03-03T14:35:12.000Z</time>
      </trkpt>
      <trkpt lat="48.8181" lon="2.37379">
        <ele>115.4</ele>
        <time>2013-03-03T14:35:13.000Z</time>
      </trkpt>
      <trkpt lat="48.81811" lon="2.37383">
        <ele>113.9</ele>
        <time>2013-03-03T14:35:16.000Z</time>
      </trkpt>
      <trkpt lat="48.81813" lon="2.37386">
        <ele>113.8</ele>
        <time>2013-03-03T14:35:17.000Z</time>
      </trkpt>
      <trkpt lat="48.81815" lon="2.37391">
        <ele>113</ele>
        <time>2013-03-03T14:35:19.000Z</time>
      </trkpt>
      <trkpt lat="48.81816" lon="2.37393">
        <ele>112.5</ele>
        <time>2013-03-03T14:35:20.000Z</time>
      </trkpt>
      <trkpt lat="48.81818" lon="2.37396">
        <ele>113.1</ele>
        <time>2013-03-03T14:35:21.000Z</time>
      </trkpt>
      <trkpt lat="48.81819" lon="2.37399">
        <ele>113.1</ele>
        <time>2013-03-03T14:35:22.000Z</time>
      </trkpt>
      <trkpt lat="48.8182" lon="2.37402">
        <ele>113</ele>
        <time>2013-03-03T14:35:23.000Z</time>
      </trkpt>
      <trkpt lat="48.81822" lon="2.37406">
        <ele>113.6</ele>
        <time>2013-03-03T14:35:24.000Z</time>
      </trkpt>
      <trkpt lat="48.81824" lon="2.3741">
        <ele>113.2</ele>
        <time>2013-03-03T14:35:25.000Z</time>
      </trkpt>
      <trkpt lat="48.81825" lon="2.37414">
        <ele>111.7</ele>
        <time>2013-03-03T14:35:26.000Z</time>
      </trkpt>
      <trkpt lat="48.81827" lon="2.37417">
        <ele>110.6</ele>
        <time>2013-03-03T14:35:27.000Z</time>
      </trkpt>
      <trkpt lat="48.81828" lon="2.37421">
        <ele>109.6</ele>
        <time>2013-03-03T14:35:28.000Z</time>
      </trkpt>
      <trkpt lat="48.81829" lon="2.37424">
        <ele>109.6</ele>
        <time>2013-03-03T14:35:29.000Z</time>
      </trkpt>
      <trkpt lat="48.81831" lon="2.37431">
        <ele>108.8</ele>
        <time>2013-03-03T14:35:31.150Z</time>
      </trkpt>
      <trkpt lat="48.81834" lon="2.37436">
        <ele>109.5</ele>
        <time>2013-03-03T14:35:33.000Z</time>
      </trkpt>
      <trkpt lat="48.81835" lon="2.37438">
        <ele>108.7</ele>
        <time>2013-03-03T14:35:34.000Z</time>
      </trkpt>
      <trkpt lat="48.81838" lon="2.37441">
        <ele>104.2</ele>
        <time>2013-03-03T14:35:38.000Z</time>
      </trkpt>
      <trkpt lat="48.81839" lon="2.37443">
        <ele>103.3</ele>
        <time>2013-03-03T14:35:39.000Z</time>
      </trkpt>
      <trkpt lat="48.81839" lon="2.37448">
        <ele>103.9</ele>
        <time>2013-03-03T14:35:41.000Z</time>
      </trkpt>
      <trkpt lat="48.81838" lon="2.37451">
        <ele>103.9</ele>
        <time>2013-03-03T14:35:42.000Z</time>
      </trkpt>
      <trkpt lat="48.81837" lon="2.37454">
        <ele>103.5</ele>
        <time>2013-03-03T14:35:43.000Z</time>
      </trkpt>
      <trkpt lat="48.81836" lon="2.37458">
        <ele>102.9</ele>
        <time>2013-03-03T14:35:44.000Z</time>
      </trkpt>
      <trkpt lat="48.81836" lon="2.37462">
        <ele>102.7</ele>
        <time>2013-03-03T14:35:45.000Z</time>
      </trkpt>
      <trkpt lat="48.81836" lon="2.37467">
        <ele>101.5</ele>
        <time>2013-03-03T14:35:46.000Z</time>
      </trkpt>
      <trkpt lat="48.81836" lon="2.37472">
        <ele>100.9</ele>
        <time>2013-03-03T14:35:47.000Z</time>
      </trkpt>
      <trkpt lat="48.81837" lon="2.37476">
        <ele>100.4</ele>
        <time>2013-03-03T14:35:48.000Z</time>
      </trkpt>
      <trkpt lat="48.81837" lon="2.3748">
        <ele>100.6</ele>
        <time>2013-03-03T14:35:49.000Z</time>
      </trkpt>
      <trkpt lat="48.81838" lon="2.37484">
        <ele>101</ele>
        <time>2013-03-03T14:35:50.000Z</time>
      </trkpt>
      <trkpt lat="48.81838" lon="2.37489">
        <ele>101.4</ele>
        <time>2013-03-03T14:35:52.000Z</time>
      </trkpt>
      <trkpt lat="48.81838" lon="2.37492">
        <ele>100.9</ele>
        <time>2013-03-03T14:35:53.000Z</time>
      </trkpt>
      <trkpt lat="48.81836" lon="2.37496">
        <ele>100.7</ele>
        <time>2013-03-03T14:35:55.000Z</time>
      </trkpt>
      <trkpt lat="48.81835" lon="2.37498">
        <ele>100.8</ele>
        <time>2013-03-03T14:35:56.000Z</time>
      </trkpt>
      <trkpt lat="48.81833" lon="2.37501">
        <ele>100.4</ele>
        <time>2013-03-03T14:35:57.000Z</time>
      </trkpt>
      <trkpt lat="48.81831" lon="2.37504">
        <ele>99.9</ele>
        <time>2013-03-03T14:35:58.000Z</time>
      </trkpt>
      <trkpt lat="48.81829" lon="2.37507">
        <ele>104.1</ele>
        <time>2013-03-03T14:35:59.000Z</time>
      </trkpt>
      <trkpt lat="48.81827" lon="2.3751">
        <ele>101</ele>
        <time>2013-03-03T14:36:00.000Z</time>
      </trkpt>
      <trkpt lat="48.81825" lon="2.37513">
        <ele>98.9</ele>
        <time>2013-03-03T14:36:01.000Z</time>
      </trkpt>
      <trkpt lat="48.81822" lon="2.37515">
        <ele>94.9</ele>
        <time>2013-03-03T14:36:02.000Z</time>
      </trkpt>
      <trkpt lat="48.8182" lon="2.37516">
        <ele>92.9</ele>
        <time>2013-03-03T14:36:03.000Z</time>
      </trkpt>
      <trkpt lat="48.81817" lon="2.37518">
        <ele>92.7</ele>
        <time>2013-03-03T14:36:04.000Z</time>
      </trkpt>
      <trkpt lat="48.81815" lon="2.3752">
        <ele>91.5</ele>
        <time>2013-03-03T14:36:05.000Z</time>
      </trkpt>
      <trkpt lat="48.81812" lon="2.37522">
        <ele>90.5</ele>
        <time>2013-03-03T14:36:06.000Z</time>
      </trkpt>
      <trkpt lat="48.8181" lon="2.37524">
        <ele>90.1</ele>
        <time>2013-03-03T14:36:07.000Z</time>
      </trkpt>
      <trkpt lat="48.81807" lon="2.37526">
        <ele>89.2</ele>
        <time>2013-03-03T14:36:08.000Z</time>
      </trkpt>
      <trkpt lat="48.81804" lon="2.37529">
        <ele>89</ele>
        <time>2013-03-03T14:36:09.000Z</time>
      </trkpt>
      <trkpt lat="48.81802" lon="2.37531">
        <ele>89.1</ele>
        <time>2013-03-03T14:36:10.000Z</time>
      </trkpt>
      <trkpt lat="48.81799" lon="2.37533">
        <ele>88.5</ele>
        <time>2013-03-03T14:36:11.000Z</time>
      </trkpt>
      <trkpt lat="48.81797" lon="2.37535">
        <ele>95.9</ele>
        <time>2013-03-03T14:36:12.000Z</time>
      </trkpt>
      <trkpt lat="48.81794" lon="2.37537">
        <ele>92.1</ele>
        <time>2013-03-03T14:36:13.000Z</time>
      </trkpt>
      <trkpt lat="48.81792" lon="2.37539">
        <ele>89.5</ele>
        <time>2013-03-03T14:36:14.000Z</time>
      </trkpt>
      <trkpt lat="48.81789" lon="2.37542">
        <ele>84.5</ele>
        <time>2013-03-03T14:36:16.000Z</time>
      </trkpt>
      <trkpt lat="48.81787" lon="2.37544">
        <ele>83.8</ele>
        <time>2013-03-03T14:36:17.000Z</time>
      </trkpt>
      <trkpt lat="48.81784" lon="2.37548">
        <ele>84.7</ele>
        <time>2013-03-03T14:36:19.000Z</time>
      </trkpt>
      <trkpt lat="48.81783" lon="2.37549">
        <ele>84.6</ele>
        <time>2013-03-03T14:36:20.000Z</time>
      </trkpt>
      <trkpt lat="48.81782" lon="2.37555">
        <ele>87.7</ele>
        <time>2013-03-03T14:36:38.000Z</time>
      </trkpt>
      <trkpt lat="48.81781" lon="2.37556">
        <ele>87.3</ele>
        <time>2013-03-03T14:36:39.000Z</time>
      </trkpt>
      <trkpt lat="48.81781" lon="2.37561">
        <ele>87.3</ele>
        <time>2013-03-03T14:36:41.000Z</time>
      </trkpt>
      <trkpt lat="48.81782" lon="2.37565">
        <ele>87.4</ele>
        <time>2013-03-03T14:36:42.000Z</time>
      </trkpt>
      <trkpt lat="48.81783" lon="2.37569">
        <ele>86.4</ele>
        <time>2013-03-03T14:36:43.000Z</time>
      </trkpt>
      <trkpt lat="48.81785" lon="2.37572">
        <ele>88.1</ele>
        <time>2013-03-03T14:36:44.000Z</time>
      </trkpt>
      <trkpt lat="48.81786" lon="2.37576">
        <ele>88.1</ele>
        <time>2013-03-03T14:36:45.000Z</time>
      </trkpt>
      <trkpt lat="48.81788" lon="2.37579">
        <ele>87.5</ele>
        <time>2013-03-03T14:36:46.000Z</time>
      </trkpt>
      <trkpt lat="48.81791" lon="2.37585">
        <ele>88.5</ele>
        <time>2013-03-03T14:36:47.000Z</time>
      </trkpt>
      <trkpt lat="48.81793" lon="2.37591">
        <ele>88.1</ele>
        <time>2013-03-03T14:36:48.000Z</time>
      </trkpt>
      <trkpt lat="48.81795" lon="2.37597">
        <ele>88.4</ele>
        <time>2013-03-03T14:36:49.000Z</time>
      </trkpt>
      <trkpt lat="48.81797" lon="2.37603">
        <ele>88.6</ele>
        <time>2013-03-03T14:36:50.000Z</time>
      </trkpt>
      <trkpt lat="48.81799" lon="2.3761">
        <ele>89.2</ele>
        <time>2013-03-03T14:36:51.000Z</time>
      </trkpt>
      <trkpt lat="48.81802" lon="2.3762">
        <ele>89.2</ele>
        <time>2013-03-03T14:36:52.000Z</time>
      </trkpt>
      <trkpt lat="48.81804" lon="2.37625">
        <ele>89.1</ele>
        <time>2013-03-03T14:36:53.000Z</time>
      </trkpt>
      <trkpt lat="48.81807" lon="2.37632">
        <ele>88</ele>
        <time>2013-03-03T14:36:54.000Z</time>
      </trkpt>
      <trkpt lat="48.81809" lon="2.37638">
        <ele>89.5</ele>
        <time>2013-03-03T14:36:55.000Z</time>
      </trkpt>
      <trkpt lat="48.81811" lon="2.37644">
        <ele>89.2</ele>
        <time>2013-03-03T14:36:56.000Z</time>
      </trkpt>
      <trkpt lat="48.81815" lon="2.37651">
        <ele>89.7</ele>
        <time>2013-03-03T14:36:57.000Z</time>
      </trkpt>
      <trkpt lat="48.81818" lon="2.37657">
        <ele>89.5</ele>
        <time>2013-03-03T14:36:58.000Z</time>
      </trkpt>
      <trkpt lat="48.81819" lon="2.37662">
        <ele>89.1</ele>
        <time>2013-03-03T14:36:59.000Z</time>
      </trkpt>
      <trkpt lat="48.81818" lon="2.3767">
        <ele>90</ele>
        <time>2013-03-03T14:37:00.000Z</time>
      </trkpt>
      <trkpt lat="48.81815" lon="2.37677">
        <ele>89.1</ele>
        <time>2013-03-03T14:37:01.000Z</time>
      </trkpt>
      <trkpt lat="48.81814" lon="2.37683">
        <ele>89.3</ele>
        <time>2013-03-03T14:37:02.000Z</time>
      </trkpt>
      <trkpt lat="48.8181" lon="2.3769">
        <ele>89.1</ele>
        <time>2013-03-03T14:37:03.000Z</time>
      </trkpt>
      <trkpt lat="48.81804" lon="2.37694">
        <ele>88.2</ele>
        <time>2013-03-03T14:37:04.000Z</time>
      </trkpt>
      <trkpt lat="48.81798" lon="2.37698">
        <ele>87.2</ele>
        <time>2013-03-03T14:37:05.000Z</time>
      </trkpt>
      <trkpt lat="48.81793" lon="2.37704">
        <ele>85.2</ele>
        <time>2013-03-03T14:37:06.000Z</time>
      </trkpt>
      <trkpt lat="48.81787" lon="2.37709">
        <ele>84.1</ele>
        <time>2013-03-03T14:37:07.000Z</time>
      </trkpt>
      <trkpt lat="48.81781" lon="2.37716">
        <ele>83.1</ele>
        <time>2013-03-03T14:37:08.000Z</time>
      </trkpt>
      <trkpt lat="48.81775" lon="2.37722">
        <ele>84.1</ele>
        <time>2013-03-03T14:37:09.000Z</time>
      </trkpt>
      <trkpt lat="48.81769" lon="2.37727">
        <ele>84.2</ele>
        <time>2013-03-03T14:37:10.000Z</time>
      </trkpt>
      <trkpt lat="48.81763" lon="2.37731">
        <ele>83.8</ele>
        <time>2013-03-03T14:37:11.000Z</time>
      </trkpt>
      <trkpt lat="48.81759" lon="2.37735">
        <ele>82.2</ele>
        <time>2013-03-03T14:37:12.000Z</time>
      </trkpt>
      <trkpt lat="48.81755" lon="2.3774">
        <ele>81.9</ele>
        <time>2013-03-03T14:37:13.000Z</time>
      </trkpt>
      <trkpt lat="48.81748" lon="2.37745">
        <ele>80.6</ele>
        <time>2013-03-03T14:37:14.000Z</time>
      </trkpt>
      <trkpt lat="48.81742" lon="2.37751">
        <ele>84.4</ele>
        <time>2013-03-03T14:37:15.000Z</time>
      </trkpt>
      <trkpt lat="48.81737" lon="2.37756">
        <ele>82.5</ele>
        <time>2013-03-03T14:37:16.000Z</time>
      </trkpt>
      <trkpt lat="48.81731" lon="2.37761">
        <ele>81.5</ele>
        <time>2013-03-03T14:37:17.000Z</time>
      </trkpt>
      <trkpt lat="48.81725" lon="2.37766">
        <ele>81.1</ele>
        <time>2013-03-03T14:37:18.000Z</time>
      </trkpt>
      <trkpt lat="48.81719" lon="2.37773">
        <ele>81.2</ele>
        <time>2013-03-03T14:37:19.000Z</time>
      </trkpt>
      <trkpt lat="48.81714" lon="2.37778">
        <ele>80</ele>
        <time>2013-03-03T14:37:20.000Z</time>
      </trkpt>
      <trkpt lat="48.81709" lon="2.37783">
        <ele>79.9</ele>
        <time>2013-03-03T14:37:21.000Z</time>
      </trkpt>
      <trkpt lat="48.81703" lon="2.37791">
        <ele>80.3</ele>
        <time>2013-03-03T14:37:22.000Z</time>
      </trkpt>
      <trkpt lat="48.81699" lon="2.37793">
        <ele>78.4</ele>
        <time>2013-03-03T14:37:23.000Z</time>
      </trkpt>
      <trkpt lat="48.81695" lon="2.37796">
        <ele>76.3</ele>
        <time>2013-03-03T14:37:24.000Z</time>
      </trkpt>
      <trkpt lat="48.8169" lon="2.37801">
        <ele>76.7</ele>
        <time>2013-03-03T14:37:25.000Z</time>
      </trkpt>
      <trkpt lat="48.81686" lon="2.37804">
        <ele>77.2</ele>
        <time>2013-03-03T14:37:26.000Z</time>
      </trkpt>
      <trkpt lat="48.81682" lon="2.37806">
        <ele>78</ele>
        <time>2013-03-03T14:37:27.000Z</time>
      </trkpt>
      <trkpt lat="48.81679" lon="2.37808">
        <ele>78.1</ele>
        <time>2013-03-03T14:37:28.000Z</time>
      </trkpt>
      <trkpt lat="48.81679" lon="2.37817">
        <ele>77.9</ele>
        <time>2013-03-03T14:37:29.000Z</time>
      </trkpt>
      <trkpt lat="48.81678" lon="2.37826">
        <ele>77.7</ele>
        <time>2013-03-03T14:37:30.000Z</time>
      </trkpt>
      <trkpt lat="48.81678" lon="2.37833">
        <ele>77.5</ele>
        <time>2013-03-03T14:37:31.000Z</time>
      </trkpt>
      <trkpt lat="48.8168" lon="2.37837">
        <ele>76.8</ele>
        <time>2013-03-03T14:37:32.000Z</time>
      </trkpt>
      <trkpt lat="48.81681" lon="2.37842">
        <ele>76.3</ele>
        <time>2013-03-03T14:37:33.000Z</time>
      </trkpt>
      <trkpt lat="48.81682" lon="2.37847">
        <ele>77.1</ele>
        <time>2013-03-03T14:37:34.000Z</time>
      </trkpt>
      <trkpt lat="48.81684" lon="2.37853">
        <ele>76.9</ele>
        <time>2013-03-03T14:37:36.000Z</time>
      </trkpt>
      <trkpt lat="48.81684" lon="2.37856">
        <ele>77.3</ele>
        <time>2013-03-03T14:37:37.000Z</time>
      </trkpt>
      <trkpt lat="48.81687" lon="2.37856">
        <ele>79</ele>
        <time>2013-03-03T14:38:48.000Z</time>
      </trkpt>
      <trkpt lat="48.81689" lon="2.37854">
        <ele>78.2</ele>
        <time>2013-03-03T14:38:49.000Z</time>
      </trkpt>
      <trkpt lat="48.81692" lon="2.37852">
        <ele>76.4</ele>
        <time>2013-03-03T14:38:50.000Z</time>
      </trkpt>
      <trkpt lat="48.81695" lon="2.3785">
        <ele>74.9</ele>
        <time>2013-03-03T14:38:51.000Z</time>
      </trkpt>
      <trkpt lat="48.81698" lon="2.37848">
        <ele>74.1</ele>
        <time>2013-03-03T14:38:52.000Z</time>
      </trkpt>
      <trkpt lat="48.81702" lon="2.37845">
        <ele>73.2</ele>
        <time>2013-03-03T14:38:53.000Z</time>
      </trkpt>
      <trkpt lat="48.81705" lon="2.37841">
        <ele>72.8</ele>
        <time>2013-03-03T14:38:54.000Z</time>
      </trkpt>
      <trkpt lat="48.81708" lon="2.37837">
        <ele>71.4</ele>
        <time>2013-03-03T14:38:55.000Z</time>
      </trkpt>
      <trkpt lat="48.81712" lon="2.37834">
        <ele>70.6</ele>
        <time>2013-03-03T14:38:56.000Z</time>
      </trkpt>
      <trkpt lat="48.81715" lon="2.3783">
        <ele>69.1</ele>
        <time>2013-03-03T14:38:57.000Z</time>
      </trkpt>
      <trkpt lat="48.81718" lon="2.37827">
        <ele>69.4</ele>
        <time>2013-03-03T14:38:58.000Z</time>
      </trkpt>
      <trkpt lat="48.81722" lon="2.37823">
        <ele>71</ele>
        <time>2013-03-03T14:38:59.000Z</time>
      </trkpt>
      <trkpt lat="48.81725" lon="2.37819">
        <ele>71.2</ele>
        <time>2013-03-03T14:39:00.000Z</time>
      </trkpt>
      <trkpt lat="48.81728" lon="2.37815">
        <ele>71.2</ele>
        <time>2013-03-03T14:39:01.000Z</time>
      </trkpt>
      <trkpt lat="48.81731" lon="2.3781">
        <ele>72.1</ele>
        <time>2013-03-03T14:39:02.000Z</time>
      </trkpt>
      <trkpt lat="48.81734" lon="2.37807">
        <ele>72.9</ele>
        <time>2013-03-03T14:39:03.000Z</time>
      </trkpt>
      <trkpt lat="48.81738" lon="2.37805">
        <ele>73.1</ele>
        <time>2013-03-03T14:39:04.000Z</time>
      </trkpt>
      <trkpt lat="48.81741" lon="2.37803">
        <ele>71</ele>
        <time>2013-03-03T14:39:05.000Z</time>
      </trkpt>
      <trkpt lat="48.81745" lon="2.37802">
        <ele>70.9</ele>
        <time>2013-03-03T14:39:06.000Z</time>
      </trkpt>
      <trkpt lat="48.81748" lon="2.378">
        <ele>71.1</ele>
        <time>2013-03-03T14:39:07.000Z</time>
      </trkpt>
      <trkpt lat="48.81751" lon="2.37799">
        <ele>71</ele>
        <time>2013-03-03T14:39:08.000Z</time>
      </trkpt>
      <trkpt lat="48.81754" lon="2.37798">
        <ele>71.8</ele>
        <time>2013-03-03T14:39:09.000Z</time>
      </trkpt>
      <trkpt lat="48.81757" lon="2.37798">
        <ele>72</ele>
        <time>2013-03-03T14:39:10.000Z</time>
      </trkpt>
      <trkpt lat="48.8176" lon="2.37797">
        <ele>71</ele>
        <time>2013-03-03T14:39:11.000Z</time>
      </trkpt>
      <trkpt lat="48.81763" lon="2.37796">
        <ele>69.8</ele>
        <time>2013-03-03T14:39:12.000Z</time>
      </trkpt>
      <trkpt lat="48.81766" lon="2.37794">
        <ele>71.6</ele>
        <time>2013-03-03T14:39:13.000Z</time>
      </trkpt>
      <trkpt lat="48.8177" lon="2.37793">
        <ele>71.5</ele>
        <time>2013-03-03T14:39:14.000Z</time>
      </trkpt>
      <trkpt lat="48.81774" lon="2.37791">
        <ele>73.2</ele>
        <time>2013-03-03T14:39:15.000Z</time>
      </trkpt>
      <trkpt lat="48.81778" lon="2.37788">
        <ele>73.3</ele>
        <time>2013-03-03T14:39:16.000Z</time>
      </trkpt>
      <trkpt lat="48.81781" lon="2.37786">
        <ele>73</ele>
        <time>2013-03-03T14:39:17.000Z</time>
      </trkpt>
      <trkpt lat="48.81785" lon="2.37785">
        <ele>73.3</ele>
        <time>2013-03-03T14:39:18.000Z</time>
      </trkpt>
      <trkpt lat="48.81788" lon="2.37783">
        <ele>74.3</ele>
        <time>2013-03-03T14:39:19.000Z</time>
      </trkpt>
      <trkpt lat="48.8179" lon="2.37782">
        <ele>74.6</ele>
        <time>2013-03-03T14:39:20.000Z</time>
      </trkpt>
      <trkpt lat="48.81792" lon="2.3778">
        <ele>74.9</ele>
        <time>2013-03-03T14:39:21.000Z</time>
      </trkpt>
      <trkpt lat="48.81795" lon="2.37779">
        <ele>74.5</ele>
        <time>2013-03-03T14:39:22.000Z</time>
      </trkpt>
      <trkpt lat="48.81798" lon="2.37777">
        <ele>72.5</ele>
        <time>2013-03-03T14:39:23.000Z</time>
      </trkpt>
      <trkpt lat="48.81801" lon="2.37775">
        <ele>72.7</ele>
        <time>2013-03-03T14:39:24.000Z</time>
      </trkpt>
      <trkpt lat="48.81804" lon="2.37773">
        <ele>72.2</ele>
        <time>2013-03-03T14:39:25.000Z</time>
      </trkpt>
      <trkpt lat="48.81807" lon="2.37771">
        <ele>73.2</ele>
        <time>2013-03-03T14:39:26.000Z</time>
      </trkpt>
      <trkpt lat="48.8181" lon="2.37769">
        <ele>73</ele>
        <time>2013-03-03T14:39:27.000Z</time>
      </trkpt>
      <trkpt lat="48.81813" lon="2.37767">
        <ele>73.9</ele>
        <time>2013-03-03T14:39:28.000Z</time>
      </trkpt>
      <trkpt lat="48.81816" lon="2.37765">
        <ele>75.4</ele>
        <time>2013-03-03T14:39:29.000Z</time>
      </trkpt>
      <trkpt lat="48.81822" lon="2.37762">
        <ele>75.5</ele>
        <time>2013-03-03T14:39:31.242Z</time>
      </trkpt>
      <trkpt lat="48.81824" lon="2.3776">
        <ele>75.5</ele>
        <time>2013-03-03T14:39:32.000Z</time>
      </trkpt>
      <trkpt lat="48.81827" lon="2.37758">
        <ele>74.9</ele>
        <time>2013-03-03T14:39:33.000Z</time>
      </trkpt>
      <trkpt lat="48.8183" lon="2.37756">
        <ele>75.3</ele>
        <time>2013-03-03T14:39:34.000Z</time>
      </trkpt>
      <trkpt lat="48.81833" lon="2.37753">
        <ele>74</ele>
        <time>2013-03-03T14:39:35.000Z</time>
      </trkpt>
      <trkpt lat="48.81837" lon="2.3775">
        <ele>74.2</ele>
        <time>2013-03-03T14:39:36.000Z</time>
      </trkpt>
      <trkpt lat="48.8184" lon="2.37747">
        <ele>75.6</ele>
        <time>2013-03-03T14:39:37.000Z</time>
      </trkpt>
      <trkpt lat="48.81844" lon="2.37744">
        <ele>75.3</ele>
        <time>2013-03-03T14:39:38.000Z</time>
      </trkpt>
      <trkpt lat="48.81848" lon="2.37741">
        <ele>76.1</ele>
        <time>2013-03-03T14:39:39.000Z</time>
      </trkpt>
      <trkpt lat="48.81852" lon="2.37738">
        <ele>75.6</ele>
        <time>2013-03-03T14:39:40.000Z</time>
      </trkpt>
      <trkpt lat="48.81856" lon="2.37736">
        <ele>75.2</ele>
        <time>2013-03-03T14:39:41.000Z</time>
      </trkpt>
      <trkpt lat="48.8186" lon="2.37733">
        <ele>72</ele>
        <time>2013-03-03T14:39:42.000Z</time>
      </trkpt>
      <trkpt lat="48.81864" lon="2.37731">
        <ele>72</ele>
        <time>2013-03-03T14:39:43.000Z</time>
      </trkpt>
      <trkpt lat="48.81867" lon="2.37729">
        <ele>72.9</ele>
        <time>2013-03-03T14:39:44.000Z</time>
      </trkpt>
      <trkpt lat="48.81871" lon="2.37727">
        <ele>72.7</ele>
        <time>2013-03-03T14:39:45.000Z</time>
      </trkpt>
      <trkpt lat="48.81874" lon="2.37724">
        <ele>73.2</ele>
        <time>2013-03-03T14:39:46.000Z</time>
      </trkpt>
      <trkpt lat="48.81877" lon="2.37722">
        <ele>76</ele>
        <time>2013-03-03T14:39:47.000Z</time>
      </trkpt>
      <trkpt lat="48.81879" lon="2.3772">
        <ele>76.8</ele>
        <time>2013-03-03T14:39:48.000Z</time>
      </trkpt>
      <trkpt lat="48.81882" lon="2.37718">
        <ele>75.9</ele>
        <time>2013-03-03T14:39:49.000Z</time>
      </trkpt>
      <trkpt lat="48.81885" lon="2.37716">
        <ele>75.9</ele>
        <time>2013-03-03T14:39:50.000Z</time>
      </trkpt>
      <trkpt lat="48.81887" lon="2.37714">
        <ele>76.3</ele>
        <time>2013-03-03T14:39:51.000Z</time>
      </trkpt>
      <trkpt lat="48.8189" lon="2.37711">
        <ele>77.3</ele>
        <time>2013-03-03T14:39:53.000Z</time>
      </trkpt>
      <trkpt lat="48.81892" lon="2.3771">
        <ele>76.7</ele>
        <time>2013-03-03T14:39:54.000Z</time>
      </trkpt>
      <trkpt lat="48.81895" lon="2.37708">
        <ele>78.3</ele>
        <time>2013-03-03T14:39:56.000Z</time>
      </trkpt>
      <trkpt lat="48.81897" lon="2.37707">
        <ele>79.1</ele>
        <time>2013-03-03T14:39:57.000Z</time>
      </trkpt>
      <trkpt lat="48.81899" lon="2.37706">
        <ele>79.4</ele>
        <time>2013-03-03T14:39:58.000Z</time>
      </trkpt>
      <trkpt lat="48.81902" lon="2.37704">
        <ele>80.7</ele>
        <time>2013-03-03T14:39:59.000Z</time>
      </trkpt>
      <trkpt lat="48.81906" lon="2.37702">
        <ele>78.7</ele>
        <time>2013-03-03T14:40:01.000Z</time>
      </trkpt>
      <trkpt lat="48.81907" lon="2.37702">
        <ele>78</ele>
        <time>2013-03-03T14:40:02.000Z</time>
      </trkpt>
      <trkpt lat="48.81907" lon="2.37709">
        <ele>79.6</ele>
        <time>2013-03-03T14:40:37.000Z</time>
      </trkpt>
      <trkpt lat="48.81907" lon="2.3771">
        <ele>79.2</ele>
        <time>2013-03-03T14:40:38.000Z</time>
      </trkpt>
      <trkpt lat="48.81907" lon="2.37714">
        <ele>80.1</ele>
        <time>2013-03-03T14:40:41.000Z</time>
      </trkpt>
      <trkpt lat="48.81908" lon="2.37719">
        <ele>80.3</ele>
        <time>2013-03-03T14:40:42.000Z</time>
      </trkpt>
      <trkpt lat="48.81908" lon="2.37723">
        <ele>79.4</ele>
        <time>2013-03-03T14:40:43.000Z</time>
      </trkpt>
      <trkpt lat="48.81909" lon="2.37728">
        <ele>79.6</ele>
        <time>2013-03-03T14:40:44.000Z</time>
      </trkpt>
      <trkpt lat="48.81911" lon="2.37732">
        <ele>77.2</ele>
        <time>2013-03-03T14:40:46.000Z</time>
      </trkpt>
      <trkpt lat="48.81912" lon="2.37733">
        <ele>76.7</ele>
        <time>2013-03-03T14:40:47.000Z</time>
      </trkpt>
      <trkpt lat="48.81912" lon="2.37738">
        <ele>76.5</ele>
        <time>2013-03-03T14:40:49.000Z</time>
      </trkpt>
      <trkpt lat="48.81913" lon="2.37741">
        <ele>76.2</ele>
        <time>2013-03-03T14:40:50.000Z</time>
      </trkpt>
      <trkpt lat="48.81914" lon="2.37745">
        <ele>75.7</ele>
        <time>2013-03-03T14:40:51.000Z</time>
      </trkpt>
      <trkpt lat="48.81915" lon="2.37751">
        <ele>74.8</ele>
        <time>2013-03-03T14:40:52.000Z</time>
      </trkpt>
      <trkpt lat="48.81916" lon="2.37757">
        <ele>74</ele>
        <time>2013-03-03T14:40:53.000Z</time>
      </trkpt>
      <trkpt lat="48.81916" lon="2.37762">
        <ele>73.3</ele>
        <time>2013-03-03T14:40:54.000Z</time>
      </trkpt>
      <trkpt lat="48.81916" lon="2.37768">
        <ele>72.7</ele>
        <time>2013-03-03T14:40:55.000Z</time>
      </trkpt>
      <trkpt lat="48.81915" lon="2.3777">
        <ele>70.1</ele>
        <time>2013-03-03T14:40:56.000Z</time>
      </trkpt>
      <trkpt lat="48.81911" lon="2.37769">
        <ele>66.7</ele>
        <time>2013-03-03T14:41:26.000Z</time>
      </trkpt>
      <trkpt lat="48.81909" lon="2.3777">
        <ele>65.4</ele>
        <time>2013-03-03T14:41:27.000Z</time>
      </trkpt>
      <trkpt lat="48.81906" lon="2.37772">
        <ele>65.1</ele>
        <time>2013-03-03T14:41:28.000Z</time>
      </trkpt>
      <trkpt lat="48.81903" lon="2.37774">
        <ele>64.5</ele>
        <time>2013-03-03T14:41:29.000Z</time>
      </trkpt>
      <trkpt lat="48.81894" lon="2.37779">
        <ele>64.5</ele>
        <time>2013-03-03T14:41:31.543Z</time>
      </trkpt>
      <trkpt lat="48.81889" lon="2.37782">
        <ele>64.9</ele>
        <time>2013-03-03T14:41:33.000Z</time>
      </trkpt>
      <trkpt lat="48.81886" lon="2.37785">
        <ele>66</ele>
        <time>2013-03-03T14:41:34.000Z</time>
      </trkpt>
      <trkpt lat="48.81881" lon="2.37788">
        <ele>66.8</ele>
        <time>2013-03-03T14:41:35.000Z</time>
      </trkpt>
      <trkpt lat="48.81877" lon="2.37791">
        <ele>67.6</ele>
        <time>2013-03-03T14:41:36.000Z</time>
      </trkpt>
      <trkpt lat="48.81873" lon="2.37795">
        <ele>68.1</ele>
        <time>2013-03-03T14:41:37.000Z</time>
      </trkpt>
      <trkpt lat="48.81868" lon="2.37798">
        <ele>67.2</ele>
        <time>2013-03-03T14:41:38.000Z</time>
      </trkpt>
      <trkpt lat="48.81864" lon="2.37801">
        <ele>67.7</ele>
        <time>2013-03-03T14:41:39.000Z</time>
      </trkpt>
      <trkpt lat="48.81859" lon="2.37805">
        <ele>67.5</ele>
        <time>2013-03-03T14:41:40.000Z</time>
      </trkpt>
      <trkpt lat="48.81855" lon="2.37808">
        <ele>67.3</ele>
        <time>2013-03-03T14:41:41.000Z</time>
      </trkpt>
      <trkpt lat="48.81851" lon="2.37812">
        <ele>65.9</ele>
        <time>2013-03-03T14:41:42.000Z</time>
      </trkpt>
      <trkpt lat="48.81847" lon="2.37816">
        <ele>65.7</ele>
        <time>2013-03-03T14:41:43.000Z</time>
      </trkpt>
      <trkpt lat="48.81844" lon="2.37821">
        <ele>65.1</ele>
        <time>2013-03-03T14:41:44.000Z</time>
      </trkpt>
      <trkpt lat="48.8184" lon="2.37825">
        <ele>67.1</ele>
        <time>2013-03-03T14:41:45.000Z</time>
      </trkpt>
      <trkpt lat="48.81837" lon="2.3783">
        <ele>68.2</ele>
        <time>2013-03-03T14:41:46.000Z</time>
      </trkpt>
      <trkpt lat="48.81833" lon="2.37833">
        <ele>68.1</ele>
        <time>2013-03-03T14:41:47.000Z</time>
      </trkpt>
      <trkpt lat="48.81829" lon="2.37837">
        <ele>70</ele>
        <time>2013-03-03T14:41:48.000Z</time>
      </trkpt>
      <trkpt lat="48.81826" lon="2.37841">
        <ele>72.7</ele>
        <time>2013-03-03T14:41:49.000Z</time>
      </trkpt>
      <trkpt lat="48.81822" lon="2.37844">
        <ele>74.4</ele>
        <time>2013-03-03T14:41:50.000Z</time>
      </trkpt>
      <trkpt lat="48.81818" lon="2.37847">
        <ele>75</ele>
        <time>2013-03-03T14:41:51.000Z</time>
      </trkpt>
      <trkpt lat="48.81814" lon="2.37851">
        <ele>73.8</ele>
        <time>2013-03-03T14:41:52.000Z</time>
      </trkpt>
      <trkpt lat="48.8181" lon="2.37854">
        <ele>72.5</ele>
        <time>2013-03-03T14:41:53.000Z</time>
      </trkpt>
      <trkpt lat="48.81807" lon="2.37858">
        <ele>73.5</ele>
        <time>2013-03-03T14:41:54.000Z</time>
      </trkpt>
      <trkpt lat="48.81803" lon="2.37861">
        <ele>74</ele>
        <time>2013-03-03T14:41:55.000Z</time>
      </trkpt>
      <trkpt lat="48.818" lon="2.37865">
        <ele>74.8</ele>
        <time>2013-03-03T14:41:56.000Z</time>
      </trkpt>
      <trkpt lat="48.81796" lon="2.37868">
        <ele>75.4</ele>
        <time>2013-03-03T14:41:57.000Z</time>
      </trkpt>
      <trkpt lat="48.81793" lon="2.37871">
        <ele>74.3</ele>
        <time>2013-03-03T14:41:58.000Z</time>
      </trkpt>
      <trkpt lat="48.81789" lon="2.37874">
        <ele>74.9</ele>
        <time>2013-03-03T14:41:59.000Z</time>
      </trkpt>
      <trkpt lat="48.81785" lon="2.37878">
        <ele>75.7</ele>
        <time>2013-03-03T14:42:00.000Z</time>
      </trkpt>
      <trkpt lat="48.81782" lon="2.37881">
        <ele>74.5</ele>
        <time>2013-03-03T14:42:01.000Z</time>
      </trkpt>
      <trkpt lat="48.81779" lon="2.37885">
        <ele>74.1</ele>
        <time>2013-03-03T14:42:02.000Z</time>
      </trkpt>
      <trkpt lat="48.81777" lon="2.3789">
        <ele>73.6</ele>
        <time>2013-03-03T14:42:03.000Z</time>
      </trkpt>
      <trkpt lat="48.81776" lon="2.37894">
        <ele>72.5</ele>
        <time>2013-03-03T14:42:04.000Z</time>
      </trkpt>
      <trkpt lat="48.81777" lon="2.37899">
        <ele>71.4</ele>
        <time>2013-03-03T14:42:05.000Z</time>
      </trkpt>
      <trkpt lat="48.81777" lon="2.37903">
        <ele>70.9</ele>
        <time>2013-03-03T14:42:06.000Z</time>
      </trkpt>
      <trkpt lat="48.81779" lon="2.37907">
        <ele>69.9</ele>
        <time>2013-03-03T14:42:07.000Z</time>
      </trkpt>
      <trkpt lat="48.81781" lon="2.3791">
        <ele>70.1</ele>
        <time>2013-03-03T14:42:08.000Z</time>
      </trkpt>
      <trkpt lat="48.81783" lon="2.37914">
        <ele>70.4</ele>
        <time>2013-03-03T14:42:09.000Z</time>
      </trkpt>
      <trkpt lat="48.81785" lon="2.37918">
        <ele>71</ele>
        <time>2013-03-03T14:42:10.000Z</time>
      </trkpt>
      <trkpt lat="48.81787" lon="2.37921">
        <ele>71.8</ele>
        <time>2013-03-03T14:42:11.000Z</time>
      </trkpt>
      <trkpt lat="48.81788" lon="2.37925">
        <ele>71.3</ele>
        <time>2013-03-03T14:42:12.000Z</time>
      </trkpt>
      <trkpt lat="48.8179" lon="2.37929">
        <ele>72.1</ele>
        <time>2013-03-03T14:42:13.000Z</time>
      </trkpt>
      <trkpt lat="48.81791" lon="2.37933">
        <ele>71.5</ele>
        <time>2013-03-03T14:42:14.000Z</time>
      </trkpt>
      <trkpt lat="48.81792" lon="2.37937">
        <ele>71.4</ele>
        <time>2013-03-03T14:42:15.000Z</time>
      </trkpt>
      <trkpt lat="48.81793" lon="2.37942">
        <ele>70.7</ele>
        <time>2013-03-03T14:42:16.000Z</time>
      </trkpt>
      <trkpt lat="48.81795" lon="2.37946">
        <ele>69.5</ele>
        <time>2013-03-03T14:42:17.000Z</time>
      </trkpt>
      <trkpt lat="48.81796" lon="2.37951">
        <ele>69.3</ele>
        <time>2013-03-03T14:42:18.000Z</time>
      </trkpt>
      <trkpt lat="48.81798" lon="2.37955">
        <ele>69.3</ele>
        <time>2013-03-03T14:42:19.000Z</time>
      </trkpt>
      <trkpt lat="48.818" lon="2.3796">
        <ele>70.8</ele>
        <time>2013-03-03T14:42:20.000Z</time>
      </trkpt>
      <trkpt lat="48.81803" lon="2.37964">
        <ele>70</ele>
        <time>2013-03-03T14:42:21.000Z</time>
      </trkpt>
      <trkpt lat="48.81805" lon="2.37969">
        <ele>71.1</ele>
        <time>2013-03-03T14:42:22.000Z</time>
      </trkpt>
      <trkpt lat="48.81808" lon="2.37973">
        <ele>71.7</ele>
        <time>2013-03-03T14:42:23.000Z</time>
      </trkpt>
      <trkpt lat="48.81811" lon="2.37977">
        <ele>73.9</ele>
        <time>2013-03-03T14:42:24.000Z</time>
      </trkpt>
      <trkpt lat="48.81813" lon="2.37981">
        <ele>74.4</ele>
        <time>2013-03-03T14:42:25.000Z</time>
      </trkpt>
      <trkpt lat="48.81816" lon="2.37985">
        <ele>74.4</ele>
        <time>2013-03-03T14:42:26.000Z</time>
      </trkpt>
      <trkpt lat="48.81818" lon="2.37989">
        <ele>72.9</ele>
        <time>2013-03-03T14:42:27.000Z</time>
      </trkpt>
      <trkpt lat="48.81819" lon="2.37993">
        <ele>73.2</ele>
        <time>2013-03-03T14:42:28.000Z</time>
      </trkpt>
      <trkpt lat="48.81816" lon="2.37996">
        <ele>75</ele>
        <time>2013-03-03T14:42:33.000Z</time>
      </trkpt>
      <trkpt lat="48.81814" lon="2.37998">
        <ele>75.5</ele>
        <time>2013-03-03T14:42:34.000Z</time>
      </trkpt>
      <trkpt lat="48.8181" lon="2.38001">
        <ele>74.9</ele>
        <time>2013-03-03T14:42:35.000Z</time>
      </trkpt>
      <trkpt lat="48.81807" lon="2.38004">
        <ele>75.2</ele>
        <time>2013-03-03T14:42:36.000Z</time>
      </trkpt>
      <trkpt lat="48.81803" lon="2.38008">
        <ele>75</ele>
        <time>2013-03-03T14:42:37.000Z</time>
      </trkpt>
      <trkpt lat="48.81799" lon="2.38011">
        <ele>73.4</ele>
        <time>2013-03-03T14:42:38.000Z</time>
      </trkpt>
      <trkpt lat="48.81796" lon="2.38015">
        <ele>72.3</ele>
        <time>2013-03-03T14:42:39.000Z</time>
      </trkpt>
      <trkpt lat="48.81792" lon="2.38018">
        <ele>71</ele>
        <time>2013-03-03T14:42:40.000Z</time>
      </trkpt>
      <trkpt lat="48.81789" lon="2.38022">
        <ele>71</ele>
        <time>2013-03-03T14:42:41.000Z</time>
      </trkpt>
      <trkpt lat="48.81786" lon="2.38026">
        <ele>70.7</ele>
        <time>2013-03-03T14:42:42.000Z</time>
      </trkpt>
      <trkpt lat="48.81784" lon="2.38031">
        <ele>70</ele>
        <time>2013-03-03T14:42:43.000Z</time>
      </trkpt>
      <trkpt lat="48.81781" lon="2.38036">
        <ele>68.4</ele>
        <time>2013-03-03T14:42:44.000Z</time>
      </trkpt>
      <trkpt lat="48.81779" lon="2.38041">
        <ele>68.1</ele>
        <time>2013-03-03T14:42:45.000Z</time>
      </trkpt>
      <trkpt lat="48.81776" lon="2.38045">
        <ele>68.2</ele>
        <time>2013-03-03T14:42:46.000Z</time>
      </trkpt>
      <trkpt lat="48.81773" lon="2.3805">
        <ele>68.7</ele>
        <time>2013-03-03T14:42:47.000Z</time>
      </trkpt>
      <trkpt lat="48.8177" lon="2.38054">
        <ele>69.1</ele>
        <time>2013-03-03T14:42:48.000Z</time>
      </trkpt>
      <trkpt lat="48.81767" lon="2.38058">
        <ele>66.9</ele>
        <time>2013-03-03T14:42:49.000Z</time>
      </trkpt>
      <trkpt lat="48.81765" lon="2.38061">
        <ele>65.6</ele>
        <time>2013-03-03T14:42:50.000Z</time>
      </trkpt>
      <trkpt lat="48.81763" lon="2.38065">
        <ele>65.9</ele>
        <time>2013-03-03T14:42:51.000Z</time>
      </trkpt>
      <trkpt lat="48.8176" lon="2.3807">
        <ele>66.9</ele>
        <time>2013-03-03T14:42:52.000Z</time>
      </trkpt>
      <trkpt lat="48.81758" lon="2.38074">
        <ele>67.1</ele>
        <time>2013-03-03T14:42:53.000Z</time>
      </trkpt>
      <trkpt lat="48.81756" lon="2.38078">
        <ele>67.7</ele>
        <time>2013-03-03T14:42:54.000Z</time>
      </trkpt>
      <trkpt lat="48.81754" lon="2.38082">
        <ele>70.1</ele>
        <time>2013-03-03T14:42:55.000Z</time>
      </trkpt>
      <trkpt lat="48.81751" lon="2.38086">
        <ele>72.6</ele>
        <time>2013-03-03T14:42:56.000Z</time>
      </trkpt>
      <trkpt lat="48.8175" lon="2.38088">
        <ele>73.3</ele>
        <time>2013-03-03T14:42:57.000Z</time>
      </trkpt>
      <trkpt lat="48.81749" lon="2.38092">
        <ele>74.1</ele>
        <time>2013-03-03T14:42:58.000Z</time>
      </trkpt>
      <trkpt lat="48.81748" lon="2.38095">
        <ele>74.5</ele>
        <time>2013-03-03T14:42:59.000Z</time>
      </trkpt>
      <trkpt lat="48.81749" lon="2.38099">
        <ele>74</ele>
        <time>2013-03-03T14:43:00.000Z</time>
      </trkpt>
      <trkpt lat="48.8175" lon="2.38103">
        <ele>73.8</ele>
        <time>2013-03-03T14:43:01.000Z</time>
      </trkpt>
      <trkpt lat="48.81751" lon="2.38107">
        <ele>74.7</ele>
        <time>2013-03-03T14:43:02.000Z</time>
      </trkpt>
      <trkpt lat="48.81752" lon="2.38111">
        <ele>73.4</ele>
        <time>2013-03-03T14:43:03.000Z</time>
      </trkpt>
      <trkpt lat="48.81753" lon="2.38115">
        <ele>72.1</ele>
        <time>2013-03-03T14:43:04.000Z</time>
      </trkpt>
      <trkpt lat="48.81754" lon="2.38119">
        <ele>72.5</ele>
        <time>2013-03-03T14:43:05.000Z</time>
      </trkpt>
      <trkpt lat="48.81756" lon="2.38123">
        <ele>73.1</ele>
        <time>2013-03-03T14:43:06.000Z</time>
      </trkpt>
      <trkpt lat="48.81757" lon="2.38126">
        <ele>72.8</ele>
        <time>2013-03-03T14:43:07.000Z</time>
      </trkpt>
      <trkpt lat="48.81758" lon="2.3813">
        <ele>72.4</ele>
        <time>2013-03-03T14:43:08.000Z</time>
      </trkpt>
      <trkpt lat="48.81759" lon="2.38134">
        <ele>73</ele>
        <time>2013-03-03T14:43:09.000Z</time>
      </trkpt>
      <trkpt lat="48.8176" lon="2.38138">
        <ele>72.3</ele>
        <time>2013-03-03T14:43:10.000Z</time>
      </trkpt>
      <trkpt lat="48.81762" lon="2.38141">
        <ele>71.6</ele>
        <time>2013-03-03T14:43:11.000Z</time>
      </trkpt>
      <trkpt lat="48.81763" lon="2.38145">
        <ele>71.6</ele>
        <time>2013-03-03T14:43:12.000Z</time>
      </trkpt>
      <trkpt lat="48.81766" lon="2.3815">
        <ele>71</ele>
        <time>2013-03-03T14:43:15.000Z</time>
      </trkpt>
      <trkpt lat="48.81766" lon="2.3815">
        <ele>71.1</ele>
        <time>2013-03-03T14:43:16.000Z</time>
      </trkpt>
      <trkpt lat="48.81765" lon="2.38156">
        <ele>72.6</ele>
        <time>2013-03-03T14:43:58.000Z</time>
      </trkpt>
      <trkpt lat="48.81765" lon="2.38158">
        <ele>69.5</ele>
        <time>2013-03-03T14:43:59.000Z</time>
      </trkpt>
      <trkpt lat="48.81768" lon="2.38162">
        <ele>68.9</ele>
        <time>2013-03-03T14:44:01.000Z</time>
      </trkpt>
      <trkpt lat="48.8177" lon="2.38166">
        <ele>66.8</ele>
        <time>2013-03-03T14:44:02.000Z</time>
      </trkpt>
      <trkpt lat="48.81772" lon="2.3817">
        <ele>67.5</ele>
        <time>2013-03-03T14:44:03.000Z</time>
      </trkpt>
      <trkpt lat="48.81774" lon="2.38174">
        <ele>67.8</ele>
        <time>2013-03-03T14:44:04.000Z</time>
      </trkpt>
      <trkpt lat="48.81777" lon="2.38179">
        <ele>66.4</ele>
        <time>2013-03-03T14:44:05.000Z</time>
      </trkpt>
      <trkpt lat="48.81778" lon="2.38183">
        <ele>67.1</ele>
        <time>2013-03-03T14:44:06.000Z</time>
      </trkpt>
      <trkpt lat="48.81781" lon="2.38187">
        <ele>66.6</ele>
        <time>2013-03-03T14:44:07.000Z</time>
      </trkpt>
      <trkpt lat="48.81783" lon="2.38192">
        <ele>67.2</ele>
        <time>2013-03-03T14:44:08.000Z</time>
      </trkpt>
      <trkpt lat="48.81785" lon="2.38196">
        <ele>66</ele>
        <time>2013-03-03T14:44:09.000Z</time>
      </trkpt>
      <trkpt lat="48.81787" lon="2.382">
        <ele>65.9</ele>
        <time>2013-03-03T14:44:10.000Z</time>
      </trkpt>
      <trkpt lat="48.81789" lon="2.38204">
        <ele>65</ele>
        <time>2013-03-03T14:44:11.000Z</time>
      </trkpt>
      <trkpt lat="48.8179" lon="2.38208">
        <ele>63.6</ele>
        <time>2013-03-03T14:44:12.000Z</time>
      </trkpt>
      <trkpt lat="48.81792" lon="2.38211">
        <ele>61.7</ele>
        <time>2013-03-03T14:44:13.000Z</time>
      </trkpt>
      <trkpt lat="48.81793" lon="2.38216">
        <ele>64.2</ele>
        <time>2013-03-03T14:44:14.000Z</time>
      </trkpt>
      <trkpt lat="48.81794" lon="2.3822">
        <ele>65.7</ele>
        <time>2013-03-03T14:44:15.000Z</time>
      </trkpt>
      <trkpt lat="48.81795" lon="2.38224">
        <ele>66.7</ele>
        <time>2013-03-03T14:44:16.000Z</time>
      </trkpt>
      <trkpt lat="48.81797" lon="2.38227">
        <ele>67.2</ele>
        <time>2013-03-03T14:44:17.000Z</time>
      </trkpt>
      <trkpt lat="48.81797" lon="2.3823">
        <ele>68</ele>
        <time>2013-03-03T14:44:18.000Z</time>
      </trkpt>
      <trkpt lat="48.81799" lon="2.38235">
        <ele>68.1</ele>
        <time>2013-03-03T14:44:20.000Z</time>
      </trkpt>
      <trkpt lat="48.81801" lon="2.38238">
        <ele>68.4</ele>
        <time>2013-03-03T14:44:21.000Z</time>
      </trkpt>
      <trkpt lat="48.81802" lon="2.38241">
        <ele>67.9</ele>
        <time>2013-03-03T14:44:22.000Z</time>
      </trkpt>
      <trkpt lat="48.81804" lon="2.38244">
        <ele>67</ele>
        <time>2013-03-03T14:44:23.000Z</time>
      </trkpt>
      <trkpt lat="48.81805" lon="2.38248">
        <ele>66</ele>
        <time>2013-03-03T14:44:24.000Z</time>
      </trkpt>
      <trkpt lat="48.81807" lon="2.38252">
        <ele>65.3</ele>
        <time>2013-03-03T14:44:25.000Z</time>
      </trkpt>
      <trkpt lat="48.81809" lon="2.38256">
        <ele>64.8</ele>
        <time>2013-03-03T14:44:26.000Z</time>
      </trkpt>
      <trkpt lat="48.8181" lon="2.38262">
        <ele>65.6</ele>
        <time>2013-03-03T14:44:27.000Z</time>
      </trkpt>
      <trkpt lat="48.8181" lon="2.38269">
        <ele>66.2</ele>
        <time>2013-03-03T14:44:28.000Z</time>
      </trkpt>
      <trkpt lat="48.81811" lon="2.38276">
        <ele>67.1</ele>
        <time>2013-03-03T14:44:29.000Z</time>
      </trkpt>
      <trkpt lat="48.81813" lon="2.38283">
        <ele>68.1</ele>
        <time>2013-03-03T14:44:30.000Z</time>
      </trkpt>
      <trkpt lat="48.81816" lon="2.3829">
        <ele>68</ele>
        <time>2013-03-03T14:44:31.000Z</time>
      </trkpt>
      <trkpt lat="48.81824" lon="2.38303">
        <ele>69.2</ele>
        <time>2013-03-03T14:44:32.000Z</time>
      </trkpt>
      <trkpt lat="48.81827" lon="2.38306">
        <ele>70.5</ele>
        <time>2013-03-03T14:44:33.000Z</time>
      </trkpt>
      <trkpt lat="48.81831" lon="2.38312">
        <ele>71.1</ele>
        <time>2013-03-03T14:44:34.000Z</time>
      </trkpt>
      <trkpt lat="48.81834" lon="2.38316">
        <ele>71.3</ele>
        <time>2013-03-03T14:44:35.000Z</time>
      </trkpt>
      <trkpt lat="48.81837" lon="2.3832">
        <ele>71.1</ele>
        <time>2013-03-03T14:44:36.000Z</time>
      </trkpt>
      <trkpt lat="48.81839" lon="2.38325">
        <ele>70.7</ele>
        <time>2013-03-03T14:44:37.000Z</time>
      </trkpt>
      <trkpt lat="48.81841" lon="2.38331">
        <ele>70.4</ele>
        <time>2013-03-03T14:44:38.000Z</time>
      </trkpt>
      <trkpt lat="48.81842" lon="2.38337">
        <ele>71.1</ele>
        <time>2013-03-03T14:44:39.000Z</time>
      </trkpt>
      <trkpt lat="48.81844" lon="2.38343">
        <ele>71.1</ele>
        <time>2013-03-03T14:44:40.000Z</time>
      </trkpt>
      <trkpt lat="48.81846" lon="2.38348">
        <ele>73</ele>
        <time>2013-03-03T14:44:41.000Z</time>
      </trkpt>
      <trkpt lat="48.81847" lon="2.38355">
        <ele>75.4</ele>
        <time>2013-03-03T14:44:42.000Z</time>
      </trkpt>
      <trkpt lat="48.81849" lon="2.3836">
        <ele>77.2</ele>
        <time>2013-03-03T14:44:43.000Z</time>
      </trkpt>
      <trkpt lat="48.81852" lon="2.38366">
        <ele>78</ele>
        <time>2013-03-03T14:44:44.000Z</time>
      </trkpt>
      <trkpt lat="48.81854" lon="2.38372">
        <ele>77.9</ele>
        <time>2013-03-03T14:44:45.000Z</time>
      </trkpt>
      <trkpt lat="48.81856" lon="2.38378">
        <ele>76.9</ele>
        <time>2013-03-03T14:44:46.000Z</time>
      </trkpt>
      <trkpt lat="48.81859" lon="2.38384">
        <ele>76.8</ele>
        <time>2013-03-03T14:44:47.000Z</time>
      </trkpt>
      <trkpt lat="48.81861" lon="2.38392">
        <ele>77.4</ele>
        <time>2013-03-03T14:44:48.000Z</time>
      </trkpt>
      <trkpt lat="48.81863" lon="2.38397">
        <ele>75.6</ele>
        <time>2013-03-03T14:44:49.000Z</time>
      </trkpt>
      <trkpt lat="48.81866" lon="2.38402">
        <ele>75.3</ele>
        <time>2013-03-03T14:44:50.000Z</time>
      </trkpt>
      <trkpt lat="48.81869" lon="2.38409">
        <ele>74.4</ele>
        <time>2013-03-03T14:44:51.000Z</time>
      </trkpt>
      <trkpt lat="48.81873" lon="2.38414">
        <ele>75</ele>
        <time>2013-03-03T14:44:52.000Z</time>
      </trkpt>
      <trkpt lat="48.81877" lon="2.38418">
        <ele>73.4</ele>
        <time>2013-03-03T14:44:53.000Z</time>
      </trkpt>
      <trkpt lat="48.8188" lon="2.38422">
        <ele>73.1</ele>
        <time>2013-03-03T14:44:54.000Z</time>
      </trkpt>
      <trkpt lat="48.81884" lon="2.38426">
        <ele>73.9</ele>
        <time>2013-03-03T14:44:55.000Z</time>
      </trkpt>
      <trkpt lat="48.81888" lon="2.3843">
        <ele>74.4</ele>
        <time>2013-03-03T14:44:56.000Z</time>
      </trkpt>
      <trkpt lat="48.81891" lon="2.38434">
        <ele>74.4</ele>
        <time>2013-03-03T14:44:57.000Z</time>
      </trkpt>
      <trkpt lat="48.81896" lon="2.38439">
        <ele>75.5</ele>
        <time>2013-03-03T14:44:58.000Z</time>
      </trkpt>
      <trkpt lat="48.81899" lon="2.38444">
        <ele>76.5</ele>
        <time>2013-03-03T14:44:59.000Z</time>
      </trkpt>
      <trkpt lat="48.81901" lon="2.3845">
        <ele>77</ele>
        <time>2013-03-03T14:45:00.000Z</time>
      </trkpt>
      <trkpt lat="48.81904" lon="2.38455">
        <ele>77.3</ele>
        <time>2013-03-03T14:45:01.000Z</time>
      </trkpt>
      <trkpt lat="48.81906" lon="2.38461">
        <ele>77.2</ele>
        <time>2013-03-03T14:45:02.000Z</time>
      </trkpt>
      <trkpt lat="48.81908" lon="2.38465">
        <ele>77.5</ele>
        <time>2013-03-03T14:45:03.000Z</time>
      </trkpt>
      <trkpt lat="48.8191" lon="2.38471">
        <ele>77.8</ele>
        <time>2013-03-03T14:45:04.000Z</time>
      </trkpt>
      <trkpt lat="48.81912" lon="2.38476">
        <ele>77</ele>
        <time>2013-03-03T14:45:05.000Z</time>
      </trkpt>
      <trkpt lat="48.81914" lon="2.38481">
        <ele>77</ele>
        <time>2013-03-03T14:45:06.000Z</time>
      </trkpt>
      <trkpt lat="48.81917" lon="2.38486">
        <ele>77.2</ele>
        <time>2013-03-03T14:45:07.000Z</time>
      </trkpt>
      <trkpt lat="48.8192" lon="2.38491">
        <ele>77.5</ele>
        <time>2013-03-03T14:45:08.000Z</time>
      </trkpt>
      <trkpt lat="48.81922" lon="2.38496">
        <ele>77.6</ele>
        <time>2013-03-03T14:45:09.000Z</time>
      </trkpt>
      <trkpt lat="48.81924" lon="2.38501">
        <ele>77.9</ele>
        <time>2013-03-03T14:45:10.000Z</time>
      </trkpt>
      <trkpt lat="48.81926" lon="2.38506">
        <ele>78.4</ele>
        <time>2013-03-03T14:45:11.000Z</time>
      </trkpt>
      <trkpt lat="48.81928" lon="2.3851">
        <ele>78.7</ele>
        <time>2013-03-03T14:45:12.000Z</time>
      </trkpt>
      <trkpt lat="48.8193" lon="2.38515">
        <ele>80</ele>
        <time>2013-03-03T14:45:13.000Z</time>
      </trkpt>
      <trkpt lat="48.81932" lon="2.3852">
        <ele>80.3</ele>
        <time>2013-03-03T14:45:14.000Z</time>
      </trkpt>
      <trkpt lat="48.81934" lon="2.38525">
        <ele>80.6</ele>
        <time>2013-03-03T14:45:15.000Z</time>
      </trkpt>
      <trkpt lat="48.81936" lon="2.38529">
        <ele>81.8</ele>
        <time>2013-03-03T14:45:16.000Z</time>
      </trkpt>
      <trkpt lat="48.81938" lon="2.38534">
        <ele>83.1</ele>
        <time>2013-03-03T14:45:17.000Z</time>
      </trkpt>
      <trkpt lat="48.8194" lon="2.38539">
        <ele>82.7</ele>
        <time>2013-03-03T14:45:18.000Z</time>
      </trkpt>
      <trkpt lat="48.81942" lon="2.38543">
        <ele>82.4</ele>
        <time>2013-03-03T14:45:19.000Z</time>
      </trkpt>
      <trkpt lat="48.81944" lon="2.38548">
        <ele>81.6</ele>
        <time>2013-03-03T14:45:20.000Z</time>
      </trkpt>
      <trkpt lat="48.81945" lon="2.38552">
        <ele>82</ele>
        <time>2013-03-03T14:45:21.000Z</time>
      </trkpt>
      <trkpt lat="48.81947" lon="2.38557">
        <ele>81.3</ele>
        <time>2013-03-03T14:45:22.000Z</time>
      </trkpt>
      <trkpt lat="48.81949" lon="2.38561">
        <ele>81.7</ele>
        <time>2013-03-03T14:45:23.000Z</time>
      </trkpt>
      <trkpt lat="48.8195" lon="2.38565">
        <ele>81.8</ele>
        <time>2013-03-03T14:45:24.000Z</time>
      </trkpt>
      <trkpt lat="48.81952" lon="2.38569">
        <ele>81.4</ele>
        <time>2013-03-03T14:45:25.000Z</time>
      </trkpt>
      <trkpt lat="48.81953" lon="2.38573">
        <ele>81.6</ele>
        <time>2013-03-03T14:45:26.000Z</time>
      </trkpt>
      <trkpt lat="48.81955" lon="2.38577">
        <ele>81.6</ele>
        <time>2013-03-03T14:45:27.000Z</time>
      </trkpt>
      <trkpt lat="48.81956" lon="2.38581">
        <ele>81.2</ele>
        <time>2013-03-03T14:45:28.000Z</time>
      </trkpt>
      <trkpt lat="48.81958" lon="2.38584">
        <ele>81.1</ele>
        <time>2013-03-03T14:45:29.000Z</time>
      </trkpt>
      <trkpt lat="48.81959" lon="2.38587">
        <ele>80.9</ele>
        <time>2013-03-03T14:45:30.000Z</time>
      </trkpt>
      <trkpt lat="48.81962" lon="2.3859">
        <ele>79.4</ele>
        <time>2013-03-03T14:45:32.000Z</time>
      </trkpt>
      <trkpt lat="48.81964" lon="2.38591">
        <ele>78.9</ele>
        <time>2013-03-03T14:45:33.000Z</time>
      </trkpt>
      <trkpt lat="48.81966" lon="2.38596">
        <ele>78.1</ele>
        <time>2013-03-03T14:45:37.000Z</time>
      </trkpt>
      <trkpt lat="48.81967" lon="2.38597">
        <ele>78</ele>
        <time>2013-03-03T14:45:38.000Z</time>
      </trkpt>
      <trkpt lat="48.81971" lon="2.38599">
        <ele>75.8</ele>
        <time>2013-03-03T14:46:00.000Z</time>
      </trkpt>
      <trkpt lat="48.81971" lon="2.38599">
        <ele>75.9</ele>
        <time>2013-03-03T14:46:01.000Z</time>
      </trkpt>
      <trkpt lat="48.81973" lon="2.38602">
        <ele>74.3</ele>
        <time>2013-03-03T14:46:53.000Z</time>
      </trkpt>
      <trkpt lat="48.81975" lon="2.38605">
        <ele>75</ele>
        <time>2013-03-03T14:46:54.000Z</time>
      </trkpt>
      <trkpt lat="48.81977" lon="2.3861">
        <ele>75.9</ele>
        <time>2013-03-03T14:46:56.000Z</time>
      </trkpt>
      <trkpt lat="48.81977" lon="2.38611">
        <ele>76</ele>
        <time>2013-03-03T14:46:57.000Z</time>
      </trkpt>
      <trkpt lat="48.81979" lon="2.38615">
        <ele>76.8</ele>
        <time>2013-03-03T14:46:58.000Z</time>
      </trkpt>
      <trkpt lat="48.8198" lon="2.38617">
        <ele>77.3</ele>
        <time>2013-03-03T14:46:59.000Z</time>
      </trkpt>
      <trkpt lat="48.81982" lon="2.38621">
        <ele>76.4</ele>
        <time>2013-03-03T14:47:00.000Z</time>
      </trkpt>
      <trkpt lat="48.81983" lon="2.38623">
        <ele>76.4</ele>
        <time>2013-03-03T14:47:01.000Z</time>
      </trkpt>
      <trkpt lat="48.81985" lon="2.38627">
        <ele>75.5</ele>
        <time>2013-03-03T14:47:02.000Z</time>
      </trkpt>
      <trkpt lat="48.81986" lon="2.38631">
        <ele>75.3</ele>
        <time>2013-03-03T14:47:03.000Z</time>
      </trkpt>
      <trkpt lat="48.81987" lon="2.38634">
        <ele>75.8</ele>
        <time>2013-03-03T14:47:04.000Z</time>
      </trkpt>
      <trkpt lat="48.81989" lon="2.38638">
        <ele>75.5</ele>
        <time>2013-03-03T14:47:05.000Z</time>
      </trkpt>
      <trkpt lat="48.8199" lon="2.38642">
        <ele>75.9</ele>
        <time>2013-03-03T14:47:06.000Z</time>
      </trkpt>
      <trkpt lat="48.81992" lon="2.38647">
        <ele>77.1</ele>
        <time>2013-03-03T14:47:07.000Z</time>
      </trkpt>
      <trkpt lat="48.81994" lon="2.38651">
        <ele>77.4</ele>
        <time>2013-03-03T14:47:08.000Z</time>
      </trkpt>
      <trkpt lat="48.81995" lon="2.38655">
        <ele>77.5</ele>
        <time>2013-03-03T14:47:09.000Z</time>
      </trkpt>
      <trkpt lat="48.81997" lon="2.3866">
        <ele>77.7</ele>
        <time>2013-03-03T14:47:10.000Z</time>
      </trkpt>
      <trkpt lat="48.81999" lon="2.38663">
        <ele>77.6</ele>
        <time>2013-03-03T14:47:11.000Z</time>
      </trkpt>
      <trkpt lat="48.82001" lon="2.38668">
        <ele>78</ele>
        <time>2013-03-03T14:47:12.000Z</time>
      </trkpt>
      <trkpt lat="48.82003" lon="2.38671">
        <ele>78</ele>
        <time>2013-03-03T14:47:13.000Z</time>
      </trkpt>
      <trkpt lat="48.82005" lon="2.38676">
        <ele>78.3</ele>
        <time>2013-03-03T14:47:14.000Z</time>
      </trkpt>
      <trkpt lat="48.82007" lon="2.38679">
        <ele>78.2</ele>
        <time>2013-03-03T14:47:15.000Z</time>
      </trkpt>
      <trkpt lat="48.82009" lon="2.38683">
        <ele>77.9</ele>
        <time>2013-03-03T14:47:16.000Z</time>
      </trkpt>
      <trkpt lat="48.82011" lon="2.38687">
        <ele>77.7</ele>
        <time>2013-03-03T14:47:17.000Z</time>
      </trkpt>
      <trkpt lat="48.82013" lon="2.38691">
        <ele>77.6</ele>
        <time>2013-03-03T14:47:18.000Z</time>
      </trkpt>
      <trkpt lat="48.82014" lon="2.38695">
        <ele>77.4</ele>
        <time>2013-03-03T14:47:19.000Z</time>
      </trkpt>
      <trkpt lat="48.82016" lon="2.38699">
        <ele>78</ele>
        <time>2013-03-03T14:47:20.000Z</time>
      </trkpt>
      <trkpt lat="48.82018" lon="2.38703">
        <ele>78.3</ele>
        <time>2013-03-03T14:47:21.000Z</time>
      </trkpt>
      <trkpt lat="48.82019" lon="2.38707">
        <ele>78.9</ele>
        <time>2013-03-03T14:47:22.000Z</time>
      </trkpt>
      <trkpt lat="48.82021" lon="2.38712">
        <ele>79</ele>
        <time>2013-03-03T14:47:23.000Z</time>
      </trkpt>
      <trkpt lat="48.82022" lon="2.38716">
        <ele>79</ele>
        <time>2013-03-03T14:47:24.000Z</time>
      </trkpt>
      <trkpt lat="48.82024" lon="2.38719">
        <ele>79</ele>
        <time>2013-03-03T14:47:25.000Z</time>
      </trkpt>
      <trkpt lat="48.82026" lon="2.38724">
        <ele>78.7</ele>
        <time>2013-03-03T14:47:26.000Z</time>
      </trkpt>
      <trkpt lat="48.82027" lon="2.38727">
        <ele>78.5</ele>
        <time>2013-03-03T14:47:27.000Z</time>
      </trkpt>
      <trkpt lat="48.82029" lon="2.38731">
        <ele>78.5</ele>
        <time>2013-03-03T14:47:28.000Z</time>
      </trkpt>
      <trkpt lat="48.82031" lon="2.38735">
        <ele>78.5</ele>
        <time>2013-03-03T14:47:29.000Z</time>
      </trkpt>
      <trkpt lat="48.82036" lon="2.38748">
        <ele>77.3</ele>
        <time>2013-03-03T14:47:31.269Z</time>
      </trkpt>
      <trkpt lat="48.82038" lon="2.38752">
        <ele>76.5</ele>
        <time>2013-03-03T14:47:32.000Z</time>
      </trkpt>
      <trkpt lat="48.8204" lon="2.38757">
        <ele>76.6</ele>
        <time>2013-03-03T14:47:33.000Z</time>
      </trkpt>
      <trkpt lat="48.82042" lon="2.38762">
        <ele>76.7</ele>
        <time>2013-03-03T14:47:34.000Z</time>
      </trkpt>
      <trkpt lat="48.82044" lon="2.38766">
        <ele>76.4</ele>
        <time>2013-03-03T14:47:35.000Z</time>
      </trkpt>
      <trkpt lat="48.82046" lon="2.38771">
        <ele>76.3</ele>
        <time>2013-03-03T14:47:36.000Z</time>
      </trkpt>
      <trkpt lat="48.82048" lon="2.38775">
        <ele>75.3</ele>
        <time>2013-03-03T14:47:37.000Z</time>
      </trkpt>
      <trkpt lat="48.8205" lon="2.3878">
        <ele>75.2</ele>
        <time>2013-03-03T14:47:38.000Z</time>
      </trkpt>
      <trkpt lat="48.82052" lon="2.38784">
        <ele>77.4</ele>
        <time>2013-03-03T14:47:39.000Z</time>
      </trkpt>
      <trkpt lat="48.82054" lon="2.38788">
        <ele>77.4</ele>
        <time>2013-03-03T14:47:40.000Z</time>
      </trkpt>
      <trkpt lat="48.82055" lon="2.3879">
        <ele>77.4</ele>
        <time>2013-03-03T14:47:41.000Z</time>
      </trkpt>
      <trkpt lat="48.82057" lon="2.38797">
        <ele>77.7</ele>
        <time>2013-03-03T14:47:44.000Z</time>
      </trkpt>
      <trkpt lat="48.82056" lon="2.38799">
        <ele>76.2</ele>
        <time>2013-03-03T14:47:45.000Z</time>
      </trkpt>
      <trkpt lat="48.82057" lon="2.38804">
        <ele>75.4</ele>
        <time>2013-03-03T14:47:47.000Z</time>
      </trkpt>
      <trkpt lat="48.82058" lon="2.38807">
        <ele>72.8</ele>
        <time>2013-03-03T14:47:48.000Z</time>
      </trkpt>
      <trkpt lat="48.8206" lon="2.3881">
        <ele>73.9</ele>
        <time>2013-03-03T14:47:49.000Z</time>
      </trkpt>
      <trkpt lat="48.82063" lon="2.38813">
        <ele>73.5</ele>
        <time>2013-03-03T14:47:50.000Z</time>
      </trkpt>
      <trkpt lat="48.82066" lon="2.38817">
        <ele>73.6</ele>
        <time>2013-03-03T14:47:51.000Z</time>
      </trkpt>
      <trkpt lat="48.82068" lon="2.38822">
        <ele>73.5</ele>
        <time>2013-03-03T14:47:52.000Z</time>
      </trkpt>
      <trkpt lat="48.82071" lon="2.38827">
        <ele>73.6</ele>
        <time>2013-03-03T14:47:53.000Z</time>
      </trkpt>
      <trkpt lat="48.82073" lon="2.38831">
        <ele>73.9</ele>
        <time>2013-03-03T14:47:54.000Z</time>
      </trkpt>
      <trkpt lat="48.82076" lon="2.38836">
        <ele>73.2</ele>
        <time>2013-03-03T14:47:55.000Z</time>
      </trkpt>
      <trkpt lat="48.82077" lon="2.38841">
        <ele>72.6</ele>
        <time>2013-03-03T14:47:56.000Z</time>
      </trkpt>
      <trkpt lat="48.82079" lon="2.38846">
        <ele>72.9</ele>
        <time>2013-03-03T14:47:57.000Z</time>
      </trkpt>
      <trkpt lat="48.82081" lon="2.3885">
        <ele>73</ele>
        <time>2013-03-03T14:47:58.000Z</time>
      </trkpt>
      <trkpt lat="48.82082" lon="2.38853">
        <ele>72.9</ele>
        <time>2013-03-03T14:47:59.000Z</time>
      </trkpt>
      <trkpt lat="48.82082" lon="2.38856">
        <ele>72.6</ele>
        <time>2013-03-03T14:48:00.000Z</time>
      </trkpt>
      <trkpt lat="48.82083" lon="2.38862">
        <ele>72.9</ele>
        <time>2013-03-03T14:48:02.000Z</time>
      </trkpt>
      <trkpt lat="48.82084" lon="2.38865">
        <ele>76.2</ele>
        <time>2013-03-03T14:48:03.000Z</time>
      </trkpt>
      <trkpt lat="48.82085" lon="2.38869">
        <ele>75.5</ele>
        <time>2013-03-03T14:48:04.000Z</time>
      </trkpt>
      <trkpt lat="48.82086" lon="2.38873">
        <ele>75.4</ele>
        <time>2013-03-03T14:48:05.000Z</time>
      </trkpt>
      <trkpt lat="48.82088" lon="2.38878">
        <ele>75.1</ele>
        <time>2013-03-03T14:48:06.000Z</time>
      </trkpt>
      <trkpt lat="48.8209" lon="2.38883">
        <ele>75.2</ele>
        <time>2013-03-03T14:48:07.000Z</time>
      </trkpt>
      <trkpt lat="48.82093" lon="2.38887">
        <ele>75</ele>
        <time>2013-03-03T14:48:08.000Z</time>
      </trkpt>
      <trkpt lat="48.82095" lon="2.38892">
        <ele>74.6</ele>
        <time>2013-03-03T14:48:09.000Z</time>
      </trkpt>
      <trkpt lat="48.82098" lon="2.38896">
        <ele>75.6</ele>
        <time>2013-03-03T14:48:10.000Z</time>
      </trkpt>
      <trkpt lat="48.82101" lon="2.38902">
        <ele>74.9</ele>
        <time>2013-03-03T14:48:11.000Z</time>
      </trkpt>
      <trkpt lat="48.82105" lon="2.38909">
        <ele>75.3</ele>
        <time>2013-03-03T14:48:12.000Z</time>
      </trkpt>
      <trkpt lat="48.8211" lon="2.38919">
        <ele>75.9</ele>
        <time>2013-03-03T14:48:13.000Z</time>
      </trkpt>
      <trkpt lat="48.82113" lon="2.38925">
        <ele>75.8</ele>
        <time>2013-03-03T14:48:14.000Z</time>
      </trkpt>
      <trkpt lat="48.82117" lon="2.38932">
        <ele>75.6</ele>
        <time>2013-03-03T14:48:15.000Z</time>
      </trkpt>
      <trkpt lat="48.8212" lon="2.38936">
        <ele>75.8</ele>
        <time>2013-03-03T14:48:16.000Z</time>
      </trkpt>
      <trkpt lat="48.82122" lon="2.38941">
        <ele>76.1</ele>
        <time>2013-03-03T14:48:17.000Z</time>
      </trkpt>
      <trkpt lat="48.82125" lon="2.38946">
        <ele>76.1</ele>
        <time>2013-03-03T14:48:18.000Z</time>
      </trkpt>
      <trkpt lat="48.82127" lon="2.38954">
        <ele>76.4</ele>
        <time>2013-03-03T14:48:19.000Z</time>
      </trkpt>
      <trkpt lat="48.82129" lon="2.3896">
        <ele>76.9</ele>
        <time>2013-03-03T14:48:20.000Z</time>
      </trkpt>
      <trkpt lat="48.82129" lon="2.38968">
        <ele>77.4</ele>
        <time>2013-03-03T14:48:21.000Z</time>
      </trkpt>
      <trkpt lat="48.82131" lon="2.38972">
        <ele>77.5</ele>
        <time>2013-03-03T14:48:22.000Z</time>
      </trkpt>
      <trkpt lat="48.82132" lon="2.38977">
        <ele>77.6</ele>
        <time>2013-03-03T14:48:23.000Z</time>
      </trkpt>
      <trkpt lat="48.82135" lon="2.38981">
        <ele>78</ele>
        <time>2013-03-03T14:48:24.000Z</time>
      </trkpt>
      <trkpt lat="48.82136" lon="2.38985">
        <ele>78.8</ele>
        <time>2013-03-03T14:48:25.000Z</time>
      </trkpt>
      <trkpt lat="48.82138" lon="2.38991">
        <ele>79.5</ele>
        <time>2013-03-03T14:48:26.000Z</time>
      </trkpt>
      <trkpt lat="48.82141" lon="2.38996">
        <ele>76.4</ele>
        <time>2013-03-03T14:48:27.000Z</time>
      </trkpt>
      <trkpt lat="48.82145" lon="2.39">
        <ele>77</ele>
        <time>2013-03-03T14:48:28.000Z</time>
      </trkpt>
      <trkpt lat="48.82148" lon="2.39003">
        <ele>77.9</ele>
        <time>2013-03-03T14:48:29.000Z</time>
      </trkpt>
      <trkpt lat="48.8215" lon="2.39006">
        <ele>79.2</ele>
        <time>2013-03-03T14:48:30.000Z</time>
      </trkpt>
      <trkpt lat="48.82152" lon="2.39011">
        <ele>80.2</ele>
        <time>2013-03-03T14:48:31.000Z</time>
      </trkpt>
      <trkpt lat="48.82154" lon="2.39014">
        <ele>80.2</ele>
        <time>2013-03-03T14:48:32.000Z</time>
      </trkpt>
      <trkpt lat="48.82158" lon="2.39013">
        <ele>81</ele>
        <time>2013-03-03T14:48:35.000Z</time>
      </trkpt>
      <trkpt lat="48.82159" lon="2.39011">
        <ele>81.2</ele>
        <time>2013-03-03T14:48:36.000Z</time>
      </trkpt>
      <trkpt lat="48.82162" lon="2.39011">
        <ele>82.5</ele>
        <time>2013-03-03T14:48:48.000Z</time>
      </trkpt>
      <trkpt lat="48.82164" lon="2.3901">
        <ele>83.3</ele>
        <time>2013-03-03T14:48:49.000Z</time>
      </trkpt>
      <trkpt lat="48.82168" lon="2.39008">
        <ele>84.2</ele>
        <time>2013-03-03T14:48:53.000Z</time>
      </trkpt>
      <trkpt lat="48.82169" lon="2.39007">
        <ele>84.8</ele>
        <time>2013-03-03T14:48:54.000Z</time>
      </trkpt>
      <trkpt lat="48.82172" lon="2.39007">
        <ele>83</ele>
        <time>2013-03-03T14:48:58.000Z</time>
      </trkpt>
      <trkpt lat="48.82173" lon="2.39006">
        <ele>80.5</ele>
        <time>2013-03-03T14:48:59.000Z</time>
      </trkpt>
      <trkpt lat="48.82177" lon="2.39002">
        <ele>79</ele>
        <time>2013-03-03T14:49:02.000Z</time>
      </trkpt>
      <trkpt lat="48.82178" lon="2.39">
        <ele>77.6</ele>
        <time>2013-03-03T14:49:03.000Z</time>
      </trkpt>
      <trkpt lat="48.82181" lon="2.38995">
        <ele>75</ele>
        <time>2013-03-03T14:49:05.000Z</time>
      </trkpt>
      <trkpt lat="48.82182" lon="2.38993">
        <ele>74.8</ele>
        <time>2013-03-03T14:49:06.000Z</time>
      </trkpt>
      <trkpt lat="48.82185" lon="2.3899">
        <ele>75.2</ele>
        <time>2013-03-03T14:49:08.000Z</time>
      </trkpt>
      <trkpt lat="48.82187" lon="2.38989">
        <ele>76.7</ele>
        <time>2013-03-03T14:49:09.000Z</time>
      </trkpt>
      <trkpt lat="48.82191" lon="2.38987">
        <ele>74.5</ele>
        <time>2013-03-03T14:49:11.000Z</time>
      </trkpt>
      <trkpt lat="48.82194" lon="2.38985">
        <ele>73.3</ele>
        <time>2013-03-03T14:49:12.000Z</time>
      </trkpt>
      <trkpt lat="48.82196" lon="2.38984">
        <ele>73.3</ele>
        <time>2013-03-03T14:49:13.000Z</time>
      </trkpt>
      <trkpt lat="48.82198" lon="2.38982">
        <ele>71.7</ele>
        <time>2013-03-03T14:49:14.000Z</time>
      </trkpt>
      <trkpt lat="48.82201" lon="2.38981">
        <ele>71.4</ele>
        <time>2013-03-03T14:49:15.000Z</time>
      </trkpt>
      <trkpt lat="48.82203" lon="2.38979">
        <ele>70.5</ele>
        <time>2013-03-03T14:49:16.000Z</time>
      </trkpt>
      <trkpt lat="48.82205" lon="2.38977">
        <ele>68.4</ele>
        <time>2013-03-03T14:49:17.000Z</time>
      </trkpt>
      <trkpt lat="48.82207" lon="2.38975">
        <ele>67.1</ele>
        <time>2013-03-03T14:49:18.000Z</time>
      </trkpt>
      <trkpt lat="48.82209" lon="2.38973">
        <ele>66.6</ele>
        <time>2013-03-03T14:49:19.000Z</time>
      </trkpt>
      <trkpt lat="48.82212" lon="2.38972">
        <ele>69.3</ele>
        <time>2013-03-03T14:49:20.000Z</time>
      </trkpt>
      <trkpt lat="48.82214" lon="2.3897">
        <ele>68.2</ele>
        <time>2013-03-03T14:49:21.000Z</time>
      </trkpt>
      <trkpt lat="48.82217" lon="2.38969">
        <ele>66.7</ele>
        <time>2013-03-03T14:49:22.000Z</time>
      </trkpt>
      <trkpt lat="48.8222" lon="2.38966">
        <ele>64.6</ele>
        <time>2013-03-03T14:49:23.000Z</time>
      </trkpt>
      <trkpt lat="48.82224" lon="2.38963">
        <ele>62.8</ele>
        <time>2013-03-03T14:49:24.000Z</time>
      </trkpt>
      <trkpt lat="48.82228" lon="2.38959">
        <ele>66.4</ele>
        <time>2013-03-03T14:49:25.000Z</time>
      </trkpt>
      <trkpt lat="48.82231" lon="2.38953">
        <ele>70.4</ele>
        <time>2013-03-03T14:49:26.000Z</time>
      </trkpt>
      <trkpt lat="48.82235" lon="2.38948">
        <ele>71.9</ele>
        <time>2013-03-03T14:49:27.000Z</time>
      </trkpt>
      <trkpt lat="48.82238" lon="2.38943">
        <ele>73</ele>
        <time>2013-03-03T14:49:28.000Z</time>
      </trkpt>
      <trkpt lat="48.82242" lon="2.38938">
        <ele>74.1</ele>
        <time>2013-03-03T14:49:29.000Z</time>
      </trkpt>
      <trkpt lat="48.82246" lon="2.38934">
        <ele>74.4</ele>
        <time>2013-03-03T14:49:30.000Z</time>
      </trkpt>
      <trkpt lat="48.8225" lon="2.38928">
        <ele>75.4</ele>
        <time>2013-03-03T14:49:31.000Z</time>
      </trkpt>
      <trkpt lat="48.82255" lon="2.38917">
        <ele>75.6</ele>
        <time>2013-03-03T14:49:32.000Z</time>
      </trkpt>
      <trkpt lat="48.82259" lon="2.38912">
        <ele>72.3</ele>
        <time>2013-03-03T14:49:33.000Z</time>
      </trkpt>
      <trkpt lat="48.82263" lon="2.38907">
        <ele>72.7</ele>
        <time>2013-03-03T14:49:34.000Z</time>
      </trkpt>
      <trkpt lat="48.82267" lon="2.38903">
        <ele>73.4</ele>
        <time>2013-03-03T14:49:35.000Z</time>
      </trkpt>
      <trkpt lat="48.82272" lon="2.38897">
        <ele>74.6</ele>
        <time>2013-03-03T14:49:36.000Z</time>
      </trkpt>
      <trkpt lat="48.82276" lon="2.38892">
        <ele>75.9</ele>
        <time>2013-03-03T14:49:37.000Z</time>
      </trkpt>
      <trkpt lat="48.82283" lon="2.38886">
        <ele>77.7</ele>
        <time>2013-03-03T14:49:38.000Z</time>
      </trkpt>
      <trkpt lat="48.82287" lon="2.38879">
        <ele>78.7</ele>
        <time>2013-03-03T14:49:39.000Z</time>
      </trkpt>
      <trkpt lat="48.82291" lon="2.38874">
        <ele>79.7</ele>
        <time>2013-03-03T14:49:40.000Z</time>
      </trkpt>
      <trkpt lat="48.82295" lon="2.38869">
        <ele>80</ele>
        <time>2013-03-03T14:49:41.000Z</time>
      </trkpt>
      <trkpt lat="48.82298" lon="2.38863">
        <ele>80</ele>
        <time>2013-03-03T14:49:42.000Z</time>
      </trkpt>
      <trkpt lat="48.82302" lon="2.38858">
        <ele>79.9</ele>
        <time>2013-03-03T14:49:43.000Z</time>
      </trkpt>
      <trkpt lat="48.82306" lon="2.38854">
        <ele>79.3</ele>
        <time>2013-03-03T14:49:44.000Z</time>
      </trkpt>
      <trkpt lat="48.82309" lon="2.3885">
        <ele>79.7</ele>
        <time>2013-03-03T14:49:45.000Z</time>
      </trkpt>
      <trkpt lat="48.82313" lon="2.38843">
        <ele>80</ele>
        <time>2013-03-03T14:49:46.000Z</time>
      </trkpt>
      <trkpt lat="48.82318" lon="2.38839">
        <ele>79.3</ele>
        <time>2013-03-03T14:49:47.000Z</time>
      </trkpt>
      <trkpt lat="48.82322" lon="2.38833">
        <ele>78.4</ele>
        <time>2013-03-03T14:49:48.000Z</time>
      </trkpt>
      <trkpt lat="48.82325" lon="2.38827">
        <ele>78.7</ele>
        <time>2013-03-03T14:49:49.000Z</time>
      </trkpt>
      <trkpt lat="48.82329" lon="2.38822">
        <ele>78.3</ele>
        <time>2013-03-03T14:49:50.000Z</time>
      </trkpt>
      <trkpt lat="48.82333" lon="2.38816">
        <ele>78.5</ele>
        <time>2013-03-03T14:49:51.000Z</time>
      </trkpt>
      <trkpt lat="48.82337" lon="2.38812">
        <ele>78.8</ele>
        <time>2013-03-03T14:49:52.000Z</time>
      </trkpt>
      <trkpt lat="48.82341" lon="2.38809">
        <ele>78</ele>
        <time>2013-03-03T14:49:53.000Z</time>
      </trkpt>
      <trkpt lat="48.82345" lon="2.38804">
        <ele>78.1</ele>
        <time>2013-03-03T14:49:54.000Z</time>
      </trkpt>
      <trkpt lat="48.82348" lon="2.388">
        <ele>77.8</ele>
        <time>2013-03-03T14:49:55.000Z</time>
      </trkpt>
      <trkpt lat="48.82351" lon="2.38795">
        <ele>77.5</ele>
        <time>2013-03-03T14:49:56.000Z</time>
      </trkpt>
      <trkpt lat="48.82354" lon="2.38792">
        <ele>77.2</ele>
        <time>2013-03-03T14:49:57.000Z</time>
      </trkpt>
      <trkpt lat="48.82358" lon="2.38789">
        <ele>77.2</ele>
        <time>2013-03-03T14:49:58.000Z</time>
      </trkpt>
      <trkpt lat="48.82362" lon="2.38786">
        <ele>76.8</ele>
        <time>2013-03-03T14:49:59.000Z</time>
      </trkpt>
      <trkpt lat="48.82365" lon="2.38782">
        <ele>77</ele>
        <time>2013-03-03T14:50:00.000Z</time>
      </trkpt>
      <trkpt lat="48.82368" lon="2.3878">
        <ele>76.9</ele>
        <time>2013-03-03T14:50:01.000Z</time>
      </trkpt>
      <trkpt lat="48.82371" lon="2.38777">
        <ele>76.5</ele>
        <time>2013-03-03T14:50:02.000Z</time>
      </trkpt>
      <trkpt lat="48.82374" lon="2.38775">
        <ele>76</ele>
        <time>2013-03-03T14:50:03.000Z</time>
      </trkpt>
      <trkpt lat="48.82376" lon="2.38772">
        <ele>76</ele>
        <time>2013-03-03T14:50:04.000Z</time>
      </trkpt>
      <trkpt lat="48.82378" lon="2.38766">
        <ele>74.4</ele>
        <time>2013-03-03T14:50:06.000Z</time>
      </trkpt>
      <trkpt lat="48.82379" lon="2.38763">
        <ele>72.6</ele>
        <time>2013-03-03T14:50:07.000Z</time>
      </trkpt>
      <trkpt lat="48.8238" lon="2.3876">
        <ele>71.1</ele>
        <time>2013-03-03T14:50:08.000Z</time>
      </trkpt>
      <trkpt lat="48.82382" lon="2.38758">
        <ele>71</ele>
        <time>2013-03-03T14:50:09.000Z</time>
      </trkpt>
      <trkpt lat="48.82386" lon="2.38755">
        <ele>68.1</ele>
        <time>2013-03-03T14:50:11.000Z</time>
      </trkpt>
      <trkpt lat="48.82387" lon="2.38754">
        <ele>67.6</ele>
        <time>2013-03-03T14:50:12.000Z</time>
      </trkpt>
      <trkpt lat="48.8239" lon="2.38751">
        <ele>66.4</ele>
        <time>2013-03-03T14:50:14.000Z</time>
      </trkpt>
      <trkpt lat="48.82392" lon="2.38749">
        <ele>65.8</ele>
        <time>2013-03-03T14:50:15.000Z</time>
      </trkpt>
      <trkpt lat="48.82395" lon="2.38747">
        <ele>65.4</ele>
        <time>2013-03-03T14:50:16.000Z</time>
      </trkpt>
      <trkpt lat="48.82397" lon="2.38745">
        <ele>65.1</ele>
        <time>2013-03-03T14:50:17.000Z</time>
      </trkpt>
      <trkpt lat="48.824" lon="2.38742">
        <ele>66</ele>
        <time>2013-03-03T14:50:18.000Z</time>
      </trkpt>
      <trkpt lat="48.82402" lon="2.3874">
        <ele>66.2</ele>
        <time>2013-03-03T14:50:19.000Z</time>
      </trkpt>
      <trkpt lat="48.82404" lon="2.38737">
        <ele>63.7</ele>
        <time>2013-03-03T14:50:22.000Z</time>
      </trkpt>
      <trkpt lat="48.82406" lon="2.38736">
        <ele>64.4</ele>
        <time>2013-03-03T14:50:23.000Z</time>
      </trkpt>
      <trkpt lat="48.82409" lon="2.38733">
        <ele>65.3</ele>
        <time>2013-03-03T14:50:25.000Z</time>
      </trkpt>
      <trkpt lat="48.82411" lon="2.38731">
        <ele>65</ele>
        <time>2013-03-03T14:50:26.000Z</time>
      </trkpt>
      <trkpt lat="48.82413" lon="2.38729">
        <ele>65</ele>
        <time>2013-03-03T14:50:27.000Z</time>
      </trkpt>
      <trkpt lat="48.82416" lon="2.38727">
        <ele>65.3</ele>
        <time>2013-03-03T14:50:28.000Z</time>
      </trkpt>
      <trkpt lat="48.82419" lon="2.38723">
        <ele>65.9</ele>
        <time>2013-03-03T14:50:30.000Z</time>
      </trkpt>
      <trkpt lat="48.8242" lon="2.3872">
        <ele>66</ele>
        <time>2013-03-03T14:50:31.000Z</time>
      </trkpt>
      <trkpt lat="48.82423" lon="2.38716">
        <ele>65</ele>
        <time>2013-03-03T14:50:33.000Z</time>
      </trkpt>
      <trkpt lat="48.82425" lon="2.38714">
        <ele>63.7</ele>
        <time>2013-03-03T14:50:34.000Z</time>
      </trkpt>
      <trkpt lat="48.82427" lon="2.38709">
        <ele>65.1</ele>
        <time>2013-03-03T14:50:36.000Z</time>
      </trkpt>
      <trkpt lat="48.82428" lon="2.38707">
        <ele>70.7</ele>
        <time>2013-03-03T14:50:37.000Z</time>
      </trkpt>
      <trkpt lat="48.8243" lon="2.38711">
        <ele>69.2</ele>
        <time>2013-03-03T14:52:16.000Z</time>
      </trkpt>
      <trkpt lat="48.82432" lon="2.38713">
        <ele>71.3</ele>
        <time>2013-03-03T14:52:17.000Z</time>
      </trkpt>
      <trkpt lat="48.82434" lon="2.38716">
        <ele>72.5</ele>
        <time>2013-03-03T14:52:18.000Z</time>
      </trkpt>
      <trkpt lat="48.82436" lon="2.38719">
        <ele>73.6</ele>
        <time>2013-03-03T14:52:19.000Z</time>
      </trkpt>
      <trkpt lat="48.82438" lon="2.38722">
        <ele>74.1</ele>
        <time>2013-03-03T14:52:20.000Z</time>
      </trkpt>
      <trkpt lat="48.8244" lon="2.38726">
        <ele>74.5</ele>
        <time>2013-03-03T14:52:21.000Z</time>
      </trkpt>
      <trkpt lat="48.82442" lon="2.38729">
        <ele>74.7</ele>
        <time>2013-03-03T14:52:22.000Z</time>
      </trkpt>
      <trkpt lat="48.82443" lon="2.38732">
        <ele>74.9</ele>
        <time>2013-03-03T14:52:23.000Z</time>
      </trkpt>
      <trkpt lat="48.82445" lon="2.38735">
        <ele>74.6</ele>
        <time>2013-03-03T14:52:24.000Z</time>
      </trkpt>
      <trkpt lat="48.82446" lon="2.38738">
        <ele>73.6</ele>
        <time>2013-03-03T14:52:25.000Z</time>
      </trkpt>
      <trkpt lat="48.82448" lon="2.38741">
        <ele>74.5</ele>
        <time>2013-03-03T14:52:26.000Z</time>
      </trkpt>
      <trkpt lat="48.8245" lon="2.38744">
        <ele>74</ele>
        <time>2013-03-03T14:52:27.000Z</time>
      </trkpt>
      <trkpt lat="48.82453" lon="2.38747">
        <ele>74.1</ele>
        <time>2013-03-03T14:52:28.000Z</time>
      </trkpt>
      <trkpt lat="48.82456" lon="2.38751">
        <ele>73.8</ele>
        <time>2013-03-03T14:52:29.000Z</time>
      </trkpt>
      <trkpt lat="48.82458" lon="2.38753">
        <ele>73.2</ele>
        <time>2013-03-03T14:52:30.000Z</time>
      </trkpt>
      <trkpt lat="48.82461" lon="2.38755">
        <ele>71.1</ele>
        <time>2013-03-03T14:52:31.000Z</time>
      </trkpt>
      <trkpt lat="48.82464" lon="2.38758">
        <ele>71.8</ele>
        <time>2013-03-03T14:52:32.000Z</time>
      </trkpt>
      <trkpt lat="48.82466" lon="2.38761">
        <ele>70.6</ele>
        <time>2013-03-03T14:52:33.000Z</time>
      </trkpt>
      <trkpt lat="48.82468" lon="2.38764">
        <ele>71.6</ele>
        <time>2013-03-03T14:52:34.000Z</time>
      </trkpt>
      <trkpt lat="48.8247" lon="2.38768">
        <ele>71.4</ele>
        <time>2013-03-03T14:52:35.000Z</time>
      </trkpt>
      <trkpt lat="48.82472" lon="2.38771">
        <ele>70.3</ele>
        <time>2013-03-03T14:52:36.000Z</time>
      </trkpt>
      <trkpt lat="48.82474" lon="2.38774">
        <ele>68.7</ele>
        <time>2013-03-03T14:52:37.000Z</time>
      </trkpt>
      <trkpt lat="48.82476" lon="2.38778">
        <ele>67.6</ele>
        <time>2013-03-03T14:52:38.000Z</time>
      </trkpt>
      <trkpt lat="48.82478" lon="2.38781">
        <ele>66.1</ele>
        <time>2013-03-03T14:52:39.000Z</time>
      </trkpt>
      <trkpt lat="48.8248" lon="2.38785">
        <ele>65.7</ele>
        <time>2013-03-03T14:52:40.000Z</time>
      </trkpt>
      <trkpt lat="48.82481" lon="2.3879">
        <ele>64.1</ele>
        <time>2013-03-03T14:52:41.000Z</time>
      </trkpt>
      <trkpt lat="48.82481" lon="2.38795">
        <ele>64.3</ele>
        <time>2013-03-03T14:52:42.000Z</time>
      </trkpt>
      <trkpt lat="48.82482" lon="2.388">
        <ele>63.6</ele>
        <time>2013-03-03T14:52:43.000Z</time>
      </trkpt>
      <trkpt lat="48.82484" lon="2.38805">
        <ele>63.8</ele>
        <time>2013-03-03T14:52:44.000Z</time>
      </trkpt>
      <trkpt lat="48.82486" lon="2.38809">
        <ele>63.9</ele>
        <time>2013-03-03T14:52:45.000Z</time>
      </trkpt>
      <trkpt lat="48.82488" lon="2.38814">
        <ele>63.2</ele>
        <time>2013-03-03T14:52:46.000Z</time>
      </trkpt>
      <trkpt lat="48.82491" lon="2.38818">
        <ele>64.3</ele>
        <time>2013-03-03T14:52:47.000Z</time>
      </trkpt>
      <trkpt lat="48.82493" lon="2.38823">
        <ele>64.8</ele>
        <time>2013-03-03T14:52:48.000Z</time>
      </trkpt>
      <trkpt lat="48.82496" lon="2.38827">
        <ele>64</ele>
        <time>2013-03-03T14:52:49.000Z</time>
      </trkpt>
      <trkpt lat="48.82498" lon="2.38833">
        <ele>63.6</ele>
        <time>2013-03-03T14:52:50.000Z</time>
      </trkpt>
      <trkpt lat="48.82501" lon="2.38838">
        <ele>63.8</ele>
        <time>2013-03-03T14:52:51.000Z</time>
      </trkpt>
      <trkpt lat="48.82503" lon="2.38842">
        <ele>64.1</ele>
        <time>2013-03-03T14:52:52.000Z</time>
      </trkpt>
      <trkpt lat="48.82505" lon="2.38845">
        <ele>63.6</ele>
        <time>2013-03-03T14:52:53.000Z</time>
      </trkpt>
      <trkpt lat="48.82507" lon="2.38849">
        <ele>64.1</ele>
        <time>2013-03-03T14:52:54.000Z</time>
      </trkpt>
      <trkpt lat="48.82509" lon="2.38851">
        <ele>65</ele>
        <time>2013-03-03T14:52:55.000Z</time>
      </trkpt>
      <trkpt lat="48.8251" lon="2.38855">
        <ele>65.1</ele>
        <time>2013-03-03T14:52:56.000Z</time>
      </trkpt>
      <trkpt lat="48.82511" lon="2.38858">
        <ele>64.3</ele>
        <time>2013-03-03T14:52:57.000Z</time>
      </trkpt>
      <trkpt lat="48.82512" lon="2.38861">
        <ele>65.6</ele>
        <time>2013-03-03T14:52:58.000Z</time>
      </trkpt>
      <trkpt lat="48.82509" lon="2.38866">
        <ele>64.5</ele>
        <time>2013-03-03T14:53:00.000Z</time>
      </trkpt>
      <trkpt lat="48.82507" lon="2.38868">
        <ele>65.3</ele>
        <time>2013-03-03T14:53:01.000Z</time>
      </trkpt>
      <trkpt lat="48.82504" lon="2.38872">
        <ele>66.1</ele>
        <time>2013-03-03T14:53:07.000Z</time>
      </trkpt>
      <trkpt lat="48.82503" lon="2.38872">
        <ele>66.6</ele>
        <time>2013-03-03T14:53:08.000Z</time>
      </trkpt>
      <trkpt lat="48.82505" lon="2.38868">
        <ele>70.9</ele>
        <time>2013-03-03T14:53:25.000Z</time>
      </trkpt>
      <trkpt lat="48.82506" lon="2.38866">
        <ele>70.4</ele>
        <time>2013-03-03T14:53:26.000Z</time>
      </trkpt>
      <trkpt lat="48.82509" lon="2.38862">
        <ele>75.6</ele>
        <time>2013-03-03T14:53:42.000Z</time>
      </trkpt>
      <trkpt lat="48.8251" lon="2.38862">
        <ele>75.7</ele>
        <time>2013-03-03T14:53:43.000Z</time>
      </trkpt>
      <trkpt lat="48.82513" lon="2.38858">
        <ele>75.4</ele>
        <time>2013-03-03T14:54:02.000Z</time>
      </trkpt>
      <trkpt lat="48.82515" lon="2.38857">
        <ele>73.6</ele>
        <time>2013-03-03T14:54:03.000Z</time>
      </trkpt>
      <trkpt lat="48.82517" lon="2.38854">
        <ele>71.2</ele>
        <time>2013-03-03T14:54:04.000Z</time>
      </trkpt>
      <trkpt lat="48.82518" lon="2.38852">
        <ele>70.9</ele>
        <time>2013-03-03T14:54:05.000Z</time>
      </trkpt>
      <trkpt lat="48.82521" lon="2.38849">
        <ele>67.5</ele>
        <time>2013-03-03T14:54:06.000Z</time>
      </trkpt>
      <trkpt lat="48.82523" lon="2.38846">
        <ele>66.6</ele>
        <time>2013-03-03T14:54:07.000Z</time>
      </trkpt>
      <trkpt lat="48.82525" lon="2.38844">
        <ele>65.2</ele>
        <time>2013-03-03T14:54:08.000Z</time>
      </trkpt>
      <trkpt lat="48.82527" lon="2.38841">
        <ele>66.5</ele>
        <time>2013-03-03T14:54:09.000Z</time>
      </trkpt>
      <trkpt lat="48.8253" lon="2.38837">
        <ele>65.2</ele>
        <time>2013-03-03T14:54:11.000Z</time>
      </trkpt>
      <trkpt lat="48.82531" lon="2.38834">
        <ele>65.3</ele>
        <time>2013-03-03T14:54:12.000Z</time>
      </trkpt>
      <trkpt lat="48.82532" lon="2.38829">
        <ele>64.6</ele>
        <time>2013-03-03T14:54:14.000Z</time>
      </trkpt>
      <trkpt lat="48.82534" lon="2.38827">
        <ele>65.8</ele>
        <time>2013-03-03T14:54:15.000Z</time>
      </trkpt>
      <trkpt lat="48.82535" lon="2.38824">
        <ele>66.2</ele>
        <time>2013-03-03T14:54:16.000Z</time>
      </trkpt>
      <trkpt lat="48.82537" lon="2.38822">
        <ele>66.7</ele>
        <time>2013-03-03T14:54:17.000Z</time>
      </trkpt>
      <trkpt lat="48.82539" lon="2.38818">
        <ele>65.2</ele>
        <time>2013-03-03T14:54:18.000Z</time>
      </trkpt>
      <trkpt lat="48.82541" lon="2.38816">
        <ele>65.5</ele>
        <time>2013-03-03T14:54:19.000Z</time>
      </trkpt>
      <trkpt lat="48.82544" lon="2.38813">
        <ele>66</ele>
        <time>2013-03-03T14:54:20.000Z</time>
      </trkpt>
      <trkpt lat="48.82546" lon="2.3881">
        <ele>65.8</ele>
        <time>2013-03-03T14:54:21.000Z</time>
      </trkpt>
      <trkpt lat="48.82548" lon="2.38807">
        <ele>65.2</ele>
        <time>2013-03-03T14:54:22.000Z</time>
      </trkpt>
      <trkpt lat="48.8255" lon="2.38803">
        <ele>64.1</ele>
        <time>2013-03-03T14:54:23.000Z</time>
      </trkpt>
      <trkpt lat="48.82551" lon="2.388">
        <ele>63.6</ele>
        <time>2013-03-03T14:54:24.000Z</time>
      </trkpt>
      <trkpt lat="48.82552" lon="2.38797">
        <ele>62.9</ele>
        <time>2013-03-03T14:54:25.000Z</time>
      </trkpt>
      <trkpt lat="48.82554" lon="2.38791">
        <ele>62.6</ele>
        <time>2013-03-03T14:54:28.000Z</time>
      </trkpt>
      <trkpt lat="48.82555" lon="2.3879">
        <ele>64.3</ele>
        <time>2013-03-03T14:54:29.000Z</time>
      </trkpt>
      <trkpt lat="48.82558" lon="2.38786">
        <ele>66.1</ele>
        <time>2013-03-03T14:54:32.000Z</time>
      </trkpt>
      <trkpt lat="48.82559" lon="2.38784">
        <ele>65.5</ele>
        <time>2013-03-03T14:54:33.000Z</time>
      </trkpt>
      <trkpt lat="48.82562" lon="2.3878">
        <ele>65.1</ele>
        <time>2013-03-03T14:54:35.000Z</time>
      </trkpt>
      <trkpt lat="48.82563" lon="2.38777">
        <ele>65.9</ele>
        <time>2013-03-03T14:54:36.000Z</time>
      </trkpt>
      <trkpt lat="48.82565" lon="2.38775">
        <ele>66.3</ele>
        <time>2013-03-03T14:54:37.000Z</time>
      </trkpt>
      <trkpt lat="48.82566" lon="2.38772">
        <ele>67.2</ele>
        <time>2013-03-03T14:54:38.000Z</time>
      </trkpt>
      <trkpt lat="48.82568" lon="2.38769">
        <ele>68.9</ele>
        <time>2013-03-03T14:54:39.000Z</time>
      </trkpt>
      <trkpt lat="48.8257" lon="2.38764">
        <ele>69.9</ele>
        <time>2013-03-03T14:54:40.000Z</time>
      </trkpt>
      <trkpt lat="48.82572" lon="2.3876">
        <ele>70.6</ele>
        <time>2013-03-03T14:54:41.000Z</time>
      </trkpt>
      <trkpt lat="48.82574" lon="2.38755">
        <ele>69.9</ele>
        <time>2013-03-03T14:54:42.000Z</time>
      </trkpt>
      <trkpt lat="48.82575" lon="2.3875">
        <ele>70.1</ele>
        <time>2013-03-03T14:54:43.000Z</time>
      </trkpt>
      <trkpt lat="48.82577" lon="2.38745">
        <ele>69.5</ele>
        <time>2013-03-03T14:54:44.000Z</time>
      </trkpt>
      <trkpt lat="48.8258" lon="2.38741">
        <ele>69.1</ele>
        <time>2013-03-03T14:54:45.000Z</time>
      </trkpt>
      <trkpt lat="48.82582" lon="2.38739">
        <ele>69.1</ele>
        <time>2013-03-03T14:54:46.000Z</time>
      </trkpt>
      <trkpt lat="48.82585" lon="2.38738">
        <ele>68.3</ele>
        <time>2013-03-03T14:54:47.000Z</time>
      </trkpt>
      <trkpt lat="48.82588" lon="2.38737">
        <ele>67.5</ele>
        <time>2013-03-03T14:54:48.000Z</time>
      </trkpt>
      <trkpt lat="48.8259" lon="2.38736">
        <ele>67.6</ele>
        <time>2013-03-03T14:54:49.000Z</time>
      </trkpt>
      <trkpt lat="48.82593" lon="2.38735">
        <ele>67.5</ele>
        <time>2013-03-03T14:54:50.000Z</time>
      </trkpt>
      <trkpt lat="48.82596" lon="2.38733">
        <ele>67.5</ele>
        <time>2013-03-03T14:54:52.000Z</time>
      </trkpt>
      <trkpt lat="48.82598" lon="2.38732">
        <ele>67.4</ele>
        <time>2013-03-03T14:54:53.000Z</time>
      </trkpt>
      <trkpt lat="48.82602" lon="2.38731">
        <ele>66.4</ele>
        <time>2013-03-03T14:54:55.000Z</time>
      </trkpt>
      <trkpt lat="48.82603" lon="2.38729">
        <ele>66.4</ele>
        <time>2013-03-03T14:54:56.000Z</time>
      </trkpt>
      <trkpt lat="48.82605" lon="2.38727">
        <ele>66.5</ele>
        <time>2013-03-03T14:54:57.000Z</time>
      </trkpt>
      <trkpt lat="48.82608" lon="2.38724">
        <ele>67.2</ele>
        <time>2013-03-03T14:54:58.000Z</time>
      </trkpt>
      <trkpt lat="48.8261" lon="2.38719">
        <ele>64.5</ele>
        <time>2013-03-03T14:54:59.000Z</time>
      </trkpt>
      <trkpt lat="48.82613" lon="2.38715">
        <ele>65.6</ele>
        <time>2013-03-03T14:55:00.000Z</time>
      </trkpt>
      <trkpt lat="48.82615" lon="2.38711">
        <ele>64.4</ele>
        <time>2013-03-03T14:55:01.000Z</time>
      </trkpt>
      <trkpt lat="48.82616" lon="2.38707">
        <ele>64</ele>
        <time>2013-03-03T14:55:02.000Z</time>
      </trkpt>
      <trkpt lat="48.82618" lon="2.38701">
        <ele>64.7</ele>
        <time>2013-03-03T14:55:05.000Z</time>
      </trkpt>
      <trkpt lat="48.82618" lon="2.387">
        <ele>64.7</ele>
        <time>2013-03-03T14:55:06.000Z</time>
      </trkpt>
      <trkpt lat="48.82617" lon="2.38706">
        <ele>66.3</ele>
        <time>2013-03-03T14:55:19.000Z</time>
      </trkpt>
      <trkpt lat="48.82617" lon="2.38707">
        <ele>66.6</ele>
        <time>2013-03-03T14:55:20.000Z</time>
      </trkpt>
      <trkpt lat="48.82619" lon="2.38701">
        <ele>65.6</ele>
        <time>2013-03-03T14:55:43.000Z</time>
      </trkpt>
      <trkpt lat="48.8262" lon="2.38697">
        <ele>65.6</ele>
        <time>2013-03-03T14:55:44.000Z</time>
      </trkpt>
      <trkpt lat="48.82621" lon="2.38693">
        <ele>64.9</ele>
        <time>2013-03-03T14:55:45.000Z</time>
      </trkpt>
      <trkpt lat="48.82623" lon="2.3869">
        <ele>64.4</ele>
        <time>2013-03-03T14:55:46.000Z</time>
      </trkpt>
      <trkpt lat="48.82624" lon="2.38687">
        <ele>64.1</ele>
        <time>2013-03-03T14:55:47.000Z</time>
      </trkpt>
      <trkpt lat="48.82626" lon="2.38683">
        <ele>63.6</ele>
        <time>2013-03-03T14:55:48.000Z</time>
      </trkpt>
      <trkpt lat="48.82627" lon="2.38681">
        <ele>63.2</ele>
        <time>2013-03-03T14:55:49.000Z</time>
      </trkpt>
      <trkpt lat="48.8263" lon="2.3868">
        <ele>65.3</ele>
        <time>2013-03-03T14:55:50.000Z</time>
      </trkpt>
      <trkpt lat="48.82634" lon="2.38677">
        <ele>65.7</ele>
        <time>2013-03-03T14:55:52.000Z</time>
      </trkpt>
      <trkpt lat="48.82637" lon="2.38676">
        <ele>64.6</ele>
        <time>2013-03-03T14:55:53.000Z</time>
      </trkpt>
      <trkpt lat="48.82639" lon="2.38676">
        <ele>63.3</ele>
        <time>2013-03-03T14:55:54.000Z</time>
      </trkpt>
      <trkpt lat="48.82642" lon="2.38676">
        <ele>63.7</ele>
        <time>2013-03-03T14:55:55.000Z</time>
      </trkpt>
      <trkpt lat="48.82646" lon="2.38677">
        <ele>62.7</ele>
        <time>2013-03-03T14:55:57.000Z</time>
      </trkpt>
      <trkpt lat="48.82648" lon="2.38675">
        <ele>63.4</ele>
        <time>2013-03-03T14:55:58.000Z</time>
      </trkpt>
      <trkpt lat="48.82651" lon="2.38674">
        <ele>62.5</ele>
        <time>2013-03-03T14:55:59.000Z</time>
      </trkpt>
      <trkpt lat="48.82653" lon="2.38672">
        <ele>62.2</ele>
        <time>2013-03-03T14:56:00.000Z</time>
      </trkpt>
      <trkpt lat="48.82655" lon="2.3867">
        <ele>61.1</ele>
        <time>2013-03-03T14:56:01.000Z</time>
      </trkpt>
      <trkpt lat="48.82656" lon="2.38667">
        <ele>60.5</ele>
        <time>2013-03-03T14:56:02.000Z</time>
      </trkpt>
      <trkpt lat="48.82658" lon="2.38664">
        <ele>60.1</ele>
        <time>2013-03-03T14:56:03.000Z</time>
      </trkpt>
      <trkpt lat="48.8266" lon="2.38661">
        <ele>60.6</ele>
        <time>2013-03-03T14:56:04.000Z</time>
      </trkpt>
      <trkpt lat="48.82662" lon="2.38658">
        <ele>62.4</ele>
        <time>2013-03-03T14:56:05.000Z</time>
      </trkpt>
      <trkpt lat="48.82665" lon="2.38654">
        <ele>62</ele>
        <time>2013-03-03T14:56:06.000Z</time>
      </trkpt>
      <trkpt lat="48.82667" lon="2.3865">
        <ele>61.6</ele>
        <time>2013-03-03T14:56:07.000Z</time>
      </trkpt>
      <trkpt lat="48.8267" lon="2.38647">
        <ele>61.5</ele>
        <time>2013-03-03T14:56:08.000Z</time>
      </trkpt>
      <trkpt lat="48.82673" lon="2.38643">
        <ele>61.3</ele>
        <time>2013-03-03T14:56:09.000Z</time>
      </trkpt>
      <trkpt lat="48.82675" lon="2.3864">
        <ele>61.7</ele>
        <time>2013-03-03T14:56:10.000Z</time>
      </trkpt>
      <trkpt lat="48.82678" lon="2.38636">
        <ele>61.7</ele>
        <time>2013-03-03T14:56:11.000Z</time>
      </trkpt>
      <trkpt lat="48.8268" lon="2.38633">
        <ele>61.4</ele>
        <time>2013-03-03T14:56:12.000Z</time>
      </trkpt>
      <trkpt lat="48.82684" lon="2.38629">
        <ele>61</ele>
        <time>2013-03-03T14:56:13.000Z</time>
      </trkpt>
      <trkpt lat="48.82686" lon="2.38626">
        <ele>60.2</ele>
        <time>2013-03-03T14:56:14.000Z</time>
      </trkpt>
      <trkpt lat="48.8269" lon="2.38623">
        <ele>60</ele>
        <time>2013-03-03T14:56:15.000Z</time>
      </trkpt>
      <trkpt lat="48.82693" lon="2.38619">
        <ele>60.4</ele>
        <time>2013-03-03T14:56:16.000Z</time>
      </trkpt>
      <trkpt lat="48.82697" lon="2.38616">
        <ele>60.1</ele>
        <time>2013-03-03T14:56:17.000Z</time>
      </trkpt>
      <trkpt lat="48.82699" lon="2.38613">
        <ele>59.1</ele>
        <time>2013-03-03T14:56:18.000Z</time>
      </trkpt>
      <trkpt lat="48.82701" lon="2.3861">
        <ele>58.5</ele>
        <time>2013-03-03T14:56:19.000Z</time>
      </trkpt>
      <trkpt lat="48.82703" lon="2.38606">
        <ele>58.4</ele>
        <time>2013-03-03T14:56:21.000Z</time>
      </trkpt>
      <trkpt lat="48.82704" lon="2.38604">
        <ele>58.5</ele>
        <time>2013-03-03T14:56:22.000Z</time>
      </trkpt>
      <trkpt lat="48.82706" lon="2.386">
        <ele>57.8</ele>
        <time>2013-03-03T14:56:25.000Z</time>
      </trkpt>
      <trkpt lat="48.82708" lon="2.38598">
        <ele>57.7</ele>
        <time>2013-03-03T14:56:26.000Z</time>
      </trkpt>
      <trkpt lat="48.82711" lon="2.38596">
        <ele>57.8</ele>
        <time>2013-03-03T14:56:27.000Z</time>
      </trkpt>
      <trkpt lat="48.82714" lon="2.38593">
        <ele>58</ele>
        <time>2013-03-03T14:56:28.000Z</time>
      </trkpt>
      <trkpt lat="48.82718" lon="2.3859">
        <ele>58.3</ele>
        <time>2013-03-03T14:56:29.000Z</time>
      </trkpt>
      <trkpt lat="48.82721" lon="2.38587">
        <ele>58.1</ele>
        <time>2013-03-03T14:56:30.000Z</time>
      </trkpt>
      <trkpt lat="48.82725" lon="2.38585">
        <ele>58</ele>
        <time>2013-03-03T14:56:31.000Z</time>
      </trkpt>
      <trkpt lat="48.82727" lon="2.38582">
        <ele>58</ele>
        <time>2013-03-03T14:56:32.000Z</time>
      </trkpt>
      <trkpt lat="48.8273" lon="2.38581">
        <ele>58.1</ele>
        <time>2013-03-03T14:56:35.000Z</time>
      </trkpt>
      <trkpt lat="48.82732" lon="2.38581">
        <ele>56.2</ele>
        <time>2013-03-03T14:56:36.000Z</time>
      </trkpt>
      <trkpt lat="48.82736" lon="2.38578">
        <ele>54.7</ele>
        <time>2013-03-03T14:56:38.000Z</time>
      </trkpt>
      <trkpt lat="48.82738" lon="2.38575">
        <ele>54.1</ele>
        <time>2013-03-03T14:56:39.000Z</time>
      </trkpt>
      <trkpt lat="48.82742" lon="2.3857">
        <ele>55.4</ele>
        <time>2013-03-03T14:56:40.000Z</time>
      </trkpt>
      <trkpt lat="48.82745" lon="2.38566">
        <ele>54.9</ele>
        <time>2013-03-03T14:56:41.000Z</time>
      </trkpt>
      <trkpt lat="48.82748" lon="2.38561">
        <ele>54.8</ele>
        <time>2013-03-03T14:56:42.000Z</time>
      </trkpt>
      <trkpt lat="48.82751" lon="2.38556">
        <ele>55.7</ele>
        <time>2013-03-03T14:56:43.000Z</time>
      </trkpt>
      <trkpt lat="48.82754" lon="2.38552">
        <ele>54.8</ele>
        <time>2013-03-03T14:56:44.000Z</time>
      </trkpt>
      <trkpt lat="48.82757" lon="2.38548">
        <ele>54.6</ele>
        <time>2013-03-03T14:56:45.000Z</time>
      </trkpt>
      <trkpt lat="48.82759" lon="2.38545">
        <ele>54.3</ele>
        <time>2013-03-03T14:56:46.000Z</time>
      </trkpt>
      <trkpt lat="48.82761" lon="2.38542">
        <ele>53.7</ele>
        <time>2013-03-03T14:56:47.000Z</time>
      </trkpt>
      <trkpt lat="48.82763" lon="2.38539">
        <ele>53.6</ele>
        <time>2013-03-03T14:56:48.000Z</time>
      </trkpt>
      <trkpt lat="48.82764" lon="2.38536">
        <ele>53.3</ele>
        <time>2013-03-03T14:56:49.000Z</time>
      </trkpt>
      <trkpt lat="48.82766" lon="2.38533">
        <ele>53.1</ele>
        <time>2013-03-03T14:56:50.000Z</time>
      </trkpt>
      <trkpt lat="48.82769" lon="2.38529">
        <ele>54.6</ele>
        <time>2013-03-03T14:56:51.000Z</time>
      </trkpt>
      <trkpt lat="48.82771" lon="2.38526">
        <ele>55.5</ele>
        <time>2013-03-03T14:56:52.000Z</time>
      </trkpt>
      <trkpt lat="48.82775" lon="2.38522">
        <ele>56.2</ele>
        <time>2013-03-03T14:56:53.000Z</time>
      </trkpt>
      <trkpt lat="48.82778" lon="2.38519">
        <ele>57.1</ele>
        <time>2013-03-03T14:56:54.000Z</time>
      </trkpt>
      <trkpt lat="48.8278" lon="2.38516">
        <ele>56.9</ele>
        <time>2013-03-03T14:56:55.000Z</time>
      </trkpt>
      <trkpt lat="48.82782" lon="2.38512">
        <ele>57.1</ele>
        <time>2013-03-03T14:56:57.000Z</time>
      </trkpt>
      <trkpt lat="48.82783" lon="2.3851">
        <ele>56.3</ele>
        <time>2013-03-03T14:56:58.000Z</time>
      </trkpt>
      <trkpt lat="48.82786" lon="2.38506">
        <ele>59.3</ele>
        <time>2013-03-03T14:57:01.000Z</time>
      </trkpt>
      <trkpt lat="48.82787" lon="2.38504">
        <ele>59.8</ele>
        <time>2013-03-03T14:57:02.000Z</time>
      </trkpt>
      <trkpt lat="48.8279" lon="2.38501">
        <ele>68.1</ele>
        <time>2013-03-03T14:57:20.000Z</time>
      </trkpt>
      <trkpt lat="48.82791" lon="2.38499">
        <ele>69.3</ele>
        <time>2013-03-03T14:57:21.000Z</time>
      </trkpt>
      <trkpt lat="48.82791" lon="2.38494">
        <ele>71</ele>
        <time>2013-03-03T14:57:23.000Z</time>
      </trkpt>
      <trkpt lat="48.82791" lon="2.38491">
        <ele>69.9</ele>
        <time>2013-03-03T14:57:24.000Z</time>
      </trkpt>
      <trkpt lat="48.82791" lon="2.38487">
        <ele>69.7</ele>
        <time>2013-03-03T14:57:25.000Z</time>
      </trkpt>
      <trkpt lat="48.82791" lon="2.38484">
        <ele>69.7</ele>
        <time>2013-03-03T14:57:26.000Z</time>
      </trkpt>
      <trkpt lat="48.8279" lon="2.38478">
        <ele>69.9</ele>
        <time>2013-03-03T14:57:28.000Z</time>
      </trkpt>
      <trkpt lat="48.82789" lon="2.38476">
        <ele>70.8</ele>
        <time>2013-03-03T14:57:29.000Z</time>
      </trkpt>
      <trkpt lat="48.82787" lon="2.38471">
        <ele>69.9</ele>
        <time>2013-03-03T14:57:31.000Z</time>
      </trkpt>
      <trkpt lat="48.82787" lon="2.38469">
        <ele>70.6</ele>
        <time>2013-03-03T14:57:32.000Z</time>
      </trkpt>
      <trkpt lat="48.82788" lon="2.38475">
        <ele>69.5</ele>
        <time>2013-03-03T14:57:35.000Z</time>
      </trkpt>
      <trkpt lat="48.82789" lon="2.38476">
        <ele>69.2</ele>
        <time>2013-03-03T14:57:36.000Z</time>
      </trkpt>
      <trkpt lat="48.82792" lon="2.38479">
        <ele>68.1</ele>
        <time>2013-03-03T14:58:06.000Z</time>
      </trkpt>
      <trkpt lat="48.82793" lon="2.38477">
        <ele>69.2</ele>
        <time>2013-03-03T14:58:07.000Z</time>
      </trkpt>
      <trkpt lat="48.82795" lon="2.38475">
        <ele>68.4</ele>
        <time>2013-03-03T14:58:08.000Z</time>
      </trkpt>
      <trkpt lat="48.82798" lon="2.38473">
        <ele>67.7</ele>
        <time>2013-03-03T14:58:09.000Z</time>
      </trkpt>
      <trkpt lat="48.82801" lon="2.3847">
        <ele>66.6</ele>
        <time>2013-03-03T14:58:10.000Z</time>
      </trkpt>
      <trkpt lat="48.82804" lon="2.38467">
        <ele>67.4</ele>
        <time>2013-03-03T14:58:11.000Z</time>
      </trkpt>
      <trkpt lat="48.82807" lon="2.38465">
        <ele>68.1</ele>
        <time>2013-03-03T14:58:12.000Z</time>
      </trkpt>
      <trkpt lat="48.8281" lon="2.38461">
        <ele>70.5</ele>
        <time>2013-03-03T14:58:13.000Z</time>
      </trkpt>
      <trkpt lat="48.82814" lon="2.38458">
        <ele>70.9</ele>
        <time>2013-03-03T14:58:14.000Z</time>
      </trkpt>
      <trkpt lat="48.82817" lon="2.38454">
        <ele>71.5</ele>
        <time>2013-03-03T14:58:15.000Z</time>
      </trkpt>
      <trkpt lat="48.82819" lon="2.3845">
        <ele>70.6</ele>
        <time>2013-03-03T14:58:16.000Z</time>
      </trkpt>
      <trkpt lat="48.82822" lon="2.38446">
        <ele>71.3</ele>
        <time>2013-03-03T14:58:17.000Z</time>
      </trkpt>
      <trkpt lat="48.82825" lon="2.38443">
        <ele>70.8</ele>
        <time>2013-03-03T14:58:18.000Z</time>
      </trkpt>
      <trkpt lat="48.82827" lon="2.38439">
        <ele>70</ele>
        <time>2013-03-03T14:58:19.000Z</time>
      </trkpt>
      <trkpt lat="48.8283" lon="2.38435">
        <ele>70.5</ele>
        <time>2013-03-03T14:58:20.000Z</time>
      </trkpt>
      <trkpt lat="48.82832" lon="2.38432">
        <ele>70.3</ele>
        <time>2013-03-03T14:58:21.000Z</time>
      </trkpt>
      <trkpt lat="48.82834" lon="2.38429">
        <ele>70.7</ele>
        <time>2013-03-03T14:58:22.000Z</time>
      </trkpt>
      <trkpt lat="48.82837" lon="2.38425">
        <ele>70.5</ele>
        <time>2013-03-03T14:58:23.000Z</time>
      </trkpt>
      <trkpt lat="48.82839" lon="2.38422">
        <ele>70.1</ele>
        <time>2013-03-03T14:58:24.000Z</time>
      </trkpt>
      <trkpt lat="48.82842" lon="2.3842">
        <ele>69.2</ele>
        <time>2013-03-03T14:58:25.000Z</time>
      </trkpt>
      <trkpt lat="48.82844" lon="2.38418">
        <ele>68.5</ele>
        <time>2013-03-03T14:58:26.000Z</time>
      </trkpt>
      <trkpt lat="48.82846" lon="2.38415">
        <ele>66.3</ele>
        <time>2013-03-03T14:58:27.000Z</time>
      </trkpt>
      <trkpt lat="48.82847" lon="2.38412">
        <ele>65.3</ele>
        <time>2013-03-03T14:58:28.000Z</time>
      </trkpt>
      <trkpt lat="48.82847" lon="2.38408">
        <ele>64.4</ele>
        <time>2013-03-03T14:58:29.000Z</time>
      </trkpt>
      <trkpt lat="48.82849" lon="2.38403">
        <ele>62.8</ele>
        <time>2013-03-03T14:58:31.000Z</time>
      </trkpt>
      <trkpt lat="48.82851" lon="2.384">
        <ele>62.6</ele>
        <time>2013-03-03T14:58:32.000Z</time>
      </trkpt>
      <trkpt lat="48.82853" lon="2.38397">
        <ele>61.9</ele>
        <time>2013-03-03T14:58:33.000Z</time>
      </trkpt>
      <trkpt lat="48.82856" lon="2.38394">
        <ele>62.2</ele>
        <time>2013-03-03T14:58:34.000Z</time>
      </trkpt>
      <trkpt lat="48.82857" lon="2.38391">
        <ele>61.2</ele>
        <time>2013-03-03T14:58:35.000Z</time>
      </trkpt>
      <trkpt lat="48.82859" lon="2.38388">
        <ele>60.7</ele>
        <time>2013-03-03T14:58:36.000Z</time>
      </trkpt>
      <trkpt lat="48.82862" lon="2.38386">
        <ele>62</ele>
        <time>2013-03-03T14:58:37.000Z</time>
      </trkpt>
      <trkpt lat="48.82864" lon="2.38384">
        <ele>62.3</ele>
        <time>2013-03-03T14:58:38.000Z</time>
      </trkpt>
      <trkpt lat="48.82867" lon="2.38382">
        <ele>62.7</ele>
        <time>2013-03-03T14:58:39.000Z</time>
      </trkpt>
      <trkpt lat="48.8287" lon="2.38379">
        <ele>62.9</ele>
        <time>2013-03-03T14:58:40.000Z</time>
      </trkpt>
      <trkpt lat="48.82873" lon="2.38378">
        <ele>63.4</ele>
        <time>2013-03-03T14:58:41.000Z</time>
      </trkpt>
      <trkpt lat="48.82876" lon="2.38376">
        <ele>63.9</ele>
        <time>2013-03-03T14:58:42.000Z</time>
      </trkpt>
      <trkpt lat="48.82878" lon="2.38374">
        <ele>63.4</ele>
        <time>2013-03-03T14:58:43.000Z</time>
      </trkpt>
      <trkpt lat="48.8288" lon="2.38372">
        <ele>62.8</ele>
        <time>2013-03-03T14:58:44.000Z</time>
      </trkpt>
      <trkpt lat="48.82882" lon="2.3837">
        <ele>62.4</ele>
        <time>2013-03-03T14:58:45.000Z</time>
      </trkpt>
      <trkpt lat="48.82884" lon="2.38368">
        <ele>62.1</ele>
        <time>2013-03-03T14:58:46.000Z</time>
      </trkpt>
      <trkpt lat="48.82886" lon="2.38365">
        <ele>62.1</ele>
        <time>2013-03-03T14:58:47.000Z</time>
      </trkpt>
      <trkpt lat="48.82888" lon="2.38363">
        <ele>61.4</ele>
        <time>2013-03-03T14:58:48.000Z</time>
      </trkpt>
      <trkpt lat="48.8289" lon="2.38361">
        <ele>61.5</ele>
        <time>2013-03-03T14:58:49.000Z</time>
      </trkpt>
      <trkpt lat="48.82892" lon="2.38358">
        <ele>61.4</ele>
        <time>2013-03-03T14:58:50.000Z</time>
      </trkpt>
      <trkpt lat="48.82895" lon="2.38355">
        <ele>61</ele>
        <time>2013-03-03T14:58:52.000Z</time>
      </trkpt>
      <trkpt lat="48.82897" lon="2.38353">
        <ele>60.5</ele>
        <time>2013-03-03T14:58:53.000Z</time>
      </trkpt>
      <trkpt lat="48.82898" lon="2.38348">
        <ele>59.8</ele>
        <time>2013-03-03T14:58:55.000Z</time>
      </trkpt>
      <trkpt lat="48.82898" lon="2.38345">
        <ele>59.4</ele>
        <time>2013-03-03T14:58:56.000Z</time>
      </trkpt>
      <trkpt lat="48.82898" lon="2.3834">
        <ele>59</ele>
        <time>2013-03-03T14:58:58.000Z</time>
      </trkpt>
      <trkpt lat="48.82898" lon="2.38337">
        <ele>59</ele>
        <time>2013-03-03T14:58:59.000Z</time>
      </trkpt>
      <trkpt lat="48.82898" lon="2.38334">
        <ele>59.8</ele>
        <time>2013-03-03T14:59:00.000Z</time>
      </trkpt>
      <trkpt lat="48.82897" lon="2.3833">
        <ele>58.9</ele>
        <time>2013-03-03T14:59:01.000Z</time>
      </trkpt>
      <trkpt lat="48.82897" lon="2.38325">
        <ele>59.3</ele>
        <time>2013-03-03T14:59:02.000Z</time>
      </trkpt>
      <trkpt lat="48.82896" lon="2.3832">
        <ele>59.4</ele>
        <time>2013-03-03T14:59:03.000Z</time>
      </trkpt>
      <trkpt lat="48.82895" lon="2.38312">
        <ele>59.6</ele>
        <time>2013-03-03T14:59:04.000Z</time>
      </trkpt>
      <trkpt lat="48.82895" lon="2.38306">
        <ele>60</ele>
        <time>2013-03-03T14:59:05.000Z</time>
      </trkpt>
      <trkpt lat="48.82894" lon="2.383">
        <ele>60</ele>
        <time>2013-03-03T14:59:06.000Z</time>
      </trkpt>
      <trkpt lat="48.82893" lon="2.38294">
        <ele>60.2</ele>
        <time>2013-03-03T14:59:07.000Z</time>
      </trkpt>
      <trkpt lat="48.82892" lon="2.38288">
        <ele>61</ele>
        <time>2013-03-03T14:59:08.000Z</time>
      </trkpt>
      <trkpt lat="48.82892" lon="2.38282">
        <ele>61.4</ele>
        <time>2013-03-03T14:59:09.000Z</time>
      </trkpt>
      <trkpt lat="48.8289" lon="2.38277">
        <ele>61.1</ele>
        <time>2013-03-03T14:59:10.000Z</time>
      </trkpt>
      <trkpt lat="48.82888" lon="2.38274">
        <ele>60.7</ele>
        <time>2013-03-03T14:59:11.000Z</time>
      </trkpt>
      <trkpt lat="48.82886" lon="2.38271">
        <ele>61.5</ele>
        <time>2013-03-03T14:59:12.000Z</time>
      </trkpt>
      <trkpt lat="48.82883" lon="2.38268">
        <ele>61.6</ele>
        <time>2013-03-03T14:59:13.000Z</time>
      </trkpt>
      <trkpt lat="48.82881" lon="2.38264">
        <ele>61.7</ele>
        <time>2013-03-03T14:59:14.000Z</time>
      </trkpt>
      <trkpt lat="48.82879" lon="2.38259">
        <ele>62.1</ele>
        <time>2013-03-03T14:59:15.000Z</time>
      </trkpt>
      <trkpt lat="48.82876" lon="2.38255">
        <ele>61.4</ele>
        <time>2013-03-03T14:59:16.000Z</time>
      </trkpt>
      <trkpt lat="48.82873" lon="2.3825">
        <ele>62.5</ele>
        <time>2013-03-03T14:59:17.000Z</time>
      </trkpt>
      <trkpt lat="48.8287" lon="2.38246">
        <ele>62.1</ele>
        <time>2013-03-03T14:59:18.000Z</time>
      </trkpt>
      <trkpt lat="48.82866" lon="2.38241">
        <ele>62.7</ele>
        <time>2013-03-03T14:59:19.000Z</time>
      </trkpt>
      <trkpt lat="48.82863" lon="2.38236">
        <ele>63.4</ele>
        <time>2013-03-03T14:59:20.000Z</time>
      </trkpt>
      <trkpt lat="48.82859" lon="2.38233">
        <ele>63.6</ele>
        <time>2013-03-03T14:59:21.000Z</time>
      </trkpt>
      <trkpt lat="48.82858" lon="2.38228">
        <ele>64.5</ele>
        <time>2013-03-03T14:59:22.000Z</time>
      </trkpt>
      <trkpt lat="48.82858" lon="2.38223">
        <ele>64.5</ele>
        <time>2013-03-03T14:59:23.000Z</time>
      </trkpt>
      <trkpt lat="48.8286" lon="2.38219">
        <ele>65.6</ele>
        <time>2013-03-03T14:59:24.000Z</time>
      </trkpt>
      <trkpt lat="48.82862" lon="2.38214">
        <ele>66.4</ele>
        <time>2013-03-03T14:59:25.000Z</time>
      </trkpt>
      <trkpt lat="48.82864" lon="2.3821">
        <ele>67.4</ele>
        <time>2013-03-03T14:59:26.000Z</time>
      </trkpt>
      <trkpt lat="48.82867" lon="2.38207">
        <ele>69.4</ele>
        <time>2013-03-03T14:59:27.000Z</time>
      </trkpt>
      <trkpt lat="48.82869" lon="2.38204">
        <ele>71.1</ele>
        <time>2013-03-03T14:59:28.000Z</time>
      </trkpt>
      <trkpt lat="48.82872" lon="2.38199">
        <ele>70.6</ele>
        <time>2013-03-03T14:59:30.000Z</time>
      </trkpt>
      <trkpt lat="48.82873" lon="2.38198">
        <ele>70.8</ele>
        <time>2013-03-03T14:59:31.000Z</time>
      </trkpt>
      <trkpt lat="48.82874" lon="2.38194">
        <ele>68.5</ele>
        <time>2013-03-03T14:59:34.000Z</time>
      </trkpt>
      <trkpt lat="48.82875" lon="2.38191">
        <ele>67.9</ele>
        <time>2013-03-03T14:59:35.000Z</time>
      </trkpt>
      <trkpt lat="48.82877" lon="2.38188">
        <ele>67.6</ele>
        <time>2013-03-03T14:59:36.000Z</time>
      </trkpt>
      <trkpt lat="48.82879" lon="2.38184">
        <ele>68</ele>
        <time>2013-03-03T14:59:37.000Z</time>
      </trkpt>
      <trkpt lat="48.8288" lon="2.38179">
        <ele>68.6</ele>
        <time>2013-03-03T14:59:38.000Z</time>
      </trkpt>
      <trkpt lat="48.82881" lon="2.38174">
        <ele>70.3</ele>
        <time>2013-03-03T14:59:39.000Z</time>
      </trkpt>
      <trkpt lat="48.8288" lon="2.38169">
        <ele>72.7</ele>
        <time>2013-03-03T14:59:40.000Z</time>
      </trkpt>
      <trkpt lat="48.82879" lon="2.38164">
        <ele>73.7</ele>
        <time>2013-03-03T14:59:41.000Z</time>
      </trkpt>
      <trkpt lat="48.82877" lon="2.3816">
        <ele>73</ele>
        <time>2013-03-03T14:59:42.000Z</time>
      </trkpt>
      <trkpt lat="48.82876" lon="2.38156">
        <ele>73.3</ele>
        <time>2013-03-03T14:59:43.000Z</time>
      </trkpt>
      <trkpt lat="48.82874" lon="2.38152">
        <ele>71.4</ele>
        <time>2013-03-03T14:59:44.000Z</time>
      </trkpt>
      <trkpt lat="48.82873" lon="2.38148">
        <ele>71.1</ele>
        <time>2013-03-03T14:59:45.000Z</time>
      </trkpt>
      <trkpt lat="48.82872" lon="2.38142">
        <ele>66.4</ele>
        <time>2013-03-03T14:59:47.000Z</time>
      </trkpt>
      <trkpt lat="48.82871" lon="2.3814">
        <ele>66.3</ele>
        <time>2013-03-03T14:59:48.000Z</time>
      </trkpt>
      <trkpt lat="48.8287" lon="2.38135">
        <ele>65.4</ele>
        <time>2013-03-03T14:59:50.000Z</time>
      </trkpt>
      <trkpt lat="48.8287" lon="2.38132">
        <ele>65.4</ele>
        <time>2013-03-03T14:59:51.000Z</time>
      </trkpt>
      <trkpt lat="48.8287" lon="2.38127">
        <ele>64.9</ele>
        <time>2013-03-03T14:59:53.000Z</time>
      </trkpt>
      <trkpt lat="48.82871" lon="2.38124">
        <ele>66.2</ele>
        <time>2013-03-03T14:59:54.000Z</time>
      </trkpt>
      <trkpt lat="48.82874" lon="2.38119">
        <ele>64.8</ele>
        <time>2013-03-03T14:59:56.000Z</time>
      </trkpt>
      <trkpt lat="48.82874" lon="2.38116">
        <ele>65.4</ele>
        <time>2013-03-03T14:59:57.000Z</time>
      </trkpt>
      <trkpt lat="48.82875" lon="2.3811">
        <ele>65.6</ele>
        <time>2013-03-03T15:00:00.000Z</time>
      </trkpt>
      <trkpt lat="48.82876" lon="2.38108">
        <ele>65.2</ele>
        <time>2013-03-03T15:00:01.000Z</time>
      </trkpt>
      <trkpt lat="48.82876" lon="2.38101">
        <ele>66.4</ele>
        <time>2013-03-03T15:00:07.000Z</time>
      </trkpt>
      <trkpt lat="48.82876" lon="2.381">
        <ele>66.9</ele>
        <time>2013-03-03T15:00:08.000Z</time>
      </trkpt>
      <trkpt lat="48.82875" lon="2.38094">
        <ele>70.4</ele>
        <time>2013-03-03T15:00:29.000Z</time>
      </trkpt>
      <trkpt lat="48.82875" lon="2.38094">
        <ele>71.2</ele>
        <time>2013-03-03T15:00:31.000Z</time>
      </trkpt>
      <trkpt lat="48.82877" lon="2.3809">
        <ele>74.1</ele>
        <time>2013-03-03T15:00:48.000Z</time>
      </trkpt>
      <trkpt lat="48.82879" lon="2.38089">
        <ele>74.5</ele>
        <time>2013-03-03T15:00:49.000Z</time>
      </trkpt>
      <trkpt lat="48.82881" lon="2.38088">
        <ele>74.8</ele>
        <time>2013-03-03T15:00:50.000Z</time>
      </trkpt>
      <trkpt lat="48.82884" lon="2.38087">
        <ele>75.1</ele>
        <time>2013-03-03T15:00:51.000Z</time>
      </trkpt>
      <trkpt lat="48.82887" lon="2.38085">
        <ele>74.8</ele>
        <time>2013-03-03T15:00:52.000Z</time>
      </trkpt>
      <trkpt lat="48.8289" lon="2.38082">
        <ele>74.5</ele>
        <time>2013-03-03T15:00:53.000Z</time>
      </trkpt>
      <trkpt lat="48.82892" lon="2.38081">
        <ele>74.3</ele>
        <time>2013-03-03T15:00:54.000Z</time>
      </trkpt>
      <trkpt lat="48.82896" lon="2.38076">
        <ele>75.4</ele>
        <time>2013-03-03T15:00:55.000Z</time>
      </trkpt>
      <trkpt lat="48.829" lon="2.38073">
        <ele>74.8</ele>
        <time>2013-03-03T15:00:56.000Z</time>
      </trkpt>
      <trkpt lat="48.82905" lon="2.3807">
        <ele>73.8</ele>
        <time>2013-03-03T15:00:57.000Z</time>
      </trkpt>
      <trkpt lat="48.8291" lon="2.38067">
        <ele>73.2</ele>
        <time>2013-03-03T15:00:58.000Z</time>
      </trkpt>
      <trkpt lat="48.82916" lon="2.38064">
        <ele>74.9</ele>
        <time>2013-03-03T15:00:59.000Z</time>
      </trkpt>
      <trkpt lat="48.82921" lon="2.38061">
        <ele>75.3</ele>
        <time>2013-03-03T15:01:00.000Z</time>
      </trkpt>
      <trkpt lat="48.82926" lon="2.38059">
        <ele>74.4</ele>
        <time>2013-03-03T15:01:01.000Z</time>
      </trkpt>
      <trkpt lat="48.8293" lon="2.38057">
        <ele>74.1</ele>
        <time>2013-03-03T15:01:02.000Z</time>
      </trkpt>
      <trkpt lat="48.82934" lon="2.38055">
        <ele>74.3</ele>
        <time>2013-03-03T15:01:03.000Z</time>
      </trkpt>
      <trkpt lat="48.82939" lon="2.38053">
        <ele>75.6</ele>
        <time>2013-03-03T15:01:04.000Z</time>
      </trkpt>
      <trkpt lat="48.82943" lon="2.38051">
        <ele>75.3</ele>
        <time>2013-03-03T15:01:05.000Z</time>
      </trkpt>
      <trkpt lat="48.82947" lon="2.3805">
        <ele>75.1</ele>
        <time>2013-03-03T15:01:06.000Z</time>
      </trkpt>
      <trkpt lat="48.82952" lon="2.3805">
        <ele>75.7</ele>
        <time>2013-03-03T15:01:07.000Z</time>
      </trkpt>
      <trkpt lat="48.82957" lon="2.3805">
        <ele>77.3</ele>
        <time>2013-03-03T15:01:08.000Z</time>
      </trkpt>
      <trkpt lat="48.82966" lon="2.38049">
        <ele>76.7</ele>
        <time>2013-03-03T15:01:09.000Z</time>
      </trkpt>
      <trkpt lat="48.82971" lon="2.38049">
        <ele>76.6</ele>
        <time>2013-03-03T15:01:10.000Z</time>
      </trkpt>
      <trkpt lat="48.82977" lon="2.38048">
        <ele>79.3</ele>
        <time>2013-03-03T15:01:11.000Z</time>
      </trkpt>
      <trkpt lat="48.82981" lon="2.38046">
        <ele>79.7</ele>
        <time>2013-03-03T15:01:12.000Z</time>
      </trkpt>
      <trkpt lat="48.82986" lon="2.38046">
        <ele>78.8</ele>
        <time>2013-03-03T15:01:13.000Z</time>
      </trkpt>
      <trkpt lat="48.82989" lon="2.38043">
        <ele>79.3</ele>
        <time>2013-03-03T15:01:14.000Z</time>
      </trkpt>
      <trkpt lat="48.82991" lon="2.38047">
        <ele>79</ele>
        <time>2013-03-03T15:01:15.000Z</time>
      </trkpt>
      <trkpt lat="48.82995" lon="2.38049">
        <ele>77.6</ele>
        <time>2013-03-03T15:01:16.000Z</time>
      </trkpt>
      <trkpt lat="48.83" lon="2.38053">
        <ele>75.6</ele>
        <time>2013-03-03T15:01:17.000Z</time>
      </trkpt>
      <trkpt lat="48.83004" lon="2.38053">
        <ele>75.7</ele>
        <time>2013-03-03T15:01:18.000Z</time>
      </trkpt>
      <trkpt lat="48.83007" lon="2.38053">
        <ele>75.4</ele>
        <time>2013-03-03T15:01:19.000Z</time>
      </trkpt>
      <trkpt lat="48.83011" lon="2.38051">
        <ele>75.1</ele>
        <time>2013-03-03T15:01:20.000Z</time>
      </trkpt>
      <trkpt lat="48.83014" lon="2.38051">
        <ele>76.8</ele>
        <time>2013-03-03T15:01:21.000Z</time>
      </trkpt>
      <trkpt lat="48.83019" lon="2.38049">
        <ele>77.1</ele>
        <time>2013-03-03T15:01:22.000Z</time>
      </trkpt>
      <trkpt lat="48.83023" lon="2.38047">
        <ele>76.4</ele>
        <time>2013-03-03T15:01:23.000Z</time>
      </trkpt>
      <trkpt lat="48.83027" lon="2.38045">
        <ele>76.1</ele>
        <time>2013-03-03T15:01:24.000Z</time>
      </trkpt>
      <trkpt lat="48.83029" lon="2.38041">
        <ele>75.3</ele>
        <time>2013-03-03T15:01:25.000Z</time>
      </trkpt>
      <trkpt lat="48.83032" lon="2.38038">
        <ele>74.9</ele>
        <time>2013-03-03T15:01:26.000Z</time>
      </trkpt>
      <trkpt lat="48.83035" lon="2.38035">
        <ele>75.8</ele>
        <time>2013-03-03T15:01:27.000Z</time>
      </trkpt>
      <trkpt lat="48.83038" lon="2.38031">
        <ele>76.5</ele>
        <time>2013-03-03T15:01:28.000Z</time>
      </trkpt>
      <trkpt lat="48.83041" lon="2.38028">
        <ele>77</ele>
        <time>2013-03-03T15:01:29.000Z</time>
      </trkpt>
      <trkpt lat="48.83044" lon="2.38024">
        <ele>77.1</ele>
        <time>2013-03-03T15:01:30.000Z</time>
      </trkpt>
      <trkpt lat="48.83048" lon="2.3802">
        <ele>78</ele>
        <time>2013-03-03T15:01:31.000Z</time>
      </trkpt>
      <trkpt lat="48.83054" lon="2.38013">
        <ele>77.8</ele>
        <time>2013-03-03T15:01:32.000Z</time>
      </trkpt>
      <trkpt lat="48.83062" lon="2.38013">
        <ele>75.7</ele>
        <time>2013-03-03T15:01:33.000Z</time>
      </trkpt>
      <trkpt lat="48.83067" lon="2.38009">
        <ele>76.4</ele>
        <time>2013-03-03T15:01:34.000Z</time>
      </trkpt>
      <trkpt lat="48.83073" lon="2.38005">
        <ele>73.9</ele>
        <time>2013-03-03T15:01:35.000Z</time>
      </trkpt>
      <trkpt lat="48.83077" lon="2.38">
        <ele>74.3</ele>
        <time>2013-03-03T15:01:36.000Z</time>
      </trkpt>
      <trkpt lat="48.83083" lon="2.37998">
        <ele>73.8</ele>
        <time>2013-03-03T15:01:37.000Z</time>
      </trkpt>
      <trkpt lat="48.83089" lon="2.37991">
        <ele>75.2</ele>
        <time>2013-03-03T15:01:38.000Z</time>
      </trkpt>
      <trkpt lat="48.83095" lon="2.37986">
        <ele>74.5</ele>
        <time>2013-03-03T15:01:39.000Z</time>
      </trkpt>
      <trkpt lat="48.83103" lon="2.37976">
        <ele>76.1</ele>
        <time>2013-03-03T15:01:40.000Z</time>
      </trkpt>
      <trkpt lat="48.83108" lon="2.37971">
        <ele>76</ele>
        <time>2013-03-03T15:01:41.000Z</time>
      </trkpt>
      <trkpt lat="48.83113" lon="2.37967">
        <ele>76.1</ele>
        <time>2013-03-03T15:01:42.000Z</time>
      </trkpt>
      <trkpt lat="48.83117" lon="2.37961">
        <ele>77.3</ele>
        <time>2013-03-03T15:01:43.000Z</time>
      </trkpt>
      <trkpt lat="48.83121" lon="2.37955">
        <ele>77.3</ele>
        <time>2013-03-03T15:01:44.000Z</time>
      </trkpt>
      <trkpt lat="48.83125" lon="2.37948">
        <ele>77.2</ele>
        <time>2013-03-03T15:01:45.000Z</time>
      </trkpt>
      <trkpt lat="48.83129" lon="2.37944">
        <ele>78.1</ele>
        <time>2013-03-03T15:01:46.000Z</time>
      </trkpt>
      <trkpt lat="48.83136" lon="2.37942">
        <ele>76</ele>
        <time>2013-03-03T15:01:47.000Z</time>
      </trkpt>
      <trkpt lat="48.8314" lon="2.3794">
        <ele>77.1</ele>
        <time>2013-03-03T15:01:48.000Z</time>
      </trkpt>
      <trkpt lat="48.83144" lon="2.37936">
        <ele>76.8</ele>
        <time>2013-03-03T15:01:49.000Z</time>
      </trkpt>
      <trkpt lat="48.83149" lon="2.37933">
        <ele>77.1</ele>
        <time>2013-03-03T15:01:50.000Z</time>
      </trkpt>
      <trkpt lat="48.83157" lon="2.37929">
        <ele>77.7</ele>
        <time>2013-03-03T15:01:51.000Z</time>
      </trkpt>
      <trkpt lat="48.83164" lon="2.37928">
        <ele>78</ele>
        <time>2013-03-03T15:01:52.000Z</time>
      </trkpt>
      <trkpt lat="48.83167" lon="2.37923">
        <ele>78.4</ele>
        <time>2013-03-03T15:01:53.000Z</time>
      </trkpt>
      <trkpt lat="48.83166" lon="2.37914">
        <ele>71.5</ele>
        <time>2013-03-03T15:01:54.000Z</time>
      </trkpt>
      <trkpt lat="48.8317" lon="2.3791">
        <ele>72.8</ele>
        <time>2013-03-03T15:01:55.000Z</time>
      </trkpt>
      <trkpt lat="48.83171" lon="2.37906">
        <ele>76.8</ele>
        <time>2013-03-03T15:01:58.000Z</time>
      </trkpt>
      <trkpt lat="48.83172" lon="2.37903">
        <ele>78</ele>
        <time>2013-03-03T15:01:59.000Z</time>
      </trkpt>
      <trkpt lat="48.83169" lon="2.37897">
        <ele>86</ele>
        <time>2013-03-03T15:02:20.000Z</time>
      </trkpt>
      <trkpt lat="48.83168" lon="2.37896">
        <ele>86.1</ele>
        <time>2013-03-03T15:02:22.000Z</time>
      </trkpt>
      <trkpt lat="48.83167" lon="2.3789">
        <ele>79.7</ele>
        <time>2013-03-03T15:02:36.000Z</time>
      </trkpt>
      <trkpt lat="48.83166" lon="2.37888">
        <ele>79</ele>
        <time>2013-03-03T15:02:37.000Z</time>
      </trkpt>
      <trkpt lat="48.83165" lon="2.37884">
        <ele>77.7</ele>
        <time>2013-03-03T15:02:39.000Z</time>
      </trkpt>
      <trkpt lat="48.83164" lon="2.37882">
        <ele>77.2</ele>
        <time>2013-03-03T15:02:40.000Z</time>
      </trkpt>
      <trkpt lat="48.83163" lon="2.37876">
        <ele>77.8</ele>
        <time>2013-03-03T15:02:42.000Z</time>
      </trkpt>
      <trkpt lat="48.83162" lon="2.37873">
        <ele>77.3</ele>
        <time>2013-03-03T15:02:43.000Z</time>
      </trkpt>
      <trkpt lat="48.83161" lon="2.37871">
        <ele>76.8</ele>
        <time>2013-03-03T15:02:44.000Z</time>
      </trkpt>
      <trkpt lat="48.83159" lon="2.37866">
        <ele>75</ele>
        <time>2013-03-03T15:02:45.000Z</time>
      </trkpt>
      <trkpt lat="48.83157" lon="2.37861">
        <ele>75.2</ele>
        <time>2013-03-03T15:02:47.000Z</time>
      </trkpt>
      <trkpt lat="48.83155" lon="2.37855">
        <ele>75.3</ele>
        <time>2013-03-03T15:02:48.000Z</time>
      </trkpt>
      <trkpt lat="48.83154" lon="2.37853">
        <ele>75.1</ele>
        <time>2013-03-03T15:02:49.000Z</time>
      </trkpt>
      <trkpt lat="48.83152" lon="2.37848">
        <ele>72.9</ele>
        <time>2013-03-03T15:02:50.000Z</time>
      </trkpt>
      <trkpt lat="48.83151" lon="2.37845">
        <ele>72.2</ele>
        <time>2013-03-03T15:02:51.000Z</time>
      </trkpt>
      <trkpt lat="48.83149" lon="2.3784">
        <ele>71.9</ele>
        <time>2013-03-03T15:02:52.000Z</time>
      </trkpt>
      <trkpt lat="48.83148" lon="2.37837">
        <ele>72.4</ele>
        <time>2013-03-03T15:02:53.000Z</time>
      </trkpt>
      <trkpt lat="48.83146" lon="2.37833">
        <ele>72.2</ele>
        <time>2013-03-03T15:02:54.000Z</time>
      </trkpt>
      <trkpt lat="48.83146" lon="2.37829">
        <ele>72.7</ele>
        <time>2013-03-03T15:02:55.000Z</time>
      </trkpt>
      <trkpt lat="48.83146" lon="2.37826">
        <ele>73.6</ele>
        <time>2013-03-03T15:02:56.000Z</time>
      </trkpt>
      <trkpt lat="48.83147" lon="2.3782">
        <ele>78.6</ele>
        <time>2013-03-03T15:03:02.000Z</time>
      </trkpt>
      <trkpt lat="48.83147" lon="2.37819">
        <ele>78.1</ele>
        <time>2013-03-03T15:03:03.000Z</time>
      </trkpt>
      <trkpt lat="48.83148" lon="2.37813">
        <ele>77.9</ele>
        <time>2013-03-03T15:03:24.000Z</time>
      </trkpt>
      <trkpt lat="48.83148" lon="2.37813">
        <ele>77.3</ele>
        <time>2013-03-03T15:03:25.000Z</time>
      </trkpt>
      <trkpt lat="48.83148" lon="2.37806">
        <ele>73.5</ele>
        <time>2013-03-03T15:03:37.000Z</time>
      </trkpt>
      <trkpt lat="48.83149" lon="2.37804">
        <ele>73.1</ele>
        <time>2013-03-03T15:03:38.000Z</time>
      </trkpt>
      <trkpt lat="48.83151" lon="2.37802">
        <ele>72.2</ele>
        <time>2013-03-03T15:03:39.000Z</time>
      </trkpt>
      <trkpt lat="48.83154" lon="2.37799">
        <ele>71.8</ele>
        <time>2013-03-03T15:03:40.000Z</time>
      </trkpt>
      <trkpt lat="48.83156" lon="2.37796">
        <ele>71</ele>
        <time>2013-03-03T15:03:41.000Z</time>
      </trkpt>
      <trkpt lat="48.83158" lon="2.37793">
        <ele>70.2</ele>
        <time>2013-03-03T15:03:42.000Z</time>
      </trkpt>
      <trkpt lat="48.83161" lon="2.3779">
        <ele>70.1</ele>
        <time>2013-03-03T15:03:43.000Z</time>
      </trkpt>
      <trkpt lat="48.83164" lon="2.37786">
        <ele>69.9</ele>
        <time>2013-03-03T15:03:44.000Z</time>
      </trkpt>
      <trkpt lat="48.83168" lon="2.37783">
        <ele>69.2</ele>
        <time>2013-03-03T15:03:45.000Z</time>
      </trkpt>
      <trkpt lat="48.83173" lon="2.3778">
        <ele>69.6</ele>
        <time>2013-03-03T15:03:46.000Z</time>
      </trkpt>
      <trkpt lat="48.83177" lon="2.37777">
        <ele>68.9</ele>
        <time>2013-03-03T15:03:47.000Z</time>
      </trkpt>
      <trkpt lat="48.83181" lon="2.37774">
        <ele>69</ele>
        <time>2013-03-03T15:03:48.000Z</time>
      </trkpt>
      <trkpt lat="48.83186" lon="2.37772">
        <ele>68.9</ele>
        <time>2013-03-03T15:03:49.000Z</time>
      </trkpt>
      <trkpt lat="48.8319" lon="2.37769">
        <ele>69.4</ele>
        <time>2013-03-03T15:03:50.000Z</time>
      </trkpt>
      <trkpt lat="48.83192" lon="2.37757">
        <ele>69.7</ele>
        <time>2013-03-03T15:03:51.000Z</time>
      </trkpt>
      <trkpt lat="48.83194" lon="2.37752">
        <ele>69.9</ele>
        <time>2013-03-03T15:03:52.000Z</time>
      </trkpt>
      <trkpt lat="48.83196" lon="2.37746">
        <ele>69.9</ele>
        <time>2013-03-03T15:03:53.000Z</time>
      </trkpt>
      <trkpt lat="48.83205" lon="2.37744">
        <ele>69</ele>
        <time>2013-03-03T15:03:54.000Z</time>
      </trkpt>
      <trkpt lat="48.83205" lon="2.37744">
        <ele>67.5</ele>
        <time>2013-03-03T15:03:55.000Z</time>
      </trkpt>
      <trkpt lat="48.83209" lon="2.37742">
        <ele>67.8</ele>
        <time>2013-03-03T15:03:56.000Z</time>
      </trkpt>
      <trkpt lat="48.83209" lon="2.37737">
        <ele>70.5</ele>
        <time>2013-03-03T15:03:58.000Z</time>
      </trkpt>
      <trkpt lat="48.83207" lon="2.37734">
        <ele>70</ele>
        <time>2013-03-03T15:03:59.000Z</time>
      </trkpt>
      <trkpt lat="48.83208" lon="2.37728">
        <ele>68.9</ele>
        <time>2013-03-03T15:04:01.000Z</time>
      </trkpt>
      <trkpt lat="48.83208" lon="2.37726">
        <ele>65.1</ele>
        <time>2013-03-03T15:04:02.000Z</time>
      </trkpt>
      <trkpt lat="48.83205" lon="2.37722">
        <ele>67</ele>
        <time>2013-03-03T15:04:07.000Z</time>
      </trkpt>
      <trkpt lat="48.83205" lon="2.3772">
        <ele>66.1</ele>
        <time>2013-03-03T15:04:08.000Z</time>
      </trkpt>
      <trkpt lat="48.83204" lon="2.37717">
        <ele>66.2</ele>
        <time>2013-03-03T15:04:09.000Z</time>
      </trkpt>
      <trkpt lat="48.83202" lon="2.37714">
        <ele>66.8</ele>
        <time>2013-03-03T15:04:10.000Z</time>
      </trkpt>
      <trkpt lat="48.83201" lon="2.37709">
        <ele>66.4</ele>
        <time>2013-03-03T15:04:11.000Z</time>
      </trkpt>
      <trkpt lat="48.83199" lon="2.37705">
        <ele>66.6</ele>
        <time>2013-03-03T15:04:12.000Z</time>
      </trkpt>
      <trkpt lat="48.83197" lon="2.37702">
        <ele>66.5</ele>
        <time>2013-03-03T15:04:13.000Z</time>
      </trkpt>
      <trkpt lat="48.83195" lon="2.37697">
        <ele>67.6</ele>
        <time>2013-03-03T15:04:14.000Z</time>
      </trkpt>
      <trkpt lat="48.83193" lon="2.37691">
        <ele>69.3</ele>
        <time>2013-03-03T15:04:15.000Z</time>
      </trkpt>
      <trkpt lat="48.83191" lon="2.37685">
        <ele>69.6</ele>
        <time>2013-03-03T15:04:16.000Z</time>
      </trkpt>
      <trkpt lat="48.83188" lon="2.37679">
        <ele>70.1</ele>
        <time>2013-03-03T15:04:17.000Z</time>
      </trkpt>
      <trkpt lat="48.83186" lon="2.37672">
        <ele>71.1</ele>
        <time>2013-03-03T15:04:18.000Z</time>
      </trkpt>
      <trkpt lat="48.83184" lon="2.37668">
        <ele>71.2</ele>
        <time>2013-03-03T15:04:19.000Z</time>
      </trkpt>
      <trkpt lat="48.8318" lon="2.37658">
        <ele>73.9</ele>
        <time>2013-03-03T15:04:20.000Z</time>
      </trkpt>
      <trkpt lat="48.83178" lon="2.37653">
        <ele>74.4</ele>
        <time>2013-03-03T15:04:21.000Z</time>
      </trkpt>
      <trkpt lat="48.83174" lon="2.37643">
        <ele>75.2</ele>
        <time>2013-03-03T15:04:22.000Z</time>
      </trkpt>
      <trkpt lat="48.83172" lon="2.37638">
        <ele>75.4</ele>
        <time>2013-03-03T15:04:23.000Z</time>
      </trkpt>
      <trkpt lat="48.83169" lon="2.37631">
        <ele>75.8</ele>
        <time>2013-03-03T15:04:24.000Z</time>
      </trkpt>
      <trkpt lat="48.83165" lon="2.37625">
        <ele>74.8</ele>
        <time>2013-03-03T15:04:25.000Z</time>
      </trkpt>
      <trkpt lat="48.83162" lon="2.3762">
        <ele>74.9</ele>
        <time>2013-03-03T15:04:26.000Z</time>
      </trkpt>
      <trkpt lat="48.83159" lon="2.37613">
        <ele>76.9</ele>
        <time>2013-03-03T15:04:27.000Z</time>
      </trkpt>
      <trkpt lat="48.83157" lon="2.37608">
        <ele>77</ele>
        <time>2013-03-03T15:04:28.000Z</time>
      </trkpt>
      <trkpt lat="48.83159" lon="2.37601">
        <ele>80.1</ele>
        <time>2013-03-03T15:04:29.000Z</time>
      </trkpt>
      <trkpt lat="48.8316" lon="2.37595">
        <ele>80.2</ele>
        <time>2013-03-03T15:04:30.000Z</time>
      </trkpt>
      <trkpt lat="48.83165" lon="2.37596">
        <ele>80.7</ele>
        <time>2013-03-03T15:04:31.000Z</time>
      </trkpt>
      <trkpt lat="48.83166" lon="2.37593">
        <ele>80.6</ele>
        <time>2013-03-03T15:04:32.000Z</time>
      </trkpt>
      <trkpt lat="48.83169" lon="2.37592">
        <ele>80.5</ele>
        <time>2013-03-03T15:04:33.000Z</time>
      </trkpt>
      <trkpt lat="48.83171" lon="2.37586">
        <ele>80.6</ele>
        <time>2013-03-03T15:04:35.000Z</time>
      </trkpt>
      <trkpt lat="48.83173" lon="2.37586">
        <ele>79.1</ele>
        <time>2013-03-03T15:04:36.000Z</time>
      </trkpt>
      <trkpt lat="48.83176" lon="2.37585">
        <ele>78.3</ele>
        <time>2013-03-03T15:04:38.000Z</time>
      </trkpt>
      <trkpt lat="48.83178" lon="2.37584">
        <ele>78</ele>
        <time>2013-03-03T15:04:39.000Z</time>
      </trkpt>
      <trkpt lat="48.8318" lon="2.37583">
        <ele>75.7</ele>
        <time>2013-03-03T15:04:41.000Z</time>
      </trkpt>
      <trkpt lat="48.83182" lon="2.37582">
        <ele>75</ele>
        <time>2013-03-03T15:04:42.000Z</time>
      </trkpt>
      <trkpt lat="48.83185" lon="2.3758">
        <ele>74.7</ele>
        <time>2013-03-03T15:04:44.000Z</time>
      </trkpt>
      <trkpt lat="48.83187" lon="2.37577">
        <ele>76.1</ele>
        <time>2013-03-03T15:04:45.000Z</time>
      </trkpt>
      <trkpt lat="48.83189" lon="2.37576">
        <ele>75.9</ele>
        <time>2013-03-03T15:04:46.000Z</time>
      </trkpt>
      <trkpt lat="48.83192" lon="2.37573">
        <ele>77</ele>
        <time>2013-03-03T15:04:47.000Z</time>
      </trkpt>
      <trkpt lat="48.83194" lon="2.37571">
        <ele>76.8</ele>
        <time>2013-03-03T15:04:48.000Z</time>
      </trkpt>
      <trkpt lat="48.83197" lon="2.37568">
        <ele>76.5</ele>
        <time>2013-03-03T15:04:49.000Z</time>
      </trkpt>
      <trkpt lat="48.83199" lon="2.37565">
        <ele>77.3</ele>
        <time>2013-03-03T15:04:50.000Z</time>
      </trkpt>
      <trkpt lat="48.83201" lon="2.37562">
        <ele>77.2</ele>
        <time>2013-03-03T15:04:51.000Z</time>
      </trkpt>
      <trkpt lat="48.83204" lon="2.37558">
        <ele>77.3</ele>
        <time>2013-03-03T15:04:52.000Z</time>
      </trkpt>
      <trkpt lat="48.83205" lon="2.37556">
        <ele>77.3</ele>
        <time>2013-03-03T15:04:53.000Z</time>
      </trkpt>
      <trkpt lat="48.83209" lon="2.37553">
        <ele>76.7</ele>
        <time>2013-03-03T15:04:54.000Z</time>
      </trkpt>
      <trkpt lat="48.83211" lon="2.3755">
        <ele>76.6</ele>
        <time>2013-03-03T15:04:55.000Z</time>
      </trkpt>
      <trkpt lat="48.83214" lon="2.37548">
        <ele>76.3</ele>
        <time>2013-03-03T15:04:56.000Z</time>
      </trkpt>
      <trkpt lat="48.83217" lon="2.37546">
        <ele>75.9</ele>
        <time>2013-03-03T15:04:57.000Z</time>
      </trkpt>
      <trkpt lat="48.8322" lon="2.37544">
        <ele>75.8</ele>
        <time>2013-03-03T15:04:58.000Z</time>
      </trkpt>
      <trkpt lat="48.83223" lon="2.37541">
        <ele>76.3</ele>
        <time>2013-03-03T15:04:59.000Z</time>
      </trkpt>
      <trkpt lat="48.83226" lon="2.37537">
        <ele>77.5</ele>
        <time>2013-03-03T15:05:00.000Z</time>
      </trkpt>
      <trkpt lat="48.8323" lon="2.37534">
        <ele>77.3</ele>
        <time>2013-03-03T15:05:01.000Z</time>
      </trkpt>
      <trkpt lat="48.83233" lon="2.3753">
        <ele>78.1</ele>
        <time>2013-03-03T15:05:02.000Z</time>
      </trkpt>
      <trkpt lat="48.83237" lon="2.37527">
        <ele>77.9</ele>
        <time>2013-03-03T15:05:03.000Z</time>
      </trkpt>
      <trkpt lat="48.83241" lon="2.37524">
        <ele>77.7</ele>
        <time>2013-03-03T15:05:04.000Z</time>
      </trkpt>
      <trkpt lat="48.83244" lon="2.37521">
        <ele>78.3</ele>
        <time>2013-03-03T15:05:05.000Z</time>
      </trkpt>
      <trkpt lat="48.83247" lon="2.37517">
        <ele>78.2</ele>
        <time>2013-03-03T15:05:06.000Z</time>
      </trkpt>
      <trkpt lat="48.8325" lon="2.37514">
        <ele>78.4</ele>
        <time>2013-03-03T15:05:07.000Z</time>
      </trkpt>
      <trkpt lat="48.83253" lon="2.3751">
        <ele>82</ele>
        <time>2013-03-03T15:05:08.000Z</time>
      </trkpt>
      <trkpt lat="48.83256" lon="2.37507">
        <ele>82.1</ele>
        <time>2013-03-03T15:05:09.000Z</time>
      </trkpt>
      <trkpt lat="48.83259" lon="2.37505">
        <ele>83.6</ele>
        <time>2013-03-03T15:05:10.000Z</time>
      </trkpt>
      <trkpt lat="48.83262" lon="2.37502">
        <ele>82.6</ele>
        <time>2013-03-03T15:05:11.000Z</time>
      </trkpt>
      <trkpt lat="48.83265" lon="2.37498">
        <ele>83.3</ele>
        <time>2013-03-03T15:05:12.000Z</time>
      </trkpt>
      <trkpt lat="48.83268" lon="2.37495">
        <ele>83.4</ele>
        <time>2013-03-03T15:05:13.000Z</time>
      </trkpt>
      <trkpt lat="48.83272" lon="2.37491">
        <ele>82.8</ele>
        <time>2013-03-03T15:05:14.000Z</time>
      </trkpt>
      <trkpt lat="48.83276" lon="2.37487">
        <ele>84.9</ele>
        <time>2013-03-03T15:05:15.000Z</time>
      </trkpt>
      <trkpt lat="48.83279" lon="2.37484">
        <ele>84.9</ele>
        <time>2013-03-03T15:05:16.000Z</time>
      </trkpt>
      <trkpt lat="48.83284" lon="2.37479">
        <ele>87</ele>
        <time>2013-03-03T15:05:17.000Z</time>
      </trkpt>
      <trkpt lat="48.83287" lon="2.37475">
        <ele>87.1</ele>
        <time>2013-03-03T15:05:18.000Z</time>
      </trkpt>
      <trkpt lat="48.83291" lon="2.3747">
        <ele>86.3</ele>
        <time>2013-03-03T15:05:19.000Z</time>
      </trkpt>
      <trkpt lat="48.83294" lon="2.37466">
        <ele>86.2</ele>
        <time>2013-03-03T15:05:20.000Z</time>
      </trkpt>
      <trkpt lat="48.83297" lon="2.37461">
        <ele>87.1</ele>
        <time>2013-03-03T15:05:21.000Z</time>
      </trkpt>
      <trkpt lat="48.833" lon="2.37457">
        <ele>86.6</ele>
        <time>2013-03-03T15:05:22.000Z</time>
      </trkpt>
      <trkpt lat="48.83303" lon="2.37454">
        <ele>86.3</ele>
        <time>2013-03-03T15:05:23.000Z</time>
      </trkpt>
      <trkpt lat="48.83306" lon="2.37452">
        <ele>85.7</ele>
        <time>2013-03-03T15:05:24.000Z</time>
      </trkpt>
      <trkpt lat="48.83309" lon="2.37449">
        <ele>85.6</ele>
        <time>2013-03-03T15:05:25.000Z</time>
      </trkpt>
      <trkpt lat="48.83312" lon="2.37447">
        <ele>85.2</ele>
        <time>2013-03-03T15:05:26.000Z</time>
      </trkpt>
      <trkpt lat="48.83313" lon="2.37445">
        <ele>85.3</ele>
        <time>2013-03-03T15:05:27.000Z</time>
      </trkpt>
      <trkpt lat="48.83316" lon="2.37444">
        <ele>84.5</ele>
        <time>2013-03-03T15:05:28.000Z</time>
      </trkpt>
      <trkpt lat="48.83318" lon="2.37442">
        <ele>85.3</ele>
        <time>2013-03-03T15:05:29.000Z</time>
      </trkpt>
      <trkpt lat="48.83321" lon="2.37439">
        <ele>85</ele>
        <time>2013-03-03T15:05:30.000Z</time>
      </trkpt>
      <trkpt lat="48.83324" lon="2.37439">
        <ele>85.9</ele>
        <time>2013-03-03T15:05:31.000Z</time>
      </trkpt>
      <trkpt lat="48.83327" lon="2.37436">
        <ele>85.9</ele>
        <time>2013-03-03T15:05:32.000Z</time>
      </trkpt>
      <trkpt lat="48.8333" lon="2.37435">
        <ele>83.6</ele>
        <time>2013-03-03T15:05:33.000Z</time>
      </trkpt>
      <trkpt lat="48.83333" lon="2.37432">
        <ele>83.6</ele>
        <time>2013-03-03T15:05:34.000Z</time>
      </trkpt>
      <trkpt lat="48.83336" lon="2.37431">
        <ele>82.8</ele>
        <time>2013-03-03T15:05:35.000Z</time>
      </trkpt>
      <trkpt lat="48.83339" lon="2.37429">
        <ele>82.7</ele>
        <time>2013-03-03T15:05:36.000Z</time>
      </trkpt>
      <trkpt lat="48.83342" lon="2.37427">
        <ele>82.7</ele>
        <time>2013-03-03T15:05:37.000Z</time>
      </trkpt>
      <trkpt lat="48.83345" lon="2.37423">
        <ele>81.9</ele>
        <time>2013-03-03T15:05:38.000Z</time>
      </trkpt>
      <trkpt lat="48.83348" lon="2.37421">
        <ele>81.6</ele>
        <time>2013-03-03T15:05:39.000Z</time>
      </trkpt>
      <trkpt lat="48.8335" lon="2.37416">
        <ele>82.3</ele>
        <time>2013-03-03T15:05:40.000Z</time>
      </trkpt>
      <trkpt lat="48.83353" lon="2.37413">
        <ele>82.4</ele>
        <time>2013-03-03T15:05:41.000Z</time>
      </trkpt>
      <trkpt lat="48.83356" lon="2.37409">
        <ele>82.6</ele>
        <time>2013-03-03T15:05:42.000Z</time>
      </trkpt>
      <trkpt lat="48.83359" lon="2.37406">
        <ele>82.6</ele>
        <time>2013-03-03T15:05:43.000Z</time>
      </trkpt>
      <trkpt lat="48.83362" lon="2.37403">
        <ele>82.9</ele>
        <time>2013-03-03T15:05:44.000Z</time>
      </trkpt>
      <trkpt lat="48.83365" lon="2.374">
        <ele>83.1</ele>
        <time>2013-03-03T15:05:45.000Z</time>
      </trkpt>
      <trkpt lat="48.83369" lon="2.37397">
        <ele>83.6</ele>
        <time>2013-03-03T15:05:46.000Z</time>
      </trkpt>
      <trkpt lat="48.83373" lon="2.37394">
        <ele>83.9</ele>
        <time>2013-03-03T15:05:47.000Z</time>
      </trkpt>
      <trkpt lat="48.83376" lon="2.37391">
        <ele>84.1</ele>
        <time>2013-03-03T15:05:48.000Z</time>
      </trkpt>
      <trkpt lat="48.8338" lon="2.37387">
        <ele>82.5</ele>
        <time>2013-03-03T15:05:49.000Z</time>
      </trkpt>
      <trkpt lat="48.83383" lon="2.37384">
        <ele>82.2</ele>
        <time>2013-03-03T15:05:50.000Z</time>
      </trkpt>
      <trkpt lat="48.83387" lon="2.37382">
        <ele>82.1</ele>
        <time>2013-03-03T15:05:51.000Z</time>
      </trkpt>
      <trkpt lat="48.8339" lon="2.37379">
        <ele>81</ele>
        <time>2013-03-03T15:05:52.000Z</time>
      </trkpt>
      <trkpt lat="48.83394" lon="2.37377">
        <ele>81.1</ele>
        <time>2013-03-03T15:05:53.000Z</time>
      </trkpt>
      <trkpt lat="48.83397" lon="2.37375">
        <ele>80.9</ele>
        <time>2013-03-03T15:05:54.000Z</time>
      </trkpt>
      <trkpt lat="48.834" lon="2.37373">
        <ele>80.4</ele>
        <time>2013-03-03T15:05:55.000Z</time>
      </trkpt>
      <trkpt lat="48.83404" lon="2.37369">
        <ele>79.4</ele>
        <time>2013-03-03T15:05:56.000Z</time>
      </trkpt>
      <trkpt lat="48.83407" lon="2.37367">
        <ele>78.4</ele>
        <time>2013-03-03T15:05:57.000Z</time>
      </trkpt>
      <trkpt lat="48.83411" lon="2.37363">
        <ele>80</ele>
        <time>2013-03-03T15:05:58.000Z</time>
      </trkpt>
      <trkpt lat="48.83414" lon="2.3736">
        <ele>79.7</ele>
        <time>2013-03-03T15:05:59.000Z</time>
      </trkpt>
      <trkpt lat="48.83417" lon="2.37356">
        <ele>80.9</ele>
        <time>2013-03-03T15:06:00.000Z</time>
      </trkpt>
      <trkpt lat="48.8342" lon="2.37353">
        <ele>81.2</ele>
        <time>2013-03-03T15:06:01.000Z</time>
      </trkpt>
      <trkpt lat="48.83424" lon="2.37349">
        <ele>80.4</ele>
        <time>2013-03-03T15:06:02.000Z</time>
      </trkpt>
      <trkpt lat="48.83427" lon="2.37346">
        <ele>80.2</ele>
        <time>2013-03-03T15:06:03.000Z</time>
      </trkpt>
      <trkpt lat="48.8343" lon="2.37343">
        <ele>79.6</ele>
        <time>2013-03-03T15:06:04.000Z</time>
      </trkpt>
      <trkpt lat="48.83434" lon="2.3734">
        <ele>78.8</ele>
        <time>2013-03-03T15:06:05.000Z</time>
      </trkpt>
      <trkpt lat="48.83437" lon="2.37337">
        <ele>78.3</ele>
        <time>2013-03-03T15:06:06.000Z</time>
      </trkpt>
      <trkpt lat="48.83438" lon="2.37336">
        <ele>77.2</ele>
        <time>2013-03-03T15:06:07.000Z</time>
      </trkpt>
      <trkpt lat="48.83441" lon="2.37334">
        <ele>76.7</ele>
        <time>2013-03-03T15:06:08.000Z</time>
      </trkpt>
      <trkpt lat="48.83443" lon="2.37333">
        <ele>77.6</ele>
        <time>2013-03-03T15:06:09.000Z</time>
      </trkpt>
      <trkpt lat="48.83444" lon="2.37331">
        <ele>77.7</ele>
        <time>2013-03-03T15:06:10.000Z</time>
      </trkpt>
      <trkpt lat="48.83446" lon="2.37329">
        <ele>77.8</ele>
        <time>2013-03-03T15:06:11.000Z</time>
      </trkpt>
      <trkpt lat="48.8345" lon="2.37324">
        <ele>78.1</ele>
        <time>2013-03-03T15:06:13.000Z</time>
      </trkpt>
      <trkpt lat="48.83451" lon="2.37322">
        <ele>78</ele>
        <time>2013-03-03T15:06:14.000Z</time>
      </trkpt>
      <trkpt lat="48.83453" lon="2.3732">
        <ele>77.9</ele>
        <time>2013-03-03T15:06:15.000Z</time>
      </trkpt>
      <trkpt lat="48.83454" lon="2.37317">
        <ele>78.3</ele>
        <time>2013-03-03T15:06:16.000Z</time>
      </trkpt>
      <trkpt lat="48.83457" lon="2.37311">
        <ele>77.7</ele>
        <time>2013-03-03T15:06:18.000Z</time>
      </trkpt>
      <trkpt lat="48.83458" lon="2.37309">
        <ele>77.8</ele>
        <time>2013-03-03T15:06:19.000Z</time>
      </trkpt>
      <trkpt lat="48.83462" lon="2.37306">
        <ele>77.5</ele>
        <time>2013-03-03T15:06:21.000Z</time>
      </trkpt>
      <trkpt lat="48.83464" lon="2.37305">
        <ele>76.9</ele>
        <time>2013-03-03T15:06:22.000Z</time>
      </trkpt>
      <trkpt lat="48.83468" lon="2.37304">
        <ele>75.2</ele>
        <time>2013-03-03T15:06:25.000Z</time>
      </trkpt>
      <trkpt lat="48.83469" lon="2.37304">
        <ele>76.1</ele>
        <time>2013-03-03T15:06:26.000Z</time>
      </trkpt>
      <trkpt lat="48.83473" lon="2.37301">
        <ele>76.4</ele>
        <time>2013-03-03T15:06:28.000Z</time>
      </trkpt>
      <trkpt lat="48.83474" lon="2.373">
        <ele>75.2</ele>
        <time>2013-03-03T15:06:29.000Z</time>
      </trkpt>
      <trkpt lat="48.83476" lon="2.37299">
        <ele>75.2</ele>
        <time>2013-03-03T15:06:30.000Z</time>
      </trkpt>
      <trkpt lat="48.83479" lon="2.37297">
        <ele>75.1</ele>
        <time>2013-03-03T15:06:31.000Z</time>
      </trkpt>
      <trkpt lat="48.83482" lon="2.37294">
        <ele>74.8</ele>
        <time>2013-03-03T15:06:32.000Z</time>
      </trkpt>
      <trkpt lat="48.83484" lon="2.37292">
        <ele>74.6</ele>
        <time>2013-03-03T15:06:33.000Z</time>
      </trkpt>
      <trkpt lat="48.83487" lon="2.37287">
        <ele>74.5</ele>
        <time>2013-03-03T15:06:34.000Z</time>
      </trkpt>
      <trkpt lat="48.8349" lon="2.37284">
        <ele>74.4</ele>
        <time>2013-03-03T15:06:35.000Z</time>
      </trkpt>
      <trkpt lat="48.83492" lon="2.37282">
        <ele>74</ele>
        <time>2013-03-03T15:06:36.000Z</time>
      </trkpt>
      <trkpt lat="48.83496" lon="2.37278">
        <ele>75</ele>
        <time>2013-03-03T15:06:37.000Z</time>
      </trkpt>
      <trkpt lat="48.83498" lon="2.37275">
        <ele>74.9</ele>
        <time>2013-03-03T15:06:38.000Z</time>
      </trkpt>
      <trkpt lat="48.83501" lon="2.37271">
        <ele>77</ele>
        <time>2013-03-03T15:06:39.000Z</time>
      </trkpt>
      <trkpt lat="48.83503" lon="2.37269">
        <ele>76.9</ele>
        <time>2013-03-03T15:06:40.000Z</time>
      </trkpt>
      <trkpt lat="48.83507" lon="2.37265">
        <ele>78.3</ele>
        <time>2013-03-03T15:06:41.000Z</time>
      </trkpt>
      <trkpt lat="48.8351" lon="2.37264">
        <ele>77.2</ele>
        <time>2013-03-03T15:06:42.000Z</time>
      </trkpt>
      <trkpt lat="48.83512" lon="2.37261">
        <ele>77</ele>
        <time>2013-03-03T15:06:43.000Z</time>
      </trkpt>
      <trkpt lat="48.83516" lon="2.3726">
        <ele>78.9</ele>
        <time>2013-03-03T15:06:45.000Z</time>
      </trkpt>
      <trkpt lat="48.83517" lon="2.37258">
        <ele>78.6</ele>
        <time>2013-03-03T15:06:46.000Z</time>
      </trkpt>
      <trkpt lat="48.83519" lon="2.37255">
        <ele>79.7</ele>
        <time>2013-03-03T15:06:47.000Z</time>
      </trkpt>
      <trkpt lat="48.8352" lon="2.37252">
        <ele>79.6</ele>
        <time>2013-03-03T15:06:48.000Z</time>
      </trkpt>
      <trkpt lat="48.83522" lon="2.3725">
        <ele>79.5</ele>
        <time>2013-03-03T15:06:49.000Z</time>
      </trkpt>
      <trkpt lat="48.83524" lon="2.37247">
        <ele>79.4</ele>
        <time>2013-03-03T15:06:50.000Z</time>
      </trkpt>
      <trkpt lat="48.83527" lon="2.37244">
        <ele>80.9</ele>
        <time>2013-03-03T15:06:51.000Z</time>
      </trkpt>
      <trkpt lat="48.83528" lon="2.37241">
        <ele>81</ele>
        <time>2013-03-03T15:06:52.000Z</time>
      </trkpt>
      <trkpt lat="48.83532" lon="2.37239">
        <ele>79.8</ele>
        <time>2013-03-03T15:06:53.000Z</time>
      </trkpt>
      <trkpt lat="48.83534" lon="2.37236">
        <ele>79.7</ele>
        <time>2013-03-03T15:06:54.000Z</time>
      </trkpt>
      <trkpt lat="48.83537" lon="2.37234">
        <ele>81.4</ele>
        <time>2013-03-03T15:06:55.000Z</time>
      </trkpt>
      <trkpt lat="48.83541" lon="2.37231">
        <ele>81.4</ele>
        <time>2013-03-03T15:06:56.000Z</time>
      </trkpt>
      <trkpt lat="48.83544" lon="2.37228">
        <ele>81.5</ele>
        <time>2013-03-03T15:06:57.000Z</time>
      </trkpt>
      <trkpt lat="48.83548" lon="2.37225">
        <ele>80.8</ele>
        <time>2013-03-03T15:06:58.000Z</time>
      </trkpt>
      <trkpt lat="48.83551" lon="2.37222">
        <ele>81.2</ele>
        <time>2013-03-03T15:06:59.000Z</time>
      </trkpt>
      <trkpt lat="48.83554" lon="2.37219">
        <ele>80.9</ele>
        <time>2013-03-03T15:07:00.000Z</time>
      </trkpt>
      <trkpt lat="48.83558" lon="2.37216">
        <ele>81</ele>
        <time>2013-03-03T15:07:01.000Z</time>
      </trkpt>
      <trkpt lat="48.83562" lon="2.37215">
        <ele>80.8</ele>
        <time>2013-03-03T15:07:02.000Z</time>
      </trkpt>
      <trkpt lat="48.83565" lon="2.37212">
        <ele>80.7</ele>
        <time>2013-03-03T15:07:03.000Z</time>
      </trkpt>
      <trkpt lat="48.83568" lon="2.37209">
        <ele>80.9</ele>
        <time>2013-03-03T15:07:04.000Z</time>
      </trkpt>
      <trkpt lat="48.83571" lon="2.37205">
        <ele>83.1</ele>
        <time>2013-03-03T15:07:05.000Z</time>
      </trkpt>
      <trkpt lat="48.83574" lon="2.372">
        <ele>83.1</ele>
        <time>2013-03-03T15:07:06.000Z</time>
      </trkpt>
      <trkpt lat="48.83577" lon="2.37195">
        <ele>84</ele>
        <time>2013-03-03T15:07:07.000Z</time>
      </trkpt>
      <trkpt lat="48.8358" lon="2.37192">
        <ele>80.8</ele>
        <time>2013-03-03T15:07:08.000Z</time>
      </trkpt>
      <trkpt lat="48.83584" lon="2.37189">
        <ele>79.1</ele>
        <time>2013-03-03T15:07:10.000Z</time>
      </trkpt>
      <trkpt lat="48.83587" lon="2.37188">
        <ele>81.4</ele>
        <time>2013-03-03T15:07:11.000Z</time>
      </trkpt>
      <trkpt lat="48.8359" lon="2.37184">
        <ele>82.4</ele>
        <time>2013-03-03T15:07:12.000Z</time>
      </trkpt>
      <trkpt lat="48.83594" lon="2.3718">
        <ele>83.2</ele>
        <time>2013-03-03T15:07:13.000Z</time>
      </trkpt>
      <trkpt lat="48.83597" lon="2.37176">
        <ele>83.3</ele>
        <time>2013-03-03T15:07:14.000Z</time>
      </trkpt>
      <trkpt lat="48.83601" lon="2.37173">
        <ele>82.7</ele>
        <time>2013-03-03T15:07:15.000Z</time>
      </trkpt>
      <trkpt lat="48.83604" lon="2.3717">
        <ele>83.6</ele>
        <time>2013-03-03T15:07:16.000Z</time>
      </trkpt>
      <trkpt lat="48.83607" lon="2.37167">
        <ele>84</ele>
        <time>2013-03-03T15:07:17.000Z</time>
      </trkpt>
      <trkpt lat="48.8361" lon="2.37164">
        <ele>83.7</ele>
        <time>2013-03-03T15:07:18.000Z</time>
      </trkpt>
      <trkpt lat="48.83612" lon="2.37162">
        <ele>84.1</ele>
        <time>2013-03-03T15:07:19.000Z</time>
      </trkpt>
      <trkpt lat="48.83615" lon="2.37157">
        <ele>84.7</ele>
        <time>2013-03-03T15:07:21.000Z</time>
      </trkpt>
      <trkpt lat="48.83615" lon="2.37157">
        <ele>84.9</ele>
        <time>2013-03-03T15:07:22.000Z</time>
      </trkpt>
      <trkpt lat="48.83614" lon="2.37161">
        <ele>85</ele>
        <time>2013-03-03T15:07:47.000Z</time>
      </trkpt>
      <trkpt lat="48.83615" lon="2.37164">
        <ele>84.9</ele>
        <time>2013-03-03T15:07:48.000Z</time>
      </trkpt>
      <trkpt lat="48.83617" lon="2.37167">
        <ele>81.9</ele>
        <time>2013-03-03T15:07:49.000Z</time>
      </trkpt>
      <trkpt lat="48.83619" lon="2.3717">
        <ele>82.2</ele>
        <time>2013-03-03T15:07:50.000Z</time>
      </trkpt>
      <trkpt lat="48.83621" lon="2.37174">
        <ele>79.8</ele>
        <time>2013-03-03T15:07:51.000Z</time>
      </trkpt>
      <trkpt lat="48.83623" lon="2.37178">
        <ele>78</ele>
        <time>2013-03-03T15:07:52.000Z</time>
      </trkpt>
      <trkpt lat="48.83624" lon="2.37183">
        <ele>77.7</ele>
        <time>2013-03-03T15:07:53.000Z</time>
      </trkpt>
      <trkpt lat="48.83625" lon="2.37186">
        <ele>77.1</ele>
        <time>2013-03-03T15:07:54.000Z</time>
      </trkpt>
      <trkpt lat="48.83627" lon="2.37194">
        <ele>74.9</ele>
        <time>2013-03-03T15:07:55.000Z</time>
      </trkpt>
      <trkpt lat="48.83628" lon="2.37198">
        <ele>74.4</ele>
        <time>2013-03-03T15:07:56.000Z</time>
      </trkpt>
      <trkpt lat="48.83631" lon="2.37205">
        <ele>73.7</ele>
        <time>2013-03-03T15:07:57.000Z</time>
      </trkpt>
      <trkpt lat="48.83633" lon="2.37209">
        <ele>73.4</ele>
        <time>2013-03-03T15:07:58.000Z</time>
      </trkpt>
      <trkpt lat="48.83636" lon="2.37214">
        <ele>72.3</ele>
        <time>2013-03-03T15:07:59.000Z</time>
      </trkpt>
      <trkpt lat="48.83638" lon="2.37217">
        <ele>72.1</ele>
        <time>2013-03-03T15:08:00.000Z</time>
      </trkpt>
      <trkpt lat="48.8364" lon="2.37222">
        <ele>72.2</ele>
        <time>2013-03-03T15:08:01.000Z</time>
      </trkpt>
      <trkpt lat="48.83642" lon="2.37226">
        <ele>72.3</ele>
        <time>2013-03-03T15:08:02.000Z</time>
      </trkpt>
      <trkpt lat="48.83645" lon="2.3723">
        <ele>80.6</ele>
        <time>2013-03-03T15:08:03.000Z</time>
      </trkpt>
      <trkpt lat="48.83647" lon="2.37232">
        <ele>79.7</ele>
        <time>2013-03-03T15:08:04.000Z</time>
      </trkpt>
      <trkpt lat="48.83649" lon="2.37235">
        <ele>78.5</ele>
        <time>2013-03-03T15:08:05.000Z</time>
      </trkpt>
      <trkpt lat="48.8365" lon="2.37237">
        <ele>78.3</ele>
        <time>2013-03-03T15:08:06.000Z</time>
      </trkpt>
      <trkpt lat="48.83652" lon="2.37241">
        <ele>78.6</ele>
        <time>2013-03-03T15:08:07.000Z</time>
      </trkpt>
      <trkpt lat="48.83653" lon="2.37244">
        <ele>78.5</ele>
        <time>2013-03-03T15:08:08.000Z</time>
      </trkpt>
      <trkpt lat="48.83656" lon="2.37248">
        <ele>78.1</ele>
        <time>2013-03-03T15:08:09.000Z</time>
      </trkpt>
      <trkpt lat="48.83657" lon="2.37253">
        <ele>77.1</ele>
        <time>2013-03-03T15:08:10.000Z</time>
      </trkpt>
      <trkpt lat="48.83659" lon="2.37258">
        <ele>76.7</ele>
        <time>2013-03-03T15:08:11.000Z</time>
      </trkpt>
      <trkpt lat="48.8366" lon="2.37263">
        <ele>76.2</ele>
        <time>2013-03-03T15:08:12.000Z</time>
      </trkpt>
      <trkpt lat="48.83662" lon="2.37267">
        <ele>75.5</ele>
        <time>2013-03-03T15:08:13.000Z</time>
      </trkpt>
      <trkpt lat="48.83664" lon="2.3727">
        <ele>76.2</ele>
        <time>2013-03-03T15:08:14.000Z</time>
      </trkpt>
      <trkpt lat="48.83666" lon="2.37273">
        <ele>75.9</ele>
        <time>2013-03-03T15:08:15.000Z</time>
      </trkpt>
      <trkpt lat="48.83669" lon="2.37277">
        <ele>75.7</ele>
        <time>2013-03-03T15:08:16.000Z</time>
      </trkpt>
      <trkpt lat="48.83671" lon="2.3728">
        <ele>75.3</ele>
        <time>2013-03-03T15:08:17.000Z</time>
      </trkpt>
      <trkpt lat="48.83673" lon="2.37283">
        <ele>74.3</ele>
        <time>2013-03-03T15:08:18.000Z</time>
      </trkpt>
      <trkpt lat="48.83676" lon="2.37286">
        <ele>74</ele>
        <time>2013-03-03T15:08:19.000Z</time>
      </trkpt>
      <trkpt lat="48.83679" lon="2.37289">
        <ele>74.3</ele>
        <time>2013-03-03T15:08:20.000Z</time>
      </trkpt>
      <trkpt lat="48.83684" lon="2.37291">
        <ele>76.4</ele>
        <time>2013-03-03T15:08:21.000Z</time>
      </trkpt>
      <trkpt lat="48.83689" lon="2.37293">
        <ele>76.2</ele>
        <time>2013-03-03T15:08:22.000Z</time>
      </trkpt>
      <trkpt lat="48.83693" lon="2.37296">
        <ele>76.6</ele>
        <time>2013-03-03T15:08:23.000Z</time>
      </trkpt>
      <trkpt lat="48.83697" lon="2.37299">
        <ele>77.1</ele>
        <time>2013-03-03T15:08:24.000Z</time>
      </trkpt>
      <trkpt lat="48.837" lon="2.37302">
        <ele>77</ele>
        <time>2013-03-03T15:08:25.000Z</time>
      </trkpt>
      <trkpt lat="48.83702" lon="2.37304">
        <ele>76</ele>
        <time>2013-03-03T15:08:26.000Z</time>
      </trkpt>
      <trkpt lat="48.83704" lon="2.37306">
        <ele>76.3</ele>
        <time>2013-03-03T15:08:27.000Z</time>
      </trkpt>
      <trkpt lat="48.83706" lon="2.37308">
        <ele>74.8</ele>
        <time>2013-03-03T15:08:28.000Z</time>
      </trkpt>
      <trkpt lat="48.83707" lon="2.37312">
        <ele>74.9</ele>
        <time>2013-03-03T15:08:29.000Z</time>
      </trkpt>
      <trkpt lat="48.83709" lon="2.37316">
        <ele>73.8</ele>
        <time>2013-03-03T15:08:30.000Z</time>
      </trkpt>
      <trkpt lat="48.83711" lon="2.3732">
        <ele>73.9</ele>
        <time>2013-03-03T15:08:31.000Z</time>
      </trkpt>
      <trkpt lat="48.83713" lon="2.37323">
        <ele>73.3</ele>
        <time>2013-03-03T15:08:32.000Z</time>
      </trkpt>
      <trkpt lat="48.83715" lon="2.37326">
        <ele>73.3</ele>
        <time>2013-03-03T15:08:33.000Z</time>
      </trkpt>
      <trkpt lat="48.83717" lon="2.37329">
        <ele>73.7</ele>
        <time>2013-03-03T15:08:34.000Z</time>
      </trkpt>
      <trkpt lat="48.83719" lon="2.37332">
        <ele>74.1</ele>
        <time>2013-03-03T15:08:35.000Z</time>
      </trkpt>
      <trkpt lat="48.8372" lon="2.37336">
        <ele>73.1</ele>
        <time>2013-03-03T15:08:36.000Z</time>
      </trkpt>
      <trkpt lat="48.83722" lon="2.37339">
        <ele>72.2</ele>
        <time>2013-03-03T15:08:37.000Z</time>
      </trkpt>
      <trkpt lat="48.83723" lon="2.37343">
        <ele>70.4</ele>
        <time>2013-03-03T15:08:38.000Z</time>
      </trkpt>
      <trkpt lat="48.83724" lon="2.37347">
        <ele>70</ele>
        <time>2013-03-03T15:08:39.000Z</time>
      </trkpt>
      <trkpt lat="48.83726" lon="2.37351">
        <ele>70.3</ele>
        <time>2013-03-03T15:08:40.000Z</time>
      </trkpt>
      <trkpt lat="48.83727" lon="2.37354">
        <ele>71.6</ele>
        <time>2013-03-03T15:08:41.000Z</time>
      </trkpt>
      <trkpt lat="48.83727" lon="2.3736">
        <ele>69.5</ele>
        <time>2013-03-03T15:08:44.000Z</time>
      </trkpt>
      <trkpt lat="48.83727" lon="2.37362">
        <ele>69.9</ele>
        <time>2013-03-03T15:08:45.000Z</time>
      </trkpt>
      <trkpt lat="48.83728" lon="2.37367">
        <ele>69.6</ele>
        <time>2013-03-03T15:08:51.000Z</time>
      </trkpt>
      <trkpt lat="48.83728" lon="2.3737">
        <ele>68.9</ele>
        <time>2013-03-03T15:08:52.000Z</time>
      </trkpt>
      <trkpt lat="48.83729" lon="2.37374">
        <ele>69.1</ele>
        <time>2013-03-03T15:08:54.000Z</time>
      </trkpt>
      <trkpt lat="48.83729" lon="2.37377">
        <ele>68.3</ele>
        <time>2013-03-03T15:08:55.000Z</time>
      </trkpt>
      <trkpt lat="48.8373" lon="2.37383">
        <ele>66.7</ele>
        <time>2013-03-03T15:08:57.000Z</time>
      </trkpt>
      <trkpt lat="48.83731" lon="2.37386">
        <ele>67.2</ele>
        <time>2013-03-03T15:08:58.000Z</time>
      </trkpt>
      <trkpt lat="48.83732" lon="2.37389">
        <ele>66.8</ele>
        <time>2013-03-03T15:08:59.000Z</time>
      </trkpt>
      <trkpt lat="48.83733" lon="2.37393">
        <ele>67.1</ele>
        <time>2013-03-03T15:09:00.000Z</time>
      </trkpt>
      <trkpt lat="48.83734" lon="2.37395">
        <ele>66.9</ele>
        <time>2013-03-03T15:09:01.000Z</time>
      </trkpt>
      <trkpt lat="48.83737" lon="2.374">
        <ele>65.8</ele>
        <time>2013-03-03T15:09:02.000Z</time>
      </trkpt>
      <trkpt lat="48.83738" lon="2.37403">
        <ele>65.2</ele>
        <time>2013-03-03T15:09:03.000Z</time>
      </trkpt>
      <trkpt lat="48.83741" lon="2.37406">
        <ele>65.1</ele>
        <time>2013-03-03T15:09:04.000Z</time>
      </trkpt>
      <trkpt lat="48.83743" lon="2.37407">
        <ele>64.7</ele>
        <time>2013-03-03T15:09:05.000Z</time>
      </trkpt>
      <trkpt lat="48.83745" lon="2.37409">
        <ele>65.8</ele>
        <time>2013-03-03T15:09:06.000Z</time>
      </trkpt>
      <trkpt lat="48.83747" lon="2.37411">
        <ele>66.2</ele>
        <time>2013-03-03T15:09:07.000Z</time>
      </trkpt>
      <trkpt lat="48.83748" lon="2.37414">
        <ele>66.7</ele>
        <time>2013-03-03T15:09:08.000Z</time>
      </trkpt>
      <trkpt lat="48.83751" lon="2.37418">
        <ele>66.7</ele>
        <time>2013-03-03T15:09:10.000Z</time>
      </trkpt>
      <trkpt lat="48.83752" lon="2.3742">
        <ele>65.2</ele>
        <time>2013-03-03T15:09:11.000Z</time>
      </trkpt>
      <trkpt lat="48.83754" lon="2.37421">
        <ele>64.6</ele>
        <time>2013-03-03T15:09:12.000Z</time>
      </trkpt>
      <trkpt lat="48.83755" lon="2.37426">
        <ele>64.7</ele>
        <time>2013-03-03T15:09:13.000Z</time>
      </trkpt>
      <trkpt lat="48.83756" lon="2.37428">
        <ele>64.5</ele>
        <time>2013-03-03T15:09:14.000Z</time>
      </trkpt>
      <trkpt lat="48.83758" lon="2.37432">
        <ele>64.4</ele>
        <time>2013-03-03T15:09:15.000Z</time>
      </trkpt>
      <trkpt lat="48.83759" lon="2.37434">
        <ele>64.2</ele>
        <time>2013-03-03T15:09:16.000Z</time>
      </trkpt>
      <trkpt lat="48.83761" lon="2.37437">
        <ele>63.7</ele>
        <time>2013-03-03T15:09:17.000Z</time>
      </trkpt>
      <trkpt lat="48.83762" lon="2.3744">
        <ele>63.4</ele>
        <time>2013-03-03T15:09:18.000Z</time>
      </trkpt>
      <trkpt lat="48.83764" lon="2.37443">
        <ele>63.7</ele>
        <time>2013-03-03T15:09:19.000Z</time>
      </trkpt>
      <trkpt lat="48.83766" lon="2.37447">
        <ele>63.8</ele>
        <time>2013-03-03T15:09:20.000Z</time>
      </trkpt>
      <trkpt lat="48.83768" lon="2.3745">
        <ele>63.6</ele>
        <time>2013-03-03T15:09:21.000Z</time>
      </trkpt>
      <trkpt lat="48.8377" lon="2.37455">
        <ele>63.7</ele>
        <time>2013-03-03T15:09:22.000Z</time>
      </trkpt>
      <trkpt lat="48.83772" lon="2.37458">
        <ele>63.4</ele>
        <time>2013-03-03T15:09:23.000Z</time>
      </trkpt>
      <trkpt lat="48.83774" lon="2.37463">
        <ele>63.5</ele>
        <time>2013-03-03T15:09:24.000Z</time>
      </trkpt>
      <trkpt lat="48.83775" lon="2.37466">
        <ele>63.5</ele>
        <time>2013-03-03T15:09:25.000Z</time>
      </trkpt>
      <trkpt lat="48.83777" lon="2.3747">
        <ele>63.3</ele>
        <time>2013-03-03T15:09:26.000Z</time>
      </trkpt>
      <trkpt lat="48.83779" lon="2.37473">
        <ele>63.3</ele>
        <time>2013-03-03T15:09:27.000Z</time>
      </trkpt>
      <trkpt lat="48.83781" lon="2.37476">
        <ele>63.3</ele>
        <time>2013-03-03T15:09:28.000Z</time>
      </trkpt>
      <trkpt lat="48.83783" lon="2.37479">
        <ele>62.6</ele>
        <time>2013-03-03T15:09:29.000Z</time>
      </trkpt>
      <trkpt lat="48.83784" lon="2.37482">
        <ele>62.5</ele>
        <time>2013-03-03T15:09:30.000Z</time>
      </trkpt>
      <trkpt lat="48.83785" lon="2.37485">
        <ele>62.6</ele>
        <time>2013-03-03T15:09:31.000Z</time>
      </trkpt>
      <trkpt lat="48.83786" lon="2.37488">
        <ele>62.7</ele>
        <time>2013-03-03T15:09:32.000Z</time>
      </trkpt>
      <trkpt lat="48.83787" lon="2.37491">
        <ele>63.1</ele>
        <time>2013-03-03T15:09:33.000Z</time>
      </trkpt>
      <trkpt lat="48.83788" lon="2.37495">
        <ele>63</ele>
        <time>2013-03-03T15:09:34.000Z</time>
      </trkpt>
      <trkpt lat="48.83789" lon="2.37499">
        <ele>63.8</ele>
        <time>2013-03-03T15:09:35.000Z</time>
      </trkpt>
      <trkpt lat="48.8379" lon="2.37503">
        <ele>63.8</ele>
        <time>2013-03-03T15:09:36.000Z</time>
      </trkpt>
      <trkpt lat="48.83791" lon="2.37507">
        <ele>63.6</ele>
        <time>2013-03-03T15:09:37.000Z</time>
      </trkpt>
      <trkpt lat="48.83793" lon="2.3751">
        <ele>63.8</ele>
        <time>2013-03-03T15:09:38.000Z</time>
      </trkpt>
      <trkpt lat="48.83794" lon="2.37514">
        <ele>64.4</ele>
        <time>2013-03-03T15:09:39.000Z</time>
      </trkpt>
      <trkpt lat="48.83796" lon="2.37518">
        <ele>64.9</ele>
        <time>2013-03-03T15:09:40.000Z</time>
      </trkpt>
      <trkpt lat="48.83799" lon="2.37522">
        <ele>65.4</ele>
        <time>2013-03-03T15:09:41.000Z</time>
      </trkpt>
      <trkpt lat="48.83802" lon="2.37526">
        <ele>66.8</ele>
        <time>2013-03-03T15:09:42.000Z</time>
      </trkpt>
      <trkpt lat="48.83805" lon="2.3753">
        <ele>68.2</ele>
        <time>2013-03-03T15:09:43.000Z</time>
      </trkpt>
      <trkpt lat="48.83808" lon="2.37534">
        <ele>68.4</ele>
        <time>2013-03-03T15:09:44.000Z</time>
      </trkpt>
      <trkpt lat="48.83811" lon="2.37537">
        <ele>68.3</ele>
        <time>2013-03-03T15:09:45.000Z</time>
      </trkpt>
      <trkpt lat="48.83813" lon="2.37541">
        <ele>68.8</ele>
        <time>2013-03-03T15:09:46.000Z</time>
      </trkpt>
      <trkpt lat="48.83815" lon="2.37544">
        <ele>69</ele>
        <time>2013-03-03T15:09:47.000Z</time>
      </trkpt>
      <trkpt lat="48.83817" lon="2.37547">
        <ele>68.2</ele>
        <time>2013-03-03T15:09:48.000Z</time>
      </trkpt>
      <trkpt lat="48.8382" lon="2.3755">
        <ele>67.8</ele>
        <time>2013-03-03T15:09:49.000Z</time>
      </trkpt>
      <trkpt lat="48.83822" lon="2.37554">
        <ele>67.9</ele>
        <time>2013-03-03T15:09:50.000Z</time>
      </trkpt>
      <trkpt lat="48.83824" lon="2.37557">
        <ele>68.8</ele>
        <time>2013-03-03T15:09:51.000Z</time>
      </trkpt>
      <trkpt lat="48.83827" lon="2.3756">
        <ele>69.1</ele>
        <time>2013-03-03T15:09:52.000Z</time>
      </trkpt>
      <trkpt lat="48.83829" lon="2.37563">
        <ele>69.7</ele>
        <time>2013-03-03T15:09:53.000Z</time>
      </trkpt>
      <trkpt lat="48.83832" lon="2.37566">
        <ele>69.3</ele>
        <time>2013-03-03T15:09:54.000Z</time>
      </trkpt>
      <trkpt lat="48.83833" lon="2.3757">
        <ele>69.4</ele>
        <time>2013-03-03T15:09:55.000Z</time>
      </trkpt>
      <trkpt lat="48.83835" lon="2.37573">
        <ele>68.8</ele>
        <time>2013-03-03T15:09:56.000Z</time>
      </trkpt>
      <trkpt lat="48.83837" lon="2.37576">
        <ele>68.6</ele>
        <time>2013-03-03T15:09:57.000Z</time>
      </trkpt>
      <trkpt lat="48.83838" lon="2.3758">
        <ele>69.5</ele>
        <time>2013-03-03T15:09:58.000Z</time>
      </trkpt>
      <trkpt lat="48.83839" lon="2.37584">
        <ele>69</ele>
        <time>2013-03-03T15:09:59.000Z</time>
      </trkpt>
      <trkpt lat="48.83839" lon="2.37588">
        <ele>69.4</ele>
        <time>2013-03-03T15:10:00.000Z</time>
      </trkpt>
      <trkpt lat="48.83841" lon="2.37591">
        <ele>69.1</ele>
        <time>2013-03-03T15:10:01.000Z</time>
      </trkpt>
      <trkpt lat="48.83842" lon="2.37595">
        <ele>68.4</ele>
        <time>2013-03-03T15:10:02.000Z</time>
      </trkpt>
      <trkpt lat="48.83844" lon="2.37598">
        <ele>68</ele>
        <time>2013-03-03T15:10:03.000Z</time>
      </trkpt>
      <trkpt lat="48.83845" lon="2.37601">
        <ele>67.4</ele>
        <time>2013-03-03T15:10:04.000Z</time>
      </trkpt>
      <trkpt lat="48.83847" lon="2.37604">
        <ele>66.5</ele>
        <time>2013-03-03T15:10:05.000Z</time>
      </trkpt>
      <trkpt lat="48.8385" lon="2.37607">
        <ele>66.4</ele>
        <time>2013-03-03T15:10:06.000Z</time>
      </trkpt>
      <trkpt lat="48.83852" lon="2.37609">
        <ele>66</ele>
        <time>2013-03-03T15:10:07.000Z</time>
      </trkpt>
      <trkpt lat="48.83854" lon="2.37613">
        <ele>65.2</ele>
        <time>2013-03-03T15:10:08.000Z</time>
      </trkpt>
      <trkpt lat="48.83855" lon="2.37616">
        <ele>65.7</ele>
        <time>2013-03-03T15:10:09.000Z</time>
      </trkpt>
      <trkpt lat="48.83856" lon="2.37621">
        <ele>65.3</ele>
        <time>2013-03-03T15:10:10.000Z</time>
      </trkpt>
      <trkpt lat="48.83857" lon="2.37624">
        <ele>64.7</ele>
        <time>2013-03-03T15:10:11.000Z</time>
      </trkpt>
      <trkpt lat="48.8386" lon="2.37628">
        <ele>64</ele>
        <time>2013-03-03T15:10:13.000Z</time>
      </trkpt>
      <trkpt lat="48.83861" lon="2.3763">
        <ele>63.7</ele>
        <time>2013-03-03T15:10:14.000Z</time>
      </trkpt>
      <trkpt lat="48.83865" lon="2.37632">
        <ele>66.6</ele>
        <time>2013-03-03T15:10:22.000Z</time>
      </trkpt>
      <trkpt lat="48.83865" lon="2.37632">
        <ele>67</ele>
        <time>2013-03-03T15:10:23.000Z</time>
      </trkpt>
      <trkpt lat="48.83866" lon="2.37636">
        <ele>70.7</ele>
        <time>2013-03-03T15:10:59.000Z</time>
      </trkpt>
      <trkpt lat="48.83867" lon="2.37639">
        <ele>70.5</ele>
        <time>2013-03-03T15:11:00.000Z</time>
      </trkpt>
      <trkpt lat="48.83868" lon="2.37642">
        <ele>71.6</ele>
        <time>2013-03-03T15:11:01.000Z</time>
      </trkpt>
      <trkpt lat="48.83869" lon="2.37647">
        <ele>71.6</ele>
        <time>2013-03-03T15:11:02.000Z</time>
      </trkpt>
      <trkpt lat="48.8387" lon="2.37651">
        <ele>73</ele>
        <time>2013-03-03T15:11:03.000Z</time>
      </trkpt>
      <trkpt lat="48.83871" lon="2.37656">
        <ele>73.5</ele>
        <time>2013-03-03T15:11:04.000Z</time>
      </trkpt>
      <trkpt lat="48.83872" lon="2.3766">
        <ele>72.8</ele>
        <time>2013-03-03T15:11:05.000Z</time>
      </trkpt>
      <trkpt lat="48.83873" lon="2.37664">
        <ele>73.2</ele>
        <time>2013-03-03T15:11:06.000Z</time>
      </trkpt>
      <trkpt lat="48.83875" lon="2.37667">
        <ele>72.9</ele>
        <time>2013-03-03T15:11:08.000Z</time>
      </trkpt>
      <trkpt lat="48.83876" lon="2.37669">
        <ele>72</ele>
        <time>2013-03-03T15:11:09.000Z</time>
      </trkpt>
      <trkpt lat="48.83879" lon="2.37672">
        <ele>72.8</ele>
        <time>2013-03-03T15:11:11.000Z</time>
      </trkpt>
      <trkpt lat="48.8388" lon="2.37674">
        <ele>72.7</ele>
        <time>2013-03-03T15:11:12.000Z</time>
      </trkpt>
      <trkpt lat="48.83882" lon="2.37679">
        <ele>72.1</ele>
        <time>2013-03-03T15:11:14.000Z</time>
      </trkpt>
      <trkpt lat="48.83883" lon="2.37681">
        <ele>72.9</ele>
        <time>2013-03-03T15:11:15.000Z</time>
      </trkpt>
      <trkpt lat="48.83885" lon="2.37686">
        <ele>73.5</ele>
        <time>2013-03-03T15:11:44.000Z</time>
      </trkpt>
      <trkpt lat="48.83887" lon="2.37688">
        <ele>73.6</ele>
        <time>2013-03-03T15:11:45.000Z</time>
      </trkpt>
      <trkpt lat="48.8389" lon="2.37691">
        <ele>73.3</ele>
        <time>2013-03-03T15:11:46.000Z</time>
      </trkpt>
      <trkpt lat="48.83892" lon="2.37694">
        <ele>73.5</ele>
        <time>2013-03-03T15:11:47.000Z</time>
      </trkpt>
      <trkpt lat="48.83894" lon="2.37697">
        <ele>72.6</ele>
        <time>2013-03-03T15:11:48.000Z</time>
      </trkpt>
      <trkpt lat="48.83896" lon="2.37701">
        <ele>73.9</ele>
        <time>2013-03-03T15:11:49.000Z</time>
      </trkpt>
      <trkpt lat="48.83899" lon="2.37704">
        <ele>74.5</ele>
        <time>2013-03-03T15:11:50.000Z</time>
      </trkpt>
      <trkpt lat="48.83902" lon="2.37706">
        <ele>73.3</ele>
        <time>2013-03-03T15:11:51.000Z</time>
      </trkpt>
      <trkpt lat="48.83905" lon="2.37709">
        <ele>72.3</ele>
        <time>2013-03-03T15:11:52.000Z</time>
      </trkpt>
      <trkpt lat="48.83908" lon="2.37712">
        <ele>71</ele>
        <time>2013-03-03T15:11:53.000Z</time>
      </trkpt>
      <trkpt lat="48.83912" lon="2.37716">
        <ele>70</ele>
        <time>2013-03-03T15:11:54.000Z</time>
      </trkpt>
      <trkpt lat="48.83915" lon="2.37721">
        <ele>69.6</ele>
        <time>2013-03-03T15:11:55.000Z</time>
      </trkpt>
      <trkpt lat="48.83919" lon="2.37727">
        <ele>69.9</ele>
        <time>2013-03-03T15:11:56.000Z</time>
      </trkpt>
      <trkpt lat="48.83923" lon="2.37732">
        <ele>69.7</ele>
        <time>2013-03-03T15:11:57.000Z</time>
      </trkpt>
      <trkpt lat="48.83926" lon="2.37738">
        <ele>68</ele>
        <time>2013-03-03T15:11:58.000Z</time>
      </trkpt>
      <trkpt lat="48.83929" lon="2.37744">
        <ele>68.2</ele>
        <time>2013-03-03T15:11:59.000Z</time>
      </trkpt>
      <trkpt lat="48.83934" lon="2.37756">
        <ele>68.9</ele>
        <time>2013-03-03T15:12:00.000Z</time>
      </trkpt>
      <trkpt lat="48.83936" lon="2.37762">
        <ele>69.9</ele>
        <time>2013-03-03T15:12:01.000Z</time>
      </trkpt>
      <trkpt lat="48.83938" lon="2.37766">
        <ele>68.7</ele>
        <time>2013-03-03T15:12:02.000Z</time>
      </trkpt>
      <trkpt lat="48.83939" lon="2.37769">
        <ele>69</ele>
        <time>2013-03-03T15:12:03.000Z</time>
      </trkpt>
      <trkpt lat="48.8394" lon="2.37773">
        <ele>69.7</ele>
        <time>2013-03-03T15:12:04.000Z</time>
      </trkpt>
      <trkpt lat="48.83942" lon="2.37776">
        <ele>69.3</ele>
        <time>2013-03-03T15:12:05.000Z</time>
      </trkpt>
      <trkpt lat="48.83943" lon="2.37782">
        <ele>69.1</ele>
        <time>2013-03-03T15:12:06.000Z</time>
      </trkpt>
      <trkpt lat="48.83945" lon="2.37786">
        <ele>68.5</ele>
        <time>2013-03-03T15:12:07.000Z</time>
      </trkpt>
      <trkpt lat="48.83946" lon="2.3779">
        <ele>68.5</ele>
        <time>2013-03-03T15:12:08.000Z</time>
      </trkpt>
      <trkpt lat="48.83948" lon="2.37795">
        <ele>69</ele>
        <time>2013-03-03T15:12:09.000Z</time>
      </trkpt>
      <trkpt lat="48.83949" lon="2.378">
        <ele>68.8</ele>
        <time>2013-03-03T15:12:10.000Z</time>
      </trkpt>
      <trkpt lat="48.8395" lon="2.37805">
        <ele>68.6</ele>
        <time>2013-03-03T15:12:11.000Z</time>
      </trkpt>
      <trkpt lat="48.83952" lon="2.3781">
        <ele>67.8</ele>
        <time>2013-03-03T15:12:12.000Z</time>
      </trkpt>
      <trkpt lat="48.83952" lon="2.37815">
        <ele>67</ele>
        <time>2013-03-03T15:12:13.000Z</time>
      </trkpt>
      <trkpt lat="48.83954" lon="2.3782">
        <ele>66.5</ele>
        <time>2013-03-03T15:12:14.000Z</time>
      </trkpt>
      <trkpt lat="48.83955" lon="2.37825">
        <ele>66.4</ele>
        <time>2013-03-03T15:12:15.000Z</time>
      </trkpt>
      <trkpt lat="48.83957" lon="2.37829">
        <ele>65.7</ele>
        <time>2013-03-03T15:12:16.000Z</time>
      </trkpt>
      <trkpt lat="48.83959" lon="2.37834">
        <ele>66.1</ele>
        <time>2013-03-03T15:12:17.000Z</time>
      </trkpt>
      <trkpt lat="48.83962" lon="2.37839">
        <ele>65</ele>
        <time>2013-03-03T15:12:18.000Z</time>
      </trkpt>
      <trkpt lat="48.83964" lon="2.37843">
        <ele>65.3</ele>
        <time>2013-03-03T15:12:19.000Z</time>
      </trkpt>
      <trkpt lat="48.83967" lon="2.37848">
        <ele>65.7</ele>
        <time>2013-03-03T15:12:20.000Z</time>
      </trkpt>
      <trkpt lat="48.83969" lon="2.37852">
        <ele>66.4</ele>
        <time>2013-03-03T15:12:21.000Z</time>
      </trkpt>
      <trkpt lat="48.8397" lon="2.37855">
        <ele>67.3</ele>
        <time>2013-03-03T15:12:22.000Z</time>
      </trkpt>
      <trkpt lat="48.83972" lon="2.37858">
        <ele>66.3</ele>
        <time>2013-03-03T15:12:23.000Z</time>
      </trkpt>
      <trkpt lat="48.83973" lon="2.3786">
        <ele>65.8</ele>
        <time>2013-03-03T15:12:24.000Z</time>
      </trkpt>
      <trkpt lat="48.83975" lon="2.37864">
        <ele>64.9</ele>
        <time>2013-03-03T15:12:25.000Z</time>
      </trkpt>
      <trkpt lat="48.83976" lon="2.37867">
        <ele>64.1</ele>
        <time>2013-03-03T15:12:26.000Z</time>
      </trkpt>
      <trkpt lat="48.83978" lon="2.37871">
        <ele>64.4</ele>
        <time>2013-03-03T15:12:27.000Z</time>
      </trkpt>
      <trkpt lat="48.83979" lon="2.37876">
        <ele>65.3</ele>
        <time>2013-03-03T15:12:28.000Z</time>
      </trkpt>
      <trkpt lat="48.8398" lon="2.3788">
        <ele>65.5</ele>
        <time>2013-03-03T15:12:29.000Z</time>
      </trkpt>
      <trkpt lat="48.83981" lon="2.37885">
        <ele>65.1</ele>
        <time>2013-03-03T15:12:30.000Z</time>
      </trkpt>
      <trkpt lat="48.83981" lon="2.37891">
        <ele>65.5</ele>
        <time>2013-03-03T15:12:31.000Z</time>
      </trkpt>
      <trkpt lat="48.83982" lon="2.37895">
        <ele>65.1</ele>
        <time>2013-03-03T15:12:32.000Z</time>
      </trkpt>
      <trkpt lat="48.83983" lon="2.379">
        <ele>65</ele>
        <time>2013-03-03T15:12:33.000Z</time>
      </trkpt>
      <trkpt lat="48.83984" lon="2.37904">
        <ele>64.7</ele>
        <time>2013-03-03T15:12:34.000Z</time>
      </trkpt>
      <trkpt lat="48.83984" lon="2.37908">
        <ele>64.5</ele>
        <time>2013-03-03T15:12:35.000Z</time>
      </trkpt>
      <trkpt lat="48.83984" lon="2.37913">
        <ele>64.3</ele>
        <time>2013-03-03T15:12:36.000Z</time>
      </trkpt>
      <trkpt lat="48.83983" lon="2.37918">
        <ele>63.5</ele>
        <time>2013-03-03T15:12:37.000Z</time>
      </trkpt>
      <trkpt lat="48.83982" lon="2.37922">
        <ele>63.8</ele>
        <time>2013-03-03T15:12:38.000Z</time>
      </trkpt>
      <trkpt lat="48.83981" lon="2.37925">
        <ele>62.8</ele>
        <time>2013-03-03T15:12:39.000Z</time>
      </trkpt>
      <trkpt lat="48.8398" lon="2.37931">
        <ele>61.3</ele>
        <time>2013-03-03T15:12:41.000Z</time>
      </trkpt>
      <trkpt lat="48.83979" lon="2.37935">
        <ele>61.1</ele>
        <time>2013-03-03T15:12:42.000Z</time>
      </trkpt>
      <trkpt lat="48.83978" lon="2.37939">
        <ele>61.3</ele>
        <time>2013-03-03T15:12:43.000Z</time>
      </trkpt>
      <trkpt lat="48.83977" lon="2.37941">
        <ele>63.1</ele>
        <time>2013-03-03T15:12:44.000Z</time>
      </trkpt>
      <trkpt lat="48.83974" lon="2.37946">
        <ele>65.4</ele>
        <time>2013-03-03T15:12:46.000Z</time>
      </trkpt>
      <trkpt lat="48.83972" lon="2.37948">
        <ele>64.9</ele>
        <time>2013-03-03T15:12:47.000Z</time>
      </trkpt>
      <trkpt lat="48.83968" lon="2.37952">
        <ele>68.4</ele>
        <time>2013-03-03T15:12:49.000Z</time>
      </trkpt>
      <trkpt lat="48.83967" lon="2.37954">
        <ele>69.3</ele>
        <time>2013-03-03T15:12:50.000Z</time>
      </trkpt>
      <trkpt lat="48.83965" lon="2.37957">
        <ele>69.8</ele>
        <time>2013-03-03T15:12:51.000Z</time>
      </trkpt>
      <trkpt lat="48.83963" lon="2.3796">
        <ele>70.5</ele>
        <time>2013-03-03T15:12:52.000Z</time>
      </trkpt>
      <trkpt lat="48.83962" lon="2.37964">
        <ele>71</ele>
        <time>2013-03-03T15:12:53.000Z</time>
      </trkpt>
      <trkpt lat="48.83959" lon="2.37968">
        <ele>71.7</ele>
        <time>2013-03-03T15:12:54.000Z</time>
      </trkpt>
      <trkpt lat="48.83957" lon="2.37972">
        <ele>72.5</ele>
        <time>2013-03-03T15:12:55.000Z</time>
      </trkpt>
      <trkpt lat="48.83955" lon="2.37976">
        <ele>73.2</ele>
        <time>2013-03-03T15:12:56.000Z</time>
      </trkpt>
      <trkpt lat="48.83953" lon="2.37981">
        <ele>73.5</ele>
        <time>2013-03-03T15:12:57.000Z</time>
      </trkpt>
      <trkpt lat="48.83951" lon="2.37985">
        <ele>70.5</ele>
        <time>2013-03-03T15:12:58.000Z</time>
      </trkpt>
      <trkpt lat="48.83948" lon="2.37988">
        <ele>71.7</ele>
        <time>2013-03-03T15:12:59.000Z</time>
      </trkpt>
      <trkpt lat="48.83946" lon="2.37992">
        <ele>72.7</ele>
        <time>2013-03-03T15:13:00.000Z</time>
      </trkpt>
      <trkpt lat="48.83943" lon="2.37997">
        <ele>74.6</ele>
        <time>2013-03-03T15:13:01.000Z</time>
      </trkpt>
      <trkpt lat="48.8394" lon="2.38001">
        <ele>75.3</ele>
        <time>2013-03-03T15:13:02.000Z</time>
      </trkpt>
      <trkpt lat="48.83938" lon="2.38005">
        <ele>75.9</ele>
        <time>2013-03-03T15:13:03.000Z</time>
      </trkpt>
      <trkpt lat="48.83935" lon="2.38008">
        <ele>75.4</ele>
        <time>2013-03-03T15:13:04.000Z</time>
      </trkpt>
      <trkpt lat="48.83932" lon="2.38012">
        <ele>76.2</ele>
        <time>2013-03-03T15:13:05.000Z</time>
      </trkpt>
      <trkpt lat="48.83929" lon="2.38015">
        <ele>75.9</ele>
        <time>2013-03-03T15:13:06.000Z</time>
      </trkpt>
      <trkpt lat="48.83927" lon="2.38018">
        <ele>76.9</ele>
        <time>2013-03-03T15:13:07.000Z</time>
      </trkpt>
      <trkpt lat="48.83924" lon="2.38021">
        <ele>79.2</ele>
        <time>2013-03-03T15:13:08.000Z</time>
      </trkpt>
      <trkpt lat="48.83921" lon="2.38026">
        <ele>81.1</ele>
        <time>2013-03-03T15:13:10.000Z</time>
      </trkpt>
      <trkpt lat="48.8392" lon="2.38029">
        <ele>82.7</ele>
        <time>2013-03-03T15:13:11.000Z</time>
      </trkpt>
      <trkpt lat="48.83918" lon="2.38034">
        <ele>86.5</ele>
        <time>2013-03-03T15:13:13.000Z</time>
      </trkpt>
      <trkpt lat="48.83917" lon="2.38037">
        <ele>87.5</ele>
        <time>2013-03-03T15:13:14.000Z</time>
      </trkpt>
      <trkpt lat="48.83916" lon="2.38043">
        <ele>85.1</ele>
        <time>2013-03-03T15:13:16.000Z</time>
      </trkpt>
      <trkpt lat="48.83915" lon="2.38047">
        <ele>85.2</ele>
        <time>2013-03-03T15:13:17.000Z</time>
      </trkpt>
      <trkpt lat="48.83914" lon="2.38053">
        <ele>85.3</ele>
        <time>2013-03-03T15:13:18.000Z</time>
      </trkpt>
      <trkpt lat="48.83911" lon="2.38059">
        <ele>85</ele>
        <time>2013-03-03T15:13:19.000Z</time>
      </trkpt>
      <trkpt lat="48.83907" lon="2.38065">
        <ele>85.5</ele>
        <time>2013-03-03T15:13:20.000Z</time>
      </trkpt>
      <trkpt lat="48.83903" lon="2.3807">
        <ele>85.2</ele>
        <time>2013-03-03T15:13:21.000Z</time>
      </trkpt>
      <trkpt lat="48.83898" lon="2.38074">
        <ele>86.2</ele>
        <time>2013-03-03T15:13:22.000Z</time>
      </trkpt>
      <trkpt lat="48.83893" lon="2.38077">
        <ele>85.9</ele>
        <time>2013-03-03T15:13:23.000Z</time>
      </trkpt>
      <trkpt lat="48.8389" lon="2.3808">
        <ele>85.4</ele>
        <time>2013-03-03T15:13:24.000Z</time>
      </trkpt>
      <trkpt lat="48.83886" lon="2.38084">
        <ele>85.2</ele>
        <time>2013-03-03T15:13:25.000Z</time>
      </trkpt>
      <trkpt lat="48.83883" lon="2.38087">
        <ele>85</ele>
        <time>2013-03-03T15:13:26.000Z</time>
      </trkpt>
      <trkpt lat="48.8388" lon="2.38091">
        <ele>84.4</ele>
        <time>2013-03-03T15:13:27.000Z</time>
      </trkpt>
      <trkpt lat="48.83876" lon="2.38095">
        <ele>83.8</ele>
        <time>2013-03-03T15:13:28.000Z</time>
      </trkpt>
      <trkpt lat="48.83873" lon="2.38099">
        <ele>83.5</ele>
        <time>2013-03-03T15:13:29.000Z</time>
      </trkpt>
      <trkpt lat="48.83869" lon="2.38103">
        <ele>84.7</ele>
        <time>2013-03-03T15:13:30.000Z</time>
      </trkpt>
      <trkpt lat="48.83866" lon="2.38106">
        <ele>84.2</ele>
        <time>2013-03-03T15:13:31.000Z</time>
      </trkpt>
      <trkpt lat="48.83863" lon="2.38109">
        <ele>83.7</ele>
        <time>2013-03-03T15:13:32.000Z</time>
      </trkpt>
      <trkpt lat="48.8386" lon="2.38111">
        <ele>82.9</ele>
        <time>2013-03-03T15:13:33.000Z</time>
      </trkpt>
      <trkpt lat="48.83858" lon="2.38112">
        <ele>83.4</ele>
        <time>2013-03-03T15:13:34.000Z</time>
      </trkpt>
      <trkpt lat="48.83855" lon="2.38114">
        <ele>82.9</ele>
        <time>2013-03-03T15:13:35.000Z</time>
      </trkpt>
      <trkpt lat="48.83852" lon="2.38116">
        <ele>82.4</ele>
        <time>2013-03-03T15:13:36.000Z</time>
      </trkpt>
      <trkpt lat="48.83848" lon="2.38117">
        <ele>81.8</ele>
        <time>2013-03-03T15:13:37.000Z</time>
      </trkpt>
      <trkpt lat="48.83845" lon="2.38118">
        <ele>81.5</ele>
        <time>2013-03-03T15:13:38.000Z</time>
      </trkpt>
      <trkpt lat="48.83841" lon="2.38121">
        <ele>81</ele>
        <time>2013-03-03T15:13:39.000Z</time>
      </trkpt>
      <trkpt lat="48.83838" lon="2.38123">
        <ele>80.1</ele>
        <time>2013-03-03T15:13:40.000Z</time>
      </trkpt>
      <trkpt lat="48.83836" lon="2.38126">
        <ele>78.8</ele>
        <time>2013-03-03T15:13:41.000Z</time>
      </trkpt>
      <trkpt lat="48.83834" lon="2.3813">
        <ele>79.4</ele>
        <time>2013-03-03T15:13:42.000Z</time>
      </trkpt>
      <trkpt lat="48.83832" lon="2.38134">
        <ele>80.2</ele>
        <time>2013-03-03T15:13:43.000Z</time>
      </trkpt>
      <trkpt lat="48.8383" lon="2.38138">
        <ele>79.2</ele>
        <time>2013-03-03T15:13:44.000Z</time>
      </trkpt>
      <trkpt lat="48.83828" lon="2.38142">
        <ele>78.8</ele>
        <time>2013-03-03T15:13:45.000Z</time>
      </trkpt>
      <trkpt lat="48.83827" lon="2.38148">
        <ele>79.9</ele>
        <time>2013-03-03T15:13:46.000Z</time>
      </trkpt>
      <trkpt lat="48.83826" lon="2.38153">
        <ele>80</ele>
        <time>2013-03-03T15:13:47.000Z</time>
      </trkpt>
      <trkpt lat="48.83824" lon="2.38158">
        <ele>80.2</ele>
        <time>2013-03-03T15:13:48.000Z</time>
      </trkpt>
      <trkpt lat="48.83823" lon="2.38163">
        <ele>80.4</ele>
        <time>2013-03-03T15:13:49.000Z</time>
      </trkpt>
      <trkpt lat="48.83822" lon="2.38168">
        <ele>80.7</ele>
        <time>2013-03-03T15:13:50.000Z</time>
      </trkpt>
      <trkpt lat="48.83821" lon="2.38173">
        <ele>81.2</ele>
        <time>2013-03-03T15:13:51.000Z</time>
      </trkpt>
      <trkpt lat="48.83819" lon="2.38179">
        <ele>82.7</ele>
        <time>2013-03-03T15:13:53.000Z</time>
      </trkpt>
      <trkpt lat="48.83819" lon="2.38179">
        <ele>84.2</ele>
        <time>2013-03-03T15:13:54.000Z</time>
      </trkpt>
      <trkpt lat="48.83817" lon="2.38184">
        <ele>84.9</ele>
        <time>2013-03-03T15:13:56.000Z</time>
      </trkpt>
      <trkpt lat="48.83816" lon="2.38188">
        <ele>85</ele>
        <time>2013-03-03T15:13:57.000Z</time>
      </trkpt>
      <trkpt lat="48.83815" lon="2.38191">
        <ele>85</ele>
        <time>2013-03-03T15:13:58.000Z</time>
      </trkpt>
      <trkpt lat="48.83813" lon="2.38193">
        <ele>87.2</ele>
        <time>2013-03-03T15:13:59.000Z</time>
      </trkpt>
      <trkpt lat="48.83811" lon="2.38195">
        <ele>87.6</ele>
        <time>2013-03-03T15:14:00.000Z</time>
      </trkpt>
      <trkpt lat="48.83809" lon="2.38197">
        <ele>87</ele>
        <time>2013-03-03T15:14:01.000Z</time>
      </trkpt>
      <trkpt lat="48.83807" lon="2.38199">
        <ele>87</ele>
        <time>2013-03-03T15:14:02.000Z</time>
      </trkpt>
      <trkpt lat="48.83805" lon="2.38201">
        <ele>86.7</ele>
        <time>2013-03-03T15:14:03.000Z</time>
      </trkpt>
      <trkpt lat="48.83803" lon="2.38203">
        <ele>86.4</ele>
        <time>2013-03-03T15:14:04.000Z</time>
      </trkpt>
      <trkpt lat="48.83801" lon="2.38206">
        <ele>88.1</ele>
        <time>2013-03-03T15:14:05.000Z</time>
      </trkpt>
      <trkpt lat="48.83799" lon="2.38209">
        <ele>88.3</ele>
        <time>2013-03-03T15:14:06.000Z</time>
      </trkpt>
      <trkpt lat="48.83798" lon="2.38211">
        <ele>88.3</ele>
        <time>2013-03-03T15:14:07.000Z</time>
      </trkpt>
      <trkpt lat="48.83796" lon="2.38214">
        <ele>85.9</ele>
        <time>2013-03-03T15:14:08.000Z</time>
      </trkpt>
      <trkpt lat="48.83795" lon="2.38217">
        <ele>84.9</ele>
        <time>2013-03-03T15:14:09.000Z</time>
      </trkpt>
      <trkpt lat="48.83793" lon="2.38222">
        <ele>83.6</ele>
        <time>2013-03-03T15:14:11.000Z</time>
      </trkpt>
      <trkpt lat="48.83792" lon="2.38224">
        <ele>82.4</ele>
        <time>2013-03-03T15:14:12.000Z</time>
      </trkpt>
      <trkpt lat="48.83792" lon="2.38227">
        <ele>82.1</ele>
        <time>2013-03-03T15:14:13.000Z</time>
      </trkpt>
      <trkpt lat="48.83794" lon="2.38231">
        <ele>81.9</ele>
        <time>2013-03-03T15:14:14.000Z</time>
      </trkpt>
      <trkpt lat="48.83795" lon="2.38235">
        <ele>80.4</ele>
        <time>2013-03-03T15:14:15.000Z</time>
      </trkpt>
      <trkpt lat="48.83797" lon="2.38239">
        <ele>80</ele>
        <time>2013-03-03T15:14:16.000Z</time>
      </trkpt>
      <trkpt lat="48.83796" lon="2.38244">
        <ele>79.2</ele>
        <time>2013-03-03T15:14:18.000Z</time>
      </trkpt>
      <trkpt lat="48.83794" lon="2.38246">
        <ele>78.4</ele>
        <time>2013-03-03T15:14:19.000Z</time>
      </trkpt>
      <trkpt lat="48.83791" lon="2.38249">
        <ele>80.8</ele>
        <time>2013-03-03T15:14:22.000Z</time>
      </trkpt>
      <trkpt lat="48.83791" lon="2.38251">
        <ele>80.7</ele>
        <time>2013-03-03T15:14:23.000Z</time>
      </trkpt>
      <trkpt lat="48.83788" lon="2.38255">
        <ele>80.4</ele>
        <time>2013-03-03T15:14:25.000Z</time>
      </trkpt>
      <trkpt lat="48.83786" lon="2.38258">
        <ele>80.8</ele>
        <time>2013-03-03T15:14:26.000Z</time>
      </trkpt>
      <trkpt lat="48.83784" lon="2.38261">
        <ele>80.9</ele>
        <time>2013-03-03T15:14:27.000Z</time>
      </trkpt>
      <trkpt lat="48.83781" lon="2.38265">
        <ele>82.2</ele>
        <time>2013-03-03T15:14:28.000Z</time>
      </trkpt>
      <trkpt lat="48.83778" lon="2.38268">
        <ele>80.2</ele>
        <time>2013-03-03T15:14:30.000Z</time>
      </trkpt>
      <trkpt lat="48.83776" lon="2.38269">
        <ele>81.3</ele>
        <time>2013-03-03T15:14:31.000Z</time>
      </trkpt>
      <trkpt lat="48.83774" lon="2.38272">
        <ele>80.8</ele>
        <time>2013-03-03T15:14:32.000Z</time>
      </trkpt>
      <trkpt lat="48.83772" lon="2.38276">
        <ele>81.3</ele>
        <time>2013-03-03T15:14:33.000Z</time>
      </trkpt>
      <trkpt lat="48.83771" lon="2.38279">
        <ele>82.5</ele>
        <time>2013-03-03T15:14:34.000Z</time>
      </trkpt>
      <trkpt lat="48.83769" lon="2.38283">
        <ele>82.8</ele>
        <time>2013-03-03T15:14:35.000Z</time>
      </trkpt>
      <trkpt lat="48.83768" lon="2.38287">
        <ele>82.6</ele>
        <time>2013-03-03T15:14:36.000Z</time>
      </trkpt>
      <trkpt lat="48.83768" lon="2.38291">
        <ele>82.5</ele>
        <time>2013-03-03T15:14:37.000Z</time>
      </trkpt>
      <trkpt lat="48.83768" lon="2.38296">
        <ele>82.9</ele>
        <time>2013-03-03T15:14:38.000Z</time>
      </trkpt>
      <trkpt lat="48.83767" lon="2.383">
        <ele>82.4</ele>
        <time>2013-03-03T15:14:39.000Z</time>
      </trkpt>
      <trkpt lat="48.83767" lon="2.38303">
        <ele>82.3</ele>
        <time>2013-03-03T15:14:40.000Z</time>
      </trkpt>
      <trkpt lat="48.83766" lon="2.38307">
        <ele>81.4</ele>
        <time>2013-03-03T15:14:41.000Z</time>
      </trkpt>
      <trkpt lat="48.83765" lon="2.3831">
        <ele>81.5</ele>
        <time>2013-03-03T15:14:42.000Z</time>
      </trkpt>
      <trkpt lat="48.83763" lon="2.38313">
        <ele>80.5</ele>
        <time>2013-03-03T15:14:43.000Z</time>
      </trkpt>
      <trkpt lat="48.83761" lon="2.38316">
        <ele>80</ele>
        <time>2013-03-03T15:14:44.000Z</time>
      </trkpt>
      <trkpt lat="48.83759" lon="2.38318">
        <ele>79.8</ele>
        <time>2013-03-03T15:14:45.000Z</time>
      </trkpt>
      <trkpt lat="48.83757" lon="2.38324">
        <ele>78.6</ele>
        <time>2013-03-03T15:14:47.000Z</time>
      </trkpt>
      <trkpt lat="48.83756" lon="2.38327">
        <ele>77.8</ele>
        <time>2013-03-03T15:14:48.000Z</time>
      </trkpt>
      <trkpt lat="48.83757" lon="2.38331">
        <ele>77.5</ele>
        <time>2013-03-03T15:14:49.000Z</time>
      </trkpt>
      <trkpt lat="48.83756" lon="2.38334">
        <ele>73.7</ele>
        <time>2013-03-03T15:14:50.000Z</time>
      </trkpt>
      <trkpt lat="48.83755" lon="2.38337">
        <ele>72</ele>
        <time>2013-03-03T15:14:51.000Z</time>
      </trkpt>
      <trkpt lat="48.83753" lon="2.3834">
        <ele>70.2</ele>
        <time>2013-03-03T15:14:52.000Z</time>
      </trkpt>
      <trkpt lat="48.83751" lon="2.38344">
        <ele>67.9</ele>
        <time>2013-03-03T15:14:53.000Z</time>
      </trkpt>
      <trkpt lat="48.83749" lon="2.38348">
        <ele>66.6</ele>
        <time>2013-03-03T15:14:54.000Z</time>
      </trkpt>
      <trkpt lat="48.83749" lon="2.38351">
        <ele>65.8</ele>
        <time>2013-03-03T15:14:55.000Z</time>
      </trkpt>
      <trkpt lat="48.83745" lon="2.38359">
        <ele>66.2</ele>
        <time>2013-03-03T15:14:56.000Z</time>
      </trkpt>
      <trkpt lat="48.83742" lon="2.38364">
        <ele>65.4</ele>
        <time>2013-03-03T15:14:57.000Z</time>
      </trkpt>
      <trkpt lat="48.83739" lon="2.3837">
        <ele>64.8</ele>
        <time>2013-03-03T15:14:58.000Z</time>
      </trkpt>
      <trkpt lat="48.83736" lon="2.38375">
        <ele>64.4</ele>
        <time>2013-03-03T15:14:59.000Z</time>
      </trkpt>
      <trkpt lat="48.83733" lon="2.3838">
        <ele>63.8</ele>
        <time>2013-03-03T15:15:00.000Z</time>
      </trkpt>
      <trkpt lat="48.83731" lon="2.38386">
        <ele>63.3</ele>
        <time>2013-03-03T15:15:01.000Z</time>
      </trkpt>
      <trkpt lat="48.83728" lon="2.38391">
        <ele>63.2</ele>
        <time>2013-03-03T15:15:02.000Z</time>
      </trkpt>
      <trkpt lat="48.83726" lon="2.38396">
        <ele>63.3</ele>
        <time>2013-03-03T15:15:03.000Z</time>
      </trkpt>
      <trkpt lat="48.83723" lon="2.38401">
        <ele>63.3</ele>
        <time>2013-03-03T15:15:04.000Z</time>
      </trkpt>
      <trkpt lat="48.8372" lon="2.38406">
        <ele>66.4</ele>
        <time>2013-03-03T15:15:05.000Z</time>
      </trkpt>
      <trkpt lat="48.83717" lon="2.38411">
        <ele>65.9</ele>
        <time>2013-03-03T15:15:06.000Z</time>
      </trkpt>
      <trkpt lat="48.83713" lon="2.38416">
        <ele>68.2</ele>
        <time>2013-03-03T15:15:07.000Z</time>
      </trkpt>
      <trkpt lat="48.8371" lon="2.38421">
        <ele>69</ele>
        <time>2013-03-03T15:15:08.000Z</time>
      </trkpt>
      <trkpt lat="48.83708" lon="2.38424">
        <ele>68.9</ele>
        <time>2013-03-03T15:15:09.000Z</time>
      </trkpt>
      <trkpt lat="48.83705" lon="2.38427">
        <ele>70.8</ele>
        <time>2013-03-03T15:15:10.000Z</time>
      </trkpt>
      <trkpt lat="48.83703" lon="2.38429">
        <ele>70</ele>
        <time>2013-03-03T15:15:11.000Z</time>
      </trkpt>
      <trkpt lat="48.837" lon="2.38431">
        <ele>70</ele>
        <time>2013-03-03T15:15:12.000Z</time>
      </trkpt>
      <trkpt lat="48.83698" lon="2.38432">
        <ele>70</ele>
        <time>2013-03-03T15:15:13.000Z</time>
      </trkpt>
      <trkpt lat="48.83695" lon="2.38434">
        <ele>71.2</ele>
        <time>2013-03-03T15:15:14.000Z</time>
      </trkpt>
      <trkpt lat="48.83693" lon="2.38437">
        <ele>70.2</ele>
        <time>2013-03-03T15:15:15.000Z</time>
      </trkpt>
      <trkpt lat="48.83692" lon="2.3844">
        <ele>69.7</ele>
        <time>2013-03-03T15:15:16.000Z</time>
      </trkpt>
      <trkpt lat="48.8369" lon="2.38444">
        <ele>69.7</ele>
        <time>2013-03-03T15:15:17.000Z</time>
      </trkpt>
      <trkpt lat="48.83688" lon="2.38448">
        <ele>69.5</ele>
        <time>2013-03-03T15:15:18.000Z</time>
      </trkpt>
      <trkpt lat="48.83686" lon="2.38453">
        <ele>69.1</ele>
        <time>2013-03-03T15:15:19.000Z</time>
      </trkpt>
      <trkpt lat="48.83684" lon="2.38458">
        <ele>68.8</ele>
        <time>2013-03-03T15:15:20.000Z</time>
      </trkpt>
      <trkpt lat="48.83681" lon="2.38462">
        <ele>69.2</ele>
        <time>2013-03-03T15:15:21.000Z</time>
      </trkpt>
      <trkpt lat="48.83678" lon="2.38466">
        <ele>69.8</ele>
        <time>2013-03-03T15:15:22.000Z</time>
      </trkpt>
      <trkpt lat="48.83675" lon="2.3847">
        <ele>71</ele>
        <time>2013-03-03T15:15:23.000Z</time>
      </trkpt>
      <trkpt lat="48.83672" lon="2.38474">
        <ele>71.7</ele>
        <time>2013-03-03T15:15:24.000Z</time>
      </trkpt>
      <trkpt lat="48.83669" lon="2.38478">
        <ele>73.3</ele>
        <time>2013-03-03T15:15:25.000Z</time>
      </trkpt>
      <trkpt lat="48.83666" lon="2.38482">
        <ele>74.2</ele>
        <time>2013-03-03T15:15:26.000Z</time>
      </trkpt>
      <trkpt lat="48.83665" lon="2.38487">
        <ele>75.6</ele>
        <time>2013-03-03T15:15:27.000Z</time>
      </trkpt>
      <trkpt lat="48.83663" lon="2.3849">
        <ele>73.6</ele>
        <time>2013-03-03T15:15:28.000Z</time>
      </trkpt>
      <trkpt lat="48.83661" lon="2.38493">
        <ele>72.3</ele>
        <time>2013-03-03T15:15:29.000Z</time>
      </trkpt>
      <trkpt lat="48.83658" lon="2.38497">
        <ele>73.4</ele>
        <time>2013-03-03T15:15:30.000Z</time>
      </trkpt>
      <trkpt lat="48.83655" lon="2.385">
        <ele>76.9</ele>
        <time>2013-03-03T15:15:31.000Z</time>
      </trkpt>
      <trkpt lat="48.83651" lon="2.38503">
        <ele>78.2</ele>
        <time>2013-03-03T15:15:32.000Z</time>
      </trkpt>
      <trkpt lat="48.83648" lon="2.38507">
        <ele>78.3</ele>
        <time>2013-03-03T15:15:33.000Z</time>
      </trkpt>
      <trkpt lat="48.83645" lon="2.3851">
        <ele>79.1</ele>
        <time>2013-03-03T15:15:34.000Z</time>
      </trkpt>
      <trkpt lat="48.83643" lon="2.38514">
        <ele>78.5</ele>
        <time>2013-03-03T15:15:35.000Z</time>
      </trkpt>
      <trkpt lat="48.83641" lon="2.38518">
        <ele>78.9</ele>
        <time>2013-03-03T15:15:36.000Z</time>
      </trkpt>
      <trkpt lat="48.83639" lon="2.38523">
        <ele>78.6</ele>
        <time>2013-03-03T15:15:37.000Z</time>
      </trkpt>
      <trkpt lat="48.83638" lon="2.38528">
        <ele>79.1</ele>
        <time>2013-03-03T15:15:38.000Z</time>
      </trkpt>
      <trkpt lat="48.83637" lon="2.38533">
        <ele>79</ele>
        <time>2013-03-03T15:15:39.000Z</time>
      </trkpt>
      <trkpt lat="48.83635" lon="2.38538">
        <ele>78.5</ele>
        <time>2013-03-03T15:15:40.000Z</time>
      </trkpt>
      <trkpt lat="48.83632" lon="2.38543">
        <ele>78.6</ele>
        <time>2013-03-03T15:15:41.000Z</time>
      </trkpt>
      <trkpt lat="48.8363" lon="2.38547">
        <ele>79.2</ele>
        <time>2013-03-03T15:15:42.000Z</time>
      </trkpt>
      <trkpt lat="48.83628" lon="2.38552">
        <ele>80</ele>
        <time>2013-03-03T15:15:43.000Z</time>
      </trkpt>
      <trkpt lat="48.83627" lon="2.38556">
        <ele>80.3</ele>
        <time>2013-03-03T15:15:44.000Z</time>
      </trkpt>
      <trkpt lat="48.83626" lon="2.3856">
        <ele>81.1</ele>
        <time>2013-03-03T15:15:45.000Z</time>
      </trkpt>
      <trkpt lat="48.83624" lon="2.38564">
        <ele>81.8</ele>
        <time>2013-03-03T15:15:47.000Z</time>
      </trkpt>
      <trkpt lat="48.83619" lon="2.38562">
        <ele>84.3</ele>
        <time>2013-03-03T15:15:48.000Z</time>
      </trkpt>
      <trkpt lat="48.83615" lon="2.3856">
        <ele>84.3</ele>
        <time>2013-03-03T15:15:49.000Z</time>
      </trkpt>
      <trkpt lat="48.83613" lon="2.38559">
        <ele>84.2</ele>
        <time>2013-03-03T15:15:50.000Z</time>
      </trkpt>
      <trkpt lat="48.8361" lon="2.38554">
        <ele>86.6</ele>
        <time>2013-03-03T15:15:59.000Z</time>
      </trkpt>
      <trkpt lat="48.8361" lon="2.38554">
        <ele>86.4</ele>
        <time>2013-03-03T15:16:00.000Z</time>
      </trkpt>
      <trkpt lat="48.83606" lon="2.38556">
        <ele>85.5</ele>
        <time>2013-03-03T15:16:25.000Z</time>
      </trkpt>
      <trkpt lat="48.83605" lon="2.38559">
        <ele>84.5</ele>
        <time>2013-03-03T15:16:26.000Z</time>
      </trkpt>
      <trkpt lat="48.83603" lon="2.38562">
        <ele>82.9</ele>
        <time>2013-03-03T15:16:27.000Z</time>
      </trkpt>
      <trkpt lat="48.83601" lon="2.38564">
        <ele>79.6</ele>
        <time>2013-03-03T15:16:28.000Z</time>
      </trkpt>
      <trkpt lat="48.836" lon="2.38567">
        <ele>78.6</ele>
        <time>2013-03-03T15:16:29.000Z</time>
      </trkpt>
      <trkpt lat="48.83599" lon="2.38571">
        <ele>77.1</ele>
        <time>2013-03-03T15:16:30.000Z</time>
      </trkpt>
      <trkpt lat="48.83598" lon="2.38577">
        <ele>76.2</ele>
        <time>2013-03-03T15:16:32.000Z</time>
      </trkpt>
      <trkpt lat="48.83598" lon="2.38579">
        <ele>75.6</ele>
        <time>2013-03-03T15:16:33.000Z</time>
      </trkpt>
      <trkpt lat="48.83597" lon="2.38584">
        <ele>75.7</ele>
        <time>2013-03-03T15:16:36.000Z</time>
      </trkpt>
      <trkpt lat="48.83596" lon="2.38586">
        <ele>75.4</ele>
        <time>2013-03-03T15:16:37.000Z</time>
      </trkpt>
      <trkpt lat="48.83593" lon="2.38589">
        <ele>76.3</ele>
        <time>2013-03-03T15:16:40.000Z</time>
      </trkpt>
      <trkpt lat="48.83592" lon="2.38589">
        <ele>76.6</ele>
        <time>2013-03-03T15:16:41.000Z</time>
      </trkpt>
      <trkpt lat="48.8359" lon="2.38595">
        <ele>77.4</ele>
        <time>2013-03-03T15:16:48.000Z</time>
      </trkpt>
      <trkpt lat="48.8359" lon="2.38596">
        <ele>76</ele>
        <time>2013-03-03T15:16:49.000Z</time>
      </trkpt>
      <trkpt lat="48.83592" lon="2.386">
        <ele>72.6</ele>
        <time>2013-03-03T15:16:52.000Z</time>
      </trkpt>
      <trkpt lat="48.83593" lon="2.38603">
        <ele>72</ele>
        <time>2013-03-03T15:16:53.000Z</time>
      </trkpt>
      <trkpt lat="48.83594" lon="2.38608">
        <ele>73</ele>
        <time>2013-03-03T15:16:55.000Z</time>
      </trkpt>
      <trkpt lat="48.83595" lon="2.3861">
        <ele>72.8</ele>
        <time>2013-03-03T15:16:56.000Z</time>
      </trkpt>
      <trkpt lat="48.83596" lon="2.38613">
        <ele>73.3</ele>
        <time>2013-03-03T15:16:57.000Z</time>
      </trkpt>
      <trkpt lat="48.83596" lon="2.38617">
        <ele>72.1</ele>
        <time>2013-03-03T15:16:58.000Z</time>
      </trkpt>
      <trkpt lat="48.83597" lon="2.3862">
        <ele>71.3</ele>
        <time>2013-03-03T15:16:59.000Z</time>
      </trkpt>
      <trkpt lat="48.83598" lon="2.38623">
        <ele>69.7</ele>
        <time>2013-03-03T15:17:00.000Z</time>
      </trkpt>
      <trkpt lat="48.83599" lon="2.38629">
        <ele>69.1</ele>
        <time>2013-03-03T15:17:02.000Z</time>
      </trkpt>
      <trkpt lat="48.836" lon="2.38632">
        <ele>69</ele>
        <time>2013-03-03T15:17:03.000Z</time>
      </trkpt>
      <trkpt lat="48.83602" lon="2.38638">
        <ele>69.6</ele>
        <time>2013-03-03T15:17:05.000Z</time>
      </trkpt>
      <trkpt lat="48.83603" lon="2.38641">
        <ele>69.6</ele>
        <time>2013-03-03T15:17:06.000Z</time>
      </trkpt>
      <trkpt lat="48.83605" lon="2.38644">
        <ele>70</ele>
        <time>2013-03-03T15:17:07.000Z</time>
      </trkpt>
      <trkpt lat="48.83606" lon="2.38646">
        <ele>70.7</ele>
        <time>2013-03-03T15:17:08.000Z</time>
      </trkpt>
      <trkpt lat="48.83607" lon="2.38649">
        <ele>69.7</ele>
        <time>2013-03-03T15:17:09.000Z</time>
      </trkpt>
      <trkpt lat="48.83609" lon="2.38652">
        <ele>69.6</ele>
        <time>2013-03-03T15:17:10.000Z</time>
      </trkpt>
      <trkpt lat="48.83612" lon="2.38655">
        <ele>69.1</ele>
        <time>2013-03-03T15:17:11.000Z</time>
      </trkpt>
      <trkpt lat="48.83614" lon="2.38658">
        <ele>69.3</ele>
        <time>2013-03-03T15:17:12.000Z</time>
      </trkpt>
      <trkpt lat="48.83617" lon="2.38661">
        <ele>68.7</ele>
        <time>2013-03-03T15:17:13.000Z</time>
      </trkpt>
      <trkpt lat="48.83619" lon="2.38665">
        <ele>67.6</ele>
        <time>2013-03-03T15:17:14.000Z</time>
      </trkpt>
      <trkpt lat="48.83621" lon="2.38668">
        <ele>67.1</ele>
        <time>2013-03-03T15:17:15.000Z</time>
      </trkpt>
      <trkpt lat="48.83623" lon="2.38671">
        <ele>66.6</ele>
        <time>2013-03-03T15:17:16.000Z</time>
      </trkpt>
      <trkpt lat="48.83625" lon="2.38675">
        <ele>66.6</ele>
        <time>2013-03-03T15:17:17.000Z</time>
      </trkpt>
      <trkpt lat="48.83627" lon="2.38678">
        <ele>66.9</ele>
        <time>2013-03-03T15:17:18.000Z</time>
      </trkpt>
      <trkpt lat="48.83629" lon="2.38682">
        <ele>65.9</ele>
        <time>2013-03-03T15:17:19.000Z</time>
      </trkpt>
      <trkpt lat="48.83631" lon="2.38686">
        <ele>66.2</ele>
        <time>2013-03-03T15:17:20.000Z</time>
      </trkpt>
      <trkpt lat="48.83633" lon="2.3869">
        <ele>66</ele>
        <time>2013-03-03T15:17:21.000Z</time>
      </trkpt>
      <trkpt lat="48.83634" lon="2.38694">
        <ele>65.5</ele>
        <time>2013-03-03T15:17:22.000Z</time>
      </trkpt>
      <trkpt lat="48.83636" lon="2.38698">
        <ele>65.5</ele>
        <time>2013-03-03T15:17:23.000Z</time>
      </trkpt>
      <trkpt lat="48.83637" lon="2.38702">
        <ele>66.1</ele>
        <time>2013-03-03T15:17:24.000Z</time>
      </trkpt>
      <trkpt lat="48.83638" lon="2.38706">
        <ele>66.3</ele>
        <time>2013-03-03T15:17:25.000Z</time>
      </trkpt>
      <trkpt lat="48.83639" lon="2.38709">
        <ele>66.3</ele>
        <time>2013-03-03T15:17:26.000Z</time>
      </trkpt>
      <trkpt lat="48.83641" lon="2.38713">
        <ele>66.7</ele>
        <time>2013-03-03T15:17:27.000Z</time>
      </trkpt>
      <trkpt lat="48.83642" lon="2.38717">
        <ele>65.6</ele>
        <time>2013-03-03T15:17:28.000Z</time>
      </trkpt>
      <trkpt lat="48.83643" lon="2.3872">
        <ele>65.4</ele>
        <time>2013-03-03T15:17:29.000Z</time>
      </trkpt>
      <trkpt lat="48.83645" lon="2.38725">
        <ele>67</ele>
        <time>2013-03-03T15:17:31.000Z</time>
      </trkpt>
      <trkpt lat="48.83647" lon="2.38731">
        <ele>67</ele>
        <time>2013-03-03T15:17:33.000Z</time>
      </trkpt>
      <trkpt lat="48.83647" lon="2.38734">
        <ele>67.7</ele>
        <time>2013-03-03T15:17:34.000Z</time>
      </trkpt>
      <trkpt lat="48.83648" lon="2.38739">
        <ele>68.1</ele>
        <time>2013-03-03T15:17:36.000Z</time>
      </trkpt>
      <trkpt lat="48.83648" lon="2.38741">
        <ele>68.7</ele>
        <time>2013-03-03T15:17:37.000Z</time>
      </trkpt>
      <trkpt lat="48.83647" lon="2.38747">
        <ele>69.9</ele>
        <time>2013-03-03T15:17:39.000Z</time>
      </trkpt>
      <trkpt lat="48.83645" lon="2.38751">
        <ele>69.8</ele>
        <time>2013-03-03T15:17:40.000Z</time>
      </trkpt>
      <trkpt lat="48.83644" lon="2.38754">
        <ele>66.7</ele>
        <time>2013-03-03T15:17:41.000Z</time>
      </trkpt>
      <trkpt lat="48.83643" lon="2.38757">
        <ele>66.6</ele>
        <time>2013-03-03T15:17:42.000Z</time>
      </trkpt>
      <trkpt lat="48.83642" lon="2.38764">
        <ele>66.4</ele>
        <time>2013-03-03T15:17:44.000Z</time>
      </trkpt>
      <trkpt lat="48.83641" lon="2.38766">
        <ele>64.8</ele>
        <time>2013-03-03T15:17:45.000Z</time>
      </trkpt>
      <trkpt lat="48.8364" lon="2.38773">
        <ele>64.1</ele>
        <time>2013-03-03T15:17:47.000Z</time>
      </trkpt>
      <trkpt lat="48.8364" lon="2.38776">
        <ele>64.1</ele>
        <time>2013-03-03T15:17:48.000Z</time>
      </trkpt>
      <trkpt lat="48.83641" lon="2.38779">
        <ele>65</ele>
        <time>2013-03-03T15:17:49.000Z</time>
      </trkpt>
      <trkpt lat="48.83643" lon="2.38783">
        <ele>65.2</ele>
        <time>2013-03-03T15:17:50.000Z</time>
      </trkpt>
      <trkpt lat="48.83644" lon="2.38785">
        <ele>65.2</ele>
        <time>2013-03-03T15:17:51.000Z</time>
      </trkpt>
      <trkpt lat="48.83653" lon="2.3881">
        <ele>65.3</ele>
        <time>2013-03-03T15:18:02.000Z</time>
      </trkpt>
      <trkpt lat="48.83653" lon="2.38815">
        <ele>65.7</ele>
        <time>2013-03-03T15:18:09.000Z</time>
      </trkpt>
      <trkpt lat="48.83654" lon="2.38817">
        <ele>65.7</ele>
        <time>2013-03-03T15:18:10.000Z</time>
      </trkpt>
      <trkpt lat="48.83655" lon="2.38822">
        <ele>65.7</ele>
        <time>2013-03-03T15:18:13.000Z</time>
      </trkpt>
      <trkpt lat="48.83655" lon="2.38824">
        <ele>65.7</ele>
        <time>2013-03-03T15:18:14.000Z</time>
      </trkpt>
      <trkpt lat="48.83658" lon="2.38841">
        <ele>66</ele>
        <time>2013-03-03T15:18:20.000Z</time>
      </trkpt>
      <trkpt lat="48.83661" lon="2.38846">
        <ele>66.1</ele>
        <time>2013-03-03T15:18:21.000Z</time>
      </trkpt>
      <trkpt lat="48.83663" lon="2.3885">
        <ele>66.3</ele>
        <time>2013-03-03T15:18:22.000Z</time>
      </trkpt>
      <trkpt lat="48.83666" lon="2.38855">
        <ele>66.8</ele>
        <time>2013-03-03T15:18:23.000Z</time>
      </trkpt>
      <trkpt lat="48.83669" lon="2.38861">
        <ele>67</ele>
        <time>2013-03-03T15:18:24.000Z</time>
      </trkpt>
      <trkpt lat="48.83671" lon="2.38867">
        <ele>67</ele>
        <time>2013-03-03T15:18:25.000Z</time>
      </trkpt>
      <trkpt lat="48.83674" lon="2.38874">
        <ele>67.4</ele>
        <time>2013-03-03T15:18:26.000Z</time>
      </trkpt>
      <trkpt lat="48.83677" lon="2.38878">
        <ele>67.2</ele>
        <time>2013-03-03T15:18:27.000Z</time>
      </trkpt>
      <trkpt lat="48.8368" lon="2.38882">
        <ele>66.7</ele>
        <time>2013-03-03T15:18:28.000Z</time>
      </trkpt>
      <trkpt lat="48.837" lon="2.38932">
        <ele>67.6</ele>
        <time>2013-03-03T15:18:29.000Z</time>
      </trkpt>
      <trkpt lat="48.83715" lon="2.3896">
        <ele>68.4</ele>
        <time>2013-03-03T15:18:30.000Z</time>
      </trkpt>
      <trkpt lat="48.8371" lon="2.38982">
        <ele>73.8</ele>
        <time>2013-03-03T15:18:34.000Z</time>
      </trkpt>
      <trkpt lat="48.8371" lon="2.38986">
        <ele>76.2</ele>
        <time>2013-03-03T15:18:35.000Z</time>
      </trkpt>
      <trkpt lat="48.8371" lon="2.38989">
        <ele>78.8</ele>
        <time>2013-03-03T15:18:36.000Z</time>
      </trkpt>
      <trkpt lat="48.83711" lon="2.38996">
        <ele>78.4</ele>
        <time>2013-03-03T15:18:38.000Z</time>
      </trkpt>
      <trkpt lat="48.83711" lon="2.38998">
        <ele>78.9</ele>
        <time>2013-03-03T15:18:39.000Z</time>
      </trkpt>
      <trkpt lat="48.83713" lon="2.39003">
        <ele>81.4</ele>
        <time>2013-03-03T15:18:42.000Z</time>
      </trkpt>
      <trkpt lat="48.83713" lon="2.39005">
        <ele>83.3</ele>
        <time>2013-03-03T15:18:43.000Z</time>
      </trkpt>
      <trkpt lat="48.83711" lon="2.39009">
        <ele>89</ele>
        <time>2013-03-03T15:19:14.000Z</time>
      </trkpt>
      <trkpt lat="48.83711" lon="2.39011">
        <ele>89.2</ele>
        <time>2013-03-03T15:19:15.000Z</time>
      </trkpt>
      <trkpt lat="48.83711" lon="2.39017">
        <ele>90.2</ele>
        <time>2013-03-03T15:19:17.000Z</time>
      </trkpt>
      <trkpt lat="48.83712" lon="2.3902">
        <ele>90.9</ele>
        <time>2013-03-03T15:19:18.000Z</time>
      </trkpt>
      <trkpt lat="48.83714" lon="2.39025">
        <ele>91.1</ele>
        <time>2013-03-03T15:19:20.000Z</time>
      </trkpt>
      <trkpt lat="48.83715" lon="2.39027">
        <ele>92.1</ele>
        <time>2013-03-03T15:19:21.000Z</time>
      </trkpt>
      <trkpt lat="48.83717" lon="2.39032">
        <ele>92.2</ele>
        <time>2013-03-03T15:19:23.000Z</time>
      </trkpt>
      <trkpt lat="48.83718" lon="2.39035">
        <ele>92.6</ele>
        <time>2013-03-03T15:19:24.000Z</time>
      </trkpt>
      <trkpt lat="48.83718" lon="2.39039">
        <ele>90.3</ele>
        <time>2013-03-03T15:19:25.000Z</time>
      </trkpt>
      <trkpt lat="48.83719" lon="2.39042">
        <ele>89.5</ele>
        <time>2013-03-03T15:19:26.000Z</time>
      </trkpt>
      <trkpt lat="48.83719" lon="2.39046">
        <ele>88.8</ele>
        <time>2013-03-03T15:19:27.000Z</time>
      </trkpt>
      <trkpt lat="48.8372" lon="2.39049">
        <ele>88.4</ele>
        <time>2013-03-03T15:19:28.000Z</time>
      </trkpt>
      <trkpt lat="48.83721" lon="2.39052">
        <ele>88.7</ele>
        <time>2013-03-03T15:19:29.000Z</time>
      </trkpt>
      <trkpt lat="48.83722" lon="2.39056">
        <ele>89.7</ele>
        <time>2013-03-03T15:19:30.000Z</time>
      </trkpt>
      <trkpt lat="48.83722" lon="2.3906">
        <ele>90.3</ele>
        <time>2013-03-03T15:19:31.000Z</time>
      </trkpt>
      <trkpt lat="48.83723" lon="2.39065">
        <ele>88.2</ele>
        <time>2013-03-03T15:19:32.000Z</time>
      </trkpt>
      <trkpt lat="48.83724" lon="2.39069">
        <ele>87.6</ele>
        <time>2013-03-03T15:19:33.000Z</time>
      </trkpt>
      <trkpt lat="48.83725" lon="2.39072">
        <ele>87.9</ele>
        <time>2013-03-03T15:19:34.000Z</time>
      </trkpt>
      <trkpt lat="48.83728" lon="2.39075">
        <ele>89.9</ele>
        <time>2013-03-03T15:19:36.000Z</time>
      </trkpt>
      <trkpt lat="48.83729" lon="2.39077">
        <ele>91</ele>
        <time>2013-03-03T15:19:37.000Z</time>
      </trkpt>
      <trkpt lat="48.83732" lon="2.39081">
        <ele>91.3</ele>
        <time>2013-03-03T15:19:40.000Z</time>
      </trkpt>
      <trkpt lat="48.83733" lon="2.39082">
        <ele>89.8</ele>
        <time>2013-03-03T15:19:41.000Z</time>
      </trkpt>
      <trkpt lat="48.83733" lon="2.39088">
        <ele>91.5</ele>
        <time>2013-03-03T15:19:44.000Z</time>
      </trkpt>
      <trkpt lat="48.83733" lon="2.39089">
        <ele>91.1</ele>
        <time>2013-03-03T15:19:45.000Z</time>
      </trkpt>
      <trkpt lat="48.83736" lon="2.3909">
        <ele>85.9</ele>
        <time>2013-03-03T15:20:16.000Z</time>
      </trkpt>
      <trkpt lat="48.83739" lon="2.39087">
        <ele>84</ele>
        <time>2013-03-03T15:20:17.000Z</time>
      </trkpt>
      <trkpt lat="48.83742" lon="2.39084">
        <ele>82.5</ele>
        <time>2013-03-03T15:20:18.000Z</time>
      </trkpt>
      <trkpt lat="48.83746" lon="2.3908">
        <ele>84.2</ele>
        <time>2013-03-03T15:20:19.000Z</time>
      </trkpt>
      <trkpt lat="48.8375" lon="2.39077">
        <ele>83.5</ele>
        <time>2013-03-03T15:20:20.000Z</time>
      </trkpt>
      <trkpt lat="48.83754" lon="2.39073">
        <ele>83.3</ele>
        <time>2013-03-03T15:20:21.000Z</time>
      </trkpt>
      <trkpt lat="48.83757" lon="2.3907">
        <ele>81.9</ele>
        <time>2013-03-03T15:20:22.000Z</time>
      </trkpt>
      <trkpt lat="48.83761" lon="2.39067">
        <ele>82.7</ele>
        <time>2013-03-03T15:20:23.000Z</time>
      </trkpt>
      <trkpt lat="48.83764" lon="2.39064">
        <ele>82.5</ele>
        <time>2013-03-03T15:20:24.000Z</time>
      </trkpt>
      <trkpt lat="48.83768" lon="2.39062">
        <ele>82.2</ele>
        <time>2013-03-03T15:20:25.000Z</time>
      </trkpt>
      <trkpt lat="48.83772" lon="2.39059">
        <ele>82.2</ele>
        <time>2013-03-03T15:20:26.000Z</time>
      </trkpt>
      <trkpt lat="48.83775" lon="2.39056">
        <ele>87.1</ele>
        <time>2013-03-03T15:20:27.000Z</time>
      </trkpt>
      <trkpt lat="48.83779" lon="2.39053">
        <ele>87.6</ele>
        <time>2013-03-03T15:20:28.000Z</time>
      </trkpt>
      <trkpt lat="48.83782" lon="2.39049">
        <ele>85.6</ele>
        <time>2013-03-03T15:20:29.000Z</time>
      </trkpt>
      <trkpt lat="48.83785" lon="2.39046">
        <ele>85</ele>
        <time>2013-03-03T15:20:30.000Z</time>
      </trkpt>
      <trkpt lat="48.83789" lon="2.39042">
        <ele>85.7</ele>
        <time>2013-03-03T15:20:31.000Z</time>
      </trkpt>
      <trkpt lat="48.83792" lon="2.39037">
        <ele>86.1</ele>
        <time>2013-03-03T15:20:32.000Z</time>
      </trkpt>
      <trkpt lat="48.83795" lon="2.39033">
        <ele>85.5</ele>
        <time>2013-03-03T15:20:33.000Z</time>
      </trkpt>
      <trkpt lat="48.83799" lon="2.39029">
        <ele>86.6</ele>
        <time>2013-03-03T15:20:34.000Z</time>
      </trkpt>
      <trkpt lat="48.83802" lon="2.39026">
        <ele>86.7</ele>
        <time>2013-03-03T15:20:35.000Z</time>
      </trkpt>
      <trkpt lat="48.83806" lon="2.39022">
        <ele>86.4</ele>
        <time>2013-03-03T15:20:36.000Z</time>
      </trkpt>
      <trkpt lat="48.83809" lon="2.39019">
        <ele>86.7</ele>
        <time>2013-03-03T15:20:37.000Z</time>
      </trkpt>
      <trkpt lat="48.83813" lon="2.39015">
        <ele>86.6</ele>
        <time>2013-03-03T15:20:38.000Z</time>
      </trkpt>
      <trkpt lat="48.83816" lon="2.39012">
        <ele>86.7</ele>
        <time>2013-03-03T15:20:39.000Z</time>
      </trkpt>
      <trkpt lat="48.83819" lon="2.39008">
        <ele>86.6</ele>
        <time>2013-03-03T15:20:40.000Z</time>
      </trkpt>
      <trkpt lat="48.83822" lon="2.39004">
        <ele>86.4</ele>
        <time>2013-03-03T15:20:41.000Z</time>
      </trkpt>
      <trkpt lat="48.83825" lon="2.39">
        <ele>85.8</ele>
        <time>2013-03-03T15:20:42.000Z</time>
      </trkpt>
      <trkpt lat="48.83828" lon="2.38995">
        <ele>85.8</ele>
        <time>2013-03-03T15:20:43.000Z</time>
      </trkpt>
      <trkpt lat="48.8383" lon="2.38991">
        <ele>85.4</ele>
        <time>2013-03-03T15:20:44.000Z</time>
      </trkpt>
      <trkpt lat="48.83833" lon="2.38986">
        <ele>87.4</ele>
        <time>2013-03-03T15:20:45.000Z</time>
      </trkpt>
      <trkpt lat="48.83837" lon="2.38982">
        <ele>87.8</ele>
        <time>2013-03-03T15:20:46.000Z</time>
      </trkpt>
      <trkpt lat="48.8384" lon="2.38979">
        <ele>88.1</ele>
        <time>2013-03-03T15:20:47.000Z</time>
      </trkpt>
      <trkpt lat="48.83843" lon="2.38974">
        <ele>88.8</ele>
        <time>2013-03-03T15:20:48.000Z</time>
      </trkpt>
      <trkpt lat="48.83846" lon="2.3897">
        <ele>88.8</ele>
        <time>2013-03-03T15:20:49.000Z</time>
      </trkpt>
      <trkpt lat="48.83849" lon="2.38966">
        <ele>89</ele>
        <time>2013-03-03T15:20:50.000Z</time>
      </trkpt>
      <trkpt lat="48.83852" lon="2.38962">
        <ele>89</ele>
        <time>2013-03-03T15:20:51.000Z</time>
      </trkpt>
      <trkpt lat="48.83855" lon="2.38958">
        <ele>89.3</ele>
        <time>2013-03-03T15:20:52.000Z</time>
      </trkpt>
      <trkpt lat="48.83858" lon="2.38955">
        <ele>89.5</ele>
        <time>2013-03-03T15:20:53.000Z</time>
      </trkpt>
      <trkpt lat="48.83861" lon="2.38953">
        <ele>91.4</ele>
        <time>2013-03-03T15:20:54.000Z</time>
      </trkpt>
      <trkpt lat="48.83863" lon="2.38953">
        <ele>91</ele>
        <time>2013-03-03T15:20:55.000Z</time>
      </trkpt>
      <trkpt lat="48.83866" lon="2.38957">
        <ele>80.9</ele>
        <time>2013-03-03T15:20:56.000Z</time>
      </trkpt>
      <trkpt lat="48.83868" lon="2.3896">
        <ele>79.9</ele>
        <time>2013-03-03T15:20:57.000Z</time>
      </trkpt>
      <trkpt lat="48.8387" lon="2.38964">
        <ele>78.5</ele>
        <time>2013-03-03T15:20:58.000Z</time>
      </trkpt>
      <trkpt lat="48.83871" lon="2.38966">
        <ele>78.3</ele>
        <time>2013-03-03T15:20:59.000Z</time>
      </trkpt>
      <trkpt lat="48.83872" lon="2.38971">
        <ele>78.6</ele>
        <time>2013-03-03T15:21:01.000Z</time>
      </trkpt>
      <trkpt lat="48.83872" lon="2.38973">
        <ele>78.9</ele>
        <time>2013-03-03T15:21:02.000Z</time>
      </trkpt>
      <trkpt lat="48.83875" lon="2.38977">
        <ele>78.3</ele>
        <time>2013-03-03T15:22:23.000Z</time>
      </trkpt>
      <trkpt lat="48.83877" lon="2.38979">
        <ele>77.4</ele>
        <time>2013-03-03T15:22:24.000Z</time>
      </trkpt>
      <trkpt lat="48.8388" lon="2.38984">
        <ele>78.8</ele>
        <time>2013-03-03T15:22:26.000Z</time>
      </trkpt>
      <trkpt lat="48.83881" lon="2.38986">
        <ele>79.6</ele>
        <time>2013-03-03T15:22:27.000Z</time>
      </trkpt>
      <trkpt lat="48.83884" lon="2.38989">
        <ele>80.5</ele>
        <time>2013-03-03T15:22:29.000Z</time>
      </trkpt>
      <trkpt lat="48.83886" lon="2.38991">
        <ele>79.7</ele>
        <time>2013-03-03T15:22:30.000Z</time>
      </trkpt>
      <trkpt lat="48.83888" lon="2.38996">
        <ele>79.4</ele>
        <time>2013-03-03T15:22:32.000Z</time>
      </trkpt>
      <trkpt lat="48.83889" lon="2.38998">
        <ele>80.1</ele>
        <time>2013-03-03T15:22:33.000Z</time>
      </trkpt>
      <trkpt lat="48.83891" lon="2.39002">
        <ele>80.1</ele>
        <time>2013-03-03T15:22:35.000Z</time>
      </trkpt>
      <trkpt lat="48.83892" lon="2.39004">
        <ele>81.3</ele>
        <time>2013-03-03T15:22:36.000Z</time>
      </trkpt>
      <trkpt lat="48.83894" lon="2.39008">
        <ele>80</ele>
        <time>2013-03-03T15:22:38.000Z</time>
      </trkpt>
      <trkpt lat="48.83894" lon="2.3901">
        <ele>79.5</ele>
        <time>2013-03-03T15:22:39.000Z</time>
      </trkpt>
      <trkpt lat="48.83894" lon="2.39017">
        <ele>78.1</ele>
        <time>2013-03-03T15:22:41.000Z</time>
      </trkpt>
      <trkpt lat="48.83894" lon="2.39021">
        <ele>77.9</ele>
        <time>2013-03-03T15:22:42.000Z</time>
      </trkpt>
      <trkpt lat="48.83894" lon="2.39026">
        <ele>77.7</ele>
        <time>2013-03-03T15:22:43.000Z</time>
      </trkpt>
      <trkpt lat="48.83894" lon="2.3903">
        <ele>77.3</ele>
        <time>2013-03-03T15:22:44.000Z</time>
      </trkpt>
      <trkpt lat="48.83895" lon="2.39035">
        <ele>76.9</ele>
        <time>2013-03-03T15:22:45.000Z</time>
      </trkpt>
      <trkpt lat="48.83896" lon="2.39038">
        <ele>76.3</ele>
        <time>2013-03-03T15:22:46.000Z</time>
      </trkpt>
      <trkpt lat="48.83897" lon="2.39041">
        <ele>76.9</ele>
        <time>2013-03-03T15:22:47.000Z</time>
      </trkpt>
      <trkpt lat="48.83898" lon="2.39045">
        <ele>77.3</ele>
        <time>2013-03-03T15:22:48.000Z</time>
      </trkpt>
      <trkpt lat="48.83899" lon="2.39048">
        <ele>77.7</ele>
        <time>2013-03-03T15:22:49.000Z</time>
      </trkpt>
      <trkpt lat="48.839" lon="2.39052">
        <ele>77</ele>
        <time>2013-03-03T15:22:50.000Z</time>
      </trkpt>
      <trkpt lat="48.83901" lon="2.39055">
        <ele>77.1</ele>
        <time>2013-03-03T15:22:51.000Z</time>
      </trkpt>
      <trkpt lat="48.83901" lon="2.39059">
        <ele>77.5</ele>
        <time>2013-03-03T15:22:52.000Z</time>
      </trkpt>
      <trkpt lat="48.83902" lon="2.39063">
        <ele>78.9</ele>
        <time>2013-03-03T15:22:53.000Z</time>
      </trkpt>
      <trkpt lat="48.83903" lon="2.39067">
        <ele>79.3</ele>
        <time>2013-03-03T15:22:54.000Z</time>
      </trkpt>
      <trkpt lat="48.83904" lon="2.39071">
        <ele>78.5</ele>
        <time>2013-03-03T15:22:55.000Z</time>
      </trkpt>
      <trkpt lat="48.83905" lon="2.39074">
        <ele>78.1</ele>
        <time>2013-03-03T15:22:56.000Z</time>
      </trkpt>
      <trkpt lat="48.83905" lon="2.39078">
        <ele>78.3</ele>
        <time>2013-03-03T15:22:57.000Z</time>
      </trkpt>
      <trkpt lat="48.83906" lon="2.39081">
        <ele>77.8</ele>
        <time>2013-03-03T15:22:58.000Z</time>
      </trkpt>
      <trkpt lat="48.83907" lon="2.39085">
        <ele>78</ele>
        <time>2013-03-03T15:22:59.000Z</time>
      </trkpt>
      <trkpt lat="48.83908" lon="2.39089">
        <ele>77.5</ele>
        <time>2013-03-03T15:23:00.000Z</time>
      </trkpt>
      <trkpt lat="48.83909" lon="2.39093">
        <ele>78.6</ele>
        <time>2013-03-03T15:23:01.000Z</time>
      </trkpt>
      <trkpt lat="48.8391" lon="2.39096">
        <ele>78</ele>
        <time>2013-03-03T15:23:02.000Z</time>
      </trkpt>
      <trkpt lat="48.83911" lon="2.391">
        <ele>77.3</ele>
        <time>2013-03-03T15:23:03.000Z</time>
      </trkpt>
      <trkpt lat="48.83911" lon="2.39104">
        <ele>77.9</ele>
        <time>2013-03-03T15:23:04.000Z</time>
      </trkpt>
      <trkpt lat="48.83911" lon="2.39107">
        <ele>78.4</ele>
        <time>2013-03-03T15:23:05.000Z</time>
      </trkpt>
      <trkpt lat="48.83911" lon="2.39111">
        <ele>78.3</ele>
        <time>2013-03-03T15:23:06.000Z</time>
      </trkpt>
      <trkpt lat="48.83911" lon="2.39115">
        <ele>78.4</ele>
        <time>2013-03-03T15:23:07.000Z</time>
      </trkpt>
      <trkpt lat="48.83912" lon="2.39119">
        <ele>78.9</ele>
        <time>2013-03-03T15:23:08.000Z</time>
      </trkpt>
      <trkpt lat="48.83912" lon="2.39122">
        <ele>78.6</ele>
        <time>2013-03-03T15:23:09.000Z</time>
      </trkpt>
      <trkpt lat="48.83912" lon="2.39126">
        <ele>78.9</ele>
        <time>2013-03-03T15:23:10.000Z</time>
      </trkpt>
      <trkpt lat="48.83913" lon="2.3913">
        <ele>79.9</ele>
        <time>2013-03-03T15:23:11.000Z</time>
      </trkpt>
      <trkpt lat="48.83914" lon="2.39133">
        <ele>80.2</ele>
        <time>2013-03-03T15:23:12.000Z</time>
      </trkpt>
      <trkpt lat="48.83914" lon="2.39136">
        <ele>81.9</ele>
        <time>2013-03-03T15:23:13.000Z</time>
      </trkpt>
      <trkpt lat="48.83914" lon="2.3914">
        <ele>82</ele>
        <time>2013-03-03T15:23:14.000Z</time>
      </trkpt>
      <trkpt lat="48.83914" lon="2.39144">
        <ele>81.5</ele>
        <time>2013-03-03T15:23:15.000Z</time>
      </trkpt>
      <trkpt lat="48.83915" lon="2.39149">
        <ele>83.3</ele>
        <time>2013-03-03T15:23:16.000Z</time>
      </trkpt>
      <trkpt lat="48.83914" lon="2.39155">
        <ele>83.7</ele>
        <time>2013-03-03T15:23:17.000Z</time>
      </trkpt>
      <trkpt lat="48.83914" lon="2.39161">
        <ele>87.1</ele>
        <time>2013-03-03T15:23:18.000Z</time>
      </trkpt>
      <trkpt lat="48.83913" lon="2.39166">
        <ele>87.5</ele>
        <time>2013-03-03T15:23:19.000Z</time>
      </trkpt>
      <trkpt lat="48.83914" lon="2.39172">
        <ele>87.2</ele>
        <time>2013-03-03T15:23:20.000Z</time>
      </trkpt>
      <trkpt lat="48.83914" lon="2.39176">
        <ele>87.6</ele>
        <time>2013-03-03T15:23:21.000Z</time>
      </trkpt>
      <trkpt lat="48.83914" lon="2.39181">
        <ele>87.1</ele>
        <time>2013-03-03T15:23:22.000Z</time>
      </trkpt>
      <trkpt lat="48.83914" lon="2.39186">
        <ele>86.8</ele>
        <time>2013-03-03T15:23:23.000Z</time>
      </trkpt>
      <trkpt lat="48.83913" lon="2.3919">
        <ele>86.8</ele>
        <time>2013-03-03T15:23:24.000Z</time>
      </trkpt>
      <trkpt lat="48.83913" lon="2.39195">
        <ele>86.1</ele>
        <time>2013-03-03T15:23:25.000Z</time>
      </trkpt>
      <trkpt lat="48.83914" lon="2.392">
        <ele>85.4</ele>
        <time>2013-03-03T15:23:26.000Z</time>
      </trkpt>
      <trkpt lat="48.83914" lon="2.39205">
        <ele>86.9</ele>
        <time>2013-03-03T15:23:27.000Z</time>
      </trkpt>
      <trkpt lat="48.83915" lon="2.3921">
        <ele>85.9</ele>
        <time>2013-03-03T15:23:28.000Z</time>
      </trkpt>
      <trkpt lat="48.83916" lon="2.39214">
        <ele>84.6</ele>
        <time>2013-03-03T15:23:29.000Z</time>
      </trkpt>
      <trkpt lat="48.83916" lon="2.39224">
        <ele>85.5</ele>
        <time>2013-03-03T15:23:32.000Z</time>
      </trkpt>
      <trkpt lat="48.83912" lon="2.39225">
        <ele>80.7</ele>
        <time>2013-03-03T15:23:37.000Z</time>
      </trkpt>
      <trkpt lat="48.83912" lon="2.39227">
        <ele>80.7</ele>
        <time>2013-03-03T15:23:38.000Z</time>
      </trkpt>
      <trkpt lat="48.83913" lon="2.39231">
        <ele>80.3</ele>
        <time>2013-03-03T15:23:40.000Z</time>
      </trkpt>
      <trkpt lat="48.83914" lon="2.39233">
        <ele>79.3</ele>
        <time>2013-03-03T15:23:41.000Z</time>
      </trkpt>
      <trkpt lat="48.83915" lon="2.39237">
        <ele>80.7</ele>
        <time>2013-03-03T15:23:42.000Z</time>
      </trkpt>
      <trkpt lat="48.83916" lon="2.39241">
        <ele>80.9</ele>
        <time>2013-03-03T15:23:43.000Z</time>
      </trkpt>
      <trkpt lat="48.83917" lon="2.39245">
        <ele>80.7</ele>
        <time>2013-03-03T15:23:44.000Z</time>
      </trkpt>
      <trkpt lat="48.83918" lon="2.39248">
        <ele>81.1</ele>
        <time>2013-03-03T15:23:45.000Z</time>
      </trkpt>
      <trkpt lat="48.83919" lon="2.39251">
        <ele>81.2</ele>
        <time>2013-03-03T15:23:46.000Z</time>
      </trkpt>
      <trkpt lat="48.83919" lon="2.39255">
        <ele>82</ele>
        <time>2013-03-03T15:23:47.000Z</time>
      </trkpt>
      <trkpt lat="48.83919" lon="2.39258">
        <ele>81.9</ele>
        <time>2013-03-03T15:23:48.000Z</time>
      </trkpt>
      <trkpt lat="48.83919" lon="2.39261">
        <ele>82.3</ele>
        <time>2013-03-03T15:23:49.000Z</time>
      </trkpt>
      <trkpt lat="48.83919" lon="2.39267">
        <ele>82.9</ele>
        <time>2013-03-03T15:23:51.000Z</time>
      </trkpt>
      <trkpt lat="48.83919" lon="2.3927">
        <ele>83.3</ele>
        <time>2013-03-03T15:23:52.000Z</time>
      </trkpt>
      <trkpt lat="48.83919" lon="2.39276">
        <ele>83.3</ele>
        <time>2013-03-03T15:23:54.000Z</time>
      </trkpt>
      <trkpt lat="48.83919" lon="2.39279">
        <ele>83.8</ele>
        <time>2013-03-03T15:23:55.000Z</time>
      </trkpt>
      <trkpt lat="48.83919" lon="2.39285">
        <ele>84.7</ele>
        <time>2013-03-03T15:23:57.000Z</time>
      </trkpt>
      <trkpt lat="48.8392" lon="2.39289">
        <ele>84.4</ele>
        <time>2013-03-03T15:23:58.000Z</time>
      </trkpt>
      <trkpt lat="48.8392" lon="2.39295">
        <ele>83.2</ele>
        <time>2013-03-03T15:24:00.000Z</time>
      </trkpt>
      <trkpt lat="48.8392" lon="2.39298">
        <ele>83.7</ele>
        <time>2013-03-03T15:24:01.000Z</time>
      </trkpt>
      <trkpt lat="48.83921" lon="2.39301">
        <ele>84.6</ele>
        <time>2013-03-03T15:24:02.000Z</time>
      </trkpt>
      <trkpt lat="48.83921" lon="2.39305">
        <ele>84.4</ele>
        <time>2013-03-03T15:24:03.000Z</time>
      </trkpt>
      <trkpt lat="48.83922" lon="2.39308">
        <ele>84.5</ele>
        <time>2013-03-03T15:24:04.000Z</time>
      </trkpt>
      <trkpt lat="48.83923" lon="2.39312">
        <ele>84.9</ele>
        <time>2013-03-03T15:24:05.000Z</time>
      </trkpt>
      <trkpt lat="48.83924" lon="2.39316">
        <ele>84.9</ele>
        <time>2013-03-03T15:24:06.000Z</time>
      </trkpt>
      <trkpt lat="48.83924" lon="2.39321">
        <ele>84.2</ele>
        <time>2013-03-03T15:24:07.000Z</time>
      </trkpt>
      <trkpt lat="48.83924" lon="2.39325">
        <ele>83.8</ele>
        <time>2013-03-03T15:24:08.000Z</time>
      </trkpt>
      <trkpt lat="48.83925" lon="2.39329">
        <ele>84.4</ele>
        <time>2013-03-03T15:24:09.000Z</time>
      </trkpt>
      <trkpt lat="48.83925" lon="2.39333">
        <ele>84.8</ele>
        <time>2013-03-03T15:24:10.000Z</time>
      </trkpt>
      <trkpt lat="48.83926" lon="2.39337">
        <ele>84</ele>
        <time>2013-03-03T15:24:11.000Z</time>
      </trkpt>
      <trkpt lat="48.83926" lon="2.3934">
        <ele>83.1</ele>
        <time>2013-03-03T15:24:12.000Z</time>
      </trkpt>
      <trkpt lat="48.83926" lon="2.39344">
        <ele>83.1</ele>
        <time>2013-03-03T15:24:13.000Z</time>
      </trkpt>
      <trkpt lat="48.83926" lon="2.39348">
        <ele>84.8</ele>
        <time>2013-03-03T15:24:14.000Z</time>
      </trkpt>
      <trkpt lat="48.83926" lon="2.39352">
        <ele>85</ele>
        <time>2013-03-03T15:24:15.000Z</time>
      </trkpt>
      <trkpt lat="48.83926" lon="2.39356">
        <ele>84.8</ele>
        <time>2013-03-03T15:24:16.000Z</time>
      </trkpt>
      <trkpt lat="48.83926" lon="2.3936">
        <ele>84</ele>
        <time>2013-03-03T15:24:17.000Z</time>
      </trkpt>
      <trkpt lat="48.83928" lon="2.39366">
        <ele>84.4</ele>
        <time>2013-03-03T15:24:19.000Z</time>
      </trkpt>
      <trkpt lat="48.83929" lon="2.39369">
        <ele>84.2</ele>
        <time>2013-03-03T15:24:20.000Z</time>
      </trkpt>
      <trkpt lat="48.8393" lon="2.39373">
        <ele>84.2</ele>
        <time>2013-03-03T15:24:21.000Z</time>
      </trkpt>
      <trkpt lat="48.8393" lon="2.39376">
        <ele>84.9</ele>
        <time>2013-03-03T15:24:22.000Z</time>
      </trkpt>
      <trkpt lat="48.8393" lon="2.3938">
        <ele>85.2</ele>
        <time>2013-03-03T15:24:23.000Z</time>
      </trkpt>
      <trkpt lat="48.8393" lon="2.39384">
        <ele>84.8</ele>
        <time>2013-03-03T15:24:24.000Z</time>
      </trkpt>
      <trkpt lat="48.83931" lon="2.3939">
        <ele>83.5</ele>
        <time>2013-03-03T15:24:26.000Z</time>
      </trkpt>
      <trkpt lat="48.83932" lon="2.39393">
        <ele>83.1</ele>
        <time>2013-03-03T15:24:27.000Z</time>
      </trkpt>
      <trkpt lat="48.83933" lon="2.39398">
        <ele>83.7</ele>
        <time>2013-03-03T15:24:29.000Z</time>
      </trkpt>
      <trkpt lat="48.83931" lon="2.39401">
        <ele>87.7</ele>
        <time>2013-03-03T15:24:32.000Z</time>
      </trkpt>
      <trkpt lat="48.83929" lon="2.39406">
        <ele>90.1</ele>
        <time>2013-03-03T15:24:34.000Z</time>
      </trkpt>
      <trkpt lat="48.83928" lon="2.39409">
        <ele>90.2</ele>
        <time>2013-03-03T15:24:35.000Z</time>
      </trkpt>
      <trkpt lat="48.83929" lon="2.39415">
        <ele>88.4</ele>
        <time>2013-03-03T15:24:45.000Z</time>
      </trkpt>
      <trkpt lat="48.83929" lon="2.39417">
        <ele>88.6</ele>
        <time>2013-03-03T15:24:46.000Z</time>
      </trkpt>
      <trkpt lat="48.8393" lon="2.39423">
        <ele>86.8</ele>
        <time>2013-03-03T15:24:49.000Z</time>
      </trkpt>
      <trkpt lat="48.8393" lon="2.39425">
        <ele>86.7</ele>
        <time>2013-03-03T15:24:50.000Z</time>
      </trkpt>
      <trkpt lat="48.83929" lon="2.39429">
        <ele>87.3</ele>
        <time>2013-03-03T15:24:51.000Z</time>
      </trkpt>
      <trkpt lat="48.83929" lon="2.39432">
        <ele>88</ele>
        <time>2013-03-03T15:24:52.000Z</time>
      </trkpt>
      <trkpt lat="48.83928" lon="2.39438">
        <ele>86.2</ele>
        <time>2013-03-03T15:24:54.000Z</time>
      </trkpt>
      <trkpt lat="48.83928" lon="2.39441">
        <ele>86.1</ele>
        <time>2013-03-03T15:24:55.000Z</time>
      </trkpt>
      <trkpt lat="48.83929" lon="2.39446">
        <ele>85.3</ele>
        <time>2013-03-03T15:24:57.000Z</time>
      </trkpt>
      <trkpt lat="48.83929" lon="2.39449">
        <ele>86.1</ele>
        <time>2013-03-03T15:24:58.000Z</time>
      </trkpt>
      <trkpt lat="48.8393" lon="2.39455">
        <ele>86.5</ele>
        <time>2013-03-03T15:25:00.000Z</time>
      </trkpt>
      <trkpt lat="48.8393" lon="2.3946">
        <ele>86.7</ele>
        <time>2013-03-03T15:25:01.000Z</time>
      </trkpt>
      <trkpt lat="48.83931" lon="2.39465">
        <ele>86.9</ele>
        <time>2013-03-03T15:25:02.000Z</time>
      </trkpt>
      <trkpt lat="48.83933" lon="2.39469">
        <ele>86.1</ele>
        <time>2013-03-03T15:25:03.000Z</time>
      </trkpt>
      <trkpt lat="48.83933" lon="2.39474">
        <ele>86</ele>
        <time>2013-03-03T15:25:04.000Z</time>
      </trkpt>
      <trkpt lat="48.83934" lon="2.39479">
        <ele>85.7</ele>
        <time>2013-03-03T15:25:05.000Z</time>
      </trkpt>
      <trkpt lat="48.83934" lon="2.39484">
        <ele>86.3</ele>
        <time>2013-03-03T15:25:06.000Z</time>
      </trkpt>
      <trkpt lat="48.83934" lon="2.39489">
        <ele>85.2</ele>
        <time>2013-03-03T15:25:07.000Z</time>
      </trkpt>
      <trkpt lat="48.83933" lon="2.39494">
        <ele>84.4</ele>
        <time>2013-03-03T15:25:08.000Z</time>
      </trkpt>
      <trkpt lat="48.83934" lon="2.39499">
        <ele>83.5</ele>
        <time>2013-03-03T15:25:09.000Z</time>
      </trkpt>
      <trkpt lat="48.83934" lon="2.39503">
        <ele>82.7</ele>
        <time>2013-03-03T15:25:10.000Z</time>
      </trkpt>
      <trkpt lat="48.83935" lon="2.39507">
        <ele>82.8</ele>
        <time>2013-03-03T15:25:11.000Z</time>
      </trkpt>
      <trkpt lat="48.83935" lon="2.39512">
        <ele>82.8</ele>
        <time>2013-03-03T15:25:12.000Z</time>
      </trkpt>
      <trkpt lat="48.83935" lon="2.39517">
        <ele>84</ele>
        <time>2013-03-03T15:25:13.000Z</time>
      </trkpt>
      <trkpt lat="48.83934" lon="2.39522">
        <ele>85.3</ele>
        <time>2013-03-03T15:25:14.000Z</time>
      </trkpt>
      <trkpt lat="48.83934" lon="2.39527">
        <ele>86.5</ele>
        <time>2013-03-03T15:25:15.000Z</time>
      </trkpt>
      <trkpt lat="48.83933" lon="2.39533">
        <ele>86.7</ele>
        <time>2013-03-03T15:25:16.000Z</time>
      </trkpt>
      <trkpt lat="48.83932" lon="2.3954">
        <ele>87.2</ele>
        <time>2013-03-03T15:25:17.000Z</time>
      </trkpt>
      <trkpt lat="48.83931" lon="2.39546">
        <ele>87.8</ele>
        <time>2013-03-03T15:25:18.000Z</time>
      </trkpt>
      <trkpt lat="48.8393" lon="2.39552">
        <ele>87.9</ele>
        <time>2013-03-03T15:25:19.000Z</time>
      </trkpt>
      <trkpt lat="48.83929" lon="2.39557">
        <ele>87.8</ele>
        <time>2013-03-03T15:25:20.000Z</time>
      </trkpt>
      <trkpt lat="48.83928" lon="2.39563">
        <ele>88.9</ele>
        <time>2013-03-03T15:25:21.000Z</time>
      </trkpt>
      <trkpt lat="48.83927" lon="2.39568">
        <ele>88.2</ele>
        <time>2013-03-03T15:25:22.000Z</time>
      </trkpt>
      <trkpt lat="48.83925" lon="2.39573">
        <ele>88.2</ele>
        <time>2013-03-03T15:25:23.000Z</time>
      </trkpt>
      <trkpt lat="48.83924" lon="2.39578">
        <ele>87.5</ele>
        <time>2013-03-03T15:25:24.000Z</time>
      </trkpt>
      <trkpt lat="48.83922" lon="2.39581">
        <ele>87.4</ele>
        <time>2013-03-03T15:25:25.000Z</time>
      </trkpt>
      <trkpt lat="48.8392" lon="2.39585">
        <ele>86.1</ele>
        <time>2013-03-03T15:25:27.000Z</time>
      </trkpt>
      <trkpt lat="48.83919" lon="2.39587">
        <ele>84.5</ele>
        <time>2013-03-03T15:25:28.000Z</time>
      </trkpt>
      <trkpt lat="48.83918" lon="2.39591">
        <ele>82.1</ele>
        <time>2013-03-03T15:25:30.000Z</time>
      </trkpt>
      <trkpt lat="48.83917" lon="2.39593">
        <ele>81.1</ele>
        <time>2013-03-03T15:25:31.000Z</time>
      </trkpt>
      <trkpt lat="48.83915" lon="2.39598">
        <ele>83.9</ele>
        <time>2013-03-03T15:25:34.000Z</time>
      </trkpt>
      <trkpt lat="48.83915" lon="2.396">
        <ele>82.8</ele>
        <time>2013-03-03T15:25:35.000Z</time>
      </trkpt>
      <trkpt lat="48.83914" lon="2.39605">
        <ele>78.5</ele>
        <time>2013-03-03T15:25:39.000Z</time>
      </trkpt>
      <trkpt lat="48.83913" lon="2.39606">
        <ele>78.4</ele>
        <time>2013-03-03T15:25:40.000Z</time>
      </trkpt>
      <trkpt lat="48.83913" lon="2.39613">
        <ele>79.8</ele>
        <time>2013-03-03T15:25:43.000Z</time>
      </trkpt>
      <trkpt lat="48.83914" lon="2.39616">
        <ele>79.9</ele>
        <time>2013-03-03T15:25:44.000Z</time>
      </trkpt>
      <trkpt lat="48.83916" lon="2.39622">
        <ele>86.4</ele>
        <time>2013-03-03T15:26:01.000Z</time>
      </trkpt>
      <trkpt lat="48.83916" lon="2.39622">
        <ele>86.4</ele>
        <time>2013-03-03T15:26:02.000Z</time>
      </trkpt>
      <trkpt lat="48.83917" lon="2.39628">
        <ele>86.5</ele>
        <time>2013-03-03T15:26:27.000Z</time>
      </trkpt>
      <trkpt lat="48.83918" lon="2.39629">
        <ele>85.9</ele>
        <time>2013-03-03T15:26:28.000Z</time>
      </trkpt>
      <trkpt lat="48.83921" lon="2.39631">
        <ele>86</ele>
        <time>2013-03-03T15:26:30.000Z</time>
      </trkpt>
      <trkpt lat="48.83923" lon="2.39632">
        <ele>86.3</ele>
        <time>2013-03-03T15:26:31.000Z</time>
      </trkpt>
      <trkpt lat="48.83927" lon="2.39633">
        <ele>87.2</ele>
        <time>2013-03-03T15:26:33.000Z</time>
      </trkpt>
      <trkpt lat="48.83929" lon="2.39634">
        <ele>85.5</ele>
        <time>2013-03-03T15:26:34.000Z</time>
      </trkpt>
      <trkpt lat="48.83931" lon="2.39636">
        <ele>85.4</ele>
        <time>2013-03-03T15:26:35.000Z</time>
      </trkpt>
      <trkpt lat="48.83933" lon="2.39638">
        <ele>86</ele>
        <time>2013-03-03T15:26:36.000Z</time>
      </trkpt>
      <trkpt lat="48.83934" lon="2.39643">
        <ele>85</ele>
        <time>2013-03-03T15:26:38.000Z</time>
      </trkpt>
      <trkpt lat="48.83935" lon="2.39645">
        <ele>83.4</ele>
        <time>2013-03-03T15:26:39.000Z</time>
      </trkpt>
      <trkpt lat="48.83935" lon="2.39651">
        <ele>81.5</ele>
        <time>2013-03-03T15:26:42.000Z</time>
      </trkpt>
      <trkpt lat="48.83934" lon="2.39652">
        <ele>81.5</ele>
        <time>2013-03-03T15:26:43.000Z</time>
      </trkpt>
      <trkpt lat="48.83934" lon="2.39657">
        <ele>81</ele>
        <time>2013-03-03T15:26:45.000Z</time>
      </trkpt>
      <trkpt lat="48.83934" lon="2.3966">
        <ele>80.9</ele>
        <time>2013-03-03T15:26:46.000Z</time>
      </trkpt>
      <trkpt lat="48.83935" lon="2.39665">
        <ele>77.9</ele>
        <time>2013-03-03T15:26:48.000Z</time>
      </trkpt>
      <trkpt lat="48.83936" lon="2.39667">
        <ele>77.3</ele>
        <time>2013-03-03T15:26:49.000Z</time>
      </trkpt>
      <trkpt lat="48.83937" lon="2.39673">
        <ele>76.7</ele>
        <time>2013-03-03T15:26:51.000Z</time>
      </trkpt>
      <trkpt lat="48.83938" lon="2.39676">
        <ele>76.4</ele>
        <time>2013-03-03T15:26:52.000Z</time>
      </trkpt>
      <trkpt lat="48.83939" lon="2.39681">
        <ele>75.7</ele>
        <time>2013-03-03T15:26:53.000Z</time>
      </trkpt>
      <trkpt lat="48.83939" lon="2.39687">
        <ele>76.4</ele>
        <time>2013-03-03T15:26:54.000Z</time>
      </trkpt>
      <trkpt lat="48.83939" lon="2.39691">
        <ele>76.9</ele>
        <time>2013-03-03T15:26:55.000Z</time>
      </trkpt>
      <trkpt lat="48.83939" lon="2.39695">
        <ele>77</ele>
        <time>2013-03-03T15:26:56.000Z</time>
      </trkpt>
      <trkpt lat="48.83939" lon="2.39698">
        <ele>76.4</ele>
        <time>2013-03-03T15:26:57.000Z</time>
      </trkpt>
      <trkpt lat="48.83939" lon="2.39702">
        <ele>76.6</ele>
        <time>2013-03-03T15:26:58.000Z</time>
      </trkpt>
      <trkpt lat="48.8394" lon="2.39707">
        <ele>77.4</ele>
        <time>2013-03-03T15:26:59.000Z</time>
      </trkpt>
      <trkpt lat="48.83941" lon="2.39711">
        <ele>78.1</ele>
        <time>2013-03-03T15:27:00.000Z</time>
      </trkpt>
      <trkpt lat="48.83941" lon="2.39716">
        <ele>77.8</ele>
        <time>2013-03-03T15:27:01.000Z</time>
      </trkpt>
      <trkpt lat="48.83942" lon="2.3972">
        <ele>78.6</ele>
        <time>2013-03-03T15:27:02.000Z</time>
      </trkpt>
      <trkpt lat="48.83943" lon="2.39724">
        <ele>79.8</ele>
        <time>2013-03-03T15:27:03.000Z</time>
      </trkpt>
      <trkpt lat="48.83944" lon="2.39729">
        <ele>80.7</ele>
        <time>2013-03-03T15:27:04.000Z</time>
      </trkpt>
      <trkpt lat="48.83944" lon="2.39734">
        <ele>81.3</ele>
        <time>2013-03-03T15:27:05.000Z</time>
      </trkpt>
      <trkpt lat="48.83944" lon="2.39739">
        <ele>80.6</ele>
        <time>2013-03-03T15:27:06.000Z</time>
      </trkpt>
      <trkpt lat="48.83943" lon="2.39744">
        <ele>80.5</ele>
        <time>2013-03-03T15:27:07.000Z</time>
      </trkpt>
      <trkpt lat="48.83943" lon="2.39748">
        <ele>80.1</ele>
        <time>2013-03-03T15:27:08.000Z</time>
      </trkpt>
      <trkpt lat="48.83942" lon="2.39753">
        <ele>80.2</ele>
        <time>2013-03-03T15:27:09.000Z</time>
      </trkpt>
      <trkpt lat="48.83942" lon="2.39758">
        <ele>79.7</ele>
        <time>2013-03-03T15:27:10.000Z</time>
      </trkpt>
      <trkpt lat="48.83943" lon="2.39762">
        <ele>79.7</ele>
        <time>2013-03-03T15:27:11.000Z</time>
      </trkpt>
      <trkpt lat="48.83943" lon="2.39767">
        <ele>80.3</ele>
        <time>2013-03-03T15:27:12.000Z</time>
      </trkpt>
      <trkpt lat="48.83943" lon="2.39772">
        <ele>80.5</ele>
        <time>2013-03-03T15:27:13.000Z</time>
      </trkpt>
      <trkpt lat="48.83944" lon="2.39778">
        <ele>82.4</ele>
        <time>2013-03-03T15:27:14.000Z</time>
      </trkpt>
      <trkpt lat="48.83944" lon="2.39784">
        <ele>82.4</ele>
        <time>2013-03-03T15:27:15.000Z</time>
      </trkpt>
      <trkpt lat="48.83945" lon="2.39789">
        <ele>82.4</ele>
        <time>2013-03-03T15:27:16.000Z</time>
      </trkpt>
      <trkpt lat="48.83946" lon="2.39795">
        <ele>83.1</ele>
        <time>2013-03-03T15:27:17.000Z</time>
      </trkpt>
      <trkpt lat="48.83947" lon="2.398">
        <ele>84.7</ele>
        <time>2013-03-03T15:27:18.000Z</time>
      </trkpt>
      <trkpt lat="48.83948" lon="2.39806">
        <ele>86.5</ele>
        <time>2013-03-03T15:27:19.000Z</time>
      </trkpt>
      <trkpt lat="48.83949" lon="2.39811">
        <ele>86.3</ele>
        <time>2013-03-03T15:27:20.000Z</time>
      </trkpt>
      <trkpt lat="48.83951" lon="2.39817">
        <ele>86.5</ele>
        <time>2013-03-03T15:27:21.000Z</time>
      </trkpt>
      <trkpt lat="48.83952" lon="2.39822">
        <ele>86.1</ele>
        <time>2013-03-03T15:27:22.000Z</time>
      </trkpt>
      <trkpt lat="48.83953" lon="2.39827">
        <ele>86.3</ele>
        <time>2013-03-03T15:27:23.000Z</time>
      </trkpt>
      <trkpt lat="48.83954" lon="2.39832">
        <ele>86</ele>
        <time>2013-03-03T15:27:24.000Z</time>
      </trkpt>
      <trkpt lat="48.83955" lon="2.39837">
        <ele>86.7</ele>
        <time>2013-03-03T15:27:25.000Z</time>
      </trkpt>
      <trkpt lat="48.83957" lon="2.39842">
        <ele>87.7</ele>
        <time>2013-03-03T15:27:26.000Z</time>
      </trkpt>
      <trkpt lat="48.83958" lon="2.39846">
        <ele>87.8</ele>
        <time>2013-03-03T15:27:27.000Z</time>
      </trkpt>
      <trkpt lat="48.83959" lon="2.39851">
        <ele>88.7</ele>
        <time>2013-03-03T15:27:28.000Z</time>
      </trkpt>
      <trkpt lat="48.8396" lon="2.39856">
        <ele>90.1</ele>
        <time>2013-03-03T15:27:29.000Z</time>
      </trkpt>
      <trkpt lat="48.83963" lon="2.3986">
        <ele>90</ele>
        <time>2013-03-03T15:27:30.000Z</time>
      </trkpt>
      <trkpt lat="48.83964" lon="2.39864">
        <ele>90.2</ele>
        <time>2013-03-03T15:27:31.000Z</time>
      </trkpt>
      <trkpt lat="48.83965" lon="2.39867">
        <ele>90.4</ele>
        <time>2013-03-03T15:27:32.000Z</time>
      </trkpt>
      <trkpt lat="48.83967" lon="2.39872">
        <ele>86.3</ele>
        <time>2013-03-03T15:27:35.000Z</time>
      </trkpt>
      <trkpt lat="48.83967" lon="2.39875">
        <ele>84.8</ele>
        <time>2013-03-03T15:27:36.000Z</time>
      </trkpt>
      <trkpt lat="48.83969" lon="2.39878">
        <ele>83.7</ele>
        <time>2013-03-03T15:27:38.000Z</time>
      </trkpt>
      <trkpt lat="48.8397" lon="2.39881">
        <ele>84.7</ele>
        <time>2013-03-03T15:27:39.000Z</time>
      </trkpt>
      <trkpt lat="48.83971" lon="2.39885">
        <ele>85.9</ele>
        <time>2013-03-03T15:27:40.000Z</time>
      </trkpt>
      <trkpt lat="48.83971" lon="2.39889">
        <ele>86.5</ele>
        <time>2013-03-03T15:27:41.000Z</time>
      </trkpt>
      <trkpt lat="48.83971" lon="2.39896">
        <ele>87.2</ele>
        <time>2013-03-03T15:27:42.000Z</time>
      </trkpt>
      <trkpt lat="48.8397" lon="2.39903">
        <ele>87.1</ele>
        <time>2013-03-03T15:27:43.000Z</time>
      </trkpt>
      <trkpt lat="48.8397" lon="2.39909">
        <ele>87.8</ele>
        <time>2013-03-03T15:27:44.000Z</time>
      </trkpt>
      <trkpt lat="48.8397" lon="2.39915">
        <ele>87.8</ele>
        <time>2013-03-03T15:27:45.000Z</time>
      </trkpt>
      <trkpt lat="48.8397" lon="2.3992">
        <ele>87.7</ele>
        <time>2013-03-03T15:27:46.000Z</time>
      </trkpt>
      <trkpt lat="48.8397" lon="2.39926">
        <ele>87.2</ele>
        <time>2013-03-03T15:27:47.000Z</time>
      </trkpt>
      <trkpt lat="48.8397" lon="2.3993">
        <ele>88</ele>
        <time>2013-03-03T15:27:48.000Z</time>
      </trkpt>
      <trkpt lat="48.83972" lon="2.39934">
        <ele>86.8</ele>
        <time>2013-03-03T15:27:50.000Z</time>
      </trkpt>
      <trkpt lat="48.83974" lon="2.39937">
        <ele>87.8</ele>
        <time>2013-03-03T15:27:51.000Z</time>
      </trkpt>
      <trkpt lat="48.83975" lon="2.3994">
        <ele>87.4</ele>
        <time>2013-03-03T15:27:52.000Z</time>
      </trkpt>
      <trkpt lat="48.83976" lon="2.39944">
        <ele>87.5</ele>
        <time>2013-03-03T15:27:53.000Z</time>
      </trkpt>
      <trkpt lat="48.83976" lon="2.39947">
        <ele>86.1</ele>
        <time>2013-03-03T15:27:54.000Z</time>
      </trkpt>
      <trkpt lat="48.83976" lon="2.39951">
        <ele>85.5</ele>
        <time>2013-03-03T15:27:55.000Z</time>
      </trkpt>
      <trkpt lat="48.83975" lon="2.39954">
        <ele>84.1</ele>
        <time>2013-03-03T15:27:56.000Z</time>
      </trkpt>
      <trkpt lat="48.83975" lon="2.39958">
        <ele>83.7</ele>
        <time>2013-03-03T15:27:57.000Z</time>
      </trkpt>
      <trkpt lat="48.83975" lon="2.39962">
        <ele>83.2</ele>
        <time>2013-03-03T15:27:58.000Z</time>
      </trkpt>
      <trkpt lat="48.83975" lon="2.39967">
        <ele>83.3</ele>
        <time>2013-03-03T15:27:59.000Z</time>
      </trkpt>
      <trkpt lat="48.83974" lon="2.39971">
        <ele>82.8</ele>
        <time>2013-03-03T15:28:00.000Z</time>
      </trkpt>
      <trkpt lat="48.83974" lon="2.39975">
        <ele>82.7</ele>
        <time>2013-03-03T15:28:01.000Z</time>
      </trkpt>
      <trkpt lat="48.83972" lon="2.39981">
        <ele>81.9</ele>
        <time>2013-03-03T15:28:03.000Z</time>
      </trkpt>
      <trkpt lat="48.83972" lon="2.39981">
        <ele>81.9</ele>
        <time>2013-03-03T15:28:04.000Z</time>
      </trkpt>
      <trkpt lat="48.8397" lon="2.39984">
        <ele>84.1</ele>
        <time>2013-03-03T15:28:08.000Z</time>
      </trkpt>
      <trkpt lat="48.83969" lon="2.39988">
        <ele>84.3</ele>
        <time>2013-03-03T15:28:09.000Z</time>
      </trkpt>
      <trkpt lat="48.83968" lon="2.39993">
        <ele>85.2</ele>
        <time>2013-03-03T15:28:10.000Z</time>
      </trkpt>
      <trkpt lat="48.83967" lon="2.39996">
        <ele>85</ele>
        <time>2013-03-03T15:28:11.000Z</time>
      </trkpt>
      <trkpt lat="48.83967" lon="2.40001">
        <ele>86.8</ele>
        <time>2013-03-03T15:28:13.000Z</time>
      </trkpt>
      <trkpt lat="48.83966" lon="2.40003">
        <ele>86.9</ele>
        <time>2013-03-03T15:28:14.000Z</time>
      </trkpt>
      <trkpt lat="48.83965" lon="2.40007">
        <ele>87.3</ele>
        <time>2013-03-03T15:28:16.000Z</time>
      </trkpt>
      <trkpt lat="48.83965" lon="2.40011">
        <ele>87.9</ele>
        <time>2013-03-03T15:28:17.000Z</time>
      </trkpt>
      <trkpt lat="48.83965" lon="2.40017">
        <ele>90.6</ele>
        <time>2013-03-03T15:28:23.000Z</time>
      </trkpt>
      <trkpt lat="48.83965" lon="2.40018">
        <ele>90.2</ele>
        <time>2013-03-03T15:28:24.000Z</time>
      </trkpt>
      <trkpt lat="48.83967" lon="2.40023">
        <ele>92.8</ele>
        <time>2013-03-03T15:28:51.000Z</time>
      </trkpt>
      <trkpt lat="48.83967" lon="2.40024">
        <ele>93.6</ele>
        <time>2013-03-03T15:28:52.000Z</time>
      </trkpt>
      <trkpt lat="48.8397" lon="2.40025">
        <ele>94.7</ele>
        <time>2013-03-03T15:28:54.000Z</time>
      </trkpt>
      <trkpt lat="48.83973" lon="2.40027">
        <ele>95</ele>
        <time>2013-03-03T15:28:55.000Z</time>
      </trkpt>
      <trkpt lat="48.83976" lon="2.4003">
        <ele>94.9</ele>
        <time>2013-03-03T15:28:59.000Z</time>
      </trkpt>
      <trkpt lat="48.83977" lon="2.4003">
        <ele>95.1</ele>
        <time>2013-03-03T15:29:00.000Z</time>
      </trkpt>
      <trkpt lat="48.8398" lon="2.40034">
        <ele>98.1</ele>
        <time>2013-03-03T15:29:31.000Z</time>
      </trkpt>
      <trkpt lat="48.83982" lon="2.40034">
        <ele>103.1</ele>
        <time>2013-03-03T15:29:32.000Z</time>
      </trkpt>
      <trkpt lat="48.83985" lon="2.40036">
        <ele>108.4</ele>
        <time>2013-03-03T15:29:35.000Z</time>
      </trkpt>
      <trkpt lat="48.83986" lon="2.40037">
        <ele>107.3</ele>
        <time>2013-03-03T15:29:36.000Z</time>
      </trkpt>
      <trkpt lat="48.83989" lon="2.40041">
        <ele>107.2</ele>
        <time>2013-03-03T15:29:40.000Z</time>
      </trkpt>
      <trkpt lat="48.8399" lon="2.40041">
        <ele>107.2</ele>
        <time>2013-03-03T15:29:41.000Z</time>
      </trkpt>
      <trkpt lat="48.83994" lon="2.40043">
        <ele>109.6</ele>
        <time>2013-03-03T15:29:44.000Z</time>
      </trkpt>
      <trkpt lat="48.83995" lon="2.40044">
        <ele>107.8</ele>
        <time>2013-03-03T15:29:45.000Z</time>
      </trkpt>
      <trkpt lat="48.83997" lon="2.40045">
        <ele>108.3</ele>
        <time>2013-03-03T15:29:46.000Z</time>
      </trkpt>
      <trkpt lat="48.84" lon="2.40047">
        <ele>110</ele>
        <time>2013-03-03T15:29:47.000Z</time>
      </trkpt>
      <trkpt lat="48.84002" lon="2.4005">
        <ele>110.5</ele>
        <time>2013-03-03T15:29:48.000Z</time>
      </trkpt>
      <trkpt lat="48.84005" lon="2.40052">
        <ele>110.4</ele>
        <time>2013-03-03T15:29:49.000Z</time>
      </trkpt>
      <trkpt lat="48.84007" lon="2.40054">
        <ele>112.5</ele>
        <time>2013-03-03T15:29:50.000Z</time>
      </trkpt>
      <trkpt lat="48.84009" lon="2.40056">
        <ele>113.1</ele>
        <time>2013-03-03T15:29:51.000Z</time>
      </trkpt>
      <trkpt lat="48.84011" lon="2.40058">
        <ele>111.7</ele>
        <time>2013-03-03T15:29:52.000Z</time>
      </trkpt>
      <trkpt lat="48.84013" lon="2.40059">
        <ele>112.2</ele>
        <time>2013-03-03T15:29:53.000Z</time>
      </trkpt>
      <trkpt lat="48.84016" lon="2.40059">
        <ele>112.8</ele>
        <time>2013-03-03T15:29:54.000Z</time>
      </trkpt>
      <trkpt lat="48.84019" lon="2.40059">
        <ele>114.2</ele>
        <time>2013-03-03T15:29:55.000Z</time>
      </trkpt>
      <trkpt lat="48.84022" lon="2.40059">
        <ele>114.6</ele>
        <time>2013-03-03T15:29:56.000Z</time>
      </trkpt>
      <trkpt lat="48.84025" lon="2.40059">
        <ele>113.9</ele>
        <time>2013-03-03T15:29:57.000Z</time>
      </trkpt>
      <trkpt lat="48.84028" lon="2.40059">
        <ele>112.1</ele>
        <time>2013-03-03T15:29:58.000Z</time>
      </trkpt>
      <trkpt lat="48.84033" lon="2.4006">
        <ele>113.8</ele>
        <time>2013-03-03T15:29:59.000Z</time>
      </trkpt>
      <trkpt lat="48.84037" lon="2.4006">
        <ele>115.1</ele>
        <time>2013-03-03T15:30:00.000Z</time>
      </trkpt>
      <trkpt lat="48.84041" lon="2.40061">
        <ele>115.1</ele>
        <time>2013-03-03T15:30:01.000Z</time>
      </trkpt>
      <trkpt lat="48.84045" lon="2.40061">
        <ele>114.6</ele>
        <time>2013-03-03T15:30:02.000Z</time>
      </trkpt>
      <trkpt lat="48.84049" lon="2.40062">
        <ele>104.5</ele>
        <time>2013-03-03T15:30:03.000Z</time>
      </trkpt>
      <trkpt lat="48.84053" lon="2.40064">
        <ele>107.7</ele>
        <time>2013-03-03T15:30:04.000Z</time>
      </trkpt>
      <trkpt lat="48.84056" lon="2.40066">
        <ele>108.9</ele>
        <time>2013-03-03T15:30:05.000Z</time>
      </trkpt>
      <trkpt lat="48.84059" lon="2.40067">
        <ele>110.3</ele>
        <time>2013-03-03T15:30:06.000Z</time>
      </trkpt>
      <trkpt lat="48.84062" lon="2.40068">
        <ele>109.9</ele>
        <time>2013-03-03T15:30:07.000Z</time>
      </trkpt>
      <trkpt lat="48.84064" lon="2.40069">
        <ele>109.7</ele>
        <time>2013-03-03T15:30:08.000Z</time>
      </trkpt>
      <trkpt lat="48.84066" lon="2.40071">
        <ele>109.6</ele>
        <time>2013-03-03T15:30:09.000Z</time>
      </trkpt>
      <trkpt lat="48.84069" lon="2.40072">
        <ele>110.1</ele>
        <time>2013-03-03T15:30:11.000Z</time>
      </trkpt>
      <trkpt lat="48.84071" lon="2.40073">
        <ele>109.4</ele>
        <time>2013-03-03T15:30:12.000Z</time>
      </trkpt>
      <trkpt lat="48.84075" lon="2.40075">
        <ele>107.6</ele>
        <time>2013-03-03T15:30:14.000Z</time>
      </trkpt>
      <trkpt lat="48.84077" lon="2.40076">
        <ele>108.1</ele>
        <time>2013-03-03T15:30:15.000Z</time>
      </trkpt>
      <trkpt lat="48.8408" lon="2.4008">
        <ele>105.2</ele>
        <time>2013-03-03T15:30:17.000Z</time>
      </trkpt>
      <trkpt lat="48.84082" lon="2.40083">
        <ele>102.6</ele>
        <time>2013-03-03T15:30:18.000Z</time>
      </trkpt>
      <trkpt lat="48.84083" lon="2.40086">
        <ele>102.3</ele>
        <time>2013-03-03T15:30:19.000Z</time>
      </trkpt>
      <trkpt lat="48.84085" lon="2.40089">
        <ele>102.9</ele>
        <time>2013-03-03T15:30:20.000Z</time>
      </trkpt>
      <trkpt lat="48.84087" lon="2.40093">
        <ele>102.1</ele>
        <time>2013-03-03T15:30:22.000Z</time>
      </trkpt>
      <trkpt lat="48.84089" lon="2.40095">
        <ele>101.2</ele>
        <time>2013-03-03T15:30:23.000Z</time>
      </trkpt>
      <trkpt lat="48.84092" lon="2.40098">
        <ele>101.6</ele>
        <time>2013-03-03T15:30:25.000Z</time>
      </trkpt>
      <trkpt lat="48.84094" lon="2.401">
        <ele>102.6</ele>
        <time>2013-03-03T15:30:26.000Z</time>
      </trkpt>
      <trkpt lat="48.84095" lon="2.40102">
        <ele>102.6</ele>
        <time>2013-03-03T15:30:27.000Z</time>
      </trkpt>
      <trkpt lat="48.84096" lon="2.40107">
        <ele>102.6</ele>
        <time>2013-03-03T15:30:28.000Z</time>
      </trkpt>
      <trkpt lat="48.84097" lon="2.40112">
        <ele>102.4</ele>
        <time>2013-03-03T15:30:29.000Z</time>
      </trkpt>
      <trkpt lat="48.84099" lon="2.40128">
        <ele>101.2</ele>
        <time>2013-03-03T15:30:32.000Z</time>
      </trkpt>
      <trkpt lat="48.841" lon="2.40134">
        <ele>100.1</ele>
        <time>2013-03-03T15:30:34.000Z</time>
      </trkpt>
      <trkpt lat="48.841" lon="2.40136">
        <ele>99.7</ele>
        <time>2013-03-03T15:30:35.000Z</time>
      </trkpt>
      <trkpt lat="48.84099" lon="2.40141">
        <ele>98.7</ele>
        <time>2013-03-03T15:30:37.000Z</time>
      </trkpt>
      <trkpt lat="48.84099" lon="2.40145">
        <ele>98.2</ele>
        <time>2013-03-03T15:30:38.000Z</time>
      </trkpt>
      <trkpt lat="48.84098" lon="2.4015">
        <ele>97.5</ele>
        <time>2013-03-03T15:30:39.000Z</time>
      </trkpt>
      <trkpt lat="48.84097" lon="2.40157">
        <ele>97.3</ele>
        <time>2013-03-03T15:30:40.000Z</time>
      </trkpt>
      <trkpt lat="48.84097" lon="2.40165">
        <ele>97.2</ele>
        <time>2013-03-03T15:30:41.000Z</time>
      </trkpt>
      <trkpt lat="48.84096" lon="2.40172">
        <ele>96.5</ele>
        <time>2013-03-03T15:30:42.000Z</time>
      </trkpt>
      <trkpt lat="48.84096" lon="2.40179">
        <ele>96.8</ele>
        <time>2013-03-03T15:30:43.000Z</time>
      </trkpt>
      <trkpt lat="48.84096" lon="2.40185">
        <ele>96.4</ele>
        <time>2013-03-03T15:30:44.000Z</time>
      </trkpt>
      <trkpt lat="48.84097" lon="2.40188">
        <ele>95.8</ele>
        <time>2013-03-03T15:30:45.000Z</time>
      </trkpt>
      <trkpt lat="48.84096" lon="2.40194">
        <ele>93</ele>
        <time>2013-03-03T15:30:48.000Z</time>
      </trkpt>
      <trkpt lat="48.84097" lon="2.40199">
        <ele>84.6</ele>
        <time>2013-03-03T15:30:49.000Z</time>
      </trkpt>
      <trkpt lat="48.84098" lon="2.40204">
        <ele>80.9</ele>
        <time>2013-03-03T15:30:50.000Z</time>
      </trkpt>
      <trkpt lat="48.84099" lon="2.40211">
        <ele>82.7</ele>
        <time>2013-03-03T15:30:51.000Z</time>
      </trkpt>
      <trkpt lat="48.84102" lon="2.40253">
        <ele>85.1</ele>
        <time>2013-03-03T15:30:52.000Z</time>
      </trkpt>
      <trkpt lat="48.84102" lon="2.40266">
        <ele>85.7</ele>
        <time>2013-03-03T15:30:53.000Z</time>
      </trkpt>
      <trkpt lat="48.84101" lon="2.4028">
        <ele>86.4</ele>
        <time>2013-03-03T15:30:54.000Z</time>
      </trkpt>
      <trkpt lat="48.841" lon="2.40292">
        <ele>86.1</ele>
        <time>2013-03-03T15:30:55.000Z</time>
      </trkpt>
      <trkpt lat="48.84099" lon="2.40301">
        <ele>87.8</ele>
        <time>2013-03-03T15:30:56.000Z</time>
      </trkpt>
      <trkpt lat="48.84099" lon="2.40315">
        <ele>88.3</ele>
        <time>2013-03-03T15:30:57.000Z</time>
      </trkpt>
      <trkpt lat="48.841" lon="2.40329">
        <ele>88.2</ele>
        <time>2013-03-03T15:30:58.000Z</time>
      </trkpt>
      <trkpt lat="48.84099" lon="2.40342">
        <ele>87.3</ele>
        <time>2013-03-03T15:30:59.000Z</time>
      </trkpt>
      <trkpt lat="48.84098" lon="2.40355">
        <ele>85.9</ele>
        <time>2013-03-03T15:31:00.000Z</time>
      </trkpt>
      <trkpt lat="48.84099" lon="2.40367">
        <ele>85.3</ele>
        <time>2013-03-03T15:31:01.000Z</time>
      </trkpt>
      <trkpt lat="48.84098" lon="2.40376">
        <ele>94.6</ele>
        <time>2013-03-03T15:31:02.000Z</time>
      </trkpt>
      <trkpt lat="48.84097" lon="2.40386">
        <ele>93.2</ele>
        <time>2013-03-03T15:31:03.000Z</time>
      </trkpt>
      <trkpt lat="48.84095" lon="2.404">
        <ele>92.1</ele>
        <time>2013-03-03T15:31:04.000Z</time>
      </trkpt>
      <trkpt lat="48.84094" lon="2.40411">
        <ele>91</ele>
        <time>2013-03-03T15:31:05.000Z</time>
      </trkpt>
      <trkpt lat="48.84093" lon="2.40419">
        <ele>89.5</ele>
        <time>2013-03-03T15:31:06.000Z</time>
      </trkpt>
      <trkpt lat="48.84093" lon="2.40425">
        <ele>90</ele>
        <time>2013-03-03T15:31:07.000Z</time>
      </trkpt>
      <trkpt lat="48.84092" lon="2.40429">
        <ele>91.4</ele>
        <time>2013-03-03T15:31:08.000Z</time>
      </trkpt>
      <trkpt lat="48.84092" lon="2.40433">
        <ele>91.8</ele>
        <time>2013-03-03T15:31:09.000Z</time>
      </trkpt>
      <trkpt lat="48.84093" lon="2.40437">
        <ele>91</ele>
        <time>2013-03-03T15:31:10.000Z</time>
      </trkpt>
      <trkpt lat="48.84095" lon="2.40442">
        <ele>88.6</ele>
        <time>2013-03-03T15:31:11.000Z</time>
      </trkpt>
      <trkpt lat="48.84096" lon="2.40445">
        <ele>88.2</ele>
        <time>2013-03-03T15:31:12.000Z</time>
      </trkpt>
      <trkpt lat="48.84096" lon="2.40452">
        <ele>89</ele>
        <time>2013-03-03T15:33:34.000Z</time>
      </trkpt>
      <trkpt lat="48.84095" lon="2.40454">
        <ele>91.6</ele>
        <time>2013-03-03T15:33:35.000Z</time>
      </trkpt>
      <trkpt lat="48.84094" lon="2.40459">
        <ele>95.7</ele>
        <time>2013-03-03T15:33:37.000Z</time>
      </trkpt>
      <trkpt lat="48.84093" lon="2.40462">
        <ele>96</ele>
        <time>2013-03-03T15:33:38.000Z</time>
      </trkpt>
      <trkpt lat="48.84092" lon="2.40468">
        <ele>98</ele>
        <time>2013-03-03T15:33:40.000Z</time>
      </trkpt>
      <trkpt lat="48.84092" lon="2.40471">
        <ele>97.9</ele>
        <time>2013-03-03T15:33:41.000Z</time>
      </trkpt>
      <trkpt lat="48.84093" lon="2.40477">
        <ele>103.6</ele>
        <time>2013-03-03T15:33:44.000Z</time>
      </trkpt>
      <trkpt lat="48.84094" lon="2.40478">
        <ele>101.6</ele>
        <time>2013-03-03T15:33:45.000Z</time>
      </trkpt>
      <trkpt lat="48.84098" lon="2.40478">
        <ele>104.8</ele>
        <time>2013-03-03T15:33:48.000Z</time>
      </trkpt>
      <trkpt lat="48.841" lon="2.40479">
        <ele>103</ele>
        <time>2013-03-03T15:33:49.000Z</time>
      </trkpt>
      <trkpt lat="48.84103" lon="2.40474">
        <ele>100.9</ele>
        <time>2013-03-03T15:34:13.000Z</time>
      </trkpt>
      <trkpt lat="48.84103" lon="2.40474">
        <ele>101</ele>
        <time>2013-03-03T15:34:14.000Z</time>
      </trkpt>
      <trkpt lat="48.84106" lon="2.40472">
        <ele>106.9</ele>
        <time>2013-03-03T15:34:23.000Z</time>
      </trkpt>
      <trkpt lat="48.84107" lon="2.40472">
        <ele>106.1</ele>
        <time>2013-03-03T15:34:24.000Z</time>
      </trkpt>
      <trkpt lat="48.8411" lon="2.40474">
        <ele>107.6</ele>
        <time>2013-03-03T15:34:26.000Z</time>
      </trkpt>
      <trkpt lat="48.84112" lon="2.40475">
        <ele>105</ele>
        <time>2013-03-03T15:34:27.000Z</time>
      </trkpt>
      <trkpt lat="48.84115" lon="2.40478">
        <ele>104.9</ele>
        <time>2013-03-03T15:34:29.000Z</time>
      </trkpt>
      <trkpt lat="48.84117" lon="2.40483">
        <ele>101.6</ele>
        <time>2013-03-03T15:34:31.005Z</time>
      </trkpt>
      <trkpt lat="48.84117" lon="2.40488">
        <ele>101.8</ele>
        <time>2013-03-03T15:34:33.000Z</time>
      </trkpt>
      <trkpt lat="48.84118" lon="2.40491">
        <ele>101</ele>
        <time>2013-03-03T15:34:34.000Z</time>
      </trkpt>
      <trkpt lat="48.8412" lon="2.40495">
        <ele>100.6</ele>
        <time>2013-03-03T15:34:36.000Z</time>
      </trkpt>
      <trkpt lat="48.84121" lon="2.40495">
        <ele>100.6</ele>
        <time>2013-03-03T15:34:37.000Z</time>
      </trkpt>
      <trkpt lat="48.84123" lon="2.40496">
        <ele>100.5</ele>
        <time>2013-03-03T15:34:38.000Z</time>
      </trkpt>
      <trkpt lat="48.84126" lon="2.40496">
        <ele>100.5</ele>
        <time>2013-03-03T15:34:39.000Z</time>
      </trkpt>
      <trkpt lat="48.8413" lon="2.40496">
        <ele>99.6</ele>
        <time>2013-03-03T15:34:40.000Z</time>
      </trkpt>
      <trkpt lat="48.84135" lon="2.40497">
        <ele>99.2</ele>
        <time>2013-03-03T15:34:41.000Z</time>
      </trkpt>
      <trkpt lat="48.8414" lon="2.40497">
        <ele>99.4</ele>
        <time>2013-03-03T15:34:42.000Z</time>
      </trkpt>
      <trkpt lat="48.84145" lon="2.40498">
        <ele>99.6</ele>
        <time>2013-03-03T15:34:43.000Z</time>
      </trkpt>
      <trkpt lat="48.84149" lon="2.40498">
        <ele>99.1</ele>
        <time>2013-03-03T15:34:44.000Z</time>
      </trkpt>
      <trkpt lat="48.84153" lon="2.40499">
        <ele>98.9</ele>
        <time>2013-03-03T15:34:45.000Z</time>
      </trkpt>
      <trkpt lat="48.84156" lon="2.40502">
        <ele>99.6</ele>
        <time>2013-03-03T15:34:46.000Z</time>
      </trkpt>
      <trkpt lat="48.84157" lon="2.40508">
        <ele>100.8</ele>
        <time>2013-03-03T15:34:47.000Z</time>
      </trkpt>
      <trkpt lat="48.84158" lon="2.40513">
        <ele>101.4</ele>
        <time>2013-03-03T15:34:48.000Z</time>
      </trkpt>
      <trkpt lat="48.84159" lon="2.40518">
        <ele>103.1</ele>
        <time>2013-03-03T15:34:49.000Z</time>
      </trkpt>
      <trkpt lat="48.84159" lon="2.40521">
        <ele>104</ele>
        <time>2013-03-03T15:34:50.000Z</time>
      </trkpt>
      <trkpt lat="48.84161" lon="2.40523">
        <ele>104.1</ele>
        <time>2013-03-03T15:34:51.000Z</time>
      </trkpt>
      <trkpt lat="48.84164" lon="2.40526">
        <ele>104.3</ele>
        <time>2013-03-03T15:34:52.000Z</time>
      </trkpt>
      <trkpt lat="48.84167" lon="2.40528">
        <ele>104.8</ele>
        <time>2013-03-03T15:34:53.000Z</time>
      </trkpt>
      <trkpt lat="48.8417" lon="2.40529">
        <ele>105.5</ele>
        <time>2013-03-03T15:34:54.000Z</time>
      </trkpt>
      <trkpt lat="48.84173" lon="2.40531">
        <ele>105.3</ele>
        <time>2013-03-03T15:34:55.000Z</time>
      </trkpt>
      <trkpt lat="48.84176" lon="2.40533">
        <ele>104.8</ele>
        <time>2013-03-03T15:34:56.000Z</time>
      </trkpt>
      <trkpt lat="48.84179" lon="2.40534">
        <ele>102.9</ele>
        <time>2013-03-03T15:34:57.000Z</time>
      </trkpt>
      <trkpt lat="48.84182" lon="2.40536">
        <ele>103.3</ele>
        <time>2013-03-03T15:34:58.000Z</time>
      </trkpt>
      <trkpt lat="48.84186" lon="2.40536">
        <ele>100.8</ele>
        <time>2013-03-03T15:34:59.000Z</time>
      </trkpt>
      <trkpt lat="48.8419" lon="2.40535">
        <ele>100.4</ele>
        <time>2013-03-03T15:35:00.000Z</time>
      </trkpt>
      <trkpt lat="48.84196" lon="2.40534">
        <ele>102</ele>
        <time>2013-03-03T15:35:01.000Z</time>
      </trkpt>
      <trkpt lat="48.84202" lon="2.40534">
        <ele>102.6</ele>
        <time>2013-03-03T15:35:02.000Z</time>
      </trkpt>
      <trkpt lat="48.84208" lon="2.40533">
        <ele>103.2</ele>
        <time>2013-03-03T15:35:03.000Z</time>
      </trkpt>
      <trkpt lat="48.84213" lon="2.40533">
        <ele>103.6</ele>
        <time>2013-03-03T15:35:04.000Z</time>
      </trkpt>
      <trkpt lat="48.84219" lon="2.40532">
        <ele>104.2</ele>
        <time>2013-03-03T15:35:05.000Z</time>
      </trkpt>
      <trkpt lat="48.84225" lon="2.40532">
        <ele>106.6</ele>
        <time>2013-03-03T15:35:06.000Z</time>
      </trkpt>
      <trkpt lat="48.84231" lon="2.40531">
        <ele>108.5</ele>
        <time>2013-03-03T15:35:07.000Z</time>
      </trkpt>
      <trkpt lat="48.84237" lon="2.4053">
        <ele>106.3</ele>
        <time>2013-03-03T15:35:08.000Z</time>
      </trkpt>
      <trkpt lat="48.84243" lon="2.40529">
        <ele>102.7</ele>
        <time>2013-03-03T15:35:09.000Z</time>
      </trkpt>
      <trkpt lat="48.8425" lon="2.40528">
        <ele>99.1</ele>
        <time>2013-03-03T15:35:10.000Z</time>
      </trkpt>
      <trkpt lat="48.84255" lon="2.40527">
        <ele>99.2</ele>
        <time>2013-03-03T15:35:11.000Z</time>
      </trkpt>
      <trkpt lat="48.84261" lon="2.40527">
        <ele>99.7</ele>
        <time>2013-03-03T15:35:12.000Z</time>
      </trkpt>
      <trkpt lat="48.84266" lon="2.40527">
        <ele>99.5</ele>
        <time>2013-03-03T15:35:13.000Z</time>
      </trkpt>
      <trkpt lat="48.84271" lon="2.40527">
        <ele>99.3</ele>
        <time>2013-03-03T15:35:14.000Z</time>
      </trkpt>
      <trkpt lat="48.84276" lon="2.40528">
        <ele>99.7</ele>
        <time>2013-03-03T15:35:15.000Z</time>
      </trkpt>
      <trkpt lat="48.84281" lon="2.40528">
        <ele>100.3</ele>
        <time>2013-03-03T15:35:16.000Z</time>
      </trkpt>
      <trkpt lat="48.84285" lon="2.40529">
        <ele>100.9</ele>
        <time>2013-03-03T15:35:17.000Z</time>
      </trkpt>
      <trkpt lat="48.84289" lon="2.4053">
        <ele>101.5</ele>
        <time>2013-03-03T15:35:18.000Z</time>
      </trkpt>
      <trkpt lat="48.84293" lon="2.4053">
        <ele>101.8</ele>
        <time>2013-03-03T15:35:19.000Z</time>
      </trkpt>
      <trkpt lat="48.84297" lon="2.40531">
        <ele>103.3</ele>
        <time>2013-03-03T15:35:20.000Z</time>
      </trkpt>
      <trkpt lat="48.843" lon="2.40532">
        <ele>103.2</ele>
        <time>2013-03-03T15:35:21.000Z</time>
      </trkpt>
      <trkpt lat="48.84303" lon="2.40533">
        <ele>104.6</ele>
        <time>2013-03-03T15:35:22.000Z</time>
      </trkpt>
      <trkpt lat="48.84305" lon="2.40535">
        <ele>105.7</ele>
        <time>2013-03-03T15:35:23.000Z</time>
      </trkpt>
      <trkpt lat="48.84307" lon="2.40536">
        <ele>107.1</ele>
        <time>2013-03-03T15:35:24.000Z</time>
      </trkpt>
      <trkpt lat="48.8431" lon="2.40538">
        <ele>108.1</ele>
        <time>2013-03-03T15:35:25.000Z</time>
      </trkpt>
      <trkpt lat="48.84313" lon="2.40538">
        <ele>109.2</ele>
        <time>2013-03-03T15:35:26.000Z</time>
      </trkpt>
      <trkpt lat="48.84315" lon="2.40539">
        <ele>109.8</ele>
        <time>2013-03-03T15:35:27.000Z</time>
      </trkpt>
      <trkpt lat="48.84318" lon="2.4054">
        <ele>109.6</ele>
        <time>2013-03-03T15:35:28.000Z</time>
      </trkpt>
      <trkpt lat="48.8432" lon="2.40541">
        <ele>111.9</ele>
        <time>2013-03-03T15:35:29.000Z</time>
      </trkpt>
      <trkpt lat="48.84324" lon="2.40544">
        <ele>113.1</ele>
        <time>2013-03-03T15:35:30.916Z</time>
      </trkpt>
      <trkpt lat="48.84327" lon="2.40545">
        <ele>113.4</ele>
        <time>2013-03-03T15:35:32.000Z</time>
      </trkpt>
      <trkpt lat="48.8433" lon="2.40546">
        <ele>114.8</ele>
        <time>2013-03-03T15:35:33.000Z</time>
      </trkpt>
      <trkpt lat="48.84332" lon="2.40546">
        <ele>116.3</ele>
        <time>2013-03-03T15:35:34.000Z</time>
      </trkpt>
      <trkpt lat="48.84335" lon="2.40547">
        <ele>117.5</ele>
        <time>2013-03-03T15:35:35.000Z</time>
      </trkpt>
      <trkpt lat="48.84339" lon="2.40548">
        <ele>117.8</ele>
        <time>2013-03-03T15:35:36.000Z</time>
      </trkpt>
      <trkpt lat="48.84344" lon="2.40548">
        <ele>117.2</ele>
        <time>2013-03-03T15:35:37.000Z</time>
      </trkpt>
      <trkpt lat="48.84349" lon="2.40547">
        <ele>116.2</ele>
        <time>2013-03-03T15:35:38.000Z</time>
      </trkpt>
      <trkpt lat="48.84353" lon="2.40546">
        <ele>103.6</ele>
        <time>2013-03-03T15:35:39.000Z</time>
      </trkpt>
      <trkpt lat="48.84357" lon="2.40546">
        <ele>107.6</ele>
        <time>2013-03-03T15:35:40.000Z</time>
      </trkpt>
      <trkpt lat="48.84361" lon="2.40546">
        <ele>111.2</ele>
        <time>2013-03-03T15:35:41.000Z</time>
      </trkpt>
      <trkpt lat="48.84365" lon="2.40547">
        <ele>112.6</ele>
        <time>2013-03-03T15:35:42.000Z</time>
      </trkpt>
      <trkpt lat="48.84369" lon="2.40548">
        <ele>113.8</ele>
        <time>2013-03-03T15:35:43.000Z</time>
      </trkpt>
      <trkpt lat="48.84373" lon="2.40549">
        <ele>114.9</ele>
        <time>2013-03-03T15:35:44.000Z</time>
      </trkpt>
      <trkpt lat="48.84377" lon="2.4055">
        <ele>115.3</ele>
        <time>2013-03-03T15:35:45.000Z</time>
      </trkpt>
      <trkpt lat="48.84381" lon="2.40552">
        <ele>116.1</ele>
        <time>2013-03-03T15:35:46.000Z</time>
      </trkpt>
      <trkpt lat="48.84385" lon="2.40553">
        <ele>114.2</ele>
        <time>2013-03-03T15:35:47.000Z</time>
      </trkpt>
      <trkpt lat="48.8439" lon="2.40554">
        <ele>114.7</ele>
        <time>2013-03-03T15:35:48.000Z</time>
      </trkpt>
      <trkpt lat="48.84394" lon="2.40555">
        <ele>115.3</ele>
        <time>2013-03-03T15:35:49.000Z</time>
      </trkpt>
      <trkpt lat="48.84398" lon="2.40556">
        <ele>115.2</ele>
        <time>2013-03-03T15:35:50.000Z</time>
      </trkpt>
      <trkpt lat="48.84402" lon="2.40557">
        <ele>116.3</ele>
        <time>2013-03-03T15:35:51.000Z</time>
      </trkpt>
      <trkpt lat="48.84406" lon="2.40558">
        <ele>117.5</ele>
        <time>2013-03-03T15:35:52.000Z</time>
      </trkpt>
      <trkpt lat="48.84409" lon="2.40559">
        <ele>118</ele>
        <time>2013-03-03T15:35:53.000Z</time>
      </trkpt>
      <trkpt lat="48.84412" lon="2.4056">
        <ele>118.4</ele>
        <time>2013-03-03T15:35:54.000Z</time>
      </trkpt>
      <trkpt lat="48.84415" lon="2.4056">
        <ele>119</ele>
        <time>2013-03-03T15:35:55.000Z</time>
      </trkpt>
      <trkpt lat="48.84419" lon="2.4056">
        <ele>119.2</ele>
        <time>2013-03-03T15:35:56.000Z</time>
      </trkpt>
      <trkpt lat="48.84423" lon="2.40561">
        <ele>118.6</ele>
        <time>2013-03-03T15:35:57.000Z</time>
      </trkpt>
      <trkpt lat="48.84426" lon="2.40561">
        <ele>117.1</ele>
        <time>2013-03-03T15:35:58.000Z</time>
      </trkpt>
      <trkpt lat="48.8443" lon="2.40562">
        <ele>116.5</ele>
        <time>2013-03-03T15:35:59.000Z</time>
      </trkpt>
      <trkpt lat="48.84434" lon="2.40562">
        <ele>115.3</ele>
        <time>2013-03-03T15:36:00.000Z</time>
      </trkpt>
      <trkpt lat="48.84438" lon="2.40563">
        <ele>115.1</ele>
        <time>2013-03-03T15:36:01.000Z</time>
      </trkpt>
      <trkpt lat="48.84442" lon="2.40564">
        <ele>114</ele>
        <time>2013-03-03T15:36:02.000Z</time>
      </trkpt>
      <trkpt lat="48.84445" lon="2.40566">
        <ele>111.8</ele>
        <time>2013-03-03T15:36:03.000Z</time>
      </trkpt>
      <trkpt lat="48.84448" lon="2.4057">
        <ele>110.3</ele>
        <time>2013-03-03T15:36:04.000Z</time>
      </trkpt>
      <trkpt lat="48.84451" lon="2.40574">
        <ele>110.4</ele>
        <time>2013-03-03T15:36:05.000Z</time>
      </trkpt>
      <trkpt lat="48.84452" lon="2.40579">
        <ele>110.3</ele>
        <time>2013-03-03T15:36:06.000Z</time>
      </trkpt>
      <trkpt lat="48.84453" lon="2.40583">
        <ele>110.2</ele>
        <time>2013-03-03T15:36:07.000Z</time>
      </trkpt>
      <trkpt lat="48.84453" lon="2.40588">
        <ele>109.6</ele>
        <time>2013-03-03T15:36:08.000Z</time>
      </trkpt>
      <trkpt lat="48.84453" lon="2.40593">
        <ele>108.6</ele>
        <time>2013-03-03T15:36:09.000Z</time>
      </trkpt>
      <trkpt lat="48.84453" lon="2.40598">
        <ele>108.3</ele>
        <time>2013-03-03T15:36:10.000Z</time>
      </trkpt>
      <trkpt lat="48.84452" lon="2.40603">
        <ele>107.3</ele>
        <time>2013-03-03T15:36:11.000Z</time>
      </trkpt>
      <trkpt lat="48.84451" lon="2.40607">
        <ele>107.5</ele>
        <time>2013-03-03T15:36:12.000Z</time>
      </trkpt>
      <trkpt lat="48.84449" lon="2.40612">
        <ele>107.2</ele>
        <time>2013-03-03T15:36:13.000Z</time>
      </trkpt>
      <trkpt lat="48.84448" lon="2.40616">
        <ele>106.7</ele>
        <time>2013-03-03T15:36:14.000Z</time>
      </trkpt>
      <trkpt lat="48.84448" lon="2.4062">
        <ele>106.8</ele>
        <time>2013-03-03T15:36:15.000Z</time>
      </trkpt>
      <trkpt lat="48.84448" lon="2.40624">
        <ele>106.3</ele>
        <time>2013-03-03T15:36:16.000Z</time>
      </trkpt>
      <trkpt lat="48.84447" lon="2.40627">
        <ele>106.6</ele>
        <time>2013-03-03T15:36:17.000Z</time>
      </trkpt>
      <trkpt lat="48.84447" lon="2.40631">
        <ele>105.8</ele>
        <time>2013-03-03T15:36:18.000Z</time>
      </trkpt>
      <trkpt lat="48.84446" lon="2.40635">
        <ele>105.1</ele>
        <time>2013-03-03T15:36:19.000Z</time>
      </trkpt>
      <trkpt lat="48.84446" lon="2.40639">
        <ele>105.4</ele>
        <time>2013-03-03T15:36:20.000Z</time>
      </trkpt>
      <trkpt lat="48.84446" lon="2.40643">
        <ele>106.1</ele>
        <time>2013-03-03T15:36:21.000Z</time>
      </trkpt>
      <trkpt lat="48.84446" lon="2.40648">
        <ele>106.8</ele>
        <time>2013-03-03T15:36:22.000Z</time>
      </trkpt>
      <trkpt lat="48.84446" lon="2.40652">
        <ele>107.1</ele>
        <time>2013-03-03T15:36:23.000Z</time>
      </trkpt>
      <trkpt lat="48.84445" lon="2.40657">
        <ele>106.5</ele>
        <time>2013-03-03T15:36:24.000Z</time>
      </trkpt>
      <trkpt lat="48.84445" lon="2.40662">
        <ele>106.4</ele>
        <time>2013-03-03T15:36:25.000Z</time>
      </trkpt>
      <trkpt lat="48.84444" lon="2.40666">
        <ele>106.1</ele>
        <time>2013-03-03T15:36:26.000Z</time>
      </trkpt>
      <trkpt lat="48.84444" lon="2.40671">
        <ele>106.4</ele>
        <time>2013-03-03T15:36:27.000Z</time>
      </trkpt>
      <trkpt lat="48.84444" lon="2.40675">
        <ele>106.4</ele>
        <time>2013-03-03T15:36:28.000Z</time>
      </trkpt>
      <trkpt lat="48.84443" lon="2.4068">
        <ele>105.5</ele>
        <time>2013-03-03T15:36:29.000Z</time>
      </trkpt>
      <trkpt lat="48.84442" lon="2.40687">
        <ele>102.2</ele>
        <time>2013-03-03T15:36:30.872Z</time>
      </trkpt>
      <trkpt lat="48.84441" lon="2.40691">
        <ele>98</ele>
        <time>2013-03-03T15:36:32.000Z</time>
      </trkpt>
      <trkpt lat="48.8444" lon="2.40694">
        <ele>97.5</ele>
        <time>2013-03-03T15:36:33.000Z</time>
      </trkpt>
      <trkpt lat="48.84439" lon="2.407">
        <ele>93.6</ele>
        <time>2013-03-03T15:36:37.000Z</time>
      </trkpt>
      <trkpt lat="48.84439" lon="2.40703">
        <ele>94</ele>
        <time>2013-03-03T15:36:38.000Z</time>
      </trkpt>
      <trkpt lat="48.84438" lon="2.40708">
        <ele>95.3</ele>
        <time>2013-03-03T15:36:40.000Z</time>
      </trkpt>
      <trkpt lat="48.84438" lon="2.40711">
        <ele>95.3</ele>
        <time>2013-03-03T15:36:41.000Z</time>
      </trkpt>
      <trkpt lat="48.84437" lon="2.40715">
        <ele>95.4</ele>
        <time>2013-03-03T15:36:42.000Z</time>
      </trkpt>
      <trkpt lat="48.84437" lon="2.40719">
        <ele>95.3</ele>
        <time>2013-03-03T15:36:43.000Z</time>
      </trkpt>
      <trkpt lat="48.84437" lon="2.40725">
        <ele>95.1</ele>
        <time>2013-03-03T15:36:44.000Z</time>
      </trkpt>
      <trkpt lat="48.84436" lon="2.4073">
        <ele>97.7</ele>
        <time>2013-03-03T15:36:45.000Z</time>
      </trkpt>
      <trkpt lat="48.84436" lon="2.40736">
        <ele>98.2</ele>
        <time>2013-03-03T15:36:46.000Z</time>
      </trkpt>
      <trkpt lat="48.84436" lon="2.40742">
        <ele>98.2</ele>
        <time>2013-03-03T15:36:47.000Z</time>
      </trkpt>
      <trkpt lat="48.84437" lon="2.40747">
        <ele>101.4</ele>
        <time>2013-03-03T15:36:48.000Z</time>
      </trkpt>
      <trkpt lat="48.84437" lon="2.40752">
        <ele>101</ele>
        <time>2013-03-03T15:36:49.000Z</time>
      </trkpt>
      <trkpt lat="48.84437" lon="2.40758">
        <ele>101.5</ele>
        <time>2013-03-03T15:36:50.000Z</time>
      </trkpt>
      <trkpt lat="48.84437" lon="2.40764">
        <ele>101.4</ele>
        <time>2013-03-03T15:36:51.000Z</time>
      </trkpt>
      <trkpt lat="48.84437" lon="2.40769">
        <ele>101.2</ele>
        <time>2013-03-03T15:36:52.000Z</time>
      </trkpt>
      <trkpt lat="48.84437" lon="2.40775">
        <ele>101.2</ele>
        <time>2013-03-03T15:36:53.000Z</time>
      </trkpt>
      <trkpt lat="48.84437" lon="2.4078">
        <ele>101.2</ele>
        <time>2013-03-03T15:36:54.000Z</time>
      </trkpt>
      <trkpt lat="48.84436" lon="2.40785">
        <ele>101.3</ele>
        <time>2013-03-03T15:36:55.000Z</time>
      </trkpt>
      <trkpt lat="48.84435" lon="2.4079">
        <ele>101.3</ele>
        <time>2013-03-03T15:36:56.000Z</time>
      </trkpt>
      <trkpt lat="48.84434" lon="2.40796">
        <ele>93.6</ele>
        <time>2013-03-03T15:36:57.000Z</time>
      </trkpt>
      <trkpt lat="48.84433" lon="2.40803">
        <ele>92.3</ele>
        <time>2013-03-03T15:36:58.000Z</time>
      </trkpt>
      <trkpt lat="48.84433" lon="2.40809">
        <ele>90.7</ele>
        <time>2013-03-03T15:36:59.000Z</time>
      </trkpt>
      <trkpt lat="48.84432" lon="2.40815">
        <ele>92.8</ele>
        <time>2013-03-03T15:37:00.000Z</time>
      </trkpt>
      <trkpt lat="48.84432" lon="2.4082">
        <ele>93.5</ele>
        <time>2013-03-03T15:37:01.000Z</time>
      </trkpt>
      <trkpt lat="48.84431" lon="2.40823">
        <ele>94</ele>
        <time>2013-03-03T15:37:02.000Z</time>
      </trkpt>
      <trkpt lat="48.84431" lon="2.40827">
        <ele>94.1</ele>
        <time>2013-03-03T15:37:03.000Z</time>
      </trkpt>
      <trkpt lat="48.84431" lon="2.40832">
        <ele>100.2</ele>
        <time>2013-03-03T15:37:04.000Z</time>
      </trkpt>
      <trkpt lat="48.84431" lon="2.40837">
        <ele>99.3</ele>
        <time>2013-03-03T15:37:05.000Z</time>
      </trkpt>
      <trkpt lat="48.84431" lon="2.40842">
        <ele>98.4</ele>
        <time>2013-03-03T15:37:06.000Z</time>
      </trkpt>
      <trkpt lat="48.8443" lon="2.40848">
        <ele>97.3</ele>
        <time>2013-03-03T15:37:07.000Z</time>
      </trkpt>
      <trkpt lat="48.8443" lon="2.40854">
        <ele>97.5</ele>
        <time>2013-03-03T15:37:08.000Z</time>
      </trkpt>
      <trkpt lat="48.84429" lon="2.4086">
        <ele>98.1</ele>
        <time>2013-03-03T15:37:09.000Z</time>
      </trkpt>
      <trkpt lat="48.84429" lon="2.40864">
        <ele>98.2</ele>
        <time>2013-03-03T15:37:10.000Z</time>
      </trkpt>
      <trkpt lat="48.84428" lon="2.40871">
        <ele>98.1</ele>
        <time>2013-03-03T15:37:12.000Z</time>
      </trkpt>
      <trkpt lat="48.84428" lon="2.40873">
        <ele>98.1</ele>
        <time>2013-03-03T15:37:13.000Z</time>
      </trkpt>
      <trkpt lat="48.84425" lon="2.40878">
        <ele>99.1</ele>
        <time>2013-03-03T15:37:16.000Z</time>
      </trkpt>
      <trkpt lat="48.84424" lon="2.40878">
        <ele>98.7</ele>
        <time>2013-03-03T15:37:17.000Z</time>
      </trkpt>
      <trkpt lat="48.84422" lon="2.40877">
        <ele>99.1</ele>
        <time>2013-03-03T15:37:18.000Z</time>
      </trkpt>
      <trkpt lat="48.84419" lon="2.40877">
        <ele>98.8</ele>
        <time>2013-03-03T15:37:19.000Z</time>
      </trkpt>
      <trkpt lat="48.84415" lon="2.40876">
        <ele>98.6</ele>
        <time>2013-03-03T15:37:20.000Z</time>
      </trkpt>
      <trkpt lat="48.84412" lon="2.40876">
        <ele>97</ele>
        <time>2013-03-03T15:37:21.000Z</time>
      </trkpt>
      <trkpt lat="48.8441" lon="2.40876">
        <ele>97.5</ele>
        <time>2013-03-03T15:37:22.000Z</time>
      </trkpt>
      <trkpt lat="48.84407" lon="2.40876">
        <ele>97.4</ele>
        <time>2013-03-03T15:37:23.000Z</time>
      </trkpt>
      <trkpt lat="48.84404" lon="2.40876">
        <ele>97.5</ele>
        <time>2013-03-03T15:37:24.000Z</time>
      </trkpt>
      <trkpt lat="48.84401" lon="2.40876">
        <ele>97.1</ele>
        <time>2013-03-03T15:37:25.000Z</time>
      </trkpt>
      <trkpt lat="48.84398" lon="2.40876">
        <ele>97.3</ele>
        <time>2013-03-03T15:37:26.000Z</time>
      </trkpt>
      <trkpt lat="48.84395" lon="2.40876">
        <ele>97</ele>
        <time>2013-03-03T15:37:27.000Z</time>
      </trkpt>
      <trkpt lat="48.84392" lon="2.40876">
        <ele>96.5</ele>
        <time>2013-03-03T15:37:28.000Z</time>
      </trkpt>
      <trkpt lat="48.8439" lon="2.40877">
        <ele>95.9</ele>
        <time>2013-03-03T15:37:29.000Z</time>
      </trkpt>
      <trkpt lat="48.84387" lon="2.40882">
        <ele>95.2</ele>
        <time>2013-03-03T15:37:30.906Z</time>
      </trkpt>
      <trkpt lat="48.84385" lon="2.40885">
        <ele>95.4</ele>
        <time>2013-03-03T15:37:32.000Z</time>
      </trkpt>
      <trkpt lat="48.84384" lon="2.40888">
        <ele>95</ele>
        <time>2013-03-03T15:37:33.000Z</time>
      </trkpt>
      <trkpt lat="48.84384" lon="2.40892">
        <ele>94.7</ele>
        <time>2013-03-03T15:37:34.000Z</time>
      </trkpt>
      <trkpt lat="48.84384" lon="2.40896">
        <ele>94.8</ele>
        <time>2013-03-03T15:37:35.000Z</time>
      </trkpt>
      <trkpt lat="48.84384" lon="2.40899">
        <ele>94.6</ele>
        <time>2013-03-03T15:37:36.000Z</time>
      </trkpt>
      <trkpt lat="48.84384" lon="2.40903">
        <ele>94.7</ele>
        <time>2013-03-03T15:37:37.000Z</time>
      </trkpt>
      <trkpt lat="48.84384" lon="2.40907">
        <ele>94.1</ele>
        <time>2013-03-03T15:37:38.000Z</time>
      </trkpt>
      <trkpt lat="48.84384" lon="2.40911">
        <ele>94.3</ele>
        <time>2013-03-03T15:37:39.000Z</time>
      </trkpt>
      <trkpt lat="48.84383" lon="2.40914">
        <ele>94.3</ele>
        <time>2013-03-03T15:37:40.000Z</time>
      </trkpt>
      <trkpt lat="48.84383" lon="2.40917">
        <ele>94</ele>
        <time>2013-03-03T15:37:41.000Z</time>
      </trkpt>
      <trkpt lat="48.84379" lon="2.40918">
        <ele>89.1</ele>
        <time>2013-03-03T15:38:35.000Z</time>
      </trkpt>
      <trkpt lat="48.84378" lon="2.40917">
        <ele>89.2</ele>
        <time>2013-03-03T15:38:36.000Z</time>
      </trkpt>
      <trkpt lat="48.84374" lon="2.40913">
        <ele>88.9</ele>
        <time>2013-03-03T15:38:38.000Z</time>
      </trkpt>
      <trkpt lat="48.84372" lon="2.40912">
        <ele>88.2</ele>
        <time>2013-03-03T15:38:39.000Z</time>
      </trkpt>
      <trkpt lat="48.84369" lon="2.40912">
        <ele>87.5</ele>
        <time>2013-03-03T15:38:40.000Z</time>
      </trkpt>
      <trkpt lat="48.84366" lon="2.40912">
        <ele>87.3</ele>
        <time>2013-03-03T15:38:41.000Z</time>
      </trkpt>
      <trkpt lat="48.84362" lon="2.40912">
        <ele>87.4</ele>
        <time>2013-03-03T15:38:42.000Z</time>
      </trkpt>
      <trkpt lat="48.84359" lon="2.40912">
        <ele>86.9</ele>
        <time>2013-03-03T15:38:43.000Z</time>
      </trkpt>
      <trkpt lat="48.84355" lon="2.40912">
        <ele>87</ele>
        <time>2013-03-03T15:38:44.000Z</time>
      </trkpt>
      <trkpt lat="48.84353" lon="2.40911">
        <ele>87.1</ele>
        <time>2013-03-03T15:38:45.000Z</time>
      </trkpt>
      <trkpt lat="48.8435" lon="2.40911">
        <ele>86.8</ele>
        <time>2013-03-03T15:38:46.000Z</time>
      </trkpt>
      <trkpt lat="48.84347" lon="2.4091">
        <ele>87</ele>
        <time>2013-03-03T15:38:47.000Z</time>
      </trkpt>
      <trkpt lat="48.84345" lon="2.4091">
        <ele>86.6</ele>
        <time>2013-03-03T15:38:48.000Z</time>
      </trkpt>
      <trkpt lat="48.84342" lon="2.40908">
        <ele>88.1</ele>
        <time>2013-03-03T15:38:49.000Z</time>
      </trkpt>
      <trkpt lat="48.84339" lon="2.40909">
        <ele>88.2</ele>
        <time>2013-03-03T15:38:50.000Z</time>
      </trkpt>
      <trkpt lat="48.84336" lon="2.40909">
        <ele>87.9</ele>
        <time>2013-03-03T15:38:51.000Z</time>
      </trkpt>
      <trkpt lat="48.84334" lon="2.40911">
        <ele>88</ele>
        <time>2013-03-03T15:38:52.000Z</time>
      </trkpt>
      <trkpt lat="48.84331" lon="2.40913">
        <ele>87.6</ele>
        <time>2013-03-03T15:38:53.000Z</time>
      </trkpt>
      <trkpt lat="48.84328" lon="2.40916">
        <ele>88.1</ele>
        <time>2013-03-03T15:38:55.000Z</time>
      </trkpt>
      <trkpt lat="48.84326" lon="2.40918">
        <ele>88.1</ele>
        <time>2013-03-03T15:38:56.000Z</time>
      </trkpt>
      <trkpt lat="48.84324" lon="2.40919">
        <ele>87.9</ele>
        <time>2013-03-03T15:38:57.000Z</time>
      </trkpt>
      <trkpt lat="48.84322" lon="2.40921">
        <ele>88</ele>
        <time>2013-03-03T15:38:58.000Z</time>
      </trkpt>
      <trkpt lat="48.8432" lon="2.40923">
        <ele>87.6</ele>
        <time>2013-03-03T15:38:59.000Z</time>
      </trkpt>
      <trkpt lat="48.84319" lon="2.40926">
        <ele>87.6</ele>
        <time>2013-03-03T15:39:00.000Z</time>
      </trkpt>
      <trkpt lat="48.84316" lon="2.40932">
        <ele>87.8</ele>
        <time>2013-03-03T15:39:02.000Z</time>
      </trkpt>
      <trkpt lat="48.84315" lon="2.40934">
        <ele>88.1</ele>
        <time>2013-03-03T15:39:03.000Z</time>
      </trkpt>
      <trkpt lat="48.84313" lon="2.40938">
        <ele>88.1</ele>
        <time>2013-03-03T15:39:05.000Z</time>
      </trkpt>
      <trkpt lat="48.84312" lon="2.4094">
        <ele>88</ele>
        <time>2013-03-03T15:39:06.000Z</time>
      </trkpt>
      <trkpt lat="48.84308" lon="2.40942">
        <ele>88.1</ele>
        <time>2013-03-03T15:39:08.000Z</time>
      </trkpt>
      <trkpt lat="48.84307" lon="2.40943">
        <ele>88.2</ele>
        <time>2013-03-03T15:39:09.000Z</time>
      </trkpt>
      <trkpt lat="48.84304" lon="2.40945">
        <ele>89</ele>
        <time>2013-03-03T15:39:11.000Z</time>
      </trkpt>
      <trkpt lat="48.84302" lon="2.40945">
        <ele>87.9</ele>
        <time>2013-03-03T15:39:12.000Z</time>
      </trkpt>
      <trkpt lat="48.84298" lon="2.40945">
        <ele>92.8</ele>
        <time>2013-03-03T15:39:14.000Z</time>
      </trkpt>
      <trkpt lat="48.84296" lon="2.40945">
        <ele>95</ele>
        <time>2013-03-03T15:39:15.000Z</time>
      </trkpt>
      <trkpt lat="48.84293" lon="2.40946">
        <ele>96.2</ele>
        <time>2013-03-03T15:39:17.000Z</time>
      </trkpt>
      <trkpt lat="48.84292" lon="2.40945">
        <ele>95.5</ele>
        <time>2013-03-03T15:39:18.000Z</time>
      </trkpt>
      <trkpt lat="48.84295" lon="2.4095">
        <ele>98.3</ele>
        <time>2013-03-03T15:39:24.000Z</time>
      </trkpt>
      <trkpt lat="48.84296" lon="2.40951">
        <ele>98.5</ele>
        <time>2013-03-03T15:39:25.000Z</time>
      </trkpt>
      <trkpt lat="48.84293" lon="2.40957">
        <ele>104.5</ele>
        <time>2013-03-03T15:39:29.000Z</time>
      </trkpt>
      <trkpt lat="48.84293" lon="2.40958">
        <ele>105.3</ele>
        <time>2013-03-03T15:39:30.962Z</time>
      </trkpt>
      <trkpt lat="48.84291" lon="2.40963">
        <ele>112.9</ele>
        <time>2013-03-03T15:40:10.000Z</time>
      </trkpt>
      <trkpt lat="48.8429" lon="2.40964">
        <ele>114.1</ele>
        <time>2013-03-03T15:40:11.000Z</time>
      </trkpt>
      <trkpt lat="48.84288" lon="2.40966">
        <ele>115.8</ele>
        <time>2013-03-03T15:40:13.000Z</time>
      </trkpt>
      <trkpt lat="48.84286" lon="2.40966">
        <ele>115.2</ele>
        <time>2013-03-03T15:40:14.000Z</time>
      </trkpt>
      <trkpt lat="48.84282" lon="2.40965">
        <ele>114.6</ele>
        <time>2013-03-03T15:40:16.000Z</time>
      </trkpt>
      <trkpt lat="48.84279" lon="2.40965">
        <ele>114.9</ele>
        <time>2013-03-03T15:40:17.000Z</time>
      </trkpt>
      <trkpt lat="48.84277" lon="2.40965">
        <ele>115.1</ele>
        <time>2013-03-03T15:40:18.000Z</time>
      </trkpt>
      <trkpt lat="48.84274" lon="2.40965">
        <ele>115.3</ele>
        <time>2013-03-03T15:40:19.000Z</time>
      </trkpt>
      <trkpt lat="48.84272" lon="2.40965">
        <ele>115.1</ele>
        <time>2013-03-03T15:40:20.000Z</time>
      </trkpt>
      <trkpt lat="48.8427" lon="2.40964">
        <ele>114.8</ele>
        <time>2013-03-03T15:40:21.000Z</time>
      </trkpt>
      <trkpt lat="48.84267" lon="2.40964">
        <ele>115.7</ele>
        <time>2013-03-03T15:40:22.000Z</time>
      </trkpt>
      <trkpt lat="48.84264" lon="2.40964">
        <ele>116.1</ele>
        <time>2013-03-03T15:40:23.000Z</time>
      </trkpt>
      <trkpt lat="48.8426" lon="2.40962">
        <ele>114.9</ele>
        <time>2013-03-03T15:40:25.000Z</time>
      </trkpt>
      <trkpt lat="48.84258" lon="2.40962">
        <ele>116.5</ele>
        <time>2013-03-03T15:40:26.000Z</time>
      </trkpt>
      <trkpt lat="48.84254" lon="2.4096">
        <ele>110</ele>
        <time>2013-03-03T15:40:28.000Z</time>
      </trkpt>
      <trkpt lat="48.84252" lon="2.40959">
        <ele>109.6</ele>
        <time>2013-03-03T15:40:29.000Z</time>
      </trkpt>
      <trkpt lat="48.84245" lon="2.40957">
        <ele>110.2</ele>
        <time>2013-03-03T15:40:32.000Z</time>
      </trkpt>
      <trkpt lat="48.84241" lon="2.40957">
        <ele>110</ele>
        <time>2013-03-03T15:40:34.000Z</time>
      </trkpt>
      <trkpt lat="48.8424" lon="2.40958">
        <ele>110.7</ele>
        <time>2013-03-03T15:40:35.000Z</time>
      </trkpt>
      <trkpt lat="48.84239" lon="2.40965">
        <ele>111.6</ele>
        <time>2013-03-03T15:40:41.000Z</time>
      </trkpt>
      <trkpt lat="48.84239" lon="2.40967">
        <ele>111.1</ele>
        <time>2013-03-03T15:40:42.000Z</time>
      </trkpt>
      <trkpt lat="48.84239" lon="2.40974">
        <ele>111.9</ele>
        <time>2013-03-03T15:40:45.000Z</time>
      </trkpt>
      <trkpt lat="48.84239" lon="2.40975">
        <ele>111.9</ele>
        <time>2013-03-03T15:40:46.000Z</time>
      </trkpt>
      <trkpt lat="48.8424" lon="2.40979">
        <ele>110.3</ele>
        <time>2013-03-03T15:41:01.000Z</time>
      </trkpt>
      <trkpt lat="48.84242" lon="2.40981">
        <ele>111.6</ele>
        <time>2013-03-03T15:41:02.000Z</time>
      </trkpt>
      <trkpt lat="48.84245" lon="2.40986">
        <ele>110.4</ele>
        <time>2013-03-03T15:41:04.000Z</time>
      </trkpt>
      <trkpt lat="48.84246" lon="2.40989">
        <ele>110.6</ele>
        <time>2013-03-03T15:41:05.000Z</time>
      </trkpt>
      <trkpt lat="48.84246" lon="2.40996">
        <ele>111.5</ele>
        <time>2013-03-03T15:41:07.000Z</time>
      </trkpt>
      <trkpt lat="48.84245" lon="2.40999">
        <ele>111.8</ele>
        <time>2013-03-03T15:41:08.000Z</time>
      </trkpt>
      <trkpt lat="48.84244" lon="2.41004">
        <ele>112.1</ele>
        <time>2013-03-03T15:41:10.000Z</time>
      </trkpt>
      <trkpt lat="48.84243" lon="2.41007">
        <ele>111</ele>
        <time>2013-03-03T15:41:11.000Z</time>
      </trkpt>
      <trkpt lat="48.84244" lon="2.41013">
        <ele>111.3</ele>
        <time>2013-03-03T15:41:13.000Z</time>
      </trkpt>
      <trkpt lat="48.84244" lon="2.41016">
        <ele>110.8</ele>
        <time>2013-03-03T15:41:14.000Z</time>
      </trkpt>
      <trkpt lat="48.84244" lon="2.41019">
        <ele>110.8</ele>
        <time>2013-03-03T15:41:15.000Z</time>
      </trkpt>
      <trkpt lat="48.84243" lon="2.41023">
        <ele>110.7</ele>
        <time>2013-03-03T15:41:16.000Z</time>
      </trkpt>
      <trkpt lat="48.84243" lon="2.41026">
        <ele>110.8</ele>
        <time>2013-03-03T15:41:17.000Z</time>
      </trkpt>
      <trkpt lat="48.84243" lon="2.4103">
        <ele>110.4</ele>
        <time>2013-03-03T15:41:18.000Z</time>
      </trkpt>
      <trkpt lat="48.84242" lon="2.41033">
        <ele>110.4</ele>
        <time>2013-03-03T15:41:19.000Z</time>
      </trkpt>
      <trkpt lat="48.84242" lon="2.41037">
        <ele>109.8</ele>
        <time>2013-03-03T15:41:20.000Z</time>
      </trkpt>
      <trkpt lat="48.84241" lon="2.4104">
        <ele>110</ele>
        <time>2013-03-03T15:41:21.000Z</time>
      </trkpt>
      <trkpt lat="48.84241" lon="2.41044">
        <ele>109.8</ele>
        <time>2013-03-03T15:41:22.000Z</time>
      </trkpt>
      <trkpt lat="48.84241" lon="2.41048">
        <ele>109.9</ele>
        <time>2013-03-03T15:41:23.000Z</time>
      </trkpt>
      <trkpt lat="48.84241" lon="2.41051">
        <ele>108.8</ele>
        <time>2013-03-03T15:41:24.000Z</time>
      </trkpt>
      <trkpt lat="48.8424" lon="2.41055">
        <ele>109.2</ele>
        <time>2013-03-03T15:41:25.000Z</time>
      </trkpt>
      <trkpt lat="48.84239" lon="2.41059">
        <ele>108.8</ele>
        <time>2013-03-03T15:41:26.000Z</time>
      </trkpt>
      <trkpt lat="48.84238" lon="2.41063">
        <ele>108.1</ele>
        <time>2013-03-03T15:41:27.000Z</time>
      </trkpt>
      <trkpt lat="48.84237" lon="2.41067">
        <ele>107.3</ele>
        <time>2013-03-03T15:41:28.000Z</time>
      </trkpt>
      <trkpt lat="48.84237" lon="2.41069">
        <ele>106.9</ele>
        <time>2013-03-03T15:41:29.000Z</time>
      </trkpt>
      <trkpt lat="48.84236" lon="2.41074">
        <ele>106</ele>
        <time>2013-03-03T15:41:30.907Z</time>
      </trkpt>
      <trkpt lat="48.84235" lon="2.41078">
        <ele>106.6</ele>
        <time>2013-03-03T15:41:32.000Z</time>
      </trkpt>
      <trkpt lat="48.84235" lon="2.41082">
        <ele>97.8</ele>
        <time>2013-03-03T15:41:33.000Z</time>
      </trkpt>
      <trkpt lat="48.84235" lon="2.41087">
        <ele>95.7</ele>
        <time>2013-03-03T15:41:34.000Z</time>
      </trkpt>
      <trkpt lat="48.84234" lon="2.41093">
        <ele>92.6</ele>
        <time>2013-03-03T15:41:35.000Z</time>
      </trkpt>
      <trkpt lat="48.84233" lon="2.41098">
        <ele>91.3</ele>
        <time>2013-03-03T15:41:36.000Z</time>
      </trkpt>
      <trkpt lat="48.84233" lon="2.41103">
        <ele>92.4</ele>
        <time>2013-03-03T15:41:37.000Z</time>
      </trkpt>
      <trkpt lat="48.84232" lon="2.41107">
        <ele>92.3</ele>
        <time>2013-03-03T15:41:38.000Z</time>
      </trkpt>
      <trkpt lat="48.84231" lon="2.41111">
        <ele>90.5</ele>
        <time>2013-03-03T15:41:39.000Z</time>
      </trkpt>
      <trkpt lat="48.8423" lon="2.41114">
        <ele>90.5</ele>
        <time>2013-03-03T15:41:40.000Z</time>
      </trkpt>
      <trkpt lat="48.8423" lon="2.41118">
        <ele>89.9</ele>
        <time>2013-03-03T15:41:41.000Z</time>
      </trkpt>
      <trkpt lat="48.84229" lon="2.41121">
        <ele>88.5</ele>
        <time>2013-03-03T15:41:42.000Z</time>
      </trkpt>
      <trkpt lat="48.84228" lon="2.41124">
        <ele>88.7</ele>
        <time>2013-03-03T15:41:43.000Z</time>
      </trkpt>
      <trkpt lat="48.84226" lon="2.41127">
        <ele>88.4</ele>
        <time>2013-03-03T15:41:44.000Z</time>
      </trkpt>
      <trkpt lat="48.84224" lon="2.41128">
        <ele>86.5</ele>
        <time>2013-03-03T15:41:45.000Z</time>
      </trkpt>
      <trkpt lat="48.84222" lon="2.41129">
        <ele>102.4</ele>
        <time>2013-03-03T15:41:46.000Z</time>
      </trkpt>
      <trkpt lat="48.84219" lon="2.4113">
        <ele>98.1</ele>
        <time>2013-03-03T15:41:47.000Z</time>
      </trkpt>
      <trkpt lat="48.84216" lon="2.41131">
        <ele>95.7</ele>
        <time>2013-03-03T15:41:48.000Z</time>
      </trkpt>
      <trkpt lat="48.84213" lon="2.41132">
        <ele>95.1</ele>
        <time>2013-03-03T15:41:49.000Z</time>
      </trkpt>
      <trkpt lat="48.8421" lon="2.41133">
        <ele>93</ele>
        <time>2013-03-03T15:41:50.000Z</time>
      </trkpt>
      <trkpt lat="48.84206" lon="2.41134">
        <ele>97.3</ele>
        <time>2013-03-03T15:41:51.000Z</time>
      </trkpt>
      <trkpt lat="48.84202" lon="2.41136">
        <ele>94.6</ele>
        <time>2013-03-03T15:41:52.000Z</time>
      </trkpt>
      <trkpt lat="48.84198" lon="2.41138">
        <ele>93.6</ele>
        <time>2013-03-03T15:41:53.000Z</time>
      </trkpt>
      <trkpt lat="48.84194" lon="2.41139">
        <ele>93</ele>
        <time>2013-03-03T15:41:54.000Z</time>
      </trkpt>
      <trkpt lat="48.8419" lon="2.4114">
        <ele>92.7</ele>
        <time>2013-03-03T15:41:55.000Z</time>
      </trkpt>
      <trkpt lat="48.84186" lon="2.4114">
        <ele>92.8</ele>
        <time>2013-03-03T15:41:56.000Z</time>
      </trkpt>
      <trkpt lat="48.84181" lon="2.41141">
        <ele>93</ele>
        <time>2013-03-03T15:41:57.000Z</time>
      </trkpt>
      <trkpt lat="48.84177" lon="2.41142">
        <ele>92.8</ele>
        <time>2013-03-03T15:41:58.000Z</time>
      </trkpt>
      <trkpt lat="48.84173" lon="2.41142">
        <ele>91.8</ele>
        <time>2013-03-03T15:41:59.000Z</time>
      </trkpt>
      <trkpt lat="48.84169" lon="2.41142">
        <ele>91.6</ele>
        <time>2013-03-03T15:42:00.000Z</time>
      </trkpt>
      <trkpt lat="48.84165" lon="2.41143">
        <ele>91.7</ele>
        <time>2013-03-03T15:42:01.000Z</time>
      </trkpt>
      <trkpt lat="48.8416" lon="2.41143">
        <ele>91.9</ele>
        <time>2013-03-03T15:42:02.000Z</time>
      </trkpt>
      <trkpt lat="48.84156" lon="2.41143">
        <ele>91.8</ele>
        <time>2013-03-03T15:42:03.000Z</time>
      </trkpt>
      <trkpt lat="48.84152" lon="2.41142">
        <ele>92.1</ele>
        <time>2013-03-03T15:42:04.000Z</time>
      </trkpt>
      <trkpt lat="48.84148" lon="2.41143">
        <ele>92.4</ele>
        <time>2013-03-03T15:42:05.000Z</time>
      </trkpt>
      <trkpt lat="48.84144" lon="2.41145">
        <ele>92.1</ele>
        <time>2013-03-03T15:42:06.000Z</time>
      </trkpt>
      <trkpt lat="48.84141" lon="2.41146">
        <ele>90.6</ele>
        <time>2013-03-03T15:42:07.000Z</time>
      </trkpt>
      <trkpt lat="48.84137" lon="2.41148">
        <ele>90.4</ele>
        <time>2013-03-03T15:42:08.000Z</time>
      </trkpt>
      <trkpt lat="48.84134" lon="2.41149">
        <ele>90.8</ele>
        <time>2013-03-03T15:42:09.000Z</time>
      </trkpt>
      <trkpt lat="48.84131" lon="2.41149">
        <ele>91.5</ele>
        <time>2013-03-03T15:42:10.000Z</time>
      </trkpt>
      <trkpt lat="48.84129" lon="2.41148">
        <ele>91.3</ele>
        <time>2013-03-03T15:42:11.000Z</time>
      </trkpt>
      <trkpt lat="48.84126" lon="2.41145">
        <ele>91.3</ele>
        <time>2013-03-03T15:42:12.000Z</time>
      </trkpt>
      <trkpt lat="48.84123" lon="2.41144">
        <ele>91.2</ele>
        <time>2013-03-03T15:42:13.000Z</time>
      </trkpt>
      <trkpt lat="48.84121" lon="2.41143">
        <ele>92</ele>
        <time>2013-03-03T15:42:14.000Z</time>
      </trkpt>
      <trkpt lat="48.84118" lon="2.41145">
        <ele>92.4</ele>
        <time>2013-03-03T15:42:15.000Z</time>
      </trkpt>
      <trkpt lat="48.84116" lon="2.41148">
        <ele>93.4</ele>
        <time>2013-03-03T15:42:16.000Z</time>
      </trkpt>
      <trkpt lat="48.84113" lon="2.41152">
        <ele>92.1</ele>
        <time>2013-03-03T15:42:17.000Z</time>
      </trkpt>
      <trkpt lat="48.84111" lon="2.41155">
        <ele>93.5</ele>
        <time>2013-03-03T15:42:18.000Z</time>
      </trkpt>
      <trkpt lat="48.84108" lon="2.41158">
        <ele>93.3</ele>
        <time>2013-03-03T15:42:19.000Z</time>
      </trkpt>
      <trkpt lat="48.84106" lon="2.41161">
        <ele>93.3</ele>
        <time>2013-03-03T15:42:20.000Z</time>
      </trkpt>
      <trkpt lat="48.84104" lon="2.41165">
        <ele>92.2</ele>
        <time>2013-03-03T15:42:21.000Z</time>
      </trkpt>
      <trkpt lat="48.84102" lon="2.41169">
        <ele>92.4</ele>
        <time>2013-03-03T15:42:22.000Z</time>
      </trkpt>
      <trkpt lat="48.84101" lon="2.41174">
        <ele>92.4</ele>
        <time>2013-03-03T15:42:23.000Z</time>
      </trkpt>
      <trkpt lat="48.84101" lon="2.4118">
        <ele>93.1</ele>
        <time>2013-03-03T15:42:24.000Z</time>
      </trkpt>
      <trkpt lat="48.84101" lon="2.41185">
        <ele>92.6</ele>
        <time>2013-03-03T15:42:25.000Z</time>
      </trkpt>
      <trkpt lat="48.84102" lon="2.41191">
        <ele>91</ele>
        <time>2013-03-03T15:42:26.000Z</time>
      </trkpt>
      <trkpt lat="48.84103" lon="2.41198">
        <ele>90.2</ele>
        <time>2013-03-03T15:42:27.000Z</time>
      </trkpt>
      <trkpt lat="48.84104" lon="2.41205">
        <ele>90.1</ele>
        <time>2013-03-03T15:42:28.000Z</time>
      </trkpt>
      <trkpt lat="48.84106" lon="2.41212">
        <ele>88.4</ele>
        <time>2013-03-03T15:42:29.000Z</time>
      </trkpt>
      <trkpt lat="48.84111" lon="2.41225">
        <ele>85.9</ele>
        <time>2013-03-03T15:42:31.142Z</time>
      </trkpt>
      <trkpt lat="48.84112" lon="2.4123">
        <ele>83.8</ele>
        <time>2013-03-03T15:42:32.000Z</time>
      </trkpt>
      <trkpt lat="48.84113" lon="2.41235">
        <ele>82.9</ele>
        <time>2013-03-03T15:42:33.000Z</time>
      </trkpt>
      <trkpt lat="48.84113" lon="2.41241">
        <ele>84.3</ele>
        <time>2013-03-03T15:42:34.000Z</time>
      </trkpt>
      <trkpt lat="48.84113" lon="2.41245">
        <ele>84.1</ele>
        <time>2013-03-03T15:42:35.000Z</time>
      </trkpt>
      <trkpt lat="48.84112" lon="2.41239">
        <ele>83</ele>
        <time>2013-03-03T15:42:46.000Z</time>
      </trkpt>
      <trkpt lat="48.84112" lon="2.41237">
        <ele>82.9</ele>
        <time>2013-03-03T15:42:47.000Z</time>
      </trkpt>
      <trkpt lat="48.84109" lon="2.41233">
        <ele>82.4</ele>
        <time>2013-03-03T15:43:16.000Z</time>
      </trkpt>
      <trkpt lat="48.84108" lon="2.4123">
        <ele>81.3</ele>
        <time>2013-03-03T15:43:17.000Z</time>
      </trkpt>
      <trkpt lat="48.84107" lon="2.41225">
        <ele>81</ele>
        <time>2013-03-03T15:43:18.000Z</time>
      </trkpt>
      <trkpt lat="48.84106" lon="2.41219">
        <ele>78.6</ele>
        <time>2013-03-03T15:43:19.000Z</time>
      </trkpt>
      <trkpt lat="48.84105" lon="2.41214">
        <ele>77.9</ele>
        <time>2013-03-03T15:43:20.000Z</time>
      </trkpt>
      <trkpt lat="48.84105" lon="2.41209">
        <ele>77.5</ele>
        <time>2013-03-03T15:43:21.000Z</time>
      </trkpt>
      <trkpt lat="48.84104" lon="2.41204">
        <ele>77.3</ele>
        <time>2013-03-03T15:43:22.000Z</time>
      </trkpt>
      <trkpt lat="48.84103" lon="2.412">
        <ele>77.2</ele>
        <time>2013-03-03T15:43:23.000Z</time>
      </trkpt>
      <trkpt lat="48.84103" lon="2.41195">
        <ele>77.8</ele>
        <time>2013-03-03T15:43:24.000Z</time>
      </trkpt>
      <trkpt lat="48.84102" lon="2.4119">
        <ele>78.3</ele>
        <time>2013-03-03T15:43:25.000Z</time>
      </trkpt>
      <trkpt lat="48.84102" lon="2.41185">
        <ele>77.7</ele>
        <time>2013-03-03T15:43:26.000Z</time>
      </trkpt>
      <trkpt lat="48.84101" lon="2.41181">
        <ele>78.1</ele>
        <time>2013-03-03T15:43:27.000Z</time>
      </trkpt>
      <trkpt lat="48.841" lon="2.41176">
        <ele>78.4</ele>
        <time>2013-03-03T15:43:28.000Z</time>
      </trkpt>
      <trkpt lat="48.841" lon="2.41172">
        <ele>78.4</ele>
        <time>2013-03-03T15:43:29.000Z</time>
      </trkpt>
      <trkpt lat="48.84099" lon="2.41161">
        <ele>79.1</ele>
        <time>2013-03-03T15:43:31.318Z</time>
      </trkpt>
      <trkpt lat="48.84099" lon="2.41157">
        <ele>79.1</ele>
        <time>2013-03-03T15:43:32.000Z</time>
      </trkpt>
      <trkpt lat="48.84098" lon="2.41153">
        <ele>79.2</ele>
        <time>2013-03-03T15:43:33.000Z</time>
      </trkpt>
      <trkpt lat="48.84097" lon="2.41149">
        <ele>79.2</ele>
        <time>2013-03-03T15:43:34.000Z</time>
      </trkpt>
      <trkpt lat="48.84096" lon="2.41145">
        <ele>79.2</ele>
        <time>2013-03-03T15:43:35.000Z</time>
      </trkpt>
      <trkpt lat="48.84095" lon="2.41141">
        <ele>78.7</ele>
        <time>2013-03-03T15:43:36.000Z</time>
      </trkpt>
      <trkpt lat="48.84093" lon="2.41138">
        <ele>78.1</ele>
        <time>2013-03-03T15:43:37.000Z</time>
      </trkpt>
      <trkpt lat="48.84091" lon="2.41135">
        <ele>77.5</ele>
        <time>2013-03-03T15:43:38.000Z</time>
      </trkpt>
      <trkpt lat="48.84089" lon="2.41131">
        <ele>77</ele>
        <time>2013-03-03T15:43:39.000Z</time>
      </trkpt>
      <trkpt lat="48.84087" lon="2.41128">
        <ele>75.3</ele>
        <time>2013-03-03T15:43:40.000Z</time>
      </trkpt>
      <trkpt lat="48.84086" lon="2.41125">
        <ele>74.5</ele>
        <time>2013-03-03T15:43:41.000Z</time>
      </trkpt>
      <trkpt lat="48.84084" lon="2.41121">
        <ele>74.6</ele>
        <time>2013-03-03T15:43:42.000Z</time>
      </trkpt>
      <trkpt lat="48.84083" lon="2.41119">
        <ele>74.3</ele>
        <time>2013-03-03T15:43:43.000Z</time>
      </trkpt>
      <trkpt lat="48.8408" lon="2.41113">
        <ele>74.1</ele>
        <time>2013-03-03T15:43:45.000Z</time>
      </trkpt>
      <trkpt lat="48.84079" lon="2.4111">
        <ele>73.4</ele>
        <time>2013-03-03T15:43:46.000Z</time>
      </trkpt>
      <trkpt lat="48.84077" lon="2.41105">
        <ele>72.8</ele>
        <time>2013-03-03T15:43:47.000Z</time>
      </trkpt>
      <trkpt lat="48.84077" lon="2.411">
        <ele>79.9</ele>
        <time>2013-03-03T15:43:48.000Z</time>
      </trkpt>
      <trkpt lat="48.84076" lon="2.41093">
        <ele>80.5</ele>
        <time>2013-03-03T15:43:49.000Z</time>
      </trkpt>
      <trkpt lat="48.84075" lon="2.41084">
        <ele>78.5</ele>
        <time>2013-03-03T15:43:50.000Z</time>
      </trkpt>
      <trkpt lat="48.84075" lon="2.41073">
        <ele>77.8</ele>
        <time>2013-03-03T15:43:51.000Z</time>
      </trkpt>
      <trkpt lat="48.84073" lon="2.41044">
        <ele>77</ele>
        <time>2013-03-03T15:43:52.000Z</time>
      </trkpt>
      <trkpt lat="48.84071" lon="2.41032">
        <ele>76.3</ele>
        <time>2013-03-03T15:43:53.000Z</time>
      </trkpt>
      <trkpt lat="48.8407" lon="2.41018">
        <ele>76</ele>
        <time>2013-03-03T15:43:54.000Z</time>
      </trkpt>
      <trkpt lat="48.84069" lon="2.41006">
        <ele>75.9</ele>
        <time>2013-03-03T15:43:55.000Z</time>
      </trkpt>
      <trkpt lat="48.84068" lon="2.40995">
        <ele>75.7</ele>
        <time>2013-03-03T15:43:56.000Z</time>
      </trkpt>
      <trkpt lat="48.84057" lon="2.40847">
        <ele>74.8</ele>
        <time>2013-03-03T15:44:08.000Z</time>
      </trkpt>
      <trkpt lat="48.84057" lon="2.40836">
        <ele>75.8</ele>
        <time>2013-03-03T15:44:09.000Z</time>
      </trkpt>
      <trkpt lat="48.84058" lon="2.40833">
        <ele>74.5</ele>
        <time>2013-03-03T15:44:10.000Z</time>
      </trkpt>
      <trkpt lat="48.84058" lon="2.40824">
        <ele>74.5</ele>
        <time>2013-03-03T15:44:11.000Z</time>
      </trkpt>
      <trkpt lat="48.84056" lon="2.40817">
        <ele>77.9</ele>
        <time>2013-03-03T15:44:12.000Z</time>
      </trkpt>
      <trkpt lat="48.84056" lon="2.40811">
        <ele>78.1</ele>
        <time>2013-03-03T15:44:13.000Z</time>
      </trkpt>
      <trkpt lat="48.84057" lon="2.40804">
        <ele>76.6</ele>
        <time>2013-03-03T15:44:14.000Z</time>
      </trkpt>
      <trkpt lat="48.84057" lon="2.40798">
        <ele>77</ele>
        <time>2013-03-03T15:44:15.000Z</time>
      </trkpt>
      <trkpt lat="48.84057" lon="2.4079">
        <ele>76.1</ele>
        <time>2013-03-03T15:44:16.000Z</time>
      </trkpt>
      <trkpt lat="48.84054" lon="2.40781">
        <ele>76.6</ele>
        <time>2013-03-03T15:44:17.000Z</time>
      </trkpt>
      <trkpt lat="48.84052" lon="2.40774">
        <ele>76.6</ele>
        <time>2013-03-03T15:44:18.000Z</time>
      </trkpt>
      <trkpt lat="48.84052" lon="2.40769">
        <ele>76.4</ele>
        <time>2013-03-03T15:44:19.000Z</time>
      </trkpt>
      <trkpt lat="48.84055" lon="2.40767">
        <ele>76.9</ele>
        <time>2013-03-03T15:44:20.000Z</time>
      </trkpt>
      <trkpt lat="48.84055" lon="2.40764">
        <ele>77.3</ele>
        <time>2013-03-03T15:44:21.000Z</time>
      </trkpt>
      <trkpt lat="48.84056" lon="2.40758">
        <ele>74.3</ele>
        <time>2013-03-03T15:44:22.000Z</time>
      </trkpt>
      <trkpt lat="48.84056" lon="2.40753">
        <ele>75.4</ele>
        <time>2013-03-03T15:44:23.000Z</time>
      </trkpt>
      <trkpt lat="48.84057" lon="2.4075">
        <ele>74.6</ele>
        <time>2013-03-03T15:44:24.000Z</time>
      </trkpt>
      <trkpt lat="48.84058" lon="2.40747">
        <ele>74.7</ele>
        <time>2013-03-03T15:44:25.000Z</time>
      </trkpt>
      <trkpt lat="48.8406" lon="2.40744">
        <ele>75.2</ele>
        <time>2013-03-03T15:44:26.000Z</time>
      </trkpt>
      <trkpt lat="48.84061" lon="2.40738">
        <ele>74.8</ele>
        <time>2013-03-03T15:44:27.000Z</time>
      </trkpt>
      <trkpt lat="48.84061" lon="2.40734">
        <ele>75</ele>
        <time>2013-03-03T15:44:28.000Z</time>
      </trkpt>
      <trkpt lat="48.84062" lon="2.4073">
        <ele>75.2</ele>
        <time>2013-03-03T15:44:29.000Z</time>
      </trkpt>
      <trkpt lat="48.84063" lon="2.4072">
        <ele>74.2</ele>
        <time>2013-03-03T15:44:30.838Z</time>
      </trkpt>
      <trkpt lat="48.84063" lon="2.40713">
        <ele>74.2</ele>
        <time>2013-03-03T15:44:32.000Z</time>
      </trkpt>
      <trkpt lat="48.84064" lon="2.40708">
        <ele>74.4</ele>
        <time>2013-03-03T15:44:33.000Z</time>
      </trkpt>
      <trkpt lat="48.84065" lon="2.40703">
        <ele>73.9</ele>
        <time>2013-03-03T15:44:34.000Z</time>
      </trkpt>
      <trkpt lat="48.84066" lon="2.40698">
        <ele>73.5</ele>
        <time>2013-03-03T15:44:35.000Z</time>
      </trkpt>
      <trkpt lat="48.84067" lon="2.40694">
        <ele>73.1</ele>
        <time>2013-03-03T15:44:36.000Z</time>
      </trkpt>
      <trkpt lat="48.84069" lon="2.40692">
        <ele>72.7</ele>
        <time>2013-03-03T15:44:37.000Z</time>
      </trkpt>
      <trkpt lat="48.84071" lon="2.40688">
        <ele>70.4</ele>
        <time>2013-03-03T15:44:41.000Z</time>
      </trkpt>
      <trkpt lat="48.84072" lon="2.40686">
        <ele>70.1</ele>
        <time>2013-03-03T15:44:42.000Z</time>
      </trkpt>
      <trkpt lat="48.84073" lon="2.40684">
        <ele>70</ele>
        <time>2013-03-03T15:44:43.000Z</time>
      </trkpt>
      <trkpt lat="48.84075" lon="2.4068">
        <ele>69.1</ele>
        <time>2013-03-03T15:44:44.000Z</time>
      </trkpt>
      <trkpt lat="48.84077" lon="2.40674">
        <ele>69.6</ele>
        <time>2013-03-03T15:44:45.000Z</time>
      </trkpt>
      <trkpt lat="48.84077" lon="2.40667">
        <ele>70.4</ele>
        <time>2013-03-03T15:44:46.000Z</time>
      </trkpt>
      <trkpt lat="48.84077" lon="2.40659">
        <ele>72.7</ele>
        <time>2013-03-03T15:44:47.000Z</time>
      </trkpt>
      <trkpt lat="48.84075" lon="2.40651">
        <ele>73.1</ele>
        <time>2013-03-03T15:44:48.000Z</time>
      </trkpt>
      <trkpt lat="48.84073" lon="2.40643">
        <ele>74.1</ele>
        <time>2013-03-03T15:44:49.000Z</time>
      </trkpt>
      <trkpt lat="48.8407" lon="2.40636">
        <ele>78.8</ele>
        <time>2013-03-03T15:44:50.000Z</time>
      </trkpt>
      <trkpt lat="48.84068" lon="2.4063">
        <ele>85.1</ele>
        <time>2013-03-03T15:44:51.000Z</time>
      </trkpt>
      <trkpt lat="48.84065" lon="2.40626">
        <ele>86.5</ele>
        <time>2013-03-03T15:44:52.000Z</time>
      </trkpt>
      <trkpt lat="48.84063" lon="2.40622">
        <ele>86.4</ele>
        <time>2013-03-03T15:44:53.000Z</time>
      </trkpt>
      <trkpt lat="48.8406" lon="2.40621">
        <ele>85.5</ele>
        <time>2013-03-03T15:44:54.000Z</time>
      </trkpt>
      <trkpt lat="48.84058" lon="2.40619">
        <ele>82.7</ele>
        <time>2013-03-03T15:44:55.000Z</time>
      </trkpt>
      <trkpt lat="48.84055" lon="2.40618">
        <ele>76.8</ele>
        <time>2013-03-03T15:44:56.000Z</time>
      </trkpt>
      <trkpt lat="48.84053" lon="2.40618">
        <ele>77.4</ele>
        <time>2013-03-03T15:44:57.000Z</time>
      </trkpt>
      <trkpt lat="48.84048" lon="2.40619">
        <ele>78</ele>
        <time>2013-03-03T15:44:59.000Z</time>
      </trkpt>
      <trkpt lat="48.84046" lon="2.40621">
        <ele>78.3</ele>
        <time>2013-03-03T15:45:00.000Z</time>
      </trkpt>
      <trkpt lat="48.84044" lon="2.40621">
        <ele>79.1</ele>
        <time>2013-03-03T15:45:01.000Z</time>
      </trkpt>
      <trkpt lat="48.84042" lon="2.40622">
        <ele>81.5</ele>
        <time>2013-03-03T15:45:02.000Z</time>
      </trkpt>
      <trkpt lat="48.84039" lon="2.40622">
        <ele>81.4</ele>
        <time>2013-03-03T15:45:03.000Z</time>
      </trkpt>
      <trkpt lat="48.84037" lon="2.40623">
        <ele>81.7</ele>
        <time>2013-03-03T15:45:04.000Z</time>
      </trkpt>
      <trkpt lat="48.84035" lon="2.40625">
        <ele>81.7</ele>
        <time>2013-03-03T15:45:05.000Z</time>
      </trkpt>
      <trkpt lat="48.84033" lon="2.40625">
        <ele>82.2</ele>
        <time>2013-03-03T15:45:06.000Z</time>
      </trkpt>
      <trkpt lat="48.8403" lon="2.40625">
        <ele>82.4</ele>
        <time>2013-03-03T15:45:07.000Z</time>
      </trkpt>
      <trkpt lat="48.84028" lon="2.40624">
        <ele>83</ele>
        <time>2013-03-03T15:45:08.000Z</time>
      </trkpt>
      <trkpt lat="48.84026" lon="2.40622">
        <ele>84</ele>
        <time>2013-03-03T15:45:09.000Z</time>
      </trkpt>
      <trkpt lat="48.84023" lon="2.40621">
        <ele>84.4</ele>
        <time>2013-03-03T15:45:10.000Z</time>
      </trkpt>
      <trkpt lat="48.84021" lon="2.40619">
        <ele>86.4</ele>
        <time>2013-03-03T15:45:11.000Z</time>
      </trkpt>
      <trkpt lat="48.84019" lon="2.40618">
        <ele>86.9</ele>
        <time>2013-03-03T15:45:12.000Z</time>
      </trkpt>
      <trkpt lat="48.84015" lon="2.40618">
        <ele>87.9</ele>
        <time>2013-03-03T15:45:14.000Z</time>
      </trkpt>
      <trkpt lat="48.84013" lon="2.40618">
        <ele>88.5</ele>
        <time>2013-03-03T15:45:15.000Z</time>
      </trkpt>
      <trkpt lat="48.84009" lon="2.40618">
        <ele>89.7</ele>
        <time>2013-03-03T15:45:18.000Z</time>
      </trkpt>
      <trkpt lat="48.84009" lon="2.40616">
        <ele>89.4</ele>
        <time>2013-03-03T15:45:19.000Z</time>
      </trkpt>
      <trkpt lat="48.84006" lon="2.40612">
        <ele>96</ele>
        <time>2013-03-03T15:46:49.000Z</time>
      </trkpt>
      <trkpt lat="48.84005" lon="2.40609">
        <ele>96</ele>
        <time>2013-03-03T15:46:50.000Z</time>
      </trkpt>
      <trkpt lat="48.84005" lon="2.40603">
        <ele>99.3</ele>
        <time>2013-03-03T15:46:52.000Z</time>
      </trkpt>
      <trkpt lat="48.84005" lon="2.406">
        <ele>99.1</ele>
        <time>2013-03-03T15:46:53.000Z</time>
      </trkpt>
      <trkpt lat="48.84005" lon="2.40594">
        <ele>97.3</ele>
        <time>2013-03-03T15:46:55.000Z</time>
      </trkpt>
      <trkpt lat="48.84005" lon="2.4059">
        <ele>97.7</ele>
        <time>2013-03-03T15:46:56.000Z</time>
      </trkpt>
      <trkpt lat="48.84006" lon="2.40584">
        <ele>98.2</ele>
        <time>2013-03-03T15:46:58.000Z</time>
      </trkpt>
      <trkpt lat="48.84006" lon="2.4058">
        <ele>99.1</ele>
        <time>2013-03-03T15:46:59.000Z</time>
      </trkpt>
      <trkpt lat="48.84007" lon="2.40574">
        <ele>96.6</ele>
        <time>2013-03-03T15:47:01.000Z</time>
      </trkpt>
      <trkpt lat="48.84008" lon="2.40571">
        <ele>95.5</ele>
        <time>2013-03-03T15:47:02.000Z</time>
      </trkpt>
      <trkpt lat="48.84009" lon="2.40568">
        <ele>94.9</ele>
        <time>2013-03-03T15:47:03.000Z</time>
      </trkpt>
      <trkpt lat="48.84011" lon="2.40565">
        <ele>94.8</ele>
        <time>2013-03-03T15:47:04.000Z</time>
      </trkpt>
      <trkpt lat="48.84013" lon="2.40563">
        <ele>96</ele>
        <time>2013-03-03T15:47:05.000Z</time>
      </trkpt>
      <trkpt lat="48.84015" lon="2.4056">
        <ele>95.1</ele>
        <time>2013-03-03T15:47:06.000Z</time>
      </trkpt>
      <trkpt lat="48.84016" lon="2.40558">
        <ele>94.2</ele>
        <time>2013-03-03T15:47:07.000Z</time>
      </trkpt>
      <trkpt lat="48.84018" lon="2.40554">
        <ele>94.6</ele>
        <time>2013-03-03T15:47:08.000Z</time>
      </trkpt>
      <trkpt lat="48.8402" lon="2.40551">
        <ele>94.4</ele>
        <time>2013-03-03T15:47:09.000Z</time>
      </trkpt>
      <trkpt lat="48.84021" lon="2.40548">
        <ele>95</ele>
        <time>2013-03-03T15:47:10.000Z</time>
      </trkpt>
      <trkpt lat="48.84024" lon="2.40544">
        <ele>94.9</ele>
        <time>2013-03-03T15:47:11.000Z</time>
      </trkpt>
      <trkpt lat="48.84026" lon="2.40541">
        <ele>94.7</ele>
        <time>2013-03-03T15:47:12.000Z</time>
      </trkpt>
      <trkpt lat="48.84028" lon="2.40537">
        <ele>95.3</ele>
        <time>2013-03-03T15:47:13.000Z</time>
      </trkpt>
      <trkpt lat="48.84031" lon="2.40533">
        <ele>92.9</ele>
        <time>2013-03-03T15:47:14.000Z</time>
      </trkpt>
      <trkpt lat="48.84033" lon="2.40529">
        <ele>92.9</ele>
        <time>2013-03-03T15:47:15.000Z</time>
      </trkpt>
      <trkpt lat="48.84036" lon="2.40525">
        <ele>92.7</ele>
        <time>2013-03-03T15:47:16.000Z</time>
      </trkpt>
      <trkpt lat="48.84039" lon="2.40522">
        <ele>91.8</ele>
        <time>2013-03-03T15:47:17.000Z</time>
      </trkpt>
      <trkpt lat="48.84041" lon="2.40517">
        <ele>92.5</ele>
        <time>2013-03-03T15:47:18.000Z</time>
      </trkpt>
      <trkpt lat="48.84045" lon="2.40512">
        <ele>92.7</ele>
        <time>2013-03-03T15:47:19.000Z</time>
      </trkpt>
      <trkpt lat="48.84048" lon="2.40507">
        <ele>93.3</ele>
        <time>2013-03-03T15:47:20.000Z</time>
      </trkpt>
      <trkpt lat="48.84051" lon="2.40502">
        <ele>92.6</ele>
        <time>2013-03-03T15:47:21.000Z</time>
      </trkpt>
      <trkpt lat="48.84053" lon="2.40496">
        <ele>93</ele>
        <time>2013-03-03T15:47:22.000Z</time>
      </trkpt>
      <trkpt lat="48.84054" lon="2.40492">
        <ele>92.9</ele>
        <time>2013-03-03T15:47:23.000Z</time>
      </trkpt>
      <trkpt lat="48.84056" lon="2.40487">
        <ele>92.8</ele>
        <time>2013-03-03T15:47:24.000Z</time>
      </trkpt>
      <trkpt lat="48.84057" lon="2.40483">
        <ele>91.7</ele>
        <time>2013-03-03T15:47:25.000Z</time>
      </trkpt>
      <trkpt lat="48.84059" lon="2.40479">
        <ele>91.8</ele>
        <time>2013-03-03T15:47:26.000Z</time>
      </trkpt>
      <trkpt lat="48.84061" lon="2.40475">
        <ele>92.7</ele>
        <time>2013-03-03T15:47:27.000Z</time>
      </trkpt>
      <trkpt lat="48.84062" lon="2.40471">
        <ele>93.1</ele>
        <time>2013-03-03T15:47:28.000Z</time>
      </trkpt>
      <trkpt lat="48.84064" lon="2.40466">
        <ele>92.4</ele>
        <time>2013-03-03T15:47:29.000Z</time>
      </trkpt>
      <trkpt lat="48.84067" lon="2.40456">
        <ele>93.1</ele>
        <time>2013-03-03T15:47:30.954Z</time>
      </trkpt>
      <trkpt lat="48.84068" lon="2.40449">
        <ele>93.3</ele>
        <time>2013-03-03T15:47:32.000Z</time>
      </trkpt>
      <trkpt lat="48.8407" lon="2.40443">
        <ele>93.4</ele>
        <time>2013-03-03T15:47:33.000Z</time>
      </trkpt>
      <trkpt lat="48.84072" lon="2.40438">
        <ele>93.4</ele>
        <time>2013-03-03T15:47:34.000Z</time>
      </trkpt>
      <trkpt lat="48.84073" lon="2.40432">
        <ele>93</ele>
        <time>2013-03-03T15:47:35.000Z</time>
      </trkpt>
      <trkpt lat="48.84073" lon="2.40427">
        <ele>92</ele>
        <time>2013-03-03T15:47:36.000Z</time>
      </trkpt>
      <trkpt lat="48.84074" lon="2.40422">
        <ele>91.8</ele>
        <time>2013-03-03T15:47:37.000Z</time>
      </trkpt>
      <trkpt lat="48.84074" lon="2.40418">
        <ele>91.4</ele>
        <time>2013-03-03T15:47:38.000Z</time>
      </trkpt>
      <trkpt lat="48.84075" lon="2.40414">
        <ele>91</ele>
        <time>2013-03-03T15:47:39.000Z</time>
      </trkpt>
      <trkpt lat="48.84075" lon="2.40409">
        <ele>90.7</ele>
        <time>2013-03-03T15:47:40.000Z</time>
      </trkpt>
      <trkpt lat="48.84075" lon="2.40405">
        <ele>90.4</ele>
        <time>2013-03-03T15:47:41.000Z</time>
      </trkpt>
      <trkpt lat="48.84076" lon="2.40401">
        <ele>90.3</ele>
        <time>2013-03-03T15:47:42.000Z</time>
      </trkpt>
      <trkpt lat="48.84076" lon="2.40396">
        <ele>90.3</ele>
        <time>2013-03-03T15:47:43.000Z</time>
      </trkpt>
      <trkpt lat="48.84076" lon="2.40391">
        <ele>90.2</ele>
        <time>2013-03-03T15:47:44.000Z</time>
      </trkpt>
      <trkpt lat="48.84077" lon="2.40386">
        <ele>90.3</ele>
        <time>2013-03-03T15:47:45.000Z</time>
      </trkpt>
      <trkpt lat="48.84078" lon="2.40381">
        <ele>90.7</ele>
        <time>2013-03-03T15:47:46.000Z</time>
      </trkpt>
      <trkpt lat="48.84078" lon="2.40376">
        <ele>90.2</ele>
        <time>2013-03-03T15:47:47.000Z</time>
      </trkpt>
      <trkpt lat="48.84079" lon="2.40371">
        <ele>90.5</ele>
        <time>2013-03-03T15:47:48.000Z</time>
      </trkpt>
      <trkpt lat="48.8408" lon="2.40365">
        <ele>89.9</ele>
        <time>2013-03-03T15:47:49.000Z</time>
      </trkpt>
      <trkpt lat="48.84081" lon="2.4036">
        <ele>89.7</ele>
        <time>2013-03-03T15:47:50.000Z</time>
      </trkpt>
      <trkpt lat="48.84081" lon="2.40355">
        <ele>89.5</ele>
        <time>2013-03-03T15:47:51.000Z</time>
      </trkpt>
      <trkpt lat="48.84082" lon="2.4035">
        <ele>89.7</ele>
        <time>2013-03-03T15:47:52.000Z</time>
      </trkpt>
      <trkpt lat="48.84083" lon="2.40346">
        <ele>90.1</ele>
        <time>2013-03-03T15:47:53.000Z</time>
      </trkpt>
      <trkpt lat="48.84083" lon="2.40342">
        <ele>90.5</ele>
        <time>2013-03-03T15:47:54.000Z</time>
      </trkpt>
      <trkpt lat="48.84083" lon="2.40339">
        <ele>90.8</ele>
        <time>2013-03-03T15:47:55.000Z</time>
      </trkpt>
      <trkpt lat="48.84084" lon="2.40335">
        <ele>91.3</ele>
        <time>2013-03-03T15:47:56.000Z</time>
      </trkpt>
      <trkpt lat="48.84084" lon="2.40332">
        <ele>90.6</ele>
        <time>2013-03-03T15:47:57.000Z</time>
      </trkpt>
      <trkpt lat="48.84084" lon="2.40325">
        <ele>91.5</ele>
        <time>2013-03-03T15:47:59.000Z</time>
      </trkpt>
      <trkpt lat="48.84084" lon="2.40322">
        <ele>91.1</ele>
        <time>2013-03-03T15:48:00.000Z</time>
      </trkpt>
      <trkpt lat="48.84083" lon="2.40316">
        <ele>89.6</ele>
        <time>2013-03-03T15:48:03.000Z</time>
      </trkpt>
      <trkpt lat="48.84083" lon="2.40313">
        <ele>89.1</ele>
        <time>2013-03-03T15:48:04.000Z</time>
      </trkpt>
      <trkpt lat="48.84084" lon="2.4031">
        <ele>88.9</ele>
        <time>2013-03-03T15:48:05.000Z</time>
      </trkpt>
      <trkpt lat="48.84084" lon="2.40305">
        <ele>88.9</ele>
        <time>2013-03-03T15:48:06.000Z</time>
      </trkpt>
      <trkpt lat="48.84086" lon="2.40301">
        <ele>87.9</ele>
        <time>2013-03-03T15:48:07.000Z</time>
      </trkpt>
      <trkpt lat="48.84087" lon="2.40297">
        <ele>87.9</ele>
        <time>2013-03-03T15:48:08.000Z</time>
      </trkpt>
      <trkpt lat="48.84087" lon="2.40293">
        <ele>87.7</ele>
        <time>2013-03-03T15:48:09.000Z</time>
      </trkpt>
      <trkpt lat="48.84088" lon="2.40289">
        <ele>88.1</ele>
        <time>2013-03-03T15:48:10.000Z</time>
      </trkpt>
      <trkpt lat="48.84089" lon="2.40285">
        <ele>87.9</ele>
        <time>2013-03-03T15:48:11.000Z</time>
      </trkpt>
      <trkpt lat="48.8409" lon="2.4028">
        <ele>87.7</ele>
        <time>2013-03-03T15:48:12.000Z</time>
      </trkpt>
      <trkpt lat="48.8409" lon="2.40276">
        <ele>88</ele>
        <time>2013-03-03T15:48:13.000Z</time>
      </trkpt>
      <trkpt lat="48.84091" lon="2.40271">
        <ele>89.5</ele>
        <time>2013-03-03T15:48:14.000Z</time>
      </trkpt>
      <trkpt lat="48.84091" lon="2.40267">
        <ele>88.5</ele>
        <time>2013-03-03T15:48:15.000Z</time>
      </trkpt>
      <trkpt lat="48.84092" lon="2.40263">
        <ele>88</ele>
        <time>2013-03-03T15:48:16.000Z</time>
      </trkpt>
      <trkpt lat="48.84093" lon="2.40259">
        <ele>87.7</ele>
        <time>2013-03-03T15:48:17.000Z</time>
      </trkpt>
      <trkpt lat="48.84094" lon="2.40255">
        <ele>87.4</ele>
        <time>2013-03-03T15:48:18.000Z</time>
      </trkpt>
      <trkpt lat="48.84094" lon="2.40251">
        <ele>86.3</ele>
        <time>2013-03-03T15:48:19.000Z</time>
      </trkpt>
      <trkpt lat="48.84095" lon="2.40247">
        <ele>86.4</ele>
        <time>2013-03-03T15:48:20.000Z</time>
      </trkpt>
      <trkpt lat="48.84095" lon="2.40241">
        <ele>87.2</ele>
        <time>2013-03-03T15:48:22.000Z</time>
      </trkpt>
      <trkpt lat="48.84095" lon="2.40238">
        <ele>87</ele>
        <time>2013-03-03T15:48:23.000Z</time>
      </trkpt>
      <trkpt lat="48.84096" lon="2.40235">
        <ele>86.6</ele>
        <time>2013-03-03T15:48:24.000Z</time>
      </trkpt>
      <trkpt lat="48.84096" lon="2.40231">
        <ele>86.5</ele>
        <time>2013-03-03T15:48:25.000Z</time>
      </trkpt>
      <trkpt lat="48.84097" lon="2.40226">
        <ele>86.4</ele>
        <time>2013-03-03T15:48:26.000Z</time>
      </trkpt>
      <trkpt lat="48.84097" lon="2.40222">
        <ele>83.8</ele>
        <time>2013-03-03T15:48:27.000Z</time>
      </trkpt>
      <trkpt lat="48.84098" lon="2.40217">
        <ele>82.8</ele>
        <time>2013-03-03T15:48:28.000Z</time>
      </trkpt>
      <trkpt lat="48.84099" lon="2.40212">
        <ele>83.2</ele>
        <time>2013-03-03T15:48:29.000Z</time>
      </trkpt>
      <trkpt lat="48.84101" lon="2.40197">
        <ele>82.6</ele>
        <time>2013-03-03T15:48:32.000Z</time>
      </trkpt>
      <trkpt lat="48.84101" lon="2.40191">
        <ele>82.3</ele>
        <time>2013-03-03T15:48:33.000Z</time>
      </trkpt>
      <trkpt lat="48.84101" lon="2.40185">
        <ele>82.1</ele>
        <time>2013-03-03T15:48:34.000Z</time>
      </trkpt>
      <trkpt lat="48.84102" lon="2.40179">
        <ele>81.3</ele>
        <time>2013-03-03T15:48:35.000Z</time>
      </trkpt>
      <trkpt lat="48.84102" lon="2.40174">
        <ele>80.7</ele>
        <time>2013-03-03T15:48:36.000Z</time>
      </trkpt>
      <trkpt lat="48.84101" lon="2.40168">
        <ele>80.8</ele>
        <time>2013-03-03T15:48:37.000Z</time>
      </trkpt>
      <trkpt lat="48.84101" lon="2.40162">
        <ele>80.8</ele>
        <time>2013-03-03T15:48:38.000Z</time>
      </trkpt>
      <trkpt lat="48.84101" lon="2.40155">
        <ele>80.4</ele>
        <time>2013-03-03T15:48:39.000Z</time>
      </trkpt>
      <trkpt lat="48.84101" lon="2.40149">
        <ele>80</ele>
        <time>2013-03-03T15:48:40.000Z</time>
      </trkpt>
      <trkpt lat="48.84101" lon="2.40142">
        <ele>79.7</ele>
        <time>2013-03-03T15:48:41.000Z</time>
      </trkpt>
      <trkpt lat="48.84101" lon="2.40136">
        <ele>79.2</ele>
        <time>2013-03-03T15:48:42.000Z</time>
      </trkpt>
      <trkpt lat="48.84101" lon="2.4013">
        <ele>78.6</ele>
        <time>2013-03-03T15:48:43.000Z</time>
      </trkpt>
      <trkpt lat="48.84101" lon="2.40125">
        <ele>78.6</ele>
        <time>2013-03-03T15:48:44.000Z</time>
      </trkpt>
      <trkpt lat="48.84101" lon="2.4012">
        <ele>78.6</ele>
        <time>2013-03-03T15:48:45.000Z</time>
      </trkpt>
      <trkpt lat="48.84101" lon="2.40116">
        <ele>78.6</ele>
        <time>2013-03-03T15:48:46.000Z</time>
      </trkpt>
      <trkpt lat="48.84101" lon="2.40112">
        <ele>78.6</ele>
        <time>2013-03-03T15:48:47.000Z</time>
      </trkpt>
      <trkpt lat="48.84104" lon="2.40067">
        <ele>77.5</ele>
        <time>2013-03-03T15:48:55.000Z</time>
      </trkpt>
      <trkpt lat="48.84102" lon="2.40057">
        <ele>78</ele>
        <time>2013-03-03T15:48:56.000Z</time>
      </trkpt>
      <trkpt lat="48.84099" lon="2.40046">
        <ele>79.4</ele>
        <time>2013-03-03T15:48:57.000Z</time>
      </trkpt>
      <trkpt lat="48.84095" lon="2.40025">
        <ele>79.4</ele>
        <time>2013-03-03T15:48:58.000Z</time>
      </trkpt>
      <trkpt lat="48.84093" lon="2.4001">
        <ele>79.9</ele>
        <time>2013-03-03T15:48:59.000Z</time>
      </trkpt>
      <trkpt lat="48.84093" lon="2.40009">
        <ele>79.5</ele>
        <time>2013-03-03T15:49:00.000Z</time>
      </trkpt>
      <trkpt lat="48.84094" lon="2.40002">
        <ele>78.6</ele>
        <time>2013-03-03T15:49:01.000Z</time>
      </trkpt>
      <trkpt lat="48.84095" lon="2.39999">
        <ele>78.7</ele>
        <time>2013-03-03T15:49:02.000Z</time>
      </trkpt>
      <trkpt lat="48.84096" lon="2.39996">
        <ele>77.7</ele>
        <time>2013-03-03T15:49:03.000Z</time>
      </trkpt>
      <trkpt lat="48.84099" lon="2.39991">
        <ele>78.2</ele>
        <time>2013-03-03T15:49:04.000Z</time>
      </trkpt>
      <trkpt lat="48.84099" lon="2.39985">
        <ele>78.4</ele>
        <time>2013-03-03T15:49:05.000Z</time>
      </trkpt>
      <trkpt lat="48.84101" lon="2.39978">
        <ele>79.2</ele>
        <time>2013-03-03T15:49:06.000Z</time>
      </trkpt>
      <trkpt lat="48.84103" lon="2.39974">
        <ele>79.8</ele>
        <time>2013-03-03T15:49:07.000Z</time>
      </trkpt>
      <trkpt lat="48.84105" lon="2.39974">
        <ele>79.5</ele>
        <time>2013-03-03T15:49:08.000Z</time>
      </trkpt>
      <trkpt lat="48.84105" lon="2.3997">
        <ele>80.9</ele>
        <time>2013-03-03T15:49:10.000Z</time>
      </trkpt>
      <trkpt lat="48.84105" lon="2.39967">
        <ele>81.8</ele>
        <time>2013-03-03T15:49:11.000Z</time>
      </trkpt>
      <trkpt lat="48.84104" lon="2.39961">
        <ele>81.8</ele>
        <time>2013-03-03T15:49:13.000Z</time>
      </trkpt>
      <trkpt lat="48.84113" lon="2.3988">
        <ele>84.8</ele>
        <time>2013-03-03T15:49:25.000Z</time>
      </trkpt>
      <trkpt lat="48.84112" lon="2.39872">
        <ele>83.8</ele>
        <time>2013-03-03T15:49:26.000Z</time>
      </trkpt>
      <trkpt lat="48.84111" lon="2.39863">
        <ele>82.1</ele>
        <time>2013-03-03T15:49:27.000Z</time>
      </trkpt>
      <trkpt lat="48.8411" lon="2.39855">
        <ele>81.2</ele>
        <time>2013-03-03T15:49:28.000Z</time>
      </trkpt>
      <trkpt lat="48.84111" lon="2.39847">
        <ele>80.4</ele>
        <time>2013-03-03T15:49:29.000Z</time>
      </trkpt>
      <trkpt lat="48.84111" lon="2.39833">
        <ele>80.8</ele>
        <time>2013-03-03T15:49:30.853Z</time>
      </trkpt>
      <trkpt lat="48.8411" lon="2.39826">
        <ele>80.2</ele>
        <time>2013-03-03T15:49:32.000Z</time>
      </trkpt>
      <trkpt lat="48.8411" lon="2.3982">
        <ele>79.9</ele>
        <time>2013-03-03T15:49:33.000Z</time>
      </trkpt>
      <trkpt lat="48.84109" lon="2.39814">
        <ele>80.1</ele>
        <time>2013-03-03T15:49:34.000Z</time>
      </trkpt>
      <trkpt lat="48.8411" lon="2.39808">
        <ele>81</ele>
        <time>2013-03-03T15:49:35.000Z</time>
      </trkpt>
      <trkpt lat="48.84111" lon="2.39802">
        <ele>82.1</ele>
        <time>2013-03-03T15:49:36.000Z</time>
      </trkpt>
      <trkpt lat="48.84112" lon="2.39796">
        <ele>82.3</ele>
        <time>2013-03-03T15:49:37.000Z</time>
      </trkpt>
      <trkpt lat="48.84113" lon="2.39789">
        <ele>80.8</ele>
        <time>2013-03-03T15:49:38.000Z</time>
      </trkpt>
      <trkpt lat="48.84113" lon="2.39782">
        <ele>80.5</ele>
        <time>2013-03-03T15:49:39.000Z</time>
      </trkpt>
      <trkpt lat="48.84113" lon="2.39776">
        <ele>80.7</ele>
        <time>2013-03-03T15:49:40.000Z</time>
      </trkpt>
      <trkpt lat="48.84113" lon="2.3977">
        <ele>81.9</ele>
        <time>2013-03-03T15:49:41.000Z</time>
      </trkpt>
      <trkpt lat="48.84113" lon="2.39764">
        <ele>82.6</ele>
        <time>2013-03-03T15:49:42.000Z</time>
      </trkpt>
      <trkpt lat="48.84113" lon="2.3976">
        <ele>81.9</ele>
        <time>2013-03-03T15:49:43.000Z</time>
      </trkpt>
      <trkpt lat="48.84113" lon="2.39756">
        <ele>81.6</ele>
        <time>2013-03-03T15:49:44.000Z</time>
      </trkpt>
      <trkpt lat="48.84113" lon="2.39751">
        <ele>83</ele>
        <time>2013-03-03T15:49:45.000Z</time>
      </trkpt>
      <trkpt lat="48.84113" lon="2.39747">
        <ele>82.1</ele>
        <time>2013-03-03T15:49:46.000Z</time>
      </trkpt>
      <trkpt lat="48.84114" lon="2.39742">
        <ele>81.9</ele>
        <time>2013-03-03T15:49:47.000Z</time>
      </trkpt>
      <trkpt lat="48.84114" lon="2.39738">
        <ele>80.9</ele>
        <time>2013-03-03T15:49:48.000Z</time>
      </trkpt>
      <trkpt lat="48.84114" lon="2.39734">
        <ele>82.5</ele>
        <time>2013-03-03T15:49:49.000Z</time>
      </trkpt>
      <trkpt lat="48.84114" lon="2.39729">
        <ele>83.8</ele>
        <time>2013-03-03T15:49:50.000Z</time>
      </trkpt>
      <trkpt lat="48.84115" lon="2.39723">
        <ele>84.6</ele>
        <time>2013-03-03T15:49:52.000Z</time>
      </trkpt>
      <trkpt lat="48.84115" lon="2.39719">
        <ele>85.3</ele>
        <time>2013-03-03T15:49:53.000Z</time>
      </trkpt>
      <trkpt lat="48.84115" lon="2.39716">
        <ele>85.3</ele>
        <time>2013-03-03T15:49:54.000Z</time>
      </trkpt>
      <trkpt lat="48.84116" lon="2.39712">
        <ele>85.4</ele>
        <time>2013-03-03T15:49:55.000Z</time>
      </trkpt>
      <trkpt lat="48.84116" lon="2.39707">
        <ele>84.9</ele>
        <time>2013-03-03T15:49:56.000Z</time>
      </trkpt>
      <trkpt lat="48.84116" lon="2.39702">
        <ele>84.9</ele>
        <time>2013-03-03T15:49:57.000Z</time>
      </trkpt>
      <trkpt lat="48.84116" lon="2.39696">
        <ele>83.7</ele>
        <time>2013-03-03T15:49:58.000Z</time>
      </trkpt>
      <trkpt lat="48.84116" lon="2.3969">
        <ele>83.2</ele>
        <time>2013-03-03T15:49:59.000Z</time>
      </trkpt>
      <trkpt lat="48.84116" lon="2.39684">
        <ele>82.9</ele>
        <time>2013-03-03T15:50:00.000Z</time>
      </trkpt>
      <trkpt lat="48.84117" lon="2.39679">
        <ele>82.7</ele>
        <time>2013-03-03T15:50:01.000Z</time>
      </trkpt>
      <trkpt lat="48.84117" lon="2.39674">
        <ele>82.6</ele>
        <time>2013-03-03T15:50:02.000Z</time>
      </trkpt>
      <trkpt lat="48.84118" lon="2.39669">
        <ele>83.5</ele>
        <time>2013-03-03T15:50:03.000Z</time>
      </trkpt>
      <trkpt lat="48.84119" lon="2.39664">
        <ele>84.4</ele>
        <time>2013-03-03T15:50:04.000Z</time>
      </trkpt>
      <trkpt lat="48.8412" lon="2.39658">
        <ele>84.7</ele>
        <time>2013-03-03T15:50:05.000Z</time>
      </trkpt>
      <trkpt lat="48.84121" lon="2.39653">
        <ele>84.9</ele>
        <time>2013-03-03T15:50:06.000Z</time>
      </trkpt>
      <trkpt lat="48.84122" lon="2.39648">
        <ele>84.3</ele>
        <time>2013-03-03T15:50:07.000Z</time>
      </trkpt>
      <trkpt lat="48.84124" lon="2.39643">
        <ele>85.1</ele>
        <time>2013-03-03T15:50:08.000Z</time>
      </trkpt>
      <trkpt lat="48.84124" lon="2.39637">
        <ele>86.5</ele>
        <time>2013-03-03T15:50:09.000Z</time>
      </trkpt>
      <trkpt lat="48.84124" lon="2.3963">
        <ele>86.1</ele>
        <time>2013-03-03T15:50:10.000Z</time>
      </trkpt>
      <trkpt lat="48.84124" lon="2.39624">
        <ele>86.5</ele>
        <time>2013-03-03T15:50:11.000Z</time>
      </trkpt>
      <trkpt lat="48.84123" lon="2.39618">
        <ele>85.7</ele>
        <time>2013-03-03T15:50:12.000Z</time>
      </trkpt>
      <trkpt lat="48.84122" lon="2.39611">
        <ele>86</ele>
        <time>2013-03-03T15:50:13.000Z</time>
      </trkpt>
      <trkpt lat="48.8412" lon="2.39606">
        <ele>85.6</ele>
        <time>2013-03-03T15:50:14.000Z</time>
      </trkpt>
      <trkpt lat="48.84119" lon="2.396">
        <ele>84.8</ele>
        <time>2013-03-03T15:50:15.000Z</time>
      </trkpt>
      <trkpt lat="48.84118" lon="2.39594">
        <ele>85.2</ele>
        <time>2013-03-03T15:50:16.000Z</time>
      </trkpt>
      <trkpt lat="48.84117" lon="2.39588">
        <ele>84.8</ele>
        <time>2013-03-03T15:50:17.000Z</time>
      </trkpt>
      <trkpt lat="48.84117" lon="2.39579">
        <ele>85</ele>
        <time>2013-03-03T15:50:18.000Z</time>
      </trkpt>
      <trkpt lat="48.84116" lon="2.3957">
        <ele>85</ele>
        <time>2013-03-03T15:50:19.000Z</time>
      </trkpt>
      <trkpt lat="48.84114" lon="2.39547">
        <ele>85.5</ele>
        <time>2013-03-03T15:50:20.000Z</time>
      </trkpt>
      <trkpt lat="48.84113" lon="2.39541">
        <ele>84.9</ele>
        <time>2013-03-03T15:50:21.000Z</time>
      </trkpt>
      <trkpt lat="48.84112" lon="2.39532">
        <ele>85.5</ele>
        <time>2013-03-03T15:50:22.000Z</time>
      </trkpt>
      <trkpt lat="48.84112" lon="2.39525">
        <ele>85.3</ele>
        <time>2013-03-03T15:50:23.000Z</time>
      </trkpt>
      <trkpt lat="48.84111" lon="2.39518">
        <ele>85.3</ele>
        <time>2013-03-03T15:50:24.000Z</time>
      </trkpt>
      <trkpt lat="48.8411" lon="2.3951">
        <ele>85.3</ele>
        <time>2013-03-03T15:50:25.000Z</time>
      </trkpt>
      <trkpt lat="48.8411" lon="2.39503">
        <ele>85.3</ele>
        <time>2013-03-03T15:50:26.000Z</time>
      </trkpt>
      <trkpt lat="48.84109" lon="2.39496">
        <ele>85.3</ele>
        <time>2013-03-03T15:50:27.000Z</time>
      </trkpt>
      <trkpt lat="48.84087" lon="2.39319">
        <ele>87</ele>
        <time>2013-03-03T15:50:47.000Z</time>
      </trkpt>
      <trkpt lat="48.84095" lon="2.39312">
        <ele>87.1</ele>
        <time>2013-03-03T15:50:48.000Z</time>
      </trkpt>
      <trkpt lat="48.84098" lon="2.39308">
        <ele>86.8</ele>
        <time>2013-03-03T15:50:49.000Z</time>
      </trkpt>
      <trkpt lat="48.84101" lon="2.393">
        <ele>86.8</ele>
        <time>2013-03-03T15:50:50.000Z</time>
      </trkpt>
      <trkpt lat="48.841" lon="2.39292">
        <ele>87.9</ele>
        <time>2013-03-03T15:50:51.000Z</time>
      </trkpt>
      <trkpt lat="48.84096" lon="2.39285">
        <ele>86.8</ele>
        <time>2013-03-03T15:50:52.000Z</time>
      </trkpt>
      <trkpt lat="48.84097" lon="2.39279">
        <ele>87.2</ele>
        <time>2013-03-03T15:50:53.000Z</time>
      </trkpt>
      <trkpt lat="48.84098" lon="2.39274">
        <ele>86.5</ele>
        <time>2013-03-03T15:50:54.000Z</time>
      </trkpt>
      <trkpt lat="48.84098" lon="2.39269">
        <ele>86.7</ele>
        <time>2013-03-03T15:50:56.000Z</time>
      </trkpt>
      <trkpt lat="48.841" lon="2.39268">
        <ele>88.5</ele>
        <time>2013-03-03T15:50:57.000Z</time>
      </trkpt>
      <trkpt lat="48.84103" lon="2.39269">
        <ele>86.7</ele>
        <time>2013-03-03T15:50:58.000Z</time>
      </trkpt>
      <trkpt lat="48.84105" lon="2.39267">
        <ele>87.6</ele>
        <time>2013-03-03T15:50:59.000Z</time>
      </trkpt>
      <trkpt lat="48.84108" lon="2.39266">
        <ele>87.9</ele>
        <time>2013-03-03T15:53:01.000Z</time>
      </trkpt>
      <trkpt lat="48.84109" lon="2.39263">
        <ele>88</ele>
        <time>2013-03-03T15:53:02.000Z</time>
      </trkpt>
      <trkpt lat="48.8411" lon="2.39259">
        <ele>86.2</ele>
        <time>2013-03-03T15:53:03.000Z</time>
      </trkpt>
      <trkpt lat="48.84112" lon="2.39253">
        <ele>85.9</ele>
        <time>2013-03-03T15:53:04.000Z</time>
      </trkpt>
      <trkpt lat="48.84114" lon="2.39249">
        <ele>85.2</ele>
        <time>2013-03-03T15:53:05.000Z</time>
      </trkpt>
      <trkpt lat="48.84116" lon="2.39246">
        <ele>85.1</ele>
        <time>2013-03-03T15:53:06.000Z</time>
      </trkpt>
      <trkpt lat="48.84117" lon="2.39242">
        <ele>83.9</ele>
        <time>2013-03-03T15:53:07.000Z</time>
      </trkpt>
      <trkpt lat="48.84118" lon="2.39238">
        <ele>81.2</ele>
        <time>2013-03-03T15:53:08.000Z</time>
      </trkpt>
      <trkpt lat="48.8412" lon="2.39234">
        <ele>81.6</ele>
        <time>2013-03-03T15:53:09.000Z</time>
      </trkpt>
      <trkpt lat="48.84121" lon="2.3923">
        <ele>82</ele>
        <time>2013-03-03T15:53:10.000Z</time>
      </trkpt>
      <trkpt lat="48.84123" lon="2.39226">
        <ele>81.9</ele>
        <time>2013-03-03T15:53:11.000Z</time>
      </trkpt>
      <trkpt lat="48.84124" lon="2.39222">
        <ele>82.1</ele>
        <time>2013-03-03T15:53:12.000Z</time>
      </trkpt>
      <trkpt lat="48.84126" lon="2.39218">
        <ele>82.4</ele>
        <time>2013-03-03T15:53:13.000Z</time>
      </trkpt>
      <trkpt lat="48.84127" lon="2.39213">
        <ele>82.4</ele>
        <time>2013-03-03T15:53:14.000Z</time>
      </trkpt>
      <trkpt lat="48.84129" lon="2.39208">
        <ele>82.4</ele>
        <time>2013-03-03T15:53:15.000Z</time>
      </trkpt>
      <trkpt lat="48.84131" lon="2.39204">
        <ele>82.4</ele>
        <time>2013-03-03T15:53:16.000Z</time>
      </trkpt>
      <trkpt lat="48.84132" lon="2.39198">
        <ele>83.6</ele>
        <time>2013-03-03T15:53:17.000Z</time>
      </trkpt>
      <trkpt lat="48.84133" lon="2.39193">
        <ele>83.6</ele>
        <time>2013-03-03T15:53:18.000Z</time>
      </trkpt>
      <trkpt lat="48.84134" lon="2.39188">
        <ele>84.6</ele>
        <time>2013-03-03T15:53:19.000Z</time>
      </trkpt>
      <trkpt lat="48.84135" lon="2.39183">
        <ele>83.7</ele>
        <time>2013-03-03T15:53:20.000Z</time>
      </trkpt>
      <trkpt lat="48.84136" lon="2.39178">
        <ele>83.5</ele>
        <time>2013-03-03T15:53:21.000Z</time>
      </trkpt>
      <trkpt lat="48.84138" lon="2.39173">
        <ele>83.8</ele>
        <time>2013-03-03T15:53:22.000Z</time>
      </trkpt>
      <trkpt lat="48.84139" lon="2.39168">
        <ele>82.8</ele>
        <time>2013-03-03T15:53:23.000Z</time>
      </trkpt>
      <trkpt lat="48.84141" lon="2.39163">
        <ele>82.3</ele>
        <time>2013-03-03T15:53:24.000Z</time>
      </trkpt>
      <trkpt lat="48.84142" lon="2.39159">
        <ele>81.3</ele>
        <time>2013-03-03T15:53:25.000Z</time>
      </trkpt>
      <trkpt lat="48.84143" lon="2.39154">
        <ele>82.2</ele>
        <time>2013-03-03T15:53:26.000Z</time>
      </trkpt>
      <trkpt lat="48.84144" lon="2.39148">
        <ele>81.8</ele>
        <time>2013-03-03T15:53:27.000Z</time>
      </trkpt>
      <trkpt lat="48.84145" lon="2.39142">
        <ele>82.1</ele>
        <time>2013-03-03T15:53:28.000Z</time>
      </trkpt>
      <trkpt lat="48.84145" lon="2.39136">
        <ele>80.3</ele>
        <time>2013-03-03T15:53:29.000Z</time>
      </trkpt>
      <trkpt lat="48.84148" lon="2.39123">
        <ele>79.4</ele>
        <time>2013-03-03T15:53:30.922Z</time>
      </trkpt>
      <trkpt lat="48.84149" lon="2.39117">
        <ele>78.9</ele>
        <time>2013-03-03T15:53:32.000Z</time>
      </trkpt>
      <trkpt lat="48.8415" lon="2.39112">
        <ele>78.7</ele>
        <time>2013-03-03T15:53:33.000Z</time>
      </trkpt>
      <trkpt lat="48.84151" lon="2.39105">
        <ele>79.8</ele>
        <time>2013-03-03T15:53:34.000Z</time>
      </trkpt>
      <trkpt lat="48.84151" lon="2.39099">
        <ele>80.4</ele>
        <time>2013-03-03T15:53:35.000Z</time>
      </trkpt>
      <trkpt lat="48.84153" lon="2.39093">
        <ele>80.5</ele>
        <time>2013-03-03T15:53:36.000Z</time>
      </trkpt>
      <trkpt lat="48.84154" lon="2.39086">
        <ele>80.3</ele>
        <time>2013-03-03T15:53:37.000Z</time>
      </trkpt>
      <trkpt lat="48.84156" lon="2.3908">
        <ele>80.5</ele>
        <time>2013-03-03T15:53:38.000Z</time>
      </trkpt>
      <trkpt lat="48.84158" lon="2.39074">
        <ele>80.2</ele>
        <time>2013-03-03T15:53:39.000Z</time>
      </trkpt>
      <trkpt lat="48.8416" lon="2.39068">
        <ele>80.4</ele>
        <time>2013-03-03T15:53:40.000Z</time>
      </trkpt>
      <trkpt lat="48.84161" lon="2.39061">
        <ele>81.2</ele>
        <time>2013-03-03T15:53:41.000Z</time>
      </trkpt>
      <trkpt lat="48.84162" lon="2.39054">
        <ele>81</ele>
        <time>2013-03-03T15:53:42.000Z</time>
      </trkpt>
      <trkpt lat="48.84163" lon="2.39046">
        <ele>80.3</ele>
        <time>2013-03-03T15:53:43.000Z</time>
      </trkpt>
      <trkpt lat="48.84164" lon="2.39039">
        <ele>79.4</ele>
        <time>2013-03-03T15:53:44.000Z</time>
      </trkpt>
      <trkpt lat="48.84165" lon="2.39033">
        <ele>79.8</ele>
        <time>2013-03-03T15:53:45.000Z</time>
      </trkpt>
      <trkpt lat="48.84166" lon="2.39028">
        <ele>80.3</ele>
        <time>2013-03-03T15:53:46.000Z</time>
      </trkpt>
      <trkpt lat="48.84167" lon="2.39022">
        <ele>82.5</ele>
        <time>2013-03-03T15:53:47.000Z</time>
      </trkpt>
      <trkpt lat="48.84169" lon="2.39017">
        <ele>83.6</ele>
        <time>2013-03-03T15:53:48.000Z</time>
      </trkpt>
      <trkpt lat="48.8417" lon="2.39011">
        <ele>85.2</ele>
        <time>2013-03-03T15:53:49.000Z</time>
      </trkpt>
      <trkpt lat="48.84171" lon="2.39005">
        <ele>84.2</ele>
        <time>2013-03-03T15:53:50.000Z</time>
      </trkpt>
      <trkpt lat="48.84172" lon="2.38998">
        <ele>85.2</ele>
        <time>2013-03-03T15:53:51.000Z</time>
      </trkpt>
      <trkpt lat="48.84173" lon="2.38992">
        <ele>85.2</ele>
        <time>2013-03-03T15:53:52.000Z</time>
      </trkpt>
      <trkpt lat="48.84175" lon="2.38986">
        <ele>85.1</ele>
        <time>2013-03-03T15:53:53.000Z</time>
      </trkpt>
      <trkpt lat="48.84176" lon="2.38981">
        <ele>85.3</ele>
        <time>2013-03-03T15:53:54.000Z</time>
      </trkpt>
      <trkpt lat="48.84177" lon="2.38977">
        <ele>85.4</ele>
        <time>2013-03-03T15:53:55.000Z</time>
      </trkpt>
      <trkpt lat="48.84179" lon="2.38972">
        <ele>85.6</ele>
        <time>2013-03-03T15:53:56.000Z</time>
      </trkpt>
      <trkpt lat="48.8418" lon="2.38967">
        <ele>85.7</ele>
        <time>2013-03-03T15:53:57.000Z</time>
      </trkpt>
      <trkpt lat="48.84181" lon="2.38962">
        <ele>85.2</ele>
        <time>2013-03-03T15:53:58.000Z</time>
      </trkpt>
      <trkpt lat="48.84181" lon="2.38957">
        <ele>86.2</ele>
        <time>2013-03-03T15:53:59.000Z</time>
      </trkpt>
      <trkpt lat="48.84181" lon="2.38952">
        <ele>86.2</ele>
        <time>2013-03-03T15:54:00.000Z</time>
      </trkpt>
      <trkpt lat="48.84181" lon="2.38948">
        <ele>83.2</ele>
        <time>2013-03-03T15:54:01.000Z</time>
      </trkpt>
      <trkpt lat="48.8418" lon="2.38944">
        <ele>83.4</ele>
        <time>2013-03-03T15:54:02.000Z</time>
      </trkpt>
      <trkpt lat="48.84179" lon="2.3894">
        <ele>83.2</ele>
        <time>2013-03-03T15:54:03.000Z</time>
      </trkpt>
      <trkpt lat="48.84176" lon="2.38937">
        <ele>82.9</ele>
        <time>2013-03-03T15:54:04.000Z</time>
      </trkpt>
      <trkpt lat="48.84173" lon="2.38934">
        <ele>82.9</ele>
        <time>2013-03-03T15:54:05.000Z</time>
      </trkpt>
      <trkpt lat="48.84168" lon="2.38932">
        <ele>82.5</ele>
        <time>2013-03-03T15:54:06.000Z</time>
      </trkpt>
      <trkpt lat="48.84164" lon="2.3893">
        <ele>82.7</ele>
        <time>2013-03-03T15:54:07.000Z</time>
      </trkpt>
      <trkpt lat="48.84159" lon="2.38929">
        <ele>83.1</ele>
        <time>2013-03-03T15:54:08.000Z</time>
      </trkpt>
      <trkpt lat="48.84155" lon="2.38928">
        <ele>83.2</ele>
        <time>2013-03-03T15:54:09.000Z</time>
      </trkpt>
      <trkpt lat="48.8415" lon="2.38926">
        <ele>82.8</ele>
        <time>2013-03-03T15:54:10.000Z</time>
      </trkpt>
      <trkpt lat="48.84146" lon="2.38924">
        <ele>82.8</ele>
        <time>2013-03-03T15:54:11.000Z</time>
      </trkpt>
      <trkpt lat="48.84141" lon="2.38922">
        <ele>83.2</ele>
        <time>2013-03-03T15:54:12.000Z</time>
      </trkpt>
      <trkpt lat="48.84137" lon="2.3892">
        <ele>83.9</ele>
        <time>2013-03-03T15:54:13.000Z</time>
      </trkpt>
      <trkpt lat="48.84133" lon="2.38917">
        <ele>84.3</ele>
        <time>2013-03-03T15:54:14.000Z</time>
      </trkpt>
      <trkpt lat="48.84129" lon="2.38916">
        <ele>84.9</ele>
        <time>2013-03-03T15:54:15.000Z</time>
      </trkpt>
      <trkpt lat="48.84125" lon="2.38914">
        <ele>85.2</ele>
        <time>2013-03-03T15:54:16.000Z</time>
      </trkpt>
      <trkpt lat="48.84121" lon="2.38912">
        <ele>85.7</ele>
        <time>2013-03-03T15:54:17.000Z</time>
      </trkpt>
      <trkpt lat="48.84118" lon="2.38909">
        <ele>85.2</ele>
        <time>2013-03-03T15:54:18.000Z</time>
      </trkpt>
      <trkpt lat="48.84116" lon="2.38906">
        <ele>85.2</ele>
        <time>2013-03-03T15:54:19.000Z</time>
      </trkpt>
      <trkpt lat="48.84114" lon="2.38902">
        <ele>85.6</ele>
        <time>2013-03-03T15:54:20.000Z</time>
      </trkpt>
      <trkpt lat="48.84113" lon="2.38897">
        <ele>85.8</ele>
        <time>2013-03-03T15:54:21.000Z</time>
      </trkpt>
      <trkpt lat="48.84112" lon="2.38891">
        <ele>84.5</ele>
        <time>2013-03-03T15:54:22.000Z</time>
      </trkpt>
      <trkpt lat="48.84113" lon="2.38884">
        <ele>84</ele>
        <time>2013-03-03T15:54:23.000Z</time>
      </trkpt>
      <trkpt lat="48.84115" lon="2.38877">
        <ele>83</ele>
        <time>2013-03-03T15:54:24.000Z</time>
      </trkpt>
      <trkpt lat="48.84125" lon="2.38862">
        <ele>82.6</ele>
        <time>2013-03-03T15:54:25.000Z</time>
      </trkpt>
      <trkpt lat="48.84126" lon="2.38854">
        <ele>82.8</ele>
        <time>2013-03-03T15:54:26.000Z</time>
      </trkpt>
      <trkpt lat="48.84129" lon="2.38846">
        <ele>82.5</ele>
        <time>2013-03-03T15:54:27.000Z</time>
      </trkpt>
      <trkpt lat="48.8413" lon="2.38837">
        <ele>82.7</ele>
        <time>2013-03-03T15:54:28.000Z</time>
      </trkpt>
      <trkpt lat="48.84131" lon="2.38829">
        <ele>82.4</ele>
        <time>2013-03-03T15:54:29.000Z</time>
      </trkpt>
      <trkpt lat="48.84136" lon="2.38806">
        <ele>81.1</ele>
        <time>2013-03-03T15:54:32.000Z</time>
      </trkpt>
      <trkpt lat="48.84138" lon="2.38799">
        <ele>81.3</ele>
        <time>2013-03-03T15:54:33.000Z</time>
      </trkpt>
      <trkpt lat="48.84141" lon="2.38795">
        <ele>80.8</ele>
        <time>2013-03-03T15:54:34.000Z</time>
      </trkpt>
      <trkpt lat="48.84143" lon="2.38786">
        <ele>79.6</ele>
        <time>2013-03-03T15:54:35.000Z</time>
      </trkpt>
      <trkpt lat="48.84146" lon="2.3878">
        <ele>80.8</ele>
        <time>2013-03-03T15:54:36.000Z</time>
      </trkpt>
      <trkpt lat="48.84148" lon="2.38773">
        <ele>80.2</ele>
        <time>2013-03-03T15:54:37.000Z</time>
      </trkpt>
      <trkpt lat="48.8415" lon="2.38767">
        <ele>80.2</ele>
        <time>2013-03-03T15:54:38.000Z</time>
      </trkpt>
      <trkpt lat="48.84151" lon="2.38759">
        <ele>80.6</ele>
        <time>2013-03-03T15:54:39.000Z</time>
      </trkpt>
      <trkpt lat="48.84153" lon="2.38752">
        <ele>80.6</ele>
        <time>2013-03-03T15:54:40.000Z</time>
      </trkpt>
      <trkpt lat="48.84156" lon="2.38749">
        <ele>81</ele>
        <time>2013-03-03T15:54:41.000Z</time>
      </trkpt>
      <trkpt lat="48.84159" lon="2.38747">
        <ele>80.7</ele>
        <time>2013-03-03T15:54:42.000Z</time>
      </trkpt>
      <trkpt lat="48.84159" lon="2.3874">
        <ele>82.1</ele>
        <time>2013-03-03T15:54:43.000Z</time>
      </trkpt>
      <trkpt lat="48.84161" lon="2.38736">
        <ele>82.5</ele>
        <time>2013-03-03T15:54:44.000Z</time>
      </trkpt>
      <trkpt lat="48.84163" lon="2.38732">
        <ele>82.5</ele>
        <time>2013-03-03T15:54:45.000Z</time>
      </trkpt>
      <trkpt lat="48.84165" lon="2.38729">
        <ele>83.3</ele>
        <time>2013-03-03T15:54:46.000Z</time>
      </trkpt>
      <trkpt lat="48.84166" lon="2.38725">
        <ele>84</ele>
        <time>2013-03-03T15:54:47.000Z</time>
      </trkpt>
      <trkpt lat="48.84168" lon="2.38721">
        <ele>83.7</ele>
        <time>2013-03-03T15:54:48.000Z</time>
      </trkpt>
      <trkpt lat="48.8417" lon="2.38717">
        <ele>83.6</ele>
        <time>2013-03-03T15:54:49.000Z</time>
      </trkpt>
      <trkpt lat="48.84172" lon="2.38713">
        <ele>83.4</ele>
        <time>2013-03-03T15:54:50.000Z</time>
      </trkpt>
      <trkpt lat="48.84174" lon="2.38709">
        <ele>83.1</ele>
        <time>2013-03-03T15:54:51.000Z</time>
      </trkpt>
      <trkpt lat="48.84175" lon="2.38705">
        <ele>84.6</ele>
        <time>2013-03-03T15:54:52.000Z</time>
      </trkpt>
      <trkpt lat="48.84177" lon="2.38701">
        <ele>85</ele>
        <time>2013-03-03T15:54:53.000Z</time>
      </trkpt>
      <trkpt lat="48.84179" lon="2.38697">
        <ele>84.9</ele>
        <time>2013-03-03T15:54:54.000Z</time>
      </trkpt>
      <trkpt lat="48.84181" lon="2.38693">
        <ele>83.8</ele>
        <time>2013-03-03T15:54:55.000Z</time>
      </trkpt>
      <trkpt lat="48.84184" lon="2.38689">
        <ele>81.6</ele>
        <time>2013-03-03T15:54:56.000Z</time>
      </trkpt>
      <trkpt lat="48.84186" lon="2.38685">
        <ele>82.9</ele>
        <time>2013-03-03T15:54:57.000Z</time>
      </trkpt>
      <trkpt lat="48.84188" lon="2.38681">
        <ele>82.6</ele>
        <time>2013-03-03T15:54:58.000Z</time>
      </trkpt>
      <trkpt lat="48.8419" lon="2.38677">
        <ele>82.6</ele>
        <time>2013-03-03T15:54:59.000Z</time>
      </trkpt>
      <trkpt lat="48.84192" lon="2.38672">
        <ele>84</ele>
        <time>2013-03-03T15:55:00.000Z</time>
      </trkpt>
      <trkpt lat="48.84194" lon="2.38668">
        <ele>84.5</ele>
        <time>2013-03-03T15:55:01.000Z</time>
      </trkpt>
      <trkpt lat="48.84196" lon="2.38664">
        <ele>85.1</ele>
        <time>2013-03-03T15:55:02.000Z</time>
      </trkpt>
      <trkpt lat="48.84199" lon="2.38659">
        <ele>85.5</ele>
        <time>2013-03-03T15:55:03.000Z</time>
      </trkpt>
      <trkpt lat="48.84201" lon="2.38655">
        <ele>86.6</ele>
        <time>2013-03-03T15:55:04.000Z</time>
      </trkpt>
      <trkpt lat="48.84202" lon="2.3865">
        <ele>86.9</ele>
        <time>2013-03-03T15:55:05.000Z</time>
      </trkpt>
      <trkpt lat="48.84204" lon="2.38646">
        <ele>87.7</ele>
        <time>2013-03-03T15:55:06.000Z</time>
      </trkpt>
      <trkpt lat="48.84205" lon="2.38641">
        <ele>87.8</ele>
        <time>2013-03-03T15:55:07.000Z</time>
      </trkpt>
      <trkpt lat="48.84209" lon="2.38639">
        <ele>87.9</ele>
        <time>2013-03-03T15:55:12.000Z</time>
      </trkpt>
      <trkpt lat="48.8421" lon="2.3864">
        <ele>88.7</ele>
        <time>2013-03-03T15:55:13.000Z</time>
      </trkpt>
      <trkpt lat="48.84209" lon="2.38634">
        <ele>88.6</ele>
        <time>2013-03-03T15:55:24.000Z</time>
      </trkpt>
      <trkpt lat="48.84209" lon="2.38633">
        <ele>88.6</ele>
        <time>2013-03-03T15:55:25.000Z</time>
      </trkpt>
      <trkpt lat="48.84211" lon="2.38628">
        <ele>89</ele>
        <time>2013-03-03T15:56:19.000Z</time>
      </trkpt>
      <trkpt lat="48.84213" lon="2.38625">
        <ele>87.6</ele>
        <time>2013-03-03T15:56:20.000Z</time>
      </trkpt>
      <trkpt lat="48.84214" lon="2.38621">
        <ele>88.4</ele>
        <time>2013-03-03T15:56:21.000Z</time>
      </trkpt>
      <trkpt lat="48.84215" lon="2.38618">
        <ele>89.2</ele>
        <time>2013-03-03T15:56:22.000Z</time>
      </trkpt>
      <trkpt lat="48.84216" lon="2.38615">
        <ele>88.5</ele>
        <time>2013-03-03T15:56:23.000Z</time>
      </trkpt>
      <trkpt lat="48.84217" lon="2.38612">
        <ele>88.8</ele>
        <time>2013-03-03T15:56:24.000Z</time>
      </trkpt>
      <trkpt lat="48.84218" lon="2.38608">
        <ele>89.6</ele>
        <time>2013-03-03T15:56:25.000Z</time>
      </trkpt>
      <trkpt lat="48.84218" lon="2.38605">
        <ele>90.7</ele>
        <time>2013-03-03T15:56:26.000Z</time>
      </trkpt>
      <trkpt lat="48.84219" lon="2.38602">
        <ele>91.4</ele>
        <time>2013-03-03T15:56:27.000Z</time>
      </trkpt>
      <trkpt lat="48.84219" lon="2.38598">
        <ele>91.4</ele>
        <time>2013-03-03T15:56:28.000Z</time>
      </trkpt>
      <trkpt lat="48.8422" lon="2.38594">
        <ele>91.4</ele>
        <time>2013-03-03T15:56:29.000Z</time>
      </trkpt>
      <trkpt lat="48.84224" lon="2.38584">
        <ele>91.7</ele>
        <time>2013-03-03T15:56:33.000Z</time>
      </trkpt>
      <trkpt lat="48.84226" lon="2.38579">
        <ele>91.3</ele>
        <time>2013-03-03T15:56:35.000Z</time>
      </trkpt>
      <trkpt lat="48.84227" lon="2.38575">
        <ele>91</ele>
        <time>2013-03-03T15:56:36.000Z</time>
      </trkpt>
      <trkpt lat="48.84229" lon="2.38572">
        <ele>90.6</ele>
        <time>2013-03-03T15:56:37.000Z</time>
      </trkpt>
      <trkpt lat="48.84231" lon="2.38568">
        <ele>89.8</ele>
        <time>2013-03-03T15:56:38.000Z</time>
      </trkpt>
      <trkpt lat="48.84233" lon="2.38564">
        <ele>90</ele>
        <time>2013-03-03T15:56:39.000Z</time>
      </trkpt>
      <trkpt lat="48.84234" lon="2.38561">
        <ele>89.4</ele>
        <time>2013-03-03T15:56:40.000Z</time>
      </trkpt>
      <trkpt lat="48.84236" lon="2.38558">
        <ele>88.9</ele>
        <time>2013-03-03T15:56:41.000Z</time>
      </trkpt>
      <trkpt lat="48.84239" lon="2.38554">
        <ele>89.8</ele>
        <time>2013-03-03T15:56:42.000Z</time>
      </trkpt>
      <trkpt lat="48.84241" lon="2.3855">
        <ele>87.5</ele>
        <time>2013-03-03T15:56:43.000Z</time>
      </trkpt>
      <trkpt lat="48.84243" lon="2.38546">
        <ele>88.9</ele>
        <time>2013-03-03T15:56:44.000Z</time>
      </trkpt>
      <trkpt lat="48.84246" lon="2.38542">
        <ele>87.5</ele>
        <time>2013-03-03T15:56:45.000Z</time>
      </trkpt>
      <trkpt lat="48.84248" lon="2.38538">
        <ele>85.7</ele>
        <time>2013-03-03T15:56:46.000Z</time>
      </trkpt>
      <trkpt lat="48.8425" lon="2.38534">
        <ele>87.4</ele>
        <time>2013-03-03T15:56:47.000Z</time>
      </trkpt>
      <trkpt lat="48.84253" lon="2.3853">
        <ele>89.1</ele>
        <time>2013-03-03T15:56:48.000Z</time>
      </trkpt>
      <trkpt lat="48.84255" lon="2.38526">
        <ele>90.4</ele>
        <time>2013-03-03T15:56:49.000Z</time>
      </trkpt>
      <trkpt lat="48.84257" lon="2.38522">
        <ele>87.7</ele>
        <time>2013-03-03T15:56:50.000Z</time>
      </trkpt>
      <trkpt lat="48.84259" lon="2.38518">
        <ele>87.7</ele>
        <time>2013-03-03T15:56:51.000Z</time>
      </trkpt>
      <trkpt lat="48.84262" lon="2.38514">
        <ele>87.9</ele>
        <time>2013-03-03T15:56:52.000Z</time>
      </trkpt>
      <trkpt lat="48.84264" lon="2.38509">
        <ele>88</ele>
        <time>2013-03-03T15:56:53.000Z</time>
      </trkpt>
      <trkpt lat="48.84267" lon="2.38505">
        <ele>88.5</ele>
        <time>2013-03-03T15:56:54.000Z</time>
      </trkpt>
      <trkpt lat="48.84269" lon="2.385">
        <ele>88.6</ele>
        <time>2013-03-03T15:56:55.000Z</time>
      </trkpt>
      <trkpt lat="48.84272" lon="2.38496">
        <ele>89.2</ele>
        <time>2013-03-03T15:56:56.000Z</time>
      </trkpt>
      <trkpt lat="48.84274" lon="2.38493">
        <ele>88</ele>
        <time>2013-03-03T15:56:57.000Z</time>
      </trkpt>
      <trkpt lat="48.84277" lon="2.38491">
        <ele>87</ele>
        <time>2013-03-03T15:56:58.000Z</time>
      </trkpt>
      <trkpt lat="48.8428" lon="2.38489">
        <ele>84.3</ele>
        <time>2013-03-03T15:56:59.000Z</time>
      </trkpt>
      <trkpt lat="48.84282" lon="2.38485">
        <ele>83.4</ele>
        <time>2013-03-03T15:57:00.000Z</time>
      </trkpt>
      <trkpt lat="48.84284" lon="2.38482">
        <ele>83.5</ele>
        <time>2013-03-03T15:57:01.000Z</time>
      </trkpt>
      <trkpt lat="48.84287" lon="2.38477">
        <ele>85.7</ele>
        <time>2013-03-03T15:57:02.000Z</time>
      </trkpt>
      <trkpt lat="48.84289" lon="2.38472">
        <ele>84.7</ele>
        <time>2013-03-03T15:57:03.000Z</time>
      </trkpt>
      <trkpt lat="48.84292" lon="2.38466">
        <ele>85.1</ele>
        <time>2013-03-03T15:57:04.000Z</time>
      </trkpt>
      <trkpt lat="48.84294" lon="2.38459">
        <ele>85.4</ele>
        <time>2013-03-03T15:57:05.000Z</time>
      </trkpt>
      <trkpt lat="48.84296" lon="2.38453">
        <ele>85</ele>
        <time>2013-03-03T15:57:06.000Z</time>
      </trkpt>
      <trkpt lat="48.84297" lon="2.38446">
        <ele>85.2</ele>
        <time>2013-03-03T15:57:07.000Z</time>
      </trkpt>
      <trkpt lat="48.84299" lon="2.3844">
        <ele>86.7</ele>
        <time>2013-03-03T15:57:08.000Z</time>
      </trkpt>
      <trkpt lat="48.84301" lon="2.38433">
        <ele>86.7</ele>
        <time>2013-03-03T15:57:09.000Z</time>
      </trkpt>
      <trkpt lat="48.84303" lon="2.38428">
        <ele>86.8</ele>
        <time>2013-03-03T15:57:10.000Z</time>
      </trkpt>
      <trkpt lat="48.84306" lon="2.38422">
        <ele>86.6</ele>
        <time>2013-03-03T15:57:11.000Z</time>
      </trkpt>
      <trkpt lat="48.84308" lon="2.38418">
        <ele>86.6</ele>
        <time>2013-03-03T15:57:12.000Z</time>
      </trkpt>
      <trkpt lat="48.8431" lon="2.38414">
        <ele>85.2</ele>
        <time>2013-03-03T15:57:13.000Z</time>
      </trkpt>
      <trkpt lat="48.84313" lon="2.3841">
        <ele>85</ele>
        <time>2013-03-03T15:57:14.000Z</time>
      </trkpt>
      <trkpt lat="48.84315" lon="2.38405">
        <ele>85</ele>
        <time>2013-03-03T15:57:15.000Z</time>
      </trkpt>
      <trkpt lat="48.84317" lon="2.38401">
        <ele>84.4</ele>
        <time>2013-03-03T15:57:16.000Z</time>
      </trkpt>
      <trkpt lat="48.84319" lon="2.38398">
        <ele>84.6</ele>
        <time>2013-03-03T15:57:17.000Z</time>
      </trkpt>
      <trkpt lat="48.84322" lon="2.38395">
        <ele>85.4</ele>
        <time>2013-03-03T15:57:18.000Z</time>
      </trkpt>
      <trkpt lat="48.84324" lon="2.38392">
        <ele>85.4</ele>
        <time>2013-03-03T15:57:19.000Z</time>
      </trkpt>
      <trkpt lat="48.84326" lon="2.38388">
        <ele>84.1</ele>
        <time>2013-03-03T15:57:20.000Z</time>
      </trkpt>
      <trkpt lat="48.84329" lon="2.38385">
        <ele>82.7</ele>
        <time>2013-03-03T15:57:21.000Z</time>
      </trkpt>
      <trkpt lat="48.84331" lon="2.38382">
        <ele>83</ele>
        <time>2013-03-03T15:57:22.000Z</time>
      </trkpt>
      <trkpt lat="48.84334" lon="2.38379">
        <ele>81.3</ele>
        <time>2013-03-03T15:57:23.000Z</time>
      </trkpt>
      <trkpt lat="48.84336" lon="2.38376">
        <ele>81</ele>
        <time>2013-03-03T15:57:24.000Z</time>
      </trkpt>
      <trkpt lat="48.84339" lon="2.38372">
        <ele>78.6</ele>
        <time>2013-03-03T15:57:25.000Z</time>
      </trkpt>
      <trkpt lat="48.84342" lon="2.38369">
        <ele>75.4</ele>
        <time>2013-03-03T15:57:26.000Z</time>
      </trkpt>
      <trkpt lat="48.84345" lon="2.38365">
        <ele>75.2</ele>
        <time>2013-03-03T15:57:27.000Z</time>
      </trkpt>
      <trkpt lat="48.84347" lon="2.38362">
        <ele>74.4</ele>
        <time>2013-03-03T15:57:28.000Z</time>
      </trkpt>
      <trkpt lat="48.84351" lon="2.38358">
        <ele>74.4</ele>
        <time>2013-03-03T15:57:29.000Z</time>
      </trkpt>
      <trkpt lat="48.84357" lon="2.3835">
        <ele>74.3</ele>
        <time>2013-03-03T15:57:30.898Z</time>
      </trkpt>
      <trkpt lat="48.8436" lon="2.38343">
        <ele>74.4</ele>
        <time>2013-03-03T15:57:32.000Z</time>
      </trkpt>
      <trkpt lat="48.84363" lon="2.38337">
        <ele>74.1</ele>
        <time>2013-03-03T15:57:33.000Z</time>
      </trkpt>
      <trkpt lat="48.84366" lon="2.3833">
        <ele>74.1</ele>
        <time>2013-03-03T15:57:34.000Z</time>
      </trkpt>
      <trkpt lat="48.84369" lon="2.38324">
        <ele>74.1</ele>
        <time>2013-03-03T15:57:35.000Z</time>
      </trkpt>
      <trkpt lat="48.84371" lon="2.38317">
        <ele>73.6</ele>
        <time>2013-03-03T15:57:36.000Z</time>
      </trkpt>
      <trkpt lat="48.84373" lon="2.38311">
        <ele>74.1</ele>
        <time>2013-03-03T15:57:37.000Z</time>
      </trkpt>
      <trkpt lat="48.84375" lon="2.38304">
        <ele>75.5</ele>
        <time>2013-03-03T15:57:38.000Z</time>
      </trkpt>
      <trkpt lat="48.84378" lon="2.38291">
        <ele>76.6</ele>
        <time>2013-03-03T15:57:39.000Z</time>
      </trkpt>
      <trkpt lat="48.8438" lon="2.38286">
        <ele>75.1</ele>
        <time>2013-03-03T15:57:40.000Z</time>
      </trkpt>
      <trkpt lat="48.84382" lon="2.38278">
        <ele>75.3</ele>
        <time>2013-03-03T15:57:41.000Z</time>
      </trkpt>
      <trkpt lat="48.84386" lon="2.38272">
        <ele>76.5</ele>
        <time>2013-03-03T15:57:42.000Z</time>
      </trkpt>
      <trkpt lat="48.84386" lon="2.38267">
        <ele>77.5</ele>
        <time>2013-03-03T15:57:43.000Z</time>
      </trkpt>
      <trkpt lat="48.84388" lon="2.38261">
        <ele>78.4</ele>
        <time>2013-03-03T15:57:44.000Z</time>
      </trkpt>
      <trkpt lat="48.84389" lon="2.38255">
        <ele>78.5</ele>
        <time>2013-03-03T15:57:45.000Z</time>
      </trkpt>
      <trkpt lat="48.84391" lon="2.3825">
        <ele>79.4</ele>
        <time>2013-03-03T15:57:46.000Z</time>
      </trkpt>
      <trkpt lat="48.84392" lon="2.38245">
        <ele>79.1</ele>
        <time>2013-03-03T15:57:47.000Z</time>
      </trkpt>
      <trkpt lat="48.84394" lon="2.38241">
        <ele>76.2</ele>
        <time>2013-03-03T15:57:48.000Z</time>
      </trkpt>
      <trkpt lat="48.84396" lon="2.38237">
        <ele>76.5</ele>
        <time>2013-03-03T15:57:49.000Z</time>
      </trkpt>
      <trkpt lat="48.84398" lon="2.38233">
        <ele>77.2</ele>
        <time>2013-03-03T15:57:50.000Z</time>
      </trkpt>
      <trkpt lat="48.844" lon="2.3823">
        <ele>76</ele>
        <time>2013-03-03T15:57:51.000Z</time>
      </trkpt>
      <trkpt lat="48.84403" lon="2.38228">
        <ele>75.7</ele>
        <time>2013-03-03T15:57:52.000Z</time>
      </trkpt>
      <trkpt lat="48.84406" lon="2.38226">
        <ele>75.9</ele>
        <time>2013-03-03T15:57:53.000Z</time>
      </trkpt>
      <trkpt lat="48.84409" lon="2.38224">
        <ele>74.4</ele>
        <time>2013-03-03T15:57:54.000Z</time>
      </trkpt>
      <trkpt lat="48.84411" lon="2.38221">
        <ele>74.3</ele>
        <time>2013-03-03T15:57:55.000Z</time>
      </trkpt>
      <trkpt lat="48.84413" lon="2.38218">
        <ele>73.2</ele>
        <time>2013-03-03T15:57:56.000Z</time>
      </trkpt>
      <trkpt lat="48.84415" lon="2.38214">
        <ele>73.8</ele>
        <time>2013-03-03T15:57:57.000Z</time>
      </trkpt>
      <trkpt lat="48.84416" lon="2.38211">
        <ele>74.2</ele>
        <time>2013-03-03T15:57:58.000Z</time>
      </trkpt>
      <trkpt lat="48.84418" lon="2.38208">
        <ele>74.5</ele>
        <time>2013-03-03T15:57:59.000Z</time>
      </trkpt>
      <trkpt lat="48.84419" lon="2.38205">
        <ele>75.6</ele>
        <time>2013-03-03T15:58:00.000Z</time>
      </trkpt>
      <trkpt lat="48.8442" lon="2.38199">
        <ele>76.6</ele>
        <time>2013-03-03T15:58:02.000Z</time>
      </trkpt>
      <trkpt lat="48.8442" lon="2.38196">
        <ele>77</ele>
        <time>2013-03-03T15:58:03.000Z</time>
      </trkpt>
      <trkpt lat="48.84422" lon="2.38191">
        <ele>79.1</ele>
        <time>2013-03-03T15:58:22.000Z</time>
      </trkpt>
      <trkpt lat="48.84422" lon="2.3819">
        <ele>79.3</ele>
        <time>2013-03-03T15:58:23.000Z</time>
      </trkpt>
      <trkpt lat="48.84424" lon="2.38186">
        <ele>78.8</ele>
        <time>2013-03-03T15:58:28.000Z</time>
      </trkpt>
      <trkpt lat="48.84425" lon="2.38183">
        <ele>81.1</ele>
        <time>2013-03-03T15:58:29.000Z</time>
      </trkpt>
      <trkpt lat="48.84431" lon="2.38172">
        <ele>83.1</ele>
        <time>2013-03-03T15:58:32.000Z</time>
      </trkpt>
      <trkpt lat="48.84433" lon="2.38169">
        <ele>83.3</ele>
        <time>2013-03-03T15:58:33.000Z</time>
      </trkpt>
      <trkpt lat="48.84435" lon="2.38165">
        <ele>83.9</ele>
        <time>2013-03-03T15:58:34.000Z</time>
      </trkpt>
      <trkpt lat="48.84437" lon="2.38161">
        <ele>83.7</ele>
        <time>2013-03-03T15:58:35.000Z</time>
      </trkpt>
      <trkpt lat="48.84438" lon="2.38157">
        <ele>84.7</ele>
        <time>2013-03-03T15:58:36.000Z</time>
      </trkpt>
      <trkpt lat="48.8444" lon="2.38152">
        <ele>86</ele>
        <time>2013-03-03T15:58:37.000Z</time>
      </trkpt>
      <trkpt lat="48.84442" lon="2.38147">
        <ele>86.3</ele>
        <time>2013-03-03T15:58:38.000Z</time>
      </trkpt>
      <trkpt lat="48.84444" lon="2.38142">
        <ele>86.3</ele>
        <time>2013-03-03T15:58:39.000Z</time>
      </trkpt>
      <trkpt lat="48.84446" lon="2.38136">
        <ele>86.7</ele>
        <time>2013-03-03T15:58:40.000Z</time>
      </trkpt>
      <trkpt lat="48.84449" lon="2.3813">
        <ele>85.6</ele>
        <time>2013-03-03T15:58:41.000Z</time>
      </trkpt>
      <trkpt lat="48.84452" lon="2.38125">
        <ele>85.4</ele>
        <time>2013-03-03T15:58:42.000Z</time>
      </trkpt>
      <trkpt lat="48.84454" lon="2.38121">
        <ele>84.1</ele>
        <time>2013-03-03T15:58:43.000Z</time>
      </trkpt>
      <trkpt lat="48.84457" lon="2.38117">
        <ele>84.6</ele>
        <time>2013-03-03T15:58:44.000Z</time>
      </trkpt>
      <trkpt lat="48.84459" lon="2.38113">
        <ele>84</ele>
        <time>2013-03-03T15:58:45.000Z</time>
      </trkpt>
      <trkpt lat="48.84462" lon="2.38109">
        <ele>82.5</ele>
        <time>2013-03-03T15:58:46.000Z</time>
      </trkpt>
      <trkpt lat="48.84464" lon="2.38104">
        <ele>80.1</ele>
        <time>2013-03-03T15:58:47.000Z</time>
      </trkpt>
      <trkpt lat="48.84467" lon="2.38099">
        <ele>80.6</ele>
        <time>2013-03-03T15:58:48.000Z</time>
      </trkpt>
      <trkpt lat="48.8447" lon="2.38094">
        <ele>78.7</ele>
        <time>2013-03-03T15:58:49.000Z</time>
      </trkpt>
      <trkpt lat="48.84472" lon="2.38089">
        <ele>79.1</ele>
        <time>2013-03-03T15:58:50.000Z</time>
      </trkpt>
      <trkpt lat="48.84475" lon="2.38084">
        <ele>79.7</ele>
        <time>2013-03-03T15:58:51.000Z</time>
      </trkpt>
      <trkpt lat="48.84478" lon="2.3808">
        <ele>76.3</ele>
        <time>2013-03-03T15:58:52.000Z</time>
      </trkpt>
      <trkpt lat="48.8448" lon="2.38076">
        <ele>75.5</ele>
        <time>2013-03-03T15:58:53.000Z</time>
      </trkpt>
      <trkpt lat="48.84483" lon="2.38072">
        <ele>76.4</ele>
        <time>2013-03-03T15:58:54.000Z</time>
      </trkpt>
      <trkpt lat="48.84486" lon="2.38068">
        <ele>76.9</ele>
        <time>2013-03-03T15:58:55.000Z</time>
      </trkpt>
      <trkpt lat="48.84488" lon="2.38063">
        <ele>77.2</ele>
        <time>2013-03-03T15:58:56.000Z</time>
      </trkpt>
      <trkpt lat="48.8449" lon="2.38058">
        <ele>78.4</ele>
        <time>2013-03-03T15:58:57.000Z</time>
      </trkpt>
      <trkpt lat="48.84492" lon="2.38051">
        <ele>77.8</ele>
        <time>2013-03-03T15:58:58.000Z</time>
      </trkpt>
      <trkpt lat="48.84494" lon="2.38045">
        <ele>78.6</ele>
        <time>2013-03-03T15:58:59.000Z</time>
      </trkpt>
      <trkpt lat="48.84496" lon="2.38039">
        <ele>78.7</ele>
        <time>2013-03-03T15:59:00.000Z</time>
      </trkpt>
      <trkpt lat="48.84498" lon="2.38034">
        <ele>78.6</ele>
        <time>2013-03-03T15:59:01.000Z</time>
      </trkpt>
      <trkpt lat="48.84501" lon="2.38028">
        <ele>78.1</ele>
        <time>2013-03-03T15:59:02.000Z</time>
      </trkpt>
      <trkpt lat="48.84504" lon="2.38024">
        <ele>78.2</ele>
        <time>2013-03-03T15:59:03.000Z</time>
      </trkpt>
      <trkpt lat="48.84507" lon="2.38019">
        <ele>78.1</ele>
        <time>2013-03-03T15:59:04.000Z</time>
      </trkpt>
      <trkpt lat="48.8451" lon="2.38015">
        <ele>78.6</ele>
        <time>2013-03-03T15:59:05.000Z</time>
      </trkpt>
      <trkpt lat="48.84513" lon="2.3801">
        <ele>77.8</ele>
        <time>2013-03-03T15:59:06.000Z</time>
      </trkpt>
      <trkpt lat="48.84515" lon="2.38005">
        <ele>79.2</ele>
        <time>2013-03-03T15:59:07.000Z</time>
      </trkpt>
      <trkpt lat="48.84517" lon="2.37999">
        <ele>79.6</ele>
        <time>2013-03-03T15:59:08.000Z</time>
      </trkpt>
      <trkpt lat="48.84519" lon="2.37995">
        <ele>78.5</ele>
        <time>2013-03-03T15:59:09.000Z</time>
      </trkpt>
      <trkpt lat="48.84521" lon="2.3799">
        <ele>79</ele>
        <time>2013-03-03T15:59:10.000Z</time>
      </trkpt>
      <trkpt lat="48.84524" lon="2.37986">
        <ele>80.7</ele>
        <time>2013-03-03T15:59:11.000Z</time>
      </trkpt>
      <trkpt lat="48.84527" lon="2.37981">
        <ele>81</ele>
        <time>2013-03-03T15:59:12.000Z</time>
      </trkpt>
      <trkpt lat="48.8453" lon="2.37976">
        <ele>79.6</ele>
        <time>2013-03-03T15:59:13.000Z</time>
      </trkpt>
      <trkpt lat="48.84533" lon="2.3797">
        <ele>79</ele>
        <time>2013-03-03T15:59:14.000Z</time>
      </trkpt>
      <trkpt lat="48.84536" lon="2.37965">
        <ele>80.3</ele>
        <time>2013-03-03T15:59:15.000Z</time>
      </trkpt>
      <trkpt lat="48.84538" lon="2.3796">
        <ele>80</ele>
        <time>2013-03-03T15:59:16.000Z</time>
      </trkpt>
      <trkpt lat="48.84541" lon="2.37955">
        <ele>80.5</ele>
        <time>2013-03-03T15:59:17.000Z</time>
      </trkpt>
      <trkpt lat="48.84543" lon="2.37949">
        <ele>80.1</ele>
        <time>2013-03-03T15:59:18.000Z</time>
      </trkpt>
      <trkpt lat="48.84546" lon="2.37944">
        <ele>80.9</ele>
        <time>2013-03-03T15:59:19.000Z</time>
      </trkpt>
      <trkpt lat="48.84549" lon="2.37938">
        <ele>80.7</ele>
        <time>2013-03-03T15:59:20.000Z</time>
      </trkpt>
      <trkpt lat="48.84551" lon="2.37933">
        <ele>80.7</ele>
        <time>2013-03-03T15:59:21.000Z</time>
      </trkpt>
      <trkpt lat="48.84554" lon="2.37927">
        <ele>79.4</ele>
        <time>2013-03-03T15:59:22.000Z</time>
      </trkpt>
      <trkpt lat="48.84556" lon="2.37922">
        <ele>80.2</ele>
        <time>2013-03-03T15:59:23.000Z</time>
      </trkpt>
      <trkpt lat="48.84559" lon="2.37917">
        <ele>80.4</ele>
        <time>2013-03-03T15:59:24.000Z</time>
      </trkpt>
      <trkpt lat="48.84562" lon="2.37912">
        <ele>78.7</ele>
        <time>2013-03-03T15:59:25.000Z</time>
      </trkpt>
      <trkpt lat="48.84565" lon="2.37906">
        <ele>79.6</ele>
        <time>2013-03-03T15:59:26.000Z</time>
      </trkpt>
      <trkpt lat="48.84567" lon="2.37899">
        <ele>79.7</ele>
        <time>2013-03-03T15:59:27.000Z</time>
      </trkpt>
      <trkpt lat="48.8457" lon="2.37893">
        <ele>79.4</ele>
        <time>2013-03-03T15:59:28.000Z</time>
      </trkpt>
      <trkpt lat="48.84573" lon="2.37888">
        <ele>79.7</ele>
        <time>2013-03-03T15:59:29.000Z</time>
      </trkpt>
      <trkpt lat="48.84577" lon="2.37878">
        <ele>79.3</ele>
        <time>2013-03-03T15:59:30.883Z</time>
      </trkpt>
      <trkpt lat="48.84579" lon="2.37874">
        <ele>79.2</ele>
        <time>2013-03-03T15:59:32.000Z</time>
      </trkpt>
      <trkpt lat="48.84581" lon="2.3787">
        <ele>78.4</ele>
        <time>2013-03-03T15:59:33.000Z</time>
      </trkpt>
      <trkpt lat="48.84584" lon="2.37867">
        <ele>76.7</ele>
        <time>2013-03-03T15:59:34.000Z</time>
      </trkpt>
      <trkpt lat="48.84586" lon="2.37864">
        <ele>75.7</ele>
        <time>2013-03-03T15:59:35.000Z</time>
      </trkpt>
      <trkpt lat="48.84588" lon="2.37861">
        <ele>75</ele>
        <time>2013-03-03T15:59:36.000Z</time>
      </trkpt>
      <trkpt lat="48.8459" lon="2.37857">
        <ele>74.8</ele>
        <time>2013-03-03T15:59:37.000Z</time>
      </trkpt>
      <trkpt lat="48.84592" lon="2.37853">
        <ele>75</ele>
        <time>2013-03-03T15:59:38.000Z</time>
      </trkpt>
      <trkpt lat="48.84593" lon="2.37848">
        <ele>73.5</ele>
        <time>2013-03-03T15:59:39.000Z</time>
      </trkpt>
      <trkpt lat="48.84595" lon="2.37843">
        <ele>72.7</ele>
        <time>2013-03-03T15:59:40.000Z</time>
      </trkpt>
      <trkpt lat="48.84596" lon="2.37839">
        <ele>75.7</ele>
        <time>2013-03-03T15:59:41.000Z</time>
      </trkpt>
      <trkpt lat="48.84598" lon="2.37834">
        <ele>75.4</ele>
        <time>2013-03-03T15:59:42.000Z</time>
      </trkpt>
      <trkpt lat="48.846" lon="2.37829">
        <ele>75</ele>
        <time>2013-03-03T15:59:43.000Z</time>
      </trkpt>
      <trkpt lat="48.84602" lon="2.37825">
        <ele>74.8</ele>
        <time>2013-03-03T15:59:44.000Z</time>
      </trkpt>
      <trkpt lat="48.84604" lon="2.3782">
        <ele>75.6</ele>
        <time>2013-03-03T15:59:45.000Z</time>
      </trkpt>
      <trkpt lat="48.84606" lon="2.37816">
        <ele>76.4</ele>
        <time>2013-03-03T15:59:46.000Z</time>
      </trkpt>
      <trkpt lat="48.84608" lon="2.37811">
        <ele>76.9</ele>
        <time>2013-03-03T15:59:47.000Z</time>
      </trkpt>
      <trkpt lat="48.8461" lon="2.37807">
        <ele>76.9</ele>
        <time>2013-03-03T15:59:48.000Z</time>
      </trkpt>
      <trkpt lat="48.84613" lon="2.37804">
        <ele>78.2</ele>
        <time>2013-03-03T15:59:49.000Z</time>
      </trkpt>
      <trkpt lat="48.84616" lon="2.378">
        <ele>77.2</ele>
        <time>2013-03-03T15:59:50.000Z</time>
      </trkpt>
      <trkpt lat="48.84619" lon="2.37796">
        <ele>78</ele>
        <time>2013-03-03T15:59:51.000Z</time>
      </trkpt>
      <trkpt lat="48.84621" lon="2.37792">
        <ele>77.7</ele>
        <time>2013-03-03T15:59:52.000Z</time>
      </trkpt>
      <trkpt lat="48.84624" lon="2.37787">
        <ele>78.7</ele>
        <time>2013-03-03T15:59:53.000Z</time>
      </trkpt>
      <trkpt lat="48.84626" lon="2.37782">
        <ele>79.3</ele>
        <time>2013-03-03T15:59:54.000Z</time>
      </trkpt>
      <trkpt lat="48.84629" lon="2.37778">
        <ele>79.8</ele>
        <time>2013-03-03T15:59:55.000Z</time>
      </trkpt>
      <trkpt lat="48.84632" lon="2.37774">
        <ele>79.4</ele>
        <time>2013-03-03T15:59:56.000Z</time>
      </trkpt>
      <trkpt lat="48.84634" lon="2.3777">
        <ele>80</ele>
        <time>2013-03-03T15:59:57.000Z</time>
      </trkpt>
      <trkpt lat="48.84637" lon="2.37768">
        <ele>80.1</ele>
        <time>2013-03-03T15:59:58.000Z</time>
      </trkpt>
      <trkpt lat="48.84639" lon="2.37765">
        <ele>79.8</ele>
        <time>2013-03-03T15:59:59.000Z</time>
      </trkpt>
      <trkpt lat="48.8464" lon="2.37762">
        <ele>79.8</ele>
        <time>2013-03-03T16:00:00.000Z</time>
      </trkpt>
      <trkpt lat="48.84642" lon="2.3776">
        <ele>79.3</ele>
        <time>2013-03-03T16:00:01.000Z</time>
      </trkpt>
      <trkpt lat="48.84645" lon="2.37755">
        <ele>79.3</ele>
        <time>2013-03-03T16:00:03.000Z</time>
      </trkpt>
      <trkpt lat="48.84647" lon="2.37752">
        <ele>79.6</ele>
        <time>2013-03-03T16:00:04.000Z</time>
      </trkpt>
      <trkpt lat="48.84647" lon="2.37749">
        <ele>80.7</ele>
        <time>2013-03-03T16:00:05.000Z</time>
      </trkpt>
      <trkpt lat="48.84648" lon="2.37745">
        <ele>81.5</ele>
        <time>2013-03-03T16:00:06.000Z</time>
      </trkpt>
      <trkpt lat="48.84649" lon="2.3774">
        <ele>85</ele>
        <time>2013-03-03T16:00:11.000Z</time>
      </trkpt>
      <trkpt lat="48.8465" lon="2.37739">
        <ele>84.9</ele>
        <time>2013-03-03T16:00:12.000Z</time>
      </trkpt>
      <trkpt lat="48.84649" lon="2.37733">
        <ele>86.5</ele>
        <time>2013-03-03T16:00:21.000Z</time>
      </trkpt>
      <trkpt lat="48.84649" lon="2.37732">
        <ele>86.6</ele>
        <time>2013-03-03T16:00:22.000Z</time>
      </trkpt>
      <trkpt lat="48.84647" lon="2.37727">
        <ele>88.6</ele>
        <time>2013-03-03T16:01:26.000Z</time>
      </trkpt>
      <trkpt lat="48.84646" lon="2.37726">
        <ele>88.7</ele>
        <time>2013-03-03T16:01:27.000Z</time>
      </trkpt>
      <trkpt lat="48.84644" lon="2.37721">
        <ele>89</ele>
        <time>2013-03-03T16:01:29.000Z</time>
      </trkpt>
      <trkpt lat="48.8464" lon="2.37715">
        <ele>89</ele>
        <time>2013-03-03T16:01:31.192Z</time>
      </trkpt>
      <trkpt lat="48.8464" lon="2.37708">
        <ele>88.6</ele>
        <time>2013-03-03T16:01:33.000Z</time>
      </trkpt>
      <trkpt lat="48.84641" lon="2.37705">
        <ele>89.3</ele>
        <time>2013-03-03T16:01:34.000Z</time>
      </trkpt>
      <trkpt lat="48.84642" lon="2.37702">
        <ele>90.5</ele>
        <time>2013-03-03T16:01:35.000Z</time>
      </trkpt>
      <trkpt lat="48.84643" lon="2.37698">
        <ele>90.6</ele>
        <time>2013-03-03T16:01:36.000Z</time>
      </trkpt>
      <trkpt lat="48.84645" lon="2.37694">
        <ele>91.2</ele>
        <time>2013-03-03T16:01:37.000Z</time>
      </trkpt>
      <trkpt lat="48.84646" lon="2.3769">
        <ele>91.2</ele>
        <time>2013-03-03T16:01:38.000Z</time>
      </trkpt>
      <trkpt lat="48.84648" lon="2.37685">
        <ele>92.3</ele>
        <time>2013-03-03T16:01:39.000Z</time>
      </trkpt>
      <trkpt lat="48.84649" lon="2.37681">
        <ele>89.4</ele>
        <time>2013-03-03T16:01:40.000Z</time>
      </trkpt>
      <trkpt lat="48.8465" lon="2.37678">
        <ele>89.5</ele>
        <time>2013-03-03T16:01:41.000Z</time>
      </trkpt>
      <trkpt lat="48.84651" lon="2.37674">
        <ele>90.2</ele>
        <time>2013-03-03T16:01:42.000Z</time>
      </trkpt>
      <trkpt lat="48.84653" lon="2.37669">
        <ele>90.5</ele>
        <time>2013-03-03T16:01:45.000Z</time>
      </trkpt>
      <trkpt lat="48.84654" lon="2.37668">
        <ele>88.9</ele>
        <time>2013-03-03T16:01:46.000Z</time>
      </trkpt>
      <trkpt lat="48.84656" lon="2.37664">
        <ele>89</ele>
        <time>2013-03-03T16:01:48.000Z</time>
      </trkpt>
      <trkpt lat="48.84658" lon="2.37661">
        <ele>88.9</ele>
        <time>2013-03-03T16:01:49.000Z</time>
      </trkpt>
      <trkpt lat="48.84659" lon="2.37658">
        <ele>88.4</ele>
        <time>2013-03-03T16:01:50.000Z</time>
      </trkpt>
      <trkpt lat="48.84659" lon="2.37654">
        <ele>85.5</ele>
        <time>2013-03-03T16:01:51.000Z</time>
      </trkpt>
      <trkpt lat="48.84659" lon="2.3765">
        <ele>82.7</ele>
        <time>2013-03-03T16:01:52.000Z</time>
      </trkpt>
      <trkpt lat="48.8466" lon="2.37645">
        <ele>81.1</ele>
        <time>2013-03-03T16:01:53.000Z</time>
      </trkpt>
      <trkpt lat="48.84661" lon="2.37641">
        <ele>78.9</ele>
        <time>2013-03-03T16:01:54.000Z</time>
      </trkpt>
      <trkpt lat="48.84663" lon="2.37637">
        <ele>79.1</ele>
        <time>2013-03-03T16:01:55.000Z</time>
      </trkpt>
      <trkpt lat="48.84665" lon="2.37633">
        <ele>77.8</ele>
        <time>2013-03-03T16:01:56.000Z</time>
      </trkpt>
      <trkpt lat="48.84666" lon="2.37628">
        <ele>76.6</ele>
        <time>2013-03-03T16:01:57.000Z</time>
      </trkpt>
      <trkpt lat="48.84667" lon="2.37624">
        <ele>75.7</ele>
        <time>2013-03-03T16:01:58.000Z</time>
      </trkpt>
      <trkpt lat="48.84668" lon="2.37619">
        <ele>74.2</ele>
        <time>2013-03-03T16:01:59.000Z</time>
      </trkpt>
      <trkpt lat="48.84669" lon="2.37614">
        <ele>74</ele>
        <time>2013-03-03T16:02:00.000Z</time>
      </trkpt>
      <trkpt lat="48.8467" lon="2.37609">
        <ele>74.9</ele>
        <time>2013-03-03T16:02:01.000Z</time>
      </trkpt>
      <trkpt lat="48.84671" lon="2.37603">
        <ele>75.1</ele>
        <time>2013-03-03T16:02:02.000Z</time>
      </trkpt>
      <trkpt lat="48.84673" lon="2.37598">
        <ele>75.1</ele>
        <time>2013-03-03T16:02:03.000Z</time>
      </trkpt>
      <trkpt lat="48.84674" lon="2.37592">
        <ele>74.6</ele>
        <time>2013-03-03T16:02:04.000Z</time>
      </trkpt>
      <trkpt lat="48.84674" lon="2.37587">
        <ele>74.1</ele>
        <time>2013-03-03T16:02:05.000Z</time>
      </trkpt>
      <trkpt lat="48.84675" lon="2.37581">
        <ele>74.2</ele>
        <time>2013-03-03T16:02:06.000Z</time>
      </trkpt>
      <trkpt lat="48.84675" lon="2.37577">
        <ele>73.6</ele>
        <time>2013-03-03T16:02:07.000Z</time>
      </trkpt>
      <trkpt lat="48.84676" lon="2.37571">
        <ele>73.4</ele>
        <time>2013-03-03T16:02:09.000Z</time>
      </trkpt>
      <trkpt lat="48.84677" lon="2.37568">
        <ele>73</ele>
        <time>2013-03-03T16:02:10.000Z</time>
      </trkpt>
      <trkpt lat="48.8468" lon="2.37564">
        <ele>74.1</ele>
        <time>2013-03-03T16:02:12.000Z</time>
      </trkpt>
      <trkpt lat="48.84682" lon="2.37562">
        <ele>75.4</ele>
        <time>2013-03-03T16:02:13.000Z</time>
      </trkpt>
      <trkpt lat="48.84685" lon="2.3756">
        <ele>77.3</ele>
        <time>2013-03-03T16:02:14.000Z</time>
      </trkpt>
      <trkpt lat="48.84688" lon="2.37557">
        <ele>77.5</ele>
        <time>2013-03-03T16:02:15.000Z</time>
      </trkpt>
      <trkpt lat="48.84691" lon="2.37555">
        <ele>76.4</ele>
        <time>2013-03-03T16:02:16.000Z</time>
      </trkpt>
      <trkpt lat="48.84693" lon="2.37554">
        <ele>74.8</ele>
        <time>2013-03-03T16:02:17.000Z</time>
      </trkpt>
      <trkpt lat="48.84695" lon="2.37551">
        <ele>75.2</ele>
        <time>2013-03-03T16:02:18.000Z</time>
      </trkpt>
      <trkpt lat="48.84697" lon="2.37549">
        <ele>75</ele>
        <time>2013-03-03T16:02:19.000Z</time>
      </trkpt>
      <trkpt lat="48.84699" lon="2.37544">
        <ele>74</ele>
        <time>2013-03-03T16:02:21.000Z</time>
      </trkpt>
      <trkpt lat="48.847" lon="2.37542">
        <ele>74.3</ele>
        <time>2013-03-03T16:02:22.000Z</time>
      </trkpt>
      <trkpt lat="48.84704" lon="2.37541">
        <ele>79.2</ele>
        <time>2013-03-03T16:02:44.000Z</time>
      </trkpt>
      <trkpt lat="48.84704" lon="2.37541">
        <ele>79.3</ele>
        <time>2013-03-03T16:02:45.000Z</time>
      </trkpt>
      <trkpt lat="48.84707" lon="2.37539">
        <ele>80</ele>
        <time>2013-03-03T16:03:04.000Z</time>
      </trkpt>
      <trkpt lat="48.84708" lon="2.37537">
        <ele>78.9</ele>
        <time>2013-03-03T16:03:05.000Z</time>
      </trkpt>
      <trkpt lat="48.8471" lon="2.37535">
        <ele>78.3</ele>
        <time>2013-03-03T16:03:06.000Z</time>
      </trkpt>
      <trkpt lat="48.84712" lon="2.37532">
        <ele>78.4</ele>
        <time>2013-03-03T16:03:07.000Z</time>
      </trkpt>
      <trkpt lat="48.84714" lon="2.37529">
        <ele>79</ele>
        <time>2013-03-03T16:03:08.000Z</time>
      </trkpt>
      <trkpt lat="48.84716" lon="2.37526">
        <ele>79.2</ele>
        <time>2013-03-03T16:03:09.000Z</time>
      </trkpt>
      <trkpt lat="48.84717" lon="2.37523">
        <ele>79</ele>
        <time>2013-03-03T16:03:10.000Z</time>
      </trkpt>
      <trkpt lat="48.84718" lon="2.3752">
        <ele>79.1</ele>
        <time>2013-03-03T16:03:11.000Z</time>
      </trkpt>
      <trkpt lat="48.8472" lon="2.37516">
        <ele>79</ele>
        <time>2013-03-03T16:03:12.000Z</time>
      </trkpt>
      <trkpt lat="48.84721" lon="2.37512">
        <ele>78.7</ele>
        <time>2013-03-03T16:03:13.000Z</time>
      </trkpt>
      <trkpt lat="48.84723" lon="2.37509">
        <ele>78.1</ele>
        <time>2013-03-03T16:03:14.000Z</time>
      </trkpt>
      <trkpt lat="48.84725" lon="2.37505">
        <ele>76.7</ele>
        <time>2013-03-03T16:03:15.000Z</time>
      </trkpt>
      <trkpt lat="48.84726" lon="2.37502">
        <ele>76.1</ele>
        <time>2013-03-03T16:03:16.000Z</time>
      </trkpt>
      <trkpt lat="48.84728" lon="2.37499">
        <ele>74.6</ele>
        <time>2013-03-03T16:03:17.000Z</time>
      </trkpt>
      <trkpt lat="48.8473" lon="2.37496">
        <ele>74</ele>
        <time>2013-03-03T16:03:18.000Z</time>
      </trkpt>
      <trkpt lat="48.84731" lon="2.37492">
        <ele>74</ele>
        <time>2013-03-03T16:03:19.000Z</time>
      </trkpt>
      <trkpt lat="48.84733" lon="2.37489">
        <ele>74</ele>
        <time>2013-03-03T16:03:20.000Z</time>
      </trkpt>
      <trkpt lat="48.84735" lon="2.37486">
        <ele>73.7</ele>
        <time>2013-03-03T16:03:21.000Z</time>
      </trkpt>
      <trkpt lat="48.84737" lon="2.37483">
        <ele>73.3</ele>
        <time>2013-03-03T16:03:22.000Z</time>
      </trkpt>
      <trkpt lat="48.84739" lon="2.3748">
        <ele>73.2</ele>
        <time>2013-03-03T16:03:23.000Z</time>
      </trkpt>
      <trkpt lat="48.84739" lon="2.37476">
        <ele>73.4</ele>
        <time>2013-03-03T16:03:24.000Z</time>
      </trkpt>
      <trkpt lat="48.8474" lon="2.37472">
        <ele>72.6</ele>
        <time>2013-03-03T16:03:25.000Z</time>
      </trkpt>
      <trkpt lat="48.8474" lon="2.37469">
        <ele>70.8</ele>
        <time>2013-03-03T16:03:26.000Z</time>
      </trkpt>
      <trkpt lat="48.84741" lon="2.37465">
        <ele>68.6</ele>
        <time>2013-03-03T16:03:27.000Z</time>
      </trkpt>
      <trkpt lat="48.84742" lon="2.37461">
        <ele>66.3</ele>
        <time>2013-03-03T16:03:28.000Z</time>
      </trkpt>
      <trkpt lat="48.84743" lon="2.37458">
        <ele>64.9</ele>
        <time>2013-03-03T16:03:29.000Z</time>
      </trkpt>
      <trkpt lat="48.84745" lon="2.37448">
        <ele>63.9</ele>
        <time>2013-03-03T16:03:32.000Z</time>
      </trkpt>
      <trkpt lat="48.84746" lon="2.37444">
        <ele>63</ele>
        <time>2013-03-03T16:03:33.000Z</time>
      </trkpt>
      <trkpt lat="48.84747" lon="2.37441">
        <ele>61.4</ele>
        <time>2013-03-03T16:03:34.000Z</time>
      </trkpt>
      <trkpt lat="48.84747" lon="2.37436">
        <ele>61.5</ele>
        <time>2013-03-03T16:03:35.000Z</time>
      </trkpt>
      <trkpt lat="48.84748" lon="2.37432">
        <ele>61.8</ele>
        <time>2013-03-03T16:03:36.000Z</time>
      </trkpt>
      <trkpt lat="48.84749" lon="2.37427">
        <ele>62.5</ele>
        <time>2013-03-03T16:03:37.000Z</time>
      </trkpt>
      <trkpt lat="48.84752" lon="2.37423">
        <ele>63.7</ele>
        <time>2013-03-03T16:03:38.000Z</time>
      </trkpt>
      <trkpt lat="48.84755" lon="2.37419">
        <ele>63.9</ele>
        <time>2013-03-03T16:03:39.000Z</time>
      </trkpt>
      <trkpt lat="48.84759" lon="2.37414">
        <ele>69.6</ele>
        <time>2013-03-03T16:03:40.000Z</time>
      </trkpt>
      <trkpt lat="48.84763" lon="2.37408">
        <ele>72.8</ele>
        <time>2013-03-03T16:03:41.000Z</time>
      </trkpt>
      <trkpt lat="48.84767" lon="2.37403">
        <ele>75.9</ele>
        <time>2013-03-03T16:03:42.000Z</time>
      </trkpt>
      <trkpt lat="48.84769" lon="2.37398">
        <ele>76.7</ele>
        <time>2013-03-03T16:03:43.000Z</time>
      </trkpt>
      <trkpt lat="48.84771" lon="2.37393">
        <ele>74</ele>
        <time>2013-03-03T16:03:44.000Z</time>
      </trkpt>
      <trkpt lat="48.84772" lon="2.37388">
        <ele>72.9</ele>
        <time>2013-03-03T16:03:45.000Z</time>
      </trkpt>
      <trkpt lat="48.84773" lon="2.37382">
        <ele>72.2</ele>
        <time>2013-03-03T16:03:46.000Z</time>
      </trkpt>
      <trkpt lat="48.84772" lon="2.37376">
        <ele>71.7</ele>
        <time>2013-03-03T16:03:47.000Z</time>
      </trkpt>
      <trkpt lat="48.84771" lon="2.37371">
        <ele>71.6</ele>
        <time>2013-03-03T16:03:48.000Z</time>
      </trkpt>
      <trkpt lat="48.8477" lon="2.37365">
        <ele>70.9</ele>
        <time>2013-03-03T16:03:49.000Z</time>
      </trkpt>
      <trkpt lat="48.84767" lon="2.37359">
        <ele>71</ele>
        <time>2013-03-03T16:03:50.000Z</time>
      </trkpt>
      <trkpt lat="48.84764" lon="2.37353">
        <ele>70</ele>
        <time>2013-03-03T16:03:51.000Z</time>
      </trkpt>
      <trkpt lat="48.84761" lon="2.37348">
        <ele>70.2</ele>
        <time>2013-03-03T16:03:52.000Z</time>
      </trkpt>
      <trkpt lat="48.84758" lon="2.37343">
        <ele>69.3</ele>
        <time>2013-03-03T16:03:53.000Z</time>
      </trkpt>
      <trkpt lat="48.84755" lon="2.37338">
        <ele>69</ele>
        <time>2013-03-03T16:03:54.000Z</time>
      </trkpt>
      <trkpt lat="48.84752" lon="2.37333">
        <ele>68.5</ele>
        <time>2013-03-03T16:03:55.000Z</time>
      </trkpt>
      <trkpt lat="48.84749" lon="2.37329">
        <ele>68</ele>
        <time>2013-03-03T16:03:56.000Z</time>
      </trkpt>
      <trkpt lat="48.84746" lon="2.37324">
        <ele>67.9</ele>
        <time>2013-03-03T16:03:57.000Z</time>
      </trkpt>
      <trkpt lat="48.84743" lon="2.37319">
        <ele>67.7</ele>
        <time>2013-03-03T16:03:58.000Z</time>
      </trkpt>
      <trkpt lat="48.84741" lon="2.37315">
        <ele>69.3</ele>
        <time>2013-03-03T16:03:59.000Z</time>
      </trkpt>
      <trkpt lat="48.84738" lon="2.3731">
        <ele>69.4</ele>
        <time>2013-03-03T16:04:00.000Z</time>
      </trkpt>
      <trkpt lat="48.84735" lon="2.37306">
        <ele>69.9</ele>
        <time>2013-03-03T16:04:01.000Z</time>
      </trkpt>
      <trkpt lat="48.84732" lon="2.37301">
        <ele>70.2</ele>
        <time>2013-03-03T16:04:02.000Z</time>
      </trkpt>
      <trkpt lat="48.84727" lon="2.37292">
        <ele>71.3</ele>
        <time>2013-03-03T16:04:03.000Z</time>
      </trkpt>
      <trkpt lat="48.84724" lon="2.37288">
        <ele>70.9</ele>
        <time>2013-03-03T16:04:04.000Z</time>
      </trkpt>
      <trkpt lat="48.8472" lon="2.37283">
        <ele>71.2</ele>
        <time>2013-03-03T16:04:05.000Z</time>
      </trkpt>
      <trkpt lat="48.84717" lon="2.37276">
        <ele>71.4</ele>
        <time>2013-03-03T16:04:06.000Z</time>
      </trkpt>
      <trkpt lat="48.84714" lon="2.37271">
        <ele>71.2</ele>
        <time>2013-03-03T16:04:07.000Z</time>
      </trkpt>
      <trkpt lat="48.84712" lon="2.37265">
        <ele>71.1</ele>
        <time>2013-03-03T16:04:08.000Z</time>
      </trkpt>
      <trkpt lat="48.84709" lon="2.37262">
        <ele>71.1</ele>
        <time>2013-03-03T16:04:09.000Z</time>
      </trkpt>
      <trkpt lat="48.84708" lon="2.37261">
        <ele>70</ele>
        <time>2013-03-03T16:04:10.000Z</time>
      </trkpt>
      <trkpt lat="48.84704" lon="2.37259">
        <ele>69.9</ele>
        <time>2013-03-03T16:04:12.000Z</time>
      </trkpt>
      <trkpt lat="48.84702" lon="2.37257">
        <ele>68.9</ele>
        <time>2013-03-03T16:04:13.000Z</time>
      </trkpt>
      <trkpt lat="48.84698" lon="2.37255">
        <ele>67.5</ele>
        <time>2013-03-03T16:04:16.000Z</time>
      </trkpt>
      <trkpt lat="48.84699" lon="2.37251">
        <ele>67.1</ele>
        <time>2013-03-03T16:04:17.000Z</time>
      </trkpt>
      <trkpt lat="48.84698" lon="2.37246">
        <ele>66.2</ele>
        <time>2013-03-03T16:04:19.000Z</time>
      </trkpt>
      <trkpt lat="48.84697" lon="2.37243">
        <ele>66.6</ele>
        <time>2013-03-03T16:04:20.000Z</time>
      </trkpt>
      <trkpt lat="48.84695" lon="2.37238">
        <ele>65.6</ele>
        <time>2013-03-03T16:04:22.000Z</time>
      </trkpt>
      <trkpt lat="48.84695" lon="2.37234">
        <ele>65.4</ele>
        <time>2013-03-03T16:04:23.000Z</time>
      </trkpt>
      <trkpt lat="48.84694" lon="2.37229">
        <ele>63.4</ele>
        <time>2013-03-03T16:04:25.000Z</time>
      </trkpt>
      <trkpt lat="48.84694" lon="2.37226">
        <ele>62.8</ele>
        <time>2013-03-03T16:04:26.000Z</time>
      </trkpt>
      <trkpt lat="48.84693" lon="2.37219">
        <ele>64.2</ele>
        <time>2013-03-03T16:04:34.000Z</time>
      </trkpt>
      <trkpt lat="48.84693" lon="2.37219">
        <ele>64.7</ele>
        <time>2013-03-03T16:04:35.000Z</time>
      </trkpt>
      <trkpt lat="48.8469" lon="2.37215">
        <ele>66.6</ele>
        <time>2013-03-03T16:04:50.000Z</time>
      </trkpt>
      <trkpt lat="48.84688" lon="2.37214">
        <ele>66.8</ele>
        <time>2013-03-03T16:04:51.000Z</time>
      </trkpt>
      <trkpt lat="48.84686" lon="2.37211">
        <ele>67.4</ele>
        <time>2013-03-03T16:04:52.000Z</time>
      </trkpt>
      <trkpt lat="48.84684" lon="2.37209">
        <ele>67.8</ele>
        <time>2013-03-03T16:04:53.000Z</time>
      </trkpt>
      <trkpt lat="48.84682" lon="2.37206">
        <ele>68.3</ele>
        <time>2013-03-03T16:04:54.000Z</time>
      </trkpt>
      <trkpt lat="48.84681" lon="2.37204">
        <ele>68.1</ele>
        <time>2013-03-03T16:04:55.000Z</time>
      </trkpt>
      <trkpt lat="48.84679" lon="2.37201">
        <ele>69.4</ele>
        <time>2013-03-03T16:04:56.000Z</time>
      </trkpt>
      <trkpt lat="48.84677" lon="2.37199">
        <ele>70.4</ele>
        <time>2013-03-03T16:04:57.000Z</time>
      </trkpt>
      <trkpt lat="48.84675" lon="2.37196">
        <ele>71</ele>
        <time>2013-03-03T16:04:58.000Z</time>
      </trkpt>
      <trkpt lat="48.84674" lon="2.37194">
        <ele>71.7</ele>
        <time>2013-03-03T16:04:59.000Z</time>
      </trkpt>
      <trkpt lat="48.84671" lon="2.3719">
        <ele>73.7</ele>
        <time>2013-03-03T16:05:01.000Z</time>
      </trkpt>
      <trkpt lat="48.8467" lon="2.37189">
        <ele>73.9</ele>
        <time>2013-03-03T16:05:02.000Z</time>
      </trkpt>
      <trkpt lat="48.84673" lon="2.37185">
        <ele>74.3</ele>
        <time>2013-03-03T16:05:14.000Z</time>
      </trkpt>
      <trkpt lat="48.84673" lon="2.37185">
        <ele>75</ele>
        <time>2013-03-03T16:05:15.000Z</time>
      </trkpt>
      <trkpt lat="48.84678" lon="2.37183">
        <ele>74.6</ele>
        <time>2013-03-03T16:05:25.000Z</time>
      </trkpt>
      <trkpt lat="48.84679" lon="2.37183">
        <ele>73.8</ele>
        <time>2013-03-03T16:05:26.000Z</time>
      </trkpt>
      <trkpt lat="48.8468" lon="2.37178">
        <ele>76.2</ele>
        <time>2013-03-03T16:05:32.000Z</time>
      </trkpt>
      <trkpt lat="48.84681" lon="2.37176">
        <ele>76</ele>
        <time>2013-03-03T16:05:33.000Z</time>
      </trkpt>
      <trkpt lat="48.84684" lon="2.37173">
        <ele>76</ele>
        <time>2013-03-03T16:05:35.000Z</time>
      </trkpt>
      <trkpt lat="48.84685" lon="2.37172">
        <ele>76</ele>
        <time>2013-03-03T16:05:36.000Z</time>
      </trkpt>
      <trkpt lat="48.84694" lon="2.37151">
        <ele>73.9</ele>
        <time>2013-03-03T16:05:45.000Z</time>
      </trkpt>
      <trkpt lat="48.84694" lon="2.37145">
        <ele>73.9</ele>
        <time>2013-03-03T16:05:48.000Z</time>
      </trkpt>
      <trkpt lat="48.84695" lon="2.37143">
        <ele>74.7</ele>
        <time>2013-03-03T16:05:49.000Z</time>
      </trkpt>
      <trkpt lat="48.84696" lon="2.37139">
        <ele>76.2</ele>
        <time>2013-03-03T16:05:51.000Z</time>
      </trkpt>
      <trkpt lat="48.84697" lon="2.37136">
        <ele>76.8</ele>
        <time>2013-03-03T16:05:52.000Z</time>
      </trkpt>
      <trkpt lat="48.84698" lon="2.37131">
        <ele>77.6</ele>
        <time>2013-03-03T16:05:54.000Z</time>
      </trkpt>
      <trkpt lat="48.84698" lon="2.37128">
        <ele>78.8</ele>
        <time>2013-03-03T16:05:55.000Z</time>
      </trkpt>
      <trkpt lat="48.84698" lon="2.37123">
        <ele>81.1</ele>
        <time>2013-03-03T16:05:57.000Z</time>
      </trkpt>
      <trkpt lat="48.84697" lon="2.37121">
        <ele>81.1</ele>
        <time>2013-03-03T16:05:58.000Z</time>
      </trkpt>
      <trkpt lat="48.84697" lon="2.37115">
        <ele>81.4</ele>
        <time>2013-03-03T16:06:01.000Z</time>
      </trkpt>
      <trkpt lat="48.84696" lon="2.37114">
        <ele>81.6</ele>
        <time>2013-03-03T16:06:02.000Z</time>
      </trkpt>
      <trkpt lat="48.84695" lon="2.37109">
        <ele>82.7</ele>
        <time>2013-03-03T16:06:06.000Z</time>
      </trkpt>
      <trkpt lat="48.84695" lon="2.37107">
        <ele>82.8</ele>
        <time>2013-03-03T16:06:07.000Z</time>
      </trkpt>
      <trkpt lat="48.84693" lon="2.37103">
        <ele>83.4</ele>
        <time>2013-03-03T16:06:11.000Z</time>
      </trkpt>
      <trkpt lat="48.84692" lon="2.37102">
        <ele>82.8</ele>
        <time>2013-03-03T16:06:12.000Z</time>
      </trkpt>
      <trkpt lat="48.84688" lon="2.37099">
        <ele>82.4</ele>
        <time>2013-03-03T16:06:14.000Z</time>
      </trkpt>
      <trkpt lat="48.84686" lon="2.37097">
        <ele>83</ele>
        <time>2013-03-03T16:06:15.000Z</time>
      </trkpt>
      <trkpt lat="48.84684" lon="2.37093">
        <ele>82</ele>
        <time>2013-03-03T16:06:17.000Z</time>
      </trkpt>
      <trkpt lat="48.84684" lon="2.3709">
        <ele>81.6</ele>
        <time>2013-03-03T16:06:18.000Z</time>
      </trkpt>
      <trkpt lat="48.84682" lon="2.37085">
        <ele>82.1</ele>
        <time>2013-03-03T16:06:20.000Z</time>
      </trkpt>
      <trkpt lat="48.8468" lon="2.37082">
        <ele>82.4</ele>
        <time>2013-03-03T16:06:21.000Z</time>
      </trkpt>
      <trkpt lat="48.84678" lon="2.37079">
        <ele>82.2</ele>
        <time>2013-03-03T16:06:22.000Z</time>
      </trkpt>
      <trkpt lat="48.84677" lon="2.37076">
        <ele>81.8</ele>
        <time>2013-03-03T16:06:23.000Z</time>
      </trkpt>
      <trkpt lat="48.84675" lon="2.37072">
        <ele>82.2</ele>
        <time>2013-03-03T16:06:24.000Z</time>
      </trkpt>
      <trkpt lat="48.84674" lon="2.3707">
        <ele>82.1</ele>
        <time>2013-03-03T16:06:25.000Z</time>
      </trkpt>
      <trkpt lat="48.84672" lon="2.37067">
        <ele>84.1</ele>
        <time>2013-03-03T16:06:26.000Z</time>
      </trkpt>
      <trkpt lat="48.8467" lon="2.37065">
        <ele>84.2</ele>
        <time>2013-03-03T16:06:27.000Z</time>
      </trkpt>
      <trkpt lat="48.84668" lon="2.37061">
        <ele>83.4</ele>
        <time>2013-03-03T16:06:29.000Z</time>
      </trkpt>
      <trkpt lat="48.84666" lon="2.37058">
        <ele>82.8</ele>
        <time>2013-03-03T16:06:31.083Z</time>
      </trkpt>
      <trkpt lat="48.84665" lon="2.37052">
        <ele>82.4</ele>
        <time>2013-03-03T16:06:34.000Z</time>
      </trkpt>
      <trkpt lat="48.84664" lon="2.3705">
        <ele>81.9</ele>
        <time>2013-03-03T16:06:35.000Z</time>
      </trkpt>
      <trkpt lat="48.84662" lon="2.37045">
        <ele>82.7</ele>
        <time>2013-03-03T16:06:37.000Z</time>
      </trkpt>
      <trkpt lat="48.8466" lon="2.37041">
        <ele>82.7</ele>
        <time>2013-03-03T16:06:38.000Z</time>
      </trkpt>
      <trkpt lat="48.84658" lon="2.37037">
        <ele>82.9</ele>
        <time>2013-03-03T16:06:39.000Z</time>
      </trkpt>
      <trkpt lat="48.84656" lon="2.37033">
        <ele>83.6</ele>
        <time>2013-03-03T16:06:40.000Z</time>
      </trkpt>
      <trkpt lat="48.84654" lon="2.3703">
        <ele>84.5</ele>
        <time>2013-03-03T16:06:41.000Z</time>
      </trkpt>
      <trkpt lat="48.84651" lon="2.37026">
        <ele>84.8</ele>
        <time>2013-03-03T16:06:42.000Z</time>
      </trkpt>
      <trkpt lat="48.84649" lon="2.37022">
        <ele>86.2</ele>
        <time>2013-03-03T16:06:43.000Z</time>
      </trkpt>
      <trkpt lat="48.84646" lon="2.37018">
        <ele>88.3</ele>
        <time>2013-03-03T16:06:44.000Z</time>
      </trkpt>
      <trkpt lat="48.84644" lon="2.37014">
        <ele>88.5</ele>
        <time>2013-03-03T16:06:45.000Z</time>
      </trkpt>
      <trkpt lat="48.84643" lon="2.3701">
        <ele>90.6</ele>
        <time>2013-03-03T16:06:46.000Z</time>
      </trkpt>
      <trkpt lat="48.84644" lon="2.37004">
        <ele>91.2</ele>
        <time>2013-03-03T16:06:48.000Z</time>
      </trkpt>
      <trkpt lat="48.84645" lon="2.37002">
        <ele>90.4</ele>
        <time>2013-03-03T16:06:49.000Z</time>
      </trkpt>
      <trkpt lat="48.84649" lon="2.36998">
        <ele>90.9</ele>
        <time>2013-03-03T16:06:51.000Z</time>
      </trkpt>
      <trkpt lat="48.8465" lon="2.36996">
        <ele>90.3</ele>
        <time>2013-03-03T16:06:52.000Z</time>
      </trkpt>
      <trkpt lat="48.84652" lon="2.36994">
        <ele>90.2</ele>
        <time>2013-03-03T16:06:53.000Z</time>
      </trkpt>
      <trkpt lat="48.84654" lon="2.36992">
        <ele>89.6</ele>
        <time>2013-03-03T16:06:54.000Z</time>
      </trkpt>
      <trkpt lat="48.84656" lon="2.3699">
        <ele>89.1</ele>
        <time>2013-03-03T16:06:55.000Z</time>
      </trkpt>
      <trkpt lat="48.84659" lon="2.36987">
        <ele>87.7</ele>
        <time>2013-03-03T16:06:56.000Z</time>
      </trkpt>
      <trkpt lat="48.84661" lon="2.36984">
        <ele>87</ele>
        <time>2013-03-03T16:06:57.000Z</time>
      </trkpt>
      <trkpt lat="48.84663" lon="2.36981">
        <ele>85.8</ele>
        <time>2013-03-03T16:06:58.000Z</time>
      </trkpt>
      <trkpt lat="48.84665" lon="2.36978">
        <ele>85.7</ele>
        <time>2013-03-03T16:06:59.000Z</time>
      </trkpt>
      <trkpt lat="48.84667" lon="2.36976">
        <ele>85.7</ele>
        <time>2013-03-03T16:07:00.000Z</time>
      </trkpt>
      <trkpt lat="48.84669" lon="2.36972">
        <ele>86.2</ele>
        <time>2013-03-03T16:07:01.000Z</time>
      </trkpt>
      <trkpt lat="48.8467" lon="2.36969">
        <ele>86.5</ele>
        <time>2013-03-03T16:07:02.000Z</time>
      </trkpt>
      <trkpt lat="48.84672" lon="2.36967">
        <ele>87.6</ele>
        <time>2013-03-03T16:07:03.000Z</time>
      </trkpt>
      <trkpt lat="48.84674" lon="2.36964">
        <ele>87.7</ele>
        <time>2013-03-03T16:07:04.000Z</time>
      </trkpt>
      <trkpt lat="48.84676" lon="2.36961">
        <ele>88.1</ele>
        <time>2013-03-03T16:07:05.000Z</time>
      </trkpt>
      <trkpt lat="48.84677" lon="2.36959">
        <ele>88.2</ele>
        <time>2013-03-03T16:07:06.000Z</time>
      </trkpt>
      <trkpt lat="48.84681" lon="2.36956">
        <ele>89.6</ele>
        <time>2013-03-03T16:07:08.000Z</time>
      </trkpt>
      <trkpt lat="48.84681" lon="2.36956">
        <ele>88.5</ele>
        <time>2013-03-03T16:07:09.000Z</time>
      </trkpt>
      <trkpt lat="48.84681" lon="2.36951">
        <ele>87.5</ele>
        <time>2013-03-03T16:07:28.000Z</time>
      </trkpt>
      <trkpt lat="48.8468" lon="2.36948">
        <ele>87.2</ele>
        <time>2013-03-03T16:07:29.000Z</time>
      </trkpt>
      <trkpt lat="48.84678" lon="2.36942">
        <ele>87</ele>
        <time>2013-03-03T16:07:31.101Z</time>
      </trkpt>
      <trkpt lat="48.84678" lon="2.3694">
        <ele>81.5</ele>
        <time>2013-03-03T16:07:32.000Z</time>
      </trkpt>
      <trkpt lat="48.84675" lon="2.36936">
        <ele>77.7</ele>
        <time>2013-03-03T16:07:34.000Z</time>
      </trkpt>
      <trkpt lat="48.84674" lon="2.36934">
        <ele>76.6</ele>
        <time>2013-03-03T16:07:35.000Z</time>
      </trkpt>
      <trkpt lat="48.84672" lon="2.36931">
        <ele>76.2</ele>
        <time>2013-03-03T16:07:36.000Z</time>
      </trkpt>
      <trkpt lat="48.84671" lon="2.36925">
        <ele>76.4</ele>
        <time>2013-03-03T16:07:37.000Z</time>
      </trkpt>
      <trkpt lat="48.84668" lon="2.3692">
        <ele>76.1</ele>
        <time>2013-03-03T16:07:38.000Z</time>
      </trkpt>
      <trkpt lat="48.84666" lon="2.36915">
        <ele>75.8</ele>
        <time>2013-03-03T16:07:39.000Z</time>
      </trkpt>
      <trkpt lat="48.84664" lon="2.3691">
        <ele>75.4</ele>
        <time>2013-03-03T16:07:40.000Z</time>
      </trkpt>
      <trkpt lat="48.84662" lon="2.36905">
        <ele>75</ele>
        <time>2013-03-03T16:07:41.000Z</time>
      </trkpt>
      <trkpt lat="48.8466" lon="2.36901">
        <ele>74.7</ele>
        <time>2013-03-03T16:07:42.000Z</time>
      </trkpt>
      <trkpt lat="48.84657" lon="2.36896">
        <ele>74.5</ele>
        <time>2013-03-03T16:07:43.000Z</time>
      </trkpt>
      <trkpt lat="48.84654" lon="2.36891">
        <ele>74.2</ele>
        <time>2013-03-03T16:07:44.000Z</time>
      </trkpt>
      <trkpt lat="48.84651" lon="2.36884">
        <ele>73.6</ele>
        <time>2013-03-03T16:07:45.000Z</time>
      </trkpt>
      <trkpt lat="48.84647" lon="2.36878">
        <ele>74.2</ele>
        <time>2013-03-03T16:07:46.000Z</time>
      </trkpt>
      <trkpt lat="48.84639" lon="2.36866">
        <ele>73.4</ele>
        <time>2013-03-03T16:07:47.000Z</time>
      </trkpt>
      <trkpt lat="48.84635" lon="2.36859">
        <ele>82.6</ele>
        <time>2013-03-03T16:07:48.000Z</time>
      </trkpt>
      <trkpt lat="48.84631" lon="2.36854">
        <ele>80</ele>
        <time>2013-03-03T16:07:49.000Z</time>
      </trkpt>
      <trkpt lat="48.84627" lon="2.36848">
        <ele>77.6</ele>
        <time>2013-03-03T16:07:50.000Z</time>
      </trkpt>
      <trkpt lat="48.84623" lon="2.36842">
        <ele>76.1</ele>
        <time>2013-03-03T16:07:51.000Z</time>
      </trkpt>
      <trkpt lat="48.84618" lon="2.36838">
        <ele>75</ele>
        <time>2013-03-03T16:07:52.000Z</time>
      </trkpt>
      <trkpt lat="48.84616" lon="2.36833">
        <ele>74</ele>
        <time>2013-03-03T16:07:53.000Z</time>
      </trkpt>
      <trkpt lat="48.84612" lon="2.36826">
        <ele>74.4</ele>
        <time>2013-03-03T16:07:54.000Z</time>
      </trkpt>
      <trkpt lat="48.84609" lon="2.36823">
        <ele>74.3</ele>
        <time>2013-03-03T16:07:55.000Z</time>
      </trkpt>
      <trkpt lat="48.84605" lon="2.36818">
        <ele>79.1</ele>
        <time>2013-03-03T16:07:56.000Z</time>
      </trkpt>
      <trkpt lat="48.84601" lon="2.36814">
        <ele>78.4</ele>
        <time>2013-03-03T16:07:57.000Z</time>
      </trkpt>
      <trkpt lat="48.846" lon="2.3681">
        <ele>76.7</ele>
        <time>2013-03-03T16:07:58.000Z</time>
      </trkpt>
      <trkpt lat="48.84596" lon="2.36805">
        <ele>78.9</ele>
        <time>2013-03-03T16:07:59.000Z</time>
      </trkpt>
      <trkpt lat="48.84591" lon="2.368">
        <ele>81.2</ele>
        <time>2013-03-03T16:08:00.000Z</time>
      </trkpt>
      <trkpt lat="48.84587" lon="2.36797">
        <ele>81.2</ele>
        <time>2013-03-03T16:08:02.000Z</time>
      </trkpt>
      <trkpt lat="48.84586" lon="2.36795">
        <ele>82.4</ele>
        <time>2013-03-03T16:08:03.000Z</time>
      </trkpt>
      <trkpt lat="48.84585" lon="2.36789">
        <ele>84.2</ele>
        <time>2013-03-03T16:08:15.000Z</time>
      </trkpt>
      <trkpt lat="48.84585" lon="2.36789">
        <ele>84.1</ele>
        <time>2013-03-03T16:08:16.000Z</time>
      </trkpt>
      <trkpt lat="48.84581" lon="2.36785">
        <ele>87</ele>
        <time>2013-03-03T16:08:45.000Z</time>
      </trkpt>
      <trkpt lat="48.84581" lon="2.36782">
        <ele>87.3</ele>
        <time>2013-03-03T16:08:46.000Z</time>
      </trkpt>
      <trkpt lat="48.84583" lon="2.36777">
        <ele>86.5</ele>
        <time>2013-03-03T16:09:25.000Z</time>
      </trkpt>
      <trkpt lat="48.84584" lon="2.36776">
        <ele>87</ele>
        <time>2013-03-03T16:09:26.000Z</time>
      </trkpt>
      <trkpt lat="48.84586" lon="2.36772">
        <ele>87.5</ele>
        <time>2013-03-03T16:09:28.000Z</time>
      </trkpt>
      <trkpt lat="48.84587" lon="2.36768">
        <ele>89.6</ele>
        <time>2013-03-03T16:09:29.000Z</time>
      </trkpt>
      <trkpt lat="48.84589" lon="2.36764">
        <ele>89.7</ele>
        <time>2013-03-03T16:09:30.766Z</time>
      </trkpt>
      <trkpt lat="48.84591" lon="2.36761">
        <ele>87.7</ele>
        <time>2013-03-03T16:09:32.000Z</time>
      </trkpt>
      <trkpt lat="48.84594" lon="2.36758">
        <ele>86.4</ele>
        <time>2013-03-03T16:09:33.000Z</time>
      </trkpt>
      <trkpt lat="48.84596" lon="2.36757">
        <ele>85.9</ele>
        <time>2013-03-03T16:09:34.000Z</time>
      </trkpt>
      <trkpt lat="48.84599" lon="2.36754">
        <ele>85.8</ele>
        <time>2013-03-03T16:09:35.000Z</time>
      </trkpt>
      <trkpt lat="48.84602" lon="2.36752">
        <ele>84</ele>
        <time>2013-03-03T16:09:36.000Z</time>
      </trkpt>
      <trkpt lat="48.84605" lon="2.36749">
        <ele>83.4</ele>
        <time>2013-03-03T16:09:37.000Z</time>
      </trkpt>
      <trkpt lat="48.84608" lon="2.36745">
        <ele>82.7</ele>
        <time>2013-03-03T16:09:38.000Z</time>
      </trkpt>
      <trkpt lat="48.8461" lon="2.36741">
        <ele>82.5</ele>
        <time>2013-03-03T16:09:39.000Z</time>
      </trkpt>
      <trkpt lat="48.84613" lon="2.36738">
        <ele>82.8</ele>
        <time>2013-03-03T16:09:40.000Z</time>
      </trkpt>
      <trkpt lat="48.84616" lon="2.36733">
        <ele>82.8</ele>
        <time>2013-03-03T16:09:41.000Z</time>
      </trkpt>
      <trkpt lat="48.84618" lon="2.36729">
        <ele>83.3</ele>
        <time>2013-03-03T16:09:42.000Z</time>
      </trkpt>
      <trkpt lat="48.84621" lon="2.36725">
        <ele>82.5</ele>
        <time>2013-03-03T16:09:43.000Z</time>
      </trkpt>
      <trkpt lat="48.84624" lon="2.3672">
        <ele>82.7</ele>
        <time>2013-03-03T16:09:44.000Z</time>
      </trkpt>
      <trkpt lat="48.84627" lon="2.36716">
        <ele>82.4</ele>
        <time>2013-03-03T16:09:45.000Z</time>
      </trkpt>
      <trkpt lat="48.84629" lon="2.36711">
        <ele>82.3</ele>
        <time>2013-03-03T16:09:46.000Z</time>
      </trkpt>
      <trkpt lat="48.84632" lon="2.36707">
        <ele>82</ele>
        <time>2013-03-03T16:09:47.000Z</time>
      </trkpt>
      <trkpt lat="48.84635" lon="2.36703">
        <ele>82.6</ele>
        <time>2013-03-03T16:09:48.000Z</time>
      </trkpt>
      <trkpt lat="48.84638" lon="2.367">
        <ele>81.1</ele>
        <time>2013-03-03T16:09:49.000Z</time>
      </trkpt>
      <trkpt lat="48.84641" lon="2.36697">
        <ele>80.3</ele>
        <time>2013-03-03T16:09:50.000Z</time>
      </trkpt>
      <trkpt lat="48.84643" lon="2.36695">
        <ele>80.3</ele>
        <time>2013-03-03T16:09:51.000Z</time>
      </trkpt>
      <trkpt lat="48.84645" lon="2.36695">
        <ele>79.9</ele>
        <time>2013-03-03T16:09:52.000Z</time>
      </trkpt>
      <trkpt lat="48.84648" lon="2.36694">
        <ele>81.5</ele>
        <time>2013-03-03T16:10:03.000Z</time>
      </trkpt>
      <trkpt lat="48.8465" lon="2.36692">
        <ele>80.8</ele>
        <time>2013-03-03T16:10:04.000Z</time>
      </trkpt>
      <trkpt lat="48.84652" lon="2.36689">
        <ele>80.7</ele>
        <time>2013-03-03T16:10:05.000Z</time>
      </trkpt>
      <trkpt lat="48.84654" lon="2.36686">
        <ele>81.3</ele>
        <time>2013-03-03T16:10:06.000Z</time>
      </trkpt>
      <trkpt lat="48.84656" lon="2.36684">
        <ele>82</ele>
        <time>2013-03-03T16:10:07.000Z</time>
      </trkpt>
      <trkpt lat="48.84658" lon="2.36681">
        <ele>80.7</ele>
        <time>2013-03-03T16:10:08.000Z</time>
      </trkpt>
      <trkpt lat="48.84659" lon="2.36679">
        <ele>79.4</ele>
        <time>2013-03-03T16:10:09.000Z</time>
      </trkpt>
      <trkpt lat="48.84661" lon="2.36677">
        <ele>78.5</ele>
        <time>2013-03-03T16:10:10.000Z</time>
      </trkpt>
      <trkpt lat="48.84663" lon="2.36674">
        <ele>79</ele>
        <time>2013-03-03T16:10:11.000Z</time>
      </trkpt>
      <trkpt lat="48.84665" lon="2.36672">
        <ele>79.2</ele>
        <time>2013-03-03T16:10:12.000Z</time>
      </trkpt>
      <trkpt lat="48.84668" lon="2.36668">
        <ele>79.1</ele>
        <time>2013-03-03T16:10:13.000Z</time>
      </trkpt>
      <trkpt lat="48.8467" lon="2.36663">
        <ele>79.3</ele>
        <time>2013-03-03T16:10:14.000Z</time>
      </trkpt>
      <trkpt lat="48.84673" lon="2.36659">
        <ele>79.7</ele>
        <time>2013-03-03T16:10:15.000Z</time>
      </trkpt>
      <trkpt lat="48.84675" lon="2.36655">
        <ele>81.2</ele>
        <time>2013-03-03T16:10:16.000Z</time>
      </trkpt>
      <trkpt lat="48.84678" lon="2.36652">
        <ele>81.3</ele>
        <time>2013-03-03T16:10:17.000Z</time>
      </trkpt>
      <trkpt lat="48.8468" lon="2.36646">
        <ele>82</ele>
        <time>2013-03-03T16:10:18.000Z</time>
      </trkpt>
      <trkpt lat="48.84683" lon="2.36643">
        <ele>81.9</ele>
        <time>2013-03-03T16:10:19.000Z</time>
      </trkpt>
      <trkpt lat="48.84685" lon="2.36638">
        <ele>82.7</ele>
        <time>2013-03-03T16:10:20.000Z</time>
      </trkpt>
      <trkpt lat="48.84687" lon="2.36635">
        <ele>82.7</ele>
        <time>2013-03-03T16:10:21.000Z</time>
      </trkpt>
      <trkpt lat="48.84689" lon="2.36631">
        <ele>83</ele>
        <time>2013-03-03T16:10:22.000Z</time>
      </trkpt>
      <trkpt lat="48.84692" lon="2.36627">
        <ele>83</ele>
        <time>2013-03-03T16:10:23.000Z</time>
      </trkpt>
      <trkpt lat="48.84694" lon="2.36623">
        <ele>83.5</ele>
        <time>2013-03-03T16:10:24.000Z</time>
      </trkpt>
      <trkpt lat="48.84696" lon="2.36619">
        <ele>83.8</ele>
        <time>2013-03-03T16:10:25.000Z</time>
      </trkpt>
      <trkpt lat="48.84699" lon="2.36615">
        <ele>84</ele>
        <time>2013-03-03T16:10:26.000Z</time>
      </trkpt>
      <trkpt lat="48.84701" lon="2.36612">
        <ele>83.6</ele>
        <time>2013-03-03T16:10:27.000Z</time>
      </trkpt>
      <trkpt lat="48.84704" lon="2.36609">
        <ele>84.3</ele>
        <time>2013-03-03T16:10:28.000Z</time>
      </trkpt>
      <trkpt lat="48.84707" lon="2.36606">
        <ele>83.6</ele>
        <time>2013-03-03T16:10:29.000Z</time>
      </trkpt>
      <trkpt lat="48.84711" lon="2.366">
        <ele>83.1</ele>
        <time>2013-03-03T16:10:30.846Z</time>
      </trkpt>
      <trkpt lat="48.84715" lon="2.36597">
        <ele>82.3</ele>
        <time>2013-03-03T16:10:32.000Z</time>
      </trkpt>
      <trkpt lat="48.84717" lon="2.36594">
        <ele>82</ele>
        <time>2013-03-03T16:10:33.000Z</time>
      </trkpt>
      <trkpt lat="48.8472" lon="2.36591">
        <ele>82.4</ele>
        <time>2013-03-03T16:10:34.000Z</time>
      </trkpt>
      <trkpt lat="48.84722" lon="2.36588">
        <ele>82.1</ele>
        <time>2013-03-03T16:10:35.000Z</time>
      </trkpt>
      <trkpt lat="48.84725" lon="2.36585">
        <ele>82.2</ele>
        <time>2013-03-03T16:10:36.000Z</time>
      </trkpt>
      <trkpt lat="48.84728" lon="2.36581">
        <ele>82</ele>
        <time>2013-03-03T16:10:37.000Z</time>
      </trkpt>
      <trkpt lat="48.8473" lon="2.36578">
        <ele>81.9</ele>
        <time>2013-03-03T16:10:38.000Z</time>
      </trkpt>
      <trkpt lat="48.84733" lon="2.36575">
        <ele>81.6</ele>
        <time>2013-03-03T16:10:39.000Z</time>
      </trkpt>
      <trkpt lat="48.84735" lon="2.36572">
        <ele>81</ele>
        <time>2013-03-03T16:10:40.000Z</time>
      </trkpt>
      <trkpt lat="48.84738" lon="2.36569">
        <ele>81.2</ele>
        <time>2013-03-03T16:10:41.000Z</time>
      </trkpt>
      <trkpt lat="48.8474" lon="2.36566">
        <ele>81.1</ele>
        <time>2013-03-03T16:10:43.000Z</time>
      </trkpt>
      <trkpt lat="48.84742" lon="2.36565">
        <ele>81.4</ele>
        <time>2013-03-03T16:10:44.000Z</time>
      </trkpt>
      <trkpt lat="48.84742" lon="2.3657">
        <ele>80.3</ele>
        <time>2013-03-03T16:10:53.000Z</time>
      </trkpt>
      <trkpt lat="48.84742" lon="2.36573">
        <ele>80.4</ele>
        <time>2013-03-03T16:10:54.000Z</time>
      </trkpt>
      <trkpt lat="48.8474" lon="2.36577">
        <ele>79.8</ele>
        <time>2013-03-03T16:10:56.000Z</time>
      </trkpt>
      <trkpt lat="48.8474" lon="2.3658">
        <ele>78.8</ele>
        <time>2013-03-03T16:10:57.000Z</time>
      </trkpt>
      <trkpt lat="48.84739" lon="2.36584">
        <ele>78.9</ele>
        <time>2013-03-03T16:10:59.000Z</time>
      </trkpt>
      <trkpt lat="48.84739" lon="2.36586">
        <ele>79.4</ele>
        <time>2013-03-03T16:11:00.000Z</time>
      </trkpt>
      <trkpt lat="48.84735" lon="2.36591">
        <ele>79.7</ele>
        <time>2013-03-03T16:11:14.000Z</time>
      </trkpt>
      <trkpt lat="48.84735" lon="2.36591">
        <ele>79.9</ele>
        <time>2013-03-03T16:11:15.000Z</time>
      </trkpt>
      <trkpt lat="48.84736" lon="2.36587">
        <ele>79.7</ele>
        <time>2013-03-03T16:11:42.000Z</time>
      </trkpt>
      <trkpt lat="48.84738" lon="2.36585">
        <ele>80.1</ele>
        <time>2013-03-03T16:11:43.000Z</time>
      </trkpt>
      <trkpt lat="48.8474" lon="2.36581">
        <ele>79.7</ele>
        <time>2013-03-03T16:11:44.000Z</time>
      </trkpt>
      <trkpt lat="48.84743" lon="2.36576">
        <ele>80</ele>
        <time>2013-03-03T16:11:45.000Z</time>
      </trkpt>
      <trkpt lat="48.84745" lon="2.36571">
        <ele>79.9</ele>
        <time>2013-03-03T16:11:46.000Z</time>
      </trkpt>
      <trkpt lat="48.84748" lon="2.36566">
        <ele>79.3</ele>
        <time>2013-03-03T16:11:47.000Z</time>
      </trkpt>
      <trkpt lat="48.8475" lon="2.36561">
        <ele>80.1</ele>
        <time>2013-03-03T16:11:48.000Z</time>
      </trkpt>
      <trkpt lat="48.84752" lon="2.36556">
        <ele>79.9</ele>
        <time>2013-03-03T16:11:49.000Z</time>
      </trkpt>
      <trkpt lat="48.84755" lon="2.36551">
        <ele>79.8</ele>
        <time>2013-03-03T16:11:50.000Z</time>
      </trkpt>
      <trkpt lat="48.84757" lon="2.36547">
        <ele>79.8</ele>
        <time>2013-03-03T16:11:51.000Z</time>
      </trkpt>
      <trkpt lat="48.84759" lon="2.36542">
        <ele>79.5</ele>
        <time>2013-03-03T16:11:52.000Z</time>
      </trkpt>
      <trkpt lat="48.84762" lon="2.36538">
        <ele>79.7</ele>
        <time>2013-03-03T16:11:53.000Z</time>
      </trkpt>
      <trkpt lat="48.84765" lon="2.36534">
        <ele>79.6</ele>
        <time>2013-03-03T16:11:54.000Z</time>
      </trkpt>
      <trkpt lat="48.84768" lon="2.36531">
        <ele>79.5</ele>
        <time>2013-03-03T16:11:55.000Z</time>
      </trkpt>
      <trkpt lat="48.8477" lon="2.36527">
        <ele>79.1</ele>
        <time>2013-03-03T16:11:56.000Z</time>
      </trkpt>
      <trkpt lat="48.84773" lon="2.36524">
        <ele>79.1</ele>
        <time>2013-03-03T16:11:57.000Z</time>
      </trkpt>
      <trkpt lat="48.84776" lon="2.36521">
        <ele>78.4</ele>
        <time>2013-03-03T16:11:58.000Z</time>
      </trkpt>
      <trkpt lat="48.84779" lon="2.36517">
        <ele>78.2</ele>
        <time>2013-03-03T16:11:59.000Z</time>
      </trkpt>
      <trkpt lat="48.84783" lon="2.36514">
        <ele>79</ele>
        <time>2013-03-03T16:12:00.000Z</time>
      </trkpt>
      <trkpt lat="48.84786" lon="2.36512">
        <ele>77.4</ele>
        <time>2013-03-03T16:12:01.000Z</time>
      </trkpt>
      <trkpt lat="48.84789" lon="2.36509">
        <ele>77.7</ele>
        <time>2013-03-03T16:12:02.000Z</time>
      </trkpt>
      <trkpt lat="48.84793" lon="2.36508">
        <ele>78.3</ele>
        <time>2013-03-03T16:12:03.000Z</time>
      </trkpt>
      <trkpt lat="48.84796" lon="2.36506">
        <ele>78.7</ele>
        <time>2013-03-03T16:12:04.000Z</time>
      </trkpt>
      <trkpt lat="48.848" lon="2.36504">
        <ele>78.6</ele>
        <time>2013-03-03T16:12:05.000Z</time>
      </trkpt>
      <trkpt lat="48.84803" lon="2.36503">
        <ele>78.8</ele>
        <time>2013-03-03T16:12:06.000Z</time>
      </trkpt>
      <trkpt lat="48.84807" lon="2.36501">
        <ele>79.4</ele>
        <time>2013-03-03T16:12:07.000Z</time>
      </trkpt>
      <trkpt lat="48.8481" lon="2.36499">
        <ele>79.1</ele>
        <time>2013-03-03T16:12:08.000Z</time>
      </trkpt>
      <trkpt lat="48.84814" lon="2.36497">
        <ele>78.1</ele>
        <time>2013-03-03T16:12:09.000Z</time>
      </trkpt>
      <trkpt lat="48.84817" lon="2.36495">
        <ele>78.2</ele>
        <time>2013-03-03T16:12:10.000Z</time>
      </trkpt>
      <trkpt lat="48.84821" lon="2.36493">
        <ele>77.9</ele>
        <time>2013-03-03T16:12:11.000Z</time>
      </trkpt>
      <trkpt lat="48.84824" lon="2.36491">
        <ele>77.7</ele>
        <time>2013-03-03T16:12:12.000Z</time>
      </trkpt>
      <trkpt lat="48.84828" lon="2.36489">
        <ele>77.9</ele>
        <time>2013-03-03T16:12:13.000Z</time>
      </trkpt>
      <trkpt lat="48.84832" lon="2.36487">
        <ele>78.1</ele>
        <time>2013-03-03T16:12:14.000Z</time>
      </trkpt>
      <trkpt lat="48.84835" lon="2.36484">
        <ele>77.8</ele>
        <time>2013-03-03T16:12:15.000Z</time>
      </trkpt>
      <trkpt lat="48.84838" lon="2.36481">
        <ele>77.4</ele>
        <time>2013-03-03T16:12:16.000Z</time>
      </trkpt>
      <trkpt lat="48.84841" lon="2.36478">
        <ele>77.8</ele>
        <time>2013-03-03T16:12:17.000Z</time>
      </trkpt>
      <trkpt lat="48.84844" lon="2.36476">
        <ele>78.1</ele>
        <time>2013-03-03T16:12:18.000Z</time>
      </trkpt>
      <trkpt lat="48.84847" lon="2.36474">
        <ele>78.8</ele>
        <time>2013-03-03T16:12:19.000Z</time>
      </trkpt>
      <trkpt lat="48.84851" lon="2.36473">
        <ele>78.2</ele>
        <time>2013-03-03T16:12:20.000Z</time>
      </trkpt>
      <trkpt lat="48.84854" lon="2.36471">
        <ele>77.4</ele>
        <time>2013-03-03T16:12:21.000Z</time>
      </trkpt>
      <trkpt lat="48.84858" lon="2.36469">
        <ele>77.3</ele>
        <time>2013-03-03T16:12:22.000Z</time>
      </trkpt>
      <trkpt lat="48.84861" lon="2.36467">
        <ele>77.4</ele>
        <time>2013-03-03T16:12:23.000Z</time>
      </trkpt>
      <trkpt lat="48.84865" lon="2.36465">
        <ele>77.8</ele>
        <time>2013-03-03T16:12:24.000Z</time>
      </trkpt>
      <trkpt lat="48.84868" lon="2.36463">
        <ele>76.3</ele>
        <time>2013-03-03T16:12:25.000Z</time>
      </trkpt>
      <trkpt lat="48.84871" lon="2.3646">
        <ele>76.2</ele>
        <time>2013-03-03T16:12:26.000Z</time>
      </trkpt>
      <trkpt lat="48.84874" lon="2.36458">
        <ele>76.2</ele>
        <time>2013-03-03T16:12:27.000Z</time>
      </trkpt>
      <trkpt lat="48.84876" lon="2.36455">
        <ele>76.9</ele>
        <time>2013-03-03T16:12:28.000Z</time>
      </trkpt>
      <trkpt lat="48.84879" lon="2.36453">
        <ele>77.5</ele>
        <time>2013-03-03T16:12:29.000Z</time>
      </trkpt>
      <trkpt lat="48.84884" lon="2.36449">
        <ele>77.5</ele>
        <time>2013-03-03T16:12:30.849Z</time>
      </trkpt>
      <trkpt lat="48.84887" lon="2.36448">
        <ele>77.4</ele>
        <time>2013-03-03T16:12:32.000Z</time>
      </trkpt>
      <trkpt lat="48.8489" lon="2.36447">
        <ele>77</ele>
        <time>2013-03-03T16:12:33.000Z</time>
      </trkpt>
      <trkpt lat="48.84894" lon="2.36445">
        <ele>75.3</ele>
        <time>2013-03-03T16:12:34.000Z</time>
      </trkpt>
      <trkpt lat="48.84897" lon="2.36442">
        <ele>76.7</ele>
        <time>2013-03-03T16:12:35.000Z</time>
      </trkpt>
      <trkpt lat="48.849" lon="2.36439">
        <ele>76.5</ele>
        <time>2013-03-03T16:12:36.000Z</time>
      </trkpt>
      <trkpt lat="48.84904" lon="2.36435">
        <ele>75.2</ele>
        <time>2013-03-03T16:12:37.000Z</time>
      </trkpt>
      <trkpt lat="48.84908" lon="2.36431">
        <ele>73.6</ele>
        <time>2013-03-03T16:12:38.000Z</time>
      </trkpt>
      <trkpt lat="48.84912" lon="2.36427">
        <ele>69.8</ele>
        <time>2013-03-03T16:12:39.000Z</time>
      </trkpt>
      <trkpt lat="48.84917" lon="2.36423">
        <ele>71.4</ele>
        <time>2013-03-03T16:12:40.000Z</time>
      </trkpt>
      <trkpt lat="48.84922" lon="2.36421">
        <ele>73.4</ele>
        <time>2013-03-03T16:12:41.000Z</time>
      </trkpt>
      <trkpt lat="48.84926" lon="2.36419">
        <ele>73.7</ele>
        <time>2013-03-03T16:12:42.000Z</time>
      </trkpt>
      <trkpt lat="48.84934" lon="2.36412">
        <ele>74.8</ele>
        <time>2013-03-03T16:12:43.000Z</time>
      </trkpt>
      <trkpt lat="48.84938" lon="2.36408">
        <ele>76.1</ele>
        <time>2013-03-03T16:12:44.000Z</time>
      </trkpt>
      <trkpt lat="48.84942" lon="2.36405">
        <ele>75.8</ele>
        <time>2013-03-03T16:12:45.000Z</time>
      </trkpt>
      <trkpt lat="48.84946" lon="2.36402">
        <ele>76.4</ele>
        <time>2013-03-03T16:12:46.000Z</time>
      </trkpt>
      <trkpt lat="48.8495" lon="2.36402">
        <ele>76.5</ele>
        <time>2013-03-03T16:12:47.000Z</time>
      </trkpt>
      <trkpt lat="48.84955" lon="2.36401">
        <ele>76.4</ele>
        <time>2013-03-03T16:12:48.000Z</time>
      </trkpt>
      <trkpt lat="48.84958" lon="2.36394">
        <ele>77</ele>
        <time>2013-03-03T16:12:49.000Z</time>
      </trkpt>
      <trkpt lat="48.84962" lon="2.36391">
        <ele>77</ele>
        <time>2013-03-03T16:12:50.000Z</time>
      </trkpt>
      <trkpt lat="48.84965" lon="2.36388">
        <ele>76.5</ele>
        <time>2013-03-03T16:12:51.000Z</time>
      </trkpt>
      <trkpt lat="48.84967" lon="2.36384">
        <ele>74.8</ele>
        <time>2013-03-03T16:12:52.000Z</time>
      </trkpt>
      <trkpt lat="48.8497" lon="2.36381">
        <ele>75.5</ele>
        <time>2013-03-03T16:12:53.000Z</time>
      </trkpt>
      <trkpt lat="48.84974" lon="2.36378">
        <ele>77.2</ele>
        <time>2013-03-03T16:12:54.000Z</time>
      </trkpt>
      <trkpt lat="48.84978" lon="2.36374">
        <ele>76</ele>
        <time>2013-03-03T16:12:55.000Z</time>
      </trkpt>
      <trkpt lat="48.84981" lon="2.36371">
        <ele>76.2</ele>
        <time>2013-03-03T16:12:56.000Z</time>
      </trkpt>
      <trkpt lat="48.84984" lon="2.36367">
        <ele>76.5</ele>
        <time>2013-03-03T16:12:57.000Z</time>
      </trkpt>
      <trkpt lat="48.84987" lon="2.36363">
        <ele>77.3</ele>
        <time>2013-03-03T16:12:58.000Z</time>
      </trkpt>
      <trkpt lat="48.8499" lon="2.36358">
        <ele>77.6</ele>
        <time>2013-03-03T16:12:59.000Z</time>
      </trkpt>
      <trkpt lat="48.84992" lon="2.36354">
        <ele>77.2</ele>
        <time>2013-03-03T16:13:00.000Z</time>
      </trkpt>
      <trkpt lat="48.84995" lon="2.3635">
        <ele>77</ele>
        <time>2013-03-03T16:13:01.000Z</time>
      </trkpt>
      <trkpt lat="48.84998" lon="2.36345">
        <ele>77.1</ele>
        <time>2013-03-03T16:13:02.000Z</time>
      </trkpt>
      <trkpt lat="48.85001" lon="2.3634">
        <ele>77.2</ele>
        <time>2013-03-03T16:13:03.000Z</time>
      </trkpt>
      <trkpt lat="48.85003" lon="2.36336">
        <ele>77.4</ele>
        <time>2013-03-03T16:13:04.000Z</time>
      </trkpt>
      <trkpt lat="48.85006" lon="2.36331">
        <ele>76.1</ele>
        <time>2013-03-03T16:13:05.000Z</time>
      </trkpt>
      <trkpt lat="48.85009" lon="2.36327">
        <ele>76.4</ele>
        <time>2013-03-03T16:13:06.000Z</time>
      </trkpt>
      <trkpt lat="48.85012" lon="2.36322">
        <ele>76.7</ele>
        <time>2013-03-03T16:13:07.000Z</time>
      </trkpt>
      <trkpt lat="48.85015" lon="2.36317">
        <ele>76.9</ele>
        <time>2013-03-03T16:13:08.000Z</time>
      </trkpt>
      <trkpt lat="48.85018" lon="2.36313">
        <ele>77.3</ele>
        <time>2013-03-03T16:13:09.000Z</time>
      </trkpt>
      <trkpt lat="48.85021" lon="2.36308">
        <ele>77.2</ele>
        <time>2013-03-03T16:13:10.000Z</time>
      </trkpt>
      <trkpt lat="48.85024" lon="2.36303">
        <ele>76.9</ele>
        <time>2013-03-03T16:13:11.000Z</time>
      </trkpt>
      <trkpt lat="48.85027" lon="2.36298">
        <ele>77.5</ele>
        <time>2013-03-03T16:13:12.000Z</time>
      </trkpt>
      <trkpt lat="48.8503" lon="2.36293">
        <ele>77.9</ele>
        <time>2013-03-03T16:13:13.000Z</time>
      </trkpt>
      <trkpt lat="48.85033" lon="2.36288">
        <ele>78.3</ele>
        <time>2013-03-03T16:13:14.000Z</time>
      </trkpt>
      <trkpt lat="48.85036" lon="2.36284">
        <ele>78.7</ele>
        <time>2013-03-03T16:13:15.000Z</time>
      </trkpt>
      <trkpt lat="48.85039" lon="2.3628">
        <ele>79.5</ele>
        <time>2013-03-03T16:13:16.000Z</time>
      </trkpt>
      <trkpt lat="48.85042" lon="2.36276">
        <ele>79.8</ele>
        <time>2013-03-03T16:13:17.000Z</time>
      </trkpt>
      <trkpt lat="48.85045" lon="2.36273">
        <ele>79.7</ele>
        <time>2013-03-03T16:13:18.000Z</time>
      </trkpt>
      <trkpt lat="48.85048" lon="2.3627">
        <ele>79.8</ele>
        <time>2013-03-03T16:13:19.000Z</time>
      </trkpt>
      <trkpt lat="48.85051" lon="2.36267">
        <ele>80.5</ele>
        <time>2013-03-03T16:13:20.000Z</time>
      </trkpt>
      <trkpt lat="48.85054" lon="2.36264">
        <ele>80.5</ele>
        <time>2013-03-03T16:13:21.000Z</time>
      </trkpt>
      <trkpt lat="48.85057" lon="2.36261">
        <ele>81.2</ele>
        <time>2013-03-03T16:13:22.000Z</time>
      </trkpt>
      <trkpt lat="48.85061" lon="2.36258">
        <ele>79.1</ele>
        <time>2013-03-03T16:13:23.000Z</time>
      </trkpt>
      <trkpt lat="48.85064" lon="2.36256">
        <ele>78.5</ele>
        <time>2013-03-03T16:13:24.000Z</time>
      </trkpt>
      <trkpt lat="48.85067" lon="2.36253">
        <ele>79.1</ele>
        <time>2013-03-03T16:13:25.000Z</time>
      </trkpt>
      <trkpt lat="48.8507" lon="2.36251">
        <ele>78.4</ele>
        <time>2013-03-03T16:13:26.000Z</time>
      </trkpt>
      <trkpt lat="48.85073" lon="2.36249">
        <ele>78.2</ele>
        <time>2013-03-03T16:13:27.000Z</time>
      </trkpt>
      <trkpt lat="48.85075" lon="2.36248">
        <ele>78.2</ele>
        <time>2013-03-03T16:13:28.000Z</time>
      </trkpt>
      <trkpt lat="48.85078" lon="2.36246">
        <ele>78.8</ele>
        <time>2013-03-03T16:13:29.000Z</time>
      </trkpt>
      <trkpt lat="48.85082" lon="2.36243">
        <ele>77.8</ele>
        <time>2013-03-03T16:13:30.787Z</time>
      </trkpt>
      <trkpt lat="48.85084" lon="2.36242">
        <ele>78</ele>
        <time>2013-03-03T16:13:32.000Z</time>
      </trkpt>
      <trkpt lat="48.85087" lon="2.36243">
        <ele>77.5</ele>
        <time>2013-03-03T16:13:33.000Z</time>
      </trkpt>
      <trkpt lat="48.85089" lon="2.36243">
        <ele>76.6</ele>
        <time>2013-03-03T16:13:34.000Z</time>
      </trkpt>
      <trkpt lat="48.85092" lon="2.36242">
        <ele>78.3</ele>
        <time>2013-03-03T16:13:35.000Z</time>
      </trkpt>
      <trkpt lat="48.85094" lon="2.36241">
        <ele>79.1</ele>
        <time>2013-03-03T16:13:36.000Z</time>
      </trkpt>
      <trkpt lat="48.85098" lon="2.3624">
        <ele>79</ele>
        <time>2013-03-03T16:13:37.000Z</time>
      </trkpt>
      <trkpt lat="48.851" lon="2.36241">
        <ele>77.9</ele>
        <time>2013-03-03T16:13:38.000Z</time>
      </trkpt>
      <trkpt lat="48.85103" lon="2.36244">
        <ele>78.4</ele>
        <time>2013-03-03T16:13:39.000Z</time>
      </trkpt>
      <trkpt lat="48.85104" lon="2.36247">
        <ele>78.5</ele>
        <time>2013-03-03T16:13:40.000Z</time>
      </trkpt>
      <trkpt lat="48.85106" lon="2.36251">
        <ele>79.1</ele>
        <time>2013-03-03T16:13:41.000Z</time>
      </trkpt>
      <trkpt lat="48.85107" lon="2.36255">
        <ele>79.4</ele>
        <time>2013-03-03T16:13:42.000Z</time>
      </trkpt>
      <trkpt lat="48.85108" lon="2.3626">
        <ele>79.9</ele>
        <time>2013-03-03T16:13:44.000Z</time>
      </trkpt>
      <trkpt lat="48.85109" lon="2.36261">
        <ele>80.4</ele>
        <time>2013-03-03T16:13:45.000Z</time>
      </trkpt>
      <trkpt lat="48.85113" lon="2.3626">
        <ele>80.9</ele>
        <time>2013-03-03T16:13:57.000Z</time>
      </trkpt>
      <trkpt lat="48.85114" lon="2.36259">
        <ele>81.4</ele>
        <time>2013-03-03T16:13:58.000Z</time>
      </trkpt>
      <trkpt lat="48.85116" lon="2.36256">
        <ele>81.4</ele>
        <time>2013-03-03T16:13:59.000Z</time>
      </trkpt>
      <trkpt lat="48.85118" lon="2.36254">
        <ele>81.6</ele>
        <time>2013-03-03T16:14:00.000Z</time>
      </trkpt>
      <trkpt lat="48.85121" lon="2.36251">
        <ele>81.6</ele>
        <time>2013-03-03T16:14:02.000Z</time>
      </trkpt>
      <trkpt lat="48.85122" lon="2.36249">
        <ele>82</ele>
        <time>2013-03-03T16:14:03.000Z</time>
      </trkpt>
      <trkpt lat="48.85125" lon="2.36245">
        <ele>81.6</ele>
        <time>2013-03-03T16:14:05.000Z</time>
      </trkpt>
      <trkpt lat="48.85126" lon="2.36243">
        <ele>81.1</ele>
        <time>2013-03-03T16:14:06.000Z</time>
      </trkpt>
      <trkpt lat="48.85129" lon="2.36239">
        <ele>81.5</ele>
        <time>2013-03-03T16:14:08.000Z</time>
      </trkpt>
      <trkpt lat="48.8513" lon="2.36237">
        <ele>81.4</ele>
        <time>2013-03-03T16:14:09.000Z</time>
      </trkpt>
      <trkpt lat="48.85132" lon="2.36236">
        <ele>80.7</ele>
        <time>2013-03-03T16:14:10.000Z</time>
      </trkpt>
      <trkpt lat="48.85134" lon="2.36234">
        <ele>80</ele>
        <time>2013-03-03T16:14:11.000Z</time>
      </trkpt>
      <trkpt lat="48.85138" lon="2.36232">
        <ele>78.2</ele>
        <time>2013-03-03T16:14:12.000Z</time>
      </trkpt>
      <trkpt lat="48.85141" lon="2.3623">
        <ele>78.5</ele>
        <time>2013-03-03T16:14:13.000Z</time>
      </trkpt>
      <trkpt lat="48.85144" lon="2.36227">
        <ele>78.2</ele>
        <time>2013-03-03T16:14:14.000Z</time>
      </trkpt>
      <trkpt lat="48.85146" lon="2.36224">
        <ele>78.2</ele>
        <time>2013-03-03T16:14:15.000Z</time>
      </trkpt>
      <trkpt lat="48.85149" lon="2.36221">
        <ele>78.5</ele>
        <time>2013-03-03T16:14:16.000Z</time>
      </trkpt>
      <trkpt lat="48.85152" lon="2.36217">
        <ele>77.8</ele>
        <time>2013-03-03T16:14:17.000Z</time>
      </trkpt>
      <trkpt lat="48.85154" lon="2.36214">
        <ele>77.5</ele>
        <time>2013-03-03T16:14:18.000Z</time>
      </trkpt>
      <trkpt lat="48.85157" lon="2.3621">
        <ele>77.6</ele>
        <time>2013-03-03T16:14:19.000Z</time>
      </trkpt>
      <trkpt lat="48.8516" lon="2.36207">
        <ele>74.8</ele>
        <time>2013-03-03T16:14:20.000Z</time>
      </trkpt>
      <trkpt lat="48.85163" lon="2.36205">
        <ele>74.2</ele>
        <time>2013-03-03T16:14:21.000Z</time>
      </trkpt>
      <trkpt lat="48.85166" lon="2.36202">
        <ele>74</ele>
        <time>2013-03-03T16:14:22.000Z</time>
      </trkpt>
      <trkpt lat="48.85168" lon="2.36199">
        <ele>75.1</ele>
        <time>2013-03-03T16:14:23.000Z</time>
      </trkpt>
      <trkpt lat="48.85171" lon="2.36196">
        <ele>74.3</ele>
        <time>2013-03-03T16:14:24.000Z</time>
      </trkpt>
      <trkpt lat="48.85173" lon="2.36192">
        <ele>74.3</ele>
        <time>2013-03-03T16:14:25.000Z</time>
      </trkpt>
      <trkpt lat="48.85175" lon="2.36189">
        <ele>74.2</ele>
        <time>2013-03-03T16:14:26.000Z</time>
      </trkpt>
      <trkpt lat="48.85177" lon="2.36185">
        <ele>73.5</ele>
        <time>2013-03-03T16:14:27.000Z</time>
      </trkpt>
      <trkpt lat="48.85179" lon="2.36181">
        <ele>72.6</ele>
        <time>2013-03-03T16:14:28.000Z</time>
      </trkpt>
      <trkpt lat="48.85182" lon="2.36177">
        <ele>73</ele>
        <time>2013-03-03T16:14:29.000Z</time>
      </trkpt>
      <trkpt lat="48.85186" lon="2.36171">
        <ele>72.4</ele>
        <time>2013-03-03T16:14:30.769Z</time>
      </trkpt>
      <trkpt lat="48.85188" lon="2.36166">
        <ele>71.8</ele>
        <time>2013-03-03T16:14:32.000Z</time>
      </trkpt>
      <trkpt lat="48.8519" lon="2.36161">
        <ele>72.3</ele>
        <time>2013-03-03T16:14:33.000Z</time>
      </trkpt>
      <trkpt lat="48.85191" lon="2.36157">
        <ele>73.6</ele>
        <time>2013-03-03T16:14:34.000Z</time>
      </trkpt>
      <trkpt lat="48.85193" lon="2.36153">
        <ele>72</ele>
        <time>2013-03-03T16:14:35.000Z</time>
      </trkpt>
      <trkpt lat="48.85196" lon="2.3615">
        <ele>71.9</ele>
        <time>2013-03-03T16:14:36.000Z</time>
      </trkpt>
      <trkpt lat="48.85198" lon="2.36146">
        <ele>72.6</ele>
        <time>2013-03-03T16:14:37.000Z</time>
      </trkpt>
      <trkpt lat="48.85201" lon="2.36142">
        <ele>70.9</ele>
        <time>2013-03-03T16:14:38.000Z</time>
      </trkpt>
      <trkpt lat="48.85204" lon="2.36138">
        <ele>71.6</ele>
        <time>2013-03-03T16:14:39.000Z</time>
      </trkpt>
      <trkpt lat="48.85207" lon="2.36134">
        <ele>70.5</ele>
        <time>2013-03-03T16:14:40.000Z</time>
      </trkpt>
      <trkpt lat="48.85209" lon="2.3613">
        <ele>70.5</ele>
        <time>2013-03-03T16:14:41.000Z</time>
      </trkpt>
      <trkpt lat="48.85212" lon="2.36126">
        <ele>71.2</ele>
        <time>2013-03-03T16:14:42.000Z</time>
      </trkpt>
      <trkpt lat="48.85215" lon="2.36122">
        <ele>71.4</ele>
        <time>2013-03-03T16:14:43.000Z</time>
      </trkpt>
      <trkpt lat="48.85218" lon="2.36118">
        <ele>69.9</ele>
        <time>2013-03-03T16:14:44.000Z</time>
      </trkpt>
      <trkpt lat="48.85221" lon="2.36115">
        <ele>70</ele>
        <time>2013-03-03T16:14:45.000Z</time>
      </trkpt>
      <trkpt lat="48.85224" lon="2.36111">
        <ele>70.6</ele>
        <time>2013-03-03T16:14:46.000Z</time>
      </trkpt>
      <trkpt lat="48.85227" lon="2.36107">
        <ele>71.5</ele>
        <time>2013-03-03T16:14:47.000Z</time>
      </trkpt>
      <trkpt lat="48.8523" lon="2.36103">
        <ele>71.7</ele>
        <time>2013-03-03T16:14:48.000Z</time>
      </trkpt>
      <trkpt lat="48.85233" lon="2.36099">
        <ele>71.5</ele>
        <time>2013-03-03T16:14:49.000Z</time>
      </trkpt>
      <trkpt lat="48.85235" lon="2.36095">
        <ele>71.7</ele>
        <time>2013-03-03T16:14:50.000Z</time>
      </trkpt>
      <trkpt lat="48.85238" lon="2.36091">
        <ele>72</ele>
        <time>2013-03-03T16:14:51.000Z</time>
      </trkpt>
      <trkpt lat="48.8524" lon="2.36087">
        <ele>72.9</ele>
        <time>2013-03-03T16:14:52.000Z</time>
      </trkpt>
      <trkpt lat="48.85242" lon="2.36083">
        <ele>72.9</ele>
        <time>2013-03-03T16:14:53.000Z</time>
      </trkpt>
      <trkpt lat="48.85244" lon="2.36078">
        <ele>73.2</ele>
        <time>2013-03-03T16:14:55.000Z</time>
      </trkpt>
      <trkpt lat="48.85244" lon="2.36075">
        <ele>74.4</ele>
        <time>2013-03-03T16:14:56.000Z</time>
      </trkpt>
      <trkpt lat="48.85246" lon="2.36069">
        <ele>76.1</ele>
        <time>2013-03-03T16:14:58.000Z</time>
      </trkpt>
      <trkpt lat="48.85247" lon="2.36065">
        <ele>76.2</ele>
        <time>2013-03-03T16:14:59.000Z</time>
      </trkpt>
      <trkpt lat="48.85247" lon="2.36061">
        <ele>75.6</ele>
        <time>2013-03-03T16:15:00.000Z</time>
      </trkpt>
      <trkpt lat="48.85247" lon="2.36056">
        <ele>75.3</ele>
        <time>2013-03-03T16:15:01.000Z</time>
      </trkpt>
      <trkpt lat="48.85248" lon="2.36051">
        <ele>75.4</ele>
        <time>2013-03-03T16:15:02.000Z</time>
      </trkpt>
      <trkpt lat="48.8525" lon="2.36044">
        <ele>75.4</ele>
        <time>2013-03-03T16:15:03.000Z</time>
      </trkpt>
      <trkpt lat="48.85251" lon="2.36038">
        <ele>75.4</ele>
        <time>2013-03-03T16:15:04.000Z</time>
      </trkpt>
      <trkpt lat="48.85253" lon="2.36032">
        <ele>75.6</ele>
        <time>2013-03-03T16:15:05.000Z</time>
      </trkpt>
      <trkpt lat="48.85255" lon="2.36026">
        <ele>75.7</ele>
        <time>2013-03-03T16:15:06.000Z</time>
      </trkpt>
      <trkpt lat="48.85256" lon="2.36021">
        <ele>75.2</ele>
        <time>2013-03-03T16:15:07.000Z</time>
      </trkpt>
      <trkpt lat="48.85258" lon="2.36017">
        <ele>75.8</ele>
        <time>2013-03-03T16:15:08.000Z</time>
      </trkpt>
      <trkpt lat="48.85259" lon="2.36014">
        <ele>75.6</ele>
        <time>2013-03-03T16:15:09.000Z</time>
      </trkpt>
      <trkpt lat="48.8526" lon="2.36011">
        <ele>75.5</ele>
        <time>2013-03-03T16:15:10.000Z</time>
      </trkpt>
      <trkpt lat="48.85261" lon="2.36008">
        <ele>76.3</ele>
        <time>2013-03-03T16:15:11.000Z</time>
      </trkpt>
      <trkpt lat="48.85263" lon="2.36004">
        <ele>76</ele>
        <time>2013-03-03T16:15:12.000Z</time>
      </trkpt>
      <trkpt lat="48.85264" lon="2.36002">
        <ele>76.1</ele>
        <time>2013-03-03T16:15:13.000Z</time>
      </trkpt>
      <trkpt lat="48.85266" lon="2.35998">
        <ele>77.1</ele>
        <time>2013-03-03T16:15:14.000Z</time>
      </trkpt>
      <trkpt lat="48.85268" lon="2.35996">
        <ele>76.5</ele>
        <time>2013-03-03T16:15:15.000Z</time>
      </trkpt>
      <trkpt lat="48.85271" lon="2.35997">
        <ele>75.8</ele>
        <time>2013-03-03T16:15:17.000Z</time>
      </trkpt>
      <trkpt lat="48.85273" lon="2.35998">
        <ele>75.4</ele>
        <time>2013-03-03T16:15:18.000Z</time>
      </trkpt>
      <trkpt lat="48.85271" lon="2.36003">
        <ele>75.3</ele>
        <time>2013-03-03T16:15:20.000Z</time>
      </trkpt>
      <trkpt lat="48.8527" lon="2.36005">
        <ele>75</ele>
        <time>2013-03-03T16:15:21.000Z</time>
      </trkpt>
      <trkpt lat="48.85268" lon="2.36008">
        <ele>75.3</ele>
        <time>2013-03-03T16:15:22.000Z</time>
      </trkpt>
      <trkpt lat="48.85267" lon="2.36011">
        <ele>74.8</ele>
        <time>2013-03-03T16:15:23.000Z</time>
      </trkpt>
      <trkpt lat="48.85271" lon="2.36011">
        <ele>68.6</ele>
        <time>2013-03-03T16:15:26.000Z</time>
      </trkpt>
      <trkpt lat="48.85275" lon="2.36008">
        <ele>67.8</ele>
        <time>2013-03-03T16:15:27.000Z</time>
      </trkpt>
      <trkpt lat="48.85278" lon="2.36004">
        <ele>68.2</ele>
        <time>2013-03-03T16:15:28.000Z</time>
      </trkpt>
      <trkpt lat="48.85282" lon="2.35999">
        <ele>69.5</ele>
        <time>2013-03-03T16:15:29.000Z</time>
      </trkpt>
      <trkpt lat="48.85292" lon="2.35986">
        <ele>70.1</ele>
        <time>2013-03-03T16:15:32.000Z</time>
      </trkpt>
      <trkpt lat="48.85296" lon="2.35981">
        <ele>70.9</ele>
        <time>2013-03-03T16:15:33.000Z</time>
      </trkpt>
      <trkpt lat="48.85299" lon="2.35976">
        <ele>71.2</ele>
        <time>2013-03-03T16:15:34.000Z</time>
      </trkpt>
      <trkpt lat="48.85303" lon="2.35971">
        <ele>71.8</ele>
        <time>2013-03-03T16:15:35.000Z</time>
      </trkpt>
      <trkpt lat="48.85306" lon="2.35966">
        <ele>73.2</ele>
        <time>2013-03-03T16:15:36.000Z</time>
      </trkpt>
      <trkpt lat="48.85309" lon="2.35962">
        <ele>73.1</ele>
        <time>2013-03-03T16:15:37.000Z</time>
      </trkpt>
      <trkpt lat="48.85312" lon="2.35958">
        <ele>72.9</ele>
        <time>2013-03-03T16:15:38.000Z</time>
      </trkpt>
      <trkpt lat="48.85314" lon="2.35956">
        <ele>72.9</ele>
        <time>2013-03-03T16:15:39.000Z</time>
      </trkpt>
      <trkpt lat="48.85317" lon="2.35953">
        <ele>74.1</ele>
        <time>2013-03-03T16:15:40.000Z</time>
      </trkpt>
      <trkpt lat="48.8532" lon="2.35951">
        <ele>74.6</ele>
        <time>2013-03-03T16:15:41.000Z</time>
      </trkpt>
      <trkpt lat="48.85322" lon="2.35949">
        <ele>75.2</ele>
        <time>2013-03-03T16:15:42.000Z</time>
      </trkpt>
      <trkpt lat="48.85325" lon="2.35947">
        <ele>75.1</ele>
        <time>2013-03-03T16:15:43.000Z</time>
      </trkpt>
      <trkpt lat="48.85327" lon="2.35946">
        <ele>74.9</ele>
        <time>2013-03-03T16:15:44.000Z</time>
      </trkpt>
      <trkpt lat="48.8533" lon="2.35944">
        <ele>75.3</ele>
        <time>2013-03-03T16:15:46.000Z</time>
      </trkpt>
      <trkpt lat="48.85331" lon="2.35943">
        <ele>74.4</ele>
        <time>2013-03-03T16:15:47.000Z</time>
      </trkpt>
      <trkpt lat="48.85335" lon="2.35941">
        <ele>81</ele>
        <time>2013-03-03T16:16:59.000Z</time>
      </trkpt>
      <trkpt lat="48.85336" lon="2.35939">
        <ele>80.2</ele>
        <time>2013-03-03T16:17:00.000Z</time>
      </trkpt>
      <trkpt lat="48.85337" lon="2.35934">
        <ele>80.2</ele>
        <time>2013-03-03T16:17:02.000Z</time>
      </trkpt>
      <trkpt lat="48.85338" lon="2.35932">
        <ele>79.5</ele>
        <time>2013-03-03T16:17:03.000Z</time>
      </trkpt>
      <trkpt lat="48.85335" lon="2.35931">
        <ele>79.9</ele>
        <time>2013-03-03T16:17:09.000Z</time>
      </trkpt>
      <trkpt lat="48.85333" lon="2.35931">
        <ele>80.4</ele>
        <time>2013-03-03T16:17:10.000Z</time>
      </trkpt>
      <trkpt lat="48.8533" lon="2.35928">
        <ele>79.5</ele>
        <time>2013-03-03T16:17:12.000Z</time>
      </trkpt>
      <trkpt lat="48.85329" lon="2.35926">
        <ele>80.1</ele>
        <time>2013-03-03T16:17:13.000Z</time>
      </trkpt>
      <trkpt lat="48.85329" lon="2.3592">
        <ele>79.3</ele>
        <time>2013-03-03T16:17:15.000Z</time>
      </trkpt>
      <trkpt lat="48.85329" lon="2.35917">
        <ele>79.7</ele>
        <time>2013-03-03T16:17:16.000Z</time>
      </trkpt>
      <trkpt lat="48.85329" lon="2.35913">
        <ele>79.6</ele>
        <time>2013-03-03T16:17:17.000Z</time>
      </trkpt>
      <trkpt lat="48.85329" lon="2.35908">
        <ele>79.4</ele>
        <time>2013-03-03T16:17:18.000Z</time>
      </trkpt>
      <trkpt lat="48.8533" lon="2.35903">
        <ele>79.8</ele>
        <time>2013-03-03T16:17:19.000Z</time>
      </trkpt>
      <trkpt lat="48.8533" lon="2.35898">
        <ele>80.6</ele>
        <time>2013-03-03T16:17:20.000Z</time>
      </trkpt>
      <trkpt lat="48.85331" lon="2.35892">
        <ele>79.9</ele>
        <time>2013-03-03T16:17:21.000Z</time>
      </trkpt>
      <trkpt lat="48.85332" lon="2.35887">
        <ele>78.7</ele>
        <time>2013-03-03T16:17:22.000Z</time>
      </trkpt>
      <trkpt lat="48.85332" lon="2.35881">
        <ele>76.3</ele>
        <time>2013-03-03T16:17:23.000Z</time>
      </trkpt>
      <trkpt lat="48.85333" lon="2.35876">
        <ele>76</ele>
        <time>2013-03-03T16:17:24.000Z</time>
      </trkpt>
      <trkpt lat="48.85334" lon="2.35871">
        <ele>76.4</ele>
        <time>2013-03-03T16:17:25.000Z</time>
      </trkpt>
      <trkpt lat="48.85335" lon="2.35866">
        <ele>75.9</ele>
        <time>2013-03-03T16:17:26.000Z</time>
      </trkpt>
      <trkpt lat="48.85336" lon="2.35861">
        <ele>75.6</ele>
        <time>2013-03-03T16:17:27.000Z</time>
      </trkpt>
      <trkpt lat="48.85338" lon="2.35856">
        <ele>75.8</ele>
        <time>2013-03-03T16:17:28.000Z</time>
      </trkpt>
      <trkpt lat="48.85339" lon="2.35852">
        <ele>75.5</ele>
        <time>2013-03-03T16:17:29.000Z</time>
      </trkpt>
      <trkpt lat="48.85342" lon="2.35845">
        <ele>75.5</ele>
        <time>2013-03-03T16:17:30.771Z</time>
      </trkpt>
      <trkpt lat="48.85344" lon="2.3584">
        <ele>76.1</ele>
        <time>2013-03-03T16:17:32.000Z</time>
      </trkpt>
      <trkpt lat="48.85345" lon="2.35836">
        <ele>76.4</ele>
        <time>2013-03-03T16:17:33.000Z</time>
      </trkpt>
      <trkpt lat="48.85346" lon="2.35831">
        <ele>77.1</ele>
        <time>2013-03-03T16:17:34.000Z</time>
      </trkpt>
      <trkpt lat="48.85347" lon="2.35827">
        <ele>77.1</ele>
        <time>2013-03-03T16:17:35.000Z</time>
      </trkpt>
      <trkpt lat="48.85348" lon="2.35822">
        <ele>78.8</ele>
        <time>2013-03-03T16:17:38.000Z</time>
      </trkpt>
      <trkpt lat="48.85348" lon="2.3582">
        <ele>77</ele>
        <time>2013-03-03T16:17:39.000Z</time>
      </trkpt>
      <trkpt lat="48.85345" lon="2.35816">
        <ele>76.1</ele>
        <time>2013-03-03T16:17:41.000Z</time>
      </trkpt>
      <trkpt lat="48.85344" lon="2.35814">
        <ele>76.2</ele>
        <time>2013-03-03T16:17:42.000Z</time>
      </trkpt>
      <trkpt lat="48.8534" lon="2.3581">
        <ele>76.7</ele>
        <time>2013-03-03T16:17:44.000Z</time>
      </trkpt>
      <trkpt lat="48.85339" lon="2.35808">
        <ele>76.9</ele>
        <time>2013-03-03T16:17:45.000Z</time>
      </trkpt>
      <trkpt lat="48.85335" lon="2.35806">
        <ele>76.8</ele>
        <time>2013-03-03T16:17:55.000Z</time>
      </trkpt>
      <trkpt lat="48.85334" lon="2.35805">
        <ele>77</ele>
        <time>2013-03-03T16:17:56.000Z</time>
      </trkpt>
      <trkpt lat="48.8533" lon="2.35802">
        <ele>78.4</ele>
        <time>2013-03-03T16:18:17.000Z</time>
      </trkpt>
      <trkpt lat="48.85329" lon="2.35801">
        <ele>79.1</ele>
        <time>2013-03-03T16:18:18.000Z</time>
      </trkpt>
      <trkpt lat="48.85325" lon="2.35797">
        <ele>80.3</ele>
        <time>2013-03-03T16:18:21.000Z</time>
      </trkpt>
      <trkpt lat="48.85325" lon="2.35796">
        <ele>79.9</ele>
        <time>2013-03-03T16:18:22.000Z</time>
      </trkpt>
      <trkpt lat="48.85321" lon="2.35794">
        <ele>81.1</ele>
        <time>2013-03-03T16:18:25.000Z</time>
      </trkpt>
      <trkpt lat="48.8532" lon="2.35793">
        <ele>82.4</ele>
        <time>2013-03-03T16:18:26.000Z</time>
      </trkpt>
      <trkpt lat="48.85317" lon="2.35788">
        <ele>84.8</ele>
        <time>2013-03-03T16:18:29.000Z</time>
      </trkpt>
      <trkpt lat="48.85316" lon="2.35783">
        <ele>84.8</ele>
        <time>2013-03-03T16:18:32.000Z</time>
      </trkpt>
      <trkpt lat="48.85315" lon="2.35778">
        <ele>85.2</ele>
        <time>2013-03-03T16:18:35.000Z</time>
      </trkpt>
      <trkpt lat="48.85314" lon="2.35776">
        <ele>85.3</ele>
        <time>2013-03-03T16:18:36.000Z</time>
      </trkpt>
      <trkpt lat="48.85311" lon="2.35775">
        <ele>83.8</ele>
        <time>2013-03-03T16:18:38.000Z</time>
      </trkpt>
      <trkpt lat="48.8531" lon="2.35774">
        <ele>83.6</ele>
        <time>2013-03-03T16:18:39.000Z</time>
      </trkpt>
      <trkpt lat="48.85306" lon="2.35772">
        <ele>85.6</ele>
        <time>2013-03-03T16:18:41.000Z</time>
      </trkpt>
      <trkpt lat="48.85304" lon="2.35771">
        <ele>85.5</ele>
        <time>2013-03-03T16:18:42.000Z</time>
      </trkpt>
      <trkpt lat="48.85301" lon="2.35769">
        <ele>83.8</ele>
        <time>2013-03-03T16:18:44.000Z</time>
      </trkpt>
      <trkpt lat="48.853" lon="2.35768">
        <ele>82.5</ele>
        <time>2013-03-03T16:18:45.000Z</time>
      </trkpt>
      <trkpt lat="48.85296" lon="2.35765">
        <ele>82.8</ele>
        <time>2013-03-03T16:18:47.000Z</time>
      </trkpt>
      <trkpt lat="48.85295" lon="2.35763">
        <ele>82.3</ele>
        <time>2013-03-03T16:18:48.000Z</time>
      </trkpt>
      <trkpt lat="48.85292" lon="2.35761">
        <ele>82</ele>
        <time>2013-03-03T16:18:50.000Z</time>
      </trkpt>
      <trkpt lat="48.8529" lon="2.35759">
        <ele>82.5</ele>
        <time>2013-03-03T16:18:51.000Z</time>
      </trkpt>
      <trkpt lat="48.85287" lon="2.35757">
        <ele>83</ele>
        <time>2013-03-03T16:18:52.000Z</time>
      </trkpt>
      <trkpt lat="48.85285" lon="2.35754">
        <ele>82.7</ele>
        <time>2013-03-03T16:18:53.000Z</time>
      </trkpt>
      <trkpt lat="48.85282" lon="2.35752">
        <ele>84.1</ele>
        <time>2013-03-03T16:18:54.000Z</time>
      </trkpt>
      <trkpt lat="48.8528" lon="2.3575">
        <ele>83.2</ele>
        <time>2013-03-03T16:18:55.000Z</time>
      </trkpt>
      <trkpt lat="48.85277" lon="2.35747">
        <ele>82.9</ele>
        <time>2013-03-03T16:18:56.000Z</time>
      </trkpt>
      <trkpt lat="48.85275" lon="2.35745">
        <ele>82.5</ele>
        <time>2013-03-03T16:18:57.000Z</time>
      </trkpt>
      <trkpt lat="48.85272" lon="2.35743">
        <ele>82.4</ele>
        <time>2013-03-03T16:18:58.000Z</time>
      </trkpt>
      <trkpt lat="48.8527" lon="2.35741">
        <ele>82.1</ele>
        <time>2013-03-03T16:18:59.000Z</time>
      </trkpt>
      <trkpt lat="48.85268" lon="2.35738">
        <ele>81.7</ele>
        <time>2013-03-03T16:19:00.000Z</time>
      </trkpt>
      <trkpt lat="48.85266" lon="2.35736">
        <ele>80.3</ele>
        <time>2013-03-03T16:19:01.000Z</time>
      </trkpt>
      <trkpt lat="48.85263" lon="2.35734">
        <ele>80.8</ele>
        <time>2013-03-03T16:19:02.000Z</time>
      </trkpt>
      <trkpt lat="48.85261" lon="2.35733">
        <ele>80.1</ele>
        <time>2013-03-03T16:19:03.000Z</time>
      </trkpt>
      <trkpt lat="48.85259" lon="2.35731">
        <ele>80.1</ele>
        <time>2013-03-03T16:19:04.000Z</time>
      </trkpt>
      <trkpt lat="48.85256" lon="2.3573">
        <ele>79.3</ele>
        <time>2013-03-03T16:19:05.000Z</time>
      </trkpt>
      <trkpt lat="48.85252" lon="2.35728">
        <ele>77.6</ele>
        <time>2013-03-03T16:19:07.000Z</time>
      </trkpt>
      <trkpt lat="48.85251" lon="2.35727">
        <ele>77.7</ele>
        <time>2013-03-03T16:19:08.000Z</time>
      </trkpt>
      <trkpt lat="48.85247" lon="2.35723">
        <ele>86</ele>
        <time>2013-03-03T16:19:23.000Z</time>
      </trkpt>
      <trkpt lat="48.85247" lon="2.35722">
        <ele>86.1</ele>
        <time>2013-03-03T16:19:24.000Z</time>
      </trkpt>
      <trkpt lat="48.85244" lon="2.35719">
        <ele>84.6</ele>
        <time>2013-03-03T16:19:34.000Z</time>
      </trkpt>
      <trkpt lat="48.85241" lon="2.35717">
        <ele>85.1</ele>
        <time>2013-03-03T16:19:35.000Z</time>
      </trkpt>
      <trkpt lat="48.85239" lon="2.35715">
        <ele>82.7</ele>
        <time>2013-03-03T16:19:36.000Z</time>
      </trkpt>
      <trkpt lat="48.85236" lon="2.35713">
        <ele>83.1</ele>
        <time>2013-03-03T16:19:37.000Z</time>
      </trkpt>
      <trkpt lat="48.85232" lon="2.35711">
        <ele>82</ele>
        <time>2013-03-03T16:19:38.000Z</time>
      </trkpt>
      <trkpt lat="48.85228" lon="2.35707">
        <ele>79.3</ele>
        <time>2013-03-03T16:19:39.000Z</time>
      </trkpt>
      <trkpt lat="48.85224" lon="2.35704">
        <ele>78.6</ele>
        <time>2013-03-03T16:19:40.000Z</time>
      </trkpt>
      <trkpt lat="48.85221" lon="2.35701">
        <ele>77.7</ele>
        <time>2013-03-03T16:19:41.000Z</time>
      </trkpt>
      <trkpt lat="48.85217" lon="2.35699">
        <ele>77.2</ele>
        <time>2013-03-03T16:19:42.000Z</time>
      </trkpt>
      <trkpt lat="48.85213" lon="2.35695">
        <ele>77.1</ele>
        <time>2013-03-03T16:19:43.000Z</time>
      </trkpt>
      <trkpt lat="48.8521" lon="2.35692">
        <ele>76.8</ele>
        <time>2013-03-03T16:19:44.000Z</time>
      </trkpt>
      <trkpt lat="48.85206" lon="2.3569">
        <ele>75.9</ele>
        <time>2013-03-03T16:19:45.000Z</time>
      </trkpt>
      <trkpt lat="48.85202" lon="2.35687">
        <ele>76.3</ele>
        <time>2013-03-03T16:19:46.000Z</time>
      </trkpt>
      <trkpt lat="48.85199" lon="2.35683">
        <ele>76.4</ele>
        <time>2013-03-03T16:19:47.000Z</time>
      </trkpt>
      <trkpt lat="48.85195" lon="2.3568">
        <ele>75.2</ele>
        <time>2013-03-03T16:19:48.000Z</time>
      </trkpt>
      <trkpt lat="48.85192" lon="2.35678">
        <ele>75.8</ele>
        <time>2013-03-03T16:19:49.000Z</time>
      </trkpt>
      <trkpt lat="48.85189" lon="2.35676">
        <ele>74.7</ele>
        <time>2013-03-03T16:19:50.000Z</time>
      </trkpt>
      <trkpt lat="48.85186" lon="2.35673">
        <ele>74.9</ele>
        <time>2013-03-03T16:19:51.000Z</time>
      </trkpt>
      <trkpt lat="48.85182" lon="2.3567">
        <ele>74.6</ele>
        <time>2013-03-03T16:19:52.000Z</time>
      </trkpt>
      <trkpt lat="48.85179" lon="2.35667">
        <ele>74.3</ele>
        <time>2013-03-03T16:19:53.000Z</time>
      </trkpt>
      <trkpt lat="48.85176" lon="2.35663">
        <ele>74.1</ele>
        <time>2013-03-03T16:19:54.000Z</time>
      </trkpt>
      <trkpt lat="48.85172" lon="2.3566">
        <ele>73</ele>
        <time>2013-03-03T16:19:55.000Z</time>
      </trkpt>
      <trkpt lat="48.85169" lon="2.35657">
        <ele>72.3</ele>
        <time>2013-03-03T16:19:56.000Z</time>
      </trkpt>
      <trkpt lat="48.85166" lon="2.35653">
        <ele>72.5</ele>
        <time>2013-03-03T16:19:57.000Z</time>
      </trkpt>
      <trkpt lat="48.85162" lon="2.3565">
        <ele>72.3</ele>
        <time>2013-03-03T16:19:58.000Z</time>
      </trkpt>
      <trkpt lat="48.85159" lon="2.35648">
        <ele>71.7</ele>
        <time>2013-03-03T16:19:59.000Z</time>
      </trkpt>
      <trkpt lat="48.85155" lon="2.35645">
        <ele>71.5</ele>
        <time>2013-03-03T16:20:00.000Z</time>
      </trkpt>
      <trkpt lat="48.85151" lon="2.35643">
        <ele>71</ele>
        <time>2013-03-03T16:20:01.000Z</time>
      </trkpt>
      <trkpt lat="48.85148" lon="2.3564">
        <ele>70.2</ele>
        <time>2013-03-03T16:20:02.000Z</time>
      </trkpt>
      <trkpt lat="48.85144" lon="2.35638">
        <ele>70.3</ele>
        <time>2013-03-03T16:20:03.000Z</time>
      </trkpt>
      <trkpt lat="48.85141" lon="2.35635">
        <ele>70.3</ele>
        <time>2013-03-03T16:20:04.000Z</time>
      </trkpt>
      <trkpt lat="48.85137" lon="2.35632">
        <ele>69.7</ele>
        <time>2013-03-03T16:20:05.000Z</time>
      </trkpt>
      <trkpt lat="48.85134" lon="2.35629">
        <ele>69.6</ele>
        <time>2013-03-03T16:20:06.000Z</time>
      </trkpt>
      <trkpt lat="48.8513" lon="2.35626">
        <ele>75.9</ele>
        <time>2013-03-03T16:20:07.000Z</time>
      </trkpt>
      <trkpt lat="48.85127" lon="2.35624">
        <ele>73.8</ele>
        <time>2013-03-03T16:20:08.000Z</time>
      </trkpt>
      <trkpt lat="48.85124" lon="2.35619">
        <ele>72.1</ele>
        <time>2013-03-03T16:20:09.000Z</time>
      </trkpt>
      <trkpt lat="48.85121" lon="2.35613">
        <ele>70.7</ele>
        <time>2013-03-03T16:20:10.000Z</time>
      </trkpt>
      <trkpt lat="48.85118" lon="2.35607">
        <ele>70.2</ele>
        <time>2013-03-03T16:20:11.000Z</time>
      </trkpt>
      <trkpt lat="48.85116" lon="2.35602">
        <ele>70.4</ele>
        <time>2013-03-03T16:20:12.000Z</time>
      </trkpt>
      <trkpt lat="48.85113" lon="2.35596">
        <ele>72.5</ele>
        <time>2013-03-03T16:20:13.000Z</time>
      </trkpt>
      <trkpt lat="48.85109" lon="2.3559">
        <ele>74.8</ele>
        <time>2013-03-03T16:20:14.000Z</time>
      </trkpt>
      <trkpt lat="48.85107" lon="2.35586">
        <ele>76.7</ele>
        <time>2013-03-03T16:20:15.000Z</time>
      </trkpt>
      <trkpt lat="48.85104" lon="2.35581">
        <ele>76.6</ele>
        <time>2013-03-03T16:20:16.000Z</time>
      </trkpt>
      <trkpt lat="48.85102" lon="2.35576">
        <ele>76.8</ele>
        <time>2013-03-03T16:20:17.000Z</time>
      </trkpt>
      <trkpt lat="48.851" lon="2.35573">
        <ele>76.7</ele>
        <time>2013-03-03T16:20:18.000Z</time>
      </trkpt>
      <trkpt lat="48.85097" lon="2.3557">
        <ele>76.4</ele>
        <time>2013-03-03T16:20:19.000Z</time>
      </trkpt>
      <trkpt lat="48.85095" lon="2.35567">
        <ele>76.2</ele>
        <time>2013-03-03T16:20:20.000Z</time>
      </trkpt>
      <trkpt lat="48.85093" lon="2.35564">
        <ele>76.1</ele>
        <time>2013-03-03T16:20:21.000Z</time>
      </trkpt>
      <trkpt lat="48.8509" lon="2.35561">
        <ele>77.5</ele>
        <time>2013-03-03T16:20:22.000Z</time>
      </trkpt>
      <trkpt lat="48.85088" lon="2.35559">
        <ele>77.8</ele>
        <time>2013-03-03T16:20:23.000Z</time>
      </trkpt>
      <trkpt lat="48.85086" lon="2.35556">
        <ele>77.3</ele>
        <time>2013-03-03T16:20:24.000Z</time>
      </trkpt>
      <trkpt lat="48.85083" lon="2.35554">
        <ele>79.3</ele>
        <time>2013-03-03T16:20:25.000Z</time>
      </trkpt>
      <trkpt lat="48.85081" lon="2.35552">
        <ele>78.8</ele>
        <time>2013-03-03T16:20:26.000Z</time>
      </trkpt>
      <trkpt lat="48.85078" lon="2.3555">
        <ele>79.4</ele>
        <time>2013-03-03T16:20:27.000Z</time>
      </trkpt>
      <trkpt lat="48.85075" lon="2.35547">
        <ele>79.6</ele>
        <time>2013-03-03T16:20:28.000Z</time>
      </trkpt>
      <trkpt lat="48.85073" lon="2.35545">
        <ele>80.4</ele>
        <time>2013-03-03T16:20:29.000Z</time>
      </trkpt>
      <trkpt lat="48.85068" lon="2.3554">
        <ele>80.4</ele>
        <time>2013-03-03T16:20:31.113Z</time>
      </trkpt>
      <trkpt lat="48.85066" lon="2.35538">
        <ele>79.8</ele>
        <time>2013-03-03T16:20:32.000Z</time>
      </trkpt>
      <trkpt lat="48.85064" lon="2.35536">
        <ele>79.6</ele>
        <time>2013-03-03T16:20:33.000Z</time>
      </trkpt>
      <trkpt lat="48.85061" lon="2.35534">
        <ele>79.1</ele>
        <time>2013-03-03T16:20:34.000Z</time>
      </trkpt>
      <trkpt lat="48.85059" lon="2.35532">
        <ele>79.7</ele>
        <time>2013-03-03T16:20:35.000Z</time>
      </trkpt>
      <trkpt lat="48.85056" lon="2.3553">
        <ele>81.1</ele>
        <time>2013-03-03T16:20:36.000Z</time>
      </trkpt>
      <trkpt lat="48.85054" lon="2.35527">
        <ele>82</ele>
        <time>2013-03-03T16:20:37.000Z</time>
      </trkpt>
      <trkpt lat="48.85051" lon="2.35525">
        <ele>81.6</ele>
        <time>2013-03-03T16:20:38.000Z</time>
      </trkpt>
      <trkpt lat="48.85048" lon="2.35523">
        <ele>81.4</ele>
        <time>2013-03-03T16:20:39.000Z</time>
      </trkpt>
      <trkpt lat="48.85045" lon="2.3552">
        <ele>82.1</ele>
        <time>2013-03-03T16:20:40.000Z</time>
      </trkpt>
      <trkpt lat="48.85042" lon="2.35518">
        <ele>80.5</ele>
        <time>2013-03-03T16:20:41.000Z</time>
      </trkpt>
      <trkpt lat="48.85039" lon="2.35516">
        <ele>80.3</ele>
        <time>2013-03-03T16:20:42.000Z</time>
      </trkpt>
      <trkpt lat="48.85036" lon="2.35515">
        <ele>80.1</ele>
        <time>2013-03-03T16:20:43.000Z</time>
      </trkpt>
      <trkpt lat="48.85033" lon="2.35513">
        <ele>80.4</ele>
        <time>2013-03-03T16:20:44.000Z</time>
      </trkpt>
      <trkpt lat="48.85031" lon="2.3551">
        <ele>81.2</ele>
        <time>2013-03-03T16:20:45.000Z</time>
      </trkpt>
      <trkpt lat="48.85028" lon="2.35508">
        <ele>81.7</ele>
        <time>2013-03-03T16:20:46.000Z</time>
      </trkpt>
      <trkpt lat="48.85024" lon="2.35504">
        <ele>82.6</ele>
        <time>2013-03-03T16:20:47.000Z</time>
      </trkpt>
      <trkpt lat="48.85021" lon="2.35501">
        <ele>83.9</ele>
        <time>2013-03-03T16:20:48.000Z</time>
      </trkpt>
      <trkpt lat="48.85018" lon="2.35497">
        <ele>84.5</ele>
        <time>2013-03-03T16:20:49.000Z</time>
      </trkpt>
      <trkpt lat="48.85015" lon="2.35495">
        <ele>83</ele>
        <time>2013-03-03T16:20:50.000Z</time>
      </trkpt>
      <trkpt lat="48.85012" lon="2.35493">
        <ele>83.3</ele>
        <time>2013-03-03T16:20:51.000Z</time>
      </trkpt>
      <trkpt lat="48.85009" lon="2.3549">
        <ele>84</ele>
        <time>2013-03-03T16:20:53.000Z</time>
      </trkpt>
      <trkpt lat="48.85008" lon="2.35489">
        <ele>85.7</ele>
        <time>2013-03-03T16:20:54.000Z</time>
      </trkpt>
      <trkpt lat="48.85007" lon="2.35483">
        <ele>86</ele>
        <time>2013-03-03T16:20:57.000Z</time>
      </trkpt>
      <trkpt lat="48.85007" lon="2.35482">
        <ele>84.1</ele>
        <time>2013-03-03T16:20:58.000Z</time>
      </trkpt>
      <trkpt lat="48.85003" lon="2.35478">
        <ele>82.4</ele>
        <time>2013-03-03T16:21:23.000Z</time>
      </trkpt>
      <trkpt lat="48.85002" lon="2.35478">
        <ele>82.5</ele>
        <time>2013-03-03T16:21:24.000Z</time>
      </trkpt>
      <trkpt lat="48.84999" lon="2.35477">
        <ele>83.3</ele>
        <time>2013-03-03T16:21:25.000Z</time>
      </trkpt>
      <trkpt lat="48.84996" lon="2.35476">
        <ele>82.3</ele>
        <time>2013-03-03T16:21:26.000Z</time>
      </trkpt>
      <trkpt lat="48.84992" lon="2.35475">
        <ele>81.5</ele>
        <time>2013-03-03T16:21:28.000Z</time>
      </trkpt>
      <trkpt lat="48.8499" lon="2.35474">
        <ele>81.8</ele>
        <time>2013-03-03T16:21:29.000Z</time>
      </trkpt>
      <trkpt lat="48.84986" lon="2.35474">
        <ele>81.4</ele>
        <time>2013-03-03T16:21:32.000Z</time>
      </trkpt>
      <trkpt lat="48.84983" lon="2.35473">
        <ele>82</ele>
        <time>2013-03-03T16:21:34.000Z</time>
      </trkpt>
      <trkpt lat="48.84981" lon="2.35471">
        <ele>81.2</ele>
        <time>2013-03-03T16:21:35.000Z</time>
      </trkpt>
      <trkpt lat="48.84979" lon="2.3547">
        <ele>81</ele>
        <time>2013-03-03T16:21:36.000Z</time>
      </trkpt>
      <trkpt lat="48.84975" lon="2.35468">
        <ele>81.1</ele>
        <time>2013-03-03T16:21:37.000Z</time>
      </trkpt>
      <trkpt lat="48.84972" lon="2.35467">
        <ele>80.9</ele>
        <time>2013-03-03T16:21:38.000Z</time>
      </trkpt>
      <trkpt lat="48.84969" lon="2.35465">
        <ele>80.6</ele>
        <time>2013-03-03T16:21:39.000Z</time>
      </trkpt>
      <trkpt lat="48.84966" lon="2.35464">
        <ele>80</ele>
        <time>2013-03-03T16:21:40.000Z</time>
      </trkpt>
      <trkpt lat="48.84963" lon="2.35462">
        <ele>79.6</ele>
        <time>2013-03-03T16:21:41.000Z</time>
      </trkpt>
      <trkpt lat="48.84959" lon="2.35461">
        <ele>79.8</ele>
        <time>2013-03-03T16:21:42.000Z</time>
      </trkpt>
      <trkpt lat="48.84956" lon="2.35459">
        <ele>79.7</ele>
        <time>2013-03-03T16:21:43.000Z</time>
      </trkpt>
      <trkpt lat="48.84954" lon="2.35458">
        <ele>77.7</ele>
        <time>2013-03-03T16:21:44.000Z</time>
      </trkpt>
      <trkpt lat="48.84952" lon="2.35456">
        <ele>77</ele>
        <time>2013-03-03T16:21:45.000Z</time>
      </trkpt>
      <trkpt lat="48.84952" lon="2.3545">
        <ele>75.3</ele>
        <time>2013-03-03T16:21:49.000Z</time>
      </trkpt>
      <trkpt lat="48.84952" lon="2.35448">
        <ele>75.4</ele>
        <time>2013-03-03T16:21:50.000Z</time>
      </trkpt>
      <trkpt lat="48.84952" lon="2.35442">
        <ele>75.9</ele>
        <time>2013-03-03T16:22:11.000Z</time>
      </trkpt>
      <trkpt lat="48.84952" lon="2.35441">
        <ele>75.7</ele>
        <time>2013-03-03T16:22:12.000Z</time>
      </trkpt>
      <trkpt lat="48.84949" lon="2.35439">
        <ele>77.2</ele>
        <time>2013-03-03T16:22:27.000Z</time>
      </trkpt>
      <trkpt lat="48.84947" lon="2.35438">
        <ele>78.5</ele>
        <time>2013-03-03T16:22:28.000Z</time>
      </trkpt>
      <trkpt lat="48.84944" lon="2.35437">
        <ele>78.4</ele>
        <time>2013-03-03T16:22:29.000Z</time>
      </trkpt>
      <trkpt lat="48.8494" lon="2.35435">
        <ele>78.3</ele>
        <time>2013-03-03T16:22:31.090Z</time>
      </trkpt>
      <trkpt lat="48.84937" lon="2.35434">
        <ele>78.6</ele>
        <time>2013-03-03T16:22:32.000Z</time>
      </trkpt>
      <trkpt lat="48.84935" lon="2.35433">
        <ele>76.2</ele>
        <time>2013-03-03T16:22:33.000Z</time>
      </trkpt>
      <trkpt lat="48.84931" lon="2.35432">
        <ele>75.2</ele>
        <time>2013-03-03T16:22:35.000Z</time>
      </trkpt>
      <trkpt lat="48.84929" lon="2.35431">
        <ele>76.4</ele>
        <time>2013-03-03T16:22:36.000Z</time>
      </trkpt>
      <trkpt lat="48.84925" lon="2.35429">
        <ele>77.1</ele>
        <time>2013-03-03T16:22:38.000Z</time>
      </trkpt>
      <trkpt lat="48.84923" lon="2.35427">
        <ele>77.5</ele>
        <time>2013-03-03T16:22:39.000Z</time>
      </trkpt>
      <trkpt lat="48.84921" lon="2.35426">
        <ele>77.1</ele>
        <time>2013-03-03T16:22:40.000Z</time>
      </trkpt>
      <trkpt lat="48.84918" lon="2.35423">
        <ele>78.5</ele>
        <time>2013-03-03T16:22:41.000Z</time>
      </trkpt>
      <trkpt lat="48.84915" lon="2.3542">
        <ele>78.5</ele>
        <time>2013-03-03T16:22:42.000Z</time>
      </trkpt>
      <trkpt lat="48.84912" lon="2.35418">
        <ele>78.5</ele>
        <time>2013-03-03T16:22:43.000Z</time>
      </trkpt>
      <trkpt lat="48.84909" lon="2.35415">
        <ele>77.3</ele>
        <time>2013-03-03T16:22:44.000Z</time>
      </trkpt>
      <trkpt lat="48.84906" lon="2.35413">
        <ele>77.2</ele>
        <time>2013-03-03T16:22:45.000Z</time>
      </trkpt>
      <trkpt lat="48.84903" lon="2.3541">
        <ele>77.3</ele>
        <time>2013-03-03T16:22:46.000Z</time>
      </trkpt>
      <trkpt lat="48.849" lon="2.35408">
        <ele>76.4</ele>
        <time>2013-03-03T16:22:47.000Z</time>
      </trkpt>
      <trkpt lat="48.84896" lon="2.35404">
        <ele>76.6</ele>
        <time>2013-03-03T16:22:48.000Z</time>
      </trkpt>
      <trkpt lat="48.84893" lon="2.35401">
        <ele>77</ele>
        <time>2013-03-03T16:22:49.000Z</time>
      </trkpt>
      <trkpt lat="48.8489" lon="2.35398">
        <ele>77</ele>
        <time>2013-03-03T16:22:50.000Z</time>
      </trkpt>
      <trkpt lat="48.84888" lon="2.35395">
        <ele>77.3</ele>
        <time>2013-03-03T16:22:51.000Z</time>
      </trkpt>
      <trkpt lat="48.84885" lon="2.35393">
        <ele>77.6</ele>
        <time>2013-03-03T16:22:52.000Z</time>
      </trkpt>
      <trkpt lat="48.84882" lon="2.3539">
        <ele>77.4</ele>
        <time>2013-03-03T16:22:53.000Z</time>
      </trkpt>
      <trkpt lat="48.84878" lon="2.35389">
        <ele>76.9</ele>
        <time>2013-03-03T16:22:54.000Z</time>
      </trkpt>
      <trkpt lat="48.84875" lon="2.35386">
        <ele>76.5</ele>
        <time>2013-03-03T16:22:55.000Z</time>
      </trkpt>
      <trkpt lat="48.84872" lon="2.35384">
        <ele>76</ele>
        <time>2013-03-03T16:22:56.000Z</time>
      </trkpt>
      <trkpt lat="48.8487" lon="2.35381">
        <ele>75.9</ele>
        <time>2013-03-03T16:22:57.000Z</time>
      </trkpt>
      <trkpt lat="48.84867" lon="2.35378">
        <ele>75.6</ele>
        <time>2013-03-03T16:22:58.000Z</time>
      </trkpt>
      <trkpt lat="48.84864" lon="2.35375">
        <ele>75.6</ele>
        <time>2013-03-03T16:22:59.000Z</time>
      </trkpt>
      <trkpt lat="48.84862" lon="2.35373">
        <ele>76.2</ele>
        <time>2013-03-03T16:23:00.000Z</time>
      </trkpt>
      <trkpt lat="48.84859" lon="2.35371">
        <ele>76.7</ele>
        <time>2013-03-03T16:23:01.000Z</time>
      </trkpt>
      <trkpt lat="48.84856" lon="2.35369">
        <ele>77.3</ele>
        <time>2013-03-03T16:23:02.000Z</time>
      </trkpt>
      <trkpt lat="48.84853" lon="2.35366">
        <ele>77.7</ele>
        <time>2013-03-03T16:23:03.000Z</time>
      </trkpt>
      <trkpt lat="48.8485" lon="2.35363">
        <ele>76.3</ele>
        <time>2013-03-03T16:23:04.000Z</time>
      </trkpt>
      <trkpt lat="48.84847" lon="2.3536">
        <ele>76.5</ele>
        <time>2013-03-03T16:23:05.000Z</time>
      </trkpt>
      <trkpt lat="48.84843" lon="2.35358">
        <ele>77</ele>
        <time>2013-03-03T16:23:06.000Z</time>
      </trkpt>
      <trkpt lat="48.8484" lon="2.35355">
        <ele>76.6</ele>
        <time>2013-03-03T16:23:07.000Z</time>
      </trkpt>
      <trkpt lat="48.84837" lon="2.35351">
        <ele>75.9</ele>
        <time>2013-03-03T16:23:08.000Z</time>
      </trkpt>
      <trkpt lat="48.84833" lon="2.35348">
        <ele>75.7</ele>
        <time>2013-03-03T16:23:09.000Z</time>
      </trkpt>
      <trkpt lat="48.8483" lon="2.35345">
        <ele>75.7</ele>
        <time>2013-03-03T16:23:10.000Z</time>
      </trkpt>
      <trkpt lat="48.84826" lon="2.35342">
        <ele>76</ele>
        <time>2013-03-03T16:23:11.000Z</time>
      </trkpt>
      <trkpt lat="48.84823" lon="2.35338">
        <ele>76.2</ele>
        <time>2013-03-03T16:23:12.000Z</time>
      </trkpt>
      <trkpt lat="48.84819" lon="2.35334">
        <ele>76.3</ele>
        <time>2013-03-03T16:23:13.000Z</time>
      </trkpt>
      <trkpt lat="48.84816" lon="2.3533">
        <ele>76.5</ele>
        <time>2013-03-03T16:23:14.000Z</time>
      </trkpt>
      <trkpt lat="48.84812" lon="2.35326">
        <ele>76.5</ele>
        <time>2013-03-03T16:23:15.000Z</time>
      </trkpt>
      <trkpt lat="48.84809" lon="2.35322">
        <ele>76</ele>
        <time>2013-03-03T16:23:16.000Z</time>
      </trkpt>
      <trkpt lat="48.84806" lon="2.35319">
        <ele>75.7</ele>
        <time>2013-03-03T16:23:17.000Z</time>
      </trkpt>
      <trkpt lat="48.84803" lon="2.35315">
        <ele>75.8</ele>
        <time>2013-03-03T16:23:18.000Z</time>
      </trkpt>
      <trkpt lat="48.84799" lon="2.35311">
        <ele>75.2</ele>
        <time>2013-03-03T16:23:19.000Z</time>
      </trkpt>
      <trkpt lat="48.84796" lon="2.35308">
        <ele>74.4</ele>
        <time>2013-03-03T16:23:20.000Z</time>
      </trkpt>
      <trkpt lat="48.84793" lon="2.35306">
        <ele>73.9</ele>
        <time>2013-03-03T16:23:21.000Z</time>
      </trkpt>
      <trkpt lat="48.84789" lon="2.35304">
        <ele>74.1</ele>
        <time>2013-03-03T16:23:22.000Z</time>
      </trkpt>
      <trkpt lat="48.84786" lon="2.35302">
        <ele>73.9</ele>
        <time>2013-03-03T16:23:23.000Z</time>
      </trkpt>
      <trkpt lat="48.84783" lon="2.35301">
        <ele>73.1</ele>
        <time>2013-03-03T16:23:24.000Z</time>
      </trkpt>
      <trkpt lat="48.84779" lon="2.35299">
        <ele>73.3</ele>
        <time>2013-03-03T16:23:25.000Z</time>
      </trkpt>
      <trkpt lat="48.84776" lon="2.35297">
        <ele>75.3</ele>
        <time>2013-03-03T16:23:26.000Z</time>
      </trkpt>
      <trkpt lat="48.84773" lon="2.35295">
        <ele>76.8</ele>
        <time>2013-03-03T16:23:27.000Z</time>
      </trkpt>
      <trkpt lat="48.8477" lon="2.35292">
        <ele>76.3</ele>
        <time>2013-03-03T16:23:28.000Z</time>
      </trkpt>
      <trkpt lat="48.84766" lon="2.3529">
        <ele>78.1</ele>
        <time>2013-03-03T16:23:29.000Z</time>
      </trkpt>
      <trkpt lat="48.84757" lon="2.35281">
        <ele>73.9</ele>
        <time>2013-03-03T16:23:32.000Z</time>
      </trkpt>
      <trkpt lat="48.84755" lon="2.35277">
        <ele>73.4</ele>
        <time>2013-03-03T16:23:33.000Z</time>
      </trkpt>
      <trkpt lat="48.84754" lon="2.35273">
        <ele>72.9</ele>
        <time>2013-03-03T16:23:34.000Z</time>
      </trkpt>
      <trkpt lat="48.84755" lon="2.35267">
        <ele>78.5</ele>
        <time>2013-03-03T16:23:38.000Z</time>
      </trkpt>
      <trkpt lat="48.84755" lon="2.35266">
        <ele>78.9</ele>
        <time>2013-03-03T16:23:39.000Z</time>
      </trkpt>
      <trkpt lat="48.84752" lon="2.35269">
        <ele>84.4</ele>
        <time>2013-03-03T16:23:45.000Z</time>
      </trkpt>
      <trkpt lat="48.84751" lon="2.35271">
        <ele>85</ele>
        <time>2013-03-03T16:23:46.000Z</time>
      </trkpt>
      <trkpt lat="48.84747" lon="2.35274">
        <ele>83.4</ele>
        <time>2013-03-03T16:23:53.000Z</time>
      </trkpt>
      <trkpt lat="48.84746" lon="2.35273">
        <ele>83.7</ele>
        <time>2013-03-03T16:23:54.000Z</time>
      </trkpt>
      <trkpt lat="48.84742" lon="2.35274">
        <ele>83.9</ele>
        <time>2013-03-03T16:23:56.000Z</time>
      </trkpt>
      <trkpt lat="48.84741" lon="2.35274">
        <ele>84.3</ele>
        <time>2013-03-03T16:23:57.000Z</time>
      </trkpt>
      <trkpt lat="48.84736" lon="2.35273">
        <ele>82.8</ele>
        <time>2013-03-03T16:23:59.000Z</time>
      </trkpt>
      <trkpt lat="48.84733" lon="2.35272">
        <ele>84.3</ele>
        <time>2013-03-03T16:24:00.000Z</time>
      </trkpt>
      <trkpt lat="48.8473" lon="2.35271">
        <ele>86.3</ele>
        <time>2013-03-03T16:24:01.000Z</time>
      </trkpt>
      <trkpt lat="48.84726" lon="2.35269">
        <ele>86.7</ele>
        <time>2013-03-03T16:24:02.000Z</time>
      </trkpt>
      <trkpt lat="48.84723" lon="2.35266">
        <ele>86.6</ele>
        <time>2013-03-03T16:24:03.000Z</time>
      </trkpt>
      <trkpt lat="48.84719" lon="2.35263">
        <ele>85.5</ele>
        <time>2013-03-03T16:24:04.000Z</time>
      </trkpt>
      <trkpt lat="48.84716" lon="2.35259">
        <ele>85.9</ele>
        <time>2013-03-03T16:24:05.000Z</time>
      </trkpt>
      <trkpt lat="48.84713" lon="2.35254">
        <ele>86.2</ele>
        <time>2013-03-03T16:24:06.000Z</time>
      </trkpt>
      <trkpt lat="48.8471" lon="2.35249">
        <ele>86.5</ele>
        <time>2013-03-03T16:24:07.000Z</time>
      </trkpt>
      <trkpt lat="48.84707" lon="2.35245">
        <ele>88.3</ele>
        <time>2013-03-03T16:24:08.000Z</time>
      </trkpt>
      <trkpt lat="48.84705" lon="2.3524">
        <ele>89.1</ele>
        <time>2013-03-03T16:24:09.000Z</time>
      </trkpt>
      <trkpt lat="48.84702" lon="2.35236">
        <ele>89.7</ele>
        <time>2013-03-03T16:24:10.000Z</time>
      </trkpt>
      <trkpt lat="48.84699" lon="2.35232">
        <ele>89.8</ele>
        <time>2013-03-03T16:24:11.000Z</time>
      </trkpt>
      <trkpt lat="48.84696" lon="2.35228">
        <ele>89.9</ele>
        <time>2013-03-03T16:24:12.000Z</time>
      </trkpt>
      <trkpt lat="48.84694" lon="2.35224">
        <ele>90</ele>
        <time>2013-03-03T16:24:13.000Z</time>
      </trkpt>
      <trkpt lat="48.84691" lon="2.3522">
        <ele>90.4</ele>
        <time>2013-03-03T16:24:14.000Z</time>
      </trkpt>
      <trkpt lat="48.84689" lon="2.35216">
        <ele>90.4</ele>
        <time>2013-03-03T16:24:15.000Z</time>
      </trkpt>
      <trkpt lat="48.84686" lon="2.35212">
        <ele>90.3</ele>
        <time>2013-03-03T16:24:16.000Z</time>
      </trkpt>
      <trkpt lat="48.84684" lon="2.35208">
        <ele>90.2</ele>
        <time>2013-03-03T16:24:17.000Z</time>
      </trkpt>
      <trkpt lat="48.84682" lon="2.35204">
        <ele>89.8</ele>
        <time>2013-03-03T16:24:18.000Z</time>
      </trkpt>
      <trkpt lat="48.84681" lon="2.35201">
        <ele>89.8</ele>
        <time>2013-03-03T16:24:19.000Z</time>
      </trkpt>
      <trkpt lat="48.84679" lon="2.35198">
        <ele>89.3</ele>
        <time>2013-03-03T16:24:20.000Z</time>
      </trkpt>
      <trkpt lat="48.84676" lon="2.35196">
        <ele>90.7</ele>
        <time>2013-03-03T16:24:23.000Z</time>
      </trkpt>
      <trkpt lat="48.84675" lon="2.35195">
        <ele>92.3</ele>
        <time>2013-03-03T16:24:24.000Z</time>
      </trkpt>
      <trkpt lat="48.84671" lon="2.35193">
        <ele>94.6</ele>
        <time>2013-03-03T16:24:26.000Z</time>
      </trkpt>
      <trkpt lat="48.84669" lon="2.35192">
        <ele>94.4</ele>
        <time>2013-03-03T16:24:27.000Z</time>
      </trkpt>
      <trkpt lat="48.84667" lon="2.35189">
        <ele>95.3</ele>
        <time>2013-03-03T16:24:29.000Z</time>
      </trkpt>
      <trkpt lat="48.84666" lon="2.35186">
        <ele>95.4</ele>
        <time>2013-03-03T16:24:30.835Z</time>
      </trkpt>
      <trkpt lat="48.84665" lon="2.3518">
        <ele>88.9</ele>
        <time>2013-03-03T16:24:34.000Z</time>
      </trkpt>
      <trkpt lat="48.84667" lon="2.35177">
        <ele>90</ele>
        <time>2013-03-03T16:24:35.000Z</time>
      </trkpt>
      <trkpt lat="48.84668" lon="2.3517">
        <ele>95.2</ele>
        <time>2013-03-03T16:24:48.000Z</time>
      </trkpt>
      <trkpt lat="48.84668" lon="2.3517">
        <ele>95.2</ele>
        <time>2013-03-03T16:24:49.000Z</time>
      </trkpt>
      <trkpt lat="48.84664" lon="2.35167">
        <ele>94.6</ele>
        <time>2013-03-03T16:24:57.000Z</time>
      </trkpt>
      <trkpt lat="48.84663" lon="2.35167">
        <ele>94.5</ele>
        <time>2013-03-03T16:24:58.000Z</time>
      </trkpt>
      <trkpt lat="48.84659" lon="2.35166">
        <ele>96.9</ele>
        <time>2013-03-03T16:25:35.000Z</time>
      </trkpt>
      <trkpt lat="48.84658" lon="2.35167">
        <ele>97.9</ele>
        <time>2013-03-03T16:25:36.000Z</time>
      </trkpt>
      <trkpt lat="48.84654" lon="2.35169">
        <ele>99.2</ele>
        <time>2013-03-03T16:25:38.000Z</time>
      </trkpt>
      <trkpt lat="48.84653" lon="2.35169">
        <ele>99.7</ele>
        <time>2013-03-03T16:25:39.000Z</time>
      </trkpt>
      <trkpt lat="48.84651" lon="2.35165">
        <ele>99.9</ele>
        <time>2013-03-03T16:25:41.000Z</time>
      </trkpt>
      <trkpt lat="48.84652" lon="2.35162">
        <ele>100.7</ele>
        <time>2013-03-03T16:25:42.000Z</time>
      </trkpt>
      <trkpt lat="48.84651" lon="2.35168">
        <ele>123.3</ele>
        <time>2013-03-03T16:27:40.000Z</time>
      </trkpt>
      <trkpt lat="48.8465" lon="2.35168">
        <ele>122.2</ele>
        <time>2013-03-03T16:27:41.000Z</time>
      </trkpt>
      <trkpt lat="48.84646" lon="2.35167">
        <ele>125</ele>
        <time>2013-03-03T16:27:45.000Z</time>
      </trkpt>
      <trkpt lat="48.84645" lon="2.35167">
        <ele>126.4</ele>
        <time>2013-03-03T16:27:46.000Z</time>
      </trkpt>
      <trkpt lat="48.84642" lon="2.35167">
        <ele>125.9</ele>
        <time>2013-03-03T16:27:48.000Z</time>
      </trkpt>
      <trkpt lat="48.8464" lon="2.35168">
        <ele>125.6</ele>
        <time>2013-03-03T16:27:49.000Z</time>
      </trkpt>
      <trkpt lat="48.84637" lon="2.35169">
        <ele>124.1</ele>
        <time>2013-03-03T16:27:50.000Z</time>
      </trkpt>
      <trkpt lat="48.84634" lon="2.35172">
        <ele>123.9</ele>
        <time>2013-03-03T16:27:51.000Z</time>
      </trkpt>
      <trkpt lat="48.84629" lon="2.35177">
        <ele>124.3</ele>
        <time>2013-03-03T16:27:52.000Z</time>
      </trkpt>
      <trkpt lat="48.84627" lon="2.35179">
        <ele>124.3</ele>
        <time>2013-03-03T16:27:53.000Z</time>
      </trkpt>
      <trkpt lat="48.84623" lon="2.35181">
        <ele>123.3</ele>
        <time>2013-03-03T16:27:54.000Z</time>
      </trkpt>
      <trkpt lat="48.8462" lon="2.35184">
        <ele>123.9</ele>
        <time>2013-03-03T16:27:55.000Z</time>
      </trkpt>
      <trkpt lat="48.84616" lon="2.35187">
        <ele>124</ele>
        <time>2013-03-03T16:27:56.000Z</time>
      </trkpt>
      <trkpt lat="48.84612" lon="2.3519">
        <ele>124</ele>
        <time>2013-03-03T16:27:57.000Z</time>
      </trkpt>
      <trkpt lat="48.84608" lon="2.35193">
        <ele>124.1</ele>
        <time>2013-03-03T16:27:58.000Z</time>
      </trkpt>
      <trkpt lat="48.84605" lon="2.35195">
        <ele>124.1</ele>
        <time>2013-03-03T16:27:59.000Z</time>
      </trkpt>
      <trkpt lat="48.84602" lon="2.35197">
        <ele>124.1</ele>
        <time>2013-03-03T16:28:00.000Z</time>
      </trkpt>
      <trkpt lat="48.84599" lon="2.35199">
        <ele>124.7</ele>
        <time>2013-03-03T16:28:01.000Z</time>
      </trkpt>
      <trkpt lat="48.84596" lon="2.352">
        <ele>126</ele>
        <time>2013-03-03T16:28:02.000Z</time>
      </trkpt>
      <trkpt lat="48.84593" lon="2.35202">
        <ele>125.2</ele>
        <time>2013-03-03T16:28:03.000Z</time>
      </trkpt>
      <trkpt lat="48.8459" lon="2.35203">
        <ele>125</ele>
        <time>2013-03-03T16:28:04.000Z</time>
      </trkpt>
      <trkpt lat="48.84586" lon="2.35206">
        <ele>126.6</ele>
        <time>2013-03-03T16:28:06.000Z</time>
      </trkpt>
      <trkpt lat="48.84584" lon="2.35208">
        <ele>126.7</ele>
        <time>2013-03-03T16:28:07.000Z</time>
      </trkpt>
      <trkpt lat="48.84581" lon="2.35209">
        <ele>127.3</ele>
        <time>2013-03-03T16:28:08.000Z</time>
      </trkpt>
      <trkpt lat="48.84579" lon="2.35211">
        <ele>128.2</ele>
        <time>2013-03-03T16:28:09.000Z</time>
      </trkpt>
      <trkpt lat="48.84575" lon="2.35212">
        <ele>125.7</ele>
        <time>2013-03-03T16:28:11.000Z</time>
      </trkpt>
      <trkpt lat="48.84573" lon="2.35213">
        <ele>126.2</ele>
        <time>2013-03-03T16:28:12.000Z</time>
      </trkpt>
      <trkpt lat="48.84568" lon="2.35215">
        <ele>126.5</ele>
        <time>2013-03-03T16:28:14.000Z</time>
      </trkpt>
      <trkpt lat="48.84566" lon="2.35216">
        <ele>125.7</ele>
        <time>2013-03-03T16:28:15.000Z</time>
      </trkpt>
      <trkpt lat="48.84563" lon="2.35216">
        <ele>126.3</ele>
        <time>2013-03-03T16:28:16.000Z</time>
      </trkpt>
      <trkpt lat="48.8456" lon="2.35218">
        <ele>126</ele>
        <time>2013-03-03T16:28:17.000Z</time>
      </trkpt>
      <trkpt lat="48.84556" lon="2.35218">
        <ele>126.1</ele>
        <time>2013-03-03T16:28:18.000Z</time>
      </trkpt>
      <trkpt lat="48.84552" lon="2.35217">
        <ele>127</ele>
        <time>2013-03-03T16:28:19.000Z</time>
      </trkpt>
      <trkpt lat="48.84549" lon="2.35216">
        <ele>127</ele>
        <time>2013-03-03T16:28:20.000Z</time>
      </trkpt>
      <trkpt lat="48.84546" lon="2.35215">
        <ele>124.9</ele>
        <time>2013-03-03T16:28:21.000Z</time>
      </trkpt>
      <trkpt lat="48.84544" lon="2.35214">
        <ele>123.1</ele>
        <time>2013-03-03T16:28:22.000Z</time>
      </trkpt>
      <trkpt lat="48.84541" lon="2.35214">
        <ele>122.2</ele>
        <time>2013-03-03T16:28:23.000Z</time>
      </trkpt>
      <trkpt lat="48.84539" lon="2.35214">
        <ele>123.5</ele>
        <time>2013-03-03T16:28:24.000Z</time>
      </trkpt>
      <trkpt lat="48.84536" lon="2.35215">
        <ele>123.2</ele>
        <time>2013-03-03T16:28:25.000Z</time>
      </trkpt>
      <trkpt lat="48.84534" lon="2.35216">
        <ele>123.4</ele>
        <time>2013-03-03T16:28:26.000Z</time>
      </trkpt>
      <trkpt lat="48.84531" lon="2.35217">
        <ele>123.8</ele>
        <time>2013-03-03T16:28:27.000Z</time>
      </trkpt>
      <trkpt lat="48.84529" lon="2.35217">
        <ele>123.3</ele>
        <time>2013-03-03T16:28:28.000Z</time>
      </trkpt>
      <trkpt lat="48.84526" lon="2.35217">
        <ele>122.4</ele>
        <time>2013-03-03T16:28:29.000Z</time>
      </trkpt>
      <trkpt lat="48.84518" lon="2.35219">
        <ele>122.2</ele>
        <time>2013-03-03T16:28:32.000Z</time>
      </trkpt>
      <trkpt lat="48.84514" lon="2.3522">
        <ele>121.2</ele>
        <time>2013-03-03T16:28:34.000Z</time>
      </trkpt>
      <trkpt lat="48.84512" lon="2.35221">
        <ele>122.6</ele>
        <time>2013-03-03T16:28:35.000Z</time>
      </trkpt>
      <trkpt lat="48.84509" lon="2.35221">
        <ele>123.2</ele>
        <time>2013-03-03T16:28:36.000Z</time>
      </trkpt>
      <trkpt lat="48.84507" lon="2.35222">
        <ele>123.9</ele>
        <time>2013-03-03T16:28:37.000Z</time>
      </trkpt>
      <trkpt lat="48.84504" lon="2.35224">
        <ele>123</ele>
        <time>2013-03-03T16:28:38.000Z</time>
      </trkpt>
      <trkpt lat="48.845" lon="2.35226">
        <ele>123.4</ele>
        <time>2013-03-03T16:28:39.000Z</time>
      </trkpt>
      <trkpt lat="48.84496" lon="2.35229">
        <ele>123.5</ele>
        <time>2013-03-03T16:28:40.000Z</time>
      </trkpt>
      <trkpt lat="48.84492" lon="2.35231">
        <ele>122.8</ele>
        <time>2013-03-03T16:28:41.000Z</time>
      </trkpt>
      <trkpt lat="48.84488" lon="2.35233">
        <ele>122.9</ele>
        <time>2013-03-03T16:28:42.000Z</time>
      </trkpt>
      <trkpt lat="48.84484" lon="2.35235">
        <ele>122.8</ele>
        <time>2013-03-03T16:28:43.000Z</time>
      </trkpt>
      <trkpt lat="48.84481" lon="2.35236">
        <ele>122.1</ele>
        <time>2013-03-03T16:28:44.000Z</time>
      </trkpt>
      <trkpt lat="48.84477" lon="2.35238">
        <ele>123.1</ele>
        <time>2013-03-03T16:28:45.000Z</time>
      </trkpt>
      <trkpt lat="48.84474" lon="2.3524">
        <ele>124.1</ele>
        <time>2013-03-03T16:28:46.000Z</time>
      </trkpt>
      <trkpt lat="48.8447" lon="2.35242">
        <ele>124.8</ele>
        <time>2013-03-03T16:28:47.000Z</time>
      </trkpt>
      <trkpt lat="48.84467" lon="2.35244">
        <ele>122.7</ele>
        <time>2013-03-03T16:28:48.000Z</time>
      </trkpt>
      <trkpt lat="48.84465" lon="2.35244">
        <ele>123.5</ele>
        <time>2013-03-03T16:28:49.000Z</time>
      </trkpt>
      <trkpt lat="48.84462" lon="2.35243">
        <ele>123.9</ele>
        <time>2013-03-03T16:28:50.000Z</time>
      </trkpt>
      <trkpt lat="48.8446" lon="2.35242">
        <ele>122</ele>
        <time>2013-03-03T16:28:51.000Z</time>
      </trkpt>
      <trkpt lat="48.84458" lon="2.35243">
        <ele>121.3</ele>
        <time>2013-03-03T16:28:52.000Z</time>
      </trkpt>
      <trkpt lat="48.84455" lon="2.35244">
        <ele>121.2</ele>
        <time>2013-03-03T16:28:53.000Z</time>
      </trkpt>
      <trkpt lat="48.84452" lon="2.35245">
        <ele>118.7</ele>
        <time>2013-03-03T16:28:54.000Z</time>
      </trkpt>
      <trkpt lat="48.84448" lon="2.35245">
        <ele>117.6</ele>
        <time>2013-03-03T16:28:55.000Z</time>
      </trkpt>
      <trkpt lat="48.84444" lon="2.35245">
        <ele>117.1</ele>
        <time>2013-03-03T16:28:56.000Z</time>
      </trkpt>
      <trkpt lat="48.84441" lon="2.35245">
        <ele>116</ele>
        <time>2013-03-03T16:28:57.000Z</time>
      </trkpt>
      <trkpt lat="48.84437" lon="2.35245">
        <ele>113.9</ele>
        <time>2013-03-03T16:28:58.000Z</time>
      </trkpt>
      <trkpt lat="48.84433" lon="2.35245">
        <ele>113.6</ele>
        <time>2013-03-03T16:28:59.000Z</time>
      </trkpt>
      <trkpt lat="48.84429" lon="2.35246">
        <ele>112.7</ele>
        <time>2013-03-03T16:29:00.000Z</time>
      </trkpt>
      <trkpt lat="48.84424" lon="2.35246">
        <ele>111.2</ele>
        <time>2013-03-03T16:29:01.000Z</time>
      </trkpt>
      <trkpt lat="48.84419" lon="2.35246">
        <ele>109.2</ele>
        <time>2013-03-03T16:29:02.000Z</time>
      </trkpt>
      <trkpt lat="48.84414" lon="2.35246">
        <ele>108.3</ele>
        <time>2013-03-03T16:29:03.000Z</time>
      </trkpt>
      <trkpt lat="48.84409" lon="2.35247">
        <ele>107.8</ele>
        <time>2013-03-03T16:29:04.000Z</time>
      </trkpt>
      <trkpt lat="48.84405" lon="2.35247">
        <ele>108.4</ele>
        <time>2013-03-03T16:29:05.000Z</time>
      </trkpt>
      <trkpt lat="48.84402" lon="2.35247">
        <ele>108.2</ele>
        <time>2013-03-03T16:29:06.000Z</time>
      </trkpt>
      <trkpt lat="48.84399" lon="2.35248">
        <ele>108.2</ele>
        <time>2013-03-03T16:29:07.000Z</time>
      </trkpt>
      <trkpt lat="48.84396" lon="2.35248">
        <ele>107.9</ele>
        <time>2013-03-03T16:29:08.000Z</time>
      </trkpt>
      <trkpt lat="48.84393" lon="2.35248">
        <ele>109.1</ele>
        <time>2013-03-03T16:29:09.000Z</time>
      </trkpt>
      <trkpt lat="48.8439" lon="2.35247">
        <ele>109.9</ele>
        <time>2013-03-03T16:29:10.000Z</time>
      </trkpt>
      <trkpt lat="48.84388" lon="2.35247">
        <ele>109.8</ele>
        <time>2013-03-03T16:29:11.000Z</time>
      </trkpt>
      <trkpt lat="48.84385" lon="2.35247">
        <ele>109.3</ele>
        <time>2013-03-03T16:29:12.000Z</time>
      </trkpt>
      <trkpt lat="48.84383" lon="2.35247">
        <ele>109.3</ele>
        <time>2013-03-03T16:29:13.000Z</time>
      </trkpt>
      <trkpt lat="48.84379" lon="2.35246">
        <ele>111.4</ele>
        <time>2013-03-03T16:29:15.000Z</time>
      </trkpt>
      <trkpt lat="48.84378" lon="2.35245">
        <ele>111.5</ele>
        <time>2013-03-03T16:29:16.000Z</time>
      </trkpt>
      <trkpt lat="48.84375" lon="2.35243">
        <ele>115.9</ele>
        <time>2013-03-03T16:29:18.000Z</time>
      </trkpt>
      <trkpt lat="48.84373" lon="2.35242">
        <ele>116.7</ele>
        <time>2013-03-03T16:29:19.000Z</time>
      </trkpt>
      <trkpt lat="48.8437" lon="2.35242">
        <ele>115.5</ele>
        <time>2013-03-03T16:29:21.000Z</time>
      </trkpt>
      <trkpt lat="48.84369" lon="2.3524">
        <ele>114.6</ele>
        <time>2013-03-03T16:29:22.000Z</time>
      </trkpt>
      <trkpt lat="48.84366" lon="2.35238">
        <ele>113.2</ele>
        <time>2013-03-03T16:29:24.000Z</time>
      </trkpt>
      <trkpt lat="48.84364" lon="2.35237">
        <ele>113.5</ele>
        <time>2013-03-03T16:29:25.000Z</time>
      </trkpt>
      <trkpt lat="48.8436" lon="2.35238">
        <ele>112</ele>
        <time>2013-03-03T16:29:28.000Z</time>
      </trkpt>
      <trkpt lat="48.84358" lon="2.35238">
        <ele>110.8</ele>
        <time>2013-03-03T16:29:29.000Z</time>
      </trkpt>
      <trkpt lat="48.84352" lon="2.35238">
        <ele>111.9</ele>
        <time>2013-03-03T16:29:32.000Z</time>
      </trkpt>
      <trkpt lat="48.84349" lon="2.35236">
        <ele>111.8</ele>
        <time>2013-03-03T16:29:33.000Z</time>
      </trkpt>
      <trkpt lat="48.84347" lon="2.35235">
        <ele>110.8</ele>
        <time>2013-03-03T16:29:34.000Z</time>
      </trkpt>
      <trkpt lat="48.84344" lon="2.35235">
        <ele>110.8</ele>
        <time>2013-03-03T16:29:35.000Z</time>
      </trkpt>
      <trkpt lat="48.84342" lon="2.35236">
        <ele>110.4</ele>
        <time>2013-03-03T16:29:36.000Z</time>
      </trkpt>
      <trkpt lat="48.8434" lon="2.35236">
        <ele>109.5</ele>
        <time>2013-03-03T16:29:37.000Z</time>
      </trkpt>
      <trkpt lat="48.84337" lon="2.35235">
        <ele>109.9</ele>
        <time>2013-03-03T16:29:38.000Z</time>
      </trkpt>
      <trkpt lat="48.84334" lon="2.35234">
        <ele>110.1</ele>
        <time>2013-03-03T16:29:39.000Z</time>
      </trkpt>
      <trkpt lat="48.84332" lon="2.35233">
        <ele>109.6</ele>
        <time>2013-03-03T16:29:40.000Z</time>
      </trkpt>
      <trkpt lat="48.84329" lon="2.35233">
        <ele>109.5</ele>
        <time>2013-03-03T16:29:41.000Z</time>
      </trkpt>
      <trkpt lat="48.84327" lon="2.35232">
        <ele>108.2</ele>
        <time>2013-03-03T16:29:42.000Z</time>
      </trkpt>
      <trkpt lat="48.84323" lon="2.3523">
        <ele>106.9</ele>
        <time>2013-03-03T16:29:44.000Z</time>
      </trkpt>
      <trkpt lat="48.84322" lon="2.35229">
        <ele>105.7</ele>
        <time>2013-03-03T16:29:45.000Z</time>
      </trkpt>
      <trkpt lat="48.84318" lon="2.35228">
        <ele>103</ele>
        <time>2013-03-03T16:29:47.000Z</time>
      </trkpt>
      <trkpt lat="48.84316" lon="2.35228">
        <ele>102.8</ele>
        <time>2013-03-03T16:29:48.000Z</time>
      </trkpt>
      <trkpt lat="48.84311" lon="2.35227">
        <ele>103.3</ele>
        <time>2013-03-03T16:29:50.000Z</time>
      </trkpt>
      <trkpt lat="48.84309" lon="2.35226">
        <ele>102.9</ele>
        <time>2013-03-03T16:29:51.000Z</time>
      </trkpt>
      <trkpt lat="48.84305" lon="2.35225">
        <ele>102.3</ele>
        <time>2013-03-03T16:29:53.000Z</time>
      </trkpt>
      <trkpt lat="48.84304" lon="2.35224">
        <ele>101.9</ele>
        <time>2013-03-03T16:29:54.000Z</time>
      </trkpt>
      <trkpt lat="48.843" lon="2.35222">
        <ele>102.2</ele>
        <time>2013-03-03T16:29:56.000Z</time>
      </trkpt>
      <trkpt lat="48.84298" lon="2.35222">
        <ele>102.5</ele>
        <time>2013-03-03T16:29:57.000Z</time>
      </trkpt>
      <trkpt lat="48.84295" lon="2.35219">
        <ele>105.5</ele>
        <time>2013-03-03T16:29:59.000Z</time>
      </trkpt>
      <trkpt lat="48.84293" lon="2.35218">
        <ele>106.1</ele>
        <time>2013-03-03T16:30:00.000Z</time>
      </trkpt>
      <trkpt lat="48.84289" lon="2.35216">
        <ele>107.8</ele>
        <time>2013-03-03T16:30:02.000Z</time>
      </trkpt>
      <trkpt lat="48.84286" lon="2.35215">
        <ele>107.8</ele>
        <time>2013-03-03T16:30:03.000Z</time>
      </trkpt>
      <trkpt lat="48.84282" lon="2.35214">
        <ele>105.2</ele>
        <time>2013-03-03T16:30:05.000Z</time>
      </trkpt>
      <trkpt lat="48.8428" lon="2.35214">
        <ele>104.3</ele>
        <time>2013-03-03T16:30:06.000Z</time>
      </trkpt>
      <trkpt lat="48.84277" lon="2.35215">
        <ele>104.3</ele>
        <time>2013-03-03T16:30:08.000Z</time>
      </trkpt>
      <trkpt lat="48.84276" lon="2.35215">
        <ele>104.5</ele>
        <time>2013-03-03T16:30:09.000Z</time>
      </trkpt>
      <trkpt lat="48.84272" lon="2.35213">
        <ele>103.8</ele>
        <time>2013-03-03T16:30:21.000Z</time>
      </trkpt>
      <trkpt lat="48.8427" lon="2.35213">
        <ele>104.2</ele>
        <time>2013-03-03T16:30:22.000Z</time>
      </trkpt>
      <trkpt lat="48.84266" lon="2.35212">
        <ele>104.6</ele>
        <time>2013-03-03T16:30:24.000Z</time>
      </trkpt>
      <trkpt lat="48.84263" lon="2.35212">
        <ele>103.6</ele>
        <time>2013-03-03T16:30:25.000Z</time>
      </trkpt>
      <trkpt lat="48.8426" lon="2.35213">
        <ele>101.9</ele>
        <time>2013-03-03T16:30:26.000Z</time>
      </trkpt>
      <trkpt lat="48.84256" lon="2.35214">
        <ele>101.5</ele>
        <time>2013-03-03T16:30:27.000Z</time>
      </trkpt>
      <trkpt lat="48.84253" lon="2.35214">
        <ele>102</ele>
        <time>2013-03-03T16:30:28.000Z</time>
      </trkpt>
      <trkpt lat="48.8425" lon="2.35215">
        <ele>102.3</ele>
        <time>2013-03-03T16:30:29.000Z</time>
      </trkpt>
      <trkpt lat="48.84244" lon="2.35214">
        <ele>102.2</ele>
        <time>2013-03-03T16:30:32.000Z</time>
      </trkpt>
      <trkpt lat="48.8424" lon="2.35215">
        <ele>99</ele>
        <time>2013-03-03T16:30:35.000Z</time>
      </trkpt>
      <trkpt lat="48.84239" lon="2.35215">
        <ele>98.5</ele>
        <time>2013-03-03T16:30:36.000Z</time>
      </trkpt>
      <trkpt lat="48.84235" lon="2.35217">
        <ele>97.9</ele>
        <time>2013-03-03T16:30:41.000Z</time>
      </trkpt>
      <trkpt lat="48.84232" lon="2.35217">
        <ele>95.9</ele>
        <time>2013-03-03T16:30:42.000Z</time>
      </trkpt>
      <trkpt lat="48.8423" lon="2.35218">
        <ele>95.6</ele>
        <time>2013-03-03T16:30:43.000Z</time>
      </trkpt>
      <trkpt lat="48.84228" lon="2.35218">
        <ele>95.7</ele>
        <time>2013-03-03T16:30:44.000Z</time>
      </trkpt>
      <trkpt lat="48.84225" lon="2.35219">
        <ele>95.3</ele>
        <time>2013-03-03T16:30:45.000Z</time>
      </trkpt>
      <trkpt lat="48.84223" lon="2.35219">
        <ele>94.5</ele>
        <time>2013-03-03T16:30:46.000Z</time>
      </trkpt>
      <trkpt lat="48.8422" lon="2.3522">
        <ele>93.7</ele>
        <time>2013-03-03T16:30:47.000Z</time>
      </trkpt>
      <trkpt lat="48.84218" lon="2.3522">
        <ele>94.5</ele>
        <time>2013-03-03T16:30:48.000Z</time>
      </trkpt>
      <trkpt lat="48.84215" lon="2.35219">
        <ele>94.9</ele>
        <time>2013-03-03T16:30:49.000Z</time>
      </trkpt>
      <trkpt lat="48.84212" lon="2.35219">
        <ele>95.1</ele>
        <time>2013-03-03T16:30:50.000Z</time>
      </trkpt>
      <trkpt lat="48.84209" lon="2.35218">
        <ele>95.3</ele>
        <time>2013-03-03T16:30:51.000Z</time>
      </trkpt>
      <trkpt lat="48.84207" lon="2.35217">
        <ele>95.2</ele>
        <time>2013-03-03T16:30:52.000Z</time>
      </trkpt>
      <trkpt lat="48.84204" lon="2.35216">
        <ele>96.9</ele>
        <time>2013-03-03T16:30:54.000Z</time>
      </trkpt>
      <trkpt lat="48.84202" lon="2.35215">
        <ele>97.3</ele>
        <time>2013-03-03T16:30:55.000Z</time>
      </trkpt>
      <trkpt lat="48.84198" lon="2.35213">
        <ele>95.2</ele>
        <time>2013-03-03T16:30:58.000Z</time>
      </trkpt>
      <trkpt lat="48.84196" lon="2.35213">
        <ele>97</ele>
        <time>2013-03-03T16:30:59.000Z</time>
      </trkpt>
      <trkpt lat="48.84193" lon="2.35212">
        <ele>97.6</ele>
        <time>2013-03-03T16:31:00.000Z</time>
      </trkpt>
      <trkpt lat="48.8419" lon="2.35211">
        <ele>98.2</ele>
        <time>2013-03-03T16:31:01.000Z</time>
      </trkpt>
      <trkpt lat="48.84187" lon="2.35211">
        <ele>98.7</ele>
        <time>2013-03-03T16:31:02.000Z</time>
      </trkpt>
      <trkpt lat="48.84184" lon="2.35211">
        <ele>98.3</ele>
        <time>2013-03-03T16:31:03.000Z</time>
      </trkpt>
      <trkpt lat="48.8418" lon="2.35211">
        <ele>98.3</ele>
        <time>2013-03-03T16:31:04.000Z</time>
      </trkpt>
      <trkpt lat="48.84177" lon="2.35211">
        <ele>99.8</ele>
        <time>2013-03-03T16:31:05.000Z</time>
      </trkpt>
      <trkpt lat="48.84174" lon="2.35211">
        <ele>99.9</ele>
        <time>2013-03-03T16:31:06.000Z</time>
      </trkpt>
      <trkpt lat="48.84172" lon="2.35211">
        <ele>100.5</ele>
        <time>2013-03-03T16:31:07.000Z</time>
      </trkpt>
      <trkpt lat="48.84169" lon="2.35211">
        <ele>100.4</ele>
        <time>2013-03-03T16:31:08.000Z</time>
      </trkpt>
      <trkpt lat="48.84166" lon="2.35211">
        <ele>100.7</ele>
        <time>2013-03-03T16:31:09.000Z</time>
      </trkpt>
      <trkpt lat="48.84163" lon="2.35211">
        <ele>100.6</ele>
        <time>2013-03-03T16:31:10.000Z</time>
      </trkpt>
      <trkpt lat="48.84161" lon="2.3521">
        <ele>102.2</ele>
        <time>2013-03-03T16:31:11.000Z</time>
      </trkpt>
      <trkpt lat="48.84157" lon="2.35208">
        <ele>102.5</ele>
        <time>2013-03-03T16:31:13.000Z</time>
      </trkpt>
      <trkpt lat="48.84155" lon="2.35207">
        <ele>101.2</ele>
        <time>2013-03-03T16:31:14.000Z</time>
      </trkpt>
      <trkpt lat="48.84151" lon="2.35206">
        <ele>100.6</ele>
        <time>2013-03-03T16:31:16.000Z</time>
      </trkpt>
      <trkpt lat="48.84149" lon="2.35206">
        <ele>102.2</ele>
        <time>2013-03-03T16:31:17.000Z</time>
      </trkpt>
      <trkpt lat="48.84146" lon="2.35205">
        <ele>101.3</ele>
        <time>2013-03-03T16:31:18.000Z</time>
      </trkpt>
      <trkpt lat="48.84142" lon="2.35205">
        <ele>100.4</ele>
        <time>2013-03-03T16:31:19.000Z</time>
      </trkpt>
      <trkpt lat="48.84139" lon="2.35204">
        <ele>100.7</ele>
        <time>2013-03-03T16:31:20.000Z</time>
      </trkpt>
      <trkpt lat="48.84136" lon="2.35203">
        <ele>100.2</ele>
        <time>2013-03-03T16:31:21.000Z</time>
      </trkpt>
      <trkpt lat="48.84133" lon="2.35202">
        <ele>99.3</ele>
        <time>2013-03-03T16:31:22.000Z</time>
      </trkpt>
      <trkpt lat="48.8413" lon="2.35202">
        <ele>100.7</ele>
        <time>2013-03-03T16:31:23.000Z</time>
      </trkpt>
      <trkpt lat="48.84127" lon="2.35202">
        <ele>99.4</ele>
        <time>2013-03-03T16:31:24.000Z</time>
      </trkpt>
      <trkpt lat="48.84124" lon="2.35202">
        <ele>99.6</ele>
        <time>2013-03-03T16:31:25.000Z</time>
      </trkpt>
      <trkpt lat="48.84121" lon="2.35202">
        <ele>98.8</ele>
        <time>2013-03-03T16:31:26.000Z</time>
      </trkpt>
      <trkpt lat="48.84118" lon="2.35202">
        <ele>98.4</ele>
        <time>2013-03-03T16:31:27.000Z</time>
      </trkpt>
      <trkpt lat="48.84115" lon="2.35203">
        <ele>97.8</ele>
        <time>2013-03-03T16:31:28.000Z</time>
      </trkpt>
      <trkpt lat="48.84112" lon="2.35204">
        <ele>97.3</ele>
        <time>2013-03-03T16:31:29.000Z</time>
      </trkpt>
      <trkpt lat="48.84106" lon="2.35205">
        <ele>97.3</ele>
        <time>2013-03-03T16:31:30.765Z</time>
      </trkpt>
      <trkpt lat="48.84103" lon="2.35205">
        <ele>95.9</ele>
        <time>2013-03-03T16:31:32.000Z</time>
      </trkpt>
      <trkpt lat="48.841" lon="2.35205">
        <ele>95</ele>
        <time>2013-03-03T16:31:33.000Z</time>
      </trkpt>
      <trkpt lat="48.84097" lon="2.35205">
        <ele>94.6</ele>
        <time>2013-03-03T16:31:34.000Z</time>
      </trkpt>
      <trkpt lat="48.84094" lon="2.35204">
        <ele>95.2</ele>
        <time>2013-03-03T16:31:35.000Z</time>
      </trkpt>
      <trkpt lat="48.84091" lon="2.35204">
        <ele>94.5</ele>
        <time>2013-03-03T16:31:36.000Z</time>
      </trkpt>
      <trkpt lat="48.84089" lon="2.35203">
        <ele>93.5</ele>
        <time>2013-03-03T16:31:37.000Z</time>
      </trkpt>
      <trkpt lat="48.84085" lon="2.35199">
        <ele>93.1</ele>
        <time>2013-03-03T16:31:40.000Z</time>
      </trkpt>
      <trkpt lat="48.84084" lon="2.35198">
        <ele>93.2</ele>
        <time>2013-03-03T16:31:41.000Z</time>
      </trkpt>
      <trkpt lat="48.84083" lon="2.35191">
        <ele>94.2</ele>
        <time>2013-03-03T16:31:49.000Z</time>
      </trkpt>
      <trkpt lat="48.84083" lon="2.35191">
        <ele>94.3</ele>
        <time>2013-03-03T16:31:50.000Z</time>
      </trkpt>
      <trkpt lat="48.8408" lon="2.35189">
        <ele>93.7</ele>
        <time>2013-03-03T16:31:53.000Z</time>
      </trkpt>
      <trkpt lat="48.84078" lon="2.35188">
        <ele>95.4</ele>
        <time>2013-03-03T16:31:54.000Z</time>
      </trkpt>
      <trkpt lat="48.84076" lon="2.35188">
        <ele>96.1</ele>
        <time>2013-03-03T16:31:55.000Z</time>
      </trkpt>
      <trkpt lat="48.84073" lon="2.35186">
        <ele>95.9</ele>
        <time>2013-03-03T16:31:56.000Z</time>
      </trkpt>
      <trkpt lat="48.8407" lon="2.35185">
        <ele>96.7</ele>
        <time>2013-03-03T16:31:57.000Z</time>
      </trkpt>
      <trkpt lat="48.84067" lon="2.35184">
        <ele>97.4</ele>
        <time>2013-03-03T16:31:58.000Z</time>
      </trkpt>
      <trkpt lat="48.84064" lon="2.35182">
        <ele>97.9</ele>
        <time>2013-03-03T16:31:59.000Z</time>
      </trkpt>
      <trkpt lat="48.84061" lon="2.35181">
        <ele>98.5</ele>
        <time>2013-03-03T16:32:00.000Z</time>
      </trkpt>
      <trkpt lat="48.84058" lon="2.3518">
        <ele>99.1</ele>
        <time>2013-03-03T16:32:01.000Z</time>
      </trkpt>
      <trkpt lat="48.84056" lon="2.3518">
        <ele>98.9</ele>
        <time>2013-03-03T16:32:02.000Z</time>
      </trkpt>
      <trkpt lat="48.84051" lon="2.35178">
        <ele>99.8</ele>
        <time>2013-03-03T16:32:05.000Z</time>
      </trkpt>
      <trkpt lat="48.8405" lon="2.35177">
        <ele>99.3</ele>
        <time>2013-03-03T16:32:06.000Z</time>
      </trkpt>
      <trkpt lat="48.84052" lon="2.35171">
        <ele>98.5</ele>
        <time>2013-03-03T16:32:21.000Z</time>
      </trkpt>
      <trkpt lat="48.84053" lon="2.35171">
        <ele>98.5</ele>
        <time>2013-03-03T16:32:22.000Z</time>
      </trkpt>
      <trkpt lat="48.84055" lon="2.35166">
        <ele>102.8</ele>
        <time>2013-03-03T16:33:39.000Z</time>
      </trkpt>
      <trkpt lat="48.84055" lon="2.35166">
        <ele>103.1</ele>
        <time>2013-03-03T16:33:40.000Z</time>
      </trkpt>
      <trkpt lat="48.84055" lon="2.35159">
        <ele>103.9</ele>
        <time>2013-03-03T16:35:27.000Z</time>
      </trkpt>
      <trkpt lat="48.84054" lon="2.35156">
        <ele>100.7</ele>
        <time>2013-03-03T16:35:28.000Z</time>
      </trkpt>
      <trkpt lat="48.84052" lon="2.35152">
        <ele>98.6</ele>
        <time>2013-03-03T16:35:29.000Z</time>
      </trkpt>
      <trkpt lat="48.84049" lon="2.35143">
        <ele>96.8</ele>
        <time>2013-03-03T16:35:32.000Z</time>
      </trkpt>
      <trkpt lat="48.84048" lon="2.3514">
        <ele>97.8</ele>
        <time>2013-03-03T16:35:33.000Z</time>
      </trkpt>
      <trkpt lat="48.84047" lon="2.35137">
        <ele>97.6</ele>
        <time>2013-03-03T16:35:34.000Z</time>
      </trkpt>
      <trkpt lat="48.84045" lon="2.35134">
        <ele>98</ele>
        <time>2013-03-03T16:35:35.000Z</time>
      </trkpt>
      <trkpt lat="48.84044" lon="2.3513">
        <ele>96.5</ele>
        <time>2013-03-03T16:35:36.000Z</time>
      </trkpt>
      <trkpt lat="48.84042" lon="2.35127">
        <ele>95.9</ele>
        <time>2013-03-03T16:35:37.000Z</time>
      </trkpt>
      <trkpt lat="48.84041" lon="2.35122">
        <ele>94.7</ele>
        <time>2013-03-03T16:35:38.000Z</time>
      </trkpt>
      <trkpt lat="48.8404" lon="2.35118">
        <ele>94.3</ele>
        <time>2013-03-03T16:35:39.000Z</time>
      </trkpt>
      <trkpt lat="48.84039" lon="2.35114">
        <ele>94.4</ele>
        <time>2013-03-03T16:35:40.000Z</time>
      </trkpt>
      <trkpt lat="48.84038" lon="2.35109">
        <ele>92.7</ele>
        <time>2013-03-03T16:35:41.000Z</time>
      </trkpt>
      <trkpt lat="48.84035" lon="2.35106">
        <ele>92.4</ele>
        <time>2013-03-03T16:35:42.000Z</time>
      </trkpt>
      <trkpt lat="48.84033" lon="2.35104">
        <ele>91</ele>
        <time>2013-03-03T16:35:43.000Z</time>
      </trkpt>
      <trkpt lat="48.8403" lon="2.35102">
        <ele>91.1</ele>
        <time>2013-03-03T16:35:44.000Z</time>
      </trkpt>
      <trkpt lat="48.84027" lon="2.35102">
        <ele>91.6</ele>
        <time>2013-03-03T16:35:45.000Z</time>
      </trkpt>
      <trkpt lat="48.84023" lon="2.35104">
        <ele>91.4</ele>
        <time>2013-03-03T16:35:46.000Z</time>
      </trkpt>
      <trkpt lat="48.84019" lon="2.35105">
        <ele>90.7</ele>
        <time>2013-03-03T16:35:47.000Z</time>
      </trkpt>
      <trkpt lat="48.84015" lon="2.35107">
        <ele>89.5</ele>
        <time>2013-03-03T16:35:48.000Z</time>
      </trkpt>
      <trkpt lat="48.84011" lon="2.35109">
        <ele>88.6</ele>
        <time>2013-03-03T16:35:49.000Z</time>
      </trkpt>
      <trkpt lat="48.84007" lon="2.35111">
        <ele>88.9</ele>
        <time>2013-03-03T16:35:50.000Z</time>
      </trkpt>
      <trkpt lat="48.84003" lon="2.35113">
        <ele>89.5</ele>
        <time>2013-03-03T16:35:51.000Z</time>
      </trkpt>
      <trkpt lat="48.83999" lon="2.35115">
        <ele>89.8</ele>
        <time>2013-03-03T16:35:52.000Z</time>
      </trkpt>
      <trkpt lat="48.83996" lon="2.35116">
        <ele>90.2</ele>
        <time>2013-03-03T16:35:53.000Z</time>
      </trkpt>
      <trkpt lat="48.83993" lon="2.35117">
        <ele>89.4</ele>
        <time>2013-03-03T16:35:54.000Z</time>
      </trkpt>
      <trkpt lat="48.8399" lon="2.35118">
        <ele>88.9</ele>
        <time>2013-03-03T16:35:55.000Z</time>
      </trkpt>
      <trkpt lat="48.83987" lon="2.35118">
        <ele>90</ele>
        <time>2013-03-03T16:35:56.000Z</time>
      </trkpt>
      <trkpt lat="48.83985" lon="2.35116">
        <ele>89.1</ele>
        <time>2013-03-03T16:35:57.000Z</time>
      </trkpt>
      <trkpt lat="48.83982" lon="2.35114">
        <ele>88.8</ele>
        <time>2013-03-03T16:35:58.000Z</time>
      </trkpt>
      <trkpt lat="48.83981" lon="2.3511">
        <ele>89</ele>
        <time>2013-03-03T16:35:59.000Z</time>
      </trkpt>
      <trkpt lat="48.83979" lon="2.35106">
        <ele>89.1</ele>
        <time>2013-03-03T16:36:00.000Z</time>
      </trkpt>
      <trkpt lat="48.83977" lon="2.35102">
        <ele>89.2</ele>
        <time>2013-03-03T16:36:01.000Z</time>
      </trkpt>
      <trkpt lat="48.83976" lon="2.35098">
        <ele>88.8</ele>
        <time>2013-03-03T16:36:02.000Z</time>
      </trkpt>
      <trkpt lat="48.83974" lon="2.35094">
        <ele>88.1</ele>
        <time>2013-03-03T16:36:03.000Z</time>
      </trkpt>
      <trkpt lat="48.83973" lon="2.3509">
        <ele>87.2</ele>
        <time>2013-03-03T16:36:04.000Z</time>
      </trkpt>
      <trkpt lat="48.83971" lon="2.35085">
        <ele>84.6</ele>
        <time>2013-03-03T16:36:05.000Z</time>
      </trkpt>
      <trkpt lat="48.83969" lon="2.35081">
        <ele>85.4</ele>
        <time>2013-03-03T16:36:06.000Z</time>
      </trkpt>
      <trkpt lat="48.83967" lon="2.35077">
        <ele>85.6</ele>
        <time>2013-03-03T16:36:07.000Z</time>
      </trkpt>
      <trkpt lat="48.83965" lon="2.35073">
        <ele>86.1</ele>
        <time>2013-03-03T16:36:08.000Z</time>
      </trkpt>
      <trkpt lat="48.83964" lon="2.35069">
        <ele>86.1</ele>
        <time>2013-03-03T16:36:09.000Z</time>
      </trkpt>
      <trkpt lat="48.83962" lon="2.35066">
        <ele>85.9</ele>
        <time>2013-03-03T16:36:10.000Z</time>
      </trkpt>
      <trkpt lat="48.8396" lon="2.35063">
        <ele>86.5</ele>
        <time>2013-03-03T16:36:11.000Z</time>
      </trkpt>
      <trkpt lat="48.83959" lon="2.3506">
        <ele>87</ele>
        <time>2013-03-03T16:36:12.000Z</time>
      </trkpt>
      <trkpt lat="48.83957" lon="2.35057">
        <ele>86.8</ele>
        <time>2013-03-03T16:36:13.000Z</time>
      </trkpt>
      <trkpt lat="48.83955" lon="2.35054">
        <ele>85.8</ele>
        <time>2013-03-03T16:36:14.000Z</time>
      </trkpt>
      <trkpt lat="48.83954" lon="2.3505">
        <ele>84.2</ele>
        <time>2013-03-03T16:36:15.000Z</time>
      </trkpt>
      <trkpt lat="48.83952" lon="2.35046">
        <ele>85.1</ele>
        <time>2013-03-03T16:36:16.000Z</time>
      </trkpt>
      <trkpt lat="48.83951" lon="2.35041">
        <ele>84.6</ele>
        <time>2013-03-03T16:36:17.000Z</time>
      </trkpt>
      <trkpt lat="48.83949" lon="2.35037">
        <ele>84.2</ele>
        <time>2013-03-03T16:36:18.000Z</time>
      </trkpt>
      <trkpt lat="48.83949" lon="2.35033">
        <ele>83.6</ele>
        <time>2013-03-03T16:36:19.000Z</time>
      </trkpt>
      <trkpt lat="48.83949" lon="2.35029">
        <ele>84.4</ele>
        <time>2013-03-03T16:36:20.000Z</time>
      </trkpt>
      <trkpt lat="48.8395" lon="2.35025">
        <ele>84.8</ele>
        <time>2013-03-03T16:36:21.000Z</time>
      </trkpt>
      <trkpt lat="48.83951" lon="2.35023">
        <ele>84.3</ele>
        <time>2013-03-03T16:36:22.000Z</time>
      </trkpt>
      <trkpt lat="48.83955" lon="2.35019">
        <ele>84.1</ele>
        <time>2013-03-03T16:36:24.000Z</time>
      </trkpt>
      <trkpt lat="48.83956" lon="2.35017">
        <ele>83.6</ele>
        <time>2013-03-03T16:36:25.000Z</time>
      </trkpt>
      <trkpt lat="48.83957" lon="2.35012">
        <ele>84.8</ele>
        <time>2013-03-03T16:36:30.767Z</time>
      </trkpt>
      <trkpt lat="48.83957" lon="2.3501">
        <ele>84.4</ele>
        <time>2013-03-03T16:36:32.000Z</time>
      </trkpt>
      <trkpt lat="48.83959" lon="2.35005">
        <ele>87.2</ele>
        <time>2013-03-03T16:36:41.000Z</time>
      </trkpt>
      <trkpt lat="48.83959" lon="2.35004">
        <ele>87.7</ele>
        <time>2013-03-03T16:36:42.000Z</time>
      </trkpt>
      <trkpt lat="48.83963" lon="2.35001">
        <ele>90.8</ele>
        <time>2013-03-03T16:37:21.000Z</time>
      </trkpt>
      <trkpt lat="48.83964" lon="2.35">
        <ele>88.6</ele>
        <time>2013-03-03T16:37:22.000Z</time>
      </trkpt>
      <trkpt lat="48.83964" lon="2.34994">
        <ele>80.7</ele>
        <time>2013-03-03T16:37:36.000Z</time>
      </trkpt>
      <trkpt lat="48.83964" lon="2.34993">
        <ele>79.9</ele>
        <time>2013-03-03T16:37:37.000Z</time>
      </trkpt>
      <trkpt lat="48.83961" lon="2.34997">
        <ele>85.8</ele>
        <time>2013-03-03T16:37:50.000Z</time>
      </trkpt>
      <trkpt lat="48.8396" lon="2.34997">
        <ele>85.8</ele>
        <time>2013-03-03T16:37:51.000Z</time>
      </trkpt>
      <trkpt lat="48.83958" lon="2.34999">
        <ele>86.2</ele>
        <time>2013-03-03T16:38:40.000Z</time>
      </trkpt>
      <trkpt lat="48.83956" lon="2.35">
        <ele>86.2</ele>
        <time>2013-03-03T16:38:41.000Z</time>
      </trkpt>
      <trkpt lat="48.83954" lon="2.35004">
        <ele>88.5</ele>
        <time>2013-03-03T16:38:43.000Z</time>
      </trkpt>
      <trkpt lat="48.83953" lon="2.35005">
        <ele>87.9</ele>
        <time>2013-03-03T16:38:44.000Z</time>
      </trkpt>
      <trkpt lat="48.8395" lon="2.35008">
        <ele>89.3</ele>
        <time>2013-03-03T16:38:46.000Z</time>
      </trkpt>
      <trkpt lat="48.83949" lon="2.3501">
        <ele>90.9</ele>
        <time>2013-03-03T16:38:47.000Z</time>
      </trkpt>
      <trkpt lat="48.83946" lon="2.35012">
        <ele>89.9</ele>
        <time>2013-03-03T16:38:49.000Z</time>
      </trkpt>
      <trkpt lat="48.83944" lon="2.35013">
        <ele>90.4</ele>
        <time>2013-03-03T16:38:50.000Z</time>
      </trkpt>
      <trkpt lat="48.83941" lon="2.35016">
        <ele>91.2</ele>
        <time>2013-03-03T16:38:52.000Z</time>
      </trkpt>
      <trkpt lat="48.83939" lon="2.35017">
        <ele>91.9</ele>
        <time>2013-03-03T16:38:53.000Z</time>
      </trkpt>
      <trkpt lat="48.83936" lon="2.35019">
        <ele>91.4</ele>
        <time>2013-03-03T16:38:55.000Z</time>
      </trkpt>
      <trkpt lat="48.83934" lon="2.3502">
        <ele>90.2</ele>
        <time>2013-03-03T16:38:56.000Z</time>
      </trkpt>
      <trkpt lat="48.8393" lon="2.35021">
        <ele>89.1</ele>
        <time>2013-03-03T16:39:00.000Z</time>
      </trkpt>
      <trkpt lat="48.83929" lon="2.3502">
        <ele>89.5</ele>
        <time>2013-03-03T16:39:01.000Z</time>
      </trkpt>
      <trkpt lat="48.83927" lon="2.35015">
        <ele>91.9</ele>
        <time>2013-03-03T16:39:04.000Z</time>
      </trkpt>
      <trkpt lat="48.83927" lon="2.35013">
        <ele>92.3</ele>
        <time>2013-03-03T16:39:05.000Z</time>
      </trkpt>
      <trkpt lat="48.83924" lon="2.35009">
        <ele>93.7</ele>
        <time>2013-03-03T16:39:09.000Z</time>
      </trkpt>
      <trkpt lat="48.83923" lon="2.35009">
        <ele>93.9</ele>
        <time>2013-03-03T16:39:10.000Z</time>
      </trkpt>
      <trkpt lat="48.8392" lon="2.35012">
        <ele>94</ele>
        <time>2013-03-03T16:39:12.000Z</time>
      </trkpt>
      <trkpt lat="48.83919" lon="2.35014">
        <ele>94.5</ele>
        <time>2013-03-03T16:39:13.000Z</time>
      </trkpt>
      <trkpt lat="48.83916" lon="2.35017">
        <ele>94.9</ele>
        <time>2013-03-03T16:39:15.000Z</time>
      </trkpt>
      <trkpt lat="48.83915" lon="2.35019">
        <ele>95.2</ele>
        <time>2013-03-03T16:39:16.000Z</time>
      </trkpt>
      <trkpt lat="48.83913" lon="2.35021">
        <ele>95.6</ele>
        <time>2013-03-03T16:39:17.000Z</time>
      </trkpt>
      <trkpt lat="48.83911" lon="2.35022">
        <ele>96.7</ele>
        <time>2013-03-03T16:39:18.000Z</time>
      </trkpt>
      <trkpt lat="48.83909" lon="2.35024">
        <ele>96.6</ele>
        <time>2013-03-03T16:39:19.000Z</time>
      </trkpt>
      <trkpt lat="48.83907" lon="2.35025">
        <ele>96.7</ele>
        <time>2013-03-03T16:39:20.000Z</time>
      </trkpt>
      <trkpt lat="48.83904" lon="2.35027">
        <ele>97.4</ele>
        <time>2013-03-03T16:39:21.000Z</time>
      </trkpt>
      <trkpt lat="48.83902" lon="2.35029">
        <ele>97.7</ele>
        <time>2013-03-03T16:39:22.000Z</time>
      </trkpt>
      <trkpt lat="48.83899" lon="2.35031">
        <ele>98.4</ele>
        <time>2013-03-03T16:39:23.000Z</time>
      </trkpt>
      <trkpt lat="48.83897" lon="2.35032">
        <ele>99.6</ele>
        <time>2013-03-03T16:39:24.000Z</time>
      </trkpt>
      <trkpt lat="48.83894" lon="2.35033">
        <ele>97.8</ele>
        <time>2013-03-03T16:39:25.000Z</time>
      </trkpt>
      <trkpt lat="48.83892" lon="2.35034">
        <ele>97.6</ele>
        <time>2013-03-03T16:39:26.000Z</time>
      </trkpt>
      <trkpt lat="48.83889" lon="2.35034">
        <ele>96.5</ele>
        <time>2013-03-03T16:39:27.000Z</time>
      </trkpt>
      <trkpt lat="48.83887" lon="2.35035">
        <ele>96.5</ele>
        <time>2013-03-03T16:39:28.000Z</time>
      </trkpt>
      <trkpt lat="48.83883" lon="2.35036">
        <ele>96.8</ele>
        <time>2013-03-03T16:39:32.000Z</time>
      </trkpt>
      <trkpt lat="48.83882" lon="2.35037">
        <ele>96.6</ele>
        <time>2013-03-03T16:39:33.000Z</time>
      </trkpt>
      <trkpt lat="48.83878" lon="2.35037">
        <ele>96.9</ele>
        <time>2013-03-03T16:39:37.000Z</time>
      </trkpt>
      <trkpt lat="48.83877" lon="2.35037">
        <ele>96.9</ele>
        <time>2013-03-03T16:39:38.000Z</time>
      </trkpt>
      <trkpt lat="48.83873" lon="2.35039">
        <ele>98.7</ele>
        <time>2013-03-03T16:39:46.000Z</time>
      </trkpt>
      <trkpt lat="48.83872" lon="2.3504">
        <ele>98.9</ele>
        <time>2013-03-03T16:39:47.000Z</time>
      </trkpt>
      <trkpt lat="48.83869" lon="2.35041">
        <ele>96.8</ele>
        <time>2013-03-03T16:39:50.000Z</time>
      </trkpt>
      <trkpt lat="48.83867" lon="2.35041">
        <ele>96</ele>
        <time>2013-03-03T16:39:51.000Z</time>
      </trkpt>
      <trkpt lat="48.83865" lon="2.35042">
        <ele>96.4</ele>
        <time>2013-03-03T16:39:52.000Z</time>
      </trkpt>
      <trkpt lat="48.83862" lon="2.35042">
        <ele>96.8</ele>
        <time>2013-03-03T16:39:53.000Z</time>
      </trkpt>
      <trkpt lat="48.83859" lon="2.35043">
        <ele>97.8</ele>
        <time>2013-03-03T16:39:55.000Z</time>
      </trkpt>
      <trkpt lat="48.83858" lon="2.35043">
        <ele>97.4</ele>
        <time>2013-03-03T16:39:56.000Z</time>
      </trkpt>
      <trkpt lat="48.83855" lon="2.35046">
        <ele>97.4</ele>
        <time>2013-03-03T16:39:59.000Z</time>
      </trkpt>
      <trkpt lat="48.83854" lon="2.35047">
        <ele>97.7</ele>
        <time>2013-03-03T16:40:00.000Z</time>
      </trkpt>
      <trkpt lat="48.8385" lon="2.35049">
        <ele>95.5</ele>
        <time>2013-03-03T16:40:02.000Z</time>
      </trkpt>
      <trkpt lat="48.83848" lon="2.35051">
        <ele>94.3</ele>
        <time>2013-03-03T16:40:03.000Z</time>
      </trkpt>
      <trkpt lat="48.83844" lon="2.35053">
        <ele>92.8</ele>
        <time>2013-03-03T16:40:05.000Z</time>
      </trkpt>
      <trkpt lat="48.83843" lon="2.35054">
        <ele>93.3</ele>
        <time>2013-03-03T16:40:06.000Z</time>
      </trkpt>
      <trkpt lat="48.83839" lon="2.35057">
        <ele>93.2</ele>
        <time>2013-03-03T16:40:08.000Z</time>
      </trkpt>
      <trkpt lat="48.83837" lon="2.35059">
        <ele>92.6</ele>
        <time>2013-03-03T16:40:09.000Z</time>
      </trkpt>
      <trkpt lat="48.83835" lon="2.35061">
        <ele>92</ele>
        <time>2013-03-03T16:40:10.000Z</time>
      </trkpt>
      <trkpt lat="48.83832" lon="2.35063">
        <ele>91.8</ele>
        <time>2013-03-03T16:40:11.000Z</time>
      </trkpt>
      <trkpt lat="48.83829" lon="2.35065">
        <ele>91.8</ele>
        <time>2013-03-03T16:40:12.000Z</time>
      </trkpt>
      <trkpt lat="48.83827" lon="2.35067">
        <ele>92</ele>
        <time>2013-03-03T16:40:13.000Z</time>
      </trkpt>
      <trkpt lat="48.83824" lon="2.35068">
        <ele>92</ele>
        <time>2013-03-03T16:40:14.000Z</time>
      </trkpt>
      <trkpt lat="48.83821" lon="2.3507">
        <ele>92.4</ele>
        <time>2013-03-03T16:40:15.000Z</time>
      </trkpt>
      <trkpt lat="48.83818" lon="2.35072">
        <ele>92.5</ele>
        <time>2013-03-03T16:40:16.000Z</time>
      </trkpt>
      <trkpt lat="48.83816" lon="2.35074">
        <ele>92.5</ele>
        <time>2013-03-03T16:40:17.000Z</time>
      </trkpt>
      <trkpt lat="48.83813" lon="2.35077">
        <ele>90.7</ele>
        <time>2013-03-03T16:40:18.000Z</time>
      </trkpt>
      <trkpt lat="48.8381" lon="2.3508">
        <ele>91.3</ele>
        <time>2013-03-03T16:40:19.000Z</time>
      </trkpt>
      <trkpt lat="48.83807" lon="2.35082">
        <ele>91.8</ele>
        <time>2013-03-03T16:40:20.000Z</time>
      </trkpt>
      <trkpt lat="48.83804" lon="2.35086">
        <ele>92.6</ele>
        <time>2013-03-03T16:40:21.000Z</time>
      </trkpt>
      <trkpt lat="48.83801" lon="2.35088">
        <ele>93.4</ele>
        <time>2013-03-03T16:40:22.000Z</time>
      </trkpt>
      <trkpt lat="48.83798" lon="2.3509">
        <ele>93.9</ele>
        <time>2013-03-03T16:40:23.000Z</time>
      </trkpt>
      <trkpt lat="48.83795" lon="2.35093">
        <ele>94.2</ele>
        <time>2013-03-03T16:40:24.000Z</time>
      </trkpt>
      <trkpt lat="48.83792" lon="2.35095">
        <ele>92.1</ele>
        <time>2013-03-03T16:40:25.000Z</time>
      </trkpt>
      <trkpt lat="48.83789" lon="2.35097">
        <ele>93.3</ele>
        <time>2013-03-03T16:40:26.000Z</time>
      </trkpt>
      <trkpt lat="48.83786" lon="2.35101">
        <ele>93.9</ele>
        <time>2013-03-03T16:40:27.000Z</time>
      </trkpt>
      <trkpt lat="48.83783" lon="2.35106">
        <ele>94.9</ele>
        <time>2013-03-03T16:40:28.000Z</time>
      </trkpt>
      <trkpt lat="48.83779" lon="2.3511">
        <ele>94.8</ele>
        <time>2013-03-03T16:40:29.000Z</time>
      </trkpt>
      <trkpt lat="48.83771" lon="2.35116">
        <ele>95.9</ele>
        <time>2013-03-03T16:40:32.000Z</time>
      </trkpt>
      <trkpt lat="48.83769" lon="2.35116">
        <ele>96.4</ele>
        <time>2013-03-03T16:40:33.000Z</time>
      </trkpt>
      <trkpt lat="48.83766" lon="2.35117">
        <ele>97</ele>
        <time>2013-03-03T16:40:34.000Z</time>
      </trkpt>
      <trkpt lat="48.83763" lon="2.35118">
        <ele>97.6</ele>
        <time>2013-03-03T16:40:36.000Z</time>
      </trkpt>
      <trkpt lat="48.8376" lon="2.35121">
        <ele>97.9</ele>
        <time>2013-03-03T16:40:37.000Z</time>
      </trkpt>
      <trkpt lat="48.83757" lon="2.35125">
        <ele>97.1</ele>
        <time>2013-03-03T16:40:38.000Z</time>
      </trkpt>
      <trkpt lat="48.83755" lon="2.35128">
        <ele>97</ele>
        <time>2013-03-03T16:40:39.000Z</time>
      </trkpt>
      <trkpt lat="48.83753" lon="2.3513">
        <ele>97.5</ele>
        <time>2013-03-03T16:40:40.000Z</time>
      </trkpt>
      <trkpt lat="48.83751" lon="2.35133">
        <ele>97.5</ele>
        <time>2013-03-03T16:40:41.000Z</time>
      </trkpt>
      <trkpt lat="48.83749" lon="2.35135">
        <ele>98.1</ele>
        <time>2013-03-03T16:40:42.000Z</time>
      </trkpt>
      <trkpt lat="48.83747" lon="2.35137">
        <ele>98.7</ele>
        <time>2013-03-03T16:40:43.000Z</time>
      </trkpt>
      <trkpt lat="48.83744" lon="2.35139">
        <ele>99.4</ele>
        <time>2013-03-03T16:40:44.000Z</time>
      </trkpt>
      <trkpt lat="48.83741" lon="2.35142">
        <ele>100.3</ele>
        <time>2013-03-03T16:40:45.000Z</time>
      </trkpt>
      <trkpt lat="48.83738" lon="2.35143">
        <ele>100.3</ele>
        <time>2013-03-03T16:40:46.000Z</time>
      </trkpt>
      <trkpt lat="48.83735" lon="2.35144">
        <ele>100.3</ele>
        <time>2013-03-03T16:40:47.000Z</time>
      </trkpt>
      <trkpt lat="48.83732" lon="2.35146">
        <ele>102.5</ele>
        <time>2013-03-03T16:40:48.000Z</time>
      </trkpt>
      <trkpt lat="48.83729" lon="2.35148">
        <ele>102</ele>
        <time>2013-03-03T16:40:49.000Z</time>
      </trkpt>
      <trkpt lat="48.83727" lon="2.35149">
        <ele>101.5</ele>
        <time>2013-03-03T16:40:50.000Z</time>
      </trkpt>
      <trkpt lat="48.83724" lon="2.35151">
        <ele>102.6</ele>
        <time>2013-03-03T16:40:51.000Z</time>
      </trkpt>
      <trkpt lat="48.83722" lon="2.35152">
        <ele>103.2</ele>
        <time>2013-03-03T16:40:52.000Z</time>
      </trkpt>
      <trkpt lat="48.83719" lon="2.35153">
        <ele>96.5</ele>
        <time>2013-03-03T16:40:53.000Z</time>
      </trkpt>
      <trkpt lat="48.83715" lon="2.35154">
        <ele>95</ele>
        <time>2013-03-03T16:40:54.000Z</time>
      </trkpt>
      <trkpt lat="48.83712" lon="2.35156">
        <ele>93.9</ele>
        <time>2013-03-03T16:40:55.000Z</time>
      </trkpt>
      <trkpt lat="48.83709" lon="2.35157">
        <ele>93.4</ele>
        <time>2013-03-03T16:40:56.000Z</time>
      </trkpt>
      <trkpt lat="48.83706" lon="2.35158">
        <ele>92.2</ele>
        <time>2013-03-03T16:40:57.000Z</time>
      </trkpt>
      <trkpt lat="48.83703" lon="2.3516">
        <ele>92.4</ele>
        <time>2013-03-03T16:40:58.000Z</time>
      </trkpt>
      <trkpt lat="48.837" lon="2.35161">
        <ele>92.4</ele>
        <time>2013-03-03T16:40:59.000Z</time>
      </trkpt>
      <trkpt lat="48.83697" lon="2.35163">
        <ele>91</ele>
        <time>2013-03-03T16:41:00.000Z</time>
      </trkpt>
      <trkpt lat="48.83694" lon="2.35163">
        <ele>90.8</ele>
        <time>2013-03-03T16:41:01.000Z</time>
      </trkpt>
      <trkpt lat="48.83692" lon="2.35164">
        <ele>91.1</ele>
        <time>2013-03-03T16:41:02.000Z</time>
      </trkpt>
      <trkpt lat="48.83689" lon="2.35164">
        <ele>91.4</ele>
        <time>2013-03-03T16:41:03.000Z</time>
      </trkpt>
      <trkpt lat="48.8369" lon="2.35158">
        <ele>90.6</ele>
        <time>2013-03-03T16:41:08.000Z</time>
      </trkpt>
      <trkpt lat="48.83691" lon="2.35157">
        <ele>90.2</ele>
        <time>2013-03-03T16:41:09.000Z</time>
      </trkpt>
      <trkpt lat="48.83687" lon="2.35162">
        <ele>95.9</ele>
        <time>2013-03-03T16:41:49.000Z</time>
      </trkpt>
      <trkpt lat="48.83686" lon="2.35163">
        <ele>96.6</ele>
        <time>2013-03-03T16:41:50.000Z</time>
      </trkpt>
      <trkpt lat="48.83684" lon="2.35168">
        <ele>97.2</ele>
        <time>2013-03-03T16:41:53.000Z</time>
      </trkpt>
      <trkpt lat="48.83684" lon="2.3517">
        <ele>97.2</ele>
        <time>2013-03-03T16:41:54.000Z</time>
      </trkpt>
      <trkpt lat="48.83681" lon="2.35173">
        <ele>96.1</ele>
        <time>2013-03-03T16:41:56.000Z</time>
      </trkpt>
      <trkpt lat="48.8368" lon="2.35175">
        <ele>96.8</ele>
        <time>2013-03-03T16:41:57.000Z</time>
      </trkpt>
      <trkpt lat="48.83677" lon="2.35177">
        <ele>96.4</ele>
        <time>2013-03-03T16:41:59.000Z</time>
      </trkpt>
      <trkpt lat="48.83675" lon="2.35178">
        <ele>96.1</ele>
        <time>2013-03-03T16:42:00.000Z</time>
      </trkpt>
      <trkpt lat="48.83673" lon="2.35181">
        <ele>95.4</ele>
        <time>2013-03-03T16:42:02.000Z</time>
      </trkpt>
      <trkpt lat="48.83671" lon="2.35182">
        <ele>95.9</ele>
        <time>2013-03-03T16:42:03.000Z</time>
      </trkpt>
      <trkpt lat="48.83669" lon="2.35187">
        <ele>96.4</ele>
        <time>2013-03-03T16:42:05.000Z</time>
      </trkpt>
      <trkpt lat="48.83668" lon="2.35188">
        <ele>96.5</ele>
        <time>2013-03-03T16:42:06.000Z</time>
      </trkpt>
      <trkpt lat="48.83664" lon="2.35192">
        <ele>97.4</ele>
        <time>2013-03-03T16:42:09.000Z</time>
      </trkpt>
      <trkpt lat="48.83663" lon="2.35193">
        <ele>97.3</ele>
        <time>2013-03-03T16:42:10.000Z</time>
      </trkpt>
      <trkpt lat="48.8366" lon="2.35197">
        <ele>99.3</ele>
        <time>2013-03-03T16:42:13.000Z</time>
      </trkpt>
      <trkpt lat="48.83659" lon="2.35197">
        <ele>99.2</ele>
        <time>2013-03-03T16:42:14.000Z</time>
      </trkpt>
      <trkpt lat="48.83656" lon="2.35199">
        <ele>98.7</ele>
        <time>2013-03-03T16:42:17.000Z</time>
      </trkpt>
      <trkpt lat="48.83654" lon="2.35201">
        <ele>98.8</ele>
        <time>2013-03-03T16:42:18.000Z</time>
      </trkpt>
      <trkpt lat="48.83652" lon="2.35203">
        <ele>98.4</ele>
        <time>2013-03-03T16:42:19.000Z</time>
      </trkpt>
      <trkpt lat="48.83648" lon="2.35206">
        <ele>99</ele>
        <time>2013-03-03T16:42:20.000Z</time>
      </trkpt>
      <trkpt lat="48.83645" lon="2.35208">
        <ele>99.5</ele>
        <time>2013-03-03T16:42:21.000Z</time>
      </trkpt>
      <trkpt lat="48.83642" lon="2.3521">
        <ele>100</ele>
        <time>2013-03-03T16:42:22.000Z</time>
      </trkpt>
      <trkpt lat="48.83638" lon="2.35213">
        <ele>100.9</ele>
        <time>2013-03-03T16:42:23.000Z</time>
      </trkpt>
      <trkpt lat="48.83635" lon="2.35215">
        <ele>100.4</ele>
        <time>2013-03-03T16:42:24.000Z</time>
      </trkpt>
      <trkpt lat="48.83631" lon="2.35218">
        <ele>101.2</ele>
        <time>2013-03-03T16:42:25.000Z</time>
      </trkpt>
      <trkpt lat="48.83627" lon="2.35221">
        <ele>101.1</ele>
        <time>2013-03-03T16:42:26.000Z</time>
      </trkpt>
      <trkpt lat="48.83623" lon="2.35225">
        <ele>101.7</ele>
        <time>2013-03-03T16:42:27.000Z</time>
      </trkpt>
      <trkpt lat="48.83619" lon="2.35228">
        <ele>102.3</ele>
        <time>2013-03-03T16:42:28.000Z</time>
      </trkpt>
      <trkpt lat="48.83615" lon="2.35232">
        <ele>102.2</ele>
        <time>2013-03-03T16:42:29.000Z</time>
      </trkpt>
      <trkpt lat="48.83609" lon="2.35236">
        <ele>101.9</ele>
        <time>2013-03-03T16:42:30.675Z</time>
      </trkpt>
      <trkpt lat="48.83604" lon="2.35239">
        <ele>102.2</ele>
        <time>2013-03-03T16:42:32.000Z</time>
      </trkpt>
      <trkpt lat="48.83601" lon="2.35242">
        <ele>102.1</ele>
        <time>2013-03-03T16:42:33.000Z</time>
      </trkpt>
      <trkpt lat="48.83598" lon="2.35244">
        <ele>101.3</ele>
        <time>2013-03-03T16:42:34.000Z</time>
      </trkpt>
      <trkpt lat="48.83594" lon="2.35246">
        <ele>102.4</ele>
        <time>2013-03-03T16:42:35.000Z</time>
      </trkpt>
      <trkpt lat="48.8359" lon="2.35248">
        <ele>102.4</ele>
        <time>2013-03-03T16:42:36.000Z</time>
      </trkpt>
      <trkpt lat="48.83587" lon="2.35251">
        <ele>101.1</ele>
        <time>2013-03-03T16:42:37.000Z</time>
      </trkpt>
      <trkpt lat="48.83583" lon="2.35254">
        <ele>100</ele>
        <time>2013-03-03T16:42:38.000Z</time>
      </trkpt>
      <trkpt lat="48.83579" lon="2.35257">
        <ele>100.3</ele>
        <time>2013-03-03T16:42:39.000Z</time>
      </trkpt>
      <trkpt lat="48.83575" lon="2.35261">
        <ele>101</ele>
        <time>2013-03-03T16:42:40.000Z</time>
      </trkpt>
      <trkpt lat="48.83572" lon="2.35264">
        <ele>101.8</ele>
        <time>2013-03-03T16:42:41.000Z</time>
      </trkpt>
      <trkpt lat="48.83568" lon="2.35267">
        <ele>102.6</ele>
        <time>2013-03-03T16:42:42.000Z</time>
      </trkpt>
      <trkpt lat="48.83564" lon="2.35269">
        <ele>101.3</ele>
        <time>2013-03-03T16:42:43.000Z</time>
      </trkpt>
      <trkpt lat="48.8356" lon="2.35271">
        <ele>97.8</ele>
        <time>2013-03-03T16:42:44.000Z</time>
      </trkpt>
      <trkpt lat="48.83556" lon="2.35273">
        <ele>94.6</ele>
        <time>2013-03-03T16:42:45.000Z</time>
      </trkpt>
      <trkpt lat="48.83551" lon="2.35275">
        <ele>94.1</ele>
        <time>2013-03-03T16:42:46.000Z</time>
      </trkpt>
      <trkpt lat="48.83547" lon="2.35277">
        <ele>94.5</ele>
        <time>2013-03-03T16:42:47.000Z</time>
      </trkpt>
      <trkpt lat="48.83544" lon="2.35278">
        <ele>95.4</ele>
        <time>2013-03-03T16:42:48.000Z</time>
      </trkpt>
      <trkpt lat="48.8354" lon="2.35281">
        <ele>98.7</ele>
        <time>2013-03-03T16:42:49.000Z</time>
      </trkpt>
      <trkpt lat="48.83536" lon="2.35283">
        <ele>98.5</ele>
        <time>2013-03-03T16:42:50.000Z</time>
      </trkpt>
      <trkpt lat="48.83532" lon="2.35285">
        <ele>98.7</ele>
        <time>2013-03-03T16:42:51.000Z</time>
      </trkpt>
      <trkpt lat="48.83529" lon="2.35288">
        <ele>97.5</ele>
        <time>2013-03-03T16:42:52.000Z</time>
      </trkpt>
      <trkpt lat="48.83525" lon="2.35291">
        <ele>98.2</ele>
        <time>2013-03-03T16:42:53.000Z</time>
      </trkpt>
      <trkpt lat="48.83521" lon="2.35294">
        <ele>98.8</ele>
        <time>2013-03-03T16:42:54.000Z</time>
      </trkpt>
      <trkpt lat="48.83517" lon="2.35296">
        <ele>98.8</ele>
        <time>2013-03-03T16:42:55.000Z</time>
      </trkpt>
      <trkpt lat="48.83513" lon="2.35299">
        <ele>99.5</ele>
        <time>2013-03-03T16:42:56.000Z</time>
      </trkpt>
      <trkpt lat="48.83509" lon="2.35301">
        <ele>99.2</ele>
        <time>2013-03-03T16:42:57.000Z</time>
      </trkpt>
      <trkpt lat="48.83505" lon="2.35303">
        <ele>99.8</ele>
        <time>2013-03-03T16:42:58.000Z</time>
      </trkpt>
      <trkpt lat="48.83502" lon="2.35306">
        <ele>100</ele>
        <time>2013-03-03T16:42:59.000Z</time>
      </trkpt>
      <trkpt lat="48.83498" lon="2.35309">
        <ele>100.4</ele>
        <time>2013-03-03T16:43:00.000Z</time>
      </trkpt>
      <trkpt lat="48.83494" lon="2.35311">
        <ele>101</ele>
        <time>2013-03-03T16:43:01.000Z</time>
      </trkpt>
      <trkpt lat="48.83491" lon="2.35313">
        <ele>100.8</ele>
        <time>2013-03-03T16:43:02.000Z</time>
      </trkpt>
      <trkpt lat="48.83488" lon="2.35315">
        <ele>101.7</ele>
        <time>2013-03-03T16:43:03.000Z</time>
      </trkpt>
      <trkpt lat="48.83485" lon="2.35317">
        <ele>101.8</ele>
        <time>2013-03-03T16:43:04.000Z</time>
      </trkpt>
      <trkpt lat="48.83482" lon="2.35319">
        <ele>103.8</ele>
        <time>2013-03-03T16:43:05.000Z</time>
      </trkpt>
      <trkpt lat="48.83479" lon="2.3532">
        <ele>104.7</ele>
        <time>2013-03-03T16:43:06.000Z</time>
      </trkpt>
      <trkpt lat="48.83476" lon="2.35322">
        <ele>104.3</ele>
        <time>2013-03-03T16:43:07.000Z</time>
      </trkpt>
      <trkpt lat="48.83473" lon="2.35324">
        <ele>103.7</ele>
        <time>2013-03-03T16:43:08.000Z</time>
      </trkpt>
      <trkpt lat="48.83471" lon="2.35326">
        <ele>103.9</ele>
        <time>2013-03-03T16:43:09.000Z</time>
      </trkpt>
      <trkpt lat="48.83468" lon="2.35329">
        <ele>103.7</ele>
        <time>2013-03-03T16:43:10.000Z</time>
      </trkpt>
      <trkpt lat="48.83465" lon="2.35331">
        <ele>104.2</ele>
        <time>2013-03-03T16:43:11.000Z</time>
      </trkpt>
      <trkpt lat="48.83462" lon="2.35333">
        <ele>104.3</ele>
        <time>2013-03-03T16:43:12.000Z</time>
      </trkpt>
      <trkpt lat="48.83461" lon="2.35327">
        <ele>107.9</ele>
        <time>2013-03-03T16:44:55.000Z</time>
      </trkpt>
      <trkpt lat="48.8346" lon="2.35327">
        <ele>107.2</ele>
        <time>2013-03-03T16:44:56.000Z</time>
      </trkpt>
      <trkpt lat="48.83457" lon="2.35323">
        <ele>105.1</ele>
        <time>2013-03-03T16:44:58.000Z</time>
      </trkpt>
      <trkpt lat="48.83456" lon="2.3532">
        <ele>106.1</ele>
        <time>2013-03-03T16:44:59.000Z</time>
      </trkpt>
      <trkpt lat="48.83455" lon="2.35316">
        <ele>104.9</ele>
        <time>2013-03-03T16:45:00.000Z</time>
      </trkpt>
      <trkpt lat="48.83454" lon="2.35312">
        <ele>104</ele>
        <time>2013-03-03T16:45:01.000Z</time>
      </trkpt>
      <trkpt lat="48.83452" lon="2.35308">
        <ele>102.8</ele>
        <time>2013-03-03T16:45:02.000Z</time>
      </trkpt>
      <trkpt lat="48.83451" lon="2.35303">
        <ele>101.4</ele>
        <time>2013-03-03T16:45:03.000Z</time>
      </trkpt>
      <trkpt lat="48.83449" lon="2.35298">
        <ele>100.2</ele>
        <time>2013-03-03T16:45:04.000Z</time>
      </trkpt>
      <trkpt lat="48.83447" lon="2.35293">
        <ele>100.9</ele>
        <time>2013-03-03T16:45:05.000Z</time>
      </trkpt>
      <trkpt lat="48.83446" lon="2.35288">
        <ele>98.7</ele>
        <time>2013-03-03T16:45:06.000Z</time>
      </trkpt>
      <trkpt lat="48.83445" lon="2.35284">
        <ele>97.5</ele>
        <time>2013-03-03T16:45:07.000Z</time>
      </trkpt>
      <trkpt lat="48.83444" lon="2.35279">
        <ele>97.4</ele>
        <time>2013-03-03T16:45:08.000Z</time>
      </trkpt>
      <trkpt lat="48.83442" lon="2.35274">
        <ele>97</ele>
        <time>2013-03-03T16:45:09.000Z</time>
      </trkpt>
      <trkpt lat="48.83441" lon="2.35269">
        <ele>97</ele>
        <time>2013-03-03T16:45:10.000Z</time>
      </trkpt>
      <trkpt lat="48.83438" lon="2.35265">
        <ele>95.8</ele>
        <time>2013-03-03T16:45:11.000Z</time>
      </trkpt>
      <trkpt lat="48.83434" lon="2.3526">
        <ele>95.6</ele>
        <time>2013-03-03T16:45:12.000Z</time>
      </trkpt>
      <trkpt lat="48.8343" lon="2.35256">
        <ele>94.5</ele>
        <time>2013-03-03T16:45:13.000Z</time>
      </trkpt>
      <trkpt lat="48.83426" lon="2.35253">
        <ele>94.7</ele>
        <time>2013-03-03T16:45:14.000Z</time>
      </trkpt>
      <trkpt lat="48.83422" lon="2.3525">
        <ele>94.7</ele>
        <time>2013-03-03T16:45:15.000Z</time>
      </trkpt>
      <trkpt lat="48.83418" lon="2.35246">
        <ele>94.6</ele>
        <time>2013-03-03T16:45:16.000Z</time>
      </trkpt>
      <trkpt lat="48.83414" lon="2.35243">
        <ele>94.8</ele>
        <time>2013-03-03T16:45:17.000Z</time>
      </trkpt>
      <trkpt lat="48.8341" lon="2.3524">
        <ele>94</ele>
        <time>2013-03-03T16:45:18.000Z</time>
      </trkpt>
      <trkpt lat="48.83407" lon="2.35237">
        <ele>94</ele>
        <time>2013-03-03T16:45:19.000Z</time>
      </trkpt>
      <trkpt lat="48.83403" lon="2.35235">
        <ele>92.1</ele>
        <time>2013-03-03T16:45:20.000Z</time>
      </trkpt>
      <trkpt lat="48.83399" lon="2.35233">
        <ele>91.5</ele>
        <time>2013-03-03T16:45:21.000Z</time>
      </trkpt>
      <trkpt lat="48.83395" lon="2.35231">
        <ele>91</ele>
        <time>2013-03-03T16:45:22.000Z</time>
      </trkpt>
      <trkpt lat="48.83391" lon="2.35229">
        <ele>90.6</ele>
        <time>2013-03-03T16:45:23.000Z</time>
      </trkpt>
      <trkpt lat="48.83387" lon="2.35227">
        <ele>90.6</ele>
        <time>2013-03-03T16:45:24.000Z</time>
      </trkpt>
      <trkpt lat="48.83384" lon="2.35225">
        <ele>89.1</ele>
        <time>2013-03-03T16:45:25.000Z</time>
      </trkpt>
      <trkpt lat="48.8338" lon="2.35223">
        <ele>90.8</ele>
        <time>2013-03-03T16:45:26.000Z</time>
      </trkpt>
      <trkpt lat="48.83377" lon="2.3522">
        <ele>90.8</ele>
        <time>2013-03-03T16:45:27.000Z</time>
      </trkpt>
      <trkpt lat="48.83374" lon="2.35218">
        <ele>89.6</ele>
        <time>2013-03-03T16:45:28.000Z</time>
      </trkpt>
      <trkpt lat="48.8337" lon="2.35215">
        <ele>88.5</ele>
        <time>2013-03-03T16:45:29.000Z</time>
      </trkpt>
      <trkpt lat="48.83358" lon="2.35209">
        <ele>88.2</ele>
        <time>2013-03-03T16:45:32.000Z</time>
      </trkpt>
      <trkpt lat="48.83354" lon="2.35206">
        <ele>88.2</ele>
        <time>2013-03-03T16:45:33.000Z</time>
      </trkpt>
      <trkpt lat="48.83351" lon="2.35204">
        <ele>88.3</ele>
        <time>2013-03-03T16:45:34.000Z</time>
      </trkpt>
      <trkpt lat="48.83347" lon="2.35203">
        <ele>88.2</ele>
        <time>2013-03-03T16:45:35.000Z</time>
      </trkpt>
      <trkpt lat="48.83344" lon="2.35202">
        <ele>88.1</ele>
        <time>2013-03-03T16:45:36.000Z</time>
      </trkpt>
      <trkpt lat="48.83342" lon="2.35203">
        <ele>88.3</ele>
        <time>2013-03-03T16:45:37.000Z</time>
      </trkpt>
      <trkpt lat="48.83339" lon="2.35205">
        <ele>88.2</ele>
        <time>2013-03-03T16:45:38.000Z</time>
      </trkpt>
      <trkpt lat="48.83337" lon="2.35206">
        <ele>88.4</ele>
        <time>2013-03-03T16:45:39.000Z</time>
      </trkpt>
      <trkpt lat="48.83334" lon="2.35205">
        <ele>87.9</ele>
        <time>2013-03-03T16:45:40.000Z</time>
      </trkpt>
      <trkpt lat="48.83331" lon="2.35203">
        <ele>87.3</ele>
        <time>2013-03-03T16:45:41.000Z</time>
      </trkpt>
      <trkpt lat="48.83329" lon="2.35199">
        <ele>85</ele>
        <time>2013-03-03T16:45:42.000Z</time>
      </trkpt>
      <trkpt lat="48.83327" lon="2.35194">
        <ele>84.2</ele>
        <time>2013-03-03T16:45:43.000Z</time>
      </trkpt>
      <trkpt lat="48.83326" lon="2.35189">
        <ele>83.7</ele>
        <time>2013-03-03T16:45:44.000Z</time>
      </trkpt>
      <trkpt lat="48.83326" lon="2.35185">
        <ele>84.8</ele>
        <time>2013-03-03T16:45:45.000Z</time>
      </trkpt>
      <trkpt lat="48.83326" lon="2.35182">
        <ele>85.8</ele>
        <time>2013-03-03T16:45:46.000Z</time>
      </trkpt>
      <trkpt lat="48.83325" lon="2.35175">
        <ele>83.7</ele>
        <time>2013-03-03T16:45:52.000Z</time>
      </trkpt>
      <trkpt lat="48.83326" lon="2.35175">
        <ele>82.7</ele>
        <time>2013-03-03T16:45:53.000Z</time>
      </trkpt>
      <trkpt lat="48.83327" lon="2.35169">
        <ele>85.9</ele>
        <time>2013-03-03T16:46:21.000Z</time>
      </trkpt>
      <trkpt lat="48.83327" lon="2.35167">
        <ele>86.4</ele>
        <time>2013-03-03T16:46:22.000Z</time>
      </trkpt>
      <trkpt lat="48.83325" lon="2.35161">
        <ele>88.2</ele>
        <time>2013-03-03T16:47:03.000Z</time>
      </trkpt>
      <trkpt lat="48.83325" lon="2.3516">
        <ele>89.6</ele>
        <time>2013-03-03T16:47:04.000Z</time>
      </trkpt>
      <trkpt lat="48.83323" lon="2.35155">
        <ele>90.4</ele>
        <time>2013-03-03T16:47:49.000Z</time>
      </trkpt>
      <trkpt lat="48.83323" lon="2.35154">
        <ele>90.4</ele>
        <time>2013-03-03T16:47:50.000Z</time>
      </trkpt>
      <trkpt lat="48.83327" lon="2.35155">
        <ele>91.3</ele>
        <time>2013-03-03T16:48:03.000Z</time>
      </trkpt>
      <trkpt lat="48.83329" lon="2.35156">
        <ele>91.6</ele>
        <time>2013-03-03T16:48:04.000Z</time>
      </trkpt>
      <trkpt lat="48.83332" lon="2.35157">
        <ele>90</ele>
        <time>2013-03-03T16:48:06.000Z</time>
      </trkpt>
      <trkpt lat="48.83334" lon="2.35158">
        <ele>89.8</ele>
        <time>2013-03-03T16:48:07.000Z</time>
      </trkpt>
      <trkpt lat="48.83337" lon="2.35162">
        <ele>88.7</ele>
        <time>2013-03-03T16:48:10.000Z</time>
      </trkpt>
      <trkpt lat="48.83337" lon="2.35164">
        <ele>88.2</ele>
        <time>2013-03-03T16:48:11.000Z</time>
      </trkpt>
      <trkpt lat="48.83336" lon="2.35168">
        <ele>88.8</ele>
        <time>2013-03-03T16:48:13.000Z</time>
      </trkpt>
      <trkpt lat="48.83335" lon="2.3517">
        <ele>89</ele>
        <time>2013-03-03T16:48:14.000Z</time>
      </trkpt>
      <trkpt lat="48.83335" lon="2.35177">
        <ele>87.8</ele>
        <time>2013-03-03T16:48:17.000Z</time>
      </trkpt>
      <trkpt lat="48.83337" lon="2.35177">
        <ele>89.6</ele>
        <time>2013-03-03T16:48:18.000Z</time>
      </trkpt>
      <trkpt lat="48.83339" lon="2.35175">
        <ele>89.4</ele>
        <time>2013-03-03T16:48:19.000Z</time>
      </trkpt>
      <trkpt lat="48.83341" lon="2.35173">
        <ele>89.6</ele>
        <time>2013-03-03T16:48:20.000Z</time>
      </trkpt>
      <trkpt lat="48.83345" lon="2.35171">
        <ele>86.8</ele>
        <time>2013-03-03T16:48:21.000Z</time>
      </trkpt>
      <trkpt lat="48.8335" lon="2.35169">
        <ele>83.2</ele>
        <time>2013-03-03T16:48:22.000Z</time>
      </trkpt>
      <trkpt lat="48.83355" lon="2.35168">
        <ele>83</ele>
        <time>2013-03-03T16:48:23.000Z</time>
      </trkpt>
      <trkpt lat="48.83359" lon="2.35166">
        <ele>83.1</ele>
        <time>2013-03-03T16:48:24.000Z</time>
      </trkpt>
      <trkpt lat="48.83363" lon="2.35165">
        <ele>79.8</ele>
        <time>2013-03-03T16:48:25.000Z</time>
      </trkpt>
      <trkpt lat="48.83366" lon="2.35164">
        <ele>80.1</ele>
        <time>2013-03-03T16:48:26.000Z</time>
      </trkpt>
      <trkpt lat="48.8337" lon="2.35162">
        <ele>80.3</ele>
        <time>2013-03-03T16:48:27.000Z</time>
      </trkpt>
      <trkpt lat="48.83373" lon="2.3516">
        <ele>80</ele>
        <time>2013-03-03T16:48:28.000Z</time>
      </trkpt>
      <trkpt lat="48.83375" lon="2.35159">
        <ele>79.8</ele>
        <time>2013-03-03T16:48:29.000Z</time>
      </trkpt>
      <trkpt lat="48.83379" lon="2.35159">
        <ele>79</ele>
        <time>2013-03-03T16:48:30.815Z</time>
      </trkpt>
      <trkpt lat="48.83382" lon="2.35157">
        <ele>79.4</ele>
        <time>2013-03-03T16:48:32.000Z</time>
      </trkpt>
      <trkpt lat="48.83386" lon="2.35156">
        <ele>80.4</ele>
        <time>2013-03-03T16:48:33.000Z</time>
      </trkpt>
      <trkpt lat="48.83389" lon="2.35153">
        <ele>79.6</ele>
        <time>2013-03-03T16:48:34.000Z</time>
      </trkpt>
      <trkpt lat="48.83394" lon="2.3515">
        <ele>77.4</ele>
        <time>2013-03-03T16:48:35.000Z</time>
      </trkpt>
      <trkpt lat="48.83398" lon="2.35147">
        <ele>76.5</ele>
        <time>2013-03-03T16:48:36.000Z</time>
      </trkpt>
      <trkpt lat="48.83403" lon="2.35144">
        <ele>76.5</ele>
        <time>2013-03-03T16:48:37.000Z</time>
      </trkpt>
      <trkpt lat="48.83408" lon="2.35142">
        <ele>76.1</ele>
        <time>2013-03-03T16:48:38.000Z</time>
      </trkpt>
      <trkpt lat="48.83412" lon="2.35139">
        <ele>76.1</ele>
        <time>2013-03-03T16:48:39.000Z</time>
      </trkpt>
      <trkpt lat="48.83417" lon="2.35137">
        <ele>76.5</ele>
        <time>2013-03-03T16:48:40.000Z</time>
      </trkpt>
      <trkpt lat="48.83422" lon="2.35135">
        <ele>76</ele>
        <time>2013-03-03T16:48:41.000Z</time>
      </trkpt>
      <trkpt lat="48.83426" lon="2.35132">
        <ele>76.3</ele>
        <time>2013-03-03T16:48:42.000Z</time>
      </trkpt>
      <trkpt lat="48.8343" lon="2.35129">
        <ele>74.9</ele>
        <time>2013-03-03T16:48:43.000Z</time>
      </trkpt>
      <trkpt lat="48.83434" lon="2.35126">
        <ele>75.1</ele>
        <time>2013-03-03T16:48:44.000Z</time>
      </trkpt>
      <trkpt lat="48.83438" lon="2.35122">
        <ele>75.8</ele>
        <time>2013-03-03T16:48:45.000Z</time>
      </trkpt>
      <trkpt lat="48.83442" lon="2.35119">
        <ele>76.2</ele>
        <time>2013-03-03T16:48:46.000Z</time>
      </trkpt>
      <trkpt lat="48.83445" lon="2.35116">
        <ele>75.5</ele>
        <time>2013-03-03T16:48:47.000Z</time>
      </trkpt>
      <trkpt lat="48.83448" lon="2.35114">
        <ele>75.6</ele>
        <time>2013-03-03T16:48:48.000Z</time>
      </trkpt>
      <trkpt lat="48.83451" lon="2.35111">
        <ele>75.1</ele>
        <time>2013-03-03T16:48:49.000Z</time>
      </trkpt>
      <trkpt lat="48.83454" lon="2.35108">
        <ele>75</ele>
        <time>2013-03-03T16:48:50.000Z</time>
      </trkpt>
      <trkpt lat="48.83456" lon="2.35105">
        <ele>74.4</ele>
        <time>2013-03-03T16:48:51.000Z</time>
      </trkpt>
      <trkpt lat="48.83459" lon="2.35103">
        <ele>73.7</ele>
        <time>2013-03-03T16:48:52.000Z</time>
      </trkpt>
      <trkpt lat="48.83462" lon="2.351">
        <ele>73.5</ele>
        <time>2013-03-03T16:48:53.000Z</time>
      </trkpt>
      <trkpt lat="48.83464" lon="2.35098">
        <ele>73.6</ele>
        <time>2013-03-03T16:48:54.000Z</time>
      </trkpt>
      <trkpt lat="48.83467" lon="2.35096">
        <ele>73.4</ele>
        <time>2013-03-03T16:48:55.000Z</time>
      </trkpt>
      <trkpt lat="48.8347" lon="2.35095">
        <ele>73.3</ele>
        <time>2013-03-03T16:48:57.000Z</time>
      </trkpt>
      <trkpt lat="48.83471" lon="2.35094">
        <ele>73.2</ele>
        <time>2013-03-03T16:48:58.000Z</time>
      </trkpt>
      <trkpt lat="48.83475" lon="2.35097">
        <ele>71.6</ele>
        <time>2013-03-03T16:49:01.000Z</time>
      </trkpt>
      <trkpt lat="48.83476" lon="2.35098">
        <ele>71.6</ele>
        <time>2013-03-03T16:49:02.000Z</time>
      </trkpt>
      <trkpt lat="48.83478" lon="2.35102">
        <ele>71.3</ele>
        <time>2013-03-03T16:49:04.000Z</time>
      </trkpt>
      <trkpt lat="48.8348" lon="2.35103">
        <ele>71</ele>
        <time>2013-03-03T16:49:05.000Z</time>
      </trkpt>
      <trkpt lat="48.83483" lon="2.35106">
        <ele>70.4</ele>
        <time>2013-03-03T16:49:07.000Z</time>
      </trkpt>
      <trkpt lat="48.83485" lon="2.35108">
        <ele>69</ele>
        <time>2013-03-03T16:49:08.000Z</time>
      </trkpt>
      <trkpt lat="48.83489" lon="2.3511">
        <ele>70.2</ele>
        <time>2013-03-03T16:49:10.000Z</time>
      </trkpt>
      <trkpt lat="48.83491" lon="2.3511">
        <ele>68.7</ele>
        <time>2013-03-03T16:49:11.000Z</time>
      </trkpt>
      <trkpt lat="48.83495" lon="2.3511">
        <ele>70.2</ele>
        <time>2013-03-03T16:49:13.000Z</time>
      </trkpt>
      <trkpt lat="48.83497" lon="2.3511">
        <ele>70.4</ele>
        <time>2013-03-03T16:49:14.000Z</time>
      </trkpt>
      <trkpt lat="48.83501" lon="2.35109">
        <ele>69.3</ele>
        <time>2013-03-03T16:49:16.000Z</time>
      </trkpt>
      <trkpt lat="48.83504" lon="2.35109">
        <ele>69.3</ele>
        <time>2013-03-03T16:49:17.000Z</time>
      </trkpt>
      <trkpt lat="48.83508" lon="2.35108">
        <ele>69.3</ele>
        <time>2013-03-03T16:49:19.000Z</time>
      </trkpt>
      <trkpt lat="48.8351" lon="2.35108">
        <ele>69.1</ele>
        <time>2013-03-03T16:49:20.000Z</time>
      </trkpt>
      <trkpt lat="48.83514" lon="2.35108">
        <ele>68.3</ele>
        <time>2013-03-03T16:49:22.000Z</time>
      </trkpt>
      <trkpt lat="48.83517" lon="2.35108">
        <ele>67.7</ele>
        <time>2013-03-03T16:49:23.000Z</time>
      </trkpt>
      <trkpt lat="48.83521" lon="2.35108">
        <ele>69.8</ele>
        <time>2013-03-03T16:49:25.000Z</time>
      </trkpt>
      <trkpt lat="48.83522" lon="2.35109">
        <ele>68.5</ele>
        <time>2013-03-03T16:49:26.000Z</time>
      </trkpt>
      <trkpt lat="48.83525" lon="2.35112">
        <ele>72.5</ele>
        <time>2013-03-03T16:49:29.000Z</time>
      </trkpt>
      <trkpt lat="48.83526" lon="2.35114">
        <ele>72.3</ele>
        <time>2013-03-03T16:49:30.723Z</time>
      </trkpt>
      <trkpt lat="48.8353" lon="2.35114">
        <ele>75.1</ele>
        <time>2013-03-03T16:49:34.000Z</time>
      </trkpt>
      <trkpt lat="48.83531" lon="2.35115">
        <ele>75</ele>
        <time>2013-03-03T16:49:35.000Z</time>
      </trkpt>
      <trkpt lat="48.83536" lon="2.35114">
        <ele>82.4</ele>
        <time>2013-03-03T16:49:41.000Z</time>
      </trkpt>
      <trkpt lat="48.83536" lon="2.35114">
        <ele>83.3</ele>
        <time>2013-03-03T16:49:42.000Z</time>
      </trkpt>
      <trkpt lat="48.8354" lon="2.35117">
        <ele>82.2</ele>
        <time>2013-03-03T16:50:47.000Z</time>
      </trkpt>
      <trkpt lat="48.83542" lon="2.35119">
        <ele>84.3</ele>
        <time>2013-03-03T16:50:48.000Z</time>
      </trkpt>
      <trkpt lat="48.83544" lon="2.35122">
        <ele>84.6</ele>
        <time>2013-03-03T16:50:49.000Z</time>
      </trkpt>
      <trkpt lat="48.83545" lon="2.35124">
        <ele>84.5</ele>
        <time>2013-03-03T16:50:50.000Z</time>
      </trkpt>
      <trkpt lat="48.83548" lon="2.35129">
        <ele>84.5</ele>
        <time>2013-03-03T16:50:52.000Z</time>
      </trkpt>
      <trkpt lat="48.83549" lon="2.35131">
        <ele>83.8</ele>
        <time>2013-03-03T16:50:53.000Z</time>
      </trkpt>
      <trkpt lat="48.83551" lon="2.35137">
        <ele>83.3</ele>
        <time>2013-03-03T16:50:55.000Z</time>
      </trkpt>
      <trkpt lat="48.83552" lon="2.35139">
        <ele>82.4</ele>
        <time>2013-03-03T16:50:56.000Z</time>
      </trkpt>
      <trkpt lat="48.83554" lon="2.35144">
        <ele>83.2</ele>
        <time>2013-03-03T16:50:58.000Z</time>
      </trkpt>
      <trkpt lat="48.83555" lon="2.35147">
        <ele>83.1</ele>
        <time>2013-03-03T16:50:59.000Z</time>
      </trkpt>
      <trkpt lat="48.83555" lon="2.3515">
        <ele>83.2</ele>
        <time>2013-03-03T16:51:00.000Z</time>
      </trkpt>
      <trkpt lat="48.83556" lon="2.35155">
        <ele>83</ele>
        <time>2013-03-03T16:51:01.000Z</time>
      </trkpt>
      <trkpt lat="48.83557" lon="2.35159">
        <ele>82.8</ele>
        <time>2013-03-03T16:51:02.000Z</time>
      </trkpt>
      <trkpt lat="48.83558" lon="2.35162">
        <ele>81.2</ele>
        <time>2013-03-03T16:51:03.000Z</time>
      </trkpt>
      <trkpt lat="48.8356" lon="2.35167">
        <ele>81.5</ele>
        <time>2013-03-03T16:51:06.000Z</time>
      </trkpt>
      <trkpt lat="48.8356" lon="2.35168">
        <ele>81.7</ele>
        <time>2013-03-03T16:51:07.000Z</time>
      </trkpt>
      <trkpt lat="48.83564" lon="2.35172">
        <ele>81.4</ele>
        <time>2013-03-03T16:51:10.000Z</time>
      </trkpt>
      <trkpt lat="48.83565" lon="2.35174">
        <ele>81.7</ele>
        <time>2013-03-03T16:51:11.000Z</time>
      </trkpt>
      <trkpt lat="48.83567" lon="2.35178">
        <ele>81.3</ele>
        <time>2013-03-03T16:51:13.000Z</time>
      </trkpt>
      <trkpt lat="48.83565" lon="2.35181">
        <ele>80.3</ele>
        <time>2013-03-03T16:51:14.000Z</time>
      </trkpt>
      <trkpt lat="48.83562" lon="2.35184">
        <ele>79.9</ele>
        <time>2013-03-03T16:51:16.000Z</time>
      </trkpt>
      <trkpt lat="48.8356" lon="2.35186">
        <ele>79</ele>
        <time>2013-03-03T16:51:17.000Z</time>
      </trkpt>
      <trkpt lat="48.83557" lon="2.35189">
        <ele>79.7</ele>
        <time>2013-03-03T16:51:20.000Z</time>
      </trkpt>
      <trkpt lat="48.83557" lon="2.3519">
        <ele>79.8</ele>
        <time>2013-03-03T16:51:21.000Z</time>
      </trkpt>
      <trkpt lat="48.83556" lon="2.35195">
        <ele>79.1</ele>
        <time>2013-03-03T16:51:25.000Z</time>
      </trkpt>
      <trkpt lat="48.83556" lon="2.35197">
        <ele>80.1</ele>
        <time>2013-03-03T16:51:26.000Z</time>
      </trkpt>
      <trkpt lat="48.83558" lon="2.35201">
        <ele>79.2</ele>
        <time>2013-03-03T16:51:32.000Z</time>
      </trkpt>
      <trkpt lat="48.83559" lon="2.35202">
        <ele>80.5</ele>
        <time>2013-03-03T16:51:33.000Z</time>
      </trkpt>
      <trkpt lat="48.83561" lon="2.35207">
        <ele>81</ele>
        <time>2013-03-03T16:51:36.000Z</time>
      </trkpt>
      <trkpt lat="48.83561" lon="2.35209">
        <ele>81.6</ele>
        <time>2013-03-03T16:51:37.000Z</time>
      </trkpt>
      <trkpt lat="48.83563" lon="2.35215">
        <ele>81.5</ele>
        <time>2013-03-03T16:51:40.000Z</time>
      </trkpt>
      <trkpt lat="48.83563" lon="2.35217">
        <ele>81.8</ele>
        <time>2013-03-03T16:51:41.000Z</time>
      </trkpt>
      <trkpt lat="48.83562" lon="2.35223">
        <ele>82.5</ele>
        <time>2013-03-03T16:51:44.000Z</time>
      </trkpt>
      <trkpt lat="48.83562" lon="2.35224">
        <ele>82.8</ele>
        <time>2013-03-03T16:51:45.000Z</time>
      </trkpt>
      <trkpt lat="48.83565" lon="2.35227">
        <ele>83.3</ele>
        <time>2013-03-03T16:51:47.000Z</time>
      </trkpt>
      <trkpt lat="48.83567" lon="2.35228">
        <ele>84.1</ele>
        <time>2013-03-03T16:51:48.000Z</time>
      </trkpt>
      <trkpt lat="48.83569" lon="2.35231">
        <ele>84.8</ele>
        <time>2013-03-03T16:51:50.000Z</time>
      </trkpt>
      <trkpt lat="48.8357" lon="2.35233">
        <ele>85.3</ele>
        <time>2013-03-03T16:51:51.000Z</time>
      </trkpt>
      <trkpt lat="48.83571" lon="2.35239">
        <ele>86.2</ele>
        <time>2013-03-03T16:51:54.000Z</time>
      </trkpt>
      <trkpt lat="48.83571" lon="2.35242">
        <ele>86.3</ele>
        <time>2013-03-03T16:51:55.000Z</time>
      </trkpt>
      <trkpt lat="48.83571" lon="2.35248">
        <ele>93.4</ele>
        <time>2013-03-03T16:51:57.000Z</time>
      </trkpt>
      <trkpt lat="48.83571" lon="2.3525">
        <ele>95.9</ele>
        <time>2013-03-03T16:51:58.000Z</time>
      </trkpt>
      <trkpt lat="48.83572" lon="2.35256">
        <ele>96</ele>
        <time>2013-03-03T16:52:01.000Z</time>
      </trkpt>
      <trkpt lat="48.83572" lon="2.35258">
        <ele>95.8</ele>
        <time>2013-03-03T16:52:02.000Z</time>
      </trkpt>
      <trkpt lat="48.8357" lon="2.35263">
        <ele>97.5</ele>
        <time>2013-03-03T16:52:11.000Z</time>
      </trkpt>
      <trkpt lat="48.8357" lon="2.35264">
        <ele>97.5</ele>
        <time>2013-03-03T16:52:12.000Z</time>
      </trkpt>
      <trkpt lat="48.83569" lon="2.35266">
        <ele>97.5</ele>
        <time>2013-03-03T16:52:36.000Z</time>
      </trkpt>
      <trkpt lat="48.83566" lon="2.35268">
        <ele>96.5</ele>
        <time>2013-03-03T16:52:37.000Z</time>
      </trkpt>
      <trkpt lat="48.83562" lon="2.3527">
        <ele>95.9</ele>
        <time>2013-03-03T16:52:38.000Z</time>
      </trkpt>
      <trkpt lat="48.83559" lon="2.35273">
        <ele>95.1</ele>
        <time>2013-03-03T16:52:39.000Z</time>
      </trkpt>
      <trkpt lat="48.83555" lon="2.35277">
        <ele>96</ele>
        <time>2013-03-03T16:52:40.000Z</time>
      </trkpt>
      <trkpt lat="48.83552" lon="2.35281">
        <ele>96</ele>
        <time>2013-03-03T16:52:41.000Z</time>
      </trkpt>
      <trkpt lat="48.83548" lon="2.35285">
        <ele>95.9</ele>
        <time>2013-03-03T16:52:42.000Z</time>
      </trkpt>
      <trkpt lat="48.83545" lon="2.35288">
        <ele>97</ele>
        <time>2013-03-03T16:52:43.000Z</time>
      </trkpt>
      <trkpt lat="48.83541" lon="2.3529">
        <ele>96.6</ele>
        <time>2013-03-03T16:52:44.000Z</time>
      </trkpt>
      <trkpt lat="48.83538" lon="2.35292">
        <ele>95.9</ele>
        <time>2013-03-03T16:52:45.000Z</time>
      </trkpt>
      <trkpt lat="48.83534" lon="2.35294">
        <ele>96.7</ele>
        <time>2013-03-03T16:52:46.000Z</time>
      </trkpt>
      <trkpt lat="48.8353" lon="2.35296">
        <ele>97.1</ele>
        <time>2013-03-03T16:52:47.000Z</time>
      </trkpt>
      <trkpt lat="48.83527" lon="2.35297">
        <ele>97.8</ele>
        <time>2013-03-03T16:52:48.000Z</time>
      </trkpt>
      <trkpt lat="48.83523" lon="2.35299">
        <ele>98.8</ele>
        <time>2013-03-03T16:52:49.000Z</time>
      </trkpt>
      <trkpt lat="48.83521" lon="2.353">
        <ele>99.4</ele>
        <time>2013-03-03T16:52:50.000Z</time>
      </trkpt>
      <trkpt lat="48.83519" lon="2.35302">
        <ele>100.3</ele>
        <time>2013-03-03T16:52:51.000Z</time>
      </trkpt>
      <trkpt lat="48.83517" lon="2.35304">
        <ele>100.7</ele>
        <time>2013-03-03T16:52:52.000Z</time>
      </trkpt>
      <trkpt lat="48.83515" lon="2.35306">
        <ele>101.6</ele>
        <time>2013-03-03T16:52:53.000Z</time>
      </trkpt>
      <trkpt lat="48.83512" lon="2.3531">
        <ele>101.5</ele>
        <time>2013-03-03T16:52:55.000Z</time>
      </trkpt>
      <trkpt lat="48.8351" lon="2.35311">
        <ele>101.5</ele>
        <time>2013-03-03T16:52:56.000Z</time>
      </trkpt>
      <trkpt lat="48.83506" lon="2.35311">
        <ele>103.9</ele>
        <time>2013-03-03T16:52:58.000Z</time>
      </trkpt>
      <trkpt lat="48.83504" lon="2.35311">
        <ele>102.1</ele>
        <time>2013-03-03T16:52:59.000Z</time>
      </trkpt>
      <trkpt lat="48.83502" lon="2.35312">
        <ele>102.1</ele>
        <time>2013-03-03T16:53:00.000Z</time>
      </trkpt>
      <trkpt lat="48.835" lon="2.35312">
        <ele>101.2</ele>
        <time>2013-03-03T16:53:01.000Z</time>
      </trkpt>
      <trkpt lat="48.83496" lon="2.35316">
        <ele>99.9</ele>
        <time>2013-03-03T16:53:03.000Z</time>
      </trkpt>
      <trkpt lat="48.83494" lon="2.35318">
        <ele>100.9</ele>
        <time>2013-03-03T16:53:04.000Z</time>
      </trkpt>
      <trkpt lat="48.83492" lon="2.35323">
        <ele>100.1</ele>
        <time>2013-03-03T16:53:06.000Z</time>
      </trkpt>
      <trkpt lat="48.83491" lon="2.35325">
        <ele>100.2</ele>
        <time>2013-03-03T16:53:07.000Z</time>
      </trkpt>
      <trkpt lat="48.83488" lon="2.35329">
        <ele>99.6</ele>
        <time>2013-03-03T16:53:09.000Z</time>
      </trkpt>
      <trkpt lat="48.83486" lon="2.3533">
        <ele>99.5</ele>
        <time>2013-03-03T16:53:10.000Z</time>
      </trkpt>
      <trkpt lat="48.83484" lon="2.35331">
        <ele>99.2</ele>
        <time>2013-03-03T16:53:11.000Z</time>
      </trkpt>
      <trkpt lat="48.83481" lon="2.35333">
        <ele>98.7</ele>
        <time>2013-03-03T16:53:12.000Z</time>
      </trkpt>
      <trkpt lat="48.83479" lon="2.35335">
        <ele>98.1</ele>
        <time>2013-03-03T16:53:13.000Z</time>
      </trkpt>
      <trkpt lat="48.83476" lon="2.35337">
        <ele>97.9</ele>
        <time>2013-03-03T16:53:14.000Z</time>
      </trkpt>
      <trkpt lat="48.83473" lon="2.3534">
        <ele>97.6</ele>
        <time>2013-03-03T16:53:15.000Z</time>
      </trkpt>
      <trkpt lat="48.83471" lon="2.35342">
        <ele>96.2</ele>
        <time>2013-03-03T16:53:16.000Z</time>
      </trkpt>
      <trkpt lat="48.83469" lon="2.35344">
        <ele>95.5</ele>
        <time>2013-03-03T16:53:17.000Z</time>
      </trkpt>
      <trkpt lat="48.83466" lon="2.35347">
        <ele>94.9</ele>
        <time>2013-03-03T16:53:18.000Z</time>
      </trkpt>
      <trkpt lat="48.83464" lon="2.35349">
        <ele>94.5</ele>
        <time>2013-03-03T16:53:19.000Z</time>
      </trkpt>
      <trkpt lat="48.83462" lon="2.35351">
        <ele>94.5</ele>
        <time>2013-03-03T16:53:20.000Z</time>
      </trkpt>
      <trkpt lat="48.83458" lon="2.35354">
        <ele>94.5</ele>
        <time>2013-03-03T16:53:22.000Z</time>
      </trkpt>
      <trkpt lat="48.83457" lon="2.35355">
        <ele>94.7</ele>
        <time>2013-03-03T16:53:23.000Z</time>
      </trkpt>
      <trkpt lat="48.83453" lon="2.35357">
        <ele>95.5</ele>
        <time>2013-03-03T16:53:25.000Z</time>
      </trkpt>
      <trkpt lat="48.83451" lon="2.35358">
        <ele>95.8</ele>
        <time>2013-03-03T16:53:26.000Z</time>
      </trkpt>
      <trkpt lat="48.83448" lon="2.35359">
        <ele>95.8</ele>
        <time>2013-03-03T16:53:28.000Z</time>
      </trkpt>
      <trkpt lat="48.83446" lon="2.3536">
        <ele>96</ele>
        <time>2013-03-03T16:53:29.000Z</time>
      </trkpt>
      <trkpt lat="48.83443" lon="2.35361">
        <ele>95.7</ele>
        <time>2013-03-03T16:53:30.736Z</time>
      </trkpt>
      <trkpt lat="48.83442" lon="2.35362">
        <ele>95.9</ele>
        <time>2013-03-03T16:53:32.000Z</time>
      </trkpt>
      <trkpt lat="48.83439" lon="2.35365">
        <ele>95.1</ele>
        <time>2013-03-03T16:53:34.000Z</time>
      </trkpt>
      <trkpt lat="48.83438" lon="2.35367">
        <ele>94.7</ele>
        <time>2013-03-03T16:53:35.000Z</time>
      </trkpt>
      <trkpt lat="48.83434" lon="2.3537">
        <ele>94</ele>
        <time>2013-03-03T16:53:38.000Z</time>
      </trkpt>
      <trkpt lat="48.83433" lon="2.35372">
        <ele>94.8</ele>
        <time>2013-03-03T16:53:39.000Z</time>
      </trkpt>
      <trkpt lat="48.83431" lon="2.35375">
        <ele>94.6</ele>
        <time>2013-03-03T16:53:41.000Z</time>
      </trkpt>
      <trkpt lat="48.8343" lon="2.35377">
        <ele>94.5</ele>
        <time>2013-03-03T16:53:42.000Z</time>
      </trkpt>
      <trkpt lat="48.83427" lon="2.3538">
        <ele>94.8</ele>
        <time>2013-03-03T16:53:44.000Z</time>
      </trkpt>
      <trkpt lat="48.83425" lon="2.35381">
        <ele>94.3</ele>
        <time>2013-03-03T16:53:45.000Z</time>
      </trkpt>
      <trkpt lat="48.83422" lon="2.35384">
        <ele>94.7</ele>
        <time>2013-03-03T16:53:47.000Z</time>
      </trkpt>
      <trkpt lat="48.83421" lon="2.35385">
        <ele>94.7</ele>
        <time>2013-03-03T16:53:48.000Z</time>
      </trkpt>
      <trkpt lat="48.83417" lon="2.35388">
        <ele>94.6</ele>
        <time>2013-03-03T16:53:50.000Z</time>
      </trkpt>
      <trkpt lat="48.83415" lon="2.35389">
        <ele>93.6</ele>
        <time>2013-03-03T16:53:51.000Z</time>
      </trkpt>
      <trkpt lat="48.83413" lon="2.35391">
        <ele>93.5</ele>
        <time>2013-03-03T16:53:52.000Z</time>
      </trkpt>
      <trkpt lat="48.83411" lon="2.35393">
        <ele>93.8</ele>
        <time>2013-03-03T16:53:53.000Z</time>
      </trkpt>
      <trkpt lat="48.83409" lon="2.35394">
        <ele>94</ele>
        <time>2013-03-03T16:53:54.000Z</time>
      </trkpt>
      <trkpt lat="48.83407" lon="2.35396">
        <ele>94.1</ele>
        <time>2013-03-03T16:53:55.000Z</time>
      </trkpt>
      <trkpt lat="48.83405" lon="2.35398">
        <ele>94.6</ele>
        <time>2013-03-03T16:53:56.000Z</time>
      </trkpt>
      <trkpt lat="48.83402" lon="2.35399">
        <ele>94.7</ele>
        <time>2013-03-03T16:53:57.000Z</time>
      </trkpt>
      <trkpt lat="48.83399" lon="2.354">
        <ele>95.1</ele>
        <time>2013-03-03T16:53:58.000Z</time>
      </trkpt>
      <trkpt lat="48.83397" lon="2.354">
        <ele>94.7</ele>
        <time>2013-03-03T16:53:59.000Z</time>
      </trkpt>
      <trkpt lat="48.83393" lon="2.35403">
        <ele>94.9</ele>
        <time>2013-03-03T16:54:01.000Z</time>
      </trkpt>
      <trkpt lat="48.83391" lon="2.35404">
        <ele>94.1</ele>
        <time>2013-03-03T16:54:02.000Z</time>
      </trkpt>
      <trkpt lat="48.83387" lon="2.35407">
        <ele>94</ele>
        <time>2013-03-03T16:54:04.000Z</time>
      </trkpt>
      <trkpt lat="48.83385" lon="2.35408">
        <ele>94</ele>
        <time>2013-03-03T16:54:05.000Z</time>
      </trkpt>
      <trkpt lat="48.83381" lon="2.35411">
        <ele>93.8</ele>
        <time>2013-03-03T16:54:07.000Z</time>
      </trkpt>
      <trkpt lat="48.8338" lon="2.35412">
        <ele>93.6</ele>
        <time>2013-03-03T16:54:08.000Z</time>
      </trkpt>
      <trkpt lat="48.83376" lon="2.35414">
        <ele>93.7</ele>
        <time>2013-03-03T16:54:10.000Z</time>
      </trkpt>
      <trkpt lat="48.83374" lon="2.35415">
        <ele>94.1</ele>
        <time>2013-03-03T16:54:11.000Z</time>
      </trkpt>
      <trkpt lat="48.83371" lon="2.35418">
        <ele>93.9</ele>
        <time>2013-03-03T16:54:13.000Z</time>
      </trkpt>
      <trkpt lat="48.83368" lon="2.35419">
        <ele>92.6</ele>
        <time>2013-03-03T16:54:14.000Z</time>
      </trkpt>
      <trkpt lat="48.83366" lon="2.3542">
        <ele>92.3</ele>
        <time>2013-03-03T16:54:15.000Z</time>
      </trkpt>
      <trkpt lat="48.83364" lon="2.35422">
        <ele>91.9</ele>
        <time>2013-03-03T16:54:16.000Z</time>
      </trkpt>
      <trkpt lat="48.83361" lon="2.35423">
        <ele>91.3</ele>
        <time>2013-03-03T16:54:17.000Z</time>
      </trkpt>
      <trkpt lat="48.83358" lon="2.35423">
        <ele>91</ele>
        <time>2013-03-03T16:54:18.000Z</time>
      </trkpt>
      <trkpt lat="48.83356" lon="2.35424">
        <ele>91.3</ele>
        <time>2013-03-03T16:54:19.000Z</time>
      </trkpt>
      <trkpt lat="48.83353" lon="2.35425">
        <ele>93.1</ele>
        <time>2013-03-03T16:54:20.000Z</time>
      </trkpt>
      <trkpt lat="48.8335" lon="2.35426">
        <ele>93.6</ele>
        <time>2013-03-03T16:54:21.000Z</time>
      </trkpt>
      <trkpt lat="48.83348" lon="2.35427">
        <ele>94.7</ele>
        <time>2013-03-03T16:54:22.000Z</time>
      </trkpt>
      <trkpt lat="48.83345" lon="2.35429">
        <ele>94.4</ele>
        <time>2013-03-03T16:54:23.000Z</time>
      </trkpt>
      <trkpt lat="48.83343" lon="2.3543">
        <ele>94.5</ele>
        <time>2013-03-03T16:54:24.000Z</time>
      </trkpt>
      <trkpt lat="48.8334" lon="2.35434">
        <ele>94.9</ele>
        <time>2013-03-03T16:54:26.000Z</time>
      </trkpt>
      <trkpt lat="48.83338" lon="2.35435">
        <ele>94.8</ele>
        <time>2013-03-03T16:54:27.000Z</time>
      </trkpt>
      <trkpt lat="48.83336" lon="2.35438">
        <ele>94.8</ele>
        <time>2013-03-03T16:54:29.000Z</time>
      </trkpt>
      <trkpt lat="48.83333" lon="2.3544">
        <ele>95</ele>
        <time>2013-03-03T16:54:32.000Z</time>
      </trkpt>
      <trkpt lat="48.83329" lon="2.35439">
        <ele>102.3</ele>
        <time>2013-03-03T16:54:37.000Z</time>
      </trkpt>
      <trkpt lat="48.83328" lon="2.35439">
        <ele>102.3</ele>
        <time>2013-03-03T16:54:38.000Z</time>
      </trkpt>
      <trkpt lat="48.83324" lon="2.35439">
        <ele>114.8</ele>
        <time>2013-03-03T16:54:54.000Z</time>
      </trkpt>
      <trkpt lat="48.83323" lon="2.35439">
        <ele>114.5</ele>
        <time>2013-03-03T16:54:55.000Z</time>
      </trkpt>
      <trkpt lat="48.83321" lon="2.35443">
        <ele>114.6</ele>
        <time>2013-03-03T16:55:00.000Z</time>
      </trkpt>
      <trkpt lat="48.83319" lon="2.35445">
        <ele>116.1</ele>
        <time>2013-03-03T16:55:01.000Z</time>
      </trkpt>
      <trkpt lat="48.83316" lon="2.35447">
        <ele>118.4</ele>
        <time>2013-03-03T16:55:03.000Z</time>
      </trkpt>
      <trkpt lat="48.83314" lon="2.35448">
        <ele>118.9</ele>
        <time>2013-03-03T16:55:04.000Z</time>
      </trkpt>
      <trkpt lat="48.8331" lon="2.35452">
        <ele>119.3</ele>
        <time>2013-03-03T16:55:06.000Z</time>
      </trkpt>
      <trkpt lat="48.83308" lon="2.35453">
        <ele>119.5</ele>
        <time>2013-03-03T16:55:07.000Z</time>
      </trkpt>
      <trkpt lat="48.83304" lon="2.35453">
        <ele>121.4</ele>
        <time>2013-03-03T16:55:09.000Z</time>
      </trkpt>
      <trkpt lat="48.83301" lon="2.35453">
        <ele>121.8</ele>
        <time>2013-03-03T16:55:10.000Z</time>
      </trkpt>
      <trkpt lat="48.83297" lon="2.3545">
        <ele>120.4</ele>
        <time>2013-03-03T16:55:19.000Z</time>
      </trkpt>
      <trkpt lat="48.83297" lon="2.3545">
        <ele>120</ele>
        <time>2013-03-03T16:55:20.000Z</time>
      </trkpt>
      <trkpt lat="48.83293" lon="2.35446">
        <ele>119.3</ele>
        <time>2013-03-03T16:56:41.000Z</time>
      </trkpt>
      <trkpt lat="48.83293" lon="2.35446">
        <ele>119.2</ele>
        <time>2013-03-03T16:56:42.000Z</time>
      </trkpt>
      <trkpt lat="48.83294" lon="2.35441">
        <ele>121.6</ele>
        <time>2013-03-03T16:56:53.000Z</time>
      </trkpt>
      <trkpt lat="48.83296" lon="2.3544">
        <ele>120.6</ele>
        <time>2013-03-03T16:56:54.000Z</time>
      </trkpt>
      <trkpt lat="48.83299" lon="2.35439">
        <ele>116.1</ele>
        <time>2013-03-03T16:56:56.000Z</time>
      </trkpt>
      <trkpt lat="48.833" lon="2.35439">
        <ele>116</ele>
        <time>2013-03-03T16:56:57.000Z</time>
      </trkpt>
      <trkpt lat="48.83304" lon="2.35438">
        <ele>112.1</ele>
        <time>2013-03-03T16:56:59.000Z</time>
      </trkpt>
      <trkpt lat="48.83305" lon="2.35438">
        <ele>111.2</ele>
        <time>2013-03-03T16:57:00.000Z</time>
      </trkpt>
      <trkpt lat="48.83308" lon="2.35435">
        <ele>110.3</ele>
        <time>2013-03-03T16:57:02.000Z</time>
      </trkpt>
      <trkpt lat="48.83309" lon="2.35433">
        <ele>111</ele>
        <time>2013-03-03T16:57:03.000Z</time>
      </trkpt>
      <trkpt lat="48.83313" lon="2.35431">
        <ele>112.3</ele>
        <time>2013-03-03T16:57:06.000Z</time>
      </trkpt>
      <trkpt lat="48.83314" lon="2.35432">
        <ele>113.2</ele>
        <time>2013-03-03T16:57:07.000Z</time>
      </trkpt>
      <trkpt lat="48.83317" lon="2.35427">
        <ele>113.5</ele>
        <time>2013-03-03T16:57:58.000Z</time>
      </trkpt>
      <trkpt lat="48.83317" lon="2.35427">
        <ele>113.4</ele>
        <time>2013-03-03T16:57:59.000Z</time>
      </trkpt>
      <trkpt lat="48.83321" lon="2.35424">
        <ele>113.4</ele>
        <time>2013-03-03T16:58:02.000Z</time>
      </trkpt>
      <trkpt lat="48.83322" lon="2.35424">
        <ele>113.7</ele>
        <time>2013-03-03T16:58:03.000Z</time>
      </trkpt>
      <trkpt lat="48.83323" lon="2.3542">
        <ele>114.9</ele>
        <time>2013-03-03T17:00:21.000Z</time>
      </trkpt>
    </trkseg>
  </trk>
</gpx>